
Distance (Route):
Temperature : 16.9°C
Humidity : 79.3%
Pressure : 995.8hPa| Receiver | Frames | First received | Last received |
|---|---|---|---|
| DL1XH-west | 739 | 2026-08-31 03:53:37 | 2026-08-31 06:04:01 |
| BIOWL1-15 | 645 | 2026-08-31 03:48:23 | 2026-08-31 06:03:46 |
| DO2JMG | 623 | 2026-08-31 04:01:54 | 2026-08-31 05:57:29 |
| AA1-15 | 446 | 2026-08-31 04:11:09 | 2026-08-31 05:56:57 |
| DM0DOS-11 | 427 | 2026-08-31 03:46:45 | 2026-08-31 06:04:08 |
| DL1XH-15 | 415 | 2026-08-31 04:02:31 | 2026-08-31 06:02:22 |
| DL1XH1-15 | 347 | 2026-08-31 03:52:59 | 2026-08-31 06:03:59 |
| DF8AY | 347 | 2026-08-31 04:18:47 | 2026-08-31 05:55:19 |
| HSKMA3-T | 328 | 2026-08-31 04:34:59 | 2026-08-31 05:48:39 |
| DB0DAN | 326 | 2026-08-31 04:19:40 | 2026-08-31 06:00:40 |
| DO2SHX-10 | 265 | 2026-08-31 04:24:01 | 2026-08-31 05:53:45 |
| GOEST3-10 | 168 | 2026-08-31 03:51:27 | 2026-08-31 06:04:15 |
| DD8BA-10 | 155 | 2026-08-31 03:48:08 | 2026-08-31 06:03:12 |
| DL3AQ-11 | 124 | 2026-08-31 04:01:20 | 2026-08-31 05:50:40 |
| DJ2DS-15 | 100 | 2026-08-31 03:48:00 | 2026-08-31 06:04:54 |
| DF5WG-10 | 81 | 2026-08-31 03:57:42 | 2026-08-31 06:02:55 |
| DL4XJ-10 | 59 | 2026-08-31 04:10:50 | 2026-08-31 05:52:31 |
| DL1NUX | 48 | 2026-08-31 04:43:03 | 2026-08-31 05:42:35 |
| DL4BBY-15 | 46 | 2026-08-31 03:48:21 | 2026-08-31 06:01:06 |
| DO9LL-15 | 40 | 2026-08-31 03:48:14 | 2026-08-31 05:56:12 |
| DF4FW | 40 | 2026-08-31 03:59:41 | 2026-08-31 06:01:11 |
| BIOWL9-15 | 39 | 2026-08-31 03:48:57 | 2026-08-31 06:03:59 |
| DC6BW-12 | 31 | 2026-08-31 03:48:10 | 2026-08-31 05:43:07 |
| DL1LOL-11 | 30 | 2026-08-31 03:46:39 | 2026-08-31 06:01:50 |
| HTAHTA | 29 | 2026-08-31 03:52:09 | 2026-08-31 05:59:57 |
| DO3DL | 29 | 2026-08-31 04:27:42 | 2026-08-31 05:46:27 |
| BIOWL7-15 | 28 | 2026-08-31 03:56:34 | 2026-08-31 06:02:47 |
| DD1CC3-15 | 24 | 2026-08-31 03:56:04 | 2026-08-31 05:44:07 |
| BUE01 | 24 | 2026-08-31 04:08:53 | 2026-08-31 05:50:52 |
| SONCRA | 23 | 2026-08-31 04:08:37 | 2026-08-31 05:55:45 |
| DF8AY-15 | 23 | 2026-08-31 04:46:36 | 2026-08-31 05:52:50 |
| DK9SH | 22 | 2026-08-31 03:53:26 | 2026-08-31 06:01:20 |
| SONDE2-11 | 21 | 2026-08-31 04:38:31 | 2026-08-31 05:49:56 |
| DC4HF-4 | 20 | 2026-08-31 04:01:37 | 2026-08-31 05:58:48 |
| DD1CC8 | 20 | 2026-08-31 04:15:31 | 2026-08-31 05:44:01 |
| DB0UT-7 | 19 | 2026-08-31 04:02:06 | 2026-08-31 05:51:04 |
| MET0W-2 | 18 | 2026-08-31 04:05:12 | 2026-08-31 05:37:58 |
| DB0NH | 18 | 2026-08-31 04:35:41 | 2026-08-31 05:51:30 |
| SMARD9-15 | 18 | 2026-08-31 04:57:41 | 2026-08-31 06:00:51 |
| DD1CC2-15 | 17 | 2026-08-31 03:56:01 | 2026-08-31 05:47:12 |
| D01LWL | 17 | 2026-08-31 04:42:45 | 2026-08-31 05:53:40 |
| DL1CLM-18 | 15 | 2026-08-31 03:48:25 | 2026-08-31 05:58:11 |
| DL8OAI-8 | 13 | 2026-08-31 04:18:00 | 2026-08-31 05:46:07 |
| DO2LYB-13 | 10 | 2026-08-31 04:12:37 | 2026-08-31 05:56:44 |
| EDDB2-12 | 10 | 2026-08-31 05:01:56 | 2026-08-31 05:42:48 |
| DK5PH-5 | 9 | 2026-08-31 05:02:22 | 2026-08-31 05:38:13 |
| DF2AP-13 | 7 | 2026-08-31 05:28:18 | 2026-08-31 05:41:18 |
| DJ8HS-15 | 6 | 2026-08-31 05:16:49 | 2026-08-31 05:23:18 |
| WEDDY | 5 | 2026-08-31 04:11:27 | 2026-08-31 05:52:49 |
| SMARD9-10 | 5 | 2026-08-31 04:16:11 | 2026-08-31 05:59:47 |
| DO2KSM | 5 | 2026-08-31 04:42:10 | 2026-08-31 05:12:42 |
| DF7PN | 5 | 2026-08-31 05:22:56 | 2026-08-31 05:34:51 |
| DL3OBA | 4 | 2026-08-31 04:58:57 | 2026-08-31 05:25:12 |
| DB0ND-19 | 3 | 2026-08-31 04:58:10 | 2026-08-31 05:50:55 |
| SO1NDE-10 | 2 | 2026-08-31 05:00:40 | 2026-08-31 05:03:10 |
| DO1YAY-16 | 2 | 2026-08-31 05:17:45 | 2026-08-31 05:20:57 |
| SP3BTT-10 | 2 | 2026-08-31 05:26:57 | 2026-08-31 05:34:31 |
| DL8DAS-14 | 2 | 2026-08-31 05:30:09 | 2026-08-31 05:33:46 |
| S3001 | 2 | 2026-08-31 05:33:12 | 2026-08-31 05:34:45 |
| DD1CC1-15 | 1 | 2026-08-31 04:46:47 | 2026-08-31 04:46:47 |
| DL1ZP-14 | 1 | 2026-08-31 05:33:58 | 2026-08-31 05:33:58 |
| Receiver | Date | Latitude | Longitude | Direction | Speed | Altitude | Climb | Temperature | Humidity | Pressure | Voltage | Killtimer | Uptime | BKT | XDATA |
|---|---|---|---|---|---|---|---|---|---|---|---|---|---|---|---|
| DJ2DS-15 | 2026-08-31 06:04:54 | 53.31063 | 8.54501 | 39° | 29km/h | 134m | -12.2m/s | 16.9°C | 79.3% | 995.8hPa | 2.7V | 00:00:00 | 00:00:00 | 00:00:00 | |
| DJ2DS-15 | 2026-08-31 06:04:18 | 53.31051 | 8.54483 | 42° | 33km/h | 159m | -11.4m/s | 16.9°C | 79.0% | 993.0hPa | 2.7V | 00:00:00 | 00:00:00 | 00:00:00 | |
| GOEST3-10 | 2026-08-31 06:04:15 | 53.31038 | 8.54464 | 44° | 33km/h | 183m | -12.3m/s | 16.7°C | 79.2% | 990.2hPa | 2.7V | 00:00:00 | 00:00:00 | 00:00:00 | |
| GOEST3-10 | 2026-08-31 06:04:14 | 53.31031 | 8.54453 | 41° | 38km/h | 195m | -12.9m/s | 16.7°C | 78.4% | 988.5hPa | 2.6V | 00:00:00 | 02:32:34 | 00:00:00 | |
| GOEST3-10 | 2026-08-31 06:04:13 | 53.31024 | 8.54443 | 45° | 38km/h | 208m | -12.9m/s | 16.7°C | 78.4% | 987.3hPa | 2.6V | 00:00:00 | 00:00:00 | 00:00:00 | |
| DJ2DS-15 | 2026-08-31 06:04:13 | 53.31024 | 8.54443 | 45° | 38km/h | 208m | -12.9m/s | 16.7°C | 78.4% | 987.3hPa | 2.6V | 00:00:00 | 02:32:33 | 00:00:00 | |
| GOEST3-10 | 2026-08-31 06:04:12 | 53.31017 | 8.54431 | 46° | 38km/h | 222m | -12.9m/s | 16.6°C | 78.6% | 985.8hPa | 2.6V | 00:00:00 | 02:32:32 | 00:00:00 | |
| GOEST3-10 | 2026-08-31 06:04:11 | 53.31010 | 8.54419 | 47° | 40km/h | 234m | -11.8m/s | 16.6°C | 78.7% | 984.3hPa | 2.7V | 00:00:00 | 00:00:00 | 00:00:00 | |
| GOEST3-10 | 2026-08-31 06:04:10 | 53.31004 | 8.54407 | 47° | 38km/h | 246m | -11.5m/s | 16.6°C | 77.6% | 983.2hPa | 2.7V | 00:00:00 | 02:32:30 | 00:00:00 | |
| GOEST3-10 | 2026-08-31 06:04:09 | 53.30997 | 8.54395 | 51° | 37km/h | 258m | -12.1m/s | 16.6°C | 77.7% | 981.3hPa | 2.7V | 08:00:00 | 00:00:00 | 00:00:00 | |
| DM0DOS-11 | 2026-08-31 06:04:08 | 53.30959 | 8.54313 | 50° | 46km/h | 331m | -13m/s | 16.5°C | 76.1% | 973.3hPa | 2.6V | 08:00:34 | 02:32:23 | 00:00:00 | |
| GOEST3-10 | 2026-08-31 06:04:08 | 53.30991 | 8.54383 | 52° | 40km/h | 270m | -12.2m/s | 16.6°C | 77.4% | 980.3hPa | 2.7V | 00:00:00 | 02:32:28 | 00:00:00 | |
| DJ2DS-15 | 2026-08-31 06:04:08 | 53.30991 | 8.54383 | 52° | 42km/h | 270m | -12.2m/s | 16.6°C | 77.4% | 980.3hPa | 2.7V | 00:00:00 | 02:32:28 | 00:00:00 | |
| GOEST3-10 | 2026-08-31 06:04:07 | 53.30985 | 8.54370 | 51° | 38km/h | 282m | -12.0m/s | 16.6°C | 76.5% | 978.9hPa | 2.7V | 00:00:00 | 00:00:00 | 00:00:00 | |
| GOEST3-10 | 2026-08-31 06:04:06 | 53.30979 | 8.54356 | 54° | 44km/h | 294m | -12.3m/s | 16.6°C | 76.4% | 977.4hPa | 2.7V | 00:00:00 | 02:32:26 | 00:00:00 | |
| GOEST3-10 | 2026-08-31 06:04:04 | 53.30966 | 8.54328 | 55° | 44km/h | 319m | -12.8m/s | 16.5°C | 76.0% | 974.6hPa | 2.7V | 00:00:00 | 00:00:00 | 00:00:00 | |
| DM0DOS-11 | 2026-08-31 06:04:03 | 53.30939 | 8.54266 | 53° | 47km/h | 368m | -12.5m/s | 16.6°C | 75% | 969.1hPa | 2.7V | 08:00:37 | 02:32:20 | 00:00:00 | |
| DL1XH-west | 2026-08-31 06:04:01 | 53.30946 | 8.54282 | 58° | 47km/h | 356m | -12.8m/s | 16.5°C | 81.2% | 970.4hPa | 2.7V | 08:00:48 | 02:32:21 | 00:00:00 | |
| DL1XH-west | 2026-08-31 06:04:00 | 53.30939 | 8.54266 | 54° | 47km/h | 369m | -12.5m/s | 16.6°C | 81.3% | 969.1hPa | 2.7V | 08:00:48 | 02:32:20 | 00:00:00 | |
| BIOWL9-15 | 2026-08-31 06:03:59 | 53.30867 | 8.54059 | 59° | 46km/h | 518m | -12.9m/s | 15.6°C | 76.4% | 952.1hPa | 2.6V | 00:00:00 | 00:00:00 | 00:00:00 | |
| DL1XH1-15 | 2026-08-31 06:03:59 | 53.30926 | 8.54233 | 57° | 47km/h | 393m | -12.3m/s | 16.4°C | 75.3% | 966.1hPa | 2.6V | 08:00:39 | 02:32:18 | 00:00:00 | |
| DL1XH-west | 2026-08-31 06:03:58 | 53.30926 | 8.54233 | 57° | 47km/h | 393m | -12.3m/s | 16.4°C | 81.5% | 966.1hPa | 2.6V | 08:00:48 | 02:32:18 | 00:00:00 | |
| DL1XH-west | 2026-08-31 06:03:56 | 53.30914 | 8.54199 | 59° | 49km/h | 418m | -12.7m/s | 16.4°C | 80.5% | 963.2hPa | 2.7V | 08:00:48 | 02:32:16 | 00:00:00 | |
| DL1XH-west | 2026-08-31 06:03:54 | 53.30901 | 8.54165 | 62° | 46km/h | 443m | -12.3m/s | 16.2°C | 80.8% | 960.4hPa | 2.6V | 08:00:48 | 02:32:14 | 00:00:00 | |
| DL1XH-west | 2026-08-31 06:03:53 | 53.30896 | 8.54147 | 61° | 49km/h | 455m | -12.5m/s | 16.1°C | 81.2% | 959.2hPa | 2.7V | 08:00:48 | 02:32:13 | 00:00:00 | |
| GOEST3-10 | 2026-08-31 06:03:52 | 53.30890 | 8.54129 | 63° | 46km/h | 468m | -12.7m/s | 16.0°C | 74.6% | 957.6hPa | 2.7V | 00:00:00 | 02:32:12 | 00:00:00 | |
| DM0DOS-11 | 2026-08-31 06:03:51 | 53.30867 | 8.54059 | 59° | 47km/h | 518m | -12.9m/s | 15.6°C | 76.4% | 952.1hPa | 2.7V | 08:00:49 | 02:32:08 | 00:00:00 | |
| DL1XH-west | 2026-08-31 06:03:51 | 53.30884 | 8.54111 | 61° | 49km/h | 480m | -12.8m/s | 15.9°C | 81.8% | 956.2hPa | 2.7V | 08:00:48 | 02:32:11 | 00:00:00 | |
| DL1XH-west | 2026-08-31 06:03:50 | 53.30878 | 8.54094 | 61° | 46km/h | 493m | -12.4m/s | 15.8°C | 82.1% | 954.8hPa | 2.6V | 08:00:48 | 02:32:10 | 00:00:00 | |
| DL1XH-west | 2026-08-31 06:03:49 | 53.30873 | 8.54077 | 63° | 47km/h | 505m | -12.7m/s | 15.7°C | 82.7% | 953.3hPa | 2.7V | 08:00:48 | 02:32:09 | 00:00:00 | |
| DL1XH-west | 2026-08-31 06:03:47 | 53.30861 | 8.54042 | 62° | 47km/h | 531m | -12.6m/s | 15.5°C | 84.1% | 950.6hPa | 2.7V | 08:01:39 | 02:32:07 | 00:00:00 | |
| BIOWL1-15 | 2026-08-31 06:03:46 | 53.30855 | 8.54024 | 60° | 49km/h | 543m | -12.8m/s | 15.4°C | 84.4% | 949.2hPa | 2.7V | 08:01:39 | 02:32:06 | 00:00:00 | |
| DM0DOS-11 | 2026-08-31 06:03:46 | 53.30843 | 8.53988 | 60° | 49km/h | 568m | -12.8m/s | 15.3°C | 78.1% | 946.2hPa | 2.6V | 08:00:53 | 02:32:04 | 00:00:00 | |
| DL1XH-west | 2026-08-31 06:03:44 | 53.30843 | 8.53988 | 60° | 49km/h | 568m | -12.8m/s | 15.3°C | 85.1% | 946.2hPa | 2.6V | 08:01:39 | 02:32:04 | 00:00:00 | |
| BIOWL1-15 | 2026-08-31 06:03:42 | 53.30818 | 8.53917 | 57° | 49km/h | 617m | -12.8m/s | 15°C | 87.5% | 940.8hPa | 2.7V | 08:01:39 | 02:32:00 | 00:00:00 | |
| DL1XH-west | 2026-08-31 06:03:42 | 53.30831 | 8.53952 | 59° | 51km/h | 593m | -12.1m/s | 15.2°C | 86.6% | 943.5hPa | 2.7V | 08:01:39 | 02:32:02 | 00:00:00 | |
| DL1XH-west | 2026-08-31 06:03:41 | 53.30824 | 8.53935 | 58° | 47km/h | 605m | -11.4m/s | 15.1°C | 87% | 942.1hPa | 2.7V | 08:01:39 | 02:32:01 | 00:00:00 | |
| DL1XH-west | 2026-08-31 06:03:39 | 53.30811 | 8.53900 | 59° | 47km/h | 629m | -12.1m/s | 14.9°C | 87.2% | 939.4hPa | 2.7V | 08:01:39 | 02:31:59 | 00:00:00 | |
| DL1XH-west | 2026-08-31 06:03:38 | 53.30804 | 8.53883 | 55° | 47km/h | 641m | -12.2m/s | 14.9°C | 86.2% | 938.1hPa | 2.7V | 08:01:39 | 02:31:58 | 00:00:00 | |
| DL1XH-west | 2026-08-31 06:03:37 | 53.30797 | 8.53866 | 57° | 51km/h | 653m | -12.5m/s | 14.7°C | 86.7% | 936.8hPa | 2.7V | 08:01:39 | 02:31:57 | 00:00:00 | |
| BIOWL1-15 | 2026-08-31 06:03:36 | 53.30790 | 8.53848 | 55° | 49km/h | 665m | -11.9m/s | 14.6°C | 87.1% | 935.5hPa | 2.6V | 08:01:39 | 02:31:56 | 00:00:00 | |
| DL1XH-west | 2026-08-31 06:03:35 | 53.30783 | 8.53831 | 58° | 47km/h | 678m | -12.6m/s | 14.5°C | 87.5% | 934.2hPa | 2.6V | 08:01:39 | 02:31:55 | 00:00:00 | |
| DL1XH-west | 2026-08-31 06:03:34 | 53.30777 | 8.53814 | 56° | 51km/h | 690m | -12.8m/s | 14.4°C | 87.8% | 932.7hPa | 2.7V | 08:01:39 | 02:31:54 | 00:00:00 | |
| DL1XH-west | 2026-08-31 06:03:32 | 53.30762 | 8.53780 | 54° | 51km/h | 716m | -13.5m/s | 14.2°C | 88.1% | 930hPa | 2.7V | 08:01:39 | 02:31:52 | 00:00:00 | |
| DL1XH-west | 2026-08-31 06:03:31 | 53.30755 | 8.53764 | 53° | 47km/h | 729m | -13.1m/s | 14.1°C | 88.4% | 928.4hPa | 2.7V | 08:01:39 | 02:31:51 | 00:00:00 | |
| DL1XH-west | 2026-08-31 06:03:30 | 53.30747 | 8.53747 | 53° | 51km/h | 742m | -13.1m/s | 14°C | 88.9% | 927.1hPa | 2.7V | 08:01:39 | 02:31:50 | 00:00:00 | |
| DL1XH-west | 2026-08-31 06:03:28 | 53.30732 | 8.53713 | 53° | 53km/h | 768m | -11.9m/s | 13.8°C | 91.7% | 924.3hPa | 2.6V | 08:01:39 | 02:31:48 | 00:00:00 | |
| DL1XH-west | 2026-08-31 06:03:27 | 53.30724 | 8.53697 | 51° | 49km/h | 780m | -12.5m/s | 13.7°C | 91.9% | 923hPa | 2.7V | 08:01:39 | 02:31:47 | 00:00:00 | |
| DL1XH-west | 2026-08-31 06:03:25 | 53.30708 | 8.53663 | 51° | 49km/h | 805m | -13m/s | 13.4°C | 93.4% | 920.3hPa | 2.7V | 08:01:39 | 02:31:45 | 00:00:00 | |
| DL1XH-west | 2026-08-31 06:03:23 | 53.30693 | 8.53628 | 54° | 49km/h | 829m | -13.1m/s | 13.2°C | 94.8% | 917.4hPa | 2.7V | 08:01:39 | 02:31:43 | 00:00:00 | |
| DL1XH-west | 2026-08-31 06:03:22 | 53.30685 | 8.53611 | 52° | 53km/h | 842m | -13.1m/s | 13.1°C | 95.3% | 916hPa | 2.7V | 08:01:39 | 02:31:42 | 00:00:00 | |
| DL1XH-west | 2026-08-31 06:03:21 | 53.30677 | 8.53594 | 54° | 47km/h | 854m | -13m/s | 13°C | 95.4% | 914.6hPa | 2.6V | 08:01:39 | 02:31:41 | 00:00:00 | |
| DL1XH-west | 2026-08-31 06:03:19 | 53.30662 | 8.53559 | 55° | 49km/h | 880m | -13.2m/s | 12.7°C | 96.3% | 912.1hPa | 2.7V | 08:01:39 | 02:31:39 | 00:00:00 | |
| BIOWL1-15 | 2026-08-31 06:03:18 | 53.30654 | 8.53543 | 51° | 51km/h | 893m | -13.1m/s | 12.6°C | 96.6% | 910.4hPa | 2.7V | 08:01:39 | 02:31:38 | 00:00:00 | |
| DL1XH-west | 2026-08-31 06:03:17 | 53.30647 | 8.53526 | 55° | 47km/h | 906m | -12.6m/s | 12.6°C | 94.9% | 909.1hPa | 2.7V | 08:01:39 | 02:31:37 | 00:00:00 | |
| BIOWL1-15 | 2026-08-31 06:03:16 | 53.30632 | 8.53493 | 55° | 49km/h | 931m | -12.3m/s | 12.5°C | 92.7% | 906.3hPa | 2.7V | 08:01:39 | 02:31:35 | 00:00:00 | |
| DL1XH-west | 2026-08-31 06:03:16 | 53.30639 | 8.53510 | 52° | 49km/h | 919m | -12.7m/s | 12.6°C | 93.6% | 907.8hPa | 2.7V | 08:01:39 | 02:31:36 | 00:00:00 | |
| DL1XH-west | 2026-08-31 06:03:14 | 53.30624 | 8.53476 | 52° | 47km/h | 944m | -12.2m/s | 12.4°C | 92.8% | 905.1hPa | 2.6V | 08:01:39 | 02:31:34 | 00:00:00 | |
| DL1XH-west | 2026-08-31 06:03:13 | 53.30617 | 8.53459 | 54° | 51km/h | 956m | -13m/s | 12.3°C | 93.3% | 903.7hPa | 2.6V | 08:01:39 | 02:31:33 | 00:00:00 | |
| DL1XH-west | 2026-08-31 06:03:12 | 53.30610 | 8.53443 | 55° | 47km/h | 969m | -13.2m/s | 12.2°C | 94% | 902.4hPa | 2.7V | 08:01:39 | 02:31:32 | 00:00:00 | |
| DD8BA-10 | 2026-08-31 06:03:12 | 53.30610 | 8.53443 | 55° | 49km/h | 969m | -13.1m/s | 12.1°C | 86.8% | 902.3hPa | 2.6V | 00:00:00 | 00:00:00 | 00:00:00 | |
| DL1XH1-15 | 2026-08-31 06:03:11 | 53.30564 | 8.53344 | 52° | 47km/h | 1045m | -12.8m/s | 11.5°C | 88.8% | 894.1hPa | 2.6V | 08:01:31 | 02:31:26 | 00:00:00 | |
| DL1XH-west | 2026-08-31 06:03:11 | 53.30602 | 8.53426 | 53° | 51km/h | 982m | -13.4m/s | 12.1°C | 94.3% | 901hPa | 2.7V | 08:01:39 | 02:31:31 | 00:00:00 | |
| BIOWL1-15 | 2026-08-31 06:03:10 | 53.30595 | 8.53410 | 53° | 47km/h | 995m | -12.7m/s | 11.9°C | 94.7% | 899.6hPa | 2.7V | 08:01:39 | 02:31:30 | 00:00:00 | |
| DL1XH-west | 2026-08-31 06:03:09 | 53.30587 | 8.53393 | 50° | 51km/h | 1007m | -12.6m/s | 11.8°C | 95% | 898.1hPa | 2.7V | 08:01:39 | 02:31:29 | 00:00:00 | |
| DL1XH-west | 2026-08-31 06:03:08 | 53.30579 | 8.53377 | 53° | 49km/h | 1020m | -13m/s | 11.7°C | 95% | 897hPa | 2.7V | 08:01:39 | 02:31:28 | 00:00:00 | |
| DL1XH-west | 2026-08-31 06:03:07 | 53.30572 | 8.53360 | 50° | 49km/h | 1033m | -12.5m/s | 11.6°C | 95.3% | 895.6hPa | 2.6V | 08:01:39 | 02:31:27 | 00:00:00 | |
| BIOWL1-15 | 2026-08-31 06:03:06 | 53.30564 | 8.53344 | 53° | 47km/h | 1045m | -12.8m/s | 11.5°C | 95.3% | 894.1hPa | 2.6V | 08:01:39 | 02:31:26 | 00:00:00 | |
| DD8BA-10 | 2026-08-31 06:03:06 | 53.30564 | 8.53344 | 53° | 49km/h | 1045m | -12.8m/s | 11.5°C | 88.8% | 894.1hPa | 2.7V | 00:00:00 | 00:00:00 | 00:00:00 | |
| DM0DOS-11 | 2026-08-31 06:03:05 | 53.30533 | 8.53278 | 52° | 51km/h | 1094m | -12.3m/s | 11.2°C | 88.4% | 888.7hPa | 2.7V | 08:01:35 | 02:31:22 | 00:00:00 | |
| DL1XH-west | 2026-08-31 06:03:05 | 53.30556 | 8.53328 | 51° | 51km/h | 1058m | -12.4m/s | 11.4°C | 95.4% | 892.9hPa | 2.7V | 08:01:39 | 02:31:25 | 00:00:00 | |
| BIOWL1-15 | 2026-08-31 06:03:04 | 53.30549 | 8.53311 | 53° | 49km/h | 1070m | -12.4m/s | 11.3°C | 95.9% | 891.6hPa | 2.7V | 08:01:39 | 02:31:24 | 00:00:00 | |
| DL1XH-west | 2026-08-31 06:03:03 | 53.30541 | 8.53295 | 50° | 51km/h | 1082m | -12.6m/s | 11.3°C | 95.3% | 890.3hPa | 2.7V | 08:01:39 | 02:31:23 | 00:00:00 | |
| BIOWL1-15 | 2026-08-31 06:03:02 | 53.30533 | 8.53278 | 53° | 51km/h | 1095m | -12.3m/s | 11.2°C | 94.6% | 888.7hPa | 2.7V | 08:01:39 | 02:31:22 | 00:00:00 | |
| DL1XH-west | 2026-08-31 06:03:01 | 53.30525 | 8.53262 | 51° | 49km/h | 1107m | -12m/s | 11.1°C | 94.8% | 887.6hPa | 2.7V | 08:01:39 | 02:31:21 | 00:00:00 | |
| BIOWL1-15 | 2026-08-31 06:03:00 | 53.30517 | 8.53245 | 53° | 51km/h | 1119m | -13m/s | 11°C | 95% | 886.3hPa | 2.6V | 08:01:39 | 02:31:20 | 00:00:00 | |
| DM0DOS-11 | 2026-08-31 06:02:59 | 53.30502 | 8.53212 | 51° | 51km/h | 1144m | -12.7m/s | 10.8°C | 89.5% | 883.5hPa | 2.7V | 08:01:39 | 02:31:18 | 00:00:00 | |
| BIOWL1-15 | 2026-08-31 06:02:59 | 53.30509 | 8.53229 | 53° | 47km/h | 1132m | -12.8m/s | 10.9°C | 94.8% | 885.1hPa | 2.6V | 08:01:39 | 02:31:19 | 00:00:00 | |
| BIOWL1-15 | 2026-08-31 06:02:58 | 53.30502 | 8.53212 | 51° | 51km/h | 1144m | -12.7m/s | 10.8°C | 95% | 883.5hPa | 2.7V | 08:01:39 | 02:31:18 | 00:00:00 | |
| DL1XH-west | 2026-08-31 06:02:57 | 53.30494 | 8.53195 | 53° | 49km/h | 1157m | -12.8m/s | 10.7°C | 95.2% | 882.5hPa | 2.7V | 08:02:30 | 02:31:17 | 00:00:00 | |
| BIOWL1-15 | 2026-08-31 06:02:56 | 53.30470 | 8.53147 | 49° | 49km/h | 1195m | -12.4m/s | 10.4°C | 95.9% | 878.2hPa | 2.6V | 08:02:30 | 02:31:14 | 00:00:00 | |
| DL1XH-west | 2026-08-31 06:02:55 | 53.30478 | 8.53163 | 51° | 51km/h | 1183m | -12.9m/s | 10.6°C | 95.4% | 879.7hPa | 2.7V | 08:02:30 | 02:31:15 | 00:00:00 | |
| DF5WG-10 | 2026-08-31 06:02:55 | 53.30478 | 8.53163 | 52° | 51km/h | 1183m | -12.8m/s | 10.5°C | 89.9% | 879.6hPa | 2.7V | 00:00:00 | 02:31:15 | 00:00:00 | |
| GOEST3-10 | 2026-08-31 06:02:54 | 53.30470 | 8.53147 | 49° | 49km/h | 1195m | -12.3m/s | 10.4°C | 90.4% | 878.2hPa | 2.6V | 08:01:00 | 00:00:00 | 00:00:00 | |
| DD8BA-10 | 2026-08-31 06:02:54 | 53.30470 | 8.53147 | 49° | 49km/h | 1195m | -12.3m/s | 10.4°C | 90.4% | 878.2hPa | 2.7V | 00:00:00 | 00:00:00 | 00:00:00 | |
| DL1XH1-15 | 2026-08-31 06:02:53 | 53.30422 | 8.53052 | 52° | 47km/h | 1271m | -13.2m/s | 9.7°C | 94.3% | 870.3hPa | 2.7V | 08:01:49 | 02:31:08 | 00:00:00 | |
| DL1XH-west | 2026-08-31 06:02:53 | 53.30462 | 8.53131 | 52° | 51km/h | 1207m | -12.4m/s | 10.3°C | 96.7% | 877.1hPa | 2.6V | 08:02:30 | 02:31:13 | 00:00:00 | |
| DL1XH-west | 2026-08-31 06:02:52 | 53.30454 | 8.53115 | 50° | 47km/h | 1220m | -13.2m/s | 10.2°C | 97.6% | 875.9hPa | 2.7V | 08:02:30 | 02:31:12 | 00:00:00 | |
| DL1XH-west | 2026-08-31 06:02:50 | 53.30438 | 8.53084 | 50° | 47km/h | 1245m | -13m/s | 10°C | 98.7% | 873.2hPa | 2.7V | 08:02:30 | 02:31:10 | 00:00:00 | |
| DL1XH-west | 2026-08-31 06:02:49 | 53.30430 | 8.53068 | 51° | 51km/h | 1258m | -12.9m/s | 9.9°C | 98.9% | 871.7hPa | 2.7V | 08:02:30 | 02:31:09 | 00:00:00 | |
| GOEST3-10 | 2026-08-31 06:02:48 | 53.30422 | 8.53052 | 53° | 47km/h | 1271m | -13.1m/s | 9.7°C | 94.3% | 870.2hPa | 2.7V | 00:00:00 | 00:00:00 | 00:00:00 | |
| DD8BA-10 | 2026-08-31 06:02:48 | 53.30422 | 8.53052 | 53° | 49km/h | 1271m | -13.1m/s | 9.7°C | 94.3% | 870.2hPa | 2.7V | 00:00:00 | 00:00:00 | 00:00:00 | |
| DJ2DS-15 | 2026-08-31 06:02:48 | 53.30422 | 8.53052 | 53° | 49km/h | 1271m | -13.1m/s | 9.7°C | 94.3% | 870.2hPa | 2.7V | 00:00:00 | 02:31:08 | 00:00:00 | |
| DL1XH-west | 2026-08-31 06:02:48 | 53.30422 | 8.53052 | 52° | 47km/h | 1271m | -13.2m/s | 9.7°C | 99.3% | 870.3hPa | 2.7V | 08:02:30 | 02:31:08 | 00:00:00 | |
| BIOWL7-15 | 2026-08-31 06:02:47 | 53.30422 | 8.53052 | 53° | 47km/h | 1271m | -13.2m/s | 9.7°C | 93.9% | 870.3hPa | 2.7V | 08:02:00 | 00:00:00 | 00:00:00 | |
| DL1XH1-15 | 2026-08-31 06:02:47 | 53.30390 | 8.52988 | 50° | 47km/h | 1320m | -12.3m/s | 9.4°C | 94.7% | 865.2hPa | 2.7V | 08:01:53 | 02:31:04 | 00:00:00 | |
| DL1XH1-15 | 2026-08-31 06:02:47 | 53.30374 | 8.52957 | 50° | 47km/h | 1345m | -13.2m/s | 9.2°C | 94.3% | 862.4hPa | 2.7V | 08:01:55 | 02:31:02 | 00:00:00 | |
| DL1XH-west | 2026-08-31 06:02:46 | 53.30406 | 8.53020 | 51° | 47km/h | 1296m | -12.2m/s | 9.6°C | 99% | 867.7hPa | 2.6V | 08:02:30 | 02:31:06 | 00:00:00 | |
| DL1XH-west | 2026-08-31 06:02:45 | 53.30398 | 8.53004 | 50° | 51km/h | 1308m | -12.3m/s | 9.5°C | 98.9% | 866.5hPa | 2.7V | 08:02:30 | 02:31:05 | 00:00:00 | |
| DL1XH-west | 2026-08-31 06:02:44 | 53.30390 | 8.52988 | 50° | 47km/h | 1320m | -12.3m/s | 9.4°C | 99.2% | 865.2hPa | 2.7V | 08:02:30 | 02:31:04 | 00:00:00 | |
| DL1XH-west | 2026-08-31 06:02:42 | 53.30374 | 8.52957 | 51° | 47km/h | 1345m | -13.2m/s | 9.2°C | 98.8% | 862.4hPa | 2.7V | 08:02:30 | 02:31:02 | 00:00:00 | |
| DL1XH-west | 2026-08-31 06:02:41 | 53.30366 | 8.52941 | 48° | 49km/h | 1358m | -12.8m/s | 9.2°C | 98.1% | 861.3hPa | 2.7V | 08:02:30 | 02:31:01 | 00:00:00 | |
| BIOWL1-15 | 2026-08-31 06:02:40 | 53.30358 | 8.52925 | 52° | 49km/h | 1371m | -12.7m/s | 9.2°C | 97.6% | 860hPa | 2.6V | 08:02:30 | 02:31:00 | 00:00:00 | |
| DL1XH-west | 2026-08-31 06:02:39 | 53.30350 | 8.52910 | 49° | 47km/h | 1383m | -12.2m/s | 9.1°C | 96.5% | 858.7hPa | 2.6V | 08:02:30 | 02:30:59 | 00:00:00 | |
| BIOWL1-15 | 2026-08-31 06:02:38 | 53.30320 | 8.52846 | 52° | 51km/h | 1432m | -12.5m/s | 9°C | 93.8% | 853.5hPa | 2.7V | 08:02:30 | 02:30:55 | 00:00:00 | |
| DL1XH-west | 2026-08-31 06:02:37 | 53.30335 | 8.52878 | 51° | 49km/h | 1407m | -12.1m/s | 9.1°C | 95.3% | 856hPa | 2.7V | 08:02:30 | 02:30:57 | 00:00:00 | |
| DL1XH-west | 2026-08-31 06:02:36 | 53.30327 | 8.52862 | 53° | 47km/h | 1420m | -12.9m/s | 9°C | 94.4% | 855hPa | 2.7V | 08:02:30 | 02:30:56 | 00:00:00 | |
| DL1XH-west | 2026-08-31 06:02:34 | 53.30312 | 8.52830 | 54° | 47km/h | 1444m | -13m/s | 8.9°C | 94.2% | 852.2hPa | 2.6V | 08:02:30 | 02:30:54 | 00:00:00 | |
| DL1XH-west | 2026-08-31 06:02:32 | 53.30298 | 8.52797 | 54° | 47km/h | 1469m | -12.1m/s | 8.8°C | 93.7% | 849.8hPa | 2.7V | 08:02:30 | 02:30:52 | 00:00:00 | |
| DL1XH-west | 2026-08-31 06:02:31 | 53.30290 | 8.52780 | 52° | 51km/h | 1481m | -12m/s | 8.7°C | 94.1% | 848.5hPa | 2.7V | 08:02:30 | 02:30:51 | 00:00:00 | |
| DL1XH-west | 2026-08-31 06:02:30 | 53.30283 | 8.52764 | 54° | 49km/h | 1493m | -11.7m/s | 8.6°C | 94.2% | 847.2hPa | 2.7V | 08:02:30 | 02:30:50 | 00:00:00 | |
| DL1XH1-15 | 2026-08-31 06:02:29 | 53.30267 | 8.52731 | 54° | 53km/h | 1515m | -12.6m/s | 8.5°C | 88.5% | 844.8hPa | 2.7V | 08:02:09 | 02:30:48 | 00:00:00 | |
| DL1XH-west | 2026-08-31 06:02:28 | 53.30267 | 8.52731 | 54° | 53km/h | 1516m | -12.6m/s | 8.5°C | 93.6% | 844.9hPa | 2.7V | 08:02:30 | 02:30:48 | 00:00:00 | |
| DL1XH-west | 2026-08-31 06:02:26 | 53.30252 | 8.52697 | 53° | 51km/h | 1540m | -12.5m/s | 8.4°C | 93.2% | 842.3hPa | 2.6V | 08:02:30 | 02:30:46 | 00:00:00 | |
| DL1XH-west | 2026-08-31 06:02:25 | 53.30245 | 8.52680 | 52° | 47km/h | 1553m | -11.6m/s | 8.4°C | 92.7% | 841.2hPa | 2.7V | 08:02:30 | 02:30:45 | 00:00:00 | |
| DL1XH-west | 2026-08-31 06:02:24 | 53.30237 | 8.52664 | 52° | 51km/h | 1564m | -11.4m/s | 8.3°C | 92.8% | 839.8hPa | 2.7V | 08:02:30 | 02:30:44 | 00:00:00 | |
| DL1XH-west | 2026-08-31 06:02:23 | 53.30230 | 8.52647 | 54° | 49km/h | 1576m | -12.3m/s | 8.2°C | 92.6% | 838.8hPa | 2.7V | 08:02:30 | 02:30:43 | 00:00:00 | |
| DL1XH-15 | 2026-08-31 06:02:22 | 53.30214 | 8.52615 | 52° | 51km/h | 1599m | -12.2m/s | 8.1°C | 87.5% | 836.3hPa | 2.6V | 08:02:16 | 02:30:41 | 00:00:00 | |
| DL1XH-west | 2026-08-31 06:02:22 | 53.30222 | 8.52631 | 51° | 47km/h | 1588m | -11.8m/s | 8.1°C | 92.5% | 837.4hPa | 2.7V | 08:02:30 | 02:30:42 | 00:00:00 | |
| BIOWL1-15 | 2026-08-31 06:02:21 | 53.30214 | 8.52615 | 52° | 51km/h | 1599m | -12.2m/s | 8.1°C | 92.6% | 836.3hPa | 2.6V | 08:02:30 | 02:30:41 | 00:00:00 | |
| DL1XH-west | 2026-08-31 06:02:20 | 53.30207 | 8.52598 | 54° | 47km/h | 1611m | -12.3m/s | 8°C | 92.3% | 835.1hPa | 2.6V | 08:02:30 | 02:30:40 | 00:00:00 | |
| DL1XH-west | 2026-08-31 06:02:19 | 53.30199 | 8.52582 | 50° | 49km/h | 1624m | -12.1m/s | 7.9°C | 92.5% | 833.9hPa | 2.7V | 08:02:30 | 02:30:39 | 00:00:00 | |
| DL1XH-west | 2026-08-31 06:02:18 | 53.30191 | 8.52566 | 53° | 51km/h | 1636m | -12.4m/s | 7.8°C | 92.5% | 832.7hPa | 2.7V | 08:02:30 | 02:30:38 | 00:00:00 | |
| DL1XH-west | 2026-08-31 06:02:17 | 53.30184 | 8.52549 | 52° | 47km/h | 1648m | -12.7m/s | 7.8°C | 92.4% | 831.4hPa | 2.7V | 08:02:30 | 02:30:37 | 00:00:00 | |
| BIOWL1-15 | 2026-08-31 06:02:16 | 53.30176 | 8.52533 | 52° | 49km/h | 1660m | -11.7m/s | 7.7°C | 91.7% | 830.1hPa | 2.7V | 08:02:30 | 02:30:36 | 00:00:00 | |
| DL1XH-west | 2026-08-31 06:02:15 | 53.30169 | 8.52517 | 52° | 46km/h | 1672m | -12.3m/s | 7.7°C | 90.6% | 829hPa | 2.7V | 08:02:30 | 02:30:35 | 00:00:00 | |
| DL1XH-west | 2026-08-31 06:02:14 | 53.30161 | 8.52502 | 49° | 47km/h | 1684m | -12.9m/s | 7.7°C | 89.4% | 827.6hPa | 2.6V | 08:02:30 | 02:30:34 | 00:00:00 | |
| BIOWL1-15 | 2026-08-31 06:02:13 | 53.30132 | 8.52439 | 51° | 47km/h | 1732m | -12.2m/s | 7.4°C | 88.4% | 823hPa | 2.7V | 08:02:30 | 02:30:30 | 00:00:00 | |
| DL1XH-west | 2026-08-31 06:02:12 | 53.30146 | 8.52471 | 50° | 46km/h | 1708m | -12.2m/s | 7.6°C | 88.3% | 825.3hPa | 2.7V | 08:02:30 | 02:30:32 | 00:00:00 | |
| DL1XH-west | 2026-08-31 06:02:11 | 53.30139 | 8.52455 | 53° | 47km/h | 1720m | -12.2m/s | 7.5°C | 88.4% | 824.2hPa | 2.7V | 08:02:30 | 02:30:31 | 00:00:00 | |
| DL1XH-west | 2026-08-31 06:02:09 | 53.30124 | 8.52423 | 55° | 46km/h | 1744m | -11.8m/s | 7.3°C | 88.5% | 821.8hPa | 2.7V | 08:02:30 | 02:30:29 | 00:00:00 | |
| DL1XH-west | 2026-08-31 06:02:08 | 53.30117 | 8.52407 | 52° | 47km/h | 1756m | -11.5m/s | 7.2°C | 88.8% | 820.6hPa | 2.6V | 08:02:30 | 02:30:28 | 00:00:00 | |
| DL1XH-west | 2026-08-31 06:02:07 | 53.30110 | 8.52392 | 55° | 47km/h | 1768m | -11.7m/s | 7.1°C | 88.9% | 819.5hPa | 2.6V | 08:02:30 | 02:30:27 | 00:00:00 | |
| BIOWL7-15 | 2026-08-31 06:02:06 | 53.30110 | 8.52392 | 56° | 47km/h | 1768m | -11.7m/s | 7.1°C | 83.2% | 819.5hPa | 2.7V | 08:02:00 | 00:00:00 | 00:00:00 | |
| DL1XH1-15 | 2026-08-31 06:02:05 | 53.30089 | 8.52344 | 54° | 49km/h | 1803m | -11.6m/s | 6.9°C | 82.7% | 816hPa | 2.7V | 08:02:33 | 02:30:24 | 00:00:00 | |
| DL1XH1-15 | 2026-08-31 06:02:05 | 53.30074 | 8.52312 | 54° | 49km/h | 1827m | -11.7m/s | 6.9°C | 81.8% | 813.6hPa | 2.6V | 08:02:35 | 02:30:22 | 00:00:00 | |
| BIOWL1-15 | 2026-08-31 06:02:05 | 53.30096 | 8.52360 | 54° | 47km/h | 1791m | -12.4m/s | 7°C | 88.9% | 817.1hPa | 2.7V | 08:03:21 | 02:30:25 | 00:00:00 | |
| DL1XH-west | 2026-08-31 06:02:04 | 53.30089 | 8.52344 | 54° | 49km/h | 1803m | -11.6m/s | 6.9°C | 88.2% | 816hPa | 2.7V | 08:03:21 | 02:30:24 | 00:00:00 | |
| BIOWL1-15 | 2026-08-31 06:02:03 | 53.30082 | 8.52328 | 52° | 46km/h | 1815m | -12.2m/s | 6.9°C | 88.1% | 814.7hPa | 2.7V | 08:03:21 | 02:30:23 | 00:00:00 | |
| BIOWL1-15 | 2026-08-31 06:02:02 | 53.30074 | 8.52312 | 55° | 49km/h | 1827m | -11.7m/s | 6.9°C | 87% | 813.6hPa | 2.6V | 08:03:21 | 02:30:22 | 00:00:00 | |
| DL1XH-west | 2026-08-31 06:02:01 | 53.30067 | 8.52296 | 53° | 46km/h | 1838m | -11.9m/s | 6.9°C | 84.7% | 812.6hPa | 2.6V | 08:03:21 | 02:30:21 | 00:00:00 | |
| BIOWL1-15 | 2026-08-31 06:02:00 | 53.30060 | 8.52280 | 54° | 47km/h | 1850m | -12m/s | 6.9°C | 83.8% | 811.2hPa | 2.7V | 08:03:21 | 02:30:20 | 00:00:00 | |
| DL1XH1-15 | 2026-08-31 06:01:59 | 53.30046 | 8.52248 | 53° | 46km/h | 1874m | -11.9m/s | 6.8°C | 77% | 808.9hPa | 2.7V | 08:02:39 | 02:30:18 | 00:00:00 | |
| DL1XH1-15 | 2026-08-31 06:01:59 | 53.30033 | 8.52215 | 56° | 47km/h | 1897m | -11.7m/s | 6.6°C | 78% | 806.5hPa | 2.6V | 08:02:41 | 02:30:16 | 00:00:00 | |
| DL1XH-west | 2026-08-31 06:01:59 | 53.30053 | 8.52264 | 55° | 46km/h | 1862m | -12.2m/s | 6.9°C | 83.5% | 810.1hPa | 2.7V | 08:03:21 | 02:30:19 | 00:00:00 | |
| BIOWL1-15 | 2026-08-31 06:01:58 | 53.30033 | 8.52215 | 57° | 47km/h | 1897m | -11.7m/s | 6.6°C | 83.9% | 806.5hPa | 2.6V | 08:03:21 | 02:30:16 | 00:00:00 | |
| GOEST3-10 | 2026-08-31 06:01:58 | 53.30047 | 8.52248 | 54° | 46km/h | 1874m | -11.9m/s | 6.8°C | 77.0% | 808.9hPa | 2.7V | 00:00:00 | 00:00:00 | 00:00:00 | |
| DJ2DS-15 | 2026-08-31 06:01:58 | 53.30047 | 8.52248 | 54° | 47km/h | 1874m | -11.9m/s | 6.8°C | 77.0% | 808.9hPa | 2.7V | 00:00:00 | 02:30:18 | 00:00:00 | |
| GOEST3-10 | 2026-08-31 06:01:57 | 53.30039 | 8.52232 | 56° | 49km/h | 1885m | -12.2m/s | 6.7°C | 77.5% | 807.4hPa | 2.7V | 00:00:00 | 02:30:17 | 00:00:00 | |
| DL1XH-west | 2026-08-31 06:01:57 | 53.30039 | 8.52232 | 55° | 49km/h | 1885m | -12.2m/s | 6.7°C | 83.6% | 807.5hPa | 2.7V | 08:03:21 | 02:30:17 | 00:00:00 | |
| DF5WG-10 | 2026-08-31 06:01:57 | 53.30039 | 8.52232 | 56° | 49km/h | 1885m | -12.2m/s | 6.7°C | 77.5% | 807.4hPa | 2.7V | 00:00:00 | 02:30:17 | 00:00:00 | |
| DM0DOS-11 | 2026-08-31 06:01:55 | 53.30019 | 8.52181 | 55° | 47km/h | 1919m | -11.3m/s | 6.4°C | 78.5% | 804.2hPa | 2.7V | 08:02:43 | 02:30:14 | 00:00:00 | |
| DL1XH-west | 2026-08-31 06:01:55 | 53.30026 | 8.52198 | 55° | 49km/h | 1908m | -11.6m/s | 6.5°C | 84.2% | 805.3hPa | 2.6V | 08:03:21 | 02:30:15 | 00:00:00 | |
| BIOWL1-15 | 2026-08-31 06:01:54 | 53.30019 | 8.52181 | 56° | 47km/h | 1919m | -11.3m/s | 6.4°C | 84.3% | 804.2hPa | 2.7V | 08:03:21 | 02:30:14 | 00:00:00 | |
| DL1XH1-15 | 2026-08-31 06:01:53 | 53.30005 | 8.52147 | 57° | 47km/h | 1942m | -11.7m/s | 6.2°C | 79.1% | 802hPa | 2.7V | 08:02:45 | 02:30:12 | 00:00:00 | |
| DL1XH1-15 | 2026-08-31 06:01:53 | 53.29991 | 8.52113 | 57° | 51km/h | 1967m | -12.6m/s | 6.1°C | 78.6% | 799.7hPa | 2.6V | 08:02:47 | 02:30:10 | 00:00:00 | |
| DL1XH-west | 2026-08-31 06:01:53 | 53.30012 | 8.52164 | 55° | 51km/h | 1931m | -12.2m/s | 6.3°C | 84.6% | 803.1hPa | 2.7V | 08:03:21 | 02:30:13 | 00:00:00 | |
| BIOWL1-15 | 2026-08-31 06:01:52 | 53.30005 | 8.52147 | 57° | 47km/h | 1943m | -11.7m/s | 6.2°C | 84.9% | 802hPa | 2.7V | 08:03:21 | 02:30:12 | 00:00:00 | |
| BIOWL1-15 | 2026-08-31 06:01:51 | 53.29998 | 8.52130 | 54° | 49km/h | 1954m | -12.5m/s | 6.2°C | 84.8% | 800.8hPa | 2.7V | 08:03:21 | 02:30:11 | 00:00:00 | |
| GOEST3-10 | 2026-08-31 06:01:51 | 53.29998 | 8.52130 | 55° | 49km/h | 1954m | -12.5m/s | 6.1°C | 79.1% | 800.7hPa | 2.7V | 08:02:00 | 02:30:11 | 00:00:00 | |
| DF5WG-10 | 2026-08-31 06:01:51 | 53.29998 | 8.52130 | 55° | 49km/h | 1954m | -12.5m/s | 6.1°C | 79.1% | 800.7hPa | 2.7V | 00:00:00 | 02:30:11 | 00:00:00 | |
| DL1LOL-11 | 2026-08-31 06:01:50 | 53.29998 | 8.52130 | 55° | 49km/h | 1954m | -12.5m/s | 6.2°C | 78.5% | 800.8hPa | 2.7V | 00:00:00 | 00:00:00 | 00:00:00 | |
| DM0DOS-11 | 2026-08-31 06:01:50 | 53.29977 | 8.52077 | 56° | 53km/h | 1991m | -12.6m/s | 6°C | 78.3% | 797.4hPa | 2.7V | 08:02:49 | 02:30:08 | 00:00:00 | |
| BIOWL1-15 | 2026-08-31 06:01:50 | 53.29991 | 8.52113 | 57° | 51km/h | 1967m | -12.6m/s | 6.1°C | 84.5% | 799.7hPa | 2.6V | 08:03:21 | 02:30:10 | 00:00:00 | |
| DL1XH-west | 2026-08-31 06:01:48 | 53.29977 | 8.52077 | 57° | 53km/h | 1991m | -12.6m/s | 6°C | 84.4% | 797.4hPa | 2.7V | 08:03:21 | 02:30:08 | 00:00:00 | |
| BIOWL1-15 | 2026-08-31 06:01:46 | 53.29963 | 8.52041 | 56° | 53km/h | 2014m | -11.8m/s | 5.9°C | 85.1% | 794.9hPa | 2.7V | 08:03:21 | 02:30:06 | 00:00:00 | |
| DL1XH1-15 | 2026-08-31 06:01:45 | 53.29955 | 8.52022 | 57° | 55km/h | 2026m | -12.7m/s | 5.8°C | 79.2% | 793.7hPa | 2.7V | 08:02:52 | 02:30:05 | 00:00:00 | |
| DL1XH1-15 | 2026-08-31 06:01:45 | 53.29919 | 8.51925 | 58° | 57km/h | 2088m | -12.8m/s | 5.5°C | 78.1% | 788hPa | 2.7V | 08:02:57 | 02:30:00 | 00:00:00 | |
| DL1XH-west | 2026-08-31 06:01:45 | 53.29955 | 8.52022 | 58° | 55km/h | 2026m | -12.7m/s | 5.8°C | 85.5% | 793.7hPa | 2.7V | 08:03:21 | 02:30:05 | 00:00:00 | |
| DL1XH-15 | 2026-08-31 06:01:43 | 53.29941 | 8.51985 | 56° | 55km/h | 2051m | -13m/s | 5.7°C | 79% | 791.5hPa | 2.6V | 08:02:54 | 02:30:03 | 00:00:00 | |
| DF5WG-10 | 2026-08-31 06:01:43 | 53.29941 | 8.51984 | 57° | 55km/h | 2051m | -13.0m/s | 5.6°C | 79.0% | 791.5hPa | 2.7V | 00:00:00 | 02:30:03 | 00:00:00 | |
| DD8BA-10 | 2026-08-31 06:01:42 | 53.29934 | 8.51964 | 60° | 57km/h | 2063m | -12.8m/s | 5.6°C | 78.5% | 790.3hPa | 2.7V | 08:02:00 | 00:00:00 | 00:00:00 | |
| DL1XH1-15 | 2026-08-31 06:01:40 | 53.29882 | 8.51826 | 57° | 58km/h | 2149m | -12.6m/s | 5°C | 78.4% | 782.1hPa | 2.7V | 08:03:02 | 02:29:55 | 00:00:00 | |
| BIOWL1-15 | 2026-08-31 06:01:38 | 53.29889 | 8.51846 | 58° | 55km/h | 2137m | -12.1m/s | 5.2°C | 84.5% | 783.3hPa | 2.7V | 08:03:21 | 02:29:56 | 00:00:00 | |
| DF5WG-10 | 2026-08-31 06:01:37 | 53.29897 | 8.51865 | 59° | 57km/h | 2124m | -12.3m/s | 5.1°C | 79.1% | 784.3hPa | 2.6V | 08:03:00 | 02:29:57 | 00:00:00 | |
| DL1XH1-15 | 2026-08-31 06:01:35 | 53.29843 | 8.51723 | 57° | 57km/h | 2210m | -12.4m/s | 4.8°C | 74.7% | 776.3hPa | 2.7V | 08:03:07 | 02:29:50 | 00:00:00 | |
| DL1XH-west | 2026-08-31 06:01:34 | 53.29874 | 8.51805 | 58° | 58km/h | 2161m | -12.2m/s | 5°C | 84.7% | 780.8hPa | 2.7V | 08:03:21 | 02:29:54 | 00:00:00 | |
| DL1XH-15 | 2026-08-31 06:01:33 | 53.29866 | 8.51785 | 58° | 55km/h | 2173m | -12.6m/s | 4.9°C | 78.1% | 779.7hPa | 2.7V | 08:03:04 | 02:29:53 | 00:00:00 | |
| DL1XH-15 | 2026-08-31 06:01:33 | 53.29827 | 8.51681 | 58° | 60km/h | 2235m | -12.8m/s | 4.7°C | 74% | 774hPa | 2.7V | 08:03:09 | 02:29:48 | 00:00:00 | |
| BIOWL1-15 | 2026-08-31 06:01:28 | 53.29811 | 8.51640 | 55° | 58km/h | 2259m | -12m/s | 4.6°C | 79.1% | 771.7hPa | 2.6V | 08:03:21 | 02:29:46 | 00:00:00 | |
| DM0DOS-11 | 2026-08-31 06:01:25 | 53.29803 | 8.51619 | 57° | 62km/h | 2271m | -11.9m/s | 4.5°C | 70.6% | 770.5hPa | 2.7V | 08:03:12 | 02:29:45 | 00:00:00 | |
| DL1XH1-15 | 2026-08-31 06:01:25 | 53.29754 | 8.51493 | 58° | 62km/h | 2343m | -12.5m/s | 3.8°C | 72.9% | 763.7hPa | 2.7V | 08:03:18 | 02:29:39 | 00:00:00 | |
| DL1XH-15 | 2026-08-31 06:01:23 | 53.29787 | 8.51577 | 56° | 58km/h | 2295m | -12.3m/s | 4.3°C | 72% | 768.4hPa | 2.7V | 08:03:14 | 02:29:43 | 00:00:00 | |
| DL1XH-15 | 2026-08-31 06:01:23 | 53.29746 | 8.51471 | 58° | 58km/h | 2356m | -12.7m/s | 3.7°C | 73.2% | 762.5hPa | 2.7V | 08:03:19 | 02:29:38 | 00:00:00 | |
| DL1XH-west | 2026-08-31 06:01:23 | 53.29787 | 8.51577 | 56° | 58km/h | 2295m | -12.3m/s | 4.3°C | 79.9% | 768.4hPa | 2.7V | 08:03:21 | 02:29:43 | 00:00:00 | |
| DD8BA-10 | 2026-08-31 06:01:22 | 53.29778 | 8.51556 | 59° | 60km/h | 2307m | -12.3m/s | 4.1°C | 72.2% | 767.1hPa | 2.6V | 00:00:00 | 00:00:00 | 00:00:00 | |
| DK9SH | 2026-08-31 06:01:20 | 53.29762 | 8.51514 | 57° | 58km/h | 2331m | -12.7m/s | 4.0°C | 71.6% | 764.9hPa | 2.6V | 00:00:00 | 00:00:00 | 00:00:00 | |
| DL1XH1-15 | 2026-08-31 06:01:19 | 53.29714 | 8.51387 | 57° | 58km/h | 2405m | -12.2m/s | 3.3°C | 73.9% | 758.1hPa | 2.6V | 08:03:23 | 02:29:34 | 00:00:00 | |
| BIOWL1-15 | 2026-08-31 06:01:17 | 53.29690 | 8.51323 | 59° | 58km/h | 2442m | -12.7m/s | 3°C | 83.5% | 754.7hPa | 2.7V | 08:04:12 | 02:29:31 | 00:00:00 | |
| DL1XH-15 | 2026-08-31 06:01:13 | 53.29706 | 8.51366 | 57° | 60km/h | 2417m | -12.6m/s | 3.2°C | 74.3% | 756.8hPa | 2.7V | 08:03:24 | 02:29:33 | 00:00:00 | |
| DL1XH-15 | 2026-08-31 06:01:13 | 53.29667 | 8.51260 | 59° | 58km/h | 2478m | -12.2m/s | 2.6°C | 77.7% | 751.3hPa | 2.7V | 08:03:29 | 02:29:28 | 00:00:00 | |
| DL1XH-west | 2026-08-31 06:01:12 | 53.29698 | 8.51345 | 58° | 60km/h | 2429m | -12.1m/s | 3.1°C | 82.6% | 755.7hPa | 2.7V | 08:04:12 | 02:29:32 | 00:00:00 | |
| DD8BA-10 | 2026-08-31 06:01:12 | 53.29698 | 8.51345 | 59° | 58km/h | 2429m | -12.1m/s | 3.0°C | 74.9% | 755.6hPa | 2.7V | 00:00:00 | 00:00:00 | 00:00:00 | |
| DF4FW | 2026-08-31 06:01:11 | 53.29698 | 8.51345 | 59° | 60km/h | 2429m | -12.1m/s | 3.1°C | 74.1% | 755.7hPa | 2.6V | 08:04:00 | 00:00:00 | 00:00:00 | |
| DM0DOS-11 | 2026-08-31 06:01:09 | 53.29675 | 8.51282 | 57° | 60km/h | 2466m | -11.8m/s | 2.7°C | 76.9% | 752.4hPa | 2.6V | 08:03:28 | 02:29:29 | 00:00:00 | |
| DL1XH1-15 | 2026-08-31 06:01:09 | 53.29636 | 8.51176 | 60° | 57km/h | 2527m | -12.8m/s | 2.1°C | 79.3% | 746.8hPa | 2.6V | 08:03:33 | 02:29:24 | 00:00:00 | |
| DJ2DS-15 | 2026-08-31 06:01:09 | 53.29674 | 8.51282 | 58° | 58km/h | 2466m | -11.8m/s | 2.7°C | 76.9% | 752.4hPa | 2.6V | 08:03:00 | 02:29:29 | 00:00:00 | |
| DF5WG-10 | 2026-08-31 06:01:07 | 53.29659 | 8.51240 | 58° | 58km/h | 2491m | -12.0m/s | 2.4°C | 77.9% | 750.2hPa | 2.6V | 00:00:00 | 02:29:27 | 00:00:00 | |
| DL4BBY-15 | 2026-08-31 06:01:06 | 53.29651 | 8.51219 | 59° | 57km/h | 2502m | -12.3m/s | 3.4°C | 0% | 0hPa | 2.6V | 00:00:00 | 00:00:00 | 00:00:00 | |
| GOEST3-10 | 2026-08-31 06:01:05 | 53.29643 | 8.51197 | 60° | 58km/h | 2515m | -12.8m/s | 2.2°C | 78.9% | 747.8hPa | 2.6V | 00:00:00 | 02:29:25 | 00:00:00 | |
| DL1XH1-15 | 2026-08-31 06:01:04 | 53.29598 | 8.51069 | 60° | 57km/h | 2589m | -12.5m/s | 1.6°C | 80.7% | 741.3hPa | 2.6V | 08:03:38 | 02:29:19 | 00:00:00 | |
| DL1XH-15 | 2026-08-31 06:01:03 | 53.29628 | 8.51155 | 58° | 58km/h | 2540m | -12.7m/s | 2°C | 79.8% | 745.8hPa | 2.6V | 08:03:34 | 02:29:23 | 00:00:00 | |
| DL1XH-15 | 2026-08-31 06:01:03 | 53.29591 | 8.51048 | 61° | 60km/h | 2601m | -12.4m/s | 1.5°C | 81.4% | 740hPa | 2.6V | 08:03:39 | 02:29:18 | 00:00:00 | |
| DD8BA-10 | 2026-08-31 06:01:02 | 53.29620 | 8.51134 | 60° | 58km/h | 2553m | -12.3m/s | 1.9°C | 80.2% | 744.5hPa | 2.7V | 00:00:00 | 00:00:00 | 00:00:00 | |
| DF5WG-10 | 2026-08-31 06:01:01 | 53.29612 | 8.51112 | 61° | 58km/h | 2565m | -12.3m/s | 1.8°C | 80.3% | 743.3hPa | 2.7V | 00:00:00 | 02:29:21 | 00:00:00 | |
| DL1XH-west | 2026-08-31 06:01:01 | 53.29612 | 8.51112 | 60° | 60km/h | 2565m | -12.4m/s | 1.8°C | 87.5% | 743.3hPa | 2.7V | 08:04:12 | 02:29:21 | 00:00:00 | |
| DF4FW | 2026-08-31 06:01:00 | 53.29612 | 8.51112 | 61° | 60km/h | 2565m | -12.4m/s | 1.8°C | 79.3% | 743.3hPa | 2.6V | 08:04:00 | 00:00:00 | 00:00:00 | |
| DL1XH-15 | 2026-08-31 06:00:58 | 53.29557 | 8.50939 | 63° | 58km/h | 2661m | -12.3m/s | 1°C | 84.4% | 734.5hPa | 2.6V | 08:03:44 | 02:29:13 | 00:00:00 | |
| DL1XH1-15 | 2026-08-31 06:00:54 | 53.29564 | 8.50961 | 62° | 58km/h | 2649m | -12.2m/s | 1.1°C | 84% | 735.6hPa | 2.7V | 08:03:43 | 02:29:14 | 00:00:00 | |
| DL1XH1-15 | 2026-08-31 06:00:54 | 53.29532 | 8.50854 | 65° | 57km/h | 2709m | -12.5m/s | 0.7°C | 83.4% | 730hPa | 2.7V | 08:03:48 | 02:29:09 | 00:00:00 | |
| DL1XH-15 | 2026-08-31 06:00:53 | 53.29526 | 8.50833 | 64° | 55km/h | 2722m | -12.5m/s | 0.6°C | 83.5% | 729hPa | 2.6V | 08:03:49 | 02:29:08 | 00:00:00 | |
| BIOWL1-15 | 2026-08-31 06:00:52 | 53.29551 | 8.50918 | 64° | 55km/h | 2673m | -12m/s | 0.9°C | 91.5% | 733.5hPa | 2.6V | 08:04:12 | 02:29:12 | 00:00:00 | |
| DL1XH-west | 2026-08-31 06:00:51 | 53.29545 | 8.50897 | 63° | 55km/h | 2685m | -11.8m/s | 0.8°C | 91.7% | 732.4hPa | 2.7V | 08:04:12 | 02:29:11 | 00:00:00 | |
| SMARD9-15 | 2026-08-31 06:00:51 | 53.29538 | 8.50876 | 63° | 57km/h | 2697m | -12.7m/s | 0.7°C | 82.7% | 731.1hPa | 2.7V | 00:00:00 | 00:00:00 | 00:00:00 | |
| DF4FW | 2026-08-31 06:00:50 | 53.29545 | 8.50897 | 64° | 55km/h | 2685m | -11.8m/s | 0.8°C | 83.9% | 732.4hPa | 2.7V | 08:04:00 | 00:00:00 | 00:00:00 | |
| DL1XH1-15 | 2026-08-31 06:00:49 | 53.29502 | 8.50748 | 63° | 55km/h | 2771m | -11.9m/s | 0.1°C | 84.2% | 724.5hPa | 2.7V | 08:03:53 | 02:29:04 | 00:00:00 | |
| DJ2DS-15 | 2026-08-31 06:00:49 | 53.29532 | 8.50854 | 66° | 57km/h | 2709m | -12.4m/s | 0.6°C | 83.4% | 730.0hPa | 2.7V | 00:00:00 | 02:29:09 | 00:00:00 | |
| GOEST3-10 | 2026-08-31 06:00:45 | 53.29508 | 8.50769 | 66° | 57km/h | 2758m | -12.6m/s | 0.2°C | 83.1% | 725.6hPa | 2.7V | 00:00:00 | 02:29:05 | 00:00:00 | |
| DL1XH1-15 | 2026-08-31 06:00:44 | 53.29472 | 8.50640 | 65° | 58km/h | 2831m | -12.4m/s | -0.4°C | 87.6% | 719hPa | 2.7V | 08:03:58 | 02:28:59 | 00:00:00 | |
| DL1XH-15 | 2026-08-31 06:00:44 | 53.29496 | 8.50727 | 65° | 58km/h | 2783m | -12.2m/s | 0°C | 84.4% | 723.4hPa | 2.7V | 08:03:54 | 02:29:03 | 00:00:00 | |
| DL1XH-15 | 2026-08-31 06:00:44 | 53.29467 | 8.50618 | 66° | 55km/h | 2843m | -12.1m/s | -0.5°C | 88.4% | 717.8hPa | 2.7V | 08:03:59 | 02:28:58 | 00:00:00 | |
| BIOWL1-15 | 2026-08-31 06:00:42 | 53.29490 | 8.50705 | 66° | 58km/h | 2794m | -12.2m/s | -0.1°C | 91.9% | 722.4hPa | 2.6V | 08:04:12 | 02:29:02 | 00:00:00 | |
| DL1XH-west | 2026-08-31 06:00:41 | 53.29484 | 8.50683 | 68° | 55km/h | 2807m | -12.7m/s | -0.2°C | 92.2% | 721.3hPa | 2.6V | 08:04:12 | 02:29:01 | 00:00:00 | |
| DB0DAN | 2026-08-31 06:00:40 | 53.29478 | 8.50662 | 64° | 53km/h | 2819m | -12.6m/s | -0.3°C | 85.6% | 720.02hPa | 2.7V | 00:00:00 | 00:00:00 | 00:00:00 | |
| DL1XH1-15 | 2026-08-31 06:00:39 | 53.29443 | 8.50532 | 67° | 55km/h | 2891m | -12.9m/s | -1°C | 89.9% | 713.5hPa | 2.7V | 08:04:03 | 02:28:54 | 00:00:00 | |
| DF5WG-10 | 2026-08-31 06:00:37 | 53.29461 | 8.50597 | 65° | 57km/h | 2855m | -11.7m/s | -0.6°C | 88.3% | 716.7hPa | 2.7V | 00:00:00 | 02:28:57 | 00:00:00 | |
| DL1XH-15 | 2026-08-31 06:00:36 | 53.29438 | 8.50511 | 64° | 55km/h | 2904m | -12.5m/s | -1.1°C | 90.8% | 712.4hPa | 2.7V | 08:04:04 | 02:28:53 | 00:00:00 | |
| BIOWL1-15 | 2026-08-31 06:00:33 | 53.29426 | 8.50467 | 68° | 57km/h | 2928m | -12.6m/s | -1.3°C | 96.9% | 710.3hPa | 2.6V | 08:04:12 | 02:28:51 | 00:00:00 | |
| DL1XH-west | 2026-08-31 06:00:30 | 53.29421 | 8.50445 | 68° | 55km/h | 2940m | -12.4m/s | -1.5°C | 97.4% | 709.2hPa | 2.7V | 08:04:12 | 02:28:50 | 00:00:00 | |
| DM0DOS-11 | 2026-08-31 06:00:29 | 53.29415 | 8.50424 | 64° | 55km/h | 2953m | -12.3m/s | -1.6°C | 92.8% | 708.2hPa | 2.7V | 08:04:08 | 02:28:49 | 00:00:00 | |
| DL1XH-15 | 2026-08-31 06:00:28 | 53.29409 | 8.50403 | 66° | 57km/h | 2965m | -12.6m/s | -1.7°C | 93% | 707hPa | 2.7V | 08:04:09 | 02:28:48 | 00:00:00 | |
| DL1XH-15 | 2026-08-31 06:00:28 | 53.29382 | 8.50297 | 65° | 53km/h | 3026m | -11.8m/s | -2.2°C | 94.9% | 701.6hPa | 2.7V | 08:04:14 | 02:28:43 | 00:00:00 | |
| DL1LOL-11 | 2026-08-31 06:00:26 | 53.29404 | 8.50381 | 68° | 55km/h | 2977m | -12.4m/s | -1.8°C | 92.0% | 705.9hPa | 2.6V | 00:00:00 | 00:00:00 | 00:00:00 | |
| DF5WG-10 | 2026-08-31 06:00:25 | 53.29393 | 8.50340 | 67° | 55km/h | 3002m | -12.5m/s | -1.9°C | 94.2% | 703.7hPa | 2.6V | 00:00:00 | 02:28:45 | 00:00:00 | |
| DL1XH1-15 | 2026-08-31 06:00:24 | 53.29359 | 8.50213 | 64° | 53km/h | 3077m | -12m/s | -2.4°C | 92% | 697.3hPa | 2.7V | 08:04:18 | 02:28:39 | 00:00:00 | |
| DL1XH-15 | 2026-08-31 06:00:23 | 53.29353 | 8.50193 | 63° | 57km/h | 3089m | -12.4m/s | -2.5°C | 91.5% | 696.1hPa | 2.7V | 08:04:19 | 02:28:38 | 00:00:00 | |
| BIOWL1-15 | 2026-08-31 06:00:20 | 53.29341 | 8.50150 | 66° | 55km/h | 3114m | -12.3m/s | -2.5°C | 92.9% | 694.1hPa | 2.6V | 08:05:03 | 02:28:36 | 00:00:00 | |
| DL1XH-west | 2026-08-31 06:00:20 | 53.29365 | 8.50234 | 67° | 53km/h | 3064m | -12.7m/s | -2.3°C | 96.6% | 698.4hPa | 2.6V | 08:05:03 | 02:28:40 | 00:00:00 | |
| BIOWL1-15 | 2026-08-31 06:00:10 | 53.29305 | 8.50028 | 64° | 57km/h | 3184m | -12.2m/s | -3°C | 91.8% | 687.7hPa | 2.6V | 08:05:03 | 02:28:30 | 00:00:00 | |
| DL1XH1-15 | 2026-08-31 06:00:09 | 53.29299 | 8.50007 | 64° | 55km/h | 3196m | -12.4m/s | -3.1°C | 87% | 686.7hPa | 2.7V | 08:04:28 | 02:28:29 | 00:00:00 | |
| DL1XH1-15 | 2026-08-31 06:00:09 | 53.29269 | 8.49904 | 66° | 53km/h | 3255m | -12.7m/s | -3.6°C | 88.6% | 681.7hPa | 2.7V | 08:04:33 | 02:28:24 | 00:00:00 | |
| DL1XH-west | 2026-08-31 06:00:09 | 53.29299 | 8.50007 | 65° | 55km/h | 3196m | -12.4m/s | -3.1°C | 91.2% | 686.7hPa | 2.7V | 08:05:03 | 02:28:29 | 00:00:00 | |
| DL1XH-15 | 2026-08-31 06:00:08 | 53.29293 | 8.49986 | 63° | 53km/h | 3208m | -11.6m/s | -3.2°C | 85.7% | 685.6hPa | 2.7V | 08:04:29 | 02:28:28 | 00:00:00 | |
| DF4FW | 2026-08-31 06:00:07 | 53.29293 | 8.49986 | 65° | 53km/h | 3209m | -11.6m/s | -3.2°C | 84.2% | 685.6hPa | 2.7V | 08:05:00 | 00:00:00 | 00:00:00 | |
| DJ2DS-15 | 2026-08-31 06:00:06 | 53.29281 | 8.49946 | 64° | 55km/h | 3231m | -11.5m/s | -3.4°C | 86.6% | 683.6hPa | 2.7V | 00:00:00 | 00:00:00 | 00:00:00 | |
| DF5WG-10 | 2026-08-31 06:00:05 | 53.29275 | 8.49925 | 65° | 53km/h | 3243m | -12.2m/s | -3.4°C | 87.8% | 682.6hPa | 2.7V | 00:00:00 | 02:28:25 | 00:00:00 | |
| DL1XH1-15 | 2026-08-31 06:00:04 | 53.29240 | 8.49803 | 62° | 53km/h | 3315m | -12m/s | -4.1°C | 92.9% | 676.6hPa | 2.7V | 08:04:38 | 02:28:19 | 00:00:00 | |
| DL1XH-15 | 2026-08-31 06:00:03 | 53.29234 | 8.49783 | 64° | 53km/h | 3327m | -11.4m/s | -4.1°C | 95.6% | 675.5hPa | 2.7V | 08:04:39 | 02:28:18 | 00:00:00 | |
| BIOWL1-15 | 2026-08-31 05:59:59 | 53.29240 | 8.49803 | 62° | 53km/h | 3315m | -12m/s | -4.1°C | 95.1% | 676.7hPa | 2.7V | 08:05:03 | 02:28:19 | 00:00:00 | |
| DL1XH-west | 2026-08-31 05:59:58 | 53.29234 | 8.49783 | 65° | 53km/h | 3327m | -11.4m/s | -4.1°C | 97.2% | 675.5hPa | 2.7V | 08:05:03 | 02:28:18 | 00:00:00 | |
| HTAHTA | 2026-08-31 05:59:57 | 53.29228 | 8.49763 | 61° | 53km/h | 3338m | -12.0m/s | -4.1°C | 88.6% | 674.4hPa | 2.7V | 00:00:00 | 00:00:00 | 00:00:00 | |
| DF4FW | 2026-08-31 05:59:56 | 53.29228 | 8.49763 | 62° | 53km/h | 3338m | -12.0m/s | -4.1°C | 88.6% | 674.4hPa | 2.7V | 08:05:00 | 00:00:00 | 00:00:00 | |
| DM0DOS-11 | 2026-08-31 05:59:55 | 53.29209 | 8.49702 | 61° | 53km/h | 3373m | -11.7m/s | -4.3°C | 85.4% | 671.5hPa | 2.7V | 08:04:43 | 02:28:14 | 00:00:00 | |
| DF5WG-10 | 2026-08-31 05:59:55 | 53.29215 | 8.49722 | 64° | 57km/h | 3361m | -11.5m/s | -4.1°C | 84.9% | 672.5hPa | 2.6V | 00:00:00 | 02:28:15 | 00:00:00 | |
| DL1XH-15 | 2026-08-31 05:59:53 | 53.29168 | 8.49578 | 58° | 57km/h | 3442m | -11.4m/s | -4.9°C | 88.3% | 665.6hPa | 2.7V | 08:04:49 | 02:28:08 | 00:00:00 | |
| BIOWL9-15 | 2026-08-31 05:59:51 | 53.29182 | 8.49619 | 62° | 55km/h | 3419m | -12.0m/s | -4.7°C | 85.9% | 667.6hPa | 2.7V | 00:00:00 | 00:00:00 | 00:00:00 | |
| DM0DOS-11 | 2026-08-31 05:59:50 | 53.29176 | 8.49598 | 61° | 58km/h | 3431m | -11.6m/s | -4.8°C | 88.2% | 666.6hPa | 2.7V | 08:04:48 | 02:28:09 | 00:00:00 | |
| GOEST3-10 | 2026-08-31 05:59:50 | 53.29182 | 8.49619 | 63° | 57km/h | 3419m | -11.9m/s | -4.6°C | 87.6% | 667.6hPa | 2.7V | 00:00:00 | 00:00:00 | 00:00:00 | |
| DJ2DS-15 | 2026-08-31 05:59:49 | 53.29176 | 8.49598 | 62° | 64km/h | 3431m | -11.6m/s | -4.8°C | 88.2% | 666.6hPa | 2.7V | 00:00:00 | 02:28:09 | 00:00:00 | |
| DL1XH-15 | 2026-08-31 05:59:48 | 53.29131 | 8.49469 | 59° | 64km/h | 3500m | -12m/s | -5°C | 81.1% | 660.7hPa | 2.7V | 08:04:54 | 02:28:03 | 00:00:00 | |
| DL1XH-west | 2026-08-31 05:59:48 | 53.29168 | 8.49577 | 59° | 57km/h | 3442m | -11.4m/s | -4.9°C | 90.4% | 665.6hPa | 2.7V | 08:05:03 | 02:28:08 | 00:00:00 | |
| SMARD9-10 | 2026-08-31 05:59:47 | 53.29168 | 8.49577 | 60° | 57km/h | 3442m | -11.4m/s | -4.9°C | 86.7% | 665.6hPa | 2.7V | 00:00:00 | 00:00:00 | 00:00:00 | |
| DM0DOS-11 | 2026-08-31 05:59:45 | 53.29139 | 8.49492 | 60° | 60km/h | 3488m | -12.1m/s | -4.9°C | 80.4% | 661.8hPa | 2.7V | 08:04:53 | 02:28:04 | 00:00:00 | |
| GOEST3-10 | 2026-08-31 05:59:45 | 53.29147 | 8.49514 | 59° | 62km/h | 3477m | -11.6m/s | -4.8°C | 82.1% | 662.6hPa | 2.6V | 00:00:00 | 02:28:05 | 00:00:00 | |
| DL1XH-15 | 2026-08-31 05:59:43 | 53.29088 | 8.49356 | 56° | 64km/h | 3559m | -11.5m/s | -5.2°C | 77.2% | 655.9hPa | 2.6V | 08:04:59 | 02:27:58 | 00:00:00 | |
| DD8BA-10 | 2026-08-31 05:59:42 | 53.29123 | 8.49447 | 58° | 66km/h | 3513m | -11.9m/s | -5.0°C | 80.1% | 659.7hPa | 2.7V | 00:00:00 | 00:00:00 | 00:00:00 | |
| DM0DOS-11 | 2026-08-31 05:59:40 | 53.29097 | 8.49379 | 57° | 66km/h | 3547m | -11.4m/s | -5.2°C | 77.2% | 656.8hPa | 2.6V | 08:04:58 | 02:27:59 | 00:00:00 | |
| DL1XH-west | 2026-08-31 05:59:38 | 53.29088 | 8.49356 | 56° | 64km/h | 3559m | -11.5m/s | -5.2°C | 80.2% | 655.9hPa | 2.6V | 08:05:03 | 02:27:58 | 00:00:00 | |
| BIOWL1-15 | 2026-08-31 05:59:37 | 53.29078 | 8.49334 | 55° | 68km/h | 3570m | -12.2m/s | -5.2°C | 77.4% | 654.9hPa | 2.7V | 08:05:03 | 02:27:57 | 00:00:00 | |
| DL1XH-15 | 2026-08-31 05:59:36 | 53.29039 | 8.49240 | 54° | 68km/h | 3616m | -11.1m/s | -5.5°C | 77.6% | 651.1hPa | 2.6V | 08:05:04 | 02:27:53 | 00:00:00 | |
| DF5WG-10 | 2026-08-31 05:59:35 | 53.29059 | 8.49287 | 55° | 69km/h | 3594m | -11.2m/s | -5.3°C | 73.7% | 652.9hPa | 2.6V | 00:00:00 | 02:27:55 | 00:00:00 | |
| DF4FW | 2026-08-31 05:59:34 | 53.29059 | 8.49287 | 55° | 68km/h | 3594m | -11.2m/s | -5.3°C | 72.2% | 653.0hPa | 2.6V | 08:05:00 | 00:00:00 | 00:00:00 | |
| DM0DOS-11 | 2026-08-31 05:59:34 | 53.29049 | 8.49263 | 56° | 68km/h | 3605m | -11.2m/s | -5.4°C | 75.8% | 652hPa | 2.6V | 08:05:03 | 02:27:54 | 00:00:00 | |
| DD8BA-10 | 2026-08-31 05:59:32 | 53.29029 | 8.49216 | 56° | 71km/h | 3627m | -11.6m/s | -5.5°C | 83.0% | 650.0hPa | 2.6V | 00:00:00 | 00:00:00 | 00:00:00 | |
| DL1LOL-11 | 2026-08-31 05:59:31 | 53.29029 | 8.49216 | 56° | 71km/h | 3627m | -11.7m/s | -5.5°C | 81.4% | 650.1hPa | 2.6V | 08:05:00 | 00:00:00 | 00:00:00 | |
| DL1XH1-15 | 2026-08-31 05:59:29 | 53.28999 | 8.49143 | 55° | 73km/h | 3661m | -11.6m/s | -5.7°C | 81.1% | 647.2hPa | 2.6V | 08:05:08 | 02:27:49 | 00:00:00 | |
| DL1XH1-15 | 2026-08-31 05:59:29 | 53.28948 | 8.49019 | 56° | 73km/h | 3718m | -11.8m/s | -6.1°C | 86.4% | 642.6hPa | 2.7V | 08:05:13 | 02:27:44 | 00:00:00 | |
| DL1XH-15 | 2026-08-31 05:59:28 | 53.28989 | 8.49118 | 56° | 73km/h | 3672m | -11.6m/s | -5.8°C | 81% | 646.4hPa | 2.6V | 08:05:09 | 02:27:48 | 00:00:00 | |
| DL1XH-15 | 2026-08-31 05:59:28 | 53.28938 | 8.48994 | 56° | 71km/h | 3730m | -11.8m/s | -6.2°C | 85.9% | 641.7hPa | 2.7V | 08:05:14 | 02:27:43 | 00:00:00 | |
| DL1XH-west | 2026-08-31 05:59:27 | 53.28979 | 8.49093 | 57° | 69km/h | 3684m | -11.5m/s | -5.9°C | 84.9% | 645.5hPa | 2.6V | 08:05:54 | 02:27:47 | 00:00:00 | |
| BIOWL1-15 | 2026-08-31 05:59:26 | 53.28969 | 8.49069 | 55° | 71km/h | 3695m | -12m/s | -6°C | 85.2% | 644.6hPa | 2.6V | 08:05:54 | 02:27:46 | 00:00:00 | |
| DF5WG-10 | 2026-08-31 05:59:25 | 53.28958 | 8.49044 | 56° | 71km/h | 3707m | -11.6m/s | -6.0°C | 83.8% | 643.6hPa | 2.7V | 08:05:00 | 02:27:45 | 00:00:00 | |
| DF4FW | 2026-08-31 05:59:24 | 53.28958 | 8.49044 | 57° | 73km/h | 3707m | -11.6m/s | -6.0°C | 82.0% | 643.7hPa | 2.7V | 08:05:00 | 00:00:00 | 00:00:00 | |
| DL1XH-15 | 2026-08-31 05:59:23 | 53.28888 | 8.48870 | 57° | 69km/h | 3788m | -11.8m/s | -6.2°C | 52% | 637hPa | 2.7V | 08:05:19 | 02:27:38 | 00:00:00 | |
| DD8BA-10 | 2026-08-31 05:59:22 | 53.28928 | 8.48969 | 56° | 69km/h | 3741m | -11.4m/s | -6.1°C | 84.1% | 640.7hPa | 2.6V | 00:00:00 | 00:00:00 | 00:00:00 | |
| DK9SH | 2026-08-31 05:59:21 | 53.28928 | 8.48969 | 57° | 69km/h | 3741m | -11.5m/s | -6.2°C | 82.3% | 640.8hPa | 2.6V | 00:00:00 | 00:00:00 | 00:00:00 | |
| DL1XH1-15 | 2026-08-31 05:59:19 | 53.28898 | 8.48895 | 56° | 71km/h | 3776m | -12.2m/s | -6.3°C | 69.8% | 638hPa | 2.6V | 08:05:18 | 02:27:39 | 00:00:00 | |
| DL1XH1-15 | 2026-08-31 05:59:19 | 53.28850 | 8.48774 | 57° | 71km/h | 3833m | -11.8m/s | -6.2°C | 45.7% | 633.2hPa | 2.6V | 08:05:23 | 02:27:34 | 00:00:00 | |
| BIOWL1-15 | 2026-08-31 05:59:17 | 53.28860 | 8.48798 | 56° | 71km/h | 3822m | -12m/s | -6.2°C | 49.8% | 634.1hPa | 2.6V | 08:05:54 | 02:27:35 | 00:00:00 | |
| DL1XH-west | 2026-08-31 05:59:16 | 53.28870 | 8.48822 | 56° | 68km/h | 3810m | -11.8m/s | -6.1°C | 51% | 635.1hPa | 2.6V | 08:05:54 | 02:27:36 | 00:00:00 | |
| DL1XH-15 | 2026-08-31 05:59:14 | 53.28840 | 8.48749 | 57° | 69km/h | 3845m | -12m/s | -6.3°C | 46.6% | 632.3hPa | 2.6V | 08:05:24 | 02:27:33 | 00:00:00 | |
| DL1XH-15 | 2026-08-31 05:59:14 | 53.28794 | 8.48629 | 56° | 69km/h | 3904m | -12.4m/s | -6.7°C | 46.9% | 627.4hPa | 2.6V | 08:05:29 | 02:27:28 | 00:00:00 | |
| DF4FW | 2026-08-31 05:59:13 | 53.28850 | 8.48774 | 58° | 71km/h | 3833m | -11.8m/s | -6.3°C | 44.7% | 633.2hPa | 2.6V | 08:05:00 | 00:00:00 | 00:00:00 | |
| DD8BA-10 | 2026-08-31 05:59:12 | 53.28831 | 8.48724 | 59° | 68km/h | 3857m | -12.1m/s | -6.4°C | 46.2% | 631.3hPa | 2.6V | 00:00:00 | 00:00:00 | 00:00:00 | |
| GOEST3-10 | 2026-08-31 05:59:10 | 53.28813 | 8.48676 | 57° | 68km/h | 3881m | -12.0m/s | -6.5°C | 46.3% | 629.3hPa | 2.7V | 08:05:00 | 00:00:00 | 00:00:00 | |
| DL1XH1-15 | 2026-08-31 05:59:09 | 53.28756 | 8.48535 | 54° | 68km/h | 3953m | -12m/s | -6.8°C | 44.1% | 623.6hPa | 2.7V | 08:05:33 | 02:27:24 | 00:00:00 | |
| DL1XH-west | 2026-08-31 05:59:06 | 53.28775 | 8.48581 | 58° | 66km/h | 3929m | -12.5m/s | -6.7°C | 49.7% | 625.7hPa | 2.6V | 08:05:54 | 02:27:26 | 00:00:00 | |
| DM0DOS-11 | 2026-08-31 05:59:05 | 53.28747 | 8.48512 | 56° | 68km/h | 3965m | -12.1m/s | -6.9°C | 46.2% | 622.8hPa | 2.7V | 08:05:34 | 02:27:23 | 00:00:00 | |
| BIOWL1-15 | 2026-08-31 05:59:05 | 53.28766 | 8.48558 | 57° | 66km/h | 3941m | -12.4m/s | -6.8°C | 49.6% | 624.5hPa | 2.6V | 08:05:54 | 02:27:25 | 00:00:00 | |
| DL1LOL-11 | 2026-08-31 05:59:04 | 53.28766 | 8.48558 | 58° | 66km/h | 3941m | -12.4m/s | -6.8°C | 43.3% | 624.6hPa | 2.7V | 08:05:00 | 00:00:00 | 00:00:00 | |
| DD8BA-10 | 2026-08-31 05:59:02 | 53.28737 | 8.48488 | 57° | 66km/h | 3977m | -11.9m/s | -7.0°C | 46.1% | 621.7hPa | 2.7V | 00:00:00 | 00:00:00 | 00:00:00 | |
| GOEST3-10 | 2026-08-31 05:59:00 | 53.28718 | 8.48442 | 56° | 66km/h | 4000m | -11.7m/s | -7.1°C | 44.9% | 619.8hPa | 2.7V | 00:00:00 | 00:00:00 | 00:00:00 | |
| DL1XH1-15 | 2026-08-31 05:58:59 | 53.28661 | 8.48309 | 52° | 66km/h | 4069m | -12.3m/s | -7.4°C | 47.2% | 614.3hPa | 2.7V | 08:05:43 | 02:27:14 | 00:00:00 | |
| DL1XH-15 | 2026-08-31 05:58:58 | 53.28699 | 8.48398 | 55° | 68km/h | 4022m | -11.7m/s | -7.2°C | 42.8% | 618.1hPa | 2.7V | 08:05:39 | 02:27:18 | 00:00:00 | |
| BIOWL1-15 | 2026-08-31 05:58:56 | 53.28661 | 8.48309 | 52° | 66km/h | 4069m | -12.3m/s | -7.4°C | 52.6% | 614.3hPa | 2.7V | 08:05:54 | 02:27:14 | 00:00:00 | |
| DL1XH-west | 2026-08-31 05:58:55 | 53.28671 | 8.48330 | 53° | 64km/h | 4057m | -12m/s | -7.4°C | 51.1% | 615.3hPa | 2.6V | 08:05:54 | 02:27:15 | 00:00:00 | |
| DJ2DS-15 | 2026-08-31 05:58:54 | 53.28661 | 8.48309 | 52° | 66km/h | 4069m | -12.3m/s | -7.4°C | 46.0% | 614.3hPa | 2.7V | 00:00:00 | 00:00:00 | 00:00:00 | |
| DM0DOS-11 | 2026-08-31 05:58:53 | 53.28651 | 8.48287 | 53° | 66km/h | 4081m | -12.3m/s | -7.5°C | 47.8% | 613.5hPa | 2.7V | 08:05:44 | 02:27:13 | 00:00:00 | |
| DD8BA-10 | 2026-08-31 05:58:52 | 53.28641 | 8.48265 | 55° | 62km/h | 4093m | -11.9m/s | -7.5°C | 48.4% | 612.4hPa | 2.6V | 00:00:00 | 00:00:00 | 00:00:00 | |
| DL1XH1-15 | 2026-08-31 05:58:49 | 53.28612 | 8.48201 | 53° | 62km/h | 4127m | -12.1m/s | -7.8°C | 47.9% | 609.9hPa | 2.6V | 08:05:48 | 02:27:09 | 00:00:00 | |
| DL1XH1-15 | 2026-08-31 05:58:49 | 53.28563 | 8.48098 | 52° | 60km/h | 4186m | -12m/s | -8.2°C | 49.4% | 605.1hPa | 2.6V | 08:05:53 | 02:27:04 | 00:00:00 | |
| BIOWL9-15 | 2026-08-31 05:58:49 | 53.28603 | 8.48181 | 51° | 60km/h | 4139m | -12.0m/s | -7.9°C | 46.4% | 608.9hPa | 2.6V | 00:00:00 | 00:00:00 | 00:00:00 | |
| DC4HF-4 | 2026-08-31 05:58:48 | 53.28603 | 8.48181 | 51° | 60km/h | 4139m | -12.0m/s | -7.9°C | 46.4% | 608.9hPa | 2.6V | 00:00:00 | 00:00:00 | 00:00:00 | |
| SMARD9-10 | 2026-08-31 05:58:47 | 53.28603 | 8.48180 | 53° | 60km/h | 4139m | -12.0m/s | -7.9°C | 46.4% | 608.9hPa | 2.6V | 00:00:00 | 00:00:00 | 00:00:00 | |
| DL1XH-15 | 2026-08-31 05:58:46 | 53.28554 | 8.48079 | 50° | 60km/h | 4197m | -11.4m/s | -8.3°C | 50% | 604.2hPa | 2.6V | 08:05:54 | 02:27:03 | 00:00:00 | |
| DF5WG-10 | 2026-08-31 05:58:45 | 53.28573 | 8.48119 | 52° | 62km/h | 4174m | -12.1m/s | -8.1°C | 48.9% | 606.0hPa | 2.6V | 00:00:00 | 02:27:05 | 00:00:00 | |
| DL1XH1-15 | 2026-08-31 05:58:44 | 53.28514 | 8.47998 | 52° | 64km/h | 4243m | -12.2m/s | -8.6°C | 51.5% | 600.6hPa | 2.6V | 08:05:58 | 02:26:59 | 00:00:00 | |
| DL1XH-west | 2026-08-31 05:58:44 | 53.28563 | 8.48098 | 53° | 60km/h | 4186m | -12m/s | -8.2°C | 54.5% | 605.1hPa | 2.6V | 08:05:54 | 02:27:04 | 00:00:00 | |
| DF4FW | 2026-08-31 05:58:42 | 53.28544 | 8.48059 | 51° | 60km/h | 4209m | -11.6m/s | -8.4°C | 47.9% | 603.4hPa | 2.7V | 08:06:00 | 00:00:00 | 00:00:00 | |
| GOEST3-10 | 2026-08-31 05:58:40 | 53.28525 | 8.48019 | 52° | 62km/h | 4232m | -12.0m/s | -8.5°C | 50.1% | 601.5hPa | 2.7V | 00:00:00 | 00:00:00 | 00:00:00 | |
| DL1XH1-15 | 2026-08-31 05:58:39 | 53.28467 | 8.47893 | 53° | 64km/h | 4301m | -12.3m/s | -9.1°C | 53.5% | 596hPa | 2.6V | 08:06:03 | 02:26:54 | 00:00:00 | |
| DL1XH-15 | 2026-08-31 05:58:38 | 53.28505 | 8.47977 | 52° | 62km/h | 4255m | -12.2m/s | -8.7°C | 52% | 599.8hPa | 2.6V | 08:05:59 | 02:26:58 | 00:00:00 | |
| DM0DOS-11 | 2026-08-31 05:58:38 | 53.28457 | 8.47872 | 54° | 62km/h | 4313m | -11.7m/s | -9.2°C | 53.4% | 595.2hPa | 2.6V | 08:06:04 | 02:26:53 | 00:00:00 | |
| DL1LOL-11 | 2026-08-31 05:58:37 | 53.28505 | 8.47977 | 54° | 62km/h | 4255m | -12.2m/s | -8.7°C | 50.6% | 599.8hPa | 2.7V | 08:06:00 | 00:00:00 | 00:00:00 | |
| GOEST3-10 | 2026-08-31 05:58:35 | 53.28476 | 8.47915 | 53° | 62km/h | 4290m | -11.9m/s | -9.0°C | 53.3% | 596.9hPa | 2.7V | 00:00:00 | 02:26:55 | 00:00:00 | |
| DL1XH1-15 | 2026-08-31 05:58:34 | 53.28421 | 8.47788 | 54° | 66km/h | 4360m | -11.8m/s | -9.6°C | 52.8% | 591.6hPa | 2.7V | 08:06:08 | 02:26:49 | 00:00:00 | |
| DL1XH-15 | 2026-08-31 05:58:33 | 53.28411 | 8.47766 | 55° | 64km/h | 4372m | -11.8m/s | -9.6°C | 51.7% | 590.7hPa | 2.6V | 08:06:09 | 02:26:48 | 00:00:00 | |
| DL1XH-west | 2026-08-31 05:58:33 | 53.28457 | 8.47872 | 55° | 62km/h | 4313m | -11.7m/s | -9.2°C | 58.3% | 595.2hPa | 2.6V | 08:06:45 | 02:26:53 | 00:00:00 | |
| DD8BA-10 | 2026-08-31 05:58:32 | 53.28448 | 8.47851 | 55° | 62km/h | 4325m | -11.9m/s | -9.3°C | 53.6% | 594.3hPa | 2.6V | 00:00:00 | 00:00:00 | 00:00:00 | |
| GOEST3-10 | 2026-08-31 05:58:30 | 53.28430 | 8.47809 | 54° | 64km/h | 4349m | -12.0m/s | -9.4°C | 53.5% | 592.5hPa | 2.6V | 00:00:00 | 00:00:00 | 00:00:00 | |
| DL1XH1-15 | 2026-08-31 05:58:29 | 53.28375 | 8.47679 | 55° | 62km/h | 4417m | -11.7m/s | -9.8°C | 44.3% | 587.2hPa | 2.6V | 08:06:13 | 02:26:44 | 00:00:00 | |
| DJ2DS-15 | 2026-08-31 05:58:29 | 53.28420 | 8.47788 | 55° | 62km/h | 4360m | -11.8m/s | -9.5°C | 52.8% | 591.6hPa | 2.6V | 00:00:00 | 02:26:49 | 00:00:00 | |
| BIOWL7-15 | 2026-08-31 05:58:28 | 53.28421 | 8.47788 | 56° | 66km/h | 4360m | -11.8m/s | -9.6°C | 51.3% | 591.6hPa | 2.6V | 08:06:00 | 00:00:00 | 00:00:00 | |
| DL1XH-15 | 2026-08-31 05:58:26 | 53.28366 | 8.47657 | 57° | 64km/h | 4429m | -11.3m/s | -9.9°C | 42.9% | 586.4hPa | 2.6V | 08:06:14 | 02:26:43 | 00:00:00 | |
| DF5WG-10 | 2026-08-31 05:58:25 | 53.28384 | 8.47701 | 58° | 62km/h | 4406m | -11.8m/s | -9.7°C | 45.8% | 588.1hPa | 2.6V | 00:00:00 | 02:26:45 | 00:00:00 | |
| DL1XH1-15 | 2026-08-31 05:58:24 | 53.28333 | 8.47570 | 56° | 60km/h | 4476m | -11.9m/s | -10.2°C | 41.2% | 583hPa | 2.7V | 08:06:18 | 02:26:39 | 00:00:00 | |
| DL1XH-west | 2026-08-31 05:58:22 | 53.28357 | 8.47635 | 58° | 64km/h | 4441m | -12.2m/s | -10°C | 47.2% | 585.5hPa | 2.6V | 08:06:45 | 02:26:42 | 00:00:00 | |
| DD8BA-10 | 2026-08-31 05:58:22 | 53.28357 | 8.47634 | 58° | 60km/h | 4441m | -12.1m/s | -9.9°C | 42.2% | 585.5hPa | 2.7V | 00:00:00 | 00:00:00 | 00:00:00 | |
| GOEST3-10 | 2026-08-31 05:58:20 | 53.28341 | 8.47591 | 58° | 62km/h | 4464m | -11.1m/s | -10.1°C | 41.5% | 583.7hPa | 2.7V | 00:00:00 | 00:00:00 | 00:00:00 | |
| DL1XH1-15 | 2026-08-31 05:58:19 | 53.28292 | 8.47461 | 60° | 58km/h | 4535m | -11.4m/s | -10.6°C | 34.3% | 578.5hPa | 2.7V | 08:06:23 | 02:26:34 | 00:00:00 | |
| DL1XH-15 | 2026-08-31 05:58:18 | 53.28324 | 8.47549 | 57° | 62km/h | 4487m | -11.7m/s | -10.3°C | 40.5% | 582hPa | 2.6V | 08:06:19 | 02:26:38 | 00:00:00 | |
| DJ2DS-15 | 2026-08-31 05:58:18 | 53.28324 | 8.47549 | 57° | 60km/h | 4487m | -11.7m/s | -10.3°C | 39.2% | 582.0hPa | 2.6V | 00:00:00 | 00:00:00 | 00:00:00 | |
| BIOWL9-15 | 2026-08-31 05:58:17 | 53.28315 | 8.47527 | 58° | 62km/h | 4499m | -11.9m/s | -10.4°C | 38.4% | 581.1hPa | 2.6V | 00:00:00 | 00:00:00 | 00:00:00 | |
| DM0DOS-11 | 2026-08-31 05:58:15 | 53.28284 | 8.47440 | 58° | 58km/h | 4545m | -11.2m/s | -10.7°C | 35.2% | 577.7hPa | 2.6V | 08:06:24 | 02:26:33 | 00:00:00 | |
| DF5WG-10 | 2026-08-31 05:58:15 | 53.28299 | 8.47483 | 60° | 60km/h | 4523m | -12.0m/s | -10.5°C | 35.9% | 579.3hPa | 2.6V | 00:00:00 | 02:26:35 | 00:00:00 | |
| DD8BA-10 | 2026-08-31 05:58:12 | 53.28277 | 8.47419 | 58° | 60km/h | 4557m | -11.3m/s | -10.8°C | 35.6% | 576.8hPa | 2.6V | 00:00:00 | 00:00:00 | 00:00:00 | |
| DL1XH-west | 2026-08-31 05:58:12 | 53.28277 | 8.47419 | 58° | 60km/h | 4556m | -11.3m/s | -10.8°C | 40.2% | 576.9hPa | 2.6V | 08:06:45 | 02:26:32 | 00:00:00 | |
| DL1CLM-18 | 2026-08-31 05:58:11 | 53.28276 | 8.47419 | 59° | 60km/h | 4557m | -11.3m/s | -10.8°C | 34.5% | 576.9hPa | 2.6V | 00:00:00 | 00:00:00 | 00:00:00 | |
| DL1XH1-15 | 2026-08-31 05:58:10 | 53.28253 | 8.47353 | 60° | 58km/h | 4591m | -11.3m/s | -11.1°C | 40.9% | 574.2hPa | 2.6V | 08:06:28 | 02:26:29 | 00:00:00 | |
| DL1XH1-15 | 2026-08-31 05:58:10 | 53.28215 | 8.47246 | 59° | 62km/h | 4646m | -12.1m/s | -11.4°C | 38.8% | 570hPa | 2.6V | 08:06:33 | 02:26:24 | 00:00:00 | |
| DM0DOS-11 | 2026-08-31 05:58:10 | 53.28246 | 8.47332 | 59° | 58km/h | 4602m | -11.4m/s | -11.2°C | 42.5% | 573.4hPa | 2.6V | 08:06:29 | 02:26:28 | 00:00:00 | |
| DJ2DS-15 | 2026-08-31 05:58:09 | 53.28253 | 8.47353 | 61° | 60km/h | 4591m | -11.3m/s | -11.0°C | 40.9% | 574.2hPa | 2.6V | 08:06:00 | 02:26:29 | 00:00:00 | |
| DF5WG-10 | 2026-08-31 05:58:05 | 53.28223 | 8.47268 | 60° | 60km/h | 4634m | -12.1m/s | -11.3°C | 41.4% | 570.8hPa | 2.6V | 00:00:00 | 02:26:25 | 00:00:00 | |
| DL1XH1-15 | 2026-08-31 05:58:04 | 53.28176 | 8.47138 | 56° | 60km/h | 4705m | -11.6m/s | -11.8°C | 35.1% | 565.7hPa | 2.6V | 08:06:38 | 02:26:19 | 00:00:00 | |
| BIOWL1-15 | 2026-08-31 05:58:04 | 53.28199 | 8.47202 | 60° | 60km/h | 4670m | -12.4m/s | -11.5°C | 39.8% | 568.3hPa | 2.6V | 08:06:45 | 02:26:22 | 00:00:00 | |
| DM0DOS-11 | 2026-08-31 05:58:03 | 53.28207 | 8.47224 | 60° | 60km/h | 4658m | -12.1m/s | -11.4°C | 36.6% | 569.2hPa | 2.6V | 08:06:34 | 02:26:23 | 00:00:00 | |
| DM0DOS-11 | 2026-08-31 05:58:03 | 53.28168 | 8.47117 | 57° | 62km/h | 4716m | -11.6m/s | -11.8°C | 34.3% | 564.9hPa | 2.6V | 08:06:39 | 02:26:18 | 00:00:00 | |
| DL1XH-west | 2026-08-31 05:58:01 | 53.28192 | 8.47180 | 60° | 58km/h | 4682m | -12.1m/s | -11.6°C | 39.4% | 567.5hPa | 2.6V | 08:06:45 | 02:26:21 | 00:00:00 | |
| GOEST3-10 | 2026-08-31 05:58:00 | 53.28184 | 8.47159 | 58° | 60km/h | 4694m | -11.4m/s | -11.6°C | 34.9% | 566.5hPa | 2.6V | 00:00:00 | 00:00:00 | 00:00:00 | |
| DL1CLM-18 | 2026-08-31 05:57:56 | 53.28160 | 8.47095 | 59° | 62km/h | 4727m | -11.4m/s | -11.9°C | 32.3% | 564.0hPa | 2.6V | 00:00:00 | 00:00:00 | 00:00:00 | |
| DM0DOS-11 | 2026-08-31 05:57:53 | 53.28126 | 8.47009 | 57° | 64km/h | 4773m | -11.7m/s | -12.2°C | 30.2% | 560.7hPa | 2.6V | 08:06:44 | 02:26:13 | 00:00:00 | |
| BIOWL1-15 | 2026-08-31 05:57:52 | 53.28118 | 8.46987 | 57° | 64km/h | 4785m | -11.8m/s | -12.3°C | 34.1% | 559.9hPa | 2.6V | 08:06:45 | 02:26:12 | 00:00:00 | |
| DL1XH-west | 2026-08-31 05:57:51 | 53.28109 | 8.46964 | 57° | 64km/h | 4796m | -11.9m/s | -12.3°C | 33.8% | 559.1hPa | 2.6V | 08:07:36 | 02:26:11 | 00:00:00 | |
| DF4FW | 2026-08-31 05:57:50 | 53.28109 | 8.46964 | 58° | 62km/h | 4797m | -11.9m/s | -12.3°C | 28.6% | 559.1hPa | 2.6V | 08:07:00 | 00:00:00 | 00:00:00 | |
| DL1XH1-15 | 2026-08-31 05:57:49 | 53.28082 | 8.46899 | 55° | 64km/h | 4830m | -11.5m/s | -12.6°C | 28.4% | 556.5hPa | 2.6V | 08:06:49 | 02:26:08 | 00:00:00 | |
| BIOWL9-15 | 2026-08-31 05:57:46 | 53.28064 | 8.46854 | 55° | 64km/h | 4853m | -11.7m/s | -12.6°C | 25.3% | 555.0hPa | 2.6V | 00:00:00 | 00:00:00 | 00:00:00 | |
| DL1XH1-15 | 2026-08-31 05:57:43 | 53.28036 | 8.46789 | 54° | 68km/h | 4886m | -11.6m/s | -12.8°C | 25.2% | 552.4hPa | 2.6V | 08:06:54 | 02:26:03 | 00:00:00 | |
| DL1XH1-15 | 2026-08-31 05:57:43 | 53.27987 | 8.46675 | 54° | 68km/h | 4942m | -11.2m/s | -13.1°C | 24.8% | 548.3hPa | 2.6V | 08:06:59 | 02:25:58 | 00:00:00 | |
| BIOWL1-15 | 2026-08-31 05:57:43 | 53.28016 | 8.46743 | 55° | 66km/h | 4909m | -11.4m/s | -13°C | 29% | 550.7hPa | 2.6V | 08:07:36 | 02:26:01 | 00:00:00 | |
| DL1XH-west | 2026-08-31 05:57:40 | 53.28007 | 8.46720 | 53° | 66km/h | 4920m | -11.1m/s | -13°C | 29% | 550.1hPa | 2.6V | 08:07:36 | 02:26:00 | 00:00:00 | |
| BIOWL1-15 | 2026-08-31 05:57:32 | 53.27908 | 8.46495 | 53° | 64km/h | 5032m | -11.1m/s | -13.8°C | 29.5% | 542hPa | 2.6V | 08:07:36 | 02:25:50 | 00:00:00 | |
| DO2JMG | 2026-08-31 05:57:29 | 53.27899 | 8.46474 | 54° | 68km/h | 5043m | -11.1m/s | -13.9°C | 29.7% | 541.2hPa | 2.6V | 08:07:36 | 02:25:49 | 00:00:00 | |
| DL4BBY-15 | 2026-08-31 05:57:29 | 53.27899 | 8.46473 | 55° | 64km/h | 5043m | -11.0m/s | -12.9°C | 0% | 0hPa | 2.6V | 00:00:00 | 00:00:00 | 00:00:00 | |
| DM0DOS-11 | 2026-08-31 05:57:27 | 53.27860 | 8.46384 | 54° | 62km/h | 5087m | -10.9m/s | -14.2°C | 26.7% | 538hPa | 2.6V | 08:07:12 | 02:25:45 | 00:00:00 | |
| DB0DAN | 2026-08-31 05:57:25 | 53.27860 | 8.46384 | 55° | 60km/h | 5087m | -10.9m/s | -14.2°C | 25.6% | 538.03hPa | 2.6V | 00:00:00 | 00:00:00 | 00:00:00 | |
| DF5WG-10 | 2026-08-31 05:57:25 | 53.27860 | 8.46384 | 55° | 64km/h | 5087m | -10.9m/s | -14.2°C | 26.7% | 538.0hPa | 2.6V | 00:00:00 | 02:25:45 | 00:00:00 | |
| DD8BA-10 | 2026-08-31 05:57:22 | 53.27832 | 8.46319 | 56° | 64km/h | 5121m | -11.9m/s | -14.4°C | 26.6% | 535.7hPa | 2.6V | 00:00:00 | 00:00:00 | 00:00:00 | |
| GOEST3-10 | 2026-08-31 05:57:20 | 53.27813 | 8.46273 | 58° | 64km/h | 5144m | -11.5m/s | -14.6°C | 27.2% | 534.1hPa | 2.6V | 00:00:00 | 00:00:00 | 00:00:00 | |
| DL1XH1-15 | 2026-08-31 05:57:19 | 53.27769 | 8.46163 | 57° | 62km/h | 5199m | -11.3m/s | -14.9°C | 31.1% | 530.2hPa | 2.6V | 08:07:22 | 02:25:35 | 00:00:00 | |
| DO2JMG | 2026-08-31 05:57:19 | 53.27805 | 8.46251 | 56° | 62km/h | 5155m | -10.7m/s | -14.7°C | 31.5% | 533.4hPa | 2.6V | 08:07:36 | 02:25:39 | 00:00:00 | |
| DL1XH-west | 2026-08-31 05:57:18 | 53.27796 | 8.46229 | 55° | 62km/h | 5165m | -11.2m/s | -14.7°C | 31.2% | 532.6hPa | 2.6V | 08:07:36 | 02:25:38 | 00:00:00 | |
| DF5WG-10 | 2026-08-31 05:57:15 | 53.27769 | 8.46163 | 58° | 62km/h | 5199m | -11.3m/s | -14.9°C | 31.1% | 530.2hPa | 2.6V | 00:00:00 | 02:25:35 | 00:00:00 | |
| DL1LOL-11 | 2026-08-31 05:57:14 | 53.27769 | 8.46163 | 58° | 62km/h | 5199m | -11.4m/s | -14.9°C | 29.8% | 530.2hPa | 2.6V | 00:00:00 | 00:00:00 | 00:00:00 | |
| DB0DAN | 2026-08-31 05:57:10 | 53.27725 | 8.46056 | 55° | 60km/h | 5254m | -11.7m/s | -15.2°C | 30.4% | 526.29hPa | 2.6V | 00:00:00 | 00:00:00 | 00:00:00 | |
| GOEST3-10 | 2026-08-31 05:57:10 | 53.27725 | 8.46056 | 56° | 64km/h | 5254m | -11.6m/s | -15.2°C | 31.7% | 526.2hPa | 2.6V | 00:00:00 | 00:00:00 | 00:00:00 | |
| DJ2DS-15 | 2026-08-31 05:57:09 | 53.27716 | 8.46034 | 56° | 62km/h | 5266m | -11.7m/s | -15.3°C | 33.1% | 525.6hPa | 2.6V | 00:00:00 | 02:25:29 | 00:00:00 | |
| DM0DOS-11 | 2026-08-31 05:57:08 | 53.27681 | 8.45947 | 55° | 60km/h | 5312m | -10.8m/s | -15.7°C | 29.6% | 522.4hPa | 2.6V | 08:07:32 | 02:25:25 | 00:00:00 | |
| DO2JMG | 2026-08-31 05:57:08 | 53.27707 | 8.46012 | 56° | 64km/h | 5277m | -11.9m/s | -15.5°C | 44.5% | 524.8hPa | 2.6V | 08:07:36 | 02:25:28 | 00:00:00 | |
| DF4FW | 2026-08-31 05:57:07 | 53.27706 | 8.46012 | 57° | 64km/h | 5277m | -11.9m/s | -15.5°C | 39.1% | 524.8hPa | 2.6V | 08:07:00 | 00:00:00 | 00:00:00 | |
| DL1XH-west | 2026-08-31 05:57:07 | 53.27698 | 8.45990 | 57° | 62km/h | 5289m | -11.6m/s | -15.6°C | 45.6% | 523.9hPa | 2.6V | 08:07:36 | 02:25:27 | 00:00:00 | |
| DJ2DS-15 | 2026-08-31 05:57:06 | 53.27681 | 8.45947 | 55° | 58km/h | 5312m | -10.9m/s | -15.7°C | 28.3% | 522.4hPa | 2.6V | 00:00:00 | 00:00:00 | 00:00:00 | |
| DF5WG-10 | 2026-08-31 05:57:05 | 53.27680 | 8.45947 | 56° | 60km/h | 5312m | -10.8m/s | -15.6°C | 29.6% | 522.4hPa | 2.6V | 00:00:00 | 02:25:25 | 00:00:00 | |
| DK9SH | 2026-08-31 05:57:04 | 53.27680 | 8.45947 | 56° | 60km/h | 5312m | -10.9m/s | -15.7°C | 28.3% | 522.4hPa | 2.6V | 08:07:00 | 00:00:00 | 00:00:00 | |
| DD8BA-10 | 2026-08-31 05:57:02 | 53.27653 | 8.45882 | 56° | 62km/h | 5345m | -11.8m/s | -15.9°C | 24.6% | 520.0hPa | 2.6V | 00:00:00 | 00:00:00 | 00:00:00 | |
| GOEST3-10 | 2026-08-31 05:57:00 | 53.27636 | 8.45839 | 58° | 60km/h | 5368m | -11.6m/s | -16.1°C | 22.0% | 518.5hPa | 2.6V | 00:00:00 | 00:00:00 | 00:00:00 | |
| DL1XH1-15 | 2026-08-31 05:56:59 | 53.27594 | 8.45734 | 54° | 62km/h | 5425m | -11.7m/s | -16.4°C | 18.9% | 514.6hPa | 2.6V | 08:07:42 | 02:25:15 | 00:00:00 | |
| DO2JMG | 2026-08-31 05:56:58 | 53.27620 | 8.45797 | 57° | 58km/h | 5391m | -11.1m/s | -16.2°C | 23.3% | 516.9hPa | 2.6V | 08:08:27 | 02:25:18 | 00:00:00 | |
| AA1-15 | 2026-08-31 05:56:57 | 53.27612 | 8.45776 | 56° | 60km/h | 5402m | -11m/s | -16.3°C | 22.8% | 516.1hPa | 2.6V | 08:08:27 | 02:25:17 | 00:00:00 | |
| DL1XH-west | 2026-08-31 05:56:56 | 53.27603 | 8.45755 | 55° | 60km/h | 5413m | -11.2m/s | -16.3°C | 22% | 515.3hPa | 2.6V | 08:08:27 | 02:25:16 | 00:00:00 | |
| HTAHTA | 2026-08-31 05:56:51 | 53.27558 | 8.45645 | 56° | 64km/h | 5471m | -12.0m/s | -16.7°C | 17.2% | 511.4hPa | 2.6V | 00:00:00 | 00:00:00 | 00:00:00 | |
| GOEST3-10 | 2026-08-31 05:56:50 | 53.27549 | 8.45622 | 57° | 66km/h | 5483m | -11.7m/s | -16.7°C | 17.8% | 510.6hPa | 2.6V | 00:00:00 | 00:00:00 | 00:00:00 | |
| DJ2DS-15 | 2026-08-31 05:56:49 | 53.27540 | 8.45600 | 56° | 66km/h | 5495m | -11.3m/s | -16.8°C | 17.3% | 509.8hPa | 2.6V | 00:00:00 | 02:25:09 | 00:00:00 | |
| DL1XH-15 | 2026-08-31 05:56:48 | 53.27484 | 8.45464 | 55° | 64km/h | 5566m | -11.2m/s | -17.3°C | 17.3% | 505.1hPa | 2.6V | 08:07:54 | 02:25:03 | 00:00:00 | |
| DM0DOS-11 | 2026-08-31 05:56:48 | 53.27502 | 8.45509 | 56° | 64km/h | 5542m | -11.6m/s | -17.1°C | 17.3% | 506.7hPa | 2.7V | 08:07:52 | 02:25:05 | 00:00:00 | |
| DO2JMG | 2026-08-31 05:56:48 | 53.27531 | 8.45578 | 55° | 66km/h | 5506m | -12.3m/s | -16.9°C | 20.1% | 509.1hPa | 2.6V | 08:08:27 | 02:25:08 | 00:00:00 | |
| AA1-15 | 2026-08-31 05:56:46 | 53.27512 | 8.45532 | 56° | 66km/h | 5530m | -11.8m/s | -17.1°C | 20.1% | 507.4hPa | 2.6V | 08:08:27 | 02:25:06 | 00:00:00 | |
| DF5WG-10 | 2026-08-31 05:56:45 | 53.27502 | 8.45509 | 57° | 66km/h | 5542m | -11.6m/s | -17.1°C | 17.3% | 506.7hPa | 2.6V | 00:00:00 | 02:25:05 | 00:00:00 | |
| DL1XH-west | 2026-08-31 05:56:45 | 53.27502 | 8.45509 | 57° | 64km/h | 5542m | -11.6m/s | -17.1°C | 20.1% | 506.7hPa | 2.7V | 08:08:27 | 02:25:05 | 00:00:00 | |
| DO2LYB-13 | 2026-08-31 05:56:44 | 53.27502 | 8.45509 | 58° | 64km/h | 5542m | -11.6m/s | -17.1°C | 16.3% | 506.7hPa | 2.6V | 08:08:00 | 00:00:00 | 00:00:00 | |
| DK9SH | 2026-08-31 05:56:43 | 53.27493 | 8.45486 | 58° | 64km/h | 5554m | -11.8m/s | -17.2°C | 16.3% | 505.9hPa | 2.6V | 08:08:00 | 00:00:00 | 00:00:00 | |
| DD8BA-10 | 2026-08-31 05:56:42 | 53.27475 | 8.45442 | 56° | 66km/h | 5577m | -11.4m/s | -17.3°C | 17.3% | 504.3hPa | 2.6V | 00:00:00 | 00:00:00 | 00:00:00 | |
| GOEST3-10 | 2026-08-31 05:56:40 | 53.27456 | 8.45397 | 55° | 66km/h | 5600m | -11.8m/s | -17.5°C | 17.4% | 502.7hPa | 2.6V | 00:00:00 | 00:00:00 | 00:00:00 | |
| DL1XH-15 | 2026-08-31 05:56:38 | 53.27389 | 8.45236 | 57° | 64km/h | 5682m | -11.5m/s | -18.2°C | 19.8% | 497.2hPa | 2.6V | 08:08:04 | 02:24:53 | 00:00:00 | |
| DM0DOS-11 | 2026-08-31 05:56:38 | 53.27407 | 8.45283 | 55° | 66km/h | 5660m | -11.6m/s | -18.1°C | 19.3% | 498.8hPa | 2.6V | 08:08:02 | 02:24:55 | 00:00:00 | |
| DO2JMG | 2026-08-31 05:56:38 | 53.27436 | 8.45352 | 55° | 68km/h | 5624m | -12m/s | -17.8°C | 22.3% | 501.2hPa | 2.6V | 08:08:27 | 02:24:58 | 00:00:00 | |
| DL1XH-west | 2026-08-31 05:56:35 | 53.27408 | 8.45283 | 55° | 66km/h | 5660m | -11.6m/s | -18.1°C | 22.6% | 498.8hPa | 2.6V | 08:08:27 | 02:24:55 | 00:00:00 | |
| BIOWL1-15 | 2026-08-31 05:56:34 | 53.27398 | 8.45260 | 56° | 68km/h | 5671m | -11.5m/s | -18.2°C | 22.8% | 498.1hPa | 2.6V | 08:08:27 | 02:24:54 | 00:00:00 | |
| AA1-15 | 2026-08-31 05:56:32 | 53.27380 | 8.45214 | 55° | 64km/h | 5694m | -11.1m/s | -18.4°C | 23.4% | 496.5hPa | 2.6V | 08:08:27 | 02:24:52 | 00:00:00 | |
| DD8BA-10 | 2026-08-31 05:56:32 | 53.27380 | 8.45214 | 56° | 66km/h | 5694m | -11.0m/s | -18.3°C | 20.2% | 496.5hPa | 2.6V | 00:00:00 | 00:00:00 | 00:00:00 | |
| DJ2DS-15 | 2026-08-31 05:56:30 | 53.27353 | 8.45145 | 56° | 62km/h | 5727m | -11.1m/s | -18.7°C | 19.5% | 494.2hPa | 2.6V | 00:00:00 | 00:00:00 | 00:00:00 | |
| DL4BBY-15 | 2026-08-31 05:56:29 | 53.27353 | 8.45145 | 57° | 66km/h | 5727m | -11.0m/s | -17.7°C | 0% | 0hPa | 2.6V | 00:00:00 | 00:00:00 | 00:00:00 | |
| DL1XH-15 | 2026-08-31 05:56:28 | 53.27298 | 8.45007 | 56° | 66km/h | 5797m | -11.3m/s | -19.3°C | 22.9% | 489.6hPa | 2.6V | 08:08:14 | 02:24:43 | 00:00:00 | |
| DO2JMG | 2026-08-31 05:56:27 | 53.27335 | 8.45099 | 58° | 66km/h | 5749m | -12m/s | -18.9°C | 24.6% | 492.7hPa | 2.6V | 08:08:27 | 02:24:47 | 00:00:00 | |
| DL1XH-west | 2026-08-31 05:56:24 | 53.27308 | 8.45030 | 57° | 68km/h | 5785m | -12.1m/s | -19.2°C | 26.1% | 490.4hPa | 2.6V | 08:08:27 | 02:24:44 | 00:00:00 | |
| AA1-15 | 2026-08-31 05:56:22 | 53.27280 | 8.44960 | 58° | 66km/h | 5820m | -11.4m/s | -19.5°C | 27.1% | 488.2hPa | 2.6V | 08:08:27 | 02:24:41 | 00:00:00 | |
| GOEST3-10 | 2026-08-31 05:56:20 | 53.27271 | 8.44937 | 56° | 68km/h | 5831m | -11.5m/s | -19.6°C | 24.1% | 487.4hPa | 2.6V | 00:00:00 | 00:00:00 | 00:00:00 | |
| DL1LOL-11 | 2026-08-31 05:56:19 | 53.27271 | 8.44937 | 57° | 68km/h | 5831m | -11.6m/s | -19.6°C | 22.8% | 487.5hPa | 2.6V | 00:00:00 | 00:00:00 | 00:00:00 | |
| DM0DOS-11 | 2026-08-31 05:56:18 | 53.27225 | 8.44818 | 57° | 66km/h | 5888m | -11.7m/s | -20.2°C | 31.3% | 483.6hPa | 2.6V | 08:08:22 | 02:24:35 | 00:00:00 | |
| DL1XH-15 | 2026-08-31 05:56:18 | 53.27207 | 8.44771 | 57° | 66km/h | 5911m | -11.5m/s | -20.4°C | 36.8% | 482.1hPa | 2.6V | 08:08:24 | 02:24:33 | 00:00:00 | |
| DO2JMG | 2026-08-31 05:56:16 | 53.27234 | 8.44842 | 57° | 69km/h | 5877m | -11.8m/s | -20.1°C | 32.8% | 484.4hPa | 2.6V | 08:08:27 | 02:24:36 | 00:00:00 | |
| DL1XH-west | 2026-08-31 05:56:14 | 53.27216 | 8.44795 | 57° | 68km/h | 5900m | -11.3m/s | -20.3°C | 36.2% | 482.9hPa | 2.6V | 08:08:27 | 02:24:34 | 00:00:00 | |
| BIOWL9-15 | 2026-08-31 05:56:13 | 53.27207 | 8.44771 | 57° | 64km/h | 5911m | -11.5m/s | -20.4°C | 34.9% | 482.1hPa | 2.6V | 00:00:00 | 00:00:00 | 00:00:00 | |
| DO9LL-15 | 2026-08-31 05:56:12 | 53.27198 | 8.44748 | 56° | 62km/h | 5922m | -11.5m/s | -20.5°C | 40.2% | 481.3hPa | 2.6V | 00:00:00 | 02:24:32 | 00:00:00 | |
| SMARD9-15 | 2026-08-31 05:56:11 | 53.27189 | 8.44725 | 57° | 66km/h | 5934m | -11.9m/s | -20.6°C | 37.4% | 480.7hPa | 2.6V | 00:00:00 | 00:00:00 | 00:00:00 | |
| GOEST3-10 | 2026-08-31 05:56:10 | 53.27180 | 8.44701 | 56° | 66km/h | 5945m | -11.2m/s | -20.7°C | 38.6% | 479.9hPa | 2.6V | 08:08:00 | 00:00:00 | 00:00:00 | |
| AA1-15 | 2026-08-31 05:56:10 | 53.27180 | 8.44702 | 56° | 64km/h | 5945m | -11.3m/s | -20.8°C | 42.2% | 479.9hPa | 2.6V | 08:08:27 | 02:24:30 | 00:00:00 | |
| SMARD9-10 | 2026-08-31 05:56:09 | 53.27180 | 8.44701 | 57° | 64km/h | 5945m | -11.3m/s | -20.8°C | 36.6% | 479.9hPa | 2.6V | 08:08:00 | 00:00:00 | 00:00:00 | |
| DM0DOS-11 | 2026-08-31 05:56:08 | 53.27134 | 8.44588 | 54° | 64km/h | 6003m | -11.1m/s | -21.2°C | 35.1% | 476.2hPa | 2.6V | 08:08:32 | 02:24:25 | 00:00:00 | |
| DO2JMG | 2026-08-31 05:56:05 | 53.27134 | 8.44588 | 55° | 64km/h | 6003m | -11.1m/s | -21.2°C | 38.4% | 476.2hPa | 2.6V | 08:09:18 | 02:24:25 | 00:00:00 | |
| BIOWL1-15 | 2026-08-31 05:56:04 | 53.27125 | 8.44566 | 57° | 64km/h | 6014m | -11.7m/s | -21.3°C | 41.6% | 475.6hPa | 2.6V | 08:09:18 | 02:24:24 | 00:00:00 | |
| DL1XH-west | 2026-08-31 05:56:03 | 53.27116 | 8.44544 | 54° | 64km/h | 6025m | -11.7m/s | -21.4°C | 49% | 474.8hPa | 2.6V | 08:09:18 | 02:24:23 | 00:00:00 | |
| AA1-15 | 2026-08-31 05:55:59 | 53.27080 | 8.44458 | 56° | 60km/h | 6070m | -11.2m/s | -21.7°C | 27.7% | 471.8hPa | 2.6V | 08:09:18 | 02:24:19 | 00:00:00 | |
| DL4BBY-15 | 2026-08-31 05:55:59 | 53.27080 | 8.44458 | 56° | 62km/h | 6071m | -11.1m/s | -20.7°C | 0% | 0hPa | 2.6V | 00:00:00 | 00:00:00 | 00:00:00 | |
| DM0DOS-11 | 2026-08-31 05:55:58 | 53.27044 | 8.44373 | 55° | 62km/h | 6116m | -11.3m/s | -22.1°C | 24.6% | 468.9hPa | 2.6V | 08:08:42 | 02:24:15 | 00:00:00 | |
| BIOWL1-15 | 2026-08-31 05:55:55 | 53.27027 | 8.44331 | 53° | 60km/h | 6138m | -11.4m/s | -22.2°C | 31.5% | 467.5hPa | 2.6V | 08:09:18 | 02:24:13 | 00:00:00 | |
| DO2JMG | 2026-08-31 05:55:54 | 53.27035 | 8.44352 | 56° | 60km/h | 6127m | -11.5m/s | -22.2°C | 28.7% | 468.2hPa | 2.6V | 08:09:18 | 02:24:14 | 00:00:00 | |
| DL1XH-west | 2026-08-31 05:55:52 | 53.27018 | 8.44310 | 56° | 62km/h | 6149m | -12m/s | -22.4°C | 35% | 466.8hPa | 2.6V | 08:09:18 | 02:24:12 | 00:00:00 | |
| AA1-15 | 2026-08-31 05:55:48 | 53.26982 | 8.44225 | 54° | 60km/h | 6196m | -11.3m/s | -22.8°C | 34.2% | 463.8hPa | 2.6V | 08:09:18 | 02:24:08 | 00:00:00 | |
| DM0DOS-11 | 2026-08-31 05:55:48 | 53.26956 | 8.44162 | 54° | 60km/h | 6230m | -11.6m/s | -23.1°C | 35% | 461.6hPa | 2.6V | 08:08:52 | 02:24:05 | 00:00:00 | |
| DL1XH-15 | 2026-08-31 05:55:48 | 53.26939 | 8.44119 | 56° | 60km/h | 6253m | -12.2m/s | -23.3°C | 45.1% | 460.2hPa | 2.6V | 08:08:54 | 02:24:03 | 00:00:00 | |
| DC4HF-4 | 2026-08-31 05:55:48 | 53.26982 | 8.44225 | 54° | 58km/h | 6196m | -11.3m/s | -22.8°C | 28.9% | 463.8hPa | 2.6V | 00:00:00 | 00:00:00 | 00:00:00 | |
| SONCRA | 2026-08-31 05:55:45 | 53.26956 | 8.44162 | 54° | 60km/h | 6230m | -11.6m/s | -23.1°C | 33.0% | 461.6hPa | 2.6V | 00:00:00 | 00:00:00 | 00:00:00 | |
| DO2JMG | 2026-08-31 05:55:43 | 53.26939 | 8.44119 | 57° | 60km/h | 6253m | -12.2m/s | -23.3°C | 48.4% | 460.2hPa | 2.6V | 08:09:18 | 02:24:03 | 00:00:00 | |
| DL1XH-west | 2026-08-31 05:55:42 | 53.26930 | 8.44098 | 56° | 62km/h | 6265m | -11.8m/s | -23.4°C | 51.1% | 459.4hPa | 2.6V | 08:09:18 | 02:24:02 | 00:00:00 | |
| DO9LL-15 | 2026-08-31 05:55:42 | 53.26930 | 8.44098 | 56° | 64km/h | 6265m | -11.8m/s | -23.4°C | 47.9% | 459.4hPa | 2.6V | 00:00:00 | 02:24:02 | 00:00:00 | |
| GOEST3-10 | 2026-08-31 05:55:40 | 53.26913 | 8.44055 | 56° | 62km/h | 6289m | -11.9m/s | -23.6°C | 47.4% | 457.9hPa | 2.6V | 00:00:00 | 00:00:00 | 00:00:00 | |
| DL1XH-15 | 2026-08-31 05:55:38 | 53.26852 | 8.43904 | 56° | 62km/h | 6370m | -11.7m/s | -24.4°C | 57.4% | 452.9hPa | 2.6V | 08:09:04 | 02:23:53 | 00:00:00 | |
| AA1-15 | 2026-08-31 05:55:38 | 53.26896 | 8.44012 | 56° | 60km/h | 6311m | -11.2m/s | -23.9°C | 56.3% | 456.5hPa | 2.6V | 08:09:18 | 02:23:58 | 00:00:00 | |
| DO2JMG | 2026-08-31 05:55:33 | 53.26852 | 8.43904 | 56° | 62km/h | 6370m | -11.7m/s | -24.4°C | 60% | 452.9hPa | 2.6V | 08:09:18 | 02:23:53 | 00:00:00 | |
| DL1XH-west | 2026-08-31 05:55:31 | 53.26835 | 8.43862 | 56° | 62km/h | 6393m | -12m/s | -24.5°C | 57.3% | 451.5hPa | 2.6V | 08:09:18 | 02:23:51 | 00:00:00 | |
| AA1-15 | 2026-08-31 05:55:28 | 53.26799 | 8.43779 | 52° | 60km/h | 6439m | -11.5m/s | -24.7°C | 37.3% | 448.6hPa | 2.6V | 08:09:18 | 02:23:47 | 00:00:00 | |
| DO2JMG | 2026-08-31 05:55:23 | 53.26761 | 8.43696 | 54° | 60km/h | 6485m | -11.8m/s | -25°C | 33.6% | 445.7hPa | 2.6V | 08:09:18 | 02:23:43 | 00:00:00 | |
| DL1XH-west | 2026-08-31 05:55:21 | 53.26743 | 8.43656 | 53° | 64km/h | 6508m | -12.3m/s | -25.2°C | 33.1% | 444.3hPa | 2.6V | 08:09:18 | 02:23:41 | 00:00:00 | |
| BIOWL1-15 | 2026-08-31 05:55:20 | 53.26733 | 8.43635 | 53° | 64km/h | 6520m | -12.3m/s | -25.3°C | 32.8% | 443.6hPa | 2.5V | 08:09:18 | 02:23:40 | 00:00:00 | |
| DF8AY | 2026-08-31 05:55:19 | 53.26724 | 8.43614 | 54° | 66km/h | 6532m | -12.2m/s | -25.4°C | 32.6% | 442.8hPa | 2.6V | 08:09:18 | 02:23:39 | 00:00:00 | |
| DL1XH-15 | 2026-08-31 05:55:18 | 53.26664 | 8.43481 | 53° | 68km/h | 6606m | -13.3m/s | -25.9°C | 25% | 438.4hPa | 2.6V | 08:09:24 | 02:23:33 | 00:00:00 | |
| AA1-15 | 2026-08-31 05:55:17 | 53.26704 | 8.43570 | 54° | 66km/h | 6556m | -12.3m/s | -25.6°C | 33.5% | 441.3hPa | 2.6V | 08:10:09 | 02:23:37 | 00:00:00 | |
| DO2JMG | 2026-08-31 05:55:12 | 53.26654 | 8.43458 | 54° | 68km/h | 6618m | -12.8m/s | -26°C | 26.3% | 437.6hPa | 2.6V | 08:10:09 | 02:23:32 | 00:00:00 | |
| DL1XH-west | 2026-08-31 05:55:10 | 53.26634 | 8.43413 | 54° | 68km/h | 6643m | -12.8m/s | -26.2°C | 24.1% | 436.2hPa | 2.6V | 08:10:09 | 02:23:30 | 00:00:00 | |
| SMARD9-15 | 2026-08-31 05:55:09 | 53.26624 | 8.43390 | 53° | 66km/h | 6656m | -12.7m/s | -26.3°C | 18.7% | 435.4hPa | 2.6V | 00:00:00 | 00:00:00 | 00:00:00 | |
| DM0DOS-11 | 2026-08-31 05:55:08 | 53.26583 | 8.43300 | 52° | 69km/h | 6704m | -11.5m/s | -26.7°C | 20.6% | 432.4hPa | 2.6V | 08:09:32 | 02:23:25 | 00:00:00 | |
| DF8AY | 2026-08-31 05:55:08 | 53.26614 | 8.43367 | 54° | 68km/h | 6669m | -12.8m/s | -26.4°C | 23.6% | 434.7hPa | 2.6V | 08:10:09 | 02:23:28 | 00:00:00 | |
| AA1-15 | 2026-08-31 05:55:05 | 53.26583 | 8.43300 | 53° | 69km/h | 6704m | -11.5m/s | -26.7°C | 24% | 432.4hPa | 2.6V | 08:10:09 | 02:23:25 | 00:00:00 | |
| DO2JMG | 2026-08-31 05:55:02 | 53.26553 | 8.43232 | 54° | 66km/h | 6740m | -12m/s | -27°C | 24.8% | 430.3hPa | 2.6V | 08:10:09 | 02:23:22 | 00:00:00 | |
| DL1XH-west | 2026-08-31 05:55:00 | 53.26532 | 8.43187 | 52° | 69km/h | 6764m | -12.1m/s | -27.2°C | 24.9% | 428.9hPa | 2.6V | 08:10:09 | 02:23:20 | 00:00:00 | |
| DL1XH1-15 | 2026-08-31 05:54:59 | 53.26471 | 8.43049 | 51° | 68km/h | 6835m | -12m/s | -27.7°C | 21.2% | 424.7hPa | 2.6V | 08:09:43 | 02:23:14 | 00:00:00 | |
| BIOWL1-15 | 2026-08-31 05:54:59 | 53.26522 | 8.43164 | 54° | 69km/h | 6776m | -11.9m/s | -27.3°C | 24.8% | 428.2hPa | 2.6V | 08:10:09 | 02:23:19 | 00:00:00 | |
| DF8AY | 2026-08-31 05:54:57 | 53.26501 | 8.43117 | 54° | 69km/h | 6800m | -12.1m/s | -27.5°C | 24.1% | 426.8hPa | 2.6V | 08:10:09 | 02:23:17 | 00:00:00 | |
| AA1-15 | 2026-08-31 05:54:55 | 53.26481 | 8.43071 | 53° | 68km/h | 6824m | -11.4m/s | -27.7°C | 24.5% | 425.4hPa | 2.6V | 08:10:09 | 02:23:15 | 00:00:00 | |
| DB0DAN | 2026-08-31 05:54:55 | 53.26481 | 8.43071 | 53° | 64km/h | 6824m | -11.4m/s | -27.7°C | 19.4% | 425.45hPa | 2.6V | 00:00:00 | 00:00:00 | 00:00:00 | |
| DO2JMG | 2026-08-31 05:54:51 | 53.26439 | 8.42979 | 53° | 68km/h | 6872m | -11.8m/s | -28°C | 25.2% | 422.5hPa | 2.6V | 08:10:09 | 02:23:11 | 00:00:00 | |
| DL1XH-west | 2026-08-31 05:54:49 | 53.26418 | 8.42933 | 54° | 68km/h | 6895m | -11.8m/s | -28.2°C | 25% | 421.2hPa | 2.6V | 08:10:09 | 02:23:09 | 00:00:00 | |
| DL1XH1-15 | 2026-08-31 05:54:49 | 53.26365 | 8.42817 | 53° | 71km/h | 6952m | -12.2m/s | -28.7°C | 20.4% | 417.8hPa | 2.6V | 08:09:53 | 02:23:04 | 00:00:00 | |
| DL1XH-15 | 2026-08-31 05:54:48 | 53.26355 | 8.42794 | 52° | 68km/h | 6964m | -11.5m/s | -28.8°C | 20.9% | 417.1hPa | 2.6V | 08:09:54 | 02:23:03 | 00:00:00 | |
| BIOWL1-15 | 2026-08-31 05:54:48 | 53.26407 | 8.42910 | 52° | 68km/h | 6906m | -11.6m/s | -28.3°C | 24.7% | 420.6hPa | 2.6V | 08:10:09 | 02:23:08 | 00:00:00 | |
| DF8AY | 2026-08-31 05:54:47 | 53.26397 | 8.42887 | 53° | 71km/h | 6917m | -11.6m/s | -28.4°C | 24.5% | 419.9hPa | 2.6V | 08:10:09 | 02:23:07 | 00:00:00 | |
| HTAHTA | 2026-08-31 05:54:47 | 53.26397 | 8.42887 | 53° | 69km/h | 6917m | -11.6m/s | -28.4°C | 19.3% | 419.9hPa | 2.6V | 00:00:00 | 00:00:00 | 00:00:00 | |
| AA1-15 | 2026-08-31 05:54:44 | 53.26365 | 8.42817 | 54° | 71km/h | 6952m | -12.2m/s | -28.7°C | 23.7% | 417.8hPa | 2.6V | 08:10:09 | 02:23:04 | 00:00:00 | |
| SONCRA | 2026-08-31 05:54:43 | 53.26355 | 8.42794 | 52° | 68km/h | 6964m | -11.5m/s | -28.8°C | 19.1% | 417.1hPa | 2.6V | 00:00:00 | 00:00:00 | 00:00:00 | |
| DD8BA-10 | 2026-08-31 05:54:42 | 53.26344 | 8.42771 | 54° | 68km/h | 6975m | -11.6m/s | -28.8°C | 21.1% | 416.4hPa | 2.6V | 00:00:00 | 00:00:00 | 00:00:00 | |
| DF5WG-10 | 2026-08-31 05:54:41 | 53.26334 | 8.42748 | 55° | 68km/h | 6987m | -12.0m/s | -28.9°C | 21.3% | 415.8hPa | 2.6V | 00:00:00 | 02:23:01 | 00:00:00 | |
| GOEST3-10 | 2026-08-31 05:54:40 | 53.26324 | 8.42725 | 53° | 68km/h | 6999m | -11.7m/s | -29.1°C | 21.6% | 415.0hPa | 2.6V | 08:09:00 | 00:00:00 | 00:00:00 | |
| DO2JMG | 2026-08-31 05:54:40 | 53.26324 | 8.42725 | 53° | 69km/h | 6999m | -11.7m/s | -29.1°C | 25% | 415.1hPa | 2.6V | 08:10:09 | 02:23:00 | 00:00:00 | |
| DL1XH1-15 | 2026-08-31 05:54:39 | 53.26263 | 8.42586 | 54° | 68km/h | 7068m | -11.8m/s | -29.7°C | 23.4% | 411hPa | 2.6V | 08:10:03 | 02:22:54 | 00:00:00 | |
| DL1XH-15 | 2026-08-31 05:54:38 | 53.26254 | 8.42564 | 53° | 66km/h | 7080m | -11.3m/s | -29.8°C | 24% | 410.4hPa | 2.6V | 08:10:04 | 02:22:53 | 00:00:00 | |
| DL1XH-west | 2026-08-31 05:54:38 | 53.26303 | 8.42678 | 53° | 66km/h | 7022m | -11.7m/s | -29.3°C | 25.7% | 413.7hPa | 2.6V | 08:10:09 | 02:22:58 | 00:00:00 | |
| BIOWL1-15 | 2026-08-31 05:54:37 | 53.26293 | 8.42655 | 54° | 69km/h | 7034m | -11.3m/s | -29.4°C | 25.8% | 413hPa | 2.6V | 08:10:09 | 02:22:57 | 00:00:00 | |
| AA1-15 | 2026-08-31 05:54:33 | 53.26254 | 8.42564 | 53° | 66km/h | 7080m | -11.3m/s | -29.8°C | 27.4% | 410.4hPa | 2.6V | 08:10:09 | 02:22:53 | 00:00:00 | |
| DO2JMG | 2026-08-31 05:54:30 | 53.26224 | 8.42495 | 55° | 68km/h | 7114m | -12.1m/s | -30.1°C | 29.6% | 408.5hPa | 2.6V | 08:10:09 | 02:22:50 | 00:00:00 | |
| DL4BBY-15 | 2026-08-31 05:54:29 | 53.26214 | 8.42473 | 56° | 66km/h | 7125m | -11.7m/s | -29.2°C | 0% | 0hPa | 2.6V | 00:00:00 | 00:00:00 | 00:00:00 | |
| DM0DOS-11 | 2026-08-31 05:54:28 | 53.26176 | 8.42381 | 55° | 68km/h | 7171m | -11.2m/s | -30.6°C | 37.3% | 405.1hPa | 2.6V | 08:10:12 | 02:22:45 | 00:00:00 | |
| DL1XH-15 | 2026-08-31 05:54:28 | 53.26158 | 8.42335 | 56° | 68km/h | 7194m | -11.1m/s | -30.8°C | 42% | 403.7hPa | 2.6V | 08:10:14 | 02:22:43 | 00:00:00 | |
| DL1XH-west | 2026-08-31 05:54:27 | 53.26195 | 8.42427 | 56° | 68km/h | 7148m | -12.2m/s | -30.4°C | 36.4% | 406.4hPa | 2.6V | 08:11:00 | 02:22:47 | 00:00:00 | |
| DF8AY | 2026-08-31 05:54:26 | 53.26186 | 8.42404 | 54° | 66km/h | 7160m | -11.6m/s | -30.5°C | 38.7% | 405.7hPa | 2.6V | 08:11:00 | 02:22:46 | 00:00:00 | |
| AA1-15 | 2026-08-31 05:54:22 | 53.26149 | 8.42312 | 57° | 64km/h | 7205m | -11.4m/s | -30.9°C | 47.2% | 403.1hPa | 2.6V | 08:11:00 | 02:22:42 | 00:00:00 | |
| DO2JMG | 2026-08-31 05:54:20 | 53.26132 | 8.42265 | 58° | 64km/h | 7228m | -11.1m/s | -31.1°C | 52.6% | 401.8hPa | 2.6V | 08:11:00 | 02:22:40 | 00:00:00 | |
| GOEST3-10 | 2026-08-31 05:54:20 | 53.26132 | 8.42265 | 58° | 66km/h | 7228m | -11.0m/s | -31.1°C | 49.2% | 401.7hPa | 2.6V | 00:00:00 | 00:00:00 | 00:00:00 | |
| DF4FW | 2026-08-31 05:54:19 | 53.26132 | 8.42264 | 59° | 64km/h | 7228m | -11.1m/s | -31.1°C | 45.7% | 401.8hPa | 2.6V | 08:11:00 | 00:00:00 | 00:00:00 | |
| DL1XH-15 | 2026-08-31 05:54:18 | 53.26075 | 8.42097 | 63° | 64km/h | 7309m | -12.3m/s | -31.8°C | 74% | 397.2hPa | 2.6V | 08:10:24 | 02:22:33 | 00:00:00 | |
| BIOWL1-15 | 2026-08-31 05:54:17 | 53.26091 | 8.42146 | 62° | 64km/h | 7286m | -11.9m/s | -31.7°C | 69.1% | 398.4hPa | 2.6V | 08:11:00 | 02:22:35 | 00:00:00 | |
| DL1XH-west | 2026-08-31 05:54:17 | 53.26107 | 8.42194 | 61° | 66km/h | 7263m | -12.6m/s | -31.5°C | 59.7% | 399.8hPa | 2.6V | 08:11:00 | 02:22:37 | 00:00:00 | |
| DF8AY | 2026-08-31 05:54:16 | 53.26098 | 8.42169 | 59° | 66km/h | 7275m | -11.5m/s | -31.6°C | 63.8% | 399.2hPa | 2.6V | 08:11:00 | 02:22:36 | 00:00:00 | |
| AA1-15 | 2026-08-31 05:54:11 | 53.26061 | 8.42047 | 64° | 68km/h | 7333m | -11.7m/s | -32°C | 78.7% | 395.9hPa | 2.6V | 08:11:00 | 02:22:31 | 00:00:00 | |
| DF5WG-10 | 2026-08-31 05:54:11 | 53.26060 | 8.42047 | 64° | 64km/h | 7333m | -11.6m/s | -31.9°C | 76.7% | 395.8hPa | 2.6V | 00:00:00 | 02:22:31 | 00:00:00 | |
| GOEST3-10 | 2026-08-31 05:54:10 | 53.26053 | 8.42022 | 66° | 66km/h | 7344m | -12.1m/s | -32.0°C | 76.9% | 395.1hPa | 2.6V | 00:00:00 | 00:00:00 | 00:00:00 | |
| BIOWL9-15 | 2026-08-31 05:54:09 | 53.26047 | 8.41998 | 63° | 62km/h | 7356m | -11.7m/s | -32.1°C | 71.9% | 394.6hPa | 2.6V | 00:00:00 | 00:00:00 | 00:00:00 | |
| DO2JMG | 2026-08-31 05:54:09 | 53.26047 | 8.41998 | 64° | 64km/h | 7356m | -11.7m/s | -32.1°C | 78.7% | 394.6hPa | 2.6V | 08:11:00 | 02:22:29 | 00:00:00 | |
| DL1XH-15 | 2026-08-31 05:54:08 | 53.26004 | 8.41849 | 64° | 62km/h | 7427m | -11.7m/s | -32.5°C | 72.6% | 390.5hPa | 2.6V | 08:10:34 | 02:22:23 | 00:00:00 | |
| DL1XH-west | 2026-08-31 05:54:06 | 53.26025 | 8.41924 | 65° | 68km/h | 7391m | -12.6m/s | -32.3°C | 75.5% | 392.6hPa | 2.6V | 08:11:00 | 02:22:26 | 00:00:00 | |
| BIOWL1-15 | 2026-08-31 05:54:04 | 53.25983 | 8.41779 | 63° | 64km/h | 7463m | -12.4m/s | -32.7°C | 72.7% | 388.5hPa | 2.6V | 08:11:00 | 02:22:20 | 00:00:00 | |
| AA1-15 | 2026-08-31 05:54:01 | 53.25990 | 8.41802 | 64° | 62km/h | 7451m | -12.3m/s | -32.6°C | 73.3% | 389.2hPa | 2.6V | 08:11:00 | 02:22:21 | 00:00:00 | |
| DF5WG-10 | 2026-08-31 05:54:01 | 53.25990 | 8.41802 | 64° | 64km/h | 7451m | -12.3m/s | -32.6°C | 70.5% | 389.2hPa | 2.6V | 00:00:00 | 02:22:21 | 00:00:00 | |
| GOEST3-10 | 2026-08-31 05:54:00 | 53.25983 | 8.41779 | 63° | 64km/h | 7463m | -12.4m/s | -32.7°C | 69.9% | 388.5hPa | 2.6V | 00:00:00 | 00:00:00 | 00:00:00 | |
| DL4BBY-15 | 2026-08-31 05:53:59 | 53.25976 | 8.41756 | 64° | 58km/h | 7475m | -12.7m/s | -31.9°C | 0% | 0hPa | 2.6V | 00:00:00 | 00:00:00 | 00:00:00 | |
| DO2JMG | 2026-08-31 05:53:59 | 53.25976 | 8.41756 | 63° | 66km/h | 7475m | -12.7m/s | -32.8°C | 71.7% | 387.9hPa | 2.6V | 08:11:00 | 02:22:19 | 00:00:00 | |
| DL1XH-15 | 2026-08-31 05:53:58 | 53.25933 | 8.41613 | 62° | 62km/h | 7553m | -13.9m/s | -33.2°C | 36.2% | 383.8hPa | 2.6V | 08:10:44 | 02:22:13 | 00:00:00 | |
| DM0DOS-11 | 2026-08-31 05:53:58 | 53.25947 | 8.41660 | 63° | 62km/h | 7526m | -13.4m/s | -33.2°C | 51.1% | 385.1hPa | 2.6V | 08:10:42 | 02:22:15 | 00:00:00 | |
| DL1XH-west | 2026-08-31 05:53:56 | 53.25954 | 8.41683 | 64° | 64km/h | 7513m | -13.4m/s | -33.1°C | 61.8% | 385.9hPa | 2.6V | 08:11:00 | 02:22:16 | 00:00:00 | |
| BIOWL1-15 | 2026-08-31 05:53:55 | 53.25933 | 8.41613 | 62° | 62km/h | 7553m | -13.9m/s | -33.3°C | 40.4% | 383.8hPa | 2.6V | 08:11:00 | 02:22:13 | 00:00:00 | |
| AA1-15 | 2026-08-31 05:53:50 | 53.25911 | 8.41546 | 62° | 58km/h | 7595m | -14.4m/s | -33.6°C | 33.1% | 381.6hPa | 2.6V | 08:11:00 | 02:22:10 | 00:00:00 | |
| GOEST3-10 | 2026-08-31 05:53:50 | 53.25911 | 8.41545 | 63° | 57km/h | 7595m | -14.4m/s | -33.5°C | 29.0% | 381.5hPa | 2.6V | 00:00:00 | 00:00:00 | 00:00:00 | |
| DL1XH1-15 | 2026-08-31 05:53:49 | 53.25867 | 8.41420 | 58° | 57km/h | 7679m | -14.4m/s | -34.2°C | 30% | 377hPa | 2.6V | 08:10:53 | 02:22:04 | 00:00:00 | |
| DO2JMG | 2026-08-31 05:53:49 | 53.25904 | 8.41523 | 62° | 58km/h | 7610m | -14.2m/s | -33.6°C | 31.5% | 380.8hPa | 2.6V | 08:11:00 | 02:22:09 | 00:00:00 | |
| DM0DOS-11 | 2026-08-31 05:53:48 | 53.25874 | 8.41440 | 57° | 58km/h | 7665m | -13.6m/s | -34.1°C | 29.2% | 377.7hPa | 2.6V | 08:10:52 | 02:22:05 | 00:00:00 | |
| BIOWL1-15 | 2026-08-31 05:53:45 | 53.25859 | 8.41400 | 58° | 57km/h | 7694m | -14.8m/s | -34.3°C | 35.5% | 376.3hPa | 2.6V | 08:11:00 | 02:22:03 | 00:00:00 | |
| DL1XH-west | 2026-08-31 05:53:45 | 53.25874 | 8.41440 | 57° | 58km/h | 7665m | -13.6m/s | -34.1°C | 33.6% | 377.7hPa | 2.6V | 08:11:00 | 02:22:05 | 00:00:00 | |
| DO2SHX-10 | 2026-08-31 05:53:45 | 53.25874 | 8.41440 | 58° | 57km/h | 7665m | -13.6m/s | -34.0°C | 29.2% | 377.7hPa | 2.6V | 00:00:00 | 02:22:05 | 00:00:00 | |
| BIOWL7-15 | 2026-08-31 05:53:43 | 53.25867 | 8.41420 | 59° | 57km/h | 7679m | -14.4m/s | -34.2°C | 27.1% | 377.0hPa | 2.6V | 00:00:00 | 00:00:00 | 00:00:00 | |
| DD8BA-10 | 2026-08-31 05:53:42 | 53.25852 | 8.41380 | 58° | 57km/h | 7708m | -15.1m/s | -34.4°C | 32.2% | 375.4hPa | 2.6V | 00:00:00 | 00:00:00 | 00:00:00 | |
| DF5WG-10 | 2026-08-31 05:53:41 | 53.25844 | 8.41359 | 59° | 55km/h | 7723m | -14.9m/s | -34.6°C | 33.7% | 374.5hPa | 2.6V | 00:00:00 | 02:22:01 | 00:00:00 | |
| D01LWL | 2026-08-31 05:53:40 | 53.25829 | 8.41317 | 59° | 58km/h | 7752m | -15.2m/s | -34.9°C | 32.0% | 373.1hPa | 2.6V | 00:00:00 | 00:00:00 | 00:00:00 | |
| DL1XH1-15 | 2026-08-31 05:53:39 | 53.25793 | 8.41213 | 60° | 53km/h | 7825m | -13.6m/s | -35.5°C | 41.7% | 369.3hPa | 2.6V | 08:11:03 | 02:21:54 | 00:00:00 | |
| DO2JMG | 2026-08-31 05:53:39 | 53.25829 | 8.41317 | 59° | 60km/h | 7752m | -15.2m/s | -34.9°C | 39.7% | 373.1hPa | 2.6V | 08:11:00 | 02:21:59 | 00:00:00 | |
| DO2SHX-10 | 2026-08-31 05:53:39 | 53.25829 | 8.41317 | 60° | 58km/h | 7752m | -15.2m/s | -34.8°C | 35.3% | 373.0hPa | 2.6V | 00:00:00 | 02:21:59 | 00:00:00 | |
| DM0DOS-11 | 2026-08-31 05:53:38 | 53.25800 | 8.41233 | 60° | 55km/h | 7811m | -13.3m/s | -35.4°C | 40.7% | 369.9hPa | 2.6V | 08:11:02 | 02:21:55 | 00:00:00 | |
| DF8AY | 2026-08-31 05:53:34 | 53.25793 | 8.41213 | 60° | 55km/h | 7825m | -13.6m/s | -35.5°C | 45.9% | 369.3hPa | 2.6V | 08:11:51 | 02:21:54 | 00:00:00 | |
| BIOWL1-15 | 2026-08-31 05:53:32 | 53.25779 | 8.41174 | 60° | 55km/h | 7852m | -13.6m/s | -35.8°C | 48.7% | 367.8hPa | 2.6V | 08:11:51 | 02:21:52 | 00:00:00 | |
| DD8BA-10 | 2026-08-31 05:53:32 | 53.25779 | 8.41174 | 60° | 58km/h | 7853m | -13.5m/s | -35.7°C | 44.6% | 367.7hPa | 2.6V | 00:00:00 | 00:00:00 | 00:00:00 | |
| DO2SHX-10 | 2026-08-31 05:53:30 | 53.25766 | 8.41134 | 61° | 58km/h | 7880m | -14.8m/s | -36.0°C | 45.9% | 366.2hPa | 2.6V | 00:00:00 | 02:21:50 | 00:00:00 | |
| DL1XH1-15 | 2026-08-31 05:53:29 | 53.25725 | 8.41006 | 62° | 58km/h | 7967m | -14.8m/s | -36.8°C | 48.1% | 361.7hPa | 2.6V | 08:11:13 | 02:21:44 | 00:00:00 | |
| DL4BBY-15 | 2026-08-31 05:53:29 | 53.25759 | 8.41114 | 61° | 57km/h | 7895m | -15.4m/s | -35.2°C | 0% | 0hPa | 2.6V | 00:00:00 | 00:00:00 | 00:00:00 | |
| DL1XH-15 | 2026-08-31 05:53:28 | 53.25718 | 8.40984 | 62° | 58km/h | 7982m | -14.7m/s | -36.9°C | 48% | 361hPa | 2.6V | 08:11:14 | 02:21:43 | 00:00:00 | |
| DM0DOS-11 | 2026-08-31 05:53:28 | 53.25731 | 8.41028 | 62° | 58km/h | 7953m | -14.8m/s | -36.7°C | 48% | 362.5hPa | 2.6V | 08:11:12 | 02:21:45 | 00:00:00 | |
| DO2JMG | 2026-08-31 05:53:28 | 53.25752 | 8.41093 | 62° | 58km/h | 7910m | -15m/s | -36.3°C | 51% | 364.7hPa | 2.6V | 08:11:51 | 02:21:48 | 00:00:00 | |
| DF4FW | 2026-08-31 05:53:27 | 53.25751 | 8.41093 | 63° | 58km/h | 7910m | -15.0m/s | -36.3°C | 43.0% | 364.7hPa | 2.6V | 08:11:00 | 00:00:00 | 00:00:00 | |
| DB0DAN | 2026-08-31 05:53:25 | 53.25731 | 8.41028 | 63° | 57km/h | 7953m | -14.8m/s | -36.7°C | 43.8% | 362.48hPa | 2.6V | 00:00:00 | 00:00:00 | 00:00:00 | |
| DF8AY | 2026-08-31 05:53:24 | 53.25725 | 8.41005 | 63° | 58km/h | 7967m | -14.8m/s | -36.8°C | 51.8% | 361.7hPa | 2.6V | 08:11:51 | 02:21:44 | 00:00:00 | |
| DL1XH-west | 2026-08-31 05:53:23 | 53.25718 | 8.40984 | 63° | 58km/h | 7982m | -14.7m/s | -36.9°C | 51.6% | 361hPa | 2.6V | 08:11:51 | 02:21:43 | 00:00:00 | |
| BIOWL1-15 | 2026-08-31 05:53:21 | 53.25705 | 8.40941 | 62° | 55km/h | 8010m | -13.7m/s | -37.2°C | 50.5% | 359.5hPa | 2.6V | 08:11:51 | 02:21:41 | 00:00:00 | |
| DO2SHX-10 | 2026-08-31 05:53:21 | 53.25705 | 8.40941 | 63° | 55km/h | 8010m | -13.6m/s | -37.1°C | 46.8% | 359.4hPa | 2.6V | 00:00:00 | 02:21:41 | 00:00:00 | |
| DF5WG-10 | 2026-08-31 05:53:20 | 53.25698 | 8.40921 | 61° | 57km/h | 8024m | -13.4m/s | -37.3°C | 46.5% | 358.7hPa | 2.6V | 08:11:00 | 02:21:40 | 00:00:00 | |
| DL1XH1-15 | 2026-08-31 05:53:19 | 53.25653 | 8.40801 | 56° | 58km/h | 8110m | -15.5m/s | -38.1°C | 43.3% | 354.4hPa | 2.6V | 08:11:23 | 02:21:34 | 00:00:00 | |
| DL1XH-15 | 2026-08-31 05:53:18 | 53.25645 | 8.40781 | 55° | 57km/h | 8124m | -15.8m/s | -38.2°C | 42.6% | 353.6hPa | 2.6V | 08:11:24 | 02:21:33 | 00:00:00 | |
| DO2JMG | 2026-08-31 05:53:18 | 53.25684 | 8.40881 | 58° | 57km/h | 8051m | -14.4m/s | -37.6°C | 48.9% | 357.3hPa | 2.6V | 08:11:51 | 02:21:38 | 00:00:00 | |
| AA1-15 | 2026-08-31 05:53:17 | 53.25677 | 8.40861 | 58° | 57km/h | 8065m | -14.5m/s | -37.7°C | 48% | 356.6hPa | 2.6V | 08:11:51 | 02:21:37 | 00:00:00 | |
| DF8AY | 2026-08-31 05:53:14 | 53.25653 | 8.40801 | 56° | 58km/h | 8110m | -15.5m/s | -38.1°C | 47.2% | 354.4hPa | 2.6V | 08:11:51 | 02:21:34 | 00:00:00 | |
| DL1XH-west | 2026-08-31 05:53:12 | 53.25637 | 8.40761 | 56° | 57km/h | 8140m | -15.8m/s | -38.3°C | 46% | 352.7hPa | 2.6V | 08:11:51 | 02:21:32 | 00:00:00 | |
| BIOWL1-15 | 2026-08-31 05:53:11 | 53.25629 | 8.40741 | 56° | 55km/h | 8156m | -15.1m/s | -38.4°C | 45.5% | 351.9hPa | 2.6V | 08:11:51 | 02:21:31 | 00:00:00 | |
| DB0DAN | 2026-08-31 05:53:10 | 53.25621 | 8.40722 | 55° | 53km/h | 8170m | -15.3m/s | -38.5°C | 36.4% | 351.21hPa | 2.6V | 00:00:00 | 00:00:00 | 00:00:00 | |
| DF5WG-10 | 2026-08-31 05:53:10 | 53.25621 | 8.40722 | 56° | 57km/h | 8170m | -15.2m/s | -38.5°C | 40.4% | 351.2hPa | 2.7V | 00:00:00 | 02:21:30 | 00:00:00 | |
| DL1XH1-15 | 2026-08-31 05:53:09 | 53.25571 | 8.40609 | 53° | 58km/h | 8259m | -15.1m/s | -39.4°C | 35.9% | 346.7hPa | 2.7V | 08:11:33 | 02:21:24 | 00:00:00 | |
| DL1XH-15 | 2026-08-31 05:53:08 | 53.25563 | 8.40589 | 53° | 60km/h | 8274m | -15.2m/s | -39.5°C | 34.7% | 345.9hPa | 2.6V | 08:11:34 | 02:21:23 | 00:00:00 | |
| DO2JMG | 2026-08-31 05:53:07 | 53.25597 | 8.40665 | 53° | 55km/h | 8216m | -14.8m/s | -39°C | 42.4% | 348.9hPa | 2.6V | 08:11:51 | 02:21:27 | 00:00:00 | |
| AA1-15 | 2026-08-31 05:53:06 | 53.25589 | 8.40647 | 53° | 57km/h | 8230m | -14.7m/s | -39.1°C | 41.5% | 348.1hPa | 2.6V | 08:11:51 | 02:21:26 | 00:00:00 | |
| DF8AY | 2026-08-31 05:53:03 | 53.25563 | 8.40589 | 54° | 60km/h | 8274m | -15.2m/s | -39.5°C | 37.8% | 345.9hPa | 2.6V | 08:11:51 | 02:21:23 | 00:00:00 | |
| DL1XH-west | 2026-08-31 05:53:02 | 53.25554 | 8.40569 | 53° | 60km/h | 8289m | -15m/s | -39.4°C | 36.3% | 345.1hPa | 2.6V | 08:11:51 | 02:21:22 | 00:00:00 | |
| BIOWL1-15 | 2026-08-31 05:53:00 | 53.25535 | 8.40528 | 52° | 62km/h | 8319m | -15.1m/s | -39.4°C | 37% | 343.7hPa | 2.6V | 08:11:51 | 02:21:20 | 00:00:00 | |
| DF5WG-10 | 2026-08-31 05:53:00 | 53.25534 | 8.40528 | 53° | 60km/h | 8319m | -15.0m/s | -39.4°C | 33.1% | 343.6hPa | 2.6V | 00:00:00 | 02:21:20 | 00:00:00 | |
| DL1XH1-15 | 2026-08-31 05:52:59 | 53.25477 | 8.40408 | 50° | 58km/h | 8411m | -14.9m/s | -40.3°C | 40.2% | 339.1hPa | 2.6V | 08:11:43 | 02:21:14 | 00:00:00 | |
| DL4BBY-15 | 2026-08-31 05:52:59 | 53.25525 | 8.40508 | 52° | 62km/h | 8334m | -15.1m/s | -38.7°C | 0% | 0hPa | 2.6V | 00:00:00 | 00:00:00 | 00:00:00 | |
| DL1XH-15 | 2026-08-31 05:52:58 | 53.25468 | 8.40389 | 49° | 58km/h | 8426m | -15.2m/s | -40.4°C | 41.9% | 338.5hPa | 2.6V | 08:11:44 | 02:21:13 | 00:00:00 | |
| DO2JMG | 2026-08-31 05:52:57 | 53.25506 | 8.40467 | 51° | 60km/h | 8365m | -15.4m/s | -39.9°C | 40.5% | 341.4hPa | 2.6V | 08:11:51 | 02:21:17 | 00:00:00 | |
| AA1-15 | 2026-08-31 05:52:55 | 53.25487 | 8.40428 | 51° | 58km/h | 8395m | -15.2m/s | -40.2°C | 42.7% | 339.9hPa | 2.6V | 08:11:51 | 02:21:15 | 00:00:00 | |
| DF8AY | 2026-08-31 05:52:52 | 53.25458 | 8.40371 | 48° | 57km/h | 8441m | -14.8m/s | -40.6°C | 46.7% | 337.7hPa | 2.6V | 08:11:51 | 02:21:12 | 00:00:00 | |
| DL1XH-west | 2026-08-31 05:52:51 | 53.25448 | 8.40352 | 48° | 60km/h | 8455m | -14.9m/s | -40.7°C | 48.1% | 336.9hPa | 2.6V | 08:11:51 | 02:21:11 | 00:00:00 | |
| BIOWL1-15 | 2026-08-31 05:52:50 | 53.25438 | 8.40334 | 48° | 60km/h | 8470m | -15.3m/s | -40.9°C | 49.6% | 336.2hPa | 2.6V | 08:11:51 | 02:21:10 | 00:00:00 | |
| DF8AY-15 | 2026-08-31 05:52:50 | 53.25438 | 8.40334 | 48° | 64km/h | 8470m | -15.3m/s | -40.8°C | 45.9% | 336.1hPa | 2.6V | 00:00:00 | 02:21:10 | 00:00:00 | |
| WEDDY | 2026-08-31 05:52:49 | 53.25438 | 8.40334 | 49° | 60km/h | 8470m | -15.3m/s | -40.9°C | 41.2% | 336.2hPa | 2.6V | 00:00:00 | 00:00:00 | 00:00:00 | |
| DL1XH-15 | 2026-08-31 05:52:48 | 53.25365 | 8.40196 | 50° | 64km/h | 8579m | -16.3m/s | -41.9°C | 55.5% | 330.8hPa | 2.6V | 08:11:54 | 02:21:03 | 00:00:00 | |
| DM0DOS-11 | 2026-08-31 05:52:48 | 53.25386 | 8.40237 | 49° | 64km/h | 8547m | -16.4m/s | -41.6°C | 53.4% | 332.4hPa | 2.6V | 08:11:52 | 02:21:05 | 00:00:00 | |
| DO2JMG | 2026-08-31 05:52:46 | 53.25397 | 8.40257 | 49° | 64km/h | 8531m | -15.9m/s | -41.5°C | 55.7% | 333.2hPa | 2.6V | 08:11:51 | 02:21:06 | 00:00:00 | |
| AA1-15 | 2026-08-31 05:52:44 | 53.25375 | 8.40216 | 50° | 66km/h | 8563m | -16.3m/s | -41.8°C | 58.6% | 331.6hPa | 2.6V | 08:12:42 | 02:21:04 | 00:00:00 | |
| DF8AY | 2026-08-31 05:52:42 | 53.25355 | 8.40174 | 51° | 62km/h | 8595m | -15.9m/s | -42.1°C | 58.9% | 330.1hPa | 2.6V | 08:12:42 | 02:21:02 | 00:00:00 | |
| BIOWL1-15 | 2026-08-31 05:52:42 | 53.25335 | 8.40133 | 52° | 62km/h | 8627m | -15.4m/s | -42.3°C | 58.6% | 328.5hPa | 2.6V | 08:12:42 | 02:21:00 | 00:00:00 | |
| DL1XH-west | 2026-08-31 05:52:41 | 53.25345 | 8.40154 | 52° | 62km/h | 8611m | -15.9m/s | -42.2°C | 58.8% | 329.3hPa | 2.6V | 08:12:42 | 02:21:01 | 00:00:00 | |
| DF5WG-10 | 2026-08-31 05:52:40 | 53.25335 | 8.40133 | 52° | 64km/h | 8627m | -15.4m/s | -42.3°C | 55.3% | 328.5hPa | 2.6V | 00:00:00 | 02:21:00 | 00:00:00 | |
| DL1XH1-15 | 2026-08-31 05:52:39 | 53.25278 | 8.40001 | 57° | 66km/h | 8722m | -16.4m/s | -43°C | 54% | 323.9hPa | 2.6V | 08:12:03 | 02:20:54 | 00:00:00 | |
| DO2JMG | 2026-08-31 05:52:36 | 53.25296 | 8.40047 | 55° | 66km/h | 8690m | -16.1m/s | -42.8°C | 57.7% | 325.4hPa | 2.6V | 08:12:42 | 02:20:56 | 00:00:00 | |
| AA1-15 | 2026-08-31 05:52:33 | 53.25269 | 8.39978 | 57° | 64km/h | 8739m | -15.7m/s | -43.1°C | 57.5% | 323.1hPa | 2.6V | 08:12:42 | 02:20:53 | 00:00:00 | |
| DF8AY | 2026-08-31 05:52:32 | 53.25260 | 8.39955 | 57° | 64km/h | 8755m | -15.9m/s | -43.2°C | 57.7% | 322.4hPa | 2.6V | 08:12:42 | 02:20:52 | 00:00:00 | |
| BIOWL1-15 | 2026-08-31 05:52:31 | 53.25233 | 8.39886 | 58° | 68km/h | 8803m | -16.6m/s | -43.7°C | 58.1% | 320hPa | 2.6V | 08:12:42 | 02:20:49 | 00:00:00 | |
| DL4XJ-10 | 2026-08-31 05:52:31 | 53.25251 | 8.39933 | 57° | 64km/h | 8771m | -16.1m/s | -42.5°C | 0% | 0hPa | 2.6V | 00:00:00 | 00:00:00 | 00:00:00 | |
| DL1XH-west | 2026-08-31 05:52:31 | 53.25251 | 8.39933 | 56° | 66km/h | 8771m | -16.2m/s | -43.4°C | 57.9% | 321.5hPa | 2.6V | 08:12:42 | 02:20:51 | 00:00:00 | |
| DF8AY-15 | 2026-08-31 05:52:30 | 53.25242 | 8.39910 | 57° | 62km/h | 8787m | -16.4m/s | -43.5°C | 54.9% | 320.8hPa | 2.6V | 00:00:00 | 02:20:50 | 00:00:00 | |
| DL1XH1-15 | 2026-08-31 05:52:29 | 53.25191 | 8.39768 | 60° | 60km/h | 8884m | -15.7m/s | -44.4°C | 55.2% | 316.2hPa | 2.6V | 08:12:13 | 02:20:44 | 00:00:00 | |
| DL4BBY-15 | 2026-08-31 05:52:29 | 53.25233 | 8.39886 | 59° | 64km/h | 8803m | -16.5m/s | -42.8°C | 0% | 0hPa | 2.6V | 00:00:00 | 00:00:00 | 00:00:00 | |
| DL1XH-15 | 2026-08-31 05:52:28 | 53.25183 | 8.39746 | 60° | 60km/h | 8900m | -16.3m/s | -44.5°C | 54.9% | 315.4hPa | 2.6V | 08:12:14 | 02:20:43 | 00:00:00 | |
| DO2JMG | 2026-08-31 05:52:25 | 53.25198 | 8.39792 | 61° | 62km/h | 8868m | -15.8m/s | -44.3°C | 58% | 316.9hPa | 2.6V | 08:12:42 | 02:20:45 | 00:00:00 | |
| AA1-15 | 2026-08-31 05:52:22 | 53.25175 | 8.39724 | 60° | 62km/h | 8916m | -16.3m/s | -44.6°C | 57.2% | 314.7hPa | 2.6V | 08:12:42 | 02:20:42 | 00:00:00 | |
| DF8AY | 2026-08-31 05:52:21 | 53.25167 | 8.39702 | 60° | 64km/h | 8931m | -16.3m/s | -44.7°C | 56.9% | 313.9hPa | 2.6V | 08:12:42 | 02:20:41 | 00:00:00 | |
| DL1XH-west | 2026-08-31 05:52:20 | 53.25159 | 8.39679 | 60° | 64km/h | 8947m | -16.1m/s | -44.8°C | 56.5% | 313.1hPa | 2.6V | 08:12:42 | 02:20:40 | 00:00:00 | |
| GOEST3-10 | 2026-08-31 05:52:20 | 53.25159 | 8.39679 | 61° | 62km/h | 8947m | -16.0m/s | -44.8°C | 54.5% | 313.0hPa | 2.6V | 00:00:00 | 00:00:00 | 00:00:00 | |
| DL1XH-15 | 2026-08-31 05:52:18 | 53.25103 | 8.39526 | 55° | 58km/h | 9060m | -16.2m/s | -45.7°C | 49.9% | 307.9hPa | 2.6V | 08:12:24 | 02:20:33 | 00:00:00 | |
| BIOWL1-15 | 2026-08-31 05:52:18 | 53.25143 | 8.39634 | 60° | 62km/h | 8979m | -16.1m/s | -45.1°C | 55.6% | 311.6hPa | 2.6V | 08:12:42 | 02:20:38 | 00:00:00 | |
| DO2JMG | 2026-08-31 05:52:14 | 53.25111 | 8.39546 | 57° | 58km/h | 9044m | -16m/s | -45.5°C | 52.8% | 308.7hPa | 2.6V | 08:12:42 | 02:20:34 | 00:00:00 | |
| AA1-15 | 2026-08-31 05:52:11 | 53.25086 | 8.39484 | 56° | 62km/h | 9092m | -16.3m/s | -45.9°C | 49.6% | 306.4hPa | 2.6V | 08:12:42 | 02:20:31 | 00:00:00 | |
| DL1XH-west | 2026-08-31 05:52:10 | 53.25076 | 8.39463 | 55° | 64km/h | 9108m | -15.9m/s | -46°C | 48.1% | 305.7hPa | 2.6V | 08:12:42 | 02:20:30 | 00:00:00 | |
| DB0DAN | 2026-08-31 05:52:10 | 53.25076 | 8.39463 | 55° | 60km/h | 9108m | -15.9m/s | -46°C | 41.3% | 305.71hPa | 2.6V | 00:00:00 | 00:00:00 | 00:00:00 | |
| DF8AY-15 | 2026-08-31 05:52:10 | 53.25076 | 8.39462 | 56° | 69km/h | 9108m | -15.8m/s | -45.9°C | 47.0% | 305.7hPa | 2.6V | 00:00:00 | 02:20:30 | 00:00:00 | |
| DL1XH-15 | 2026-08-31 05:52:08 | 53.25008 | 8.39315 | 50° | 68km/h | 9218m | -16.2m/s | -46.5°C | 37.8% | 300.6hPa | 2.6V | 08:12:34 | 02:20:23 | 00:00:00 | |
| BIOWL1-15 | 2026-08-31 05:52:07 | 53.25049 | 8.39399 | 53° | 62km/h | 9156m | -15.7m/s | -46°C | 43.6% | 303.5hPa | 2.6V | 08:12:42 | 02:20:27 | 00:00:00 | |
| DO2JMG | 2026-08-31 05:52:03 | 53.25008 | 8.39315 | 51° | 68km/h | 9218m | -16.2m/s | -46.5°C | 39.3% | 300.6hPa | 2.6V | 08:12:42 | 02:20:23 | 00:00:00 | |
| SMARD9-15 | 2026-08-31 05:52:03 | 53.24997 | 8.39293 | 52° | 69km/h | 9234m | -16.4m/s | -46.6°C | 31.8% | 300.0hPa | 2.6V | 00:00:00 | 00:00:00 | 00:00:00 | |
| DD8BA-10 | 2026-08-31 05:52:02 | 53.24997 | 8.39293 | 53° | 69km/h | 9234m | -16.4m/s | -46.5°C | 36.8% | 299.9hPa | 2.6V | 00:00:00 | 00:00:00 | 00:00:00 | |
| DM0DOS-11 | 2026-08-31 05:52:00 | 53.24921 | 8.39127 | 52° | 69km/h | 9349m | -16.3m/s | -47.1°C | 26.9% | 294.9hPa | 2.6V | 08:12:42 | 02:20:15 | 00:00:00 | |
| DF8AY | 2026-08-31 05:52:00 | 53.24975 | 8.39246 | 54° | 71km/h | 9267m | -16.5m/s | -46.7°C | 35.8% | 298.5hPa | 2.6V | 08:12:42 | 02:20:20 | 00:00:00 | |
| DL1XH-west | 2026-08-31 05:51:59 | 53.24964 | 8.39222 | 53° | 71km/h | 9283m | -16.6m/s | -46.8°C | 34.4% | 297.8hPa | 2.6V | 08:12:42 | 02:20:19 | 00:00:00 | |
| DL4BBY-15 | 2026-08-31 05:51:59 | 53.24964 | 8.39222 | 53° | 77km/h | 9284m | -16.6m/s | -46.0°C | 0% | 0hPa | 2.6V | 00:00:00 | 00:00:00 | 00:00:00 | |
| DL1XH-15 | 2026-08-31 05:51:58 | 53.24900 | 8.39081 | 50° | 69km/h | 9381m | -16.1m/s | -47.2°C | 25% | 293.5hPa | 2.6V | 08:12:44 | 02:20:13 | 00:00:00 | |
| BIOWL1-15 | 2026-08-31 05:51:57 | 53.24943 | 8.39174 | 54° | 69km/h | 9316m | -16.3m/s | -47.1°C | 31.5% | 296.4hPa | 2.6V | 08:12:42 | 02:20:17 | 00:00:00 | |
| DO2JMG | 2026-08-31 05:51:53 | 53.24900 | 8.39081 | 50° | 69km/h | 9381m | -16.1m/s | -47.2°C | 26.1% | 293.5hPa | 2.6V | 08:13:33 | 02:20:13 | 00:00:00 | |
| DD8BA-10 | 2026-08-31 05:51:52 | 53.24888 | 8.39058 | 49° | 71km/h | 9397m | -16.1m/s | -46.9°C | 23.7% | 292.7hPa | 2.6V | 00:00:00 | 00:00:00 | 00:00:00 | |
| DL4XJ-10 | 2026-08-31 05:51:51 | 53.24877 | 8.39036 | 50° | 84km/h | 9412m | -15.6m/s | -46.1°C | 0% | 0hPa | 2.6V | 00:00:00 | 00:00:00 | 00:00:00 | |
| DM0DOS-11 | 2026-08-31 05:51:50 | 53.24803 | 8.38902 | 46° | 73km/h | 9507m | -15.5m/s | -47.2°C | 19.4% | 288hPa | 2.6V | 08:12:52 | 02:20:05 | 00:00:00 | |
| AA1-15 | 2026-08-31 05:51:50 | 53.24865 | 8.39013 | 50° | 71km/h | 9428m | -15.8m/s | -47°C | 23.9% | 291.4hPa | 2.6V | 08:13:33 | 02:20:10 | 00:00:00 | |
| DL1XH-west | 2026-08-31 05:51:49 | 53.24853 | 8.38990 | 49° | 71km/h | 9444m | -16m/s | -47°C | 23.2% | 290.7hPa | 2.6V | 08:13:33 | 02:20:09 | 00:00:00 | |
| BIOWL1-15 | 2026-08-31 05:51:46 | 53.24816 | 8.38925 | 46° | 73km/h | 9491m | -15.5m/s | -47.2°C | 21.1% | 288.5hPa | 2.6V | 08:13:33 | 02:20:06 | 00:00:00 | |
| DO2JMG | 2026-08-31 05:51:42 | 53.24763 | 8.38837 | 41° | 75km/h | 9554m | -15.3m/s | -47.1°C | 17.8% | 285.9hPa | 2.6V | 08:13:33 | 02:20:02 | 00:00:00 | |
| DB0DAN | 2026-08-31 05:51:40 | 53.24733 | 8.38795 | 41° | 77km/h | 9585m | -15.6m/s | -47.2°C | 13.4% | 284.54hPa | 2.6V | 00:00:00 | 00:00:00 | 00:00:00 | |
| DF5WG-10 | 2026-08-31 05:51:40 | 53.24733 | 8.38795 | 41° | 84km/h | 9585m | -15.5m/s | -47.2°C | 16.6% | 284.5hPa | 2.6V | 00:00:00 | 02:20:00 | 00:00:00 | |
| DL1XH1-15 | 2026-08-31 05:51:39 | 53.24638 | 8.38660 | 40° | 86km/h | 9678m | -15.5m/s | -47.5°C | 16.1% | 280.5hPa | 2.6V | 08:13:03 | 02:19:54 | 00:00:00 | |
| DL1XH-west | 2026-08-31 05:51:39 | 53.24718 | 8.38772 | 41° | 80km/h | 9600m | -15.9m/s | -47.3°C | 17.4% | 283.8hPa | 2.6V | 08:13:33 | 02:19:59 | 00:00:00 | |
| BIOWL1-15 | 2026-08-31 05:51:38 | 53.24671 | 8.38706 | 39° | 82km/h | 9647m | -15.6m/s | -47.4°C | 17% | 281.8hPa | 2.5V | 08:13:33 | 02:19:56 | 00:00:00 | |
| DK9SH | 2026-08-31 05:51:37 | 53.24702 | 8.38750 | 42° | 80km/h | 9616m | -15.6m/s | -47.3°C | 13.3% | 283.2hPa | 2.6V | 08:13:00 | 00:00:00 | 00:00:00 | |
| DM0DOS-11 | 2026-08-31 05:51:35 | 53.24654 | 8.38684 | 40° | 86km/h | 9662m | -15.3m/s | -47.5°C | 16.3% | 281.1hPa | 2.6V | 08:13:02 | 02:19:55 | 00:00:00 | |
| DO2JMG | 2026-08-31 05:51:32 | 53.24605 | 8.38615 | 40° | 86km/h | 9707m | -14.6m/s | -47.5°C | 15.9% | 279.1hPa | 2.6V | 08:13:33 | 02:19:52 | 00:00:00 | |
| DD8BA-10 | 2026-08-31 05:51:32 | 53.24605 | 8.38615 | 40° | 86km/h | 9708m | -14.6m/s | -47.4°C | 15.4% | 279.1hPa | 2.6V | 00:00:00 | 00:00:00 | 00:00:00 | |
| SMARD9-15 | 2026-08-31 05:51:31 | 53.24589 | 8.38592 | 40° | 86km/h | 9722m | -15.5m/s | -47.5°C | 11.9% | 278.6hPa | 2.6V | 00:00:00 | 00:00:00 | 00:00:00 | |
| DB0NH | 2026-08-31 05:51:30 | 53.24572 | 8.38568 | 41° | 88km/h | 9738m | -14.9m/s | -47.5°C | 14.8% | 277.9hPa | 2.6V | 00:00:00 | 02:19:50 | 00:00:00 | |
| DL1XH1-15 | 2026-08-31 05:51:29 | 53.24474 | 8.38422 | 43° | 84km/h | 9828m | -15.2m/s | -47.8°C | 14% | 274.1hPa | 2.6V | 08:13:13 | 02:19:44 | 00:00:00 | |
| DL1XH-west | 2026-08-31 05:51:29 | 53.24556 | 8.38545 | 40° | 86km/h | 9753m | -15m/s | -47.7°C | 14.9% | 277.3hPa | 2.6V | 08:13:33 | 02:19:49 | 00:00:00 | |
| AA1-15 | 2026-08-31 05:51:28 | 53.24539 | 8.38521 | 41° | 88km/h | 9768m | -15.3m/s | -47.8°C | 14.7% | 276.7hPa | 2.6V | 08:13:33 | 02:19:48 | 00:00:00 | |
| BIOWL1-15 | 2026-08-31 05:51:25 | 53.24490 | 8.38447 | 43° | 84km/h | 9813m | -14.6m/s | -47.8°C | 14.4% | 274.7hPa | 2.6V | 08:13:33 | 02:19:45 | 00:00:00 | |
| DB0DAN | 2026-08-31 05:51:25 | 53.24490 | 8.38447 | 43° | 80km/h | 9813m | -14.6m/s | -47.8°C | 11.1% | 274.73hPa | 2.6V | 00:00:00 | 00:00:00 | 00:00:00 | |
| DO2JMG | 2026-08-31 05:51:21 | 53.24427 | 8.38349 | 43° | 88km/h | 9873m | -15.2m/s | -47.9°C | 13.7% | 272.2hPa | 2.6V | 08:13:33 | 02:19:41 | 00:00:00 | |
| DM0DOS-11 | 2026-08-31 05:51:20 | 53.24328 | 8.38192 | 43° | 91km/h | 9968m | -16.6m/s | -47.5°C | 11.8% | 268.4hPa | 2.6V | 08:13:22 | 02:19:35 | 00:00:00 | |
| DL1XH-west | 2026-08-31 05:51:18 | 53.24378 | 8.38271 | 45° | 89km/h | 9919m | -16.1m/s | -47.8°C | 12.9% | 270.3hPa | 2.6V | 08:13:33 | 02:19:38 | 00:00:00 | |
| AA1-15 | 2026-08-31 05:51:17 | 53.24361 | 8.38245 | 45° | 89km/h | 9935m | -16.3m/s | -47.6°C | 12.5% | 269.8hPa | 2.6V | 08:13:33 | 02:19:37 | 00:00:00 | |
| BIOWL1-15 | 2026-08-31 05:51:15 | 53.24328 | 8.38192 | 44° | 91km/h | 9968m | -16.6m/s | -47.5°C | 12% | 268.4hPa | 2.6V | 08:13:33 | 02:19:35 | 00:00:00 | |
| GOEST3-10 | 2026-08-31 05:51:13 | 53.24294 | 8.38138 | 44° | 95km/h | 10001m | -17.1m/s | -47.4°C | 11.4% | 267.1hPa | 2.6V | 00:00:00 | 02:19:33 | 00:00:00 | |
| BIOWL7-15 | 2026-08-31 05:51:12 | 53.24294 | 8.38138 | 44° | 93km/h | 10001m | -17.1m/s | -47.5°C | 8.6% | 267.1hPa | 2.6V | 00:00:00 | 00:00:00 | 00:00:00 | |
| DB0DAN | 2026-08-31 05:51:10 | 53.24242 | 8.38056 | 42° | 89km/h | 10054m | -16.9m/s | -47.5°C | 8.4% | 265.08hPa | 2.6V | 00:00:00 | 00:00:00 | 00:00:00 | |
| DO2JMG | 2026-08-31 05:51:10 | 53.24242 | 8.38056 | 43° | 95km/h | 10054m | -16.9m/s | -47.5°C | 11.4% | 265.1hPa | 2.6V | 08:13:33 | 02:19:30 | 00:00:00 | |
| DF5WG-10 | 2026-08-31 05:51:10 | 53.24242 | 8.38056 | 43° | 97km/h | 10054m | -16.8m/s | -47.4°C | 11.2% | 265.0hPa | 2.6V | 00:00:00 | 02:19:30 | 00:00:00 | |
| DL1XH1-15 | 2026-08-31 05:51:09 | 53.24139 | 8.37884 | 44° | 95km/h | 10150m | -15m/s | -48°C | 11.4% | 261.2hPa | 2.6V | 08:13:33 | 02:19:24 | 00:00:00 | |
| DM0DOS-11 | 2026-08-31 05:51:08 | 53.24155 | 8.37913 | 45° | 97km/h | 10135m | -15.3m/s | -47.9°C | 11.4% | 261.7hPa | 2.6V | 08:13:32 | 02:19:25 | 00:00:00 | |
| DL1XH-west | 2026-08-31 05:51:08 | 53.24207 | 8.38000 | 45° | 97km/h | 10087m | -16.5m/s | -47.7°C | 11.4% | 263.7hPa | 2.6V | 08:13:33 | 02:19:28 | 00:00:00 | |
| DF8AY | 2026-08-31 05:51:07 | 53.24190 | 8.37971 | 46° | 95km/h | 10103m | -16.1m/s | -47.8°C | 11.4% | 263hPa | 2.6V | 08:13:33 | 02:19:27 | 00:00:00 | |
| AA1-15 | 2026-08-31 05:51:06 | 53.24173 | 8.37942 | 45° | 97km/h | 10119m | -15.9m/s | -47.9°C | 11.4% | 262.5hPa | 2.6V | 08:13:33 | 02:19:26 | 00:00:00 | |
| BIOWL1-15 | 2026-08-31 05:51:04 | 53.24138 | 8.37884 | 45° | 95km/h | 10150m | -15m/s | -48°C | 11.2% | 261.2hPa | 2.6V | 08:13:33 | 02:19:24 | 00:00:00 | |
| DB0UT-7 | 2026-08-31 05:51:04 | 53.24138 | 8.37884 | 45° | 95km/h | 10150m | -14.9m/s | -48.0°C | 11.4% | 261.1hPa | 2.6V | 00:00:00 | 00:00:00 | 00:00:00 | |
| GOEST3-10 | 2026-08-31 05:51:03 | 53.24121 | 8.37855 | 46° | 97km/h | 10165m | -14.9m/s | -48.1°C | 11.3% | 260.5hPa | 2.6V | 00:00:00 | 02:19:23 | 00:00:00 | |
| DC4HF-4 | 2026-08-31 05:51:00 | 53.24053 | 8.37739 | 45° | 97km/h | 10224m | -15.5m/s | -48.2°C | 7.5% | 258.3hPa | 2.6V | 00:00:00 | 00:00:00 | 00:00:00 | |
| DL1XH1-15 | 2026-08-31 05:50:59 | 53.23965 | 8.37595 | 43° | 95km/h | 10300m | -15.5m/s | -48.5°C | 9.2% | 255.2hPa | 2.6V | 08:13:43 | 02:19:14 | 00:00:00 | |
| DO2JMG | 2026-08-31 05:50:59 | 53.24053 | 8.37739 | 45° | 99km/h | 10224m | -15.5m/s | -48.2°C | 9.8% | 258.3hPa | 2.6V | 08:14:24 | 02:19:19 | 00:00:00 | |
| DL4BBY-15 | 2026-08-31 05:50:59 | 53.24053 | 8.37738 | 46° | 93km/h | 10224m | -15.4m/s | -47.4°C | 0% | 0hPa | 2.6V | 00:00:00 | 00:00:00 | 00:00:00 | |
| DM0DOS-11 | 2026-08-31 05:50:58 | 53.23982 | 8.37623 | 44° | 95km/h | 10285m | -14.6m/s | -48.4°C | 9.4% | 255.8hPa | 2.6V | 08:13:42 | 02:19:15 | 00:00:00 | |
| DL1XH-west | 2026-08-31 05:50:58 | 53.24035 | 8.37709 | 44° | 99km/h | 10240m | -15.5m/s | -48.3°C | 9.4% | 257.7hPa | 2.6V | 08:14:24 | 02:19:18 | 00:00:00 | |
| DF8AY | 2026-08-31 05:50:57 | 53.24017 | 8.37680 | 45° | 99km/h | 10255m | -15.5m/s | -48.3°C | 9.2% | 257hPa | 2.6V | 08:14:24 | 02:19:17 | 00:00:00 | |
| AA1-15 | 2026-08-31 05:50:55 | 53.23982 | 8.37623 | 44° | 95km/h | 10285m | -14.6m/s | -48.4°C | 8.6% | 255.8hPa | 2.6V | 08:14:24 | 02:19:15 | 00:00:00 | |
| DB0DAN | 2026-08-31 05:50:55 | 53.23982 | 8.37623 | 44° | 89km/h | 10285m | -14.6m/s | -48.4°C | 6.7% | 255.81hPa | 2.6V | 00:00:00 | 00:00:00 | 00:00:00 | |
| DB0ND-19 | 2026-08-31 05:50:55 | 53.23846 | 8.37398 | 46° | 93km/h | 10407m | -14.0m/s | -48.5°C | 5.2% | 251.0hPa | 2.6V | 00:00:00 | 00:00:00 | 00:00:00 | |
| DL1XH-15 | 2026-08-31 05:50:54 | 53.23948 | 8.37567 | 44° | 97km/h | 10316m | -15.6m/s | -48.4°C | 9% | 254.6hPa | 2.6V | 08:13:44 | 02:19:13 | 00:00:00 | |
| BIOWL1-15 | 2026-08-31 05:50:53 | 53.23948 | 8.37567 | 45° | 97km/h | 10316m | -15.6m/s | -48.4°C | 8.1% | 254.7hPa | 2.6V | 08:14:24 | 02:19:13 | 00:00:00 | |
| BUE01 | 2026-08-31 05:50:52 | 53.23914 | 8.37510 | 43° | 93km/h | 10346m | -15.5m/s | -48.6°C | 5.9% | 253.4hPa | 2.6V | 00:00:00 | 00:00:00 | 00:00:00 | |
| DL1XH1-15 | 2026-08-31 05:50:50 | 53.23796 | 8.37313 | 46° | 91km/h | 10449m | -12.8m/s | -48.5°C | 7.2% | 249.4hPa | 2.6V | 08:13:53 | 02:19:04 | 00:00:00 | |
| DM0DOS-11 | 2026-08-31 05:50:49 | 53.23813 | 8.37341 | 45° | 95km/h | 10436m | -13.7m/s | -48.5°C | 7.4% | 250hPa | 2.6V | 08:13:52 | 02:19:05 | 00:00:00 | |
| DL1XH-15 | 2026-08-31 05:50:49 | 53.23780 | 8.37285 | 45° | 93km/h | 10462m | -13.1m/s | -48.5°C | 7.1% | 248.9hPa | 2.6V | 08:13:54 | 02:19:03 | 00:00:00 | |
| DL1XH-west | 2026-08-31 05:50:48 | 53.23862 | 8.37426 | 45° | 95km/h | 10393m | -15m/s | -48.5°C | 6.4% | 251.6hPa | 2.6V | 08:14:24 | 02:19:08 | 00:00:00 | |
| DF8AY | 2026-08-31 05:50:47 | 53.23846 | 8.37398 | 47° | 95km/h | 10407m | -14m/s | -48.5°C | 6.2% | 251hPa | 2.6V | 08:14:24 | 02:19:07 | 00:00:00 | |
| AA1-15 | 2026-08-31 05:50:44 | 53.23796 | 8.37313 | 46° | 91km/h | 10449m | -12.8m/s | -48.5°C | 5.5% | 249.4hPa | 2.6V | 08:14:24 | 02:19:04 | 00:00:00 | |
| BIOWL1-15 | 2026-08-31 05:50:42 | 53.23764 | 8.37257 | 47° | 93km/h | 10475m | -14.3m/s | -48.5°C | 5.1% | 248.4hPa | 2.6V | 08:14:24 | 02:19:02 | 00:00:00 | |
| DB0DAN | 2026-08-31 05:50:40 | 53.23732 | 8.37200 | 46° | 88km/h | 10505m | -14.6m/s | -48.3°C | 4.3% | 247.32hPa | 2.6V | 00:00:00 | 00:00:00 | 00:00:00 | |
| DL3AQ-11 | 2026-08-31 05:50:40 | 53.23716 | 8.37172 | 46° | 89km/h | 10520m | -14.5m/s | -48.3°C | 4.2% | 246.7hPa | 2.6V | 00:00:00 | 00:00:00 | 00:00:00 | |
| DL1XH1-15 | 2026-08-31 05:50:39 | 53.23638 | 8.37034 | 46° | 89km/h | 10587m | -13.7m/s | -48.5°C | 6.2% | 244.3hPa | 2.6V | 08:14:03 | 02:18:54 | 00:00:00 | |
| DO2SHX-10 | 2026-08-31 05:50:39 | 53.23716 | 8.37172 | 47° | 91km/h | 10520m | -14.5m/s | -48.2°C | 6.6% | 246.6hPa | 2.6V | 08:13:00 | 02:18:59 | 00:00:00 | |
| DL1XH-15 | 2026-08-31 05:50:38 | 53.23622 | 8.37007 | 46° | 91km/h | 10600m | -13.6m/s | -48.3°C | 6% | 243.8hPa | 2.6V | 08:14:04 | 02:18:53 | 00:00:00 | |
| DM0DOS-11 | 2026-08-31 05:50:38 | 53.23653 | 8.37061 | 46° | 88km/h | 10574m | -13m/s | -48.5°C | 6.3% | 244.7hPa | 2.7V | 08:14:02 | 02:18:55 | 00:00:00 | |
| DO2JMG | 2026-08-31 05:50:37 | 53.23684 | 8.37116 | 47° | 91km/h | 10548m | -13.3m/s | -48.4°C | 4.5% | 245.7hPa | 2.6V | 08:14:24 | 02:18:57 | 00:00:00 | |
| DF8AY | 2026-08-31 05:50:36 | 53.23669 | 8.37088 | 47° | 89km/h | 10561m | -12.7m/s | -48.5°C | 4.4% | 245.2hPa | 2.6V | 08:14:24 | 02:18:56 | 00:00:00 | |
| AA1-15 | 2026-08-31 05:50:33 | 53.23622 | 8.37007 | 46° | 91km/h | 10600m | -13.6m/s | -48.3°C | 3.9% | 243.8hPa | 2.6V | 08:14:24 | 02:18:53 | 00:00:00 | |
| BIOWL1-15 | 2026-08-31 05:50:33 | 53.23590 | 8.36953 | 46° | 91km/h | 10629m | -14.9m/s | -48.1°C | 3.6% | 242.8hPa | 2.6V | 08:14:24 | 02:18:51 | 00:00:00 | |
| DO2SHX-10 | 2026-08-31 05:50:33 | 53.23622 | 8.37007 | 47° | 89km/h | 10601m | -13.6m/s | -48.2°C | 6.0% | 243.7hPa | 2.6V | 00:00:00 | 02:18:53 | 00:00:00 | |
| BIOWL9-15 | 2026-08-31 05:50:32 | 53.23590 | 8.36953 | 45° | 89km/h | 10629m | -14.9m/s | -48.1°C | 3.5% | 242.8hPa | 2.6V | 00:00:00 | 00:00:00 | 00:00:00 | |
| DF8AY-15 | 2026-08-31 05:50:31 | 53.23590 | 8.36953 | 46° | 88km/h | 10629m | -14.8m/s | -48.1°C | 5.7% | 242.7hPa | 2.6V | 00:00:00 | 02:18:51 | 00:00:00 | |
| DO2SHX-10 | 2026-08-31 05:50:30 | 53.23574 | 8.36926 | 46° | 88km/h | 10644m | -15.2m/s | -47.8°C | 5.5% | 242.2hPa | 2.6V | 00:00:00 | 02:18:50 | 00:00:00 | |
| DL1XH1-15 | 2026-08-31 05:50:29 | 53.23479 | 8.36769 | 44° | 89km/h | 10730m | -13.7m/s | -47.3°C | 5% | 239hPa | 2.6V | 08:14:13 | 02:18:44 | 00:00:00 | |
| DL4BBY-15 | 2026-08-31 05:50:29 | 53.23558 | 8.36899 | 45° | 89km/h | 10659m | -14.4m/s | -47.0°C | 0% | 0hPa | 2.6V | 00:00:00 | 00:00:00 | 00:00:00 | |
| DL1XH-15 | 2026-08-31 05:50:28 | 53.23463 | 8.36743 | 43° | 86km/h | 10745m | -14.7m/s | -47.3°C | 5% | 238.5hPa | 2.6V | 08:14:14 | 02:18:43 | 00:00:00 | |
| DO2JMG | 2026-08-31 05:50:26 | 53.23511 | 8.36820 | 44° | 88km/h | 10702m | -13.8m/s | -47.4°C | 3% | 240.1hPa | 2.6V | 08:14:24 | 02:18:46 | 00:00:00 | |
| BIOWL1-15 | 2026-08-31 05:50:23 | 53.23431 | 8.36693 | 45° | 88km/h | 10773m | -13.8m/s | -47.4°C | 2.7% | 237.4hPa | 2.6V | 08:14:24 | 02:18:41 | 00:00:00 | |
| AA1-15 | 2026-08-31 05:50:22 | 53.23447 | 8.36718 | 44° | 88km/h | 10759m | -14.9m/s | -47.3°C | 2.7% | 238.1hPa | 2.6V | 08:14:24 | 02:18:42 | 00:00:00 | |
| DD8BA-10 | 2026-08-31 05:50:22 | 53.23447 | 8.36718 | 45° | 86km/h | 10759m | -14.9m/s | -47.3°C | 4.9% | 238.0hPa | 2.6V | 00:00:00 | 00:00:00 | 00:00:00 | |
| BUE01 | 2026-08-31 05:50:21 | 53.23416 | 8.36668 | 43° | 84km/h | 10788m | -14.3m/s | -47.5°C | 2.8% | 237.0hPa | 2.6V | 00:00:00 | 00:00:00 | 00:00:00 | |
| DL1XH1-15 | 2026-08-31 05:50:19 | 53.23320 | 8.36519 | 44° | 88km/h | 10872m | -14.4m/s | -47.4°C | 4.6% | 233.9hPa | 2.6V | 08:14:23 | 02:18:34 | 00:00:00 | |
| DL1XH-15 | 2026-08-31 05:50:18 | 53.23304 | 8.36493 | 44° | 86km/h | 10887m | -15.3m/s | -47.4°C | 4.6% | 233.4hPa | 2.6V | 08:14:24 | 02:18:33 | 00:00:00 | |
| DO2JMG | 2026-08-31 05:50:16 | 53.23352 | 8.36568 | 43° | 88km/h | 10844m | -13.9m/s | -47.5°C | 2.4% | 234.9hPa | 2.6V | 08:14:24 | 02:18:36 | 00:00:00 | |
| AA1-15 | 2026-08-31 05:50:12 | 53.23289 | 8.36468 | 45° | 86km/h | 10903m | -17.1m/s | -47.3°C | 2.1% | 232.9hPa | 2.6V | 08:15:15 | 02:18:32 | 00:00:00 | |
| DB0DAN | 2026-08-31 05:50:10 | 53.23258 | 8.36416 | 45° | 84km/h | 10937m | -17.6m/s | -47.4°C | 2.4% | 231.74hPa | 2.6V | 00:00:00 | 00:00:00 | 00:00:00 | |
| BIOWL1-15 | 2026-08-31 05:50:10 | 53.23258 | 8.36416 | 45° | 89km/h | 10937m | -17.6m/s | -47.4°C | 2.1% | 231.7hPa | 2.6V | 08:15:15 | 02:18:30 | 00:00:00 | |
| DO2SHX-10 | 2026-08-31 05:50:09 | 53.23242 | 8.36389 | 46° | 89km/h | 10954m | -16.0m/s | -47.4°C | 4.4% | 231.1hPa | 2.6V | 00:00:00 | 02:18:29 | 00:00:00 | |
| DL1XH-15 | 2026-08-31 05:50:08 | 53.23151 | 8.36219 | 49° | 93km/h | 11041m | -15.2m/s | -47.1°C | 4% | 228hPa | 2.6V | 08:14:34 | 02:18:23 | 00:00:00 | |
| DM0DOS-11 | 2026-08-31 05:50:08 | 53.23180 | 8.36277 | 48° | 89km/h | 11012m | -14.7m/s | -47.2°C | 4.1% | 229hPa | 2.6V | 08:14:32 | 02:18:25 | 00:00:00 | |
| DO2JMG | 2026-08-31 05:50:05 | 53.23181 | 8.36277 | 49° | 89km/h | 11012m | -14.7m/s | -47.2°C | 1.6% | 229hPa | 2.6V | 08:15:15 | 02:18:25 | 00:00:00 | |
| BIOWL1-15 | 2026-08-31 05:50:04 | 53.23105 | 8.36129 | 50° | 93km/h | 11084m | -13.5m/s | -47°C | 1.3% | 226.5hPa | 2.6V | 08:15:15 | 02:18:20 | 00:00:00 | |
| AA1-15 | 2026-08-31 05:50:02 | 53.23135 | 8.36189 | 50° | 93km/h | 11056m | -14.6m/s | -46.9°C | 1.3% | 227.4hPa | 2.6V | 08:15:15 | 02:18:22 | 00:00:00 | |
| DD8BA-10 | 2026-08-31 05:50:02 | 53.23135 | 8.36189 | 50° | 91km/h | 11056m | -14.5m/s | -46.9°C | 3.9% | 227.4hPa | 2.6V | 00:00:00 | 00:00:00 | 00:00:00 | |
| DL4XJ-10 | 2026-08-31 05:50:01 | 53.23120 | 8.36159 | 51° | 88km/h | 11071m | -14.2m/s | -46.1°C | 0% | 0hPa | 2.6V | 00:00:00 | 00:00:00 | 00:00:00 | |
| DO2SHX-10 | 2026-08-31 05:50:00 | 53.23105 | 8.36129 | 50° | 93km/h | 11084m | -13.5m/s | -46.9°C | 3.9% | 226.4hPa | 2.6V | 00:00:00 | 02:18:20 | 00:00:00 | |
| DL1XH1-15 | 2026-08-31 05:49:59 | 53.23016 | 8.35955 | 47° | 88km/h | 11170m | -14.8m/s | -47.1°C | 3.8% | 223.6hPa | 2.6V | 08:14:43 | 02:18:14 | 00:00:00 | |
| SMARD9-15 | 2026-08-31 05:49:58 | 53.23075 | 8.36069 | 49° | 91km/h | 11112m | -13.8m/s | -47.1°C | 2.0% | 225.6hPa | 2.6V | 00:00:00 | 00:00:00 | 00:00:00 | |
| SONDE2-11 | 2026-08-31 05:49:56 | 53.23045 | 8.36011 | 49° | 89km/h | 11140m | -15.2m/s | -47.2°C | 1.9% | 224.6hPa | 2.6V | 00:00:00 | 00:00:00 | 00:00:00 | |
| DB0DAN | 2026-08-31 05:49:55 | 53.23030 | 8.35983 | 49° | 84km/h | 11155m | -14.6m/s | -47.2°C | 1.9% | 224.13hPa | 2.6V | 00:00:00 | 00:00:00 | 00:00:00 | |
| DO2JMG | 2026-08-31 05:49:55 | 53.23030 | 8.35983 | 49° | 88km/h | 11155m | -14.6m/s | -47.2°C | 1.2% | 224.1hPa | 2.6V | 08:15:15 | 02:18:15 | 00:00:00 | |
| DF8AY | 2026-08-31 05:49:54 | 53.23016 | 8.35955 | 47° | 88km/h | 11170m | -14.8m/s | -47.1°C | 1.1% | 223.6hPa | 2.6V | 08:15:15 | 02:18:14 | 00:00:00 | |
| AA1-15 | 2026-08-31 05:49:51 | 53.22970 | 8.35877 | 45° | 86km/h | 11214m | -14.8m/s | -46.9°C | 1% | 222.2hPa | 2.7V | 08:15:15 | 02:18:11 | 00:00:00 | |
| BIOWL1-15 | 2026-08-31 05:49:51 | 53.22939 | 8.35827 | 44° | 84km/h | 11245m | -14.9m/s | -46.9°C | 1% | 221.2hPa | 2.6V | 08:15:15 | 02:18:09 | 00:00:00 | |
| DO2SHX-10 | 2026-08-31 05:49:51 | 53.22970 | 8.35877 | 45° | 84km/h | 11215m | -14.7m/s | -46.9°C | 3.8% | 222.1hPa | 2.7V | 00:00:00 | 02:18:11 | 00:00:00 | |
| DM0DOS-11 | 2026-08-31 05:49:50 | 53.22876 | 8.35729 | 40° | 88km/h | 11302m | -14.7m/s | -47°C | 3.7% | 219.2hPa | 2.7V | 08:14:52 | 02:18:05 | 00:00:00 | |
| DF8AY-15 | 2026-08-31 05:49:50 | 53.22955 | 8.35851 | 45° | 88km/h | 11230m | -15.6m/s | -46.9°C | 3.7% | 221.7hPa | 2.6V | 08:14:00 | 02:18:10 | 00:00:00 | |
| DL1XH-15 | 2026-08-31 05:49:48 | 53.22842 | 8.35682 | 39° | 88km/h | 11331m | -14.8m/s | -47°C | 3.6% | 218.2hPa | 2.6V | 08:14:54 | 02:18:03 | 00:00:00 | |
| DL1XH-west | 2026-08-31 05:49:45 | 53.22876 | 8.35729 | 41° | 88km/h | 11302m | -14.7m/s | -47°C | 0.9% | 219.2hPa | 2.7V | 08:15:15 | 02:18:05 | 00:00:00 | |
| DO2JMG | 2026-08-31 05:49:44 | 53.22859 | 8.35705 | 39° | 88km/h | 11317m | -14.6m/s | -47°C | 0.8% | 218.7hPa | 2.6V | 08:15:15 | 02:18:04 | 00:00:00 | |
| AA1-15 | 2026-08-31 05:49:40 | 53.22791 | 8.35610 | 40° | 91km/h | 11378m | -16.9m/s | -46.9°C | 0.7% | 216.8hPa | 2.6V | 08:15:15 | 02:18:00 | 00:00:00 | |
| DB0DAN | 2026-08-31 05:49:40 | 53.22791 | 8.35610 | 40° | 86km/h | 11378m | -16.9m/s | -46.9°C | 1.6% | 216.77hPa | 2.6V | 00:00:00 | 00:00:00 | 00:00:00 | |
| BIOWL1-15 | 2026-08-31 05:49:40 | 53.22756 | 8.35560 | 40° | 91km/h | 11409m | -14.3m/s | -46.6°C | 0.6% | 215.7hPa | 2.6V | 08:15:15 | 02:17:58 | 00:00:00 | |
| DF5WG-10 | 2026-08-31 05:49:40 | 53.22790 | 8.35610 | 41° | 91km/h | 11378m | -16.9m/s | -46.8°C | 3.5% | 216.7hPa | 2.6V | 00:00:00 | 02:18:00 | 00:00:00 | |
| DL1XH1-15 | 2026-08-31 05:49:39 | 53.22686 | 8.35462 | 41° | 89km/h | 11466m | -14.3m/s | -46.8°C | 3.5% | 213.8hPa | 2.6V | 08:15:03 | 02:17:54 | 00:00:00 | |
| DO2SHX-10 | 2026-08-31 05:49:39 | 53.22773 | 8.35585 | 41° | 91km/h | 11394m | -14.9m/s | -46.7°C | 3.5% | 216.1hPa | 2.6V | 00:00:00 | 02:17:59 | 00:00:00 | |
| DM0DOS-11 | 2026-08-31 05:49:38 | 53.22703 | 8.35487 | 40° | 91km/h | 11452m | -14.2m/s | -46.8°C | 3.5% | 214.3hPa | 2.6V | 08:15:02 | 02:17:55 | 00:00:00 | |
| DL1XH-west | 2026-08-31 05:49:34 | 53.22686 | 8.35462 | 41° | 89km/h | 11466m | -14.3m/s | -46.8°C | 0.6% | 213.8hPa | 2.6V | 08:15:15 | 02:17:54 | 00:00:00 | |
| DO2JMG | 2026-08-31 05:49:33 | 53.22669 | 8.35437 | 42° | 91km/h | 11481m | -14.2m/s | -46.7°C | 0.6% | 213.3hPa | 2.6V | 08:15:15 | 02:17:53 | 00:00:00 | |
| SONCRA | 2026-08-31 05:49:33 | 53.22652 | 8.35411 | 42° | 89km/h | 11495m | -14.3m/s | -46.6°C | 1.5% | 212.9hPa | 2.6V | 00:00:00 | 00:00:00 | 00:00:00 | |
| DD8BA-10 | 2026-08-31 05:49:32 | 53.22652 | 8.35411 | 43° | 93km/h | 11495m | -14.3m/s | -46.5°C | 3.4% | 212.9hPa | 2.6V | 00:00:00 | 00:00:00 | 00:00:00 | |
| D01LWL | 2026-08-31 05:49:31 | 53.22635 | 8.35385 | 42° | 91km/h | 11509m | -15.1m/s | -46.6°C | 1.5% | 212.5hPa | 2.6V | 00:00:00 | 00:00:00 | 00:00:00 | |
| BIOWL9-15 | 2026-08-31 05:49:30 | 53.22600 | 8.35332 | 43° | 91km/h | 11537m | -13.7m/s | -46.4°C | 1.5% | 211.5hPa | 2.6V | 00:00:00 | 00:00:00 | 00:00:00 | |
| DL1XH1-15 | 2026-08-31 05:49:29 | 53.22515 | 8.35195 | 43° | 95km/h | 11609m | -15.3m/s | -46°C | 3.2% | 209.3hPa | 2.6V | 08:15:13 | 02:17:44 | 00:00:00 | |
| AA1-15 | 2026-08-31 05:49:29 | 53.22600 | 8.35332 | 43° | 93km/h | 11537m | -13.7m/s | -46.4°C | 0.5% | 211.5hPa | 2.6V | 08:15:15 | 02:17:49 | 00:00:00 | |
| DL4BBY-15 | 2026-08-31 05:49:29 | 53.22600 | 8.35332 | 44° | 91km/h | 11537m | -13.7m/s | -45.5°C | 0% | 0hPa | 2.7V | 00:00:00 | 00:00:00 | 00:00:00 | |
| DM0DOS-11 | 2026-08-31 05:49:28 | 53.22532 | 8.35223 | 44° | 93km/h | 11594m | -15m/s | -46°C | 3.2% | 209.6hPa | 2.7V | 08:15:12 | 02:17:45 | 00:00:00 | |
| BIOWL1-15 | 2026-08-31 05:49:27 | 53.22566 | 8.35279 | 43° | 95km/h | 11565m | -14.1m/s | -46.2°C | 0.4% | 210.6hPa | 2.6V | 08:15:15 | 02:17:47 | 00:00:00 | |
| DL1XH-west | 2026-08-31 05:49:23 | 53.22498 | 8.35167 | 46° | 95km/h | 11624m | -15.3m/s | -46°C | 0.3% | 208.8hPa | 2.6V | 08:15:15 | 02:17:43 | 00:00:00 | |
| DO2JMG | 2026-08-31 05:49:22 | 53.22481 | 8.35139 | 46° | 93km/h | 11640m | -15.8m/s | -46.1°C | 0.3% | 208.3hPa | 2.6V | 08:15:15 | 02:17:42 | 00:00:00 | |
| DL4XJ-10 | 2026-08-31 05:49:21 | 53.22465 | 8.35110 | 46° | 89km/h | 11656m | -14.7m/s | -45.2°C | 0% | 0hPa | 2.6V | 00:00:00 | 00:00:00 | 00:00:00 | |
| DF5WG-10 | 2026-08-31 05:49:20 | 53.22448 | 8.35082 | 46° | 89km/h | 11670m | -15.0m/s | -46.1°C | 3.2% | 207.3hPa | 2.6V | 00:00:00 | 02:17:40 | 00:00:00 | |
| DL1XH1-15 | 2026-08-31 05:49:19 | 53.22355 | 8.34914 | 48° | 88km/h | 11759m | -14.2m/s | -45.4°C | 3% | 204.6hPa | 2.6V | 08:15:23 | 02:17:34 | 00:00:00 | |
| AA1-15 | 2026-08-31 05:49:18 | 53.22415 | 8.35026 | 47° | 91km/h | 11699m | -14.8m/s | -45.7°C | 0.2% | 206.4hPa | 2.7V | 08:16:06 | 02:17:38 | 00:00:00 | |
| BIOWL1-15 | 2026-08-31 05:49:16 | 53.22384 | 8.34969 | 48° | 88km/h | 11730m | -15.2m/s | -45.6°C | 0.1% | 205.5hPa | 2.6V | 08:16:06 | 02:17:36 | 00:00:00 | |
| DL1XH-west | 2026-08-31 05:49:13 | 53.22340 | 8.34886 | 50° | 86km/h | 11774m | -15m/s | -45.3°C | 0.1% | 204.2hPa | 2.7V | 08:16:06 | 02:17:33 | 00:00:00 | |
| DF8AY | 2026-08-31 05:49:12 | 53.22327 | 8.34858 | 50° | 86km/h | 11788m | -15.4m/s | -45.3°C | 0.2% | 203.7hPa | 2.7V | 08:16:06 | 02:17:32 | 00:00:00 | |
| DO2JMG | 2026-08-31 05:49:11 | 53.22313 | 8.34831 | 49° | 88km/h | 11803m | -14.4m/s | -45.4°C | 0.2% | 203.2hPa | 2.6V | 08:16:06 | 02:17:31 | 00:00:00 | |
| DB0DAN | 2026-08-31 05:49:10 | 53.22298 | 8.34803 | 49° | 84km/h | 11817m | -13.9m/s | -45.4°C | 1.3% | 202.73hPa | 2.6V | 00:00:00 | 00:00:00 | 00:00:00 | |
| DO2SHX-10 | 2026-08-31 05:49:09 | 53.22284 | 8.34775 | 50° | 88km/h | 11831m | -13.9m/s | -45.3°C | 3.0% | 202.3hPa | 2.6V | 00:00:00 | 02:17:29 | 00:00:00 | |
| DL1XH1-15 | 2026-08-31 05:49:09 | 53.22209 | 8.34634 | 47° | 93km/h | 11905m | -14.3m/s | -45.5°C | 3% | 200.2hPa | 2.6V | 08:15:33 | 02:17:24 | 00:00:00 | |
| DL1XH-15 | 2026-08-31 05:49:08 | 53.22193 | 8.34605 | 47° | 91km/h | 11920m | -14.9m/s | -45.6°C | 3.1% | 199.7hPa | 2.6V | 08:15:34 | 02:17:23 | 00:00:00 | |
| AA1-15 | 2026-08-31 05:49:08 | 53.22270 | 8.34748 | 49° | 88km/h | 11846m | -15.5m/s | -45.3°C | 0.2% | 202hPa | 2.6V | 08:16:57 | 02:17:28 | 00:00:00 | |
| BIOWL1-15 | 2026-08-31 05:49:05 | 53.22225 | 8.34663 | 48° | 91km/h | 11891m | -14.1m/s | -45.4°C | 0.2% | 200.6hPa | 2.6V | 08:16:06 | 02:17:25 | 00:00:00 | |
| DL1XH-west | 2026-08-31 05:49:03 | 53.22193 | 8.34605 | 47° | 93km/h | 11920m | -14.9m/s | -45.6°C | 0.2% | 199.7hPa | 2.6V | 08:16:06 | 02:17:23 | 00:00:00 | |
| DF8AY | 2026-08-31 05:49:02 | 53.22177 | 8.34577 | 47° | 91km/h | 11934m | -14.9m/s | -45.7°C | 0.2% | 199.3hPa | 2.7V | 08:16:06 | 02:17:22 | 00:00:00 | |
| DO2JMG | 2026-08-31 05:49:00 | 53.22146 | 8.34519 | 48° | 91km/h | 11964m | -14.1m/s | -45.8°C | 0.3% | 198.3hPa | 2.6V | 08:16:06 | 02:17:20 | 00:00:00 | |
| BIOWL9-15 | 2026-08-31 05:48:59 | 53.22115 | 8.34461 | 47° | 91km/h | 11993m | -15.2m/s | -45.8°C | 1.3% | 197.5hPa | 2.7V | 00:00:00 | 00:00:00 | 00:00:00 | |
| DL1XH-15 | 2026-08-31 05:48:58 | 53.22038 | 8.34323 | 47° | 89km/h | 12065m | -15.9m/s | -45.8°C | 3.1% | 195.4hPa | 2.7V | 08:15:44 | 02:17:13 | 00:00:00 | |
| AA1-15 | 2026-08-31 05:48:58 | 53.22115 | 8.34461 | 48° | 93km/h | 11993m | -15.2m/s | -45.8°C | 0.3% | 197.5hPa | 2.7V | 08:16:06 | 02:17:18 | 00:00:00 | |
| BIOWL1-15 | 2026-08-31 05:48:54 | 53.22053 | 8.34351 | 47° | 88km/h | 12050m | -14.5m/s | -45.8°C | 0.3% | 195.8hPa | 2.6V | 08:16:06 | 02:17:14 | 00:00:00 | |
| DL1XH-west | 2026-08-31 05:48:52 | 53.22022 | 8.34296 | 47° | 86km/h | 12080m | -15.8m/s | -45.9°C | 0.3% | 194.9hPa | 2.7V | 08:16:06 | 02:17:12 | 00:00:00 | |
| DF8AY | 2026-08-31 05:48:51 | 53.22007 | 8.34269 | 48° | 89km/h | 12096m | -15.2m/s | -45.9°C | 0.3% | 194.5hPa | 2.6V | 08:16:06 | 02:17:11 | 00:00:00 | |
| DO2JMG | 2026-08-31 05:48:50 | 53.21992 | 8.34242 | 48° | 86km/h | 12111m | -16.3m/s | -46.1°C | 0.3% | 194.1hPa | 2.6V | 08:16:06 | 02:17:10 | 00:00:00 | |
| DB0NH | 2026-08-31 05:48:50 | 53.21992 | 8.34242 | 48° | 82km/h | 12112m | -16.3m/s | -46.0°C | 3.2% | 194.0hPa | 2.6V | 00:00:00 | 02:17:10 | 00:00:00 | |
| DF5WG-10 | 2026-08-31 05:48:49 | 53.21977 | 8.34215 | 48° | 89km/h | 12127m | -15.8m/s | -46.1°C | 3.2% | 193.6hPa | 2.6V | 00:00:00 | 02:17:09 | 00:00:00 | |
| DM0DOS-11 | 2026-08-31 05:48:48 | 53.21916 | 8.34105 | 47° | 88km/h | 12188m | -15.5m/s | -46.3°C | 3.2% | 191.8hPa | 2.6V | 08:15:52 | 02:17:05 | 00:00:00 | |
| AA1-15 | 2026-08-31 05:48:47 | 53.21947 | 8.34160 | 48° | 89km/h | 12158m | -15.4m/s | -46.4°C | 0.4% | 192.6hPa | 2.6V | 08:16:06 | 02:17:07 | 00:00:00 | |
| BIOWL1-15 | 2026-08-31 05:48:44 | 53.21886 | 8.34049 | 48° | 91km/h | 12219m | -15.2m/s | -46°C | 0.2% | 190.9hPa | 2.6V | 08:16:06 | 02:17:03 | 00:00:00 | |
| DL1XH-west | 2026-08-31 05:48:42 | 53.21871 | 8.34020 | 48° | 88km/h | 12234m | -14.7m/s | -46°C | 0.2% | 190.4hPa | 2.6V | 08:16:06 | 02:17:02 | 00:00:00 | |
| DF8AY | 2026-08-31 05:48:41 | 53.21856 | 8.33992 | 48° | 91km/h | 12249m | -15.3m/s | -46°C | 0.2% | 190hPa | 2.7V | 08:16:06 | 02:17:01 | 00:00:00 | |
| DB0DAN | 2026-08-31 05:48:40 | 53.21841 | 8.33964 | 48° | 84km/h | 12264m | -15.2m/s | -46.1°C | 1.3% | 189.59hPa | 2.7V | 00:00:00 | 00:00:00 | 00:00:00 | |
| DO2JMG | 2026-08-31 05:48:40 | 53.21841 | 8.33964 | 48° | 88km/h | 12264m | -15.2m/s | -46.1°C | 0.2% | 189.6hPa | 2.7V | 08:16:06 | 02:17:00 | 00:00:00 | |
| DL3AQ-11 | 2026-08-31 05:48:40 | 53.21826 | 8.33937 | 48° | 89km/h | 12279m | -14.9m/s | -46.1°C | 1.3% | 189.2hPa | 2.6V | 00:00:00 | 00:00:00 | 00:00:00 | |
| DL1XH1-15 | 2026-08-31 05:48:39 | 53.21753 | 8.33799 | 49° | 84km/h | 12356m | -16.4m/s | -46°C | 3% | 187hPa | 2.6V | 08:16:03 | 02:16:54 | 00:00:00 | |
| HSKMA3-T | 2026-08-31 05:48:39 | 53.21826 | 8.33937 | 48° | 89km/h | 12279m | -14.9m/s | -46.1°C | 0.2% | 189.2hPa | 2.6V | 08:16:06 | 02:16:59 | 00:00:00 | |
| AA1-15 | 2026-08-31 05:48:37 | 53.21796 | 8.33881 | 49° | 88km/h | 12309m | -15m/s | -46.1°C | 0.2% | 188.3hPa | 2.6V | 08:16:57 | 02:16:57 | 00:00:00 | |
| BIOWL1-15 | 2026-08-31 05:48:33 | 53.21739 | 8.33771 | 49° | 88km/h | 12372m | -16m/s | -46°C | 0.1% | 186.6hPa | 2.6V | 08:16:06 | 02:16:53 | 00:00:00 | |
| DL1XH-west | 2026-08-31 05:48:32 | 53.21724 | 8.33744 | 47° | 88km/h | 12388m | -15.8m/s | -45.9°C | 0.1% | 186.1hPa | 2.6V | 08:16:06 | 02:16:52 | 00:00:00 | |
| DF8AY | 2026-08-31 05:48:31 | 53.21709 | 8.33717 | 48° | 86km/h | 12404m | -15.6m/s | -45.9°C | 0.1% | 185.6hPa | 2.6V | 08:16:06 | 02:16:51 | 00:00:00 | |
| SONCRA | 2026-08-31 05:48:31 | 53.21695 | 8.33690 | 48° | 86km/h | 12419m | -15.2m/s | -45.9°C | 1.2% | 185.3hPa | 2.6V | 00:00:00 | 00:00:00 | 00:00:00 | |
| DO2SHX-10 | 2026-08-31 05:48:30 | 53.21695 | 8.33690 | 49° | 86km/h | 12419m | -15.2m/s | -45.8°C | 3.0% | 185.2hPa | 2.6V | 00:00:00 | 02:16:50 | 00:00:00 | |
| DL1XH1-15 | 2026-08-31 05:48:29 | 53.21614 | 8.33525 | 53° | 80km/h | 12509m | -14.2m/s | -45.9°C | 3% | 182.7hPa | 2.6V | 08:16:13 | 02:16:44 | 00:00:00 | |
| DO2JMG | 2026-08-31 05:48:29 | 53.21680 | 8.33663 | 49° | 86km/h | 12434m | -16.1m/s | -45.9°C | 0.1% | 184.8hPa | 2.7V | 08:16:57 | 02:16:49 | 00:00:00 | |
| HSKMA3-T | 2026-08-31 05:48:28 | 53.21666 | 8.33635 | 51° | 86km/h | 12450m | -16.5m/s | -45.9°C | 0.1% | 184.4hPa | 2.6V | 08:16:57 | 02:16:48 | 00:00:00 | |
| AA1-15 | 2026-08-31 05:48:27 | 53.21652 | 8.33608 | 50° | 86km/h | 12466m | -15.6m/s | -45.9°C | 0.1% | 183.9hPa | 2.6V | 08:16:57 | 02:16:47 | 00:00:00 | |
| BIOWL1-15 | 2026-08-31 05:48:23 | 53.21602 | 8.33498 | 54° | 80km/h | 12524m | -15.5m/s | -45.8°C | 0.1% | 182.3hPa | 2.6V | 08:16:57 | 02:16:43 | 00:00:00 | |
| DL1XH-west | 2026-08-31 05:48:21 | 53.21579 | 8.33444 | 55° | 78km/h | 12556m | -16m/s | -45.9°C | 0.1% | 181.5hPa | 2.7V | 08:16:57 | 02:16:41 | 00:00:00 | |
| DF8AY | 2026-08-31 05:48:20 | 53.21567 | 8.33416 | 56° | 78km/h | 12571m | -15m/s | -45.9°C | 0.1% | 181.1hPa | 2.7V | 08:16:57 | 02:16:40 | 00:00:00 | |
| DB0ND-19 | 2026-08-31 05:48:20 | 53.21556 | 8.33390 | 54° | 75km/h | 12586m | -14.5m/s | -45.8°C | 1.2% | 180.6hPa | 2.6V | 00:00:00 | 00:00:00 | 00:00:00 | |
| DL1XH-15 | 2026-08-31 05:48:18 | 53.21488 | 8.33230 | 55° | 78km/h | 12677m | -15.7m/s | -45.7°C | 3% | 178.2hPa | 2.6V | 08:16:24 | 02:16:33 | 00:00:00 | |
| DO2JMG | 2026-08-31 05:48:18 | 53.21545 | 8.33363 | 56° | 78km/h | 12600m | -15.2m/s | -45.8°C | 0.1% | 180.3hPa | 2.6V | 08:16:57 | 02:16:38 | 00:00:00 | |
| HSKMA3-T | 2026-08-31 05:48:17 | 53.21534 | 8.33336 | 55° | 78km/h | 12616m | -16.6m/s | -45.8°C | 0.2% | 179.9hPa | 2.6V | 08:16:57 | 02:16:37 | 00:00:00 | |
| AA1-15 | 2026-08-31 05:48:16 | 53.21523 | 8.33309 | 55° | 77km/h | 12632m | -15m/s | -45.7°C | 0.1% | 179.4hPa | 2.7V | 08:16:57 | 02:16:36 | 00:00:00 | |
| BIOWL1-15 | 2026-08-31 05:48:12 | 53.21477 | 8.33202 | 55° | 77km/h | 12693m | -15.7m/s | -45.7°C | 0.1% | 177.8hPa | 2.6V | 08:16:57 | 02:16:32 | 00:00:00 | |
| DB0DAN | 2026-08-31 05:48:10 | 53.21454 | 8.33148 | 56° | 77km/h | 12723m | -15m/s | -45.7°C | 1.2% | 176.95hPa | 2.6V | 00:00:00 | 00:00:00 | 00:00:00 | |
| DL1XH-west | 2026-08-31 05:48:10 | 53.21454 | 8.33148 | 56° | 80km/h | 12723m | -15m/s | -45.7°C | 0.1% | 176.9hPa | 2.6V | 08:16:57 | 02:16:30 | 00:00:00 | |
| DO2SHX-10 | 2026-08-31 05:48:09 | 53.21443 | 8.33120 | 56° | 78km/h | 12738m | -15.1m/s | -45.7°C | 3.0% | 176.5hPa | 2.6V | 00:00:00 | 02:16:29 | 00:00:00 | |
| DM0DOS-11 | 2026-08-31 05:48:08 | 53.21399 | 8.33010 | 57° | 77km/h | 12800m | -15m/s | -45.8°C | 3% | 174.9hPa | 2.6V | 08:16:32 | 02:16:25 | 00:00:00 | |
| DO2JMG | 2026-08-31 05:48:08 | 53.21432 | 8.33093 | 55° | 78km/h | 12753m | -15.3m/s | -45.8°C | 0.1% | 176.2hPa | 2.7V | 08:16:57 | 02:16:28 | 00:00:00 | |
| HSKMA3-T | 2026-08-31 05:48:06 | 53.21410 | 8.33038 | 57° | 77km/h | 12785m | -15.6m/s | -45.8°C | 0.1% | 175.3hPa | 2.6V | 08:16:57 | 02:16:26 | 00:00:00 | |
| BIOWL1-15 | 2026-08-31 05:48:02 | 53.21368 | 8.32930 | 57° | 75km/h | 12846m | -15.2m/s | -45.5°C | 0.1% | 173.8hPa | 2.7V | 08:16:57 | 02:16:22 | 00:00:00 | |
| DF8AY | 2026-08-31 05:48:00 | 53.21348 | 8.32879 | 55° | 71km/h | 12876m | -14.7m/s | -45.7°C | 0.1% | 172.9hPa | 2.7V | 08:16:57 | 02:16:20 | 00:00:00 | |
| DL1XH-west | 2026-08-31 05:47:59 | 53.21337 | 8.32855 | 53° | 73km/h | 12891m | -14.6m/s | -45.8°C | 0.1% | 172.5hPa | 2.6V | 08:16:57 | 02:16:19 | 00:00:00 | |
| DM0DOS-11 | 2026-08-31 05:47:58 | 53.21291 | 8.32759 | 51° | 73km/h | 12948m | -15.2m/s | -46°C | 3% | 171.1hPa | 2.7V | 08:16:42 | 02:16:15 | 00:00:00 | |
| DO2JMG | 2026-08-31 05:47:57 | 53.21315 | 8.32806 | 51° | 73km/h | 12919m | -14.6m/s | -45.9°C | 0.1% | 171.8hPa | 2.6V | 08:16:57 | 02:16:17 | 00:00:00 | |
| AA1-15 | 2026-08-31 05:47:56 | 53.21303 | 8.32782 | 51° | 73km/h | 12933m | -14.5m/s | -46°C | 0.1% | 171.4hPa | 2.7V | 08:16:57 | 02:16:16 | 00:00:00 | |
| BIOWL1-15 | 2026-08-31 05:47:54 | 53.21254 | 8.32685 | 49° | 77km/h | 12994m | -15.1m/s | -46.2°C | 0.2% | 169.9hPa | 2.6V | 08:16:57 | 02:16:12 | 00:00:00 | |
| DF8AY | 2026-08-31 05:47:49 | 53.21214 | 8.32610 | 48° | 82km/h | 13039m | -15.3m/s | -46.4°C | 0.2% | 168.7hPa | 2.6V | 08:16:57 | 02:16:09 | 00:00:00 | |
| DL1XH1-15 | 2026-08-31 05:47:49 | 53.21144 | 8.32478 | 50° | 84km/h | 13116m | -16m/s | -46.3°C | 3% | 166.7hPa | 2.6V | 08:16:53 | 02:16:04 | 00:00:00 | |
| DL1XH-west | 2026-08-31 05:47:48 | 53.21200 | 8.32584 | 47° | 84km/h | 13054m | -15.1m/s | -46.4°C | 0.1% | 168.3hPa | 2.6V | 08:16:57 | 02:16:08 | 00:00:00 | |
| DO2JMG | 2026-08-31 05:47:47 | 53.21185 | 8.32558 | 47° | 82km/h | 13070m | -15.5m/s | -46.5°C | 0.2% | 168hPa | 2.7V | 08:16:57 | 02:16:07 | 00:00:00 | |
| HSKMA3-T | 2026-08-31 05:47:46 | 53.21171 | 8.32532 | 49° | 82km/h | 13085m | -16.3m/s | -46.5°C | 0.2% | 167.6hPa | 2.7V | 08:16:57 | 02:16:06 | 00:00:00 | |
| AA1-15 | 2026-08-31 05:47:45 | 53.21157 | 8.32505 | 50° | 84km/h | 13101m | -15.6m/s | -46.3°C | 0.2% | 167.1hPa | 2.6V | 08:16:57 | 02:16:05 | 00:00:00 | |
| BIOWL1-15 | 2026-08-31 05:47:41 | 53.21103 | 8.32394 | 52° | 84km/h | 13165m | -15.6m/s | -46.6°C | 0.3% | 165.6hPa | 2.7V | 08:16:57 | 02:16:01 | 00:00:00 | |
| DB0DAN | 2026-08-31 05:47:40 | 53.21090 | 8.32366 | 53° | 80km/h | 13180m | -15.5m/s | -46.6°C | 1.2% | 165.14hPa | 2.6V | 00:00:00 | 00:00:00 | 00:00:00 | |
| DF8AY | 2026-08-31 05:47:39 | 53.21077 | 8.32337 | 52° | 86km/h | 13195m | -15m/s | -46.4°C | 0.2% | 164.8hPa | 2.6V | 08:17:48 | 02:15:59 | 00:00:00 | |
| DO2SHX-10 | 2026-08-31 05:47:39 | 53.21077 | 8.32337 | 53° | 88km/h | 13195m | -14.9m/s | -46.4°C | 3.1% | 164.7hPa | 2.6V | 00:00:00 | 02:15:59 | 00:00:00 | |
| DM0DOS-11 | 2026-08-31 05:47:38 | 53.21024 | 8.32218 | 54° | 88km/h | 13255m | -15.2m/s | -46.6°C | 3.1% | 163.3hPa | 2.7V | 08:17:02 | 02:15:55 | 00:00:00 | |
| DL1XH-west | 2026-08-31 05:47:38 | 53.21063 | 8.32308 | 53° | 88km/h | 13210m | -15.1m/s | -46.5°C | 0.2% | 164.5hPa | 2.6V | 08:17:48 | 02:15:58 | 00:00:00 | |
| DO2JMG | 2026-08-31 05:47:36 | 53.21037 | 8.32248 | 55° | 89km/h | 13240m | -14.9m/s | -46.6°C | 0.2% | 163.7hPa | 2.7V | 08:17:48 | 02:15:56 | 00:00:00 | |
| HSKMA3-T | 2026-08-31 05:47:35 | 53.21024 | 8.32218 | 55° | 88km/h | 13255m | -15.2m/s | -46.6°C | 0.2% | 163.3hPa | 2.7V | 08:17:48 | 02:15:55 | 00:00:00 | |
| BIOWL1-15 | 2026-08-31 05:47:32 | 53.20965 | 8.32060 | 61° | 89km/h | 13333m | -16m/s | -46.9°C | 0.3% | 161.4hPa | 2.7V | 08:17:48 | 02:15:50 | 00:00:00 | |
| DD8BA-10 | 2026-08-31 05:47:32 | 53.20987 | 8.32124 | 59° | 88km/h | 13303m | -15.4m/s | -46.6°C | 3.1% | 162.1hPa | 2.6V | 00:00:00 | 00:00:00 | 00:00:00 | |
| DB0NH | 2026-08-31 05:47:31 | 53.20976 | 8.32092 | 60° | 71km/h | 13318m | -14.8m/s | -46.7°C | 3.2% | 161.7hPa | 2.6V | 08:17:00 | 02:15:51 | 00:00:00 | |
| DF4FW | 2026-08-31 05:47:30 | 53.20964 | 8.32060 | 62° | 89km/h | 13333m | -16.0m/s | -46.9°C | 1.2% | 161.4hPa | 2.6V | 08:17:00 | 00:00:00 | 00:00:00 | |
| DL1XH1-15 | 2026-08-31 05:47:29 | 53.20902 | 8.31865 | 63° | 84km/h | 13427m | -16.1m/s | -47.2°C | 3.2% | 159.2hPa | 2.6V | 08:17:13 | 02:15:44 | 00:00:00 | |
| SONCRA | 2026-08-31 05:47:29 | 53.20943 | 8.31994 | 60° | 88km/h | 13365m | -15.7m/s | -47.0°C | 1.3% | 160.7hPa | 2.6V | 00:00:00 | 00:00:00 | 00:00:00 | |
| DM0DOS-11 | 2026-08-31 05:47:28 | 53.20911 | 8.31897 | 63° | 86km/h | 13412m | -15.3m/s | -47.2°C | 3.3% | 159.5hPa | 2.6V | 08:17:12 | 02:15:45 | 00:00:00 | |
| DF8AY | 2026-08-31 05:47:28 | 53.20943 | 8.31994 | 61° | 89km/h | 13365m | -15.7m/s | -47°C | 0.3% | 160.7hPa | 2.7V | 08:17:48 | 02:15:48 | 00:00:00 | |
| DL1XH-west | 2026-08-31 05:47:27 | 53.20932 | 8.31962 | 61° | 88km/h | 13381m | -15.4m/s | -47.1°C | 0.4% | 160.3hPa | 2.6V | 08:17:48 | 02:15:47 | 00:00:00 | |
| DO2SHX-10 | 2026-08-31 05:47:27 | 53.20932 | 8.31962 | 62° | 88km/h | 13381m | -15.4m/s | -47.1°C | 3.3% | 160.2hPa | 2.7V | 00:00:00 | 02:15:47 | 00:00:00 | |
| DL1XH-15 | 2026-08-31 05:47:26 | 53.20876 | 8.31775 | 65° | 75km/h | 13474m | -16.7m/s | -47.3°C | 3.3% | 158hPa | 2.7V | 08:17:16 | 02:15:41 | 00:00:00 | |
| DO2JMG | 2026-08-31 05:47:26 | 53.20921 | 8.31929 | 62° | 88km/h | 13396m | -16m/s | -47.1°C | 0.4% | 159.9hPa | 2.6V | 08:17:48 | 02:15:46 | 00:00:00 | |
| AA1-15 | 2026-08-31 05:47:25 | 53.20911 | 8.31897 | 64° | 86km/h | 13412m | -15.3m/s | -47.2°C | 0.4% | 159.5hPa | 2.6V | 08:17:48 | 02:15:45 | 00:00:00 | |
| HSKMA3-T | 2026-08-31 05:47:24 | 53.20902 | 8.31865 | 64° | 84km/h | 13427m | -16.1m/s | -47.3°C | 0.3% | 159.2hPa | 2.6V | 08:17:48 | 02:15:44 | 00:00:00 | |
| DO2SHX-10 | 2026-08-31 05:47:24 | 53.20902 | 8.31865 | 64° | 80km/h | 13428m | -16.0m/s | -47.2°C | 3.2% | 159.1hPa | 2.7V | 00:00:00 | 02:15:44 | 00:00:00 | |
| SMARD9-15 | 2026-08-31 05:47:23 | 53.20893 | 8.31834 | 64° | 78km/h | 13444m | -15.7m/s | -47.3°C | 1.3% | 158.7hPa | 2.7V | 00:00:00 | 00:00:00 | 00:00:00 | |
| DD8BA-10 | 2026-08-31 05:47:22 | 53.20884 | 8.31804 | 65° | 69km/h | 13459m | -15.0m/s | -47.3°C | 3.3% | 158.3hPa | 2.7V | 00:00:00 | 00:00:00 | 00:00:00 | |
| DO2SHX-10 | 2026-08-31 05:47:21 | 53.20876 | 8.31775 | 66° | 75km/h | 13475m | -16.6m/s | -47.3°C | 3.3% | 158.0hPa | 2.7V | 00:00:00 | 02:15:41 | 00:00:00 | |
| DL1XH1-15 | 2026-08-31 05:47:19 | 53.20824 | 8.31590 | 65° | 68km/h | 13590m | -16.6m/s | -47°C | 3.2% | 155.3hPa | 2.6V | 08:17:23 | 02:15:34 | 00:00:00 | |
| BIOWL1-15 | 2026-08-31 05:47:19 | 53.20860 | 8.31718 | 65° | 73km/h | 13508m | -16.2m/s | -47.3°C | 0.4% | 157.3hPa | 2.6V | 08:17:48 | 02:15:39 | 00:00:00 | |
| DM0DOS-11 | 2026-08-31 05:47:18 | 53.20831 | 8.31615 | 65° | 64km/h | 13573m | -16.3m/s | -46.9°C | 3.2% | 155.6hPa | 2.6V | 08:17:22 | 02:15:35 | 00:00:00 | |
| DF8AY | 2026-08-31 05:47:18 | 53.20852 | 8.31691 | 64° | 68km/h | 13524m | -16.8m/s | -47.1°C | 0.3% | 156.9hPa | 2.6V | 08:17:48 | 02:15:38 | 00:00:00 | |
| DO2SHX-10 | 2026-08-31 05:47:18 | 53.20852 | 8.31691 | 64° | 68km/h | 13525m | -16.8m/s | -47.1°C | 3.2% | 156.8hPa | 2.7V | 00:00:00 | 02:15:38 | 00:00:00 | |
| DL1XH-15 | 2026-08-31 05:47:16 | 53.20804 | 8.31514 | 66° | 64km/h | 13637m | -16m/s | -47.3°C | 3.2% | 154.1hPa | 2.7V | 08:17:26 | 02:15:31 | 00:00:00 | |
| DL1XH-west | 2026-08-31 05:47:16 | 53.20838 | 8.31640 | 65° | 68km/h | 13557m | -16.6m/s | -46.9°C | 0.3% | 156.1hPa | 2.7V | 08:17:48 | 02:15:36 | 00:00:00 | |
| DO2JMG | 2026-08-31 05:47:15 | 53.20831 | 8.31615 | 66° | 64km/h | 13573m | -16.3m/s | -46.9°C | 0.3% | 155.6hPa | 2.6V | 08:17:48 | 02:15:35 | 00:00:00 | |
| HSKMA3-T | 2026-08-31 05:47:14 | 53.20824 | 8.31590 | 66° | 68km/h | 13590m | -16.6m/s | -47°C | 0.4% | 155.3hPa | 2.6V | 08:17:48 | 02:15:34 | 00:00:00 | |
| DD1CC2-15 | 2026-08-31 05:47:12 | 53.20818 | 8.31564 | 67° | 64km/h | 13606m | -16.7m/s | -47.1°C | 1.3% | 154.9hPa | 2.7V | 08:17:00 | 00:00:00 | 00:00:00 | |
| DB0DAN | 2026-08-31 05:47:10 | 53.20797 | 8.31489 | 66° | 62km/h | 13654m | -16.2m/s | -47.3°C | 1.3% | 153.79hPa | 2.7V | 00:00:00 | 00:00:00 | 00:00:00 | |
| DF8AY | 2026-08-31 05:47:10 | 53.20777 | 8.31416 | 65° | 62km/h | 13702m | -16.5m/s | -47.4°C | 0.3% | 152.6hPa | 2.6V | 08:17:48 | 02:15:27 | 00:00:00 | |
| DL1XH1-15 | 2026-08-31 05:47:09 | 53.20756 | 8.31344 | 62° | 64km/h | 13753m | -16.8m/s | -47.5°C | 3.2% | 151.5hPa | 2.7V | 08:17:33 | 02:15:24 | 00:00:00 | |
| DO2SHX-10 | 2026-08-31 05:47:09 | 53.20791 | 8.31464 | 66° | 64km/h | 13670m | -16.0m/s | -47.2°C | 3.2% | 153.3hPa | 2.7V | 00:00:00 | 02:15:29 | 00:00:00 | |
| DM0DOS-11 | 2026-08-31 05:47:08 | 53.20763 | 8.31367 | 63° | 62km/h | 13736m | -17.6m/s | -47.6°C | 3.2% | 151.9hPa | 2.7V | 08:17:32 | 02:15:25 | 00:00:00 | |
| BIOWL1-15 | 2026-08-31 05:47:08 | 53.20784 | 8.31440 | 65° | 64km/h | 13686m | -16.3m/s | -47.3°C | 0.3% | 153hPa | 2.6V | 08:17:48 | 02:15:28 | 00:00:00 | |
| DO2JMG | 2026-08-31 05:47:05 | 53.20763 | 8.31368 | 63° | 62km/h | 13736m | -17.6m/s | -47.6°C | 0.3% | 151.9hPa | 2.7V | 08:17:48 | 02:15:25 | 00:00:00 | |
| HSKMA3-T | 2026-08-31 05:47:04 | 53.20756 | 8.31344 | 63° | 64km/h | 13753m | -16.8m/s | -47.5°C | 0.4% | 151.5hPa | 2.7V | 08:17:48 | 02:15:24 | 00:00:00 | |
| DF8AY-15 | 2026-08-31 05:47:04 | 53.20756 | 8.31344 | 63° | 64km/h | 13753m | -16.7m/s | -47.5°C | 3.2% | 151.5hPa | 2.7V | 00:00:00 | 02:15:24 | 00:00:00 | |
| DO2SHX-10 | 2026-08-31 05:47:03 | 53.20749 | 8.31320 | 61° | 62km/h | 13770m | -15.7m/s | -47.6°C | 3.2% | 151.0hPa | 2.7V | 08:17:00 | 02:15:23 | 00:00:00 | |
| DD8BA-10 | 2026-08-31 05:47:02 | 53.20741 | 8.31297 | 63° | 64km/h | 13785m | -16.2m/s | -47.7°C | 3.3% | 150.7hPa | 2.6V | 00:00:00 | 00:00:00 | 00:00:00 | |
| GOEST3-10 | 2026-08-31 05:47:01 | 53.20734 | 8.31275 | 62° | 64km/h | 13801m | -14.4m/s | -47.8°C | 3.2% | 150.3hPa | 2.6V | 00:00:00 | 02:15:21 | 00:00:00 | |
| DO2SHX-10 | 2026-08-31 05:47:00 | 53.20726 | 8.31251 | 60° | 62km/h | 13816m | -14.9m/s | -47.9°C | 3.2% | 150.0hPa | 2.6V | 00:00:00 | 02:15:20 | 00:00:00 | |
| DL1XH1-15 | 2026-08-31 05:46:59 | 53.20680 | 8.31108 | 63° | 68km/h | 13914m | -16.1m/s | -48.4°C | 3.3% | 147.8hPa | 2.6V | 08:17:43 | 02:15:14 | 00:00:00 | |
| DL4BBY-15 | 2026-08-31 05:46:59 | 53.20718 | 8.31228 | 63° | 60km/h | 13831m | -16.4m/s | -47.2°C | 0% | 0hPa | 2.6V | 00:00:00 | 00:00:00 | 00:00:00 | |
| DM0DOS-11 | 2026-08-31 05:46:58 | 53.20687 | 8.31132 | 63° | 64km/h | 13898m | -16.3m/s | -48.3°C | 3.3% | 148.2hPa | 2.6V | 08:17:42 | 02:15:15 | 00:00:00 | |
| BIOWL1-15 | 2026-08-31 05:46:58 | 53.20710 | 8.31205 | 61° | 64km/h | 13848m | -17.3m/s | -48.2°C | 0.4% | 149.3hPa | 2.7V | 08:17:48 | 02:15:18 | 00:00:00 | |
| DF8AY | 2026-08-31 05:46:57 | 53.20703 | 8.31181 | 63° | 66km/h | 13865m | -17.2m/s | -48.3°C | 0.4% | 148.9hPa | 2.7V | 08:17:48 | 02:15:17 | 00:00:00 | |
| DO2JMG | 2026-08-31 05:46:54 | 53.20680 | 8.31108 | 64° | 68km/h | 13914m | -16.2m/s | -48.4°C | 0.4% | 147.8hPa | 2.6V | 08:17:48 | 02:15:14 | 00:00:00 | |
| HSKMA3-T | 2026-08-31 05:46:53 | 53.20673 | 8.31082 | 63° | 68km/h | 13930m | -15.8m/s | -48.5°C | 0.4% | 147.5hPa | 2.6V | 08:17:48 | 02:15:13 | 00:00:00 | |
| DJ2DS-15 | 2026-08-31 05:46:53 | 53.20665 | 8.31057 | 64° | 66km/h | 13946m | -16.9m/s | -48.5°C | 1.3% | 147.1hPa | 2.6V | 00:00:00 | 00:00:00 | 00:00:00 | |
| SMARD9-15 | 2026-08-31 05:46:52 | 53.20665 | 8.31057 | 64° | 66km/h | 13946m | -16.9m/s | -48.5°C | 1.3% | 147.1hPa | 2.6V | 00:00:00 | 00:00:00 | 00:00:00 | |
| SONDE2-11 | 2026-08-31 05:46:50 | 53.20642 | 8.30982 | 61° | 66km/h | 13994m | -16.1m/s | -48.8°C | 1.3% | 146.0hPa | 2.6V | 00:00:00 | 00:00:00 | 00:00:00 | |
| DL1XH1-15 | 2026-08-31 05:46:49 | 53.20602 | 8.30864 | 59° | 62km/h | 14075m | -16.2m/s | -48.6°C | 3.4% | 144.2hPa | 2.6V | 08:17:53 | 02:15:04 | 00:00:00 | |
| DM0DOS-11 | 2026-08-31 05:46:48 | 53.20610 | 8.30886 | 59° | 62km/h | 14059m | -15.5m/s | -48.6°C | 3.4% | 144.6hPa | 2.7V | 08:17:52 | 02:15:05 | 00:00:00 | |
| BIOWL1-15 | 2026-08-31 05:46:47 | 53.20626 | 8.30933 | 60° | 66km/h | 14027m | -16.4m/s | -48.9°C | 0.5% | 145.3hPa | 2.7V | 08:18:39 | 02:15:07 | 00:00:00 | |
| DF8AY | 2026-08-31 05:46:46 | 53.20618 | 8.30909 | 61° | 64km/h | 14043m | -16.7m/s | -48.9°C | 0.5% | 145hPa | 2.7V | 08:18:39 | 02:15:06 | 00:00:00 | |
| DO2JMG | 2026-08-31 05:46:44 | 53.20602 | 8.30864 | 59° | 62km/h | 14075m | -16.2m/s | -48.6°C | 0.4% | 144.2hPa | 2.6V | 08:18:39 | 02:15:04 | 00:00:00 | |
| AA1-15 | 2026-08-31 05:46:43 | 53.20594 | 8.30842 | 58° | 60km/h | 14091m | -16m/s | -48.7°C | 0.4% | 143.9hPa | 2.6V | 08:18:39 | 02:15:03 | 00:00:00 | |
| HSKMA3-T | 2026-08-31 05:46:42 | 53.20586 | 8.30820 | 58° | 60km/h | 14106m | -14.8m/s | -48.7°C | 0.4% | 143.6hPa | 2.6V | 08:18:39 | 02:15:02 | 00:00:00 | |
| DB0DAN | 2026-08-31 05:46:40 | 53.20570 | 8.30778 | 57° | 55km/h | 14139m | -18.1m/s | -48.7°C | 1.2% | 142.93hPa | 2.7V | 00:00:00 | 00:00:00 | 00:00:00 | |
| DL4XJ-10 | 2026-08-31 05:46:40 | 53.20571 | 8.30778 | 58° | 57km/h | 14139m | -18.1m/s | -47.8°C | 0% | 0hPa | 2.7V | 00:00:00 | 00:00:00 | 00:00:00 | |
| DL1XH1-15 | 2026-08-31 05:46:39 | 53.20523 | 8.30666 | 53° | 53km/h | 14241m | -16.2m/s | -49.4°C | 3.5% | 140.6hPa | 2.7V | 08:18:03 | 02:14:54 | 00:00:00 | |
| BIOWL1-15 | 2026-08-31 05:46:37 | 53.20547 | 8.30720 | 54° | 55km/h | 14192m | -17m/s | -49.3°C | 0.4% | 141.7hPa | 2.6V | 08:18:39 | 02:14:57 | 00:00:00 | |
| DM0DOS-11 | 2026-08-31 05:46:36 | 53.20531 | 8.30684 | 53° | 53km/h | 14225m | -16.5m/s | -49.3°C | 3.5% | 141hPa | 2.6V | 08:18:02 | 02:14:55 | 00:00:00 | |
| DF8AY | 2026-08-31 05:46:36 | 53.20539 | 8.30702 | 55° | 53km/h | 14209m | -16.6m/s | -49.3°C | 0.5% | 141.4hPa | 2.6V | 08:18:39 | 02:14:56 | 00:00:00 | |
| DO2JMG | 2026-08-31 05:46:34 | 53.20523 | 8.30666 | 53° | 53km/h | 14241m | -16.2m/s | -49.4°C | 0.5% | 140.6hPa | 2.7V | 08:18:39 | 02:14:54 | 00:00:00 | |
| DL1XH-west | 2026-08-31 05:46:33 | 53.20514 | 8.30649 | 50° | 53km/h | 14258m | -15.9m/s | -49.4°C | 0.5% | 140.3hPa | 2.7V | 08:18:39 | 02:14:53 | 00:00:00 | |
| HSKMA3-T | 2026-08-31 05:46:31 | 53.20497 | 8.30615 | 46° | 53km/h | 14290m | -16.7m/s | -49.6°C | 0.5% | 139.6hPa | 2.6V | 08:18:39 | 02:14:51 | 00:00:00 | |
| DO2SHX-10 | 2026-08-31 05:46:30 | 53.20487 | 8.30599 | 43° | 55km/h | 14308m | -18.0m/s | -49.6°C | 3.5% | 139.3hPa | 2.6V | 00:00:00 | 02:14:50 | 00:00:00 | |
| DL1XH1-15 | 2026-08-31 05:46:29 | 53.20418 | 8.30511 | 34° | 64km/h | 14414m | -18m/s | -50°C | 3.5% | 137hPa | 2.6V | 08:18:13 | 02:14:44 | 00:00:00 | |
| BIOWL1-15 | 2026-08-31 05:46:28 | 53.20443 | 8.30540 | 35° | 60km/h | 14379m | -17m/s | -49.8°C | 0.5% | 137.7hPa | 2.6V | 08:18:39 | 02:14:46 | 00:00:00 | |
| DO3DL | 2026-08-31 05:46:27 | 53.20467 | 8.30569 | 40° | 55km/h | 14344m | -18.0m/s | -49.8°C | 1.3% | 138.5hPa | 2.6V | 08:18:00 | 00:00:00 | 00:00:00 | |
| DB0DAN | 2026-08-31 05:46:25 | 53.20431 | 8.30526 | 35° | 57km/h | 14396m | -17.4m/s | -49.9°C | 1.3% | 137.44hPa | 2.6V | 00:00:00 | 00:00:00 | 00:00:00 | |
| DF8AY | 2026-08-31 05:46:25 | 53.20431 | 8.30526 | 35° | 60km/h | 14396m | -17.4m/s | -49.9°C | 0.5% | 137.4hPa | 2.6V | 08:18:39 | 02:14:45 | 00:00:00 | |
| DO2JMG | 2026-08-31 05:46:23 | 53.20405 | 8.30496 | 36° | 62km/h | 14432m | -17.4m/s | -50.1°C | 0.5% | 136.6hPa | 2.6V | 08:18:39 | 02:14:43 | 00:00:00 | |
| DL1XH-west | 2026-08-31 05:46:22 | 53.20392 | 8.30481 | 37° | 64km/h | 14449m | -17.5m/s | -50.2°C | 0.5% | 136.3hPa | 2.7V | 08:18:39 | 02:14:42 | 00:00:00 | |
| HSKMA3-T | 2026-08-31 05:46:21 | 53.20380 | 8.30465 | 37° | 66km/h | 14467m | -17.2m/s | -50.4°C | 0.5% | 135.9hPa | 2.7V | 08:18:39 | 02:14:41 | 00:00:00 | |
| DO2SHX-10 | 2026-08-31 05:46:21 | 53.20380 | 8.30464 | 38° | 68km/h | 14467m | -17.2m/s | -50.3°C | 3.7% | 135.9hPa | 2.6V | 00:00:00 | 02:14:41 | 00:00:00 | |
| DL4XJ-10 | 2026-08-31 05:46:20 | 53.20366 | 8.30448 | 38° | 71km/h | 14484m | -15.7m/s | -49.6°C | 0% | 0hPa | 2.6V | 00:00:00 | 00:00:00 | 00:00:00 | |
| SONDE2-11 | 2026-08-31 05:46:19 | 53.20340 | 8.30412 | 40° | 68km/h | 14515m | -15.9m/s | -50.6°C | 1.3% | 134.9hPa | 2.6V | 00:00:00 | 00:00:00 | 00:00:00 | |
| DO2SHX-10 | 2026-08-31 05:46:18 | 53.20340 | 8.30412 | 41° | 68km/h | 14516m | -15.8m/s | -50.5°C | 3.7% | 134.8hPa | 2.6V | 00:00:00 | 02:14:38 | 00:00:00 | |
| DJ2DS-15 | 2026-08-31 05:46:17 | 53.20314 | 8.30374 | 40° | 68km/h | 14549m | -16.9m/s | -50.2°C | 1.3% | 134.3hPa | 2.7V | 00:00:00 | 00:00:00 | 00:00:00 | |
| DL1XH-15 | 2026-08-31 05:46:16 | 53.20247 | 8.30275 | 41° | 75km/h | 14635m | -16.8m/s | -50.2°C | 3.6% | 132.4hPa | 2.7V | 08:18:26 | 02:14:31 | 00:00:00 | |
| BIOWL1-15 | 2026-08-31 05:46:16 | 53.20314 | 8.30374 | 41° | 68km/h | 14549m | -16.9m/s | -50.2°C | 0.5% | 134.3hPa | 2.7V | 08:18:39 | 02:14:36 | 00:00:00 | |
| DF8AY | 2026-08-31 05:46:15 | 53.20301 | 8.30355 | 42° | 69km/h | 14566m | -17.4m/s | -50.2°C | 0.5% | 133.9hPa | 2.7V | 08:18:39 | 02:14:35 | 00:00:00 | |
| AA1-15 | 2026-08-31 05:46:13 | 53.20275 | 8.30315 | 41° | 73km/h | 14601m | -17.6m/s | -50.2°C | 0.4% | 133.2hPa | 2.6V | 08:18:39 | 02:14:33 | 00:00:00 | |
| DO2JMG | 2026-08-31 05:46:12 | 53.20261 | 8.30295 | 41° | 73km/h | 14618m | -17.2m/s | -50.2°C | 0.5% | 132.8hPa | 2.6V | 08:18:39 | 02:14:32 | 00:00:00 | |
| DL1XH-west | 2026-08-31 05:46:11 | 53.20247 | 8.30275 | 41° | 75km/h | 14635m | -16.8m/s | -50.2°C | 0.5% | 132.4hPa | 2.7V | 08:18:39 | 02:14:31 | 00:00:00 | |
| DB0DAN | 2026-08-31 05:46:10 | 53.20233 | 8.30254 | 42° | 71km/h | 14651m | -16.8m/s | -49.9°C | 1.2% | 132.08hPa | 2.7V | 00:00:00 | 00:00:00 | 00:00:00 | |
| HSKMA3-T | 2026-08-31 05:46:10 | 53.20233 | 8.30254 | 42° | 75km/h | 14651m | -16.8m/s | -49.9°C | 0.4% | 132.1hPa | 2.7V | 08:18:39 | 02:14:30 | 00:00:00 | |
| DL1XH1-15 | 2026-08-31 05:46:09 | 53.20148 | 8.30128 | 44° | 71km/h | 14752m | -17.4m/s | -50.1°C | 3.6% | 130hPa | 2.7V | 08:18:33 | 02:14:24 | 00:00:00 | |
| BIOWL1-15 | 2026-08-31 05:46:08 | 53.20176 | 8.30171 | 43° | 75km/h | 14718m | -16.4m/s | -50.1°C | 0.5% | 130.7hPa | 2.6V | 08:18:39 | 02:14:26 | 00:00:00 | |
| DB0NH | 2026-08-31 05:46:08 | 53.20204 | 8.30212 | 41° | 64km/h | 14686m | -16.3m/s | -49.9°C | 3.6% | 131.3hPa | 2.6V | 00:00:00 | 02:14:28 | 00:00:00 | |
| DL8OAI-8 | 2026-08-31 05:46:07 | 53.20204 | 8.30212 | 42° | 73km/h | 14686m | -16.4m/s | -50.0°C | 1.3% | 131.4hPa | 2.6V | 00:00:00 | 00:00:00 | 00:00:00 | |
| DL1XH-15 | 2026-08-31 05:46:06 | 53.20110 | 8.30064 | 45° | 69km/h | 14802m | -16.4m/s | -50.2°C | 3.7% | 129hPa | 2.6V | 08:18:36 | 02:14:21 | 00:00:00 | |
| DF8AY | 2026-08-31 05:46:05 | 53.20148 | 8.30128 | 44° | 71km/h | 14752m | -17.5m/s | -50.1°C | 0.5% | 130hPa | 2.7V | 08:18:39 | 02:14:24 | 00:00:00 | |
| AA1-15 | 2026-08-31 05:46:02 | 53.20123 | 8.30085 | 46° | 69km/h | 14786m | -17.1m/s | -50.1°C | 0.5% | 129.3hPa | 2.7V | 08:18:39 | 02:14:22 | 00:00:00 | |
| DO2JMG | 2026-08-31 05:46:01 | 53.20110 | 8.30064 | 45° | 69km/h | 14802m | -16.4m/s | -50.2°C | 0.5% | 129hPa | 2.6V | 08:18:39 | 02:14:21 | 00:00:00 | |
| DL1XH-west | 2026-08-31 05:46:00 | 53.20098 | 8.30043 | 48° | 69km/h | 14818m | -16m/s | -50.2°C | 0.5% | 128.7hPa | 2.6V | 08:18:39 | 02:14:20 | 00:00:00 | |
| DF8AY | 2026-08-31 05:45:59 | 53.20027 | 8.29912 | 49° | 75km/h | 14922m | -17.3m/s | -50.1°C | 0.5% | 126.7hPa | 2.6V | 08:19:30 | 02:14:14 | 00:00:00 | |
| DL1XH1-15 | 2026-08-31 05:45:59 | 53.20026 | 8.29912 | 49° | 75km/h | 14922m | -17.3m/s | -50°C | 3.7% | 126.7hPa | 2.6V | 08:18:43 | 02:14:14 | 00:00:00 | |
| HSKMA3-T | 2026-08-31 05:45:59 | 53.20086 | 8.30022 | 47° | 68km/h | 14834m | -17.2m/s | -50.2°C | 0.5% | 128.4hPa | 2.6V | 08:18:39 | 02:14:19 | 00:00:00 | |
| BIOWL1-15 | 2026-08-31 05:45:57 | 53.20039 | 8.29936 | 48° | 73km/h | 14904m | -18.2m/s | -50.1°C | 0.5% | 127.1hPa | 2.6V | 08:19:30 | 02:14:15 | 00:00:00 | |
| DO2SHX-10 | 2026-08-31 05:45:57 | 53.20063 | 8.29979 | 49° | 71km/h | 14870m | -17.3m/s | -50.0°C | 3.6% | 127.7hPa | 2.7V | 00:00:00 | 02:14:17 | 00:00:00 | |
| DL1XH-15 | 2026-08-31 05:45:56 | 53.19989 | 8.29841 | 50° | 77km/h | 14971m | -16.2m/s | -50.2°C | 3.7% | 125.7hPa | 2.7V | 08:18:46 | 02:14:11 | 00:00:00 | |
| DB0DAN | 2026-08-31 05:45:55 | 53.20039 | 8.29936 | 47° | 69km/h | 14904m | -18.2m/s | -50.1°C | 1.3% | 127.06hPa | 2.6V | 00:00:00 | 00:00:00 | 00:00:00 | |
| AA1-15 | 2026-08-31 05:45:52 | 53.20002 | 8.29865 | 48° | 77km/h | 14955m | -16.6m/s | -50.1°C | 0.5% | 126.1hPa | 2.7V | 08:19:30 | 02:14:12 | 00:00:00 | |
| DO2JMG | 2026-08-31 05:45:50 | 53.19976 | 8.29816 | 50° | 77km/h | 14988m | -17.5m/s | -50°C | 0.5% | 125.4hPa | 2.6V | 08:19:30 | 02:14:10 | 00:00:00 | |
| DM0DOS-11 | 2026-08-31 05:45:48 | 53.19916 | 8.29692 | 51° | 73km/h | 15075m | -17.1m/s | -49.4°C | 3.5% | 123.7hPa | 2.7V | 08:18:52 | 02:14:05 | 00:00:00 | |
| HSKMA3-T | 2026-08-31 05:45:48 | 53.19951 | 8.29766 | 51° | 75km/h | 15024m | -17.9m/s | -49.8°C | 0.5% | 124.7hPa | 2.6V | 08:19:30 | 02:14:08 | 00:00:00 | |
| BIOWL1-15 | 2026-08-31 05:45:45 | 53.19916 | 8.29692 | 52° | 73km/h | 15075m | -17.2m/s | -49.4°C | 0.3% | 123.7hPa | 2.7V | 08:19:30 | 02:14:05 | 00:00:00 | |
| DF8AY | 2026-08-31 05:45:43 | 53.19895 | 8.29645 | 55° | 68km/h | 15110m | -17.7m/s | -48.8°C | 0.3% | 123.1hPa | 2.6V | 08:19:30 | 02:14:03 | 00:00:00 | |
| AA1-15 | 2026-08-31 05:45:41 | 53.19875 | 8.29598 | 55° | 66km/h | 15144m | -16.2m/s | -48.9°C | 0.3% | 122.5hPa | 2.6V | 08:19:30 | 02:14:01 | 00:00:00 | |
| DB0DAN | 2026-08-31 05:45:40 | 53.19865 | 8.29576 | 53° | 60km/h | 15161m | -17.7m/s | -48.9°C | 1.1% | 122.15hPa | 2.7V | 00:00:00 | 00:00:00 | 00:00:00 | |
| DO2JMG | 2026-08-31 05:45:40 | 53.19865 | 8.29576 | 54° | 64km/h | 15161m | -17.7m/s | -48.9°C | 0.3% | 122.2hPa | 2.7V | 08:19:30 | 02:14:00 | 00:00:00 | |
| DL1XH1-15 | 2026-08-31 05:45:39 | 53.19810 | 8.29451 | 51° | 58km/h | 15267m | -19.3m/s | -48.8°C | 3.2% | 120.2hPa | 2.7V | 08:19:03 | 02:13:54 | 00:00:00 | |
| DM0DOS-11 | 2026-08-31 05:45:38 | 53.19820 | 8.29471 | 53° | 62km/h | 15248m | -18.7m/s | -48.7°C | 3.2% | 120.6hPa | 2.7V | 08:19:02 | 02:13:55 | 00:00:00 | |
| HSKMA3-T | 2026-08-31 05:45:37 | 53.19838 | 8.29512 | 55° | 60km/h | 15213m | -17.6m/s | -48.7°C | 0.2% | 121.2hPa | 2.6V | 08:19:30 | 02:13:57 | 00:00:00 | |
| DL1XH-15 | 2026-08-31 05:45:36 | 53.19783 | 8.29393 | 50° | 60km/h | 15322m | -18.9m/s | -49.2°C | 3.4% | 119.2hPa | 2.6V | 08:19:06 | 02:13:51 | 00:00:00 | |
| BIOWL1-15 | 2026-08-31 05:45:36 | 53.19810 | 8.29450 | 52° | 58km/h | 15267m | -19.3m/s | -48.8°C | 0.2% | 120.3hPa | 2.7V | 08:19:30 | 02:13:54 | 00:00:00 | |
| DF8AY | 2026-08-31 05:45:33 | 53.19801 | 8.29431 | 52° | 58km/h | 15286m | -18.4m/s | -49°C | 0.3% | 119.9hPa | 2.7V | 08:19:30 | 02:13:53 | 00:00:00 | |
| AA1-15 | 2026-08-31 05:45:31 | 53.19782 | 8.29393 | 51° | 60km/h | 15322m | -18.9m/s | -49.2°C | 0.3% | 119.2hPa | 2.6V | 08:19:30 | 02:13:51 | 00:00:00 | |
| GOEST3-10 | 2026-08-31 05:45:31 | 53.19782 | 8.29393 | 51° | 58km/h | 15322m | -18.8m/s | -49.1°C | 3.4% | 119.2hPa | 2.6V | 00:00:00 | 02:13:51 | 00:00:00 | |
| DO2SHX-10 | 2026-08-31 05:45:30 | 53.19773 | 8.29374 | 50° | 60km/h | 15341m | -18.3m/s | -49.1°C | 3.4% | 118.8hPa | 2.6V | 00:00:00 | 02:13:50 | 00:00:00 | |
| DL1XH1-15 | 2026-08-31 05:45:29 | 53.19712 | 8.29261 | 48° | 64km/h | 15446m | -18.5m/s | -49.5°C | 3.4% | 117hPa | 2.6V | 08:19:13 | 02:13:44 | 00:00:00 | |
| DO2JMG | 2026-08-31 05:45:29 | 53.19763 | 8.29355 | 49° | 58km/h | 15358m | -17.9m/s | -49°C | 0.3% | 118.5hPa | 2.6V | 08:19:30 | 02:13:49 | 00:00:00 | |
| DM0DOS-11 | 2026-08-31 05:45:28 | 53.19722 | 8.29280 | 47° | 60km/h | 15428m | -18.6m/s | -49.3°C | 3.4% | 117.3hPa | 2.6V | 08:19:12 | 02:13:45 | 00:00:00 | |
| DO2SHX-10 | 2026-08-31 05:45:27 | 53.19743 | 8.29318 | 47° | 60km/h | 15393m | -17.1m/s | -49.0°C | 3.3% | 117.8hPa | 2.7V | 00:00:00 | 02:13:47 | 00:00:00 | |
| DL1XH-15 | 2026-08-31 05:45:26 | 53.19679 | 8.29200 | 50° | 66km/h | 15501m | -17.8m/s | -50°C | 3.5% | 116hPa | 2.7V | 08:19:16 | 02:13:41 | 00:00:00 | |
| HSKMA3-T | 2026-08-31 05:45:26 | 53.19733 | 8.29299 | 48° | 60km/h | 15410m | -17.1m/s | -49.2°C | 0.3% | 117.6hPa | 2.7V | 08:19:30 | 02:13:46 | 00:00:00 | |
| DB0DAN | 2026-08-31 05:45:25 | 53.19723 | 8.29280 | 48° | 58km/h | 15428m | -18.7m/s | -49.3°C | 1.1% | 117.34hPa | 2.6V | 00:00:00 | 00:00:00 | 00:00:00 | |
| BIOWL1-15 | 2026-08-31 05:45:23 | 53.19701 | 8.29241 | 47° | 66km/h | 15465m | -18.2m/s | -49.7°C | 0.3% | 116.7hPa | 2.6V | 08:19:30 | 02:13:43 | 00:00:00 | |
| AA1-15 | 2026-08-31 05:45:21 | 53.19679 | 8.29200 | 50° | 66km/h | 15501m | -17.8m/s | -50°C | 0.4% | 116hPa | 2.7V | 08:19:30 | 02:13:41 | 00:00:00 | |
| DO2SHX-10 | 2026-08-31 05:45:21 | 53.19679 | 8.29200 | 51° | 66km/h | 15501m | -17.7m/s | -49.9°C | 3.5% | 116.0hPa | 2.6V | 00:00:00 | 02:13:41 | 00:00:00 | |
| DL4XJ-10 | 2026-08-31 05:45:20 | 53.19669 | 8.29178 | 52° | 68km/h | 15519m | -17.3m/s | -49.2°C | 0% | 0hPa | 2.6V | 00:00:00 | 00:00:00 | 00:00:00 | |
| DL1XH1-15 | 2026-08-31 05:45:19 | 53.19609 | 8.29029 | 60° | 73km/h | 15618m | -17m/s | -49.9°C | 3.6% | 113.9hPa | 2.6V | 08:19:23 | 02:13:34 | 00:00:00 | |
| DF5WG-10 | 2026-08-31 05:45:19 | 53.19658 | 8.29155 | 54° | 71km/h | 15536m | -16.8m/s | -50.0°C | 3.6% | 115.3hPa | 2.7V | 00:00:00 | 02:13:39 | 00:00:00 | |
| DM0DOS-11 | 2026-08-31 05:45:18 | 53.19618 | 8.29055 | 58° | 73km/h | 15601m | -15.9m/s | -49.9°C | 3.6% | 114.2hPa | 2.7V | 08:19:22 | 02:13:35 | 00:00:00 | |
| DO2JMG | 2026-08-31 05:45:18 | 53.19647 | 8.29131 | 55° | 71km/h | 15552m | -16.7m/s | -50°C | 0.4% | 115.1hPa | 2.6V | 08:19:30 | 02:13:38 | 00:00:00 | |
| DO2SHX-10 | 2026-08-31 05:45:18 | 53.19647 | 8.29131 | 55° | 71km/h | 15552m | -16.7m/s | -49.9°C | 3.6% | 115.1hPa | 2.6V | 00:00:00 | 02:13:38 | 00:00:00 | |
| BIOWL7-15 | 2026-08-31 05:45:17 | 53.19647 | 8.29131 | 56° | 71km/h | 15552m | -16.7m/s | -50.0°C | 1.2% | 115.1hPa | 2.6V | 00:00:00 | 00:00:00 | 00:00:00 | |
| DL1XH-15 | 2026-08-31 05:45:16 | 53.19585 | 8.28946 | 68° | 71km/h | 15669m | -17.5m/s | -49.8°C | 3.5% | 113hPa | 2.6V | 08:19:26 | 02:13:31 | 00:00:00 | |
| HSKMA3-T | 2026-08-31 05:45:15 | 53.19618 | 8.29055 | 59° | 73km/h | 15601m | -15.9m/s | -49.9°C | 0.4% | 114.2hPa | 2.7V | 08:19:30 | 02:13:35 | 00:00:00 | |
| DF8AY | 2026-08-31 05:45:13 | 53.19592 | 8.28974 | 66° | 73km/h | 15652m | -17.3m/s | -49.9°C | 0.3% | 113.3hPa | 2.6V | 08:19:30 | 02:13:32 | 00:00:00 | |
| AA1-15 | 2026-08-31 05:45:11 | 53.19585 | 8.28946 | 68° | 71km/h | 15669m | -17.5m/s | -49.8°C | 0.4% | 113hPa | 2.6V | 08:19:30 | 02:13:31 | 00:00:00 | |
| DB0DAN | 2026-08-31 05:45:10 | 53.19578 | 8.28918 | 70° | 68km/h | 15687m | -17.5m/s | -49.7°C | 1.2% | 112.73hPa | 2.7V | 00:00:00 | 00:00:00 | 00:00:00 | |
| DL1XH-west | 2026-08-31 05:45:08 | 53.19567 | 8.28862 | 73° | 69km/h | 15721m | -16.7m/s | -49.5°C | 0.3% | 112.2hPa | 2.7V | 08:19:30 | 02:13:28 | 00:00:00 | |
| DO2JMG | 2026-08-31 05:45:07 | 53.19562 | 8.28835 | 74° | 68km/h | 15738m | -17.3m/s | -49.6°C | 0.3% | 111.8hPa | 2.6V | 08:19:30 | 02:13:27 | 00:00:00 | |
| HSKMA3-T | 2026-08-31 05:45:05 | 53.19553 | 8.28781 | 75° | 64km/h | 15772m | -16.4m/s | -49.8°C | 0.3% | 111.3hPa | 2.6V | 08:20:21 | 02:13:25 | 00:00:00 | |
| DL1XH1-15 | 2026-08-31 05:45:04 | 53.19549 | 8.28756 | 75° | 60km/h | 15788m | -16.6m/s | -49.9°C | 3.6% | 111hPa | 2.7V | 08:19:33 | 02:13:24 | 00:00:00 | |
| AA1-15 | 2026-08-31 05:45:01 | 53.19538 | 8.28688 | 74° | 51km/h | 15840m | -17.2m/s | -49.6°C | 0.3% | 110.1hPa | 2.6V | 08:20:21 | 02:13:21 | 00:00:00 | |
| DO2JMG | 2026-08-31 05:44:57 | 53.19524 | 8.28616 | 69° | 42km/h | 15911m | -18.8m/s | -49.3°C | 0.3% | 108.9hPa | 2.7V | 08:20:21 | 02:13:17 | 00:00:00 | |
| DL3AQ-11 | 2026-08-31 05:44:56 | 53.19515 | 8.28583 | 64° | 42km/h | 15948m | -17.5m/s | -49.4°C | 1.1% | 108.3hPa | 2.6V | 00:00:00 | 00:00:00 | 00:00:00 | |
| DB0DAN | 2026-08-31 05:44:55 | 53.19515 | 8.28583 | 65° | 42km/h | 15948m | -17.5m/s | -49.4°C | 1.1% | 108.3hPa | 2.6V | 00:00:00 | 00:00:00 | 00:00:00 | |
| HSKMA3-T | 2026-08-31 05:44:55 | 53.19515 | 8.28583 | 65° | 44km/h | 15948m | -17.5m/s | -49.4°C | 0.3% | 108.3hPa | 2.6V | 08:20:21 | 02:13:15 | 00:00:00 | |
| DL1XH1-15 | 2026-08-31 05:44:54 | 53.19511 | 8.28567 | 65° | 44km/h | 15965m | -17.6m/s | -49.5°C | 3.5% | 108hPa | 2.6V | 08:19:43 | 02:13:14 | 00:00:00 | |
| DF8AY | 2026-08-31 05:44:51 | 53.19496 | 8.28514 | 66° | 47km/h | 16017m | -17.7m/s | -49.5°C | 0.4% | 107.2hPa | 2.7V | 08:20:21 | 02:13:11 | 00:00:00 | |
| AA1-15 | 2026-08-31 05:44:50 | 53.19491 | 8.28496 | 65° | 49km/h | 16035m | -18.2m/s | -49.3°C | 0.3% | 106.9hPa | 2.7V | 08:20:21 | 02:13:10 | 00:00:00 | |
| DL1XH-west | 2026-08-31 05:44:47 | 53.19475 | 8.28436 | 65° | 55km/h | 16088m | -17.7m/s | -49.3°C | 0.3% | 106hPa | 2.6V | 08:20:21 | 02:13:07 | 00:00:00 | |
| DO2JMG | 2026-08-31 05:44:46 | 53.19469 | 8.28416 | 65° | 53km/h | 16106m | -18.3m/s | -49.3°C | 0.3% | 105.7hPa | 2.7V | 08:20:21 | 02:13:06 | 00:00:00 | |
| SONDE2-11 | 2026-08-31 05:44:45 | 53.19463 | 8.28396 | 65° | 51km/h | 16125m | -18.2m/s | -49.4°C | 1.1% | 105.4hPa | 2.6V | 00:00:00 | 00:00:00 | 00:00:00 | |
| HSKMA3-T | 2026-08-31 05:44:44 | 53.19458 | 8.28376 | 64° | 53km/h | 16143m | -17.8m/s | -49.5°C | 0.3% | 105.1hPa | 2.6V | 08:20:21 | 02:13:04 | 00:00:00 | |
| DF8AY | 2026-08-31 05:44:41 | 53.19442 | 8.28317 | 66° | 49km/h | 16197m | -17.9m/s | -49.2°C | 0.3% | 104.2hPa | 2.7V | 08:20:21 | 02:13:01 | 00:00:00 | |
| DB0DAN | 2026-08-31 05:44:40 | 53.19438 | 8.28299 | 68° | 44km/h | 16215m | -17.1m/s | -49.1°C | 1.1% | 103.98hPa | 2.7V | 00:00:00 | 00:00:00 | 00:00:00 | |
| BIOWL1-15 | 2026-08-31 05:44:40 | 53.19438 | 8.28299 | 68° | 47km/h | 16215m | -17.1m/s | -49.1°C | 0.3% | 104hPa | 2.7V | 08:20:21 | 02:13:00 | 00:00:00 | |
| DO2JMG | 2026-08-31 05:44:36 | 53.19422 | 8.28230 | 69° | 40km/h | 16285m | -18.7m/s | -48.7°C | 0.2% | 102.9hPa | 2.6V | 08:20:21 | 02:12:56 | 00:00:00 | |
| HSKMA3-T | 2026-08-31 05:44:34 | 53.19414 | 8.28200 | 68° | 37km/h | 16321m | -17.9m/s | -48.3°C | 0.1% | 102.3hPa | 2.7V | 08:20:21 | 02:12:54 | 00:00:00 | |
| DB0UT-7 | 2026-08-31 05:44:34 | 53.19414 | 8.28199 | 69° | 44km/h | 16321m | -17.8m/s | -48.3°C | 3.1% | 102.2hPa | 2.6V | 00:00:00 | 02:12:54 | 00:00:00 | |
| DO2SHX-10 | 2026-08-31 05:44:33 | 53.19410 | 8.28185 | 65° | 37km/h | 16339m | -17.7m/s | -48.3°C | 3.2% | 102.0hPa | 2.6V | 00:00:00 | 02:12:53 | 00:00:00 | |
| DD8BA-10 | 2026-08-31 05:44:32 | 53.19406 | 8.28171 | 65° | 38km/h | 16357m | -17.8m/s | -48.2°C | 3.2% | 101.7hPa | 2.6V | 00:00:00 | 00:00:00 | 00:00:00 | |
| GOEST3-10 | 2026-08-31 05:44:31 | 53.19402 | 8.28157 | 65° | 37km/h | 16375m | -18.0m/s | -47.9°C | 3.0% | 101.4hPa | 2.6V | 00:00:00 | 02:12:51 | 00:00:00 | |
| DM0DOS-11 | 2026-08-31 05:44:30 | 53.19369 | 8.28079 | 48° | 40km/h | 16482m | -17.5m/s | -48.3°C | 3.2% | 99.8hPa | 2.6V | 08:20:12 | 02:12:45 | 00:00:00 | |
| BIOWL1-15 | 2026-08-31 05:44:30 | 53.19398 | 8.28144 | 58° | 37km/h | 16393m | -18.2m/s | -47.9°C | 0% | 101.2hPa | 2.7V | 08:20:21 | 02:12:50 | 00:00:00 | |
| AA1-15 | 2026-08-31 05:44:29 | 53.19393 | 8.28131 | 60° | 37km/h | 16411m | -18.1m/s | -48°C | 0% | 100.9hPa | 2.7V | 08:20:21 | 02:12:49 | 00:00:00 | |
| DL1XH-west | 2026-08-31 05:44:26 | 53.19376 | 8.28092 | 50° | 40km/h | 16465m | -18.2m/s | -48.3°C | 0.1% | 100.1hPa | 2.6V | 08:20:21 | 02:12:46 | 00:00:00 | |
| DB0DAN | 2026-08-31 05:44:25 | 53.19369 | 8.28079 | 49° | 38km/h | 16483m | -17.5m/s | -48.3°C | 1% | 99.84hPa | 2.6V | 00:00:00 | 00:00:00 | 00:00:00 | |
| DO2JMG | 2026-08-31 05:44:25 | 53.19369 | 8.28079 | 49° | 40km/h | 16482m | -17.5m/s | -48.3°C | 0.1% | 99.8hPa | 2.6V | 08:20:21 | 02:12:45 | 00:00:00 | |
| HSKMA3-T | 2026-08-31 05:44:23 | 53.19354 | 8.28053 | 46° | 44km/h | 16518m | -18.4m/s | -48.5°C | 0.1% | 99.3hPa | 2.7V | 08:20:21 | 02:12:43 | 00:00:00 | |
| DF8AY | 2026-08-31 05:44:20 | 53.19329 | 8.28011 | 43° | 47km/h | 16573m | -17.9m/s | -48.9°C | 0.2% | 98.5hPa | 2.6V | 08:20:21 | 02:12:40 | 00:00:00 | |
| BIOWL1-15 | 2026-08-31 05:44:19 | 53.19320 | 8.27997 | 46° | 47km/h | 16591m | -18.4m/s | -49.1°C | 0.2% | 98.2hPa | 2.6V | 08:20:21 | 02:12:39 | 00:00:00 | |
| DM0DOS-11 | 2026-08-31 05:44:18 | 53.19288 | 8.27937 | 48° | 47km/h | 16661m | -17.1m/s | -49.4°C | 3.4% | 97.1hPa | 2.6V | 08:20:22 | 02:12:35 | 00:00:00 | |
| DF5WG-10 | 2026-08-31 05:44:17 | 53.19304 | 8.27967 | 48° | 40km/h | 16627m | -17.8m/s | -49.2°C | 3.4% | 97.6hPa | 2.7V | 00:00:00 | 02:12:37 | 00:00:00 | |
| DL1XH-15 | 2026-08-31 05:44:16 | 53.19259 | 8.27873 | 56° | 46km/h | 16732m | -18.1m/s | -49.3°C | 3.3% | 96hPa | 2.7V | 08:20:26 | 02:12:31 | 00:00:00 | |
| DL1XH-west | 2026-08-31 05:44:16 | 53.19296 | 8.27952 | 49° | 49km/h | 16644m | -17.2m/s | -49.4°C | 0.3% | 97.3hPa | 2.7V | 08:20:21 | 02:12:36 | 00:00:00 | |
| DO2JMG | 2026-08-31 05:44:15 | 53.19288 | 8.27937 | 48° | 47km/h | 16661m | -17.1m/s | -49.4°C | 0.3% | 97.1hPa | 2.6V | 08:21:12 | 02:12:35 | 00:00:00 | |
| HSKMA3-T | 2026-08-31 05:44:13 | 53.19273 | 8.27905 | 54° | 49km/h | 16697m | -17.8m/s | -49.2°C | 0.2% | 96.6hPa | 2.6V | 08:21:12 | 02:12:33 | 00:00:00 | |
| DF4FW | 2026-08-31 05:44:12 | 53.19273 | 8.27905 | 55° | 49km/h | 16697m | -17.8m/s | -49.2°C | 1.0% | 96.6hPa | 2.7V | 08:21:00 | 00:00:00 | 00:00:00 | |
| DB0DAN | 2026-08-31 05:44:10 | 53.19252 | 8.27857 | 55° | 46km/h | 16750m | -17.4m/s | -49.3°C | 1% | 95.79hPa | 2.7V | 00:00:00 | 00:00:00 | 00:00:00 | |
| DF8AY | 2026-08-31 05:44:09 | 53.19246 | 8.27841 | 59° | 46km/h | 16767m | -17.9m/s | -49.3°C | 0.2% | 95.5hPa | 2.6V | 08:21:12 | 02:12:29 | 00:00:00 | |
| BIOWL1-15 | 2026-08-31 05:44:08 | 53.19240 | 8.27825 | 57° | 46km/h | 16785m | -17.2m/s | -49.2°C | 0.2% | 95.3hPa | 2.6V | 08:21:12 | 02:12:28 | 00:00:00 | |
| DO2SHX-10 | 2026-08-31 05:44:08 | 53.19240 | 8.27825 | 58° | 44km/h | 16785m | -17.2m/s | -49.2°C | 3.3% | 95.2hPa | 2.7V | 00:00:00 | 02:12:28 | 00:00:00 | |
| DD1CC3-15 | 2026-08-31 05:44:07 | 53.19240 | 8.27825 | 58° | 46km/h | 16785m | -17.2m/s | -49.2°C | 1.1% | 95.3hPa | 2.7V | 08:21:00 | 00:00:00 | 00:00:00 | |
| DM0DOS-11 | 2026-08-31 05:44:06 | 53.19222 | 8.27779 | 57° | 40km/h | 16840m | -19m/s | -49°C | 3.2% | 94.5hPa | 2.7V | 08:20:32 | 02:12:25 | 00:00:00 | |
| DL1XH-15 | 2026-08-31 05:44:06 | 53.19199 | 8.27724 | 55° | 37km/h | 16912m | -17.9m/s | -49.2°C | 3.2% | 93.4hPa | 2.7V | 08:20:36 | 02:12:21 | 00:00:00 | |
| DL1XH1-15 | 2026-08-31 05:44:06 | 53.19217 | 8.27765 | 57° | 42km/h | 16858m | -18.3m/s | -49°C | 3.2% | 94.2hPa | 2.6V | 08:20:33 | 02:12:24 | 00:00:00 | |
| DL1XH-west | 2026-08-31 05:44:06 | 53.19228 | 8.27794 | 55° | 44km/h | 16821m | -18.8m/s | -48.9°C | 0.1% | 94.7hPa | 2.7V | 08:21:12 | 02:12:26 | 00:00:00 | |
| DO2JMG | 2026-08-31 05:44:05 | 53.19222 | 8.27779 | 58° | 40km/h | 16840m | -19m/s | -49°C | 0.2% | 94.5hPa | 2.7V | 08:21:12 | 02:12:25 | 00:00:00 | |
| HSKMA3-T | 2026-08-31 05:44:03 | 53.19211 | 8.27751 | 55° | 40km/h | 16876m | -18.3m/s | -49.1°C | 0.1% | 93.9hPa | 2.6V | 08:21:12 | 02:12:23 | 00:00:00 | |
| DF8AY-15 | 2026-08-31 05:44:03 | 53.19210 | 8.27751 | 55° | 38km/h | 16876m | -18.3m/s | -49.1°C | 3.2% | 93.9hPa | 2.6V | 00:00:00 | 02:12:23 | 00:00:00 | |
| DL8OAI-8 | 2026-08-31 05:44:02 | 53.19210 | 8.27751 | 56° | 40km/h | 16876m | -18.3m/s | -49.1°C | 1.0% | 93.9hPa | 2.7V | 08:21:00 | 00:00:00 | 00:00:00 | |
| DD1CC8 | 2026-08-31 05:44:01 | 53.19194 | 8.27712 | 51° | 37km/h | 16931m | -18.3m/s | -49.2°C | 1.0% | 93.1hPa | 2.7V | 00:00:00 | 00:00:00 | 00:00:00 | |
| DL4XJ-10 | 2026-08-31 05:44:00 | 53.19194 | 8.27712 | 52° | 37km/h | 16931m | -18.2m/s | -48.3°C | 0% | 0hPa | 2.7V | 00:00:00 | 00:00:00 | 00:00:00 | |
| DL1XH1-15 | 2026-08-31 05:43:59 | 53.19157 | 8.27651 | 36° | 35km/h | 17041m | -17.8m/s | -49.8°C | 3.3% | 91.6hPa | 2.7V | 08:20:43 | 02:12:14 | 00:00:00 | |
| DF8AY | 2026-08-31 05:43:59 | 53.19188 | 8.27700 | 52° | 35km/h | 16949m | -18.6m/s | -49.2°C | 0.1% | 92.9hPa | 2.7V | 08:21:12 | 02:12:19 | 00:00:00 | |
| BIOWL1-15 | 2026-08-31 05:43:57 | 53.19176 | 8.27679 | 44° | 35km/h | 16985m | -19.4m/s | -49.4°C | 0.2% | 92.4hPa | 2.6V | 08:21:12 | 02:12:17 | 00:00:00 | |
| DM0DOS-11 | 2026-08-31 05:43:56 | 53.19164 | 8.27660 | 39° | 35km/h | 17022m | -18.7m/s | -49.7°C | 3.3% | 91.9hPa | 2.6V | 08:20:42 | 02:12:15 | 00:00:00 | |
| DL1XH-15 | 2026-08-31 05:43:56 | 53.19134 | 8.27626 | 31° | 38km/h | 17095m | -18.4m/s | -50.2°C | 3.4% | 90.8hPa | 2.6V | 08:20:46 | 02:12:11 | 00:00:00 | |
| DL1XH-west | 2026-08-31 05:43:55 | 53.19164 | 8.27660 | 39° | 35km/h | 17023m | -18.7m/s | -49.7°C | 0.2% | 91.9hPa | 2.6V | 08:21:12 | 02:12:15 | 00:00:00 | |
| DB0DAN | 2026-08-31 05:43:55 | 53.19164 | 8.27660 | 39° | 33km/h | 17023m | -18.7m/s | -49.7°C | 1% | 91.87hPa | 2.6V | 00:00:00 | 00:00:00 | 00:00:00 | |
| DO2JMG | 2026-08-31 05:43:54 | 53.19157 | 8.27651 | 37° | 35km/h | 17041m | -17.8m/s | -49.8°C | 0.2% | 91.6hPa | 2.7V | 08:21:12 | 02:12:14 | 00:00:00 | |
| HSKMA3-T | 2026-08-31 05:43:52 | 53.19142 | 8.27634 | 33° | 35km/h | 17077m | -18.3m/s | -50.1°C | 0.3% | 91.1hPa | 2.7V | 08:21:12 | 02:12:12 | 00:00:00 | |
| DF8AY | 2026-08-31 05:43:48 | 53.19109 | 8.27602 | 30° | 38km/h | 17152m | -18.6m/s | -50.5°C | 0.3% | 90.1hPa | 2.7V | 08:21:12 | 02:12:08 | 00:00:00 | |
| AA1-15 | 2026-08-31 05:43:47 | 53.19101 | 8.27594 | 35° | 38km/h | 17171m | -20.2m/s | -50.6°C | 0.3% | 89.8hPa | 2.7V | 08:21:12 | 02:12:07 | 00:00:00 | |
| DL3AQ-11 | 2026-08-31 05:43:47 | 53.19093 | 8.27585 | 34° | 37km/h | 17191m | -20.1m/s | -50.7°C | 1.1% | 89.6hPa | 2.6V | 00:00:00 | 00:00:00 | 00:00:00 | |
| DM0DOS-11 | 2026-08-31 05:43:46 | 53.19085 | 8.27575 | 39° | 40km/h | 17211m | -20.1m/s | -50.9°C | 3.6% | 89.3hPa | 2.6V | 08:20:52 | 02:12:05 | 00:00:00 | |
| DL1XH1-15 | 2026-08-31 05:43:46 | 53.19078 | 8.27564 | 42° | 42km/h | 17230m | -18.8m/s | -50.9°C | 3.6% | 89hPa | 2.7V | 08:20:53 | 02:12:04 | 00:00:00 | |
| DO2JMG | 2026-08-31 05:43:44 | 53.19078 | 8.27564 | 42° | 42km/h | 17230m | -18.8m/s | -50.9°C | 0.4% | 89hPa | 2.7V | 08:21:12 | 02:12:04 | 00:00:00 | |
| HSKMA3-T | 2026-08-31 05:43:42 | 53.19062 | 8.27540 | 46° | 42km/h | 17267m | -18.9m/s | -50.9°C | 0.4% | 88.5hPa | 2.6V | 08:21:12 | 02:12:02 | 00:00:00 | |
| DB0DAN | 2026-08-31 05:43:40 | 53.19048 | 8.27513 | 49° | 46km/h | 17303m | -18.2m/s | -51.2°C | 1.1% | 87.96hPa | 2.6V | 00:00:00 | 00:00:00 | 00:00:00 | |
| DL4XJ-10 | 2026-08-31 05:43:40 | 53.19047 | 8.27513 | 49° | 44km/h | 17303m | -18.2m/s | -50.4°C | 0% | 0hPa | 2.6V | 00:00:00 | 00:00:00 | 00:00:00 | |
| DL1XH1-15 | 2026-08-31 05:43:39 | 53.19000 | 8.27422 | 49° | 46km/h | 17415m | -18.9m/s | -51.8°C | 3.9% | 86.5hPa | 2.6V | 08:21:03 | 02:11:54 | 00:00:00 | |
| DF8AY | 2026-08-31 05:43:38 | 53.19032 | 8.27483 | 49° | 46km/h | 17341m | -19.1m/s | -51.4°C | 0.5% | 87.4hPa | 2.7V | 08:21:12 | 02:11:58 | 00:00:00 | |
| BIOWL1-15 | 2026-08-31 05:43:37 | 53.19024 | 8.27468 | 49° | 49km/h | 17360m | -18.6m/s | -51.5°C | 0.5% | 87.2hPa | 2.7V | 08:21:12 | 02:11:57 | 00:00:00 | |
| DM0DOS-11 | 2026-08-31 05:43:36 | 53.19008 | 8.27437 | 49° | 49km/h | 17396m | -19.1m/s | -51.7°C | 3.9% | 86.7hPa | 2.6V | 08:21:02 | 02:11:55 | 00:00:00 | |
| DL1XH-15 | 2026-08-31 05:43:36 | 53.18978 | 8.27378 | 50° | 44km/h | 17474m | -19.8m/s | -51.5°C | 3.8% | 85.7hPa | 2.7V | 08:21:06 | 02:11:51 | 00:00:00 | |
| DL1XH-west | 2026-08-31 05:43:34 | 53.19000 | 8.27422 | 49° | 46km/h | 17415m | -18.9m/s | -51.8°C | 0.6% | 86.5hPa | 2.6V | 08:21:12 | 02:11:54 | 00:00:00 | |
| HSKMA3-T | 2026-08-31 05:43:32 | 53.18985 | 8.27392 | 51° | 46km/h | 17455m | -20.1m/s | -51.7°C | 0.6% | 86hPa | 2.7V | 08:21:12 | 02:11:52 | 00:00:00 | |
| AA1-15 | 2026-08-31 05:43:27 | 53.18956 | 8.27319 | 65° | 40km/h | 17551m | -17.6m/s | -51.3°C | 0.5% | 84.6hPa | 2.6V | 08:21:12 | 02:11:47 | 00:00:00 | |
| DM0DOS-11 | 2026-08-31 05:43:26 | 53.18948 | 8.27289 | 67° | 37km/h | 17588m | -18.7m/s | -51.5°C | 3.9% | 84.2hPa | 2.7V | 08:21:12 | 02:11:45 | 00:00:00 | |
| DL1XH1-15 | 2026-08-31 05:43:26 | 53.18945 | 8.27274 | 68° | 37km/h | 17606m | -18.8m/s | -51.5°C | 3.9% | 83.9hPa | 2.6V | 08:21:13 | 02:11:44 | 00:00:00 | |
| BIOWL1-15 | 2026-08-31 05:43:26 | 53.18952 | 8.27304 | 65° | 40km/h | 17569m | -18m/s | -51.4°C | 0.6% | 84.5hPa | 2.7V | 08:21:12 | 02:11:46 | 00:00:00 | |
| DB0DAN | 2026-08-31 05:43:25 | 53.18948 | 8.27289 | 68° | 37km/h | 17588m | -18.7m/s | -51.5°C | 1.2% | 84.21hPa | 2.7V | 00:00:00 | 00:00:00 | 00:00:00 | |
| DO2JMG | 2026-08-31 05:43:23 | 53.18941 | 8.27259 | 67° | 40km/h | 17625m | -17.5m/s | -51.5°C | 0.6% | 83.7hPa | 2.6V | 08:22:03 | 02:11:43 | 00:00:00 | |
| HSKMA3-T | 2026-08-31 05:43:21 | 53.18933 | 8.27229 | 62° | 40km/h | 17662m | -18.6m/s | -51.4°C | 0.6% | 83.2hPa | 2.7V | 08:22:03 | 02:11:41 | 00:00:00 | |
| GOEST3-10 | 2026-08-31 05:43:21 | 53.18933 | 8.27229 | 63° | 40km/h | 17662m | -18.5m/s | -51.3°C | 3.9% | 83.2hPa | 2.7V | 08:21:00 | 02:11:41 | 00:00:00 | |
| DL4XJ-10 | 2026-08-31 05:43:20 | 53.18929 | 8.27214 | 64° | 37km/h | 17680m | -19.0m/s | -50.6°C | 0% | 0hPa | 2.6V | 00:00:00 | 00:00:00 | 00:00:00 | |
| DL1XH1-15 | 2026-08-31 05:43:19 | 53.18896 | 8.27122 | 59° | 44km/h | 17796m | -19.5m/s | -50.7°C | 3.7% | 81.5hPa | 2.6V | 08:21:23 | 02:11:34 | 00:00:00 | |
| DF8AY | 2026-08-31 05:43:17 | 53.18913 | 8.27169 | 60° | 42km/h | 17738m | -19.4m/s | -51.1°C | 0.5% | 82.3hPa | 2.7V | 08:22:03 | 02:11:37 | 00:00:00 | |
| DM0DOS-11 | 2026-08-31 05:43:16 | 53.18902 | 8.27138 | 58° | 42km/h | 17776m | -19.4m/s | -50.8°C | 3.7% | 81.8hPa | 2.7V | 08:21:22 | 02:11:35 | 00:00:00 | |
| BIOWL1-15 | 2026-08-31 05:43:15 | 53.18902 | 8.27138 | 59° | 42km/h | 17776m | -19.4m/s | -50.8°C | 0.5% | 81.8hPa | 2.7V | 08:22:03 | 02:11:35 | 00:00:00 | |
| DO2JMG | 2026-08-31 05:43:12 | 53.18886 | 8.27092 | 60° | 42km/h | 17837m | -19.9m/s | -50.7°C | 0.5% | 81hPa | 2.6V | 08:22:03 | 02:11:32 | 00:00:00 | |
| HSKMA3-T | 2026-08-31 05:43:11 | 53.18881 | 8.27078 | 62° | 38km/h | 17857m | -20.1m/s | -50.8°C | 0.5% | 80.7hPa | 2.6V | 08:22:03 | 02:11:31 | 00:00:00 | |
| DB0DAN | 2026-08-31 05:43:10 | 53.18876 | 8.27064 | 62° | 37km/h | 17877m | -19.4m/s | -50.9°C | 1.1% | 80.52hPa | 2.7V | 00:00:00 | 00:00:00 | 00:00:00 | |
| DF4FW | 2026-08-31 05:43:10 | 53.18876 | 8.27064 | 63° | 38km/h | 17877m | -19.4m/s | -50.9°C | 1.1% | 80.5hPa | 2.7V | 08:22:00 | 00:00:00 | 00:00:00 | |
| DC6BW-12 | 2026-08-31 05:43:07 | 53.18867 | 8.27039 | 62° | 33km/h | 17915m | -18.9m/s | -50.8°C | 1.2% | 80.1hPa | 2.7V | 08:22:00 | 00:00:00 | 00:00:00 | |
| DL1XH1-15 | 2026-08-31 05:43:06 | 53.18850 | 8.26997 | 49° | 29km/h | 17993m | -18.4m/s | -49.9°C | 3.5% | 79hPa | 2.7V | 08:21:33 | 02:11:24 | 00:00:00 | |
| AA1-15 | 2026-08-31 05:43:06 | 53.18858 | 8.27016 | 54° | 29km/h | 17954m | -19.2m/s | -50.4°C | 0.5% | 79.6hPa | 2.6V | 08:22:03 | 02:11:26 | 00:00:00 | |
| BIOWL1-15 | 2026-08-31 05:43:05 | 53.18854 | 8.27006 | 54° | 27km/h | 17973m | -20.5m/s | -50°C | 0.4% | 79.3hPa | 2.6V | 08:22:03 | 02:11:25 | 00:00:00 | |
| DL1XH-west | 2026-08-31 05:43:02 | 53.18840 | 8.26980 | 41° | 29km/h | 18030m | -19.4m/s | -49.9°C | 0.4% | 78.6hPa | 2.6V | 08:22:03 | 02:11:22 | 00:00:00 | |
| DO2JMG | 2026-08-31 05:43:01 | 53.18834 | 8.26973 | 34° | 29km/h | 18049m | -18.9m/s | -50.1°C | 0.4% | 78.4hPa | 2.6V | 08:22:03 | 02:11:21 | 00:00:00 | |
| DD1CC8 | 2026-08-31 05:42:58 | 53.18815 | 8.26953 | 28° | 29km/h | 18109m | -20.4m/s | -50.1°C | 1.1% | 77.7hPa | 2.7V | 00:00:00 | 00:00:00 | 00:00:00 | |
| DM0DOS-11 | 2026-08-31 05:42:56 | 53.18794 | 8.26934 | 29° | 33km/h | 18169m | -19.4m/s | -49.8°C | 3.5% | 76.9hPa | 2.7V | 08:21:42 | 02:11:15 | 00:00:00 | |
| DF8AY | 2026-08-31 05:42:56 | 53.18801 | 8.26941 | 29° | 31km/h | 18149m | -20.1m/s | -49.9°C | 0.4% | 77.2hPa | 2.6V | 08:22:03 | 02:11:16 | 00:00:00 | |
| DL3AQ-11 | 2026-08-31 05:42:56 | 53.18794 | 8.26934 | 29° | 33km/h | 18169m | -19.4m/s | -49.8°C | 1.1% | 76.9hPa | 2.7V | 00:00:00 | 00:00:00 | 00:00:00 | |
| DB0DAN | 2026-08-31 05:42:55 | 53.18794 | 8.26934 | 30° | 31km/h | 18169m | -19.4m/s | -49.8°C | 1.1% | 76.94hPa | 2.7V | 00:00:00 | 00:00:00 | 00:00:00 | |
| BIOWL1-15 | 2026-08-31 05:42:54 | 53.18787 | 8.26927 | 32° | 31km/h | 18187m | -18.9m/s | -49.8°C | 0.3% | 76.7hPa | 2.7V | 08:22:03 | 02:11:14 | 00:00:00 | |
| DL1XH-west | 2026-08-31 05:42:52 | 53.18774 | 8.26911 | 42° | 31km/h | 18227m | -19.4m/s | -49.6°C | 0.3% | 76.2hPa | 2.6V | 08:22:03 | 02:11:12 | 00:00:00 | |
| DO2JMG | 2026-08-31 05:42:50 | 53.18763 | 8.26894 | 51° | 27km/h | 18266m | -19.6m/s | -49.5°C | 0.3% | 75.8hPa | 2.6V | 08:22:03 | 02:11:10 | 00:00:00 | |
| SONCRA | 2026-08-31 05:42:49 | 53.18759 | 8.26885 | 56° | 27km/h | 18286m | -19.6m/s | -49.3°C | 1.0% | 75.6hPa | 2.6V | 00:00:00 | 00:00:00 | 00:00:00 | |
| EDDB2-12 | 2026-08-31 05:42:48 | 53.18753 | 8.26867 | 68° | 24km/h | 18325m | -19.9m/s | -49.2°C | 1.0% | 75.1hPa | 2.6V | 00:00:00 | 00:00:00 | 00:00:00 | |
| D01LWL | 2026-08-31 05:42:47 | 53.18753 | 8.26867 | 68° | 24km/h | 18325m | -19.9m/s | -49.2°C | 1.0% | 75.1hPa | 2.6V | 00:00:00 | 00:00:00 | 00:00:00 | |
| DM0DOS-11 | 2026-08-31 05:42:46 | 53.18750 | 8.26850 | 84° | 18km/h | 18366m | -19.6m/s | -49°C | 3.2% | 74.7hPa | 2.6V | 08:21:52 | 02:11:05 | 00:00:00 | |
| AA1-15 | 2026-08-31 05:42:46 | 53.18751 | 8.26858 | 71° | 20km/h | 18346m | -19.8m/s | -49°C | 0.2% | 74.9hPa | 2.6V | 08:22:03 | 02:11:06 | 00:00:00 | |
| DF8AY | 2026-08-31 05:42:45 | 53.18750 | 8.26850 | 84° | 18km/h | 18366m | -19.6m/s | -49°C | 0.1% | 74.7hPa | 2.6V | 08:22:03 | 02:11:05 | 00:00:00 | |
| BIOWL1-15 | 2026-08-31 05:42:43 | 53.18749 | 8.26837 | 94° | 13km/h | 18404m | -18.9m/s | -49.1°C | 0.2% | 74.2hPa | 2.7V | 08:22:03 | 02:11:03 | 00:00:00 | |
| DL1XH-west | 2026-08-31 05:42:42 | 53.18750 | 8.26831 | 100° | 13km/h | 18423m | -19m/s | -49.2°C | 0.2% | 74hPa | 2.7V | 08:22:03 | 02:11:02 | 00:00:00 | |
| DB0DAN | 2026-08-31 05:42:40 | 53.18751 | 8.26821 | 105° | 9km/h | 18462m | -19.8m/s | -49.4°C | 1% | 73.57hPa | 2.6V | 00:00:00 | 00:00:00 | 00:00:00 | |
| DO2JMG | 2026-08-31 05:42:39 | 53.18751 | 8.26817 | 84° | 11km/h | 18482m | -20.3m/s | -49.4°C | 0.2% | 73.4hPa | 2.6V | 08:22:03 | 02:10:59 | 00:00:00 | |
| DF4FW | 2026-08-31 05:42:38 | 53.18750 | 8.26813 | 67° | 9km/h | 18502m | -19.0m/s | -49.4°C | 1.0% | 73.2hPa | 2.6V | 08:22:00 | 00:00:00 | 00:00:00 | |
| DM0DOS-11 | 2026-08-31 05:42:36 | 53.18746 | 8.26803 | 38° | 11km/h | 18560m | -19.8m/s | -49.3°C | 3.3% | 72.5hPa | 2.6V | 08:22:02 | 02:10:55 | 00:00:00 | |
| DL1XH-15 | 2026-08-31 05:42:36 | 53.18733 | 8.26790 | 29° | 18km/h | 18639m | -19.3m/s | -49.8°C | 3.3% | 71.6hPa | 2.7V | 08:22:06 | 02:10:51 | 00:00:00 | |
| AA1-15 | 2026-08-31 05:42:36 | 53.18748 | 8.26806 | 43° | 11km/h | 18541m | -18.9m/s | -49.2°C | 0.2% | 72.7hPa | 2.6V | 08:22:03 | 02:10:56 | 00:00:00 | |
| GOEST3-10 | 2026-08-31 05:42:36 | 53.18748 | 8.26806 | 44° | 15km/h | 18541m | -18.8m/s | -49.2°C | 3.3% | 72.6hPa | 2.6V | 08:22:00 | 00:00:00 | 00:00:00 | |
| DL1NUX | 2026-08-31 05:42:35 | 53.18740 | 8.26797 | 26° | 16km/h | 18600m | -20.3m/s | -49.5°C | 3.3% | 72hPa | 2.7V | 08:22:04 | 02:10:53 | 00:00:00 | |
| DF8AY | 2026-08-31 05:42:35 | 53.18746 | 8.26803 | 38° | 11km/h | 18560m | -19.8m/s | -49.3°C | 0.2% | 72.5hPa | 2.6V | 08:22:03 | 02:10:55 | 00:00:00 | |
| DL1XH-west | 2026-08-31 05:42:32 | 53.18736 | 8.26793 | 31° | 15km/h | 18620m | -20.3m/s | -49.6°C | 0.2% | 71.8hPa | 2.7V | 08:22:54 | 02:10:52 | 00:00:00 | |
| GOEST3-10 | 2026-08-31 05:42:31 | 53.18733 | 8.26790 | 30° | 15km/h | 18639m | -19.3m/s | -49.7°C | 3.3% | 71.5hPa | 2.6V | 00:00:00 | 02:10:51 | 00:00:00 | |
| DL1XH1-15 | 2026-08-31 05:42:29 | 53.18713 | 8.26762 | 48° | 16km/h | 18783m | -20.7m/s | -50.3°C | 3.4% | 70hPa | 2.6V | 08:22:13 | 02:10:44 | 00:00:00 | |
| DO2JMG | 2026-08-31 05:42:29 | 53.18726 | 8.26783 | 31° | 16km/h | 18679m | -20.5m/s | -50°C | 0.3% | 71.2hPa | 2.6V | 08:22:54 | 02:10:49 | 00:00:00 | |
| HSKMA3-T | 2026-08-31 05:42:28 | 53.18723 | 8.26779 | 41° | 15km/h | 18699m | -20.8m/s | -50.1°C | 0.3% | 71hPa | 2.6V | 08:22:54 | 02:10:48 | 00:00:00 | |
| DM0DOS-11 | 2026-08-31 05:42:26 | 53.18715 | 8.26767 | 49° | 13km/h | 18762m | -21m/s | -50.3°C | 3.5% | 70.2hPa | 2.6V | 08:22:12 | 02:10:45 | 00:00:00 | |
| AA1-15 | 2026-08-31 05:42:26 | 53.18718 | 8.26771 | 44° | 16km/h | 18742m | -20.7m/s | -50.3°C | 0.3% | 70.5hPa | 2.7V | 08:22:54 | 02:10:46 | 00:00:00 | |
| DB0DAN | 2026-08-31 05:42:25 | 53.18715 | 8.26767 | 49° | 13km/h | 18762m | -21m/s | -50.3°C | 1% | 70.23hPa | 2.6V | 00:00:00 | 00:00:00 | 00:00:00 | |
| DF8AY | 2026-08-31 05:42:24 | 53.18713 | 8.26762 | 49° | 16km/h | 18783m | -20.7m/s | -50.3°C | 0.3% | 70.1hPa | 2.6V | 08:22:54 | 02:10:44 | 00:00:00 | |
| BIOWL1-15 | 2026-08-31 05:42:21 | 53.18703 | 8.26747 | 45° | 18km/h | 18846m | -22.1m/s | -50.3°C | 0.3% | 69.4hPa | 2.6V | 08:22:54 | 02:10:41 | 00:00:00 | |
| DO2JMG | 2026-08-31 05:42:19 | 53.18696 | 8.26736 | 36° | 20km/h | 18887m | -20.1m/s | -50.6°C | 0.4% | 68.9hPa | 2.6V | 08:22:54 | 02:10:39 | 00:00:00 | |
| HSKMA3-T | 2026-08-31 05:42:17 | 53.18688 | 8.26728 | 30° | 20km/h | 18928m | -20.9m/s | -50.7°C | 0.4% | 68.5hPa | 2.7V | 08:22:54 | 02:10:37 | 00:00:00 | |
| AA1-15 | 2026-08-31 05:42:15 | 53.18679 | 8.26721 | 25° | 18km/h | 18969m | -19.5m/s | -50.9°C | 0.4% | 68.1hPa | 2.6V | 08:22:54 | 02:10:35 | 00:00:00 | |
| DL1NUX | 2026-08-31 05:42:15 | 53.18666 | 8.26714 | 13° | 20km/h | 19028m | -20m/s | -51.1°C | 3.6% | 67.4hPa | 2.7V | 08:22:25 | 02:10:32 | 00:00:00 | |
| DL1XH1-15 | 2026-08-31 05:42:14 | 53.18675 | 8.26719 | 18° | 18km/h | 18988m | -19.8m/s | -50.9°C | 3.6% | 67.8hPa | 2.6V | 08:22:23 | 02:10:34 | 00:00:00 | |
| DF8AY | 2026-08-31 05:42:14 | 53.18675 | 8.26719 | 18° | 18km/h | 18988m | -19.8m/s | -50.9°C | 0.4% | 67.8hPa | 2.6V | 08:22:54 | 02:10:34 | 00:00:00 | |
| DL1XH-west | 2026-08-31 05:42:11 | 53.18661 | 8.26712 | 17° | 18km/h | 19048m | -20.8m/s | -51.2°C | 0.5% | 67.2hPa | 2.7V | 08:22:54 | 02:10:31 | 00:00:00 | |
| DB0DAN | 2026-08-31 05:42:10 | 53.18656 | 8.26710 | 21° | 20km/h | 19069m | -19.4m/s | -51.2°C | 1.1% | 67.02hPa | 2.6V | 00:00:00 | 00:00:00 | 00:00:00 | |
| DO2JMG | 2026-08-31 05:42:08 | 53.18645 | 8.26703 | 21° | 27km/h | 19112m | -21.1m/s | -50.8°C | 0.4% | 66.6hPa | 2.6V | 08:22:54 | 02:10:28 | 00:00:00 | |
| DM0DOS-11 | 2026-08-31 05:42:06 | 53.18624 | 8.26692 | 15° | 31km/h | 19176m | -21.4m/s | -50.8°C | 3.5% | 65.9hPa | 2.7V | 08:22:32 | 02:10:25 | 00:00:00 | |
| HSKMA3-T | 2026-08-31 05:42:06 | 53.18632 | 8.26696 | 17° | 31km/h | 19155m | -21.7m/s | -50.7°C | 0.3% | 66.2hPa | 2.7V | 08:22:54 | 02:10:26 | 00:00:00 | |
| AA1-15 | 2026-08-31 05:42:04 | 53.18616 | 8.26688 | 16° | 33km/h | 19198m | -21.5m/s | -50.9°C | 0.4% | 65.7hPa | 2.6V | 08:22:54 | 02:10:24 | 00:00:00 | |
| DF8AY | 2026-08-31 05:42:03 | 53.18608 | 8.26685 | 15° | 35km/h | 19219m | -22.2m/s | -51°C | 0.4% | 65.5hPa | 2.6V | 08:22:54 | 02:10:23 | 00:00:00 | |
| DL1XH-west | 2026-08-31 05:42:00 | 53.18584 | 8.26674 | 12° | 33km/h | 19284m | -21.3m/s | -51.4°C | 0.5% | 64.8hPa | 2.7V | 08:22:54 | 02:10:20 | 00:00:00 | |
| DO2JMG | 2026-08-31 05:41:58 | 53.18568 | 8.26667 | 16° | 35km/h | 19327m | -21.9m/s | -51.7°C | 0.5% | 64.4hPa | 2.6V | 08:22:54 | 02:10:18 | 00:00:00 | |
| DM0DOS-11 | 2026-08-31 05:41:56 | 53.18544 | 8.26651 | 27° | 37km/h | 19392m | -20.9m/s | -51.9°C | 3.8% | 63.8hPa | 2.6V | 08:22:42 | 02:10:15 | 00:00:00 | |
| HSKMA3-T | 2026-08-31 05:41:56 | 53.18552 | 8.26657 | 24° | 33km/h | 19371m | -21.8m/s | -51.9°C | 0.6% | 64hPa | 2.7V | 08:22:54 | 02:10:16 | 00:00:00 | |
| DB0DAN | 2026-08-31 05:41:55 | 53.18545 | 8.26651 | 27° | 35km/h | 19392m | -20.9m/s | -51.9°C | 1.1% | 63.79hPa | 2.6V | 00:00:00 | 00:00:00 | 00:00:00 | |
| AA1-15 | 2026-08-31 05:41:54 | 53.18537 | 8.26643 | 32° | 37km/h | 19413m | -21m/s | -52°C | 0.6% | 63.6hPa | 2.6V | 08:22:54 | 02:10:14 | 00:00:00 | |
| DF8AY | 2026-08-31 05:41:53 | 53.18529 | 8.26634 | 39° | 37km/h | 19433m | -20.2m/s | -52.1°C | 0.6% | 63.3hPa | 2.6V | 08:22:54 | 02:10:13 | 00:00:00 | |
| DL1XH-west | 2026-08-31 05:41:49 | 53.18503 | 8.26597 | 43° | 33km/h | 19519m | -22m/s | -52.1°C | 0.6% | 62.5hPa | 2.6V | 08:22:54 | 02:10:09 | 00:00:00 | |
| DO2JMG | 2026-08-31 05:41:47 | 53.18491 | 8.26579 | 41° | 31km/h | 19562m | -21.9m/s | -52.3°C | 0.7% | 62.1hPa | 2.6V | 08:22:54 | 02:10:07 | 00:00:00 | |
| DL3AQ-11 | 2026-08-31 05:41:47 | 53.18486 | 8.26570 | 40° | 29km/h | 19585m | -22.8m/s | -52.3°C | 1.2% | 61.9hPa | 2.7V | 00:00:00 | 00:00:00 | 00:00:00 | |
| DM0DOS-11 | 2026-08-31 05:41:46 | 53.18481 | 8.26563 | 39° | 27km/h | 19607m | -22.4m/s | -52.4°C | 4.1% | 61.7hPa | 2.7V | 08:22:52 | 02:10:05 | 00:00:00 | |
| HSKMA3-T | 2026-08-31 05:41:46 | 53.18486 | 8.26570 | 40° | 29km/h | 19585m | -22.8m/s | -52.3°C | 0.7% | 61.9hPa | 2.7V | 08:22:54 | 02:10:06 | 00:00:00 | |
| EDDB2-12 | 2026-08-31 05:41:46 | 53.18480 | 8.26563 | 39° | 27km/h | 19607m | -22.4m/s | -52.4°C | 1.2% | 61.7hPa | 2.7V | 00:00:00 | 00:00:00 | 00:00:00 | |
| DL1NUX | 2026-08-31 05:41:45 | 53.18467 | 8.26541 | 43° | 26km/h | 19672m | -20.9m/s | -52.4°C | 4.1% | 61hPa | 2.7V | 08:22:55 | 02:10:02 | 00:00:00 | |
| AA1-15 | 2026-08-31 05:41:44 | 53.18475 | 8.26555 | 43° | 27km/h | 19629m | -21.9m/s | -52.4°C | 0.8% | 61.5hPa | 2.6V | 08:22:54 | 02:10:04 | 00:00:00 | |
| DF8AY | 2026-08-31 05:41:43 | 53.18471 | 8.26548 | 44° | 24km/h | 19651m | -22m/s | -52.3°C | 0.7% | 61.2hPa | 2.6V | 08:22:54 | 02:10:03 | 00:00:00 | |
| DB0DAN | 2026-08-31 05:41:40 | 53.18459 | 8.26525 | 58° | 24km/h | 19717m | -23.4m/s | -52.5°C | 1.2% | 60.64hPa | 2.6V | 00:00:00 | 00:00:00 | 00:00:00 | |
| DL1XH1-15 | 2026-08-31 05:41:39 | 53.18445 | 8.26473 | 63° | 20km/h | 19855m | -25.6m/s | -52°C | 3.9% | 59.4hPa | 2.6V | 08:23:03 | 02:09:54 | 00:00:00 | |
| DL1XH-west | 2026-08-31 05:41:39 | 53.18456 | 8.26516 | 62° | 24km/h | 19740m | -23.1m/s | -52.5°C | 0.8% | 60.4hPa | 2.6V | 08:23:45 | 02:09:59 | 00:00:00 | |
| BIOWL1-15 | 2026-08-31 05:41:38 | 53.18453 | 8.26508 | 67° | 24km/h | 19762m | -22.4m/s | -52.3°C | 0.8% | 60.2hPa | 2.6V | 08:23:45 | 02:09:58 | 00:00:00 | |
| DK9SH | 2026-08-31 05:41:37 | 53.18453 | 8.26507 | 68° | 24km/h | 19763m | -22.4m/s | -52.3°C | 1.2% | 60.2hPa | 2.7V | 08:23:00 | 00:00:00 | 00:00:00 | |
| DM0DOS-11 | 2026-08-31 05:41:36 | 53.18447 | 8.26481 | 68° | 22km/h | 19830m | -23.9m/s | -51.9°C | 3.9% | 59.6hPa | 2.7V | 08:23:02 | 02:09:55 | 00:00:00 | |
| DL1XH-15 | 2026-08-31 05:41:36 | 53.18438 | 8.26452 | 63° | 18km/h | 19928m | -23.2m/s | -52.3°C | 4% | 58.7hPa | 2.7V | 08:23:06 | 02:09:51 | 00:00:00 | |
| DO2JMG | 2026-08-31 05:41:36 | 53.18449 | 8.26490 | 70° | 24km/h | 19807m | -21.9m/s | -52°C | 0.6% | 59.8hPa | 2.7V | 08:23:45 | 02:09:56 | 00:00:00 | |
| HSKMA3-T | 2026-08-31 05:41:35 | 53.18447 | 8.26481 | 69° | 22km/h | 19830m | -23.9m/s | -51.9°C | 0.6% | 59.6hPa | 2.7V | 08:23:45 | 02:09:55 | 00:00:00 | |
| AA1-15 | 2026-08-31 05:41:34 | 53.18445 | 8.26473 | 63° | 20km/h | 19855m | -25.6m/s | -52°C | 0.6% | 59.4hPa | 2.6V | 08:24:36 | 02:09:54 | 00:00:00 | |
| DF8AY | 2026-08-31 05:41:33 | 53.18443 | 8.26466 | 61° | 20km/h | 19880m | -25.9m/s | -52.1°C | 0.7% | 59.2hPa | 2.6V | 08:23:45 | 02:09:53 | 00:00:00 | |
| BUE01 | 2026-08-31 05:41:33 | 53.18440 | 8.26459 | 58° | 18km/h | 19905m | -24.6m/s | -52.2°C | 1.2% | 58.9hPa | 2.6V | 00:00:00 | 00:00:00 | 00:00:00 | |
| DD8BA-10 | 2026-08-31 05:41:32 | 53.18440 | 8.26459 | 59° | 11km/h | 19905m | -24.6m/s | -52.2°C | 4.0% | 58.9hPa | 2.6V | 00:00:00 | 00:00:00 | 00:00:00 | |
| GOEST3-10 | 2026-08-31 05:41:31 | 53.18438 | 8.26452 | 64° | 11km/h | 19928m | -23.1m/s | -52.2°C | 4.0% | 58.6hPa | 2.6V | 00:00:00 | 02:09:51 | 00:00:00 | |
| DL1XH1-15 | 2026-08-31 05:41:29 | 53.18434 | 8.26424 | 119° | 5km/h | 20088m | -21.5m/s | -51.2°C | 3.8% | 57.2hPa | 2.6V | 08:23:13 | 02:09:44 | 00:00:00 | |
| DL1XH-west | 2026-08-31 05:41:29 | 53.18435 | 8.26440 | 68° | 15km/h | 19974m | -23.8m/s | -52°C | 0.7% | 58.3hPa | 2.6V | 08:23:45 | 02:09:49 | 00:00:00 | |
| BIOWL1-15 | 2026-08-31 05:41:28 | 53.18433 | 8.26435 | 74° | 11km/h | 19998m | -23.6m/s | -52°C | 0.7% | 58hPa | 2.6V | 08:23:45 | 02:09:48 | 00:00:00 | |
| DM0DOS-11 | 2026-08-31 05:41:26 | 53.18433 | 8.26426 | 94° | 5km/h | 20067m | -21.4m/s | -51.4°C | 3.8% | 57.4hPa | 2.6V | 08:23:12 | 02:09:45 | 00:00:00 | |
| DL1XH-15 | 2026-08-31 05:41:26 | 53.18437 | 8.26420 | 141° | 2km/h | 20154m | -21.9m/s | -51°C | 3.7% | 56.6hPa | 2.7V | 08:23:16 | 02:09:41 | 00:00:00 | |
| DO2JMG | 2026-08-31 05:41:26 | 53.18433 | 8.26428 | 98° | 5km/h | 20045m | -22.6m/s | -51.6°C | 0.6% | 57.6hPa | 2.7V | 08:23:45 | 02:09:46 | 00:00:00 | |
| DB0DAN | 2026-08-31 05:41:25 | 53.18433 | 8.26426 | 94° | 5km/h | 20067m | -21.4m/s | -51.4°C | 1.1% | 57.37hPa | 2.6V | 00:00:00 | 00:00:00 | 00:00:00 | |
| HSKMA3-T | 2026-08-31 05:41:25 | 53.18433 | 8.26426 | 94° | 5km/h | 20067m | -21.4m/s | -51.4°C | 0.6% | 57.4hPa | 2.6V | 08:23:45 | 02:09:45 | 00:00:00 | |
| AA1-15 | 2026-08-31 05:41:23 | 53.18435 | 8.26422 | 137° | 5km/h | 20110m | -21.8m/s | -51°C | 0.5% | 57hPa | 2.6V | 08:24:36 | 02:09:43 | 00:00:00 | |
| DF8AY | 2026-08-31 05:41:22 | 53.18436 | 8.26421 | 171° | 5km/h | 20132m | -22.2m/s | -50.9°C | 0.4% | 56.8hPa | 2.7V | 08:23:45 | 02:09:42 | 00:00:00 | |
| BIOWL1-15 | 2026-08-31 05:41:21 | 53.18436 | 8.26418 | 22° | 4km/h | 20246m | -25.6m/s | -51.2°C | 0.5% | 55.9hPa | 2.6V | 08:23:45 | 02:09:37 | 00:00:00 | |
| DO9LL-15 | 2026-08-31 05:41:21 | 53.18436 | 8.26420 | 142° | 11km/h | 20155m | -21.8m/s | -50.9°C | 3.7% | 56.6hPa | 2.6V | 00:00:00 | 02:09:41 | 00:00:00 | |
| DL3AQ-11 | 2026-08-31 05:41:20 | 53.18437 | 8.26419 | 40° | 0km/h | 20199m | -22.9m/s | -51.1°C | 1.1% | 56.2hPa | 2.6V | 00:00:00 | 00:00:00 | 00:00:00 | |
| DL1XH1-15 | 2026-08-31 05:41:19 | 53.18431 | 8.26416 | 0° | 7km/h | 20320m | -23.1m/s | -51.3°C | 3.8% | 55.2hPa | 2.6V | 08:23:23 | 02:09:34 | 00:00:00 | |
| DL1XH-west | 2026-08-31 05:41:18 | 53.18436 | 8.26418 | 10° | 2km/h | 20222m | -23.2m/s | -51.2°C | 0.5% | 56hPa | 2.6V | 08:23:45 | 02:09:38 | 00:00:00 | |
| DF2AP-13 | 2026-08-31 05:41:18 | 53.18436 | 8.26418 | 10° | 13km/h | 20222m | -23.1m/s | -51.1°C | 3.7% | 56.0hPa | 2.7V | 00:00:00 | 02:09:38 | 00:00:00 | |
| DK9SH | 2026-08-31 05:41:17 | 53.18436 | 8.26418 | 0° | 0km/h | 20222m | -23.2m/s | -51.2°C | 1.1% | 56.0hPa | 2.7V | 08:23:00 | 00:00:00 | 00:00:00 | |
| DM0DOS-11 | 2026-08-31 05:41:16 | 53.18433 | 8.26416 | 7° | 5km/h | 20296m | -24.2m/s | -51.2°C | 3.8% | 55.5hPa | 2.7V | 08:23:22 | 02:09:35 | 00:00:00 | |
| DO2JMG | 2026-08-31 05:41:15 | 53.18433 | 8.26416 | 8° | 5km/h | 20296m | -24.2m/s | -51.2°C | 0.6% | 55.5hPa | 2.7V | 08:23:45 | 02:09:35 | 00:00:00 | |
| HSKMA3-T | 2026-08-31 05:41:14 | 53.18432 | 8.26416 | 1° | 7km/h | 20320m | -23.1m/s | -51.3°C | 0.6% | 55.2hPa | 2.6V | 08:23:45 | 02:09:34 | 00:00:00 | |
| AA1-15 | 2026-08-31 05:41:13 | 53.18430 | 8.26415 | 14° | 9km/h | 20344m | -23.5m/s | -51.5°C | 0.6% | 55hPa | 2.6V | 08:23:45 | 02:09:33 | 00:00:00 | |
| DF8AY | 2026-08-31 05:41:11 | 53.18425 | 8.26412 | 33° | 9km/h | 20390m | -22.9m/s | -51.7°C | 0.6% | 54.6hPa | 2.7V | 08:23:45 | 02:09:31 | 00:00:00 | |
| DL1XH1-15 | 2026-08-31 05:41:09 | 53.18408 | 8.26398 | 26° | 15km/h | 20562m | -24.4m/s | -52°C | 4% | 53.2hPa | 2.6V | 08:23:33 | 02:09:24 | 00:00:00 | |
| BIOWL1-15 | 2026-08-31 05:41:07 | 53.18417 | 8.26405 | 13° | 11km/h | 20488m | -26.5m/s | -51.8°C | 0.7% | 53.9hPa | 2.7V | 08:23:45 | 02:09:27 | 00:00:00 | |
| DM0DOS-11 | 2026-08-31 05:41:06 | 53.18411 | 8.26400 | 23° | 15km/h | 20538m | -25.3m/s | -51.9°C | 4% | 53.4hPa | 2.7V | 08:23:32 | 02:09:25 | 00:00:00 | |
| DL1XH-15 | 2026-08-31 05:41:06 | 53.18396 | 8.26389 | 29° | 22km/h | 20633m | -21.8m/s | -51.8°C | 4% | 52.5hPa | 2.7V | 08:23:36 | 02:09:21 | 00:00:00 | |
| DO2JMG | 2026-08-31 05:41:05 | 53.18411 | 8.26401 | 24° | 15km/h | 20538m | -25.3m/s | -51.9°C | 0.7% | 53.4hPa | 2.7V | 08:23:45 | 02:09:25 | 00:00:00 | |
| HSKMA3-T | 2026-08-31 05:41:04 | 53.18408 | 8.26398 | 26° | 15km/h | 20562m | -24.4m/s | -52°C | 0.7% | 53.2hPa | 2.6V | 08:23:45 | 02:09:24 | 00:00:00 | |
| AA1-15 | 2026-08-31 05:41:03 | 53.18405 | 8.26396 | 20° | 16km/h | 20587m | -24.6m/s | -51.9°C | 0.7% | 53hPa | 2.6V | 08:24:36 | 02:09:23 | 00:00:00 | |
| DF8AY | 2026-08-31 05:41:01 | 53.18396 | 8.26389 | 29° | 22km/h | 20633m | -21.8m/s | -51.8°C | 0.7% | 52.5hPa | 2.7V | 08:23:45 | 02:09:21 | 00:00:00 | |
| DO3DL | 2026-08-31 05:41:00 | 53.18396 | 8.26388 | 30° | 22km/h | 20633m | -21.8m/s | -51.8°C | 1.1% | 52.6hPa | 2.7V | 08:23:00 | 00:00:00 | 00:00:00 | |
| DL1XH1-15 | 2026-08-31 05:40:59 | 53.18365 | 8.26362 | 29° | 13km/h | 20799m | -22.5m/s | -51.1°C | 3.7% | 51.2hPa | 2.7V | 08:23:43 | 02:09:14 | 00:00:00 | |
| DL4BBY-15 | 2026-08-31 05:40:59 | 53.18386 | 8.26380 | 29° | 20km/h | 20678m | -23.8m/s | -50.5°C | 0% | 0hPa | 2.6V | 00:00:00 | 00:00:00 | 00:00:00 | |
| DL1NUX | 2026-08-31 05:40:58 | 53.18363 | 8.26361 | 8° | 7km/h | 20822m | -23.9m/s | -51°C | 3.7% | 51.1hPa | 2.6V | 08:23:44 | 02:09:13 | 00:00:00 | |
| DO2SHX-10 | 2026-08-31 05:40:58 | 53.18381 | 8.26375 | 33° | 20km/h | 20702m | -23.6m/s | -51.3°C | 3.8% | 52.0hPa | 2.7V | 00:00:00 | 02:09:18 | 00:00:00 | |
| DK9SH | 2026-08-31 05:40:57 | 53.18381 | 8.26375 | 33° | 22km/h | 20702m | -23.7m/s | -51.4°C | 1.1% | 52.0hPa | 2.7V | 08:23:00 | 00:00:00 | 00:00:00 | |
| DL1XH-15 | 2026-08-31 05:40:56 | 53.18360 | 8.26362 | 303° | 9km/h | 20870m | -24.5m/s | -50.9°C | 3.6% | 50.7hPa | 2.7V | 08:23:46 | 02:09:11 | 00:00:00 | |
| DL1XH-west | 2026-08-31 05:40:56 | 53.18372 | 8.26367 | 37° | 16km/h | 20750m | -25.8m/s | -51.1°C | 0.5% | 51.7hPa | 2.6V | 08:23:45 | 02:09:16 | 00:00:00 | |
| DO2JMG | 2026-08-31 05:40:54 | 53.18366 | 8.26362 | 29° | 13km/h | 20799m | -22.5m/s | -51.1°C | 0.5% | 51.2hPa | 2.7V | 08:23:45 | 02:09:14 | 00:00:00 | |
| HSKMA3-T | 2026-08-31 05:40:53 | 53.18363 | 8.26361 | 9° | 7km/h | 20822m | -23.9m/s | -51°C | 0.5% | 51.1hPa | 2.6V | 08:23:45 | 02:09:13 | 00:00:00 | |
| AA1-15 | 2026-08-31 05:40:52 | 53.18361 | 8.26361 | 356° | 5km/h | 20846m | -22.9m/s | -51°C | 0.5% | 50.9hPa | 2.6V | 08:23:45 | 02:09:12 | 00:00:00 | |
| DF8AY | 2026-08-31 05:40:51 | 53.18360 | 8.26362 | 304° | 9km/h | 20870m | -24.5m/s | -50.9°C | 0.5% | 50.7hPa | 2.7V | 08:24:36 | 02:09:11 | 00:00:00 | |
| HTAHTA | 2026-08-31 05:40:49 | 53.18357 | 8.26375 | 285° | 13km/h | 20943m | -24.1m/s | -50.7°C | 1.0% | 50.2hPa | 2.7V | 00:00:00 | 00:00:00 | 00:00:00 | |
| DC4HF-4 | 2026-08-31 05:40:47 | 53.18355 | 8.26386 | 297° | 13km/h | 20990m | -22.5m/s | -50.9°C | 1.0% | 49.8hPa | 2.7V | 00:00:00 | 00:00:00 | 00:00:00 | |
| DM0DOS-11 | 2026-08-31 05:40:46 | 53.18353 | 8.26391 | 292° | 15km/h | 21013m | -22.8m/s | -51°C | 3.6% | 49.5hPa | 2.7V | 08:23:52 | 02:09:05 | 00:00:00 | |
| DL1XH-15 | 2026-08-31 05:40:46 | 53.18342 | 8.26409 | 326° | 16km/h | 21103m | -24.4m/s | -51.1°C | 3.6% | 48.9hPa | 2.6V | 08:23:56 | 02:09:01 | 00:00:00 | |
| DL1NUX | 2026-08-31 05:40:46 | 53.18349 | 8.26401 | 313° | 15km/h | 21057m | -21.7m/s | -51.1°C | 3.6% | 49.2hPa | 2.6V | 08:30:00 | 02:09:03 | 00:00:00 | |
| DL1XH-west | 2026-08-31 05:40:45 | 53.18353 | 8.26391 | 292° | 15km/h | 21013m | -22.8m/s | -51°C | 0.5% | 49.6hPa | 2.7V | 08:24:36 | 02:09:05 | 00:00:00 | |
| DO2JMG | 2026-08-31 05:40:43 | 53.18349 | 8.26401 | 314° | 15km/h | 21057m | -21.7m/s | -51.1°C | 0.5% | 49.2hPa | 2.6V | 08:24:36 | 02:09:03 | 00:00:00 | |
| AA1-15 | 2026-08-31 05:40:42 | 53.18346 | 8.26405 | 328° | 15km/h | 21080m | -23.7m/s | -51.1°C | 0.5% | 49.1hPa | 2.6V | 08:24:36 | 02:09:02 | 00:00:00 | |
| DB0DAN | 2026-08-31 05:40:40 | 53.18338 | 8.26412 | 343° | 20km/h | 21128m | -24.9m/s | -51.1°C | 1% | 48.71hPa | 2.7V | 00:00:00 | 00:00:00 | 00:00:00 | |
| DF8AY | 2026-08-31 05:40:40 | 53.18338 | 8.26412 | 343° | 20km/h | 21128m | -24.9m/s | -51.1°C | 0.5% | 48.7hPa | 2.7V | 08:24:36 | 02:09:00 | 00:00:00 | |
| DL1XH1-15 | 2026-08-31 05:40:39 | 53.18300 | 8.26422 | 356° | 31km/h | 21271m | -23.4m/s | -51.9°C | 3.8% | 47.6hPa | 2.7V | 08:24:03 | 02:08:54 | 00:00:00 | |
| DL1LOL-11 | 2026-08-31 05:40:38 | 53.18333 | 8.26414 | 342° | 20km/h | 21153m | -25.8m/s | -51.2°C | 1.0% | 48.5hPa | 2.6V | 00:00:00 | 00:00:00 | 00:00:00 | |
| DM0DOS-11 | 2026-08-31 05:40:37 | 53.18308 | 8.26421 | 356° | 33km/h | 21248m | -24.4m/s | -51.7°C | 3.7% | 47.8hPa | 2.6V | 08:24:02 | 02:08:55 | 00:00:00 | |
| DL1XH-15 | 2026-08-31 05:40:37 | 53.18276 | 8.26421 | 4° | 33km/h | 21343m | -24.4m/s | -52.1°C | 3.8% | 47.1hPa | 2.6V | 08:24:06 | 02:08:51 | 00:00:00 | |
| DL1XH-west | 2026-08-31 05:40:34 | 53.18300 | 8.26422 | 356° | 31km/h | 21271m | -23.4m/s | -51.9°C | 0.6% | 47.6hPa | 2.7V | 08:24:36 | 02:08:54 | 00:00:00 | |
| DO2JMG | 2026-08-31 05:40:32 | 53.18284 | 8.26421 | 1° | 31km/h | 21319m | -24.7m/s | -52.1°C | 0.7% | 47.3hPa | 2.6V | 08:24:36 | 02:08:52 | 00:00:00 | |
| DF8AY | 2026-08-31 05:40:29 | 53.18261 | 8.26416 | 15° | 27km/h | 21394m | -24.1m/s | -52.1°C | 0.6% | 46.8hPa | 2.7V | 08:24:36 | 02:08:49 | 00:00:00 | |
| DL1XH1-15 | 2026-08-31 05:40:29 | 53.18228 | 8.26390 | 32° | 29km/h | 21516m | -24.3m/s | -52.4°C | 3.9% | 45.8hPa | 2.7V | 08:24:13 | 02:08:44 | 00:00:00 | |
| DL4BBY-15 | 2026-08-31 05:40:29 | 53.18260 | 8.26416 | 15° | 22km/h | 21394m | -24.1m/s | -51.3°C | 0% | 0hPa | 2.7V | 00:00:00 | 00:00:00 | 00:00:00 | |
| DL1CLM-18 | 2026-08-31 05:40:28 | 53.18254 | 8.26412 | 20° | 29km/h | 21419m | -25.4m/s | -52.2°C | 1.1% | 46.6hPa | 2.7V | 00:00:00 | 00:00:00 | 00:00:00 | |
| DM0DOS-11 | 2026-08-31 05:40:26 | 53.18235 | 8.26397 | 29° | 29km/h | 21492m | -24.8m/s | -52.4°C | 3.9% | 46hPa | 2.7V | 08:24:12 | 02:08:45 | 00:00:00 | |
| DL1XH-15 | 2026-08-31 05:40:26 | 53.18209 | 8.26370 | 33° | 31km/h | 21594m | -26.5m/s | -52.4°C | 3.9% | 45.3hPa | 2.6V | 08:24:16 | 02:08:41 | 00:00:00 | |
| DB0DAN | 2026-08-31 05:40:25 | 53.18235 | 8.26397 | 30° | 29km/h | 21492m | -24.8m/s | -52.4°C | 1.1% | 46.05hPa | 2.7V | 00:00:00 | 00:00:00 | 00:00:00 | |
| DL1XH-west | 2026-08-31 05:40:23 | 53.18222 | 8.26384 | 32° | 27km/h | 21541m | -25.4m/s | -52.4°C | 0.6% | 45.7hPa | 2.7V | 08:24:36 | 02:08:43 | 00:00:00 | |
| DO2JMG | 2026-08-31 05:40:21 | 53.18209 | 8.26370 | 34° | 31km/h | 21594m | -26.5m/s | -52.4°C | 0.7% | 45.3hPa | 2.6V | 08:24:36 | 02:08:41 | 00:00:00 | |
| DO9LL-15 | 2026-08-31 05:40:21 | 53.18209 | 8.26370 | 34° | 18km/h | 21594m | -26.5m/s | -52.4°C | 3.9% | 45.3hPa | 2.6V | 00:00:00 | 02:08:41 | 00:00:00 | |
| DL1XH1-15 | 2026-08-31 05:40:19 | 53.18181 | 8.26316 | 68° | 22km/h | 21766m | -23.7m/s | -52.6°C | 4% | 44.1hPa | 2.6V | 08:24:23 | 02:08:34 | 00:00:00 | |
| DF8AY | 2026-08-31 05:40:18 | 53.18193 | 8.26347 | 47° | 24km/h | 21669m | -23.8m/s | -52.5°C | 0.7% | 44.8hPa | 2.7V | 08:24:36 | 02:08:38 | 00:00:00 | |
| HTAHTA | 2026-08-31 05:40:18 | 53.18189 | 8.26340 | 54° | 22km/h | 21694m | -23.5m/s | -52.6°C | 1.1% | 44.6hPa | 2.7V | 00:00:00 | 00:00:00 | 00:00:00 | |
| DL1XH-15 | 2026-08-31 05:40:16 | 53.18176 | 8.26293 | 63° | 18km/h | 21837m | -23.4m/s | -52.6°C | 4% | 43.6hPa | 2.7V | 08:24:26 | 02:08:31 | 00:00:00 | |
| DL1XH-west | 2026-08-31 05:40:13 | 53.18179 | 8.26308 | 71° | 20km/h | 21790m | -24.4m/s | -52.7°C | 0.8% | 43.9hPa | 2.7V | 08:24:36 | 02:08:33 | 00:00:00 | |
| DO2JMG | 2026-08-31 05:40:11 | 53.18176 | 8.26293 | 64° | 18km/h | 21837m | -23.4m/s | -52.6°C | 0.7% | 43.6hPa | 2.7V | 08:24:36 | 02:08:31 | 00:00:00 | |
| DB0DAN | 2026-08-31 05:40:10 | 53.18174 | 8.26286 | 64° | 18km/h | 21861m | -23.3m/s | -52.6°C | 1.1% | 43.43hPa | 2.6V | 00:00:00 | 00:00:00 | 00:00:00 | |
| DL1XH1-15 | 2026-08-31 05:40:09 | 53.18157 | 8.26253 | 46° | 18km/h | 22006m | -25.7m/s | -52.8°C | 4.1% | 42.5hPa | 2.6V | 08:24:33 | 02:08:24 | 00:00:00 | |
| DF8AY | 2026-08-31 05:40:08 | 53.18170 | 8.26274 | 53° | 15km/h | 21908m | -24.8m/s | -52.6°C | 0.7% | 43.1hPa | 2.6V | 08:24:36 | 02:08:28 | 00:00:00 | |
| DO2SHX-10 | 2026-08-31 05:40:08 | 53.18169 | 8.26274 | 53° | 16km/h | 21908m | -24.7m/s | -52.6°C | 4.0% | 43.1hPa | 2.6V | 00:00:00 | 02:08:28 | 00:00:00 | |
| DO3DL | 2026-08-31 05:40:07 | 53.18169 | 8.26274 | 54° | 15km/h | 21908m | -24.8m/s | -52.6°C | 1.1% | 43.1hPa | 2.6V | 08:24:00 | 00:00:00 | 00:00:00 | |
| DL1XH-15 | 2026-08-31 05:40:06 | 53.18149 | 8.26234 | 55° | 20km/h | 22079m | -23.8m/s | -52.9°C | 4.1% | 42hPa | 2.6V | 08:24:36 | 02:08:21 | 00:00:00 | |
| DL1XH-west | 2026-08-31 05:40:03 | 53.18154 | 8.26247 | 53° | 20km/h | 22031m | -24.6m/s | -52.8°C | 0.8% | 42.2hPa | 2.7V | 08:24:36 | 02:08:23 | 00:00:00 | |
| DO2JMG | 2026-08-31 05:40:01 | 53.18149 | 8.26234 | 56° | 20km/h | 22079m | -23.8m/s | -52.9°C | 0.8% | 42hPa | 2.6V | 08:24:36 | 02:08:21 | 00:00:00 | |
| AA1-15 | 2026-08-31 05:40:00 | 53.18146 | 8.26228 | 52° | 18km/h | 22103m | -24.1m/s | -53°C | 0.8% | 41.8hPa | 2.6V | 08:25:27 | 02:08:20 | 00:00:00 | |
| DF8AY | 2026-08-31 05:39:58 | 53.18140 | 8.26218 | 46° | 15km/h | 22151m | -25.1m/s | -53°C | 0.8% | 41.5hPa | 2.7V | 08:25:27 | 02:08:18 | 00:00:00 | |
| DL1XH-15 | 2026-08-31 05:39:56 | 53.18120 | 8.26211 | 1° | 15km/h | 22333m | -25.2m/s | -52.8°C | 4.1% | 40.4hPa | 2.6V | 08:24:46 | 02:08:11 | 00:00:00 | |
| DB0DAN | 2026-08-31 05:39:55 | 53.18133 | 8.26210 | 16° | 11km/h | 22229m | -25.8m/s | -52.8°C | 1.2% | 41.06hPa | 2.6V | 00:00:00 | 00:00:00 | 00:00:00 | |
| DL1XH-west | 2026-08-31 05:39:53 | 53.18127 | 8.26210 | 359° | 13km/h | 22282m | -26.6m/s | -52.8°C | 0.8% | 40.7hPa | 2.7V | 08:25:27 | 02:08:13 | 00:00:00 | |
| DO2JMG | 2026-08-31 05:39:51 | 53.18120 | 8.26211 | 2° | 15km/h | 22334m | -25.2m/s | -52.8°C | 0.8% | 40.4hPa | 2.6V | 08:25:27 | 02:08:11 | 00:00:00 | |
| AA1-15 | 2026-08-31 05:39:50 | 53.18116 | 8.26211 | 356° | 16km/h | 22359m | -24.8m/s | -52.8°C | 0.8% | 40.2hPa | 2.6V | 08:25:27 | 02:08:10 | 00:00:00 | |
| DF8AY | 2026-08-31 05:39:47 | 53.18103 | 8.26207 | 16° | 18km/h | 22433m | -25.2m/s | -53°C | 0.8% | 39.8hPa | 2.7V | 08:25:27 | 02:08:07 | 00:00:00 | |
| DL3AQ-11 | 2026-08-31 05:39:47 | 53.18098 | 8.26204 | 23° | 20km/h | 22458m | -24.7m/s | -52.9°C | 1.2% | 39.6hPa | 2.6V | 00:00:00 | 00:00:00 | 00:00:00 | |
| DM0DOS-11 | 2026-08-31 05:39:46 | 53.18093 | 8.26201 | 22° | 20km/h | 22482m | -24.7m/s | -52.9°C | 4.2% | 39.4hPa | 2.6V | 08:24:52 | 02:08:05 | 00:00:00 | |
| BIOWL1-15 | 2026-08-31 05:39:44 | 53.18081 | 8.26191 | 27° | 16km/h | 22556m | -24.9m/s | -52.9°C | 0.8% | 39hPa | 2.7V | 08:25:27 | 02:08:02 | 00:00:00 | |
| DL1XH-west | 2026-08-31 05:39:43 | 53.18085 | 8.26194 | 23° | 18km/h | 22531m | -25.6m/s | -52.8°C | 0.8% | 39.1hPa | 2.6V | 08:25:27 | 02:08:03 | 00:00:00 | |
| DO2JMG | 2026-08-31 05:39:40 | 53.18074 | 8.26184 | 37° | 15km/h | 22605m | -25.1m/s | -52.7°C | 0.9% | 38.7hPa | 2.7V | 08:25:27 | 02:08:00 | 00:00:00 | |
| AA1-15 | 2026-08-31 05:39:39 | 53.18071 | 8.26181 | 42° | 11km/h | 22630m | -26.1m/s | -52.7°C | 0.8% | 38.5hPa | 2.6V | 08:25:27 | 02:07:59 | 00:00:00 | |
| DF8AY | 2026-08-31 05:39:37 | 53.18067 | 8.26174 | 58° | 11km/h | 22684m | -26.5m/s | -52.6°C | 0.8% | 38.2hPa | 2.6V | 08:25:27 | 02:07:57 | 00:00:00 | |
| DL1XH-west | 2026-08-31 05:39:32 | 53.18061 | 8.26148 | 72° | 13km/h | 22817m | -26.9m/s | -52.1°C | 0.7% | 37.5hPa | 2.7V | 08:25:27 | 02:07:52 | 00:00:00 | |
| BIOWL1-15 | 2026-08-31 05:39:31 | 53.18060 | 8.26143 | 75° | 13km/h | 22844m | -27.6m/s | -52°C | 0.7% | 37.3hPa | 2.7V | 08:25:27 | 02:07:51 | 00:00:00 | |
| DO2JMG | 2026-08-31 05:39:29 | 53.18057 | 8.26136 | 55° | 9km/h | 22900m | -26.6m/s | -52°C | 0.7% | 36.9hPa | 2.6V | 08:25:27 | 02:07:49 | 00:00:00 | |
| DO2SHX-10 | 2026-08-31 05:39:29 | 53.18057 | 8.26136 | 55° | 7km/h | 22900m | -26.6m/s | -51.9°C | 3.9% | 36.9hPa | 2.6V | 00:00:00 | 02:07:49 | 00:00:00 | |
| BUE01 | 2026-08-31 05:39:28 | 53.18056 | 8.26134 | 42° | 5km/h | 22926m | -26.5m/s | -51.9°C | 1.1% | 36.8hPa | 2.6V | 00:00:00 | 00:00:00 | 00:00:00 | |
| DL1XH-15 | 2026-08-31 05:39:26 | 53.18039 | 8.26134 | 14° | 16km/h | 23102m | -27.1m/s | -52°C | 3.9% | 35.8hPa | 2.6V | 08:25:16 | 02:07:41 | 00:00:00 | |
| DM0DOS-11 | 2026-08-31 05:39:26 | 53.18052 | 8.26135 | 349° | 11km/h | 23002m | -24.4m/s | -52°C | 3.9% | 36.4hPa | 2.6V | 08:25:12 | 02:07:45 | 00:00:00 | |
| DF8AY | 2026-08-31 05:39:26 | 53.18054 | 8.26134 | 338° | 7km/h | 22978m | -24.3m/s | -51.9°C | 0.7% | 36.5hPa | 2.6V | 08:25:27 | 02:07:46 | 00:00:00 | |
| DB0DAN | 2026-08-31 05:39:25 | 53.18052 | 8.26135 | 350° | 9km/h | 23003m | -24.4m/s | -52°C | 1.1% | 36.35hPa | 2.6V | 00:00:00 | 00:00:00 | 00:00:00 | |
| DL1XH-west | 2026-08-31 05:39:22 | 53.18043 | 8.26135 | 8° | 16km/h | 23075m | -26.9m/s | -52°C | 0.7% | 36hPa | 2.6V | 08:25:27 | 02:07:42 | 00:00:00 | |
| BIOWL1-15 | 2026-08-31 05:39:20 | 53.18035 | 8.26132 | 24° | 18km/h | 23128m | -26m/s | -52.2°C | 0.7% | 35.7hPa | 2.6V | 08:25:27 | 02:07:40 | 00:00:00 | |
| DL3AQ-11 | 2026-08-31 05:39:20 | 53.18031 | 8.26128 | 30° | 15km/h | 23155m | -26.8m/s | -52.2°C | 1.1% | 35.5hPa | 2.6V | 00:00:00 | 00:00:00 | 00:00:00 | |
| DL1XH1-15 | 2026-08-31 05:39:19 | 53.18018 | 8.26107 | 78° | 13km/h | 23295m | -29.7m/s | -52.1°C | 3.9% | 34.8hPa | 2.6V | 08:25:23 | 02:07:34 | 00:00:00 | |
| AA1-15 | 2026-08-31 05:39:19 | 53.18031 | 8.26128 | 30° | 16km/h | 23155m | -26.8m/s | -52.2°C | 0.6% | 35.5hPa | 2.7V | 08:25:27 | 02:07:39 | 00:00:00 | |
| DO2JMG | 2026-08-31 05:39:18 | 53.18028 | 8.26125 | 32° | 16km/h | 23181m | -26.2m/s | -52.3°C | 0.7% | 35.4hPa | 2.7V | 08:25:27 | 02:07:38 | 00:00:00 | |
| DF8AY | 2026-08-31 05:39:17 | 53.18021 | 8.26116 | 49° | 15km/h | 23236m | -29.1m/s | -52.2°C | 0.6% | 35.1hPa | 2.6V | 08:25:27 | 02:07:36 | 00:00:00 | |
| DL1XH-15 | 2026-08-31 05:39:16 | 53.18019 | 8.26097 | 128° | 7km/h | 23378m | -25.7m/s | -52°C | 3.8% | 34.2hPa | 2.7V | 08:25:26 | 02:07:31 | 00:00:00 | |
| DM0DOS-11 | 2026-08-31 05:39:16 | 53.18019 | 8.26112 | 59° | 13km/h | 23265m | -29.2m/s | -52.2°C | 3.9% | 34.9hPa | 2.6V | 08:25:22 | 02:07:35 | 00:00:00 | |
| DL1XH-west | 2026-08-31 05:39:12 | 53.18018 | 8.26099 | 118° | 9km/h | 23351m | -27.4m/s | -52.1°C | 0.6% | 34.4hPa | 2.7V | 08:25:27 | 02:07:32 | 00:00:00 | |
| DB0DAN | 2026-08-31 05:39:10 | 53.18020 | 8.26094 | 129° | 5km/h | 23404m | -26.8m/s | -52°C | 1.1% | 34.1hPa | 2.6V | 00:00:00 | 00:00:00 | 00:00:00 | |
| D01LWL | 2026-08-31 05:39:10 | 53.18020 | 8.26094 | 128° | 4km/h | 23404m | -26.8m/s | -52.0°C | 1.1% | 34.1hPa | 2.6V | 00:00:00 | 00:00:00 | 00:00:00 | |
| DL1XH1-15 | 2026-08-31 05:39:09 | 53.18019 | 8.26094 | 9° | 4km/h | 23568m | -27.5m/s | -52.3°C | 3.9% | 33.3hPa | 2.6V | 08:25:33 | 02:07:24 | 00:00:00 | |
| BIOWL1-15 | 2026-08-31 05:39:09 | 53.18021 | 8.26093 | 152° | 2km/h | 23432m | -28.1m/s | -52°C | 0.6% | 34hPa | 2.6V | 08:26:18 | 02:07:29 | 00:00:00 | |
| DO2JMG | 2026-08-31 05:39:08 | 53.18021 | 8.26093 | 144° | 0km/h | 23460m | -27m/s | -52.1°C | 0.6% | 33.8hPa | 2.6V | 08:26:18 | 02:07:28 | 00:00:00 | |
| HSKMA3-T | 2026-08-31 05:39:07 | 53.18021 | 8.26093 | 249° | 2km/h | 23486m | -26.9m/s | -52.1°C | 0.6% | 33.7hPa | 2.7V | 08:26:18 | 02:07:27 | 00:00:00 | |
| DM0DOS-11 | 2026-08-31 05:39:06 | 53.18020 | 8.26094 | 329° | 4km/h | 23542m | -27.2m/s | -52.2°C | 4% | 33.4hPa | 2.7V | 08:25:32 | 02:07:25 | 00:00:00 | |
| DF8AY | 2026-08-31 05:39:05 | 53.18020 | 8.26094 | 329° | 4km/h | 23542m | -27.3m/s | -52.2°C | 0.7% | 33.4hPa | 2.7V | 08:26:18 | 02:07:25 | 00:00:00 | |
| DL1XH-west | 2026-08-31 05:39:02 | 53.18017 | 8.26094 | 27° | 7km/h | 23623m | -26.5m/s | -52.4°C | 0.7% | 33hPa | 2.6V | 08:26:18 | 02:07:22 | 00:00:00 | |
| DD8BA-10 | 2026-08-31 05:39:02 | 53.18017 | 8.26093 | 27° | 5km/h | 23623m | -26.4m/s | -52.3°C | 4.0% | 32.9hPa | 2.7V | 00:00:00 | 00:00:00 | 00:00:00 | |
| GOEST3-10 | 2026-08-31 05:39:01 | 53.18015 | 8.26092 | 35° | 5km/h | 23649m | -25.7m/s | -52.4°C | 4.0% | 32.8hPa | 2.7V | 00:00:00 | 00:00:00 | 00:00:00 | |
| DO2SHX-10 | 2026-08-31 05:39:00 | 53.18014 | 8.26091 | 22° | 5km/h | 23675m | -26.0m/s | -52.5°C | 4.1% | 32.7hPa | 2.7V | 00:00:00 | 02:07:20 | 00:00:00 | |
| DL1XH1-15 | 2026-08-31 05:38:59 | 53.18006 | 8.26086 | 346° | 5km/h | 23842m | -28m/s | -52.8°C | 4.2% | 31.9hPa | 2.7V | 08:25:43 | 02:07:14 | 00:00:00 | |
| DO2JMG | 2026-08-31 05:38:58 | 53.18011 | 8.26088 | 19° | 4km/h | 23729m | -28.9m/s | -52.7°C | 0.8% | 32.5hPa | 2.6V | 08:26:18 | 02:07:18 | 00:00:00 | |
| HSKMA3-T | 2026-08-31 05:38:57 | 53.18010 | 8.26087 | 17° | 5km/h | 23758m | -29.1m/s | -52.7°C | 0.8% | 32.3hPa | 2.6V | 08:26:18 | 02:07:17 | 00:00:00 | |
| DM0DOS-11 | 2026-08-31 05:38:56 | 53.18007 | 8.26086 | 7° | 5km/h | 23815m | -26.2m/s | -52.9°C | 4.2% | 32hPa | 2.7V | 08:25:42 | 02:07:15 | 00:00:00 | |
| DB0DAN | 2026-08-31 05:38:55 | 53.18007 | 8.26086 | 7° | 5km/h | 23815m | -26.2m/s | -52.9°C | 1.1% | 32.02hPa | 2.7V | 00:00:00 | 00:00:00 | 00:00:00 | |
| DF8AY | 2026-08-31 05:38:55 | 53.18007 | 8.26086 | 7° | 5km/h | 23815m | -26.2m/s | -52.9°C | 0.8% | 32hPa | 2.7V | 08:26:18 | 02:07:15 | 00:00:00 | |
| DL1XH-west | 2026-08-31 05:38:51 | 53.18000 | 8.26084 | 25° | 11km/h | 23926m | -29m/s | -52.7°C | 0.8% | 31.5hPa | 2.6V | 08:26:18 | 02:07:11 | 00:00:00 | |
| DD1CC8 | 2026-08-31 05:38:50 | 53.17998 | 8.26082 | 28° | 9km/h | 23954m | -28.0m/s | -52.5°C | 1.1% | 31.3hPa | 2.6V | 00:00:00 | 00:00:00 | 00:00:00 | |
| DL1XH1-15 | 2026-08-31 05:38:49 | 53.17994 | 8.26059 | 121° | 11km/h | 24126m | -30.8m/s | -52.1°C | 3.9% | 30.5hPa | 2.6V | 08:25:53 | 02:07:04 | 00:00:00 | |
| DO2JMG | 2026-08-31 05:38:47 | 53.17993 | 8.26071 | 68° | 11km/h | 24038m | -29.1m/s | -52°C | 0.7% | 30.9hPa | 2.7V | 08:26:18 | 02:07:07 | 00:00:00 | |
| HSKMA3-T | 2026-08-31 05:38:46 | 53.17992 | 8.26067 | 98° | 11km/h | 24067m | -29m/s | -52.1°C | 0.7% | 30.8hPa | 2.6V | 08:26:18 | 02:07:06 | 00:00:00 | |
| DF8AY | 2026-08-31 05:38:44 | 53.17994 | 8.26059 | 122° | 11km/h | 24126m | -30.8m/s | -52.1°C | 0.7% | 30.5hPa | 2.6V | 08:26:18 | 02:07:04 | 00:00:00 | |
| DL1XH-west | 2026-08-31 05:38:41 | 53.18000 | 8.26050 | 159° | 9km/h | 24214m | -26.5m/s | -52.2°C | 0.8% | 30hPa | 2.7V | 08:26:18 | 02:07:01 | 00:00:00 | |
| DB0DAN | 2026-08-31 05:38:40 | 53.18002 | 8.26050 | 179° | 11km/h | 24241m | -27.4m/s | -52.1°C | 1.1% | 29.94hPa | 2.6V | 00:00:00 | 00:00:00 | 00:00:00 | |
| DO2JMG | 2026-08-31 05:38:37 | 53.18009 | 8.26055 | 239° | 9km/h | 24323m | -26.4m/s | -51.8°C | 0.6% | 29.6hPa | 2.7V | 08:26:18 | 02:06:57 | 00:00:00 | |
| DM0DOS-11 | 2026-08-31 05:38:36 | 53.18010 | 8.26063 | 267° | 13km/h | 24378m | -27.6m/s | -52°C | 3.9% | 29.3hPa | 2.7V | 08:26:02 | 02:06:55 | 00:00:00 | |
| HSKMA3-T | 2026-08-31 05:38:36 | 53.18010 | 8.26059 | 250° | 11km/h | 24350m | -26.7m/s | -51.9°C | 0.6% | 29.4hPa | 2.7V | 08:26:18 | 02:06:56 | 00:00:00 | |
| DF8AY | 2026-08-31 05:38:34 | 53.18010 | 8.26069 | 271° | 13km/h | 24406m | -28.5m/s | -52.1°C | 0.7% | 29.2hPa | 2.6V | 08:26:18 | 02:06:54 | 00:00:00 | |
| DL1XH-west | 2026-08-31 05:38:30 | 53.18005 | 8.26085 | 343° | 15km/h | 24510m | -24.7m/s | -52.2°C | 0.7% | 28.7hPa | 2.7V | 08:26:18 | 02:06:50 | 00:00:00 | |
| DM0DOS-11 | 2026-08-31 05:38:30 | 53.17985 | 8.26087 | 2° | 13km/h | 24644m | -26.6m/s | -52.4°C | 4.1% | 28.1hPa | 2.7V | 08:26:12 | 02:06:45 | 00:00:00 | |
| DO2SHX-10 | 2026-08-31 05:38:30 | 53.18005 | 8.26085 | 344° | 16km/h | 24511m | -24.7m/s | -52.1°C | 4.0% | 28.6hPa | 2.7V | 00:00:00 | 02:06:50 | 00:00:00 | |
| DL1XH1-15 | 2026-08-31 05:38:29 | 53.17982 | 8.26087 | 1° | 11km/h | 24671m | -28.1m/s | -52.4°C | 4.1% | 27.9hPa | 2.7V | 08:26:13 | 02:06:44 | 00:00:00 | |
| BIOWL1-15 | 2026-08-31 05:38:27 | 53.17993 | 8.26087 | 0° | 18km/h | 24591m | -26.2m/s | -52.3°C | 0.8% | 28.3hPa | 2.6V | 08:26:18 | 02:06:47 | 00:00:00 | |
| DO2JMG | 2026-08-31 05:38:26 | 53.17989 | 8.26087 | 358° | 16km/h | 24617m | -27.7m/s | -52.4°C | 0.8% | 28.2hPa | 2.6V | 08:26:18 | 02:06:46 | 00:00:00 | |
| DB0DAN | 2026-08-31 05:38:25 | 53.17985 | 8.26087 | 3° | 13km/h | 24645m | -26.6m/s | -52.4°C | 1.1% | 28.07hPa | 2.7V | 00:00:00 | 00:00:00 | 00:00:00 | |
| HSKMA3-T | 2026-08-31 05:38:25 | 53.17985 | 8.26087 | 3° | 13km/h | 24645m | -26.6m/s | -52.4°C | 0.8% | 28.1hPa | 2.7V | 08:26:18 | 02:06:45 | 00:00:00 | |
| DF8AY | 2026-08-31 05:38:24 | 53.17980 | 8.26087 | 359° | 7km/h | 24700m | -28.7m/s | -52.2°C | 0.8% | 27.8hPa | 2.7V | 08:26:18 | 02:06:43 | 00:00:00 | |
| DB0NH | 2026-08-31 05:38:24 | 53.17982 | 8.26087 | 2° | 11km/h | 24672m | -28.1m/s | -52.3°C | 4.1% | 27.9hPa | 2.7V | 00:00:00 | 02:06:44 | 00:00:00 | |
| DL4XJ-10 | 2026-08-31 05:38:23 | 53.17980 | 8.26087 | 359° | 9km/h | 24699m | -28.7m/s | -51.3°C | 0% | 0hPa | 2.6V | 00:00:00 | 00:00:00 | 00:00:00 | |
| DD8BA-10 | 2026-08-31 05:38:22 | 53.17979 | 8.26086 | 10° | 9km/h | 24729m | -28.4m/s | -51.9°C | 4.0% | 27.7hPa | 2.6V | 00:00:00 | 00:00:00 | 00:00:00 | |
| DO9LL-15 | 2026-08-31 05:38:21 | 53.17977 | 8.26086 | 36° | 13km/h | 24757m | -28.0m/s | -51.9°C | 4.0% | 27.6hPa | 2.6V | 00:00:00 | 02:06:41 | 00:00:00 | |
| DM0DOS-11 | 2026-08-31 05:38:20 | 53.17970 | 8.26070 | 45° | 11km/h | 24921m | -27.9m/s | -52°C | 4% | 26.9hPa | 2.6V | 08:26:22 | 02:06:35 | 00:00:00 | |
| DL1XH1-15 | 2026-08-31 05:38:19 | 53.17968 | 8.26067 | 48° | 13km/h | 24949m | -28.2m/s | -51.9°C | 4% | 26.8hPa | 2.6V | 08:26:23 | 02:06:34 | 00:00:00 | |
| DL1XH-west | 2026-08-31 05:38:19 | 53.17976 | 8.26082 | 52° | 5km/h | 24811m | -27.1m/s | -52.1°C | 0.7% | 27.4hPa | 2.7V | 08:26:18 | 02:06:39 | 00:00:00 | |
| BIOWL1-15 | 2026-08-31 05:38:16 | 53.17971 | 8.26074 | 43° | 11km/h | 24894m | -27.3m/s | -52.1°C | 0.7% | 27hPa | 2.6V | 08:27:09 | 02:06:36 | 00:00:00 | |
| DO2JMG | 2026-08-31 05:38:15 | 53.17970 | 8.26070 | 45° | 11km/h | 24921m | -27.9m/s | -52°C | 0.7% | 26.9hPa | 2.6V | 08:27:09 | 02:06:35 | 00:00:00 | |
| DF8AY | 2026-08-31 05:38:13 | 53.17966 | 8.26062 | 51° | 15km/h | 24977m | -29.3m/s | -51.9°C | 0.7% | 26.6hPa | 2.7V | 08:27:09 | 02:06:33 | 00:00:00 | |
| DK5PH-5 | 2026-08-31 05:38:13 | 53.17966 | 8.26062 | 51° | 15km/h | 24978m | -29.2m/s | -51.8°C | 4.0% | 26.6hPa | 2.7V | 00:00:00 | 02:06:33 | 00:00:00 | |
| DK9SH | 2026-08-31 05:38:12 | 53.17966 | 8.26062 | 52° | 15km/h | 24978m | -29.3m/s | -51.9°C | 1.1% | 26.6hPa | 2.6V | 00:00:00 | 00:00:00 | 00:00:00 | |
| DB0DAN | 2026-08-31 05:38:10 | 53.17961 | 8.26047 | 72° | 11km/h | 25060m | -28.1m/s | -51.9°C | 1.1% | 26.32hPa | 2.6V | 00:00:00 | 00:00:00 | 00:00:00 | |
| DL1XH1-15 | 2026-08-31 05:38:09 | 53.17962 | 8.26021 | 110° | 11km/h | 25234m | -29.9m/s | -51.5°C | 3.9% | 25.6hPa | 2.6V | 08:26:33 | 02:06:24 | 00:00:00 | |
| DL1XH-west | 2026-08-31 05:38:08 | 53.17959 | 8.26037 | 83° | 11km/h | 25117m | -29.3m/s | -51.8°C | 0.7% | 26.1hPa | 2.6V | 08:27:09 | 02:06:28 | 00:00:00 | |
| D01LWL | 2026-08-31 05:38:08 | 53.17959 | 8.26037 | 83° | 9km/h | 25117m | -29.3m/s | -51.8°C | 1.1% | 26.1hPa | 2.7V | 00:00:00 | 00:00:00 | 00:00:00 | |
| BIOWL9-15 | 2026-08-31 05:38:07 | 53.17960 | 8.26029 | 94° | 9km/h | 25176m | -29.3m/s | -51.8°C | 1.1% | 25.9hPa | 2.7V | 00:00:00 | 00:00:00 | 00:00:00 | |
| DL1XH-15 | 2026-08-31 05:38:06 | 53.17967 | 8.26009 | 141° | 13km/h | 25324m | -29.2m/s | -51°C | 3.8% | 25.3hPa | 2.7V | 08:26:36 | 02:06:21 | 00:00:00 | |
| AA1-15 | 2026-08-31 05:38:06 | 53.17960 | 8.26029 | 94° | 9km/h | 25175m | -29.3m/s | -51.8°C | 0.7% | 25.9hPa | 2.7V | 08:27:09 | 02:06:26 | 00:00:00 | |
| DM0DOS-11 | 2026-08-31 05:38:05 | 53.17960 | 8.26025 | 120° | 9km/h | 25205m | -29.7m/s | -51.7°C | 4% | 25.7hPa | 2.7V | 08:26:32 | 02:06:25 | 00:00:00 | |
| DO2JMG | 2026-08-31 05:38:05 | 53.17960 | 8.26025 | 120° | 9km/h | 25205m | -29.7m/s | -51.7°C | 0.7% | 25.7hPa | 2.7V | 08:27:09 | 02:06:25 | 00:00:00 | |
| HSKMA3-T | 2026-08-31 05:38:04 | 53.17961 | 8.26022 | 111° | 11km/h | 25234m | -29.9m/s | -51.5°C | 0.7% | 25.6hPa | 2.6V | 08:27:09 | 02:06:24 | 00:00:00 | |
| DF8AY | 2026-08-31 05:38:02 | 53.17965 | 8.26013 | 126° | 15km/h | 25294m | -29.7m/s | -51.1°C | 0.6% | 25.4hPa | 2.6V | 08:27:09 | 02:06:22 | 00:00:00 | |
| DD8BA-10 | 2026-08-31 05:38:02 | 53.17964 | 8.26013 | 126° | 15km/h | 25294m | -29.6m/s | -51.1°C | 3.8% | 25.4hPa | 2.7V | 00:00:00 | 00:00:00 | 00:00:00 | |
| GOEST3-10 | 2026-08-31 05:38:01 | 53.17967 | 8.26009 | 142° | 15km/h | 25324m | -29.1m/s | -51.0°C | 3.8% | 25.2hPa | 2.7V | 08:26:00 | 00:00:00 | 00:00:00 | |
| DM0DOS-11 | 2026-08-31 05:38:00 | 53.17986 | 8.26009 | 228° | 15km/h | 25504m | -32.9m/s | -51.1°C | 3.8% | 24.5hPa | 2.7V | 08:26:42 | 02:06:15 | 00:00:00 | |
| DO2SHX-10 | 2026-08-31 05:38:00 | 53.17970 | 8.26006 | 150° | 15km/h | 25353m | -30.0m/s | -50.9°C | 3.8% | 25.1hPa | 2.7V | 00:00:00 | 02:06:20 | 00:00:00 | |
| DL1XH1-15 | 2026-08-31 05:37:59 | 53.17987 | 8.26014 | 252° | 13km/h | 25536m | -30.7m/s | -51.1°C | 3.8% | 24.4hPa | 2.7V | 08:26:43 | 02:06:14 | 00:00:00 | |
| DL1XH-west | 2026-08-31 05:37:58 | 53.17976 | 8.26003 | 175° | 16km/h | 25413m | -29.5m/s | -51°C | 0.6% | 24.9hPa | 2.6V | 08:27:09 | 02:06:18 | 00:00:00 | |
| MET0W-2 | 2026-08-31 05:37:58 | 53.17988 | 8.26026 | 280° | 15km/h | 25595m | -30.9m/s | -51.1°C | 1.0% | 24.2hPa | 2.6V | 00:00:00 | 00:00:00 | 00:00:00 | |
| DO2SHX-10 | 2026-08-31 05:37:57 | 53.17980 | 8.26003 | 189° | 15km/h | 25443m | -29.9m/s | -51.0°C | 3.8% | 24.8hPa | 2.6V | 00:00:00 | 02:06:17 | 00:00:00 | |
| DL1XH-15 | 2026-08-31 05:37:56 | 53.17987 | 8.26031 | 302° | 13km/h | 25625m | -30m/s | -51.2°C | 3.9% | 24.1hPa | 2.6V | 08:26:46 | 02:06:11 | 00:00:00 | |
| AA1-15 | 2026-08-31 05:37:56 | 53.17983 | 8.26005 | 221° | 13km/h | 25473m | -30.7m/s | -51.1°C | 0.6% | 24.7hPa | 2.6V | 08:27:09 | 02:06:16 | 00:00:00 | |
| DB0DAN | 2026-08-31 05:37:55 | 53.17985 | 8.26009 | 229° | 15km/h | 25504m | -32.9m/s | -51.1°C | 1% | 24.54hPa | 2.7V | 00:00:00 | 00:00:00 | 00:00:00 | |
| DO2JMG | 2026-08-31 05:37:55 | 53.17985 | 8.26009 | 229° | 15km/h | 25504m | -32.9m/s | -51.1°C | 0.6% | 24.5hPa | 2.7V | 08:27:09 | 02:06:15 | 00:00:00 | |
| HSKMA3-T | 2026-08-31 05:37:54 | 53.17987 | 8.26014 | 253° | 13km/h | 25536m | -30.7m/s | -51.1°C | 0.6% | 24.4hPa | 2.7V | 08:27:09 | 02:06:14 | 00:00:00 | |
| DF8AY | 2026-08-31 05:37:51 | 53.17987 | 8.26031 | 303° | 13km/h | 25625m | -30m/s | -51.2°C | 0.7% | 24.1hPa | 2.6V | 08:27:09 | 02:06:11 | 00:00:00 | |
| DO2SHX-10 | 2026-08-31 05:37:51 | 53.17987 | 8.26031 | 303° | 15km/h | 25625m | -29.9m/s | -51.2°C | 3.9% | 24.0hPa | 2.6V | 00:00:00 | 02:06:11 | 00:00:00 | |
| DL1XH1-15 | 2026-08-31 05:37:49 | 53.17962 | 8.26031 | 34° | 16km/h | 25840m | -31.7m/s | -51°C | 3.9% | 23.3hPa | 2.6V | 08:26:53 | 02:06:04 | 00:00:00 | |
| DL1XH-west | 2026-08-31 05:37:47 | 53.17974 | 8.26040 | 14° | 16km/h | 25747m | -30.2m/s | -51.3°C | 0.7% | 23.6hPa | 2.7V | 08:27:09 | 02:06:07 | 00:00:00 | |
| DL1XH-15 | 2026-08-31 05:37:46 | 53.17954 | 8.26020 | 58° | 9km/h | 25935m | -32.5m/s | -51.1°C | 4% | 22.9hPa | 2.7V | 08:26:56 | 02:06:01 | 00:00:00 | |
| AA1-15 | 2026-08-31 05:37:45 | 53.17966 | 8.26035 | 35° | 18km/h | 25808m | -31.5m/s | -51.1°C | 0.7% | 23.4hPa | 2.6V | 08:27:09 | 02:06:05 | 00:00:00 | |
| DO2JMG | 2026-08-31 05:37:44 | 53.17962 | 8.26031 | 34° | 18km/h | 25840m | -31.7m/s | -51.1°C | 0.6% | 23.3hPa | 2.6V | 08:27:09 | 02:06:04 | 00:00:00 | |
| BIOWL1-15 | 2026-08-31 05:37:43 | 53.17959 | 8.26027 | 46° | 16km/h | 25871m | -31.9m/s | -51.1°C | 0.7% | 23.2hPa | 2.7V | 08:27:09 | 02:06:03 | 00:00:00 | |
| DF8AY | 2026-08-31 05:37:41 | 53.17954 | 8.26020 | 59° | 9km/h | 25935m | -32.5m/s | -51.1°C | 0.7% | 23hPa | 2.7V | 08:27:09 | 02:06:01 | 00:00:00 | |
| GOEST3-10 | 2026-08-31 05:37:41 | 53.17954 | 8.26020 | 59° | 5km/h | 25935m | -32.5m/s | -51.0°C | 4.0% | 22.9hPa | 2.7V | 00:00:00 | 00:00:00 | 00:00:00 | |
| DM0DOS-11 | 2026-08-31 05:37:40 | 53.17950 | 8.26019 | 348° | 5km/h | 26122m | -32.1m/s | -50.6°C | 3.9% | 22.3hPa | 2.7V | 08:27:02 | 02:05:55 | 00:00:00 | |
| DB0DAN | 2026-08-31 05:37:40 | 53.17953 | 8.26017 | 51° | 7km/h | 25966m | -29.1m/s | -51°C | 1.1% | 22.85hPa | 2.6V | 00:00:00 | 00:00:00 | 00:00:00 | |
| DL1XH-west | 2026-08-31 05:37:37 | 53.17952 | 8.26016 | 317° | 4km/h | 26058m | -31.4m/s | -51°C | 0.8% | 22.5hPa | 2.7V | 08:27:09 | 02:05:57 | 00:00:00 | |
| AA1-15 | 2026-08-31 05:37:35 | 53.17950 | 8.26019 | 349° | 5km/h | 26122m | -32.1m/s | -50.6°C | 0.7% | 22.3hPa | 2.7V | 08:27:09 | 02:05:55 | 00:00:00 | |
| DO2JMG | 2026-08-31 05:37:33 | 53.17947 | 8.26018 | 21° | 7km/h | 26188m | -33.5m/s | -50.1°C | 0.5% | 22.1hPa | 2.6V | 08:27:09 | 02:05:53 | 00:00:00 | |
| HSKMA3-T | 2026-08-31 05:37:32 | 53.17945 | 8.26015 | 42° | 15km/h | 26221m | -32.5m/s | -49.9°C | 0.5% | 21.9hPa | 2.6V | 08:27:09 | 02:05:52 | 00:00:00 | |
| DF8AY | 2026-08-31 05:37:30 | 53.17940 | 8.26005 | 54° | 20km/h | 26286m | -33.6m/s | -49.7°C | 0.5% | 21.7hPa | 2.7V | 08:27:09 | 02:05:50 | 00:00:00 | |
| DL1XH-west | 2026-08-31 05:37:27 | 53.17935 | 8.25983 | 85° | 18km/h | 26383m | -32.7m/s | -49.4°C | 0.4% | 21.4hPa | 2.6V | 08:28:00 | 02:05:47 | 00:00:00 | |
| DO2SHX-10 | 2026-08-31 05:37:27 | 53.17935 | 8.25983 | 86° | 18km/h | 26384m | -32.6m/s | -49.3°C | 3.4% | 21.3hPa | 2.6V | 08:27:00 | 02:05:47 | 00:00:00 | |
| DL1XH1-15 | 2026-08-31 05:37:26 | 53.17940 | 8.25964 | 147° | 16km/h | 26480m | -32m/s | -49.3°C | 3.4% | 21.1hPa | 2.7V | 08:27:13 | 02:05:44 | 00:00:00 | |
| DB0DAN | 2026-08-31 05:37:25 | 53.17938 | 8.25969 | 119° | 16km/h | 26448m | -31.1m/s | -49.3°C | 0.9% | 21.18hPa | 2.7V | 00:00:00 | 00:00:00 | 00:00:00 | |
| DM0DOS-11 | 2026-08-31 05:37:25 | 53.17937 | 8.25969 | 119° | 16km/h | 26448m | -31.1m/s | -49.3°C | 3.4% | 21.2hPa | 2.7V | 08:27:12 | 02:05:45 | 00:00:00 | |
| AA1-15 | 2026-08-31 05:37:24 | 53.17940 | 8.25964 | 147° | 16km/h | 26480m | -32m/s | -49.3°C | 0.4% | 21.1hPa | 2.7V | 08:28:00 | 02:05:44 | 00:00:00 | |
| DO2JMG | 2026-08-31 05:37:23 | 53.17944 | 8.25962 | 164° | 16km/h | 26512m | -32.5m/s | -49.4°C | 0.4% | 21hPa | 2.7V | 08:28:00 | 02:05:43 | 00:00:00 | |
| HSKMA3-T | 2026-08-31 05:37:22 | 53.17948 | 8.25961 | 181° | 15km/h | 26545m | -34.6m/s | -49.3°C | 0.4% | 20.9hPa | 2.6V | 08:28:00 | 02:05:42 | 00:00:00 | |
| DF8AY | 2026-08-31 05:37:19 | 53.17957 | 8.25968 | 224° | 11km/h | 26645m | -33.4m/s | -49.4°C | 0.4% | 20.6hPa | 2.7V | 08:28:00 | 02:05:39 | 00:00:00 | |
| DL1XH-west | 2026-08-31 05:37:16 | 53.17959 | 8.25978 | 253° | 7km/h | 26743m | -32.5m/s | -49.5°C | 0.4% | 20.2hPa | 2.6V | 08:28:00 | 02:05:36 | 00:00:00 | |
| DL1XH1-15 | 2026-08-31 05:37:16 | 53.17958 | 8.25983 | 313° | 5km/h | 26807m | -31.6m/s | -49.7°C | 3.6% | 20hPa | 2.6V | 08:27:23 | 02:05:34 | 00:00:00 | |
| DL1XH-15 | 2026-08-31 05:37:16 | 53.17955 | 8.25990 | 331° | 7km/h | 26903m | -30.1m/s | -49.8°C | 3.6% | 19.7hPa | 2.7V | 08:27:26 | 02:05:31 | 00:00:00 | |
| AA1-15 | 2026-08-31 05:37:14 | 53.17959 | 8.25983 | 313° | 5km/h | 26807m | -31.6m/s | -49.7°C | 0.5% | 20hPa | 2.6V | 08:28:00 | 02:05:34 | 00:00:00 | |
| DO2JMG | 2026-08-31 05:37:12 | 53.17956 | 8.25988 | 310° | 5km/h | 26871m | -33.2m/s | -49.8°C | 0.5% | 19.8hPa | 2.7V | 08:28:00 | 02:05:32 | 00:00:00 | |
| BIOWL1-15 | 2026-08-31 05:37:11 | 53.17955 | 8.25990 | 332° | 7km/h | 26903m | -30.2m/s | -49.8°C | 0.4% | 19.7hPa | 2.7V | 08:28:00 | 02:05:31 | 00:00:00 | |
| DB0DAN | 2026-08-31 05:37:10 | 53.17953 | 8.25991 | 332° | 7km/h | 26935m | -32m/s | -49.8°C | 0.9% | 19.62hPa | 2.6V | 00:00:00 | 00:00:00 | 00:00:00 | |
| DF8AY | 2026-08-31 05:37:08 | 53.17950 | 8.25995 | 328° | 9km/h | 26998m | -31.5m/s | -50°C | 0.5% | 19.4hPa | 2.6V | 08:28:00 | 02:05:28 | 00:00:00 | |
| DO3DL | 2026-08-31 05:37:08 | 53.17950 | 8.25995 | 329° | 9km/h | 26998m | -31.5m/s | -50.0°C | 1.0% | 19.4hPa | 2.7V | 08:28:00 | 00:00:00 | 00:00:00 | |
| SONCRA | 2026-08-31 05:37:07 | 53.17948 | 8.25997 | 328° | 7km/h | 27029m | -31.6m/s | -50.1°C | 1.0% | 19.3hPa | 2.7V | 00:00:00 | 00:00:00 | 00:00:00 | |
| DL1XH-15 | 2026-08-31 05:37:06 | 53.17932 | 8.25997 | 40° | 15km/h | 27231m | -34.7m/s | -50.1°C | 3.8% | 18.7hPa | 2.7V | 08:27:36 | 02:05:21 | 00:00:00 | |
| DL1XH-west | 2026-08-31 05:37:06 | 53.17946 | 8.25999 | 335° | 11km/h | 27061m | -31.7m/s | -50.2°C | 0.6% | 19.2hPa | 2.7V | 08:28:00 | 02:05:26 | 00:00:00 | |
| AA1-15 | 2026-08-31 05:37:03 | 53.17938 | 8.26001 | 4° | 13km/h | 27162m | -35.7m/s | -50.3°C | 0.6% | 18.9hPa | 2.6V | 08:28:00 | 02:05:23 | 00:00:00 | |
| DO2JMG | 2026-08-31 05:37:02 | 53.17935 | 8.26000 | 24° | 13km/h | 27197m | -34.5m/s | -50.3°C | 0.6% | 18.8hPa | 2.6V | 08:28:00 | 02:05:22 | 00:00:00 | |
| BIOWL1-15 | 2026-08-31 05:37:01 | 53.17932 | 8.25997 | 41° | 16km/h | 27231m | -34.7m/s | -50.2°C | 0.6% | 18.7hPa | 2.7V | 08:28:00 | 02:05:21 | 00:00:00 | |
| DM0DOS-11 | 2026-08-31 05:37:00 | 53.17922 | 8.25956 | 94° | 16km/h | 27430m | -33.9m/s | -49.6°C | 3.6% | 18.1hPa | 2.7V | 08:27:42 | 02:05:15 | 00:00:00 | |
| HSKMA3-T | 2026-08-31 05:37:00 | 53.17930 | 8.25992 | 56° | 18km/h | 27265m | -33.8m/s | -49.9°C | 0.6% | 18.6hPa | 2.7V | 08:28:00 | 02:05:20 | 00:00:00 | |
| DF8AY | 2026-08-31 05:36:58 | 53.17925 | 8.25978 | 68° | 20km/h | 27333m | -34.4m/s | -49.8°C | 0.5% | 18.4hPa | 2.6V | 08:28:00 | 02:05:18 | 00:00:00 | |
| DO2SHX-10 | 2026-08-31 05:36:57 | 53.17923 | 8.25971 | 70° | 20km/h | 27366m | -31.2m/s | -49.7°C | 3.7% | 18.2hPa | 2.6V | 00:00:00 | 02:05:17 | 00:00:00 | |
| DL1XH-15 | 2026-08-31 05:36:56 | 53.17931 | 8.25946 | 189° | 15km/h | 27568m | -35.7m/s | -49.6°C | 3.7% | 17.8hPa | 2.6V | 08:27:46 | 02:05:11 | 00:00:00 | |
| DB0DAN | 2026-08-31 05:36:55 | 53.17922 | 8.25956 | 94° | 15km/h | 27430m | -33.9m/s | -49.6°C | 0.9% | 18.12hPa | 2.7V | 00:00:00 | 00:00:00 | 00:00:00 | |
| DL1XH-west | 2026-08-31 05:36:55 | 53.17922 | 8.25956 | 94° | 16km/h | 27430m | -33.9m/s | -49.6°C | 0.5% | 18.1hPa | 2.7V | 08:28:00 | 02:05:15 | 00:00:00 | |
| AA1-15 | 2026-08-31 05:36:52 | 53.17928 | 8.25946 | 170° | 15km/h | 27532m | -34.9m/s | -49.5°C | 0.5% | 17.9hPa | 2.6V | 08:28:00 | 02:05:12 | 00:00:00 | |
| DO2JMG | 2026-08-31 05:36:51 | 53.17931 | 8.25946 | 190° | 15km/h | 27568m | -35.7m/s | -49.6°C | 0.5% | 17.8hPa | 2.6V | 08:28:00 | 02:05:11 | 00:00:00 | |
| BIOWL1-15 | 2026-08-31 05:36:50 | 53.17935 | 8.25948 | 202° | 16km/h | 27604m | -36.7m/s | -49.6°C | 0.5% | 17.7hPa | 2.6V | 08:28:00 | 02:05:10 | 00:00:00 | |
| HSKMA3-T | 2026-08-31 05:36:49 | 53.17939 | 8.25951 | 214° | 18km/h | 27640m | -36.1m/s | -49.7°C | 0.6% | 17.6hPa | 2.7V | 08:28:00 | 02:05:09 | 00:00:00 | |
| DF8AY | 2026-08-31 05:36:47 | 53.17946 | 8.25959 | 216° | 13km/h | 27710m | -34m/s | -49.5°C | 0.6% | 17.4hPa | 2.7V | 08:28:00 | 02:05:07 | 00:00:00 | |
| DL1XH1-15 | 2026-08-31 05:36:46 | 53.17950 | 8.25964 | 59° | 2km/h | 27815m | -36.3m/s | -49.2°C | 3.7% | 17.1hPa | 2.6V | 08:27:53 | 02:05:04 | 00:00:00 | |
| DD1CC8 | 2026-08-31 05:36:46 | 53.17950 | 8.25964 | 193° | 2km/h | 27781m | -34.2m/s | -49.4°C | 1.0% | 17.2hPa | 2.6V | 00:00:00 | 00:00:00 | 00:00:00 | |
| DL1XH-west | 2026-08-31 05:36:44 | 53.17951 | 8.25964 | 60° | 2km/h | 27816m | -36.3m/s | -49.3°C | 0.5% | 17.1hPa | 2.6V | 08:28:00 | 02:05:04 | 00:00:00 | |
| DO2JMG | 2026-08-31 05:36:41 | 53.17945 | 8.25952 | 48° | 20km/h | 27918m | -32.5m/s | -49.1°C | 0.5% | 16.8hPa | 2.7V | 08:28:00 | 02:05:01 | 00:00:00 | |
| DB0DAN | 2026-08-31 05:36:40 | 53.17942 | 8.25946 | 52° | 20km/h | 27951m | -34.2m/s | -49°C | 1% | 16.76hPa | 2.6V | 00:00:00 | 00:00:00 | 00:00:00 | |
| BIOWL1-15 | 2026-08-31 05:36:39 | 53.17940 | 8.25939 | 65° | 20km/h | 27986m | -35.3m/s | -48.9°C | 0.5% | 16.6hPa | 2.6V | 08:28:00 | 02:04:59 | 00:00:00 | |
| DF8AY | 2026-08-31 05:36:38 | 53.17937 | 8.25924 | 91° | 16km/h | 28059m | -37.9m/s | -48.7°C | 0.5% | 16.4hPa | 2.7V | 08:28:00 | 02:04:57 | 00:00:00 | |
| DL1XH-west | 2026-08-31 05:36:34 | 53.17942 | 8.25903 | 131° | 20km/h | 28168m | -36.1m/s | -48.7°C | 0.5% | 16.2hPa | 2.7V | 08:28:51 | 02:04:54 | 00:00:00 | |
| BIOWL9-15 | 2026-08-31 05:36:34 | 53.17946 | 8.25897 | 143° | 20km/h | 28205m | -36.5m/s | -48.6°C | 0.9% | 16.1hPa | 2.7V | 00:00:00 | 00:00:00 | 00:00:00 | |
| DO2SHX-10 | 2026-08-31 05:36:33 | 53.17945 | 8.25897 | 144° | 22km/h | 28206m | -36.4m/s | -48.6°C | 3.6% | 16.1hPa | 2.7V | 08:28:00 | 02:04:53 | 00:00:00 | |
| DD8BA-10 | 2026-08-31 05:36:32 | 53.17950 | 8.25892 | 156° | 22km/h | 28242m | -36.7m/s | -48.5°C | 3.6% | 16.0hPa | 2.6V | 00:00:00 | 00:00:00 | 00:00:00 | |
| GOEST3-10 | 2026-08-31 05:36:31 | 53.17956 | 8.25889 | 166° | 26km/h | 28280m | -39.0m/s | -48.5°C | 3.6% | 15.8hPa | 2.6V | 08:28:00 | 00:00:00 | 00:00:00 | |
| DM0DOS-11 | 2026-08-31 05:36:30 | 53.17992 | 8.25889 | 213° | 15km/h | 28495m | -35.4m/s | -47.8°C | 3.5% | 15.3hPa | 2.7V | 08:28:12 | 02:04:45 | 00:00:00 | |
| DO2JMG | 2026-08-31 05:36:30 | 53.17962 | 8.25886 | 166° | 27km/h | 28317m | -36.7m/s | -48.4°C | 0.5% | 15.8hPa | 2.7V | 08:28:51 | 02:04:50 | 00:00:00 | |
| HSKMA3-T | 2026-08-31 05:36:28 | 53.17976 | 8.25884 | 179° | 26km/h | 28391m | -33.9m/s | -48.3°C | 0.5% | 15.6hPa | 2.6V | 08:28:51 | 02:04:48 | 00:00:00 | |
| DF8AY | 2026-08-31 05:36:26 | 53.17987 | 8.25887 | 194° | 20km/h | 28460m | -33.4m/s | -47.9°C | 0.4% | 15.5hPa | 2.7V | 08:28:51 | 02:04:46 | 00:00:00 | |
| DB0DAN | 2026-08-31 05:36:25 | 53.17992 | 8.25889 | 213° | 15km/h | 28495m | -35.4m/s | -47.8°C | 0.9% | 15.36hPa | 2.7V | 00:00:00 | 00:00:00 | 00:00:00 | |
| DJ2DS-15 | 2026-08-31 05:36:25 | 53.17992 | 8.25889 | 214° | 7km/h | 28495m | -35.4m/s | -47.7°C | 3.5% | 15.3hPa | 2.6V | 00:00:00 | 02:04:45 | 00:00:00 | |
| DO2SHX-10 | 2026-08-31 05:36:24 | 53.17994 | 8.25892 | 234° | 11km/h | 28530m | -35.4m/s | -47.6°C | 3.4% | 15.2hPa | 2.6V | 00:00:00 | 02:04:44 | 00:00:00 | |
| DL1XH-west | 2026-08-31 05:36:24 | 53.17994 | 8.25892 | 234° | 11km/h | 28530m | -35.4m/s | -47.6°C | 0.4% | 15.3hPa | 2.6V | 08:28:51 | 02:04:44 | 00:00:00 | |
| DD8BA-10 | 2026-08-31 05:36:22 | 53.17995 | 8.25901 | 272° | 9km/h | 28602m | -35.1m/s | -46.9°C | 3.2% | 15.1hPa | 2.7V | 00:00:00 | 00:00:00 | 00:00:00 | |
| DO2SHX-10 | 2026-08-31 05:36:21 | 53.17995 | 8.25905 | 299° | 11km/h | 28637m | -33.7m/s | -46.8°C | 3.2% | 15.0hPa | 2.7V | 00:00:00 | 02:04:41 | 00:00:00 | |
| DM0DOS-11 | 2026-08-31 05:36:20 | 53.17985 | 8.25911 | 39° | 7km/h | 28854m | -38.6m/s | -46.9°C | 3.2% | 14.5hPa | 2.7V | 08:28:22 | 02:04:35 | 00:00:00 | |
| DO2JMG | 2026-08-31 05:36:20 | 53.17993 | 8.25909 | 305° | 11km/h | 28670m | -33.9m/s | -46.7°C | 0.2% | 15hPa | 2.7V | 08:28:51 | 02:04:40 | 00:00:00 | |
| AA1-15 | 2026-08-31 05:36:19 | 53.17992 | 8.25912 | 326° | 9km/h | 28706m | -36.8m/s | -46.7°C | 0.2% | 14.9hPa | 2.6V | 08:28:51 | 02:04:39 | 00:00:00 | |
| DO2SHX-10 | 2026-08-31 05:36:18 | 53.17990 | 8.25914 | 350° | 7km/h | 28743m | -37.4m/s | -46.8°C | 3.2% | 14.7hPa | 2.7V | 00:00:00 | 02:04:38 | 00:00:00 | |
| BIOWL1-15 | 2026-08-31 05:36:18 | 53.17990 | 8.25914 | 349° | 9km/h | 28742m | -37.4m/s | -46.8°C | 0.2% | 14.8hPa | 2.6V | 08:28:51 | 02:04:38 | 00:00:00 | |
| DL1XH1-15 | 2026-08-31 05:36:16 | 53.17983 | 8.25909 | 40° | 5km/h | 28894m | -40.3m/s | -46.8°C | 3.2% | 14.4hPa | 2.7V | 08:28:23 | 02:04:34 | 00:00:00 | |
| DF8AY | 2026-08-31 05:36:16 | 53.17986 | 8.25912 | 37° | 7km/h | 28816m | -38.2m/s | -47°C | 0.2% | 14.6hPa | 2.7V | 08:28:51 | 02:04:36 | 00:00:00 | |
| DL1XH-west | 2026-08-31 05:36:14 | 53.17983 | 8.25909 | 40° | 5km/h | 28894m | -40.3m/s | -46.8°C | 0.2% | 14.4hPa | 2.7V | 08:28:51 | 02:04:34 | 00:00:00 | |
| DO2SHX-10 | 2026-08-31 05:36:14 | 53.17983 | 8.25909 | 41° | 5km/h | 28894m | -40.2m/s | -46.8°C | 3.2% | 14.4hPa | 2.7V | 00:00:00 | 02:04:34 | 00:00:00 | |
| DK5PH-5 | 2026-08-31 05:36:13 | 53.17982 | 8.25907 | 36° | 11km/h | 28934m | -40.7m/s | -46.8°C | 3.2% | 14.3hPa | 2.7V | 00:00:00 | 02:04:33 | 00:00:00 | |
| DD1CC2-15 | 2026-08-31 05:36:12 | 53.17982 | 8.25907 | 36° | 5km/h | 28934m | -40.7m/s | -46.8°C | 0.9% | 14.4hPa | 2.7V | 08:28:00 | 00:00:00 | 00:00:00 | |
| DB0DAN | 2026-08-31 05:36:10 | 53.17980 | 8.25904 | 30° | 2km/h | 29047m | -36.2m/s | -46.8°C | 0.8% | 14.08hPa | 2.7V | 00:00:00 | 00:00:00 | 00:00:00 | |
| DM0DOS-11 | 2026-08-31 05:36:10 | 53.17984 | 8.25895 | 108° | 13km/h | 29229m | -35.4m/s | -46.4°C | 3.2% | 13.7hPa | 2.6V | 08:28:32 | 02:04:25 | 00:00:00 | |
| DL1XH1-15 | 2026-08-31 05:36:09 | 53.17985 | 8.25889 | 116° | 16km/h | 29265m | -36.5m/s | -46.4°C | 3.2% | 13.6hPa | 2.7V | 08:28:33 | 02:04:24 | 00:00:00 | |
| DO2JMG | 2026-08-31 05:36:09 | 53.17980 | 8.25904 | 197° | 2km/h | 29083m | -38.2m/s | -46.8°C | 0.3% | 14hPa | 2.7V | 08:28:51 | 02:04:29 | 00:00:00 | |
| HSKMA3-T | 2026-08-31 05:36:07 | 53.17981 | 8.25902 | 147° | 7km/h | 29156m | -37.8m/s | -46.7°C | 0.3% | 13.8hPa | 2.6V | 08:28:51 | 02:04:27 | 00:00:00 | |
| DF8AY | 2026-08-31 05:36:06 | 53.17982 | 8.25900 | 120° | 11km/h | 29193m | -37.3m/s | -46.5°C | 0.3% | 13.8hPa | 2.6V | 08:28:51 | 02:04:26 | 00:00:00 | |
| DL1XH-west | 2026-08-31 05:36:04 | 53.17985 | 8.25889 | 117° | 16km/h | 29265m | -36.5m/s | -46.4°C | 0.2% | 13.6hPa | 2.7V | 08:28:51 | 02:04:24 | 00:00:00 | |
| D01LWL | 2026-08-31 05:36:04 | 53.17987 | 8.25882 | 115° | 20km/h | 29301m | -34.8m/s | -46.3°C | 0.8% | 13.5hPa | 2.6V | 00:00:00 | 00:00:00 | 00:00:00 | |
| BIOWL9-15 | 2026-08-31 05:36:03 | 53.17989 | 8.25874 | 111° | 20km/h | 29335m | -34.9m/s | -46.3°C | 0.8% | 13.5hPa | 2.6V | 00:00:00 | 00:00:00 | 00:00:00 | |
| DL3AQ-11 | 2026-08-31 05:36:00 | 53.17997 | 8.25854 | 134° | 18km/h | 29448m | -38.3m/s | -46.2°C | 0.8% | 13.2hPa | 2.6V | 00:00:00 | 00:00:00 | 00:00:00 | |
| DL1XH1-15 | 2026-08-31 05:35:59 | 53.18015 | 8.25839 | 176° | 13km/h | 29634m | -38m/s | -46.3°C | 3.3% | 12.8hPa | 2.6V | 08:28:43 | 02:04:14 | 00:00:00 | |
| DO2SHX-10 | 2026-08-31 05:35:59 | 53.17997 | 8.25854 | 135° | 16km/h | 29448m | -38.2m/s | -46.1°C | 3.2% | 13.2hPa | 2.6V | 00:00:00 | 02:04:19 | 00:00:00 | |
| DM0DOS-11 | 2026-08-31 05:35:58 | 53.18011 | 8.25840 | 167° | 16km/h | 29596m | -37.7m/s | -46.3°C | 3.3% | 12.9hPa | 2.6V | 08:28:42 | 02:04:15 | 00:00:00 | |
| DO2JMG | 2026-08-31 05:35:58 | 53.18001 | 8.25849 | 139° | 16km/h | 29485m | -37.2m/s | -46.2°C | 0.2% | 13.2hPa | 2.7V | 08:28:51 | 02:04:18 | 00:00:00 | |
| BIOWL1-15 | 2026-08-31 05:35:57 | 53.18004 | 8.25845 | 145° | 15km/h | 29522m | -37.2m/s | -46.2°C | 0.3% | 13.1hPa | 2.7V | 08:28:51 | 02:04:17 | 00:00:00 | |
| DF8AY | 2026-08-31 05:35:56 | 53.18007 | 8.25842 | 155° | 16km/h | 29559m | -37.4m/s | -46.3°C | 0.3% | 13hPa | 2.7V | 08:28:51 | 02:04:16 | 00:00:00 | |
| DB0DAN | 2026-08-31 05:35:55 | 53.18011 | 8.25840 | 168° | 15km/h | 29596m | -37.7m/s | -46.3°C | 0.9% | 12.91hPa | 2.6V | 00:00:00 | 00:00:00 | 00:00:00 | |
| DL1XH-west | 2026-08-31 05:35:53 | 53.18018 | 8.25838 | 179° | 13km/h | 29672m | -38.5m/s | -46.2°C | 0.3% | 12.8hPa | 2.6V | 08:28:51 | 02:04:13 | 00:00:00 | |
| DO2SHX-10 | 2026-08-31 05:35:53 | 53.18018 | 8.25838 | 179° | 13km/h | 29673m | -38.5m/s | -46.1°C | 3.3% | 12.7hPa | 2.7V | 00:00:00 | 02:04:13 | 00:00:00 | |
| DD8BA-10 | 2026-08-31 05:35:52 | 53.18021 | 8.25838 | 177° | 11km/h | 29711m | -38.5m/s | -45.9°C | 3.3% | 12.6hPa | 2.7V | 00:00:00 | 00:00:00 | 00:00:00 | |
| GOEST3-10 | 2026-08-31 05:35:51 | 53.18024 | 8.25838 | 171° | 9km/h | 29748m | -36.0m/s | -45.8°C | 3.3% | 12.6hPa | 2.7V | 00:00:00 | 00:00:00 | 00:00:00 | |
| DM0DOS-11 | 2026-08-31 05:35:50 | 53.18031 | 8.25849 | 284° | 13km/h | 29974m | -39.3m/s | -43.5°C | 2.7% | 12.2hPa | 2.7V | 08:28:52 | 02:04:05 | 00:00:00 | |
| DO2SHX-10 | 2026-08-31 05:35:50 | 53.18027 | 8.25837 | 174° | 9km/h | 29784m | -34.8m/s | -45.6°C | 3.2% | 12.5hPa | 2.7V | 00:00:00 | 02:04:10 | 00:00:00 | |
| DL1XH1-15 | 2026-08-31 05:35:49 | 53.18031 | 8.25854 | 270° | 15km/h | 30013m | -41m/s | -43.5°C | 2.6% | 12.1hPa | 2.7V | 08:28:53 | 02:04:04 | 00:00:00 | |
| DO2JMG | 2026-08-31 05:35:48 | 53.18031 | 8.25838 | 202° | 7km/h | 29855m | -37.4m/s | -44.6°C | 0% | 12.4hPa | 2.6V | 08:28:51 | 02:04:08 | 00:00:00 | |
| HSKMA3-T | 2026-08-31 05:35:46 | 53.18032 | 8.25844 | 274° | 9km/h | 29934m | -39.5m/s | -43.6°C | 0% | 12.3hPa | 2.7V | 08:28:51 | 02:04:06 | 00:00:00 | |
| DF8AY | 2026-08-31 05:35:45 | 53.18031 | 8.25849 | 285° | 15km/h | 29974m | -39.3m/s | -43.5°C | 0% | 12.2hPa | 2.7V | 08:29:42 | 02:04:05 | 00:00:00 | |
| DL1XH-west | 2026-08-31 05:35:42 | 53.18030 | 8.25867 | 274° | 15km/h | 30092m | -40.6m/s | -43.6°C | 0% | 12hPa | 2.6V | 08:29:42 | 02:04:02 | 00:00:00 | |
| DB0DAN | 2026-08-31 05:35:40 | 53.18029 | 8.25879 | 274° | 13km/h | 30169m | -37.9m/s | -44.1°C | 0.7% | 11.83hPa | 2.7V | 00:00:00 | 00:00:00 | 00:00:00 | |
| DL1XH1-15 | 2026-08-31 05:35:39 | 53.18025 | 8.25898 | 316° | 11km/h | 30395m | -37.3m/s | -44.7°C | 3% | 11.4hPa | 2.6V | 08:29:03 | 02:03:54 | 00:00:00 | |
| AA1-15 | 2026-08-31 05:35:38 | 53.18028 | 8.25888 | 275° | 9km/h | 30244m | -37.4m/s | -44.5°C | 0% | 11.7hPa | 2.6V | 08:29:42 | 02:03:58 | 00:00:00 | |
| DO2JMG | 2026-08-31 05:35:37 | 53.18028 | 8.25891 | 299° | 5km/h | 30281m | -36.6m/s | -44.6°C | 0.1% | 11.6hPa | 2.7V | 08:29:42 | 02:03:57 | 00:00:00 | |
| BIOWL1-15 | 2026-08-31 05:35:36 | 53.18027 | 8.25894 | 290° | 7km/h | 30319m | -38.8m/s | -44.6°C | 0.1% | 11.5hPa | 2.7V | 08:29:42 | 02:03:56 | 00:00:00 | |
| DF8AY | 2026-08-31 05:35:35 | 53.18027 | 8.25896 | 317° | 5km/h | 30357m | -38m/s | -44.7°C | 0.1% | 11.5hPa | 2.6V | 08:29:42 | 02:03:55 | 00:00:00 | |
| DL1XH-west | 2026-08-31 05:35:31 | 53.18020 | 8.25910 | 307° | 15km/h | 30506m | -36.5m/s | -44.2°C | 0% | 11.2hPa | 2.6V | 08:29:42 | 02:03:51 | 00:00:00 | |
| AA1-15 | 2026-08-31 05:35:28 | 53.18011 | 8.25924 | 318° | 15km/h | 30609m | -34.3m/s | -43.7°C | 0% | 11hPa | 2.7V | 08:29:42 | 02:03:48 | 00:00:00 | |
| DM0DOS-11 | 2026-08-31 05:35:27 | 53.18004 | 8.25935 | 321° | 9km/h | 30719m | -37.6m/s | -43.4°C | 2.8% | 10.8hPa | 2.7V | 08:29:12 | 02:03:45 | 00:00:00 | |
| DO2JMG | 2026-08-31 05:35:27 | 53.18008 | 8.25928 | 318° | 15km/h | 30645m | -38.8m/s | -43.7°C | 0% | 11hPa | 2.6V | 08:29:42 | 02:03:47 | 00:00:00 | |
| HSKMA3-T | 2026-08-31 05:35:26 | 53.18006 | 8.25932 | 317° | 11km/h | 30682m | -36.5m/s | -43.6°C | 0% | 10.9hPa | 2.6V | 08:29:42 | 02:03:46 | 00:00:00 | |
| BIOWL1-15 | 2026-08-31 05:35:25 | 53.18004 | 8.25935 | 322° | 9km/h | 30719m | -37.6m/s | -43.4°C | 0% | 10.8hPa | 2.7V | 08:29:42 | 02:03:45 | 00:00:00 | |
| DF8AY | 2026-08-31 05:35:24 | 53.18003 | 8.25937 | 298° | 5km/h | 30757m | -38.4m/s | -43.3°C | 0% | 10.8hPa | 2.7V | 08:29:42 | 02:03:44 | 00:00:00 | |
| DL1XH-west | 2026-08-31 05:35:20 | 53.18000 | 8.25944 | 323° | 9km/h | 30903m | -36.4m/s | -43.3°C | 0% | 10.5hPa | 2.7V | 08:29:42 | 02:03:40 | 00:00:00 | |
| DM0DOS-11 | 2026-08-31 05:35:20 | 53.17984 | 8.25962 | 326° | 16km/h | 31094m | -40.4m/s | -42.9°C | 2.8% | 10.2hPa | 2.7V | 08:29:22 | 02:03:35 | 00:00:00 | |
| DO2SHX-10 | 2026-08-31 05:35:20 | 53.18000 | 8.25944 | 323° | 11km/h | 30903m | -36.3m/s | -43.2°C | 2.8% | 10.5hPa | 2.7V | 00:00:00 | 02:03:40 | 00:00:00 | |
| DL1XH1-15 | 2026-08-31 05:35:19 | 53.17981 | 8.25966 | 324° | 16km/h | 31134m | -40.5m/s | -43°C | 2.8% | 10.2hPa | 2.7V | 08:29:23 | 02:03:34 | 00:00:00 | |
| AA1-15 | 2026-08-31 05:35:17 | 53.17992 | 8.25953 | 326° | 18km/h | 31014m | -39.1m/s | -43.1°C | 0% | 10.3hPa | 2.6V | 18:12:15 | 02:03:37 | 00:00:00 | |
| DO2JMG | 2026-08-31 05:35:16 | 53.17988 | 8.25958 | 320° | 18km/h | 31054m | -40.4m/s | -43°C | 0% | 10.3hPa | 2.6V | 08:29:42 | 02:03:36 | 00:00:00 | |
| HSKMA3-T | 2026-08-31 05:35:15 | 53.17985 | 8.25962 | 327° | 16km/h | 31094m | -40.4m/s | -42.9°C | 0% | 10.2hPa | 2.7V | 08:29:42 | 02:03:35 | 00:00:00 | |
| DF8AY | 2026-08-31 05:35:14 | 53.17981 | 8.25966 | 324° | 16km/h | 31134m | -40.5m/s | -43°C | 0% | 10.2hPa | 2.7V | 08:29:42 | 02:03:34 | 00:00:00 | |
| DO2SHX-10 | 2026-08-31 05:35:14 | 53.17981 | 8.25966 | 325° | 11km/h | 31134m | -40.5m/s | -43.0°C | 2.8% | 10.1hPa | 2.7V | 00:00:00 | 02:03:34 | 00:00:00 | |
| DK5PH-5 | 2026-08-31 05:35:13 | 53.17978 | 8.25969 | 323° | 11km/h | 31174m | -39.1m/s | -43.1°C | 2.9% | 10.0hPa | 2.7V | 00:00:00 | 02:03:33 | 00:00:00 | |
| DO3DL | 2026-08-31 05:35:12 | 53.17978 | 8.25969 | 323° | 11km/h | 31174m | -39.2m/s | -43.1°C | 0.7% | 10.1hPa | 2.6V | 08:29:00 | 00:00:00 | 00:00:00 | |
| DB0DAN | 2026-08-31 05:35:10 | 53.17974 | 8.25968 | 73° | 9km/h | 31289m | -37.7m/s | -43°C | 0.7% | 9.92hPa | 2.6V | 00:00:00 | 00:00:00 | 00:00:00 | |
| DL4XJ-10 | 2026-08-31 05:35:10 | 53.17974 | 8.25968 | 73° | 13km/h | 31289m | -37.7m/s | -42.1°C | 0% | 0hPa | 2.6V | 00:00:00 | 00:00:00 | 00:00:00 | |
| DL1XH1-15 | 2026-08-31 05:35:09 | 53.17966 | 8.25943 | 29° | 9km/h | 31517m | -39m/s | -41°C | 2.4% | 9.6hPa | 2.6V | 08:29:33 | 02:03:24 | 00:00:00 | |
| DL1XH-west | 2026-08-31 05:35:09 | 53.17973 | 8.25963 | 76° | 13km/h | 31327m | -38.7m/s | -42.8°C | 0% | 9.8hPa | 2.7V | 08:29:42 | 02:03:29 | 00:00:00 | |
| DO2SHX-10 | 2026-08-31 05:35:08 | 53.17972 | 8.25959 | 72° | 13km/h | 31366m | -38.3m/s | -42.5°C | 2.8% | 9.7hPa | 2.6V | 00:00:00 | 02:03:28 | 00:00:00 | |
| DM0DOS-11 | 2026-08-31 05:35:07 | 53.17968 | 8.25946 | 51° | 11km/h | 31479m | -38.2m/s | -41.3°C | 2.5% | 9.6hPa | 2.6V | 08:29:32 | 02:03:25 | 00:00:00 | |
| AA1-15 | 2026-08-31 05:35:07 | 53.17971 | 8.25954 | 62° | 13km/h | 31404m | -39.1m/s | -42.1°C | 0% | 9.7hPa | 2.7V | 08:29:42 | 02:03:27 | 00:00:00 | |
| DO2JMG | 2026-08-31 05:35:06 | 53.17969 | 8.25950 | 64° | 11km/h | 31442m | -37.5m/s | -41.7°C | 0% | 9.7hPa | 2.6V | 08:29:42 | 02:03:26 | 00:00:00 | |
| BIOWL1-15 | 2026-08-31 05:35:06 | 53.17966 | 8.25943 | 30° | 9km/h | 31517m | -39.1m/s | -41.1°C | 0% | 9.6hPa | 2.6V | 08:29:42 | 02:03:24 | 00:00:00 | |
| HSKMA3-T | 2026-08-31 05:35:05 | 53.17968 | 8.25946 | 52° | 11km/h | 31479m | -38.2m/s | -41.3°C | 0% | 9.6hPa | 2.6V | 08:29:42 | 02:03:25 | 00:00:00 | |
| DF8AY | 2026-08-31 05:35:03 | 53.17964 | 8.25941 | 21° | 7km/h | 31554m | -36.3m/s | -41°C | 0% | 9.5hPa | 2.7V | 08:29:42 | 02:03:23 | 00:00:00 | |
| DO2LYB-13 | 2026-08-31 05:35:02 | 53.17962 | 8.25940 | 17° | 5km/h | 31591m | -36.4m/s | -41.0°C | 0.6% | 9.4hPa | 2.7V | 00:00:00 | 00:00:00 | 00:00:00 | |
| GOEST3-10 | 2026-08-31 05:35:01 | 53.17961 | 8.25939 | 29° | 11km/h | 31628m | -36.7m/s | -40.8°C | 2.4% | 9.3hPa | 2.7V | 00:00:00 | 02:03:21 | 00:00:00 | |
| DM0DOS-11 | 2026-08-31 05:35:00 | 53.17966 | 8.25907 | 104° | 22km/h | 31853m | -38.1m/s | -41.3°C | 2.6% | 9.1hPa | 2.7V | 08:29:42 | 02:03:15 | 00:00:00 | |
| DL1XH1-15 | 2026-08-31 05:34:59 | 53.17968 | 8.25898 | 109° | 20km/h | 31891m | -37.4m/s | -41.4°C | 2.6% | 9hPa | 2.6V | 08:30:00 | 02:03:14 | 00:00:00 | |
| DL1XH-west | 2026-08-31 05:34:58 | 53.17962 | 8.25930 | 109° | 16km/h | 31741m | -37.1m/s | -41.1°C | 0% | 9.2hPa | 2.6V | 08:29:42 | 02:03:18 | 00:00:00 | |
| SMARD9-15 | 2026-08-31 05:34:57 | 53.17963 | 8.25924 | 111° | 16km/h | 31778m | -36.9m/s | -41.2°C | 0.6% | 9.2hPa | 2.7V | 00:00:00 | 00:00:00 | 00:00:00 | |
| DL1XH-15 | 2026-08-31 05:34:56 | 53.17973 | 8.25881 | 132° | 9km/h | 32005m | -39.6m/s | -41°C | 2.5% | 8.8hPa | 2.7V | 08:30:00 | 02:03:11 | 00:00:00 | |
| AA1-15 | 2026-08-31 05:34:56 | 53.17965 | 8.25916 | 109° | 24km/h | 31815m | -37.5m/s | -41.3°C | 0% | 9.1hPa | 2.7V | 08:29:42 | 02:03:16 | 00:00:00 | |
| DB0DAN | 2026-08-31 05:34:55 | 53.17967 | 8.25907 | 104° | 20km/h | 31853m | -38.1m/s | -41.3°C | 0.7% | 9.05hPa | 2.7V | 00:00:00 | 00:00:00 | 00:00:00 | |
| DO2JMG | 2026-08-31 05:34:55 | 53.17967 | 8.25907 | 104° | 22km/h | 31853m | -38.1m/s | -41.3°C | 0% | 9.1hPa | 2.7V | 08:29:42 | 02:03:15 | 00:00:00 | |
| HSKMA3-T | 2026-08-31 05:34:54 | 53.17968 | 8.25898 | 110° | 20km/h | 31891m | -37.4m/s | -41.4°C | 0% | 9hPa | 2.6V | 18:12:15 | 02:03:14 | 00:00:00 | |
| BIOWL1-15 | 2026-08-31 05:34:53 | 53.17969 | 8.25891 | 118° | 18km/h | 31929m | -39.4m/s | -41.4°C | 0% | 8.9hPa | 2.6V | 18:12:15 | 02:03:13 | 00:00:00 | |
| DJ2DS-15 | 2026-08-31 05:34:52 | 53.17973 | 8.25881 | 132° | 9km/h | 32006m | -39.6m/s | -41.0°C | 0.6% | 8.8hPa | 2.7V | 00:00:00 | 00:00:00 | 00:00:00 | |
| DF7PN | 2026-08-31 05:34:51 | 53.17974 | 8.25879 | 127° | 4km/h | 32045m | -40.9m/s | -40.9°C | 0.6% | 8.8hPa | 2.7V | 00:00:00 | 00:00:00 | 00:00:00 | |
| DO2SHX-10 | 2026-08-31 05:34:50 | 53.17974 | 8.25879 | 128° | 2km/h | 32045m | -40.8m/s | -40.8°C | 2.5% | 8.7hPa | 2.7V | 00:00:00 | 02:03:10 | 00:00:00 | |
| DL1XH1-15 | 2026-08-31 05:34:49 | 53.17971 | 8.25867 | 71° | 18km/h | 32296m | -43.3m/s | -41°C | 2.5% | 8.5hPa | 2.7V | 08:30:00 | 02:03:04 | 00:00:00 | |
| DL1XH-west | 2026-08-31 05:34:48 | 53.17974 | 8.25877 | 328° | 0km/h | 32128m | -42.6m/s | -40.8°C | 0% | 8.7hPa | 2.6V | 18:12:15 | 02:03:08 | 00:00:00 | |
| DF2AP-13 | 2026-08-31 05:34:48 | 53.17974 | 8.25877 | 328° | 18km/h | 32129m | -42.5m/s | -40.8°C | 2.5% | 8.6hPa | 2.6V | 00:00:00 | 02:03:08 | 00:00:00 | |
| DM0DOS-11 | 2026-08-31 05:34:47 | 53.17973 | 8.25872 | 66° | 11km/h | 32253m | -42.2m/s | -40.9°C | 2.5% | 8.5hPa | 2.7V | 08:30:00 | 02:03:05 | 00:00:00 | |
| DO2SHX-10 | 2026-08-31 05:34:47 | 53.17974 | 8.25877 | 58° | 5km/h | 32170m | -41.0m/s | -40.7°C | 2.5% | 8.6hPa | 2.6V | 00:00:00 | 02:03:07 | 00:00:00 | |
| DL1XH-15 | 2026-08-31 05:34:46 | 53.17968 | 8.25842 | 75° | 22km/h | 32430m | -43.8m/s | -41.3°C | 2.7% | 8.3hPa | 2.6V | 08:30:00 | 02:03:01 | 00:00:00 | |
| AA1-15 | 2026-08-31 05:34:46 | 53.17973 | 8.25875 | 81° | 5km/h | 32211m | -41.1m/s | -40.8°C | 0% | 8.6hPa | 2.6V | 18:12:15 | 02:03:06 | 00:00:00 | |
| S3001 | 2026-08-31 05:34:45 | 53.17973 | 8.25872 | 66° | 9km/h | 32253m | -42.2m/s | -40.9°C | 0.6% | 8.5hPa | 2.7V | 00:00:00 | 00:00:00 | 00:00:00 | |
| DO2JMG | 2026-08-31 05:34:44 | 53.17972 | 8.25867 | 72° | 18km/h | 32296m | -43.3m/s | -41°C | 0% | 8.5hPa | 2.7V | 18:12:15 | 02:03:04 | 00:00:00 | |
| DF8AY | 2026-08-31 05:34:43 | 53.17969 | 8.25851 | 80° | 24km/h | 32386m | -45.3m/s | -41.2°C | 0% | 8.4hPa | 2.6V | 18:12:15 | 02:03:02 | 00:00:00 | |
| HSKMA3-T | 2026-08-31 05:34:43 | 53.17970 | 8.25859 | 79° | 20km/h | 32340m | -45.5m/s | -41.1°C | 0% | 8.4hPa | 2.7V | 18:12:15 | 02:03:03 | 00:00:00 | |
| DK5PH-5 | 2026-08-31 05:34:43 | 53.17970 | 8.25859 | 80° | 24km/h | 32340m | -45.4m/s | -41.1°C | 2.6% | 8.4hPa | 2.6V | 00:00:00 | 02:03:03 | 00:00:00 | |
| DB0DAN | 2026-08-31 05:34:40 | 53.17967 | 8.25833 | 80° | 18km/h | 32474m | -43.3m/s | -41.2°C | 0.6% | 8.25hPa | 2.6V | 00:00:00 | 00:00:00 | 00:00:00 | |
| DM0DOS-11 | 2026-08-31 05:34:40 | 53.17963 | 8.25806 | 72° | 13km/h | 32694m | -41.8m/s | -40.6°C | 2.6% | 8hPa | 2.6V | 08:30:00 | 02:02:55 | 00:00:00 | |
| DL1XH1-15 | 2026-08-31 05:34:39 | 53.17962 | 8.25800 | 73° | 18km/h | 32735m | -39.7m/s | -40.5°C | 2.6% | 7.9hPa | 2.6V | 08:30:00 | 02:02:54 | 00:00:00 | |
| DL1XH-west | 2026-08-31 05:34:37 | 53.17965 | 8.25816 | 79° | 11km/h | 32608m | -42.9m/s | -40.8°C | 0% | 8.1hPa | 2.7V | 18:12:15 | 02:02:57 | 00:00:00 | |
| AA1-15 | 2026-08-31 05:34:35 | 53.17963 | 8.25806 | 72° | 13km/h | 32694m | -41.8m/s | -40.6°C | 0% | 8hPa | 2.6V | 18:12:15 | 02:02:55 | 00:00:00 | |
| DO2JMG | 2026-08-31 05:34:33 | 53.17960 | 8.25791 | 78° | 24km/h | 32774m | -38.3m/s | -40.3°C | 0% | 7.8hPa | 2.7V | 18:12:15 | 02:02:53 | 00:00:00 | |
| HSKMA3-T | 2026-08-31 05:34:32 | 53.17959 | 8.25780 | 80° | 33km/h | 32814m | -41m/s | -40.1°C | 0% | 7.8hPa | 2.7V | 18:12:15 | 02:02:52 | 00:00:00 | |
| DO2SHX-10 | 2026-08-31 05:34:32 | 53.17959 | 8.25780 | 81° | 38km/h | 32814m | -40.9m/s | -40.0°C | 2.5% | 7.7hPa | 2.6V | 00:00:00 | 02:02:52 | 00:00:00 | |
| SP3BTT-10 | 2026-08-31 05:34:31 | 53.17958 | 8.25765 | 84° | 22km/h | 32855m | -40.1m/s | -39.9°C | 2.5% | 7.7hPa | 2.6V | 00:00:00 | 00:00:00 | 00:00:00 | |
| D01LWL | 2026-08-31 05:34:30 | 53.17957 | 8.25748 | 85° | 42km/h | 32895m | -39.4m/s | -39.8°C | 0.6% | 7.7hPa | 2.6V | 00:00:00 | 00:00:00 | 00:00:00 | |
| DL1XH1-15 | 2026-08-31 05:34:29 | 53.17957 | 8.25663 | 115° | 11km/h | 33110m | -33.6m/s | -38.8°C | 2.4% | 7.4hPa | 2.6V | 08:30:00 | 02:02:44 | 00:00:00 | |
| DL1XH-west | 2026-08-31 05:34:27 | 53.17955 | 8.25696 | 89° | 38km/h | 33009m | -36.3m/s | -39.2°C | 0% | 7.5hPa | 2.7V | 18:12:15 | 02:02:47 | 00:00:00 | |
| DL3AQ-11 | 2026-08-31 05:34:27 | 53.17955 | 8.25681 | 92° | 33km/h | 33044m | -33.3m/s | -39.1°C | 0.6% | 7.5hPa | 2.7V | 00:00:00 | 00:00:00 | 00:00:00 | |
| DL1XH-15 | 2026-08-31 05:34:26 | 53.17962 | 8.25660 | 203° | 9km/h | 33198m | -28.6m/s | -38.4°C | 2.3% | 7.3hPa | 2.7V | 08:30:00 | 02:02:41 | 00:00:00 | |
| DB0DAN | 2026-08-31 05:34:25 | 53.17956 | 8.25669 | 97° | 22km/h | 33077m | -32.6m/s | -39°C | 0.6% | 7.44hPa | 2.7V | 00:00:00 | 00:00:00 | 00:00:00 | |
| AA1-15 | 2026-08-31 05:34:25 | 53.17956 | 8.25669 | 98° | 22km/h | 33077m | -32.6m/s | -39°C | 0% | 7.4hPa | 2.7V | 18:12:15 | 02:02:45 | 00:00:00 | |
| DO2JMG | 2026-08-31 05:34:23 | 53.17958 | 8.25660 | 144° | 5km/h | 33142m | -30m/s | -38.8°C | 0% | 7.4hPa | 2.6V | 18:12:15 | 02:02:43 | 00:00:00 | |
| HSKMA3-T | 2026-08-31 05:34:21 | 53.17962 | 8.25660 | 203° | 9km/h | 33199m | -28.6m/s | -38.4°C | 0% | 7.3hPa | 2.7V | 18:12:15 | 02:02:41 | 00:00:00 | |
| DD8BA-10 | 2026-08-31 05:34:21 | 53.17962 | 8.25660 | 204° | 26km/h | 33199m | -28.5m/s | -38.3°C | 2.3% | 7.3hPa | 2.6V | 00:00:00 | 00:00:00 | 00:00:00 | |
| DO2SHX-10 | 2026-08-31 05:34:20 | 53.17964 | 8.25662 | 199° | 13km/h | 33227m | -28.0m/s | -38.0°C | 2.3% | 7.2hPa | 2.6V | 00:00:00 | 02:02:40 | 00:00:00 | |
| DF7PN | 2026-08-31 05:34:19 | 53.17967 | 8.25661 | 163° | 13km/h | 33256m | -28.8m/s | -37.9°C | 0.5% | 7.3hPa | 2.6V | 00:00:00 | 00:00:00 | 00:00:00 | |
| DF2AP-13 | 2026-08-31 05:34:18 | 53.17970 | 8.25658 | 145° | 22km/h | 33283m | -26.0m/s | -37.6°C | 2.2% | 7.1hPa | 2.6V | 00:00:00 | 02:02:38 | 00:00:00 | |
| DO2SHX-10 | 2026-08-31 05:34:17 | 53.17973 | 8.25652 | 124° | 35km/h | 33309m | -26.1m/s | -37.5°C | 2.1% | 7.1hPa | 2.6V | 00:00:00 | 02:02:37 | 08:30:00 | |
| DL1XH-15 | 2026-08-31 05:34:16 | 53.17992 | 8.25573 | 112° | 18km/h | 33487m | -34.4m/s | -36.6°C | 2% | 7hPa | 2.6V | 08:30:00 | 02:02:31 | 00:00:00 | |
| DL1XH-west | 2026-08-31 05:34:16 | 53.17977 | 8.25642 | 118° | 33km/h | 33334m | -22.5m/s | -37.4°C | 0% | 7.2hPa | 2.6V | 18:12:15 | 02:02:36 | 00:00:00 | |
| AA1-15 | 2026-08-31 05:34:15 | 53.17981 | 8.25627 | 112° | 44km/h | 33358m | -25.4m/s | -37.3°C | 0% | 7.1hPa | 2.7V | 18:12:15 | 02:02:35 | 00:00:00 | |
| DO2JMG | 2026-08-31 05:34:13 | 53.17988 | 8.25592 | 110° | 42km/h | 33412m | -31.1m/s | -36.9°C | 0% | 7.1hPa | 2.7V | 18:12:15 | 02:02:33 | 00:00:00 | |
| DF8AY | 2026-08-31 05:34:11 | 53.17993 | 8.25573 | 112° | 18km/h | 33487m | -34.4m/s | -36.7°C | 0% | 7hPa | 2.6V | 18:12:15 | 02:02:31 | 00:00:00 | |
| DB0DAN | 2026-08-31 05:34:10 | 53.17994 | 8.25566 | 113° | 16km/h | 33517m | -25.5m/s | -36.6°C | 0.5% | 6.94hPa | 2.6V | 00:00:00 | 00:00:00 | 00:00:00 | |
| HSKMA3-T | 2026-08-31 05:34:10 | 53.17994 | 8.25566 | 113° | 18km/h | 33517m | -25.5m/s | -36.6°C | 0% | 6.9hPa | 2.6V | 18:12:15 | 02:02:30 | 00:00:00 | |
| DD1CC2-15 | 2026-08-31 05:34:09 | 53.17994 | 8.25566 | 114° | 18km/h | 33518m | -25.5m/s | -36.6°C | 0.5% | 6.9hPa | 2.7V | 00:00:00 | 00:00:00 | 00:00:00 | |
| DO2SHX-10 | 2026-08-31 05:34:08 | 53.17998 | 8.25552 | 111° | 18km/h | 33550m | -6.9m/s | -36.4°C | 2.0% | 6.8hPa | 2.7V | 00:00:00 | 02:02:28 | 00:00:00 | |
| DL4XJ-10 | 2026-08-31 05:34:07 | 53.17999 | 8.25545 | 112° | 20km/h | 33552m | 2.8m/s | -35.6°C | 0% | 0hPa | 2.7V | 00:00:00 | 00:00:00 | 00:00:00 | |
| DL1XH-15 | 2026-08-31 05:34:06 | 53.18011 | 8.25519 | 118° | 15km/h | 33510m | 7.1m/s | -36.9°C | 2% | 6.9hPa | 2.7V | 08:30:00 | 02:02:21 | 00:00:00 | |
| DL1XH-west | 2026-08-31 05:34:05 | 53.18003 | 8.25532 | 127° | 13km/h | 33535m | 7.6m/s | -36.6°C | 0% | 6.9hPa | 2.6V | 18:12:15 | 02:02:25 | 00:00:00 | |
| AA1-15 | 2026-08-31 05:34:04 | 53.18005 | 8.25529 | 146° | 11km/h | 33527m | 6.8m/s | -36.7°C | 0% | 6.9hPa | 2.6V | 18:12:15 | 02:02:24 | 00:00:00 | |
| DO2JMG | 2026-08-31 05:34:02 | 53.18009 | 8.25524 | 135° | 11km/h | 33516m | 5m/s | -36.8°C | 0% | 6.9hPa | 2.7V | 18:12:15 | 02:02:22 | 00:00:00 | |
| DF8AY | 2026-08-31 05:34:00 | 53.18013 | 8.25512 | 107° | 22km/h | 33503m | 7.4m/s | -36.9°C | 0% | 6.9hPa | 2.6V | 18:12:15 | 02:02:20 | 00:00:00 | |
| DL3AQ-11 | 2026-08-31 05:34:00 | 53.18014 | 8.25502 | 103° | 26km/h | 33497m | 6.1m/s | -36.9°C | 0.5% | 6.9hPa | 2.6V | 00:00:00 | 00:00:00 | 00:00:00 | |
| DL1XH1-15 | 2026-08-31 05:33:59 | 53.18027 | 8.25458 | 137° | 18km/h | 33466m | 5.5m/s | -37°C | 2% | 7hPa | 2.6V | 08:30:00 | 02:02:14 | 00:00:00 | |
| BIOWL1-15 | 2026-08-31 05:33:59 | 53.18014 | 8.25502 | 104° | 27km/h | 33496m | 6.1m/s | -36.9°C | 0% | 6.9hPa | 2.6V | 18:12:15 | 02:02:19 | 00:00:00 | |
| DL1ZP-14 | 2026-08-31 05:33:58 | 53.18038 | 8.25428 | 102° | 26km/h | 33441m | 5.7m/s | 0°C | -1.0% | -1.0hPa | 2.7V | 00:00:00 | 00:00:00 | 00:00:00 | |
| DL1XH-15 | 2026-08-31 05:33:56 | 53.18036 | 8.25438 | 109° | 24km/h | 33447m | 7.2m/s | -37.2°C | 2% | 7hPa | 2.7V | 08:30:00 | 02:02:11 | 00:00:00 | |
| DB0DAN | 2026-08-31 05:33:55 | 53.18024 | 8.25463 | 133° | 18km/h | 33471m | 6.2m/s | -37.1°C | 0.5% | 6.98hPa | 2.7V | 00:00:00 | 00:00:00 | 00:00:00 | |
| DL1XH-west | 2026-08-31 05:33:54 | 53.18027 | 8.25458 | 138° | 18km/h | 33466m | 5.5m/s | -37°C | 0% | 7hPa | 2.6V | 18:12:15 | 02:02:14 | 00:00:00 | |
| BIOWL1-15 | 2026-08-31 05:33:53 | 53.18039 | 8.25417 | 102° | 27km/h | 33435m | 4.7m/s | -37.3°C | 0% | 7hPa | 2.7V | 18:12:15 | 02:02:09 | 00:00:00 | |
| DO2JMG | 2026-08-31 05:33:51 | 53.18036 | 8.25438 | 110° | 24km/h | 33447m | 7.2m/s | -37.2°C | 0% | 7hPa | 2.7V | 18:12:15 | 02:02:11 | 00:00:00 | |
| DF8AY | 2026-08-31 05:33:50 | 53.18038 | 8.25428 | 103° | 26km/h | 33440m | 5.7m/s | -37.2°C | 0% | 7hPa | 2.7V | 18:12:15 | 02:02:10 | 00:00:00 | |
| DO2SHX-10 | 2026-08-31 05:33:50 | 53.18038 | 8.25428 | 103° | 26km/h | 33441m | 5.7m/s | -37.1°C | 2.0% | 6.9hPa | 2.7V | 00:00:00 | 02:02:10 | 08:30:00 | |
| DL1XH1-15 | 2026-08-31 05:33:49 | 53.18054 | 8.25381 | 151° | 22km/h | 33404m | 5.4m/s | -37.4°C | 2% | 7hPa | 2.7V | 08:30:00 | 02:02:04 | 00:00:00 | |
| HSKMA3-T | 2026-08-31 05:33:48 | 53.18041 | 8.25407 | 107° | 26km/h | 33430m | 5.7m/s | -37.3°C | 0% | 7hPa | 2.6V | 18:12:15 | 02:02:08 | 00:00:00 | |
| BUE01 | 2026-08-31 05:33:47 | 53.18043 | 8.25398 | 118° | 22km/h | 33424m | 6.9m/s | -37.4°C | 0.5% | 7.0hPa | 2.7V | 00:00:00 | 00:00:00 | 00:00:00 | |
| DL8DAS-14 | 2026-08-31 05:33:46 | 53.18050 | 8.25386 | 149° | 18km/h | 33410m | 6.4m/s | -37.3°C | 0.5% | 7.0hPa | 2.7V | 00:00:00 | 00:00:00 | 00:00:00 | |
| AA1-15 | 2026-08-31 05:33:44 | 53.18054 | 8.25381 | 151° | 22km/h | 33404m | 5.4m/s | -37.4°C | 0% | 7hPa | 2.7V | 18:12:15 | 02:02:04 | 00:00:00 | |
| DL1XH-west | 2026-08-31 05:33:43 | 53.18059 | 8.25376 | 143° | 24km/h | 33398m | 5.5m/s | -37.4°C | 0% | 7hPa | 2.7V | 18:12:15 | 02:02:03 | 00:00:00 | |
| DO2JMG | 2026-08-31 05:33:41 | 53.18067 | 8.25360 | 122° | 29km/h | 33385m | 6.7m/s | -37.4°C | 0% | 7hPa | 2.6V | 18:12:15 | 02:02:01 | 00:00:00 | |
| DB0DAN | 2026-08-31 05:33:40 | 53.18071 | 8.25349 | 117° | 29km/h | 33379m | 5.7m/s | -37.5°C | 0.5% | 7.07hPa | 2.6V | 00:00:00 | 00:00:00 | 00:00:00 | |
| DF8AY | 2026-08-31 05:33:40 | 53.18071 | 8.25349 | 117° | 31km/h | 33379m | 5.7m/s | -37.5°C | 0% | 7.1hPa | 2.6V | 18:12:15 | 02:02:00 | 00:00:00 | |
| BIOWL1-15 | 2026-08-31 05:33:40 | 53.18078 | 8.25328 | 121° | 26km/h | 33367m | 7m/s | -37.5°C | 0% | 7.1hPa | 2.7V | 18:12:15 | 02:01:58 | 00:00:00 | |
| DL1XH1-15 | 2026-08-31 05:33:39 | 53.18093 | 8.25299 | 130° | 24km/h | 33343m | 5.6m/s | -37.6°C | 2% | 7.1hPa | 2.6V | 08:30:00 | 02:01:54 | 00:00:00 | |
| HSKMA3-T | 2026-08-31 05:33:37 | 53.18081 | 8.25319 | 129° | 24km/h | 33360m | 6.6m/s | -37.5°C | 0% | 7.1hPa | 2.7V | 18:12:15 | 02:01:57 | 00:00:00 | |
| AA1-15 | 2026-08-31 05:33:34 | 53.18093 | 8.25299 | 130° | 24km/h | 33343m | 5.6m/s | -37.6°C | 0% | 7.1hPa | 2.6V | 18:12:15 | 02:01:54 | 00:00:00 | |
| DL1XH-west | 2026-08-31 05:33:33 | 53.18097 | 8.25290 | 120° | 26km/h | 33336m | 7.5m/s | -37.7°C | 0% | 7.1hPa | 2.7V | 18:12:15 | 02:01:53 | 00:00:00 | |
| DO2JMG | 2026-08-31 05:33:30 | 53.18104 | 8.25256 | 107° | 29km/h | 33318m | 5.1m/s | -37.7°C | 0% | 7.1hPa | 2.6V | 18:12:15 | 02:01:50 | 00:00:00 | |
| DO2SHX-10 | 2026-08-31 05:33:29 | 53.18106 | 8.25245 | 113° | 20km/h | 33312m | 6.1m/s | -37.7°C | 2.0% | 7.1hPa | 2.7V | 00:00:00 | 02:01:49 | 00:00:00 | |
| D01LWL | 2026-08-31 05:33:28 | 53.18109 | 8.25237 | 122° | 20km/h | 33305m | 7.4m/s | -37.8°C | 0.5% | 7.2hPa | 2.7V | 00:00:00 | 00:00:00 | 00:00:00 | |
| DL1XH-15 | 2026-08-31 05:33:27 | 53.18128 | 8.25178 | 107° | 35km/h | 33262m | 5.2m/s | -38.2°C | 2.1% | 7.2hPa | 2.7V | 08:30:00 | 02:01:41 | 00:00:00 | |
| HSKMA3-T | 2026-08-31 05:33:27 | 53.18115 | 8.25227 | 139° | 16km/h | 33292m | 5.5m/s | -37.9°C | 0% | 7.2hPa | 2.7V | 18:12:15 | 02:01:46 | 00:00:00 | |
| DB0DAN | 2026-08-31 05:33:25 | 53.18118 | 8.25221 | 130° | 18km/h | 33286m | 5.8m/s | -38°C | 0.5% | 7.17hPa | 2.7V | 00:00:00 | 00:00:00 | 00:00:00 | |
| DL1XH-west | 2026-08-31 05:33:23 | 53.18123 | 8.25204 | 108° | 29km/h | 33273m | 6.4m/s | -38.1°C | 0% | 7.2hPa | 2.6V | 18:12:15 | 02:01:43 | 00:00:00 | |
| DO2JMG | 2026-08-31 05:33:20 | 53.18131 | 8.25164 | 111° | 33km/h | 33256m | 7.1m/s | -38.3°C | 0% | 7.2hPa | 2.7V | 18:12:15 | 02:01:40 | 00:00:00 | |
| DO2SHX-10 | 2026-08-31 05:33:20 | 53.18131 | 8.25164 | 112° | 31km/h | 33256m | 7.0m/s | -38.3°C | 2.1% | 7.1hPa | 2.6V | 00:00:00 | 02:01:40 | 00:00:00 | |
| DL3AQ-11 | 2026-08-31 05:33:19 | 53.18134 | 8.25152 | 118° | 29km/h | 33248m | 7.2m/s | -38.4°C | 0.5% | 7.2hPa | 2.6V | 00:00:00 | 00:00:00 | 00:00:00 | |
| DF2AP-13 | 2026-08-31 05:33:18 | 53.18138 | 8.25141 | 127° | 29km/h | 33242m | 6.0m/s | -38.4°C | 2.1% | 7.2hPa | 2.6V | 00:00:00 | 02:01:38 | 00:00:00 | |
| DM0DOS-11 | 2026-08-31 05:33:17 | 53.18151 | 8.25111 | 119° | 33km/h | 33224m | 6.9m/s | -38.6°C | 2.1% | 7.2hPa | 2.7V | 08:30:00 | 02:01:35 | 00:00:00 | |
| DO2SHX-10 | 2026-08-31 05:33:17 | 53.18142 | 8.25132 | 129° | 31km/h | 33236m | 5.4m/s | -38.5°C | 2.1% | 7.2hPa | 2.6V | 00:00:00 | 02:01:37 | 00:00:00 | |
| DL1XH-15 | 2026-08-31 05:33:16 | 53.18163 | 8.25059 | 103° | 26km/h | 33200m | 6.3m/s | -38.8°C | 2.2% | 7.3hPa | 2.6V | 08:30:00 | 02:01:31 | 00:00:00 | |
| HSKMA3-T | 2026-08-31 05:33:16 | 53.18147 | 8.25122 | 126° | 31km/h | 33230m | 6m/s | -38.6°C | 0% | 7.2hPa | 2.6V | 18:12:15 | 02:01:36 | 00:00:00 | |
| BIOWL1-15 | 2026-08-31 05:33:14 | 53.18155 | 8.25098 | 114° | 35km/h | 33217m | 6.2m/s | -38.7°C | 0% | 7.2hPa | 2.7V | 18:12:15 | 02:01:34 | 00:00:00 | |
| DL1XH-west | 2026-08-31 05:33:13 | 53.18158 | 8.25084 | 109° | 35km/h | 33211m | 5.3m/s | -38.7°C | 0% | 7.3hPa | 2.7V | 18:12:15 | 02:01:33 | 00:00:00 | |
| S3001 | 2026-08-31 05:33:12 | 53.18163 | 8.25059 | 103° | 24km/h | 33201m | 6.3m/s | -38.8°C | 0.5% | 7.3hPa | 2.6V | 00:00:00 | 00:00:00 | 00:00:00 | |
| DO2SHX-10 | 2026-08-31 05:33:11 | 53.18163 | 8.25059 | 104° | 18km/h | 33201m | 6.3m/s | -38.8°C | 2.2% | 7.2hPa | 2.6V | 00:00:00 | 02:01:31 | 00:00:00 | |
| DM0DOS-11 | 2026-08-31 05:33:10 | 53.18159 | 8.25021 | 79° | 26km/h | 33162m | 6.7m/s | -39°C | 2.2% | 7.3hPa | 2.6V | 08:30:00 | 02:01:25 | 00:00:00 | |
| DF8AY | 2026-08-31 05:33:10 | 53.18164 | 8.25050 | 99° | 18km/h | 33193m | 7.6m/s | -38.9°C | 0% | 7.3hPa | 2.6V | 18:12:15 | 02:01:30 | 00:00:00 | |
| DL1XH1-15 | 2026-08-31 05:33:09 | 53.18158 | 8.25009 | 85° | 31km/h | 33155m | 6m/s | -39°C | 2.2% | 7.3hPa | 2.6V | 08:30:00 | 02:01:24 | 00:00:00 | |
| DO2JMG | 2026-08-31 05:33:09 | 53.18164 | 8.25045 | 85° | 11km/h | 33186m | 6.5m/s | -39°C | 0% | 7.3hPa | 2.7V | 18:12:15 | 02:01:29 | 00:00:00 | |
| DO9LL-15 | 2026-08-31 05:33:09 | 53.18164 | 8.25045 | 86° | 35km/h | 33187m | 6.5m/s | -39.0°C | 2.2% | 7.2hPa | 2.7V | 00:00:00 | 02:01:29 | 00:00:00 | |
| DB0NH | 2026-08-31 05:33:08 | 53.18163 | 8.25040 | 66° | 35km/h | 33181m | 5.4m/s | -39.0°C | 2.2% | 7.2hPa | 2.7V | 00:00:00 | 02:01:28 | 00:00:00 | |
| DL3AQ-11 | 2026-08-31 05:33:07 | 53.18161 | 8.25030 | 71° | 18km/h | 33169m | 7.1m/s | -39.1°C | 0.5% | 7.3hPa | 2.7V | 00:00:00 | 00:00:00 | 00:00:00 | |
| DL1XH-15 | 2026-08-31 05:33:06 | 53.18161 | 8.24967 | 102° | 33km/h | 33136m | 6.2m/s | -39°C | 2.2% | 7.3hPa | 2.7V | 08:30:00 | 02:01:21 | 00:00:00 | |
| HSKMA3-T | 2026-08-31 05:33:05 | 53.18159 | 8.25021 | 80° | 26km/h | 33162m | 6.7m/s | -39°C | 0% | 7.3hPa | 2.6V | 18:12:15 | 02:01:25 | 00:00:00 | |
| BIOWL1-15 | 2026-08-31 05:33:03 | 53.18159 | 8.24981 | 98° | 35km/h | 33142m | 6.8m/s | -39°C | 0% | 7.3hPa | 2.7V | 18:12:15 | 02:01:22 | 00:00:00 | |
| DL1XH-west | 2026-08-31 05:33:03 | 53.18158 | 8.24995 | 92° | 35km/h | 33149m | 6.2m/s | -39°C | 0% | 7.3hPa | 2.7V | 18:12:15 | 02:01:23 | 00:00:00 | |
| DF8AY | 2026-08-31 05:32:59 | 53.18164 | 8.24940 | 103° | 35km/h | 33125m | 5.4m/s | -39.1°C | 0% | 7.4hPa | 2.6V | 18:12:15 | 02:01:19 | 00:00:00 | |
| DO2JMG | 2026-08-31 05:32:58 | 53.18166 | 8.24925 | 99° | 37km/h | 33118m | 7.1m/s | -39.2°C | 0% | 7.3hPa | 2.6V | 18:12:15 | 02:01:18 | 00:00:00 | |
| D01LWL | 2026-08-31 05:32:57 | 53.18167 | 8.24910 | 94° | 38km/h | 33112m | 7.0m/s | -39.3°C | 0.5% | 7.4hPa | 2.7V | 00:00:00 | 00:00:00 | 00:00:00 | |
| DL1XH-15 | 2026-08-31 05:32:56 | 53.18172 | 8.24833 | 99° | 29km/h | 33074m | 5.3m/s | -39.2°C | 2.2% | 7.4hPa | 2.7V | 08:30:00 | 02:01:11 | 00:00:00 | |
| DL3AQ-11 | 2026-08-31 05:32:56 | 53.18168 | 8.24879 | 92° | 33km/h | 33099m | 5.7m/s | -39.3°C | 0.6% | 7.4hPa | 2.6V | 00:00:00 | 00:00:00 | 00:00:00 | |
| DM0DOS-11 | 2026-08-31 05:32:55 | 53.18168 | 8.24866 | 94° | 29km/h | 33092m | 7.3m/s | -39.3°C | 2.2% | 7.4hPa | 2.6V | 08:30:00 | 02:01:14 | 00:00:00 | |
| DB0DAN | 2026-08-31 05:32:55 | 53.18168 | 8.24879 | 92° | 33km/h | 33099m | 5.7m/s | -39.3°C | 0.6% | 7.38hPa | 2.7V | 00:00:00 | 00:00:00 | 00:00:00 | |
| HSKMA3-T | 2026-08-31 05:32:54 | 53.18168 | 8.24866 | 94° | 29km/h | 33093m | 7.3m/s | -39.3°C | 0% | 7.4hPa | 2.6V | 18:12:15 | 02:01:14 | 00:00:00 | |
| BIOWL1-15 | 2026-08-31 05:32:53 | 53.18169 | 8.24855 | 100° | 26km/h | 33086m | 6.6m/s | -39.2°C | 0% | 7.4hPa | 2.6V | 18:12:15 | 02:01:13 | 00:00:00 | |
| AA1-15 | 2026-08-31 05:32:52 | 53.18170 | 8.24844 | 102° | 26km/h | 33080m | 5.4m/s | -39.2°C | 0% | 7.4hPa | 2.6V | 18:12:15 | 02:01:12 | 00:00:00 | |
| DF8AY | 2026-08-31 05:32:48 | 53.18173 | 8.24786 | 90° | 46km/h | 33055m | 5.6m/s | -39.4°C | 0% | 7.4hPa | 2.6V | 18:12:15 | 02:01:08 | 00:00:00 | |
| DO2JMG | 2026-08-31 05:32:47 | 53.18173 | 8.24766 | 91° | 47km/h | 33049m | 5.2m/s | -39.5°C | 0% | 7.5hPa | 2.6V | 18:12:15 | 02:01:07 | 00:00:00 | |
| DF7PN | 2026-08-31 05:32:46 | 53.18174 | 8.24747 | 93° | 44km/h | 33044m | 6.9m/s | -39.5°C | 0.6% | 7.5hPa | 2.7V | 00:00:00 | 00:00:00 | 00:00:00 | |
| DM0DOS-11 | 2026-08-31 05:32:45 | 53.18176 | 8.24715 | 99° | 33km/h | 33030m | 5.7m/s | -39.6°C | 2.3% | 7.5hPa | 2.7V | 08:30:00 | 02:01:04 | 00:00:00 | |
| BUE01 | 2026-08-31 05:32:45 | 53.18174 | 8.24730 | 96° | 38km/h | 33037m | 6.6m/s | -39.5°C | 0.5% | 7.5hPa | 2.7V | 00:00:00 | 00:00:00 | 00:00:00 | |
| HSKMA3-T | 2026-08-31 05:32:44 | 53.18176 | 8.24715 | 99° | 33km/h | 33030m | 5.7m/s | -39.6°C | 0% | 7.5hPa | 2.7V | 18:12:15 | 02:01:04 | 00:00:00 | |
| AA1-15 | 2026-08-31 05:32:42 | 53.18178 | 8.24689 | 92° | 29km/h | 33020m | 5.6m/s | -39.7°C | 0% | 7.5hPa | 2.6V | 18:12:15 | 02:01:02 | 00:00:00 | |
| DB0DAN | 2026-08-31 05:32:40 | 53.18176 | 8.24662 | 76° | 35km/h | 33006m | 7m/s | -39.9°C | 0.5% | 7.51hPa | 2.6V | 00:00:00 | 00:00:00 | 00:00:00 | |
| DF8AY | 2026-08-31 05:32:38 | 53.18170 | 8.24632 | 70° | 38km/h | 32994m | 4.9m/s | -39.9°C | 0% | 7.5hPa | 2.7V | 18:12:15 | 02:00:58 | 00:00:00 | |
| DO2JMG | 2026-08-31 05:32:37 | 53.18167 | 8.24618 | 73° | 35km/h | 32989m | 5.2m/s | -40°C | 0% | 7.5hPa | 2.7V | 18:12:15 | 02:00:57 | 00:00:00 | |
| DL1XH-15 | 2026-08-31 05:32:36 | 53.18173 | 8.24544 | 101° | 40km/h | 32951m | 6.9m/s | -40.2°C | 2.3% | 7.6hPa | 2.7V | 08:30:00 | 02:00:51 | 00:00:00 | |
| DM0DOS-11 | 2026-08-31 05:32:35 | 53.18166 | 8.24583 | 107° | 26km/h | 32969m | 5.9m/s | -40.1°C | 2.3% | 7.5hPa | 2.6V | 08:30:00 | 02:00:54 | 00:00:00 | |
| BIOWL1-15 | 2026-08-31 05:32:34 | 53.18171 | 8.24559 | 108° | 35km/h | 32958m | 6.3m/s | -40.2°C | 0% | 7.5hPa | 2.7V | 18:12:15 | 02:00:52 | 00:00:00 | |
| HSKMA3-T | 2026-08-31 05:32:34 | 53.18166 | 8.24583 | 107° | 26km/h | 32969m | 5.9m/s | -40.1°C | 0% | 7.5hPa | 2.6V | 18:12:15 | 02:00:54 | 00:00:00 | |
| DL1XH-west | 2026-08-31 05:32:31 | 53.18173 | 8.24544 | 102° | 40km/h | 32951m | 6.9m/s | -40.2°C | 0% | 7.6hPa | 2.7V | 18:12:15 | 02:00:51 | 00:00:00 | |
| DF8AY | 2026-08-31 05:32:27 | 53.18174 | 8.24477 | 77° | 31km/h | 32929m | 6.6m/s | -40.1°C | 0% | 7.6hPa | 2.7V | 18:12:15 | 02:00:47 | 00:00:00 | |
| DO2JMG | 2026-08-31 05:32:26 | 53.18171 | 8.24466 | 65° | 24km/h | 32922m | 7.7m/s | -40.2°C | 0% | 7.6hPa | 2.7V | 18:12:15 | 02:00:46 | 00:00:00 | |
| DM0DOS-11 | 2026-08-31 05:32:25 | 53.18165 | 8.24455 | 25° | 18km/h | 32908m | 6m/s | -40.4°C | 2.3% | 7.6hPa | 2.6V | 08:30:00 | 02:00:44 | 00:00:00 | |
| DB0DAN | 2026-08-31 05:32:25 | 53.18169 | 8.24459 | 42° | 16km/h | 32914m | 7.1m/s | -40.3°C | 0.6% | 7.59hPa | 2.7V | 00:00:00 | 00:00:00 | 00:00:00 | |
| HSKMA3-T | 2026-08-31 05:32:23 | 53.18160 | 8.24451 | 25° | 20km/h | 32902m | 6.4m/s | -40.4°C | 0% | 7.6hPa | 2.6V | 18:12:15 | 02:00:43 | 00:00:00 | |
| BIOWL1-15 | 2026-08-31 05:32:22 | 53.18156 | 8.24446 | 37° | 24km/h | 32895m | 6.9m/s | -40.4°C | 0% | 7.6hPa | 2.6V | 18:12:15 | 02:00:42 | 00:00:00 | |
| DL1XH-west | 2026-08-31 05:32:21 | 53.18151 | 8.24439 | 52° | 29km/h | 32889m | 5.9m/s | -40.5°C | 0% | 7.6hPa | 2.7V | 18:12:15 | 02:00:41 | 00:00:00 | |
| AA1-15 | 2026-08-31 05:32:20 | 53.18147 | 8.24428 | 66° | 33km/h | 32883m | 5.3m/s | -40.5°C | 0% | 7.6hPa | 2.7V | 18:12:15 | 02:00:40 | 00:00:00 | |
| DF8AY | 2026-08-31 05:32:17 | 53.18144 | 8.24386 | 97° | 33km/h | 32865m | 7.9m/s | -40.6°C | 0% | 7.7hPa | 2.6V | 18:12:15 | 02:00:37 | 00:00:00 | |
| DO2JMG | 2026-08-31 05:32:15 | 53.18147 | 8.24362 | 112° | 26km/h | 32851m | 5.5m/s | -40.6°C | 0% | 7.7hPa | 2.7V | 18:12:15 | 02:00:35 | 00:00:00 | |
| HSKMA3-T | 2026-08-31 05:32:12 | 53.18150 | 8.24332 | 77° | 27km/h | 32834m | 7.5m/s | -40.7°C | 0% | 7.7hPa | 2.6V | 18:12:15 | 02:00:32 | 00:00:00 | |
| DB0DAN | 2026-08-31 05:32:10 | 53.18143 | 8.24309 | 58° | 31km/h | 32821m | 5.3m/s | -40.7°C | 0.6% | 7.73hPa | 2.6V | 00:00:00 | 00:00:00 | 00:00:00 | |
| DL1XH-west | 2026-08-31 05:32:10 | 53.18143 | 8.24309 | 58° | 33km/h | 32821m | 5.3m/s | -40.7°C | 0% | 7.7hPa | 2.6V | 18:12:15 | 02:00:30 | 00:00:00 | |
| DF8AY | 2026-08-31 05:32:06 | 53.18130 | 8.24275 | 78° | 15km/h | 32795m | 6m/s | -40.9°C | 0% | 7.8hPa | 2.6V | 18:12:15 | 02:00:26 | 00:00:00 | |
| DL1XH-15 | 2026-08-31 05:32:06 | 53.18137 | 8.24232 | 110° | 24km/h | 32764m | 4.9m/s | -41.3°C | 2.5% | 7.8hPa | 2.7V | 08:30:00 | 02:00:21 | 00:00:00 | |
| DM0DOS-11 | 2026-08-31 05:32:05 | 53.18131 | 8.24262 | 105° | 20km/h | 32782m | 7.4m/s | -41.1°C | 2.4% | 7.8hPa | 2.6V | 08:30:00 | 02:00:24 | 00:00:00 | |
| DO2JMG | 2026-08-31 05:32:04 | 53.18131 | 8.24262 | 106° | 20km/h | 32782m | 7.4m/s | -41.1°C | 0% | 7.8hPa | 2.6V | 18:12:15 | 02:00:24 | 00:00:00 | |
| HSKMA3-T | 2026-08-31 05:32:02 | 53.18135 | 8.24242 | 110° | 27km/h | 32770m | 5.1m/s | -41.2°C | 0% | 7.8hPa | 2.7V | 18:12:15 | 02:00:22 | 00:00:00 | |
| AA1-15 | 2026-08-31 05:32:00 | 53.18139 | 8.24223 | 111° | 18km/h | 32759m | 7m/s | -41.3°C | 0% | 7.8hPa | 2.6V | 18:12:15 | 02:00:20 | 00:00:00 | |
| DL1XH-west | 2026-08-31 05:31:59 | 53.18140 | 8.24218 | 99° | 11km/h | 32752m | 6.9m/s | -41.2°C | 0% | 7.8hPa | 2.6V | 18:12:15 | 02:00:19 | 00:00:00 | |
| DF8AY | 2026-08-31 05:31:56 | 53.18134 | 8.24210 | 25° | 20km/h | 32732m | 7m/s | -41.2°C | 0% | 7.8hPa | 2.7V | 18:12:15 | 02:00:16 | 00:00:00 | |
| DL1XH-15 | 2026-08-31 05:31:56 | 53.18114 | 8.24169 | 76° | 20km/h | 32701m | 7.6m/s | -41.2°C | 2.4% | 7.9hPa | 2.6V | 08:30:00 | 02:00:11 | 00:00:00 | |
| EDDB2-12 | 2026-08-31 05:31:56 | 53.18134 | 8.24210 | 25° | 18km/h | 32733m | 7.0m/s | -41.2°C | 0.6% | 7.8hPa | 2.6V | 00:00:00 | 00:00:00 | 00:00:00 | |
| DB0DAN | 2026-08-31 05:31:55 | 53.18129 | 8.24205 | 34° | 24km/h | 32725m | 7.2m/s | -41.2°C | 0.6% | 7.83hPa | 2.6V | 00:00:00 | 00:00:00 | 00:00:00 | |
| DO2JMG | 2026-08-31 05:31:54 | 53.18124 | 8.24198 | 46° | 29km/h | 32719m | 5.9m/s | -41.2°C | 0% | 7.8hPa | 2.6V | 18:12:15 | 02:00:14 | 00:00:00 | |
| HSKMA3-T | 2026-08-31 05:31:52 | 53.18116 | 8.24178 | 66° | 26km/h | 32708m | 5.6m/s | -41.2°C | 0% | 7.9hPa | 2.7V | 18:12:15 | 02:00:12 | 00:00:00 | |
| BIOWL1-15 | 2026-08-31 05:31:50 | 53.18114 | 8.24162 | 100° | 15km/h | 32694m | 6.9m/s | -41.3°C | 0% | 7.9hPa | 2.6V | 18:12:15 | 02:00:10 | 00:00:00 | |
| DL1XH-west | 2026-08-31 05:31:48 | 53.18117 | 8.24151 | 122° | 16km/h | 32682m | 5.4m/s | -41.3°C | 0% | 7.9hPa | 2.7V | 18:12:15 | 02:00:08 | 00:00:00 | |
| DF8AY | 2026-08-31 05:31:45 | 53.18120 | 8.24128 | 74° | 22km/h | 32663m | 5.5m/s | -41.2°C | 0% | 7.9hPa | 2.7V | 18:12:15 | 02:00:05 | 00:00:00 | |
| MET0W-2 | 2026-08-31 05:31:45 | 53.18120 | 8.24128 | 73° | 22km/h | 32664m | 5.5m/s | -41.2°C | 0.6% | 7.9hPa | 2.6V | 00:00:00 | 00:00:00 | 00:00:00 | |
| DO2JMG | 2026-08-31 05:31:43 | 53.18113 | 8.24112 | 43° | 24km/h | 32652m | 6.7m/s | -41.3°C | 0% | 7.9hPa | 2.6V | 18:12:15 | 02:00:03 | 00:00:00 | |
| HSKMA3-T | 2026-08-31 05:31:41 | 53.18104 | 8.24102 | 22° | 20km/h | 32638m | 6.3m/s | -41.4°C | 0% | 7.9hPa | 2.7V | 18:12:15 | 02:00:01 | 00:00:00 | |
| DB0DAN | 2026-08-31 05:31:40 | 53.18100 | 8.24099 | 27° | 16km/h | 32632m | 4.9m/s | -41.4°C | 0.6% | 7.97hPa | 2.7V | 00:00:00 | 00:00:00 | 00:00:00 | |
| AA1-15 | 2026-08-31 05:31:39 | 53.18097 | 8.24095 | 48° | 16km/h | 32627m | 4.8m/s | -41.4°C | 0% | 8hPa | 2.6V | 18:12:15 | 01:59:59 | 00:00:00 | |
| DL1XH-west | 2026-08-31 05:31:37 | 53.18092 | 8.24078 | 79° | 29km/h | 32615m | 7.9m/s | -41.5°C | 0% | 8hPa | 2.7V | 18:12:15 | 01:59:57 | 00:00:00 | |
| DF8AY | 2026-08-31 05:31:35 | 53.18092 | 8.24048 | 93° | 38km/h | 32601m | 5.1m/s | -41.5°C | 0% | 8hPa | 2.6V | 18:12:15 | 01:59:55 | 00:00:00 | |
| DO2JMG | 2026-08-31 05:31:32 | 53.18094 | 8.24011 | 97° | 16km/h | 32584m | 6.9m/s | -41.6°C | 0% | 8.1hPa | 2.7V | 18:12:15 | 01:59:52 | 00:00:00 | |
| HSKMA3-T | 2026-08-31 05:31:30 | 53.18092 | 8.24005 | 2° | 9km/h | 32572m | 5.7m/s | -41.7°C | 0% | 8hPa | 2.6V | 18:12:15 | 01:59:50 | 00:00:00 | |
| BIOWL1-15 | 2026-08-31 05:31:29 | 53.18085 | 8.24004 | 13° | 18km/h | 32559m | 7.1m/s | -41.6°C | 0% | 8.1hPa | 2.7V | 18:12:15 | 01:59:48 | 00:00:00 | |
| AA1-15 | 2026-08-31 05:31:29 | 53.18089 | 8.24005 | 1° | 15km/h | 32566m | 6.5m/s | -41.6°C | 0% | 8hPa | 2.6V | 18:12:15 | 01:59:49 | 00:00:00 | |
| DL1XH-west | 2026-08-31 05:31:26 | 53.18076 | 8.23996 | 44° | 22km/h | 32547m | 5.1m/s | -41.7°C | 0% | 8.1hPa | 2.7V | 18:12:15 | 01:59:46 | 00:00:00 | |
| DB0DAN | 2026-08-31 05:31:25 | 53.18072 | 8.23989 | 56° | 20km/h | 32541m | 5.2m/s | -41.7°C | 0.6% | 8.06hPa | 2.6V | 00:00:00 | 00:00:00 | 00:00:00 | |
| DF8AY | 2026-08-31 05:31:25 | 53.18072 | 8.23989 | 56° | 22km/h | 32541m | 5.2m/s | -41.7°C | 0% | 8.1hPa | 2.6V | 18:12:15 | 01:59:45 | 00:00:00 | |
| DO2JMG | 2026-08-31 05:31:22 | 53.18068 | 8.23970 | 96° | 9km/h | 32522m | 6.6m/s | -41.9°C | 0% | 8.1hPa | 2.7V | 18:12:15 | 01:59:42 | 00:00:00 | |
| HSKMA3-T | 2026-08-31 05:31:19 | 53.18071 | 8.23959 | 108° | 13km/h | 32505m | 6.7m/s | -42.2°C | 0% | 8.1hPa | 2.6V | 18:12:15 | 01:59:39 | 00:00:00 | |
| BIOWL1-15 | 2026-08-31 05:31:18 | 53.18071 | 8.23936 | 76° | 22km/h | 32485m | 6m/s | -42.1°C | 0% | 8.1hPa | 2.7V | 18:12:15 | 01:59:36 | 00:00:00 | |
| DO2SHX-10 | 2026-08-31 05:31:18 | 53.18071 | 8.23953 | 97° | 20km/h | 32498m | 7.3m/s | -42.1°C | 2.6% | 8.1hPa | 2.7V | 00:00:00 | 01:59:38 | 00:00:00 | |
| DO3DL | 2026-08-31 05:31:16 | 53.18072 | 8.23945 | 86° | 22km/h | 32491m | 6.2m/s | -42.1°C | 0.6% | 8.1hPa | 2.7V | 00:00:00 | 00:00:00 | 00:00:00 | |
| DM0DOS-11 | 2026-08-31 05:31:15 | 53.18067 | 8.23921 | 53° | 16km/h | 32471m | 6.8m/s | -41.9°C | 2.6% | 8.2hPa | 2.7V | 08:30:00 | 01:59:34 | 00:00:00 | |
| DL1XH-west | 2026-08-31 05:31:15 | 53.18069 | 8.23928 | 66° | 20km/h | 32478m | 7m/s | -42°C | 0% | 8.2hPa | 2.7V | 18:12:15 | 01:59:35 | 00:00:00 | |
| DF8AY | 2026-08-31 05:31:14 | 53.18067 | 8.23921 | 53° | 16km/h | 32472m | 6.8m/s | -41.9°C | 0% | 8.2hPa | 2.7V | 18:12:15 | 01:59:34 | 00:00:00 | |
| DO2JMG | 2026-08-31 05:31:11 | 53.18059 | 8.23908 | 61° | 15km/h | 32454m | 6.5m/s | -41.8°C | 0% | 8.2hPa | 2.6V | 18:12:15 | 01:59:31 | 00:00:00 | |
| DB0DAN | 2026-08-31 05:31:10 | 53.18058 | 8.23902 | 83° | 16km/h | 32447m | 6.9m/s | -41.8°C | 0.6% | 8.19hPa | 2.7V | 00:00:00 | 00:00:00 | 00:00:00 | |
| AA1-15 | 2026-08-31 05:31:09 | 53.18058 | 8.23894 | 100° | 20km/h | 32441m | 6.5m/s | -41.8°C | 0% | 8.2hPa | 2.7V | 18:12:15 | 01:59:29 | 00:00:00 | |
| HSKMA3-T | 2026-08-31 05:31:08 | 53.18060 | 8.23886 | 113° | 22km/h | 32435m | 5.8m/s | -41.7°C | 0% | 8.2hPa | 2.7V | 18:12:15 | 01:59:28 | 00:00:00 | |
| DO2SHX-10 | 2026-08-31 05:31:08 | 53.18060 | 8.23886 | 114° | 18km/h | 32435m | 5.7m/s | -41.7°C | 2.6% | 8.2hPa | 2.7V | 00:00:00 | 01:59:28 | 00:00:00 | |
| DL1XH1-15 | 2026-08-31 05:31:07 | 53.18070 | 8.23871 | 215° | 5km/h | 32409m | 5.7m/s | -41.5°C | 2.5% | 8.2hPa | 2.7V | 08:30:00 | 01:59:24 | 00:00:00 | |
| BIOWL1-15 | 2026-08-31 05:31:06 | 53.18065 | 8.23873 | 142° | 15km/h | 32422m | 7.4m/s | -41.6°C | 0% | 8.2hPa | 2.6V | 18:12:15 | 01:59:26 | 00:00:00 | |
| DL1XH-west | 2026-08-31 05:31:05 | 53.18068 | 8.23871 | 168° | 9km/h | 32415m | 6.9m/s | -41.5°C | 0% | 8.2hPa | 2.6V | 18:12:15 | 01:59:25 | 00:00:00 | |
| DF8AY | 2026-08-31 05:31:04 | 53.18070 | 8.23871 | 216° | 5km/h | 32409m | 5.7m/s | -41.5°C | 0% | 8.2hPa | 2.7V | 18:12:15 | 01:59:24 | 00:00:00 | |
| DO2JMG | 2026-08-31 05:31:01 | 53.18065 | 8.23870 | 27° | 16km/h | 32390m | 7.8m/s | -41.5°C | 0% | 8.3hPa | 2.6V | 18:12:15 | 01:59:21 | 00:00:00 | |
| AA1-15 | 2026-08-31 05:30:58 | 53.18052 | 8.23852 | 42° | 24km/h | 32373m | 5.2m/s | -41.5°C | 0% | 8.3hPa | 2.7V | 18:12:15 | 01:59:18 | 00:00:00 | |
| HSKMA3-T | 2026-08-31 05:30:57 | 53.18048 | 8.23847 | 37° | 16km/h | 32367m | 6.7m/s | -41.5°C | 0% | 8.3hPa | 2.7V | 18:12:15 | 01:59:17 | 00:00:00 | |
| DL1XH-15 | 2026-08-31 05:30:56 | 53.18047 | 8.23852 | 142° | 4km/h | 32326m | 6.5m/s | -41.3°C | 2.5% | 8.3hPa | 2.7V | 08:30:00 | 01:59:11 | 00:00:00 | |
| BIOWL1-15 | 2026-08-31 05:30:56 | 53.18045 | 8.23844 | 20° | 9km/h | 32360m | 7m/s | -41.5°C | 0% | 8.3hPa | 2.7V | 18:12:15 | 01:59:16 | 00:00:00 | |
| DL3AQ-11 | 2026-08-31 05:30:56 | 53.18044 | 8.23844 | 298° | 4km/h | 32353m | 7.0m/s | -41.5°C | 0.6% | 8.3hPa | 2.6V | 00:00:00 | 00:00:00 | 00:00:00 | |
| DM0DOS-11 | 2026-08-31 05:30:55 | 53.18044 | 8.23847 | 248° | 7km/h | 32346m | 6.5m/s | -41.4°C | 2.5% | 8.3hPa | 2.6V | 08:30:00 | 01:59:14 | 00:00:00 | |
| DB0DAN | 2026-08-31 05:30:55 | 53.18044 | 8.23844 | 299° | 4km/h | 32353m | 7m/s | -41.5°C | 0.6% | 8.32hPa | 2.6V | 00:00:00 | 00:00:00 | 00:00:00 | |
| DL1XH-west | 2026-08-31 05:30:54 | 53.18044 | 8.23847 | 249° | 7km/h | 32346m | 6.5m/s | -41.4°C | 0% | 8.3hPa | 2.6V | 18:12:15 | 01:59:14 | 00:00:00 | |
| DO2JMG | 2026-08-31 05:30:51 | 53.18047 | 8.23852 | 143° | 4km/h | 32326m | 6.6m/s | -41.3°C | 0% | 8.3hPa | 2.7V | 18:12:15 | 01:59:11 | 00:00:00 | |
| AA1-15 | 2026-08-31 05:30:47 | 53.18046 | 8.23844 | 35° | 2km/h | 32301m | 7m/s | -41.3°C | 0% | 8.4hPa | 2.6V | 18:12:15 | 01:59:07 | 00:00:00 | |
| DL1XH1-15 | 2026-08-31 05:30:47 | 53.18042 | 8.23843 | 15° | 11km/h | 32281m | 7.6m/s | -41.3°C | 2.5% | 8.4hPa | 2.7V | 08:30:00 | 01:59:04 | 00:00:00 | |
| HSKMA3-T | 2026-08-31 05:30:46 | 53.18045 | 8.23844 | 4° | 5km/h | 32294m | 6m/s | -41.3°C | 0% | 8.4hPa | 2.7V | 18:12:15 | 01:59:06 | 00:00:00 | |
| DL1XH-west | 2026-08-31 05:30:44 | 53.18041 | 8.23843 | 16° | 11km/h | 32281m | 7.6m/s | -41.3°C | 0% | 8.4hPa | 2.7V | 18:12:15 | 01:59:04 | 00:00:00 | |
| DF8AY | 2026-08-31 05:30:43 | 53.18038 | 8.23841 | 20° | 15km/h | 32275m | 6.3m/s | -41.2°C | 0% | 8.4hPa | 2.6V | 18:12:15 | 01:59:03 | 00:00:00 | |
| DK5PH-5 | 2026-08-31 05:30:43 | 53.18038 | 8.23841 | 20° | 13km/h | 32275m | 6.2m/s | -41.2°C | 2.5% | 8.4hPa | 2.6V | 00:00:00 | 01:59:03 | 00:00:00 | |
| DB0DAN | 2026-08-31 05:30:40 | 53.18031 | 8.23839 | 315° | 5km/h | 32258m | 7.5m/s | -41.3°C | 0.6% | 8.44hPa | 2.7V | 00:00:00 | 00:00:00 | 00:00:00 | |
| DO2JMG | 2026-08-31 05:30:40 | 53.18031 | 8.23839 | 315° | 5km/h | 32258m | 7.5m/s | -41.3°C | 0% | 8.4hPa | 2.7V | 18:12:15 | 01:59:00 | 00:00:00 | |
| AA1-15 | 2026-08-31 05:30:37 | 53.18032 | 8.23848 | 228° | 7km/h | 32239m | 5.1m/s | -41.1°C | 0% | 8.4hPa | 2.6V | 18:12:15 | 01:58:57 | 00:00:00 | |
| HSKMA3-T | 2026-08-31 05:30:35 | 53.18033 | 8.23847 | 72° | 9km/h | 32226m | 7m/s | -41.1°C | 0% | 8.5hPa | 2.7V | 18:12:15 | 01:58:55 | 00:00:00 | |
| DL1XH-west | 2026-08-31 05:30:34 | 53.18032 | 8.23843 | 66° | 15km/h | 32219m | 6.3m/s | -41.1°C | 0% | 8.5hPa | 2.6V | 18:12:15 | 01:58:54 | 00:00:00 | |
| DF8AY | 2026-08-31 05:30:33 | 53.18030 | 8.23836 | 66° | 18km/h | 32213m | 6.2m/s | -41.1°C | 0% | 8.5hPa | 2.6V | 18:12:15 | 01:58:53 | 00:00:00 | |
| DO2JMG | 2026-08-31 05:30:30 | 53.18025 | 8.23819 | 58° | 9km/h | 32193m | 5.9m/s | -41.1°C | 0% | 8.5hPa | 2.6V | 18:12:15 | 01:58:50 | 00:00:00 | |
| DO2SHX-10 | 2026-08-31 05:30:29 | 53.18024 | 8.23817 | 46° | 9km/h | 32188m | 5.8m/s | -41.1°C | 2.4% | 8.5hPa | 2.6V | 00:00:00 | 01:58:49 | 00:00:00 | |
| DL4BBY-15 | 2026-08-31 05:30:28 | 53.18022 | 8.23814 | 35° | 16km/h | 32181m | 6.7m/s | -40.3°C | 0% | 0hPa | 2.7V | 00:00:00 | 00:00:00 | 00:00:00 | |
| DC6BW-12 | 2026-08-31 05:30:27 | 53.18022 | 8.23814 | 36° | 9km/h | 32182m | 6.7m/s | -41.2°C | 0.6% | 8.5hPa | 2.7V | 00:00:00 | 00:00:00 | 00:00:00 | |
| DL1XH-15 | 2026-08-31 05:30:26 | 53.18018 | 8.23798 | 129° | 13km/h | 32135m | 5.6m/s | -41.3°C | 2.5% | 8.6hPa | 2.7V | 08:30:00 | 01:58:41 | 00:00:00 | |
| AA1-15 | 2026-08-31 05:30:26 | 53.18018 | 8.23809 | 38° | 11km/h | 32167m | 6m/s | -41.3°C | 0% | 8.6hPa | 2.6V | 18:12:15 | 01:58:46 | 00:00:00 | |
| DB0DAN | 2026-08-31 05:30:25 | 53.18016 | 8.23806 | 44° | 9km/h | 32162m | 5.9m/s | -41.3°C | 0.6% | 8.55hPa | 2.6V | 00:00:00 | 00:00:00 | 00:00:00 | |
| DL1XH-west | 2026-08-31 05:30:24 | 53.18015 | 8.23804 | 71° | 5km/h | 32155m | 7.3m/s | -41.3°C | 0% | 8.6hPa | 2.6V | 18:12:15 | 01:58:44 | 00:00:00 | |
| DF8AY | 2026-08-31 05:30:23 | 53.18015 | 8.23803 | 139° | 5km/h | 32148m | 7.2m/s | -41.3°C | 0% | 8.6hPa | 2.7V | 18:12:15 | 01:58:43 | 00:00:00 | |
| DO2JMG | 2026-08-31 05:30:19 | 53.18021 | 8.23784 | 94° | 22km/h | 32122m | 7.7m/s | -41.3°C | 0% | 8.6hPa | 2.6V | 18:12:15 | 01:58:39 | 00:00:00 | |
| DF2AP-13 | 2026-08-31 05:30:18 | 53.18021 | 8.23774 | 87° | 18km/h | 32115m | 6.2m/s | -41.3°C | 2.5% | 8.6hPa | 2.6V | 00:00:00 | 01:58:38 | 00:00:00 | |
| DO2SHX-10 | 2026-08-31 05:30:17 | 53.18020 | 8.23763 | 85° | 24km/h | 32109m | 5.3m/s | -41.3°C | 2.5% | 8.6hPa | 2.7V | 00:00:00 | 01:58:37 | 00:00:00 | |
| DL1XH-15 | 2026-08-31 05:30:16 | 53.18027 | 8.23728 | 124° | 9km/h | 32070m | 7.3m/s | -41.4°C | 2.4% | 8.7hPa | 2.7V | 08:30:00 | 01:58:31 | 00:00:00 | |
| AA1-15 | 2026-08-31 05:30:16 | 53.18020 | 8.23752 | 90° | 24km/h | 32103m | 6.9m/s | -41.3°C | 0% | 8.6hPa | 2.7V | 18:12:15 | 01:58:36 | 00:00:00 | |
| DL1XH-west | 2026-08-31 05:30:13 | 53.18024 | 8.23733 | 139° | 11km/h | 32083m | 6.1m/s | -41.3°C | 0% | 8.7hPa | 2.6V | 18:12:15 | 01:58:33 | 00:00:00 | |
| DF8AY | 2026-08-31 05:30:12 | 53.18026 | 8.23731 | 142° | 9km/h | 32077m | 6m/s | -41.4°C | 0% | 8.7hPa | 2.6V | 18:12:15 | 01:58:32 | 00:00:00 | |
| DB0DAN | 2026-08-31 05:30:10 | 53.18029 | 8.23724 | 106° | 11km/h | 32063m | 6.7m/s | -41.4°C | 0.6% | 8.71hPa | 2.7V | 00:00:00 | 00:00:00 | 00:00:00 | |
| DO2JMG | 2026-08-31 05:30:09 | 53.18030 | 8.23718 | 106° | 15km/h | 32057m | 6.1m/s | -41.4°C | 0% | 8.7hPa | 2.7V | 18:12:15 | 01:58:29 | 00:00:00 | |
| DL8DAS-14 | 2026-08-31 05:30:09 | 53.18031 | 8.23712 | 111° | 16km/h | 32051m | 6.7m/s | -41.5°C | 0.6% | 8.7hPa | 2.6V | 00:00:00 | 00:00:00 | 00:00:00 | |
| DO2SHX-10 | 2026-08-31 05:30:08 | 53.18031 | 8.23712 | 112° | 20km/h | 32051m | 6.7m/s | -41.4°C | 2.5% | 8.7hPa | 2.6V | 00:00:00 | 01:58:28 | 00:00:00 | |
| DC6BW-12 | 2026-08-31 05:30:07 | 53.18031 | 8.23712 | 112° | 18km/h | 32051m | 6.7m/s | -41.5°C | 0.7% | 8.7hPa | 2.6V | 00:00:00 | 00:00:00 | 00:00:00 | |
| DL1XH-15 | 2026-08-31 05:30:06 | 53.18042 | 8.23652 | 91° | 18km/h | 32004m | 6m/s | -41.7°C | 2.5% | 8.8hPa | 2.6V | 08:30:00 | 01:58:21 | 00:00:00 | |
| DM0DOS-11 | 2026-08-31 05:30:05 | 53.18041 | 8.23680 | 107° | 24km/h | 32024m | 7.1m/s | -41.6°C | 2.5% | 8.7hPa | 2.7V | 08:30:00 | 01:58:24 | 00:00:00 | |
| AA1-15 | 2026-08-31 05:30:05 | 53.18039 | 8.23689 | 116° | 24km/h | 32030m | 5.8m/s | -41.5°C | 0% | 8.8hPa | 2.7V | 18:12:15 | 01:58:25 | 00:00:00 | |
| DL1XH-west | 2026-08-31 05:30:03 | 53.18042 | 8.23670 | 97° | 24km/h | 32017m | 7.3m/s | -41.6°C | 0% | 8.8hPa | 2.7V | 18:12:15 | 01:58:23 | 00:00:00 | |
| HSKMA3-T | 2026-08-31 05:30:02 | 53.18042 | 8.23660 | 90° | 22km/h | 32010m | 5.9m/s | -41.7°C | 0% | 8.8hPa | 2.6V | 18:12:15 | 01:58:22 | 00:00:00 | |
| DO2JMG | 2026-08-31 05:29:59 | 53.18045 | 8.23642 | 144° | 11km/h | 31990m | 7.5m/s | -41.7°C | 0% | 8.8hPa | 2.7V | 18:12:15 | 01:58:19 | 00:00:00 | |
| BIOWL1-15 | 2026-08-31 05:29:58 | 53.18061 | 8.23603 | 99° | 29km/h | 31945m | 6.6m/s | -41.7°C | 0% | 8.9hPa | 2.7V | 18:12:15 | 01:58:12 | 00:00:00 | |
| HTAHTA | 2026-08-31 05:29:57 | 53.18059 | 8.23624 | 102° | 20km/h | 31958m | 7.0m/s | -41.8°C | 0.6% | 8.9hPa | 2.6V | 00:00:00 | 00:00:00 | 00:00:00 | |
| DL1XH-15 | 2026-08-31 05:29:56 | 53.18063 | 8.23591 | 106° | 29km/h | 31938m | 7.2m/s | -41.8°C | 2.5% | 8.9hPa | 2.6V | 08:30:00 | 01:58:11 | 00:00:00 | |
| DM0DOS-11 | 2026-08-31 05:29:55 | 53.18059 | 8.23624 | 102° | 22km/h | 31958m | 7m/s | -41.8°C | 2.5% | 8.8hPa | 2.6V | 08:30:00 | 01:58:14 | 00:00:00 | |
| AA1-15 | 2026-08-31 05:29:55 | 53.18057 | 8.23632 | 123° | 16km/h | 31965m | 7.4m/s | -41.8°C | 0% | 8.8hPa | 2.6V | 18:12:15 | 01:58:15 | 00:00:00 | |
| DB0DAN | 2026-08-31 05:29:55 | 53.18057 | 8.23632 | 123° | 16km/h | 31965m | 7.4m/s | -41.8°C | 0.7% | 8.83hPa | 2.6V | 00:00:00 | 00:00:00 | 00:00:00 | |
| DL1XH-west | 2026-08-31 05:29:53 | 53.18060 | 8.23614 | 97° | 27km/h | 31951m | 6.3m/s | -41.8°C | 0% | 8.8hPa | 2.7V | 18:12:15 | 01:58:13 | 00:00:00 | |
| HSKMA3-T | 2026-08-31 05:29:51 | 53.18063 | 8.23591 | 106° | 29km/h | 31938m | 7.2m/s | -41.8°C | 0% | 8.9hPa | 2.6V | 18:12:15 | 01:58:11 | 00:00:00 | |
| DO2JMG | 2026-08-31 05:29:48 | 53.18069 | 8.23565 | 115° | 15km/h | 31918m | 7.3m/s | -41.7°C | 0% | 8.9hPa | 2.7V | 18:12:15 | 01:58:08 | 00:00:00 | |
| DL3AQ-11 | 2026-08-31 05:29:47 | 53.18070 | 8.23560 | 97° | 0km/h | 31904m | 6.0m/s | -41.6°C | 0.6% | 8.9hPa | 2.7V | 00:00:00 | 00:00:00 | 00:00:00 | |
| DL1XH-15 | 2026-08-31 05:29:46 | 53.18079 | 8.23570 | 150° | 9km/h | 31874m | 4.8m/s | -41.5°C | 2.5% | 9hPa | 2.7V | 08:30:00 | 01:58:01 | 00:00:00 | |
| DM0DOS-11 | 2026-08-31 05:29:45 | 53.18072 | 8.23564 | 235° | 11km/h | 31892m | 7.4m/s | -41.5°C | 2.5% | 8.9hPa | 2.7V | 08:30:00 | 01:58:04 | 00:00:00 | |
| AA1-15 | 2026-08-31 05:29:45 | 53.18071 | 8.23561 | 250° | 5km/h | 31898m | 5.7m/s | -41.5°C | 0% | 8.9hPa | 2.7V | 18:12:15 | 01:58:05 | 00:00:00 | |
| SONDE2-11 | 2026-08-31 05:29:45 | 53.18071 | 8.23561 | 249° | 5km/h | 31899m | 5.7m/s | -41.5°C | 0.6% | 8.9hPa | 2.6V | 00:00:00 | 00:00:00 | 00:00:00 | |
| DL1XH-west | 2026-08-31 05:29:42 | 53.18076 | 8.23570 | 197° | 11km/h | 31879m | 4.7m/s | -41.5°C | 0% | 9hPa | 2.6V | 18:12:15 | 01:58:02 | 00:00:00 | |
| BIOWL1-15 | 2026-08-31 05:29:41 | 53.18079 | 8.23570 | 151° | 9km/h | 31874m | 4.8m/s | -41.5°C | 0% | 9hPa | 2.7V | 18:12:15 | 01:58:01 | 00:00:00 | |
| HSKMA3-T | 2026-08-31 05:29:40 | 53.18080 | 8.23566 | 106° | 11km/h | 31868m | 7.8m/s | -41.5°C | 0% | 9hPa | 2.7V | 18:12:15 | 01:58:00 | 00:00:00 | |
| DB0DAN | 2026-08-31 05:29:40 | 53.18080 | 8.23566 | 106° | 11km/h | 31867m | 7.8m/s | -41.5°C | 0.6% | 8.99hPa | 2.7V | 00:00:00 | 00:00:00 | 00:00:00 | |
| DO2JMG | 2026-08-31 05:29:38 | 53.18078 | 8.23550 | 72° | 29km/h | 31852m | 6.9m/s | -41.5°C | 0% | 9hPa | 2.6V | 18:12:15 | 01:57:58 | 00:00:00 | |
| AA1-15 | 2026-08-31 05:29:35 | 53.18072 | 8.23516 | 77° | 20km/h | 31834m | 6.4m/s | -41.3°C | 0% | 9hPa | 2.7V | 18:12:15 | 01:57:55 | 00:00:00 | |
| DL1XH-west | 2026-08-31 05:29:32 | 53.18072 | 8.23511 | 272° | 9km/h | 31814m | 7m/s | -41.3°C | 0% | 9.1hPa | 2.6V | 18:12:15 | 01:57:52 | 00:00:00 | |
| BIOWL1-15 | 2026-08-31 05:29:31 | 53.18071 | 8.23516 | 289° | 15km/h | 31806m | 8m/s | -41.4°C | 0% | 9hPa | 2.6V | 18:12:15 | 01:57:51 | 00:00:00 | |
| HSKMA3-T | 2026-08-31 05:29:30 | 53.18069 | 8.23522 | 305° | 16km/h | 31799m | 6.6m/s | -41.4°C | 0% | 9.1hPa | 2.7V | 18:12:15 | 01:57:50 | 00:00:00 | |
| DO2JMG | 2026-08-31 05:29:27 | 53.18063 | 8.23529 | 45° | 5km/h | 31781m | 7.5m/s | -41.5°C | 0% | 9.1hPa | 2.6V | 18:12:15 | 01:57:47 | 00:00:00 | |
| DB0DAN | 2026-08-31 05:29:25 | 53.18062 | 8.23517 | 84° | 24km/h | 31767m | 6m/s | -41.4°C | 0.6% | 9.11hPa | 2.6V | 00:00:00 | 00:00:00 | 00:00:00 | |
| AA1-15 | 2026-08-31 05:29:25 | 53.18062 | 8.23517 | 84° | 24km/h | 31767m | 6m/s | -41.4°C | 0% | 9.1hPa | 2.6V | 18:12:15 | 01:57:45 | 00:00:00 | |
| DL1XH-west | 2026-08-31 05:29:21 | 53.18050 | 8.23466 | 49° | 33km/h | 31741m | 4.9m/s | -41.1°C | 0% | 9.2hPa | 2.6V | 18:12:15 | 01:57:41 | 00:00:00 | |
| DF8AY | 2026-08-31 05:29:20 | 53.18045 | 8.23458 | 35° | 26km/h | 31736m | 4.6m/s | -41.1°C | 0% | 9.2hPa | 2.6V | 18:12:15 | 01:57:40 | 00:00:00 | |
| HSKMA3-T | 2026-08-31 05:29:19 | 53.18040 | 8.23454 | 22° | 18km/h | 31731m | 7.3m/s | -41.2°C | 0% | 9.2hPa | 2.6V | 18:12:15 | 01:57:39 | 00:00:00 | |
| DL4XJ-10 | 2026-08-31 05:29:19 | 53.18040 | 8.23454 | 23° | 18km/h | 31731m | 7.3m/s | -40.3°C | 0% | 0hPa | 2.7V | 00:00:00 | 00:00:00 | 00:00:00 | |
| DF2AP-13 | 2026-08-31 05:29:18 | 53.18037 | 8.23453 | 345° | 16km/h | 31723m | 8.0m/s | -41.1°C | 2.5% | 9.1hPa | 2.7V | 00:00:00 | 01:57:38 | 00:00:00 | |
| DO2SHX-10 | 2026-08-31 05:29:17 | 53.18035 | 8.23456 | 292° | 15km/h | 31716m | 7.0m/s | -41.0°C | 2.5% | 9.1hPa | 2.7V | 00:00:00 | 01:57:37 | 08:30:00 | |
| DL1XH-15 | 2026-08-31 05:29:16 | 53.18018 | 8.23468 | 47° | 24km/h | 31677m | 7.7m/s | -41°C | 2.4% | 9.2hPa | 2.6V | 08:30:00 | 01:57:31 | 00:00:00 | |
| DO2JMG | 2026-08-31 05:29:16 | 53.18034 | 8.23461 | 282° | 16km/h | 31709m | 5.7m/s | -41°C | 0% | 9.2hPa | 2.6V | 18:12:15 | 01:57:36 | 00:00:00 | |
| AA1-15 | 2026-08-31 05:29:15 | 53.18033 | 8.23468 | 294° | 16km/h | 31703m | 6m/s | -41.1°C | 0% | 9.2hPa | 2.6V | 18:12:15 | 01:57:35 | 00:00:00 | |
| DL1XH-west | 2026-08-31 05:29:11 | 53.18018 | 8.23468 | 48° | 24km/h | 31677m | 7.7m/s | -41°C | 0% | 9.2hPa | 2.6V | 18:12:15 | 01:57:31 | 00:00:00 | |
| DB0DAN | 2026-08-31 05:29:10 | 53.18015 | 8.23459 | 63° | 24km/h | 31669m | 8.2m/s | -41°C | 0.6% | 9.25hPa | 2.7V | 00:00:00 | 00:00:00 | 00:00:00 | |
| BIOWL1-15 | 2026-08-31 05:29:09 | 53.18009 | 8.23429 | 68° | 22km/h | 31651m | 4.9m/s | -41.1°C | 0% | 9.3hPa | 2.6V | 18:12:15 | 01:57:27 | 00:00:00 | |
| HSKMA3-T | 2026-08-31 05:29:09 | 53.18013 | 8.23449 | 74° | 27km/h | 31662m | 6.6m/s | -41.1°C | 0% | 9.2hPa | 2.7V | 18:12:15 | 01:57:29 | 00:00:00 | |
| DO2JMG | 2026-08-31 05:29:06 | 53.18007 | 8.23422 | 49° | 18km/h | 31646m | 6.7m/s | -41.2°C | 0% | 9.3hPa | 2.6V | 18:12:15 | 01:57:26 | 00:00:00 | |
| DM0DOS-11 | 2026-08-31 05:29:05 | 53.17999 | 8.23417 | 352° | 20km/h | 31631m | 6.7m/s | -41.3°C | 2.5% | 9.3hPa | 2.7V | 08:30:00 | 01:57:24 | 00:00:00 | |
| AA1-15 | 2026-08-31 05:29:04 | 53.17998 | 8.23418 | 353° | 20km/h | 31631m | 6.7m/s | -41.3°C | 0% | 9.3hPa | 2.7V | 18:12:15 | 01:57:24 | 00:00:00 | |
| DL1XH-west | 2026-08-31 05:29:00 | 53.17987 | 8.23432 | 266° | 7km/h | 31604m | 6.8m/s | -41.3°C | 0% | 9.3hPa | 2.6V | 18:12:15 | 01:57:20 | 00:00:00 | |
| DF8AY | 2026-08-31 05:28:59 | 53.17987 | 8.23434 | 216° | 2km/h | 31597m | 6.9m/s | -41.3°C | 0% | 9.4hPa | 2.7V | 18:12:15 | 01:57:19 | 00:00:00 | |
| HSKMA3-T | 2026-08-31 05:28:58 | 53.17988 | 8.23434 | 95° | 4km/h | 31590m | 7.7m/s | -41.3°C | 0% | 9.4hPa | 2.7V | 18:12:15 | 01:57:18 | 00:00:00 | |
| DL3AQ-11 | 2026-08-31 05:28:56 | 53.17986 | 8.23419 | 79° | 18km/h | 31571m | 6.9m/s | -41.4°C | 0.6% | 9.4hPa | 2.6V | 00:00:00 | 00:00:00 | 00:00:00 | |
| DM0DOS-11 | 2026-08-31 05:28:55 | 53.17985 | 8.23411 | 85° | 20km/h | 31563m | 7.6m/s | -41.4°C | 2.4% | 9.4hPa | 2.6V | 08:30:00 | 01:57:14 | 00:00:00 | |
| DB0DAN | 2026-08-31 05:28:55 | 53.17986 | 8.23419 | 80° | 18km/h | 31570m | 6.9m/s | -41.4°C | 0.6% | 9.39hPa | 2.6V | 00:00:00 | 00:00:00 | 00:00:00 | |
| DO2JMG | 2026-08-31 05:28:55 | 53.17986 | 8.23419 | 80° | 18km/h | 31570m | 6.9m/s | -41.4°C | 0% | 9.4hPa | 2.6V | 18:12:15 | 01:57:15 | 00:00:00 | |
| AA1-15 | 2026-08-31 05:28:54 | 53.17985 | 8.23411 | 85° | 20km/h | 31563m | 7.6m/s | -41.4°C | 0% | 9.4hPa | 2.6V | 18:12:15 | 01:57:14 | 00:00:00 | |
| DL1XH-west | 2026-08-31 05:28:50 | 53.17979 | 8.23387 | 17° | 15km/h | 31537m | 8m/s | -41.3°C | 0% | 9.5hPa | 2.6V | 18:12:15 | 01:57:10 | 00:00:00 | |
| DF8AY | 2026-08-31 05:28:48 | 53.17971 | 8.23388 | 335° | 15km/h | 31524m | 5.3m/s | -41.4°C | 0% | 9.5hPa | 2.6V | 18:12:15 | 01:57:08 | 00:00:00 | |
| BIOWL1-15 | 2026-08-31 05:28:47 | 53.17968 | 8.23394 | 253° | 7km/h | 31510m | 7.8m/s | -41.6°C | 0% | 9.5hPa | 2.7V | 18:12:15 | 01:57:06 | 00:00:00 | |
| HSKMA3-T | 2026-08-31 05:28:47 | 53.17969 | 8.23391 | 310° | 9km/h | 31518m | 6.7m/s | -41.5°C | 0% | 9.5hPa | 2.7V | 18:12:15 | 01:57:07 | 00:00:00 | |
| DO2SHX-10 | 2026-08-31 05:28:47 | 53.17969 | 8.23391 | 311° | 9km/h | 31518m | 6.7m/s | -41.5°C | 2.4% | 9.4hPa | 2.6V | 00:00:00 | 01:57:07 | 00:00:00 | |
| DD1CC3-15 | 2026-08-31 05:28:46 | 53.17969 | 8.23391 | 311° | 9km/h | 31518m | 6.7m/s | -41.5°C | 0.6% | 9.5hPa | 2.6V | 00:00:00 | 00:00:00 | 00:00:00 | |
| DM0DOS-11 | 2026-08-31 05:28:45 | 53.17973 | 8.23397 | 178° | 11km/h | 31497m | 4.8m/s | -41.8°C | 2.4% | 9.5hPa | 2.6V | 08:30:00 | 01:57:04 | 00:00:00 | |
| DO2JMG | 2026-08-31 05:28:45 | 53.17970 | 8.23396 | 202° | 11km/h | 31503m | 6.5m/s | -41.7°C | 0% | 9.5hPa | 2.6V | 18:12:15 | 01:57:05 | 00:00:00 | |
| AA1-15 | 2026-08-31 05:28:43 | 53.17975 | 8.23396 | 149° | 7km/h | 31493m | 4.8m/s | -41.9°C | 0% | 9.5hPa | 2.7V | 18:12:15 | 01:57:03 | 00:00:00 | |
| DL1XH-west | 2026-08-31 05:28:40 | 53.17970 | 8.23387 | 25° | 22km/h | 31472m | 6.7m/s | -42.2°C | 0% | 9.5hPa | 2.6V | 18:12:15 | 01:57:00 | 00:00:00 | |
| DB0DAN | 2026-08-31 05:28:40 | 53.17970 | 8.23387 | 25° | 22km/h | 31472m | 6.7m/s | -42.2°C | 0.6% | 9.54hPa | 2.6V | 00:00:00 | 00:00:00 | 00:00:00 | |
| DF8AY | 2026-08-31 05:28:38 | 53.17958 | 8.23379 | 20° | 29km/h | 31459m | 6.7m/s | -42.4°C | 0% | 9.6hPa | 2.7V | 18:12:15 | 01:56:58 | 00:00:00 | |
| BIOWL1-15 | 2026-08-31 05:28:37 | 53.17941 | 8.23368 | 22° | 16km/h | 31440m | 6.2m/s | -42.7°C | 0% | 9.6hPa | 2.6V | 18:12:15 | 01:56:55 | 00:00:00 | |
| HSKMA3-T | 2026-08-31 05:28:36 | 53.17945 | 8.23371 | 22° | 22km/h | 31446m | 6.4m/s | -42.6°C | 0% | 9.6hPa | 2.6V | 18:12:15 | 01:56:56 | 00:00:00 | |
| DO2JMG | 2026-08-31 05:28:34 | 53.17938 | 8.23366 | 14° | 13km/h | 31434m | 5.9m/s | -42.7°C | 0% | 9.6hPa | 2.7V | 18:12:15 | 01:56:54 | 00:00:00 | |
| AA1-15 | 2026-08-31 05:28:33 | 53.17935 | 8.23365 | 3° | 13km/h | 31428m | 6.7m/s | -42.8°C | 0% | 9.6hPa | 2.7V | 18:12:15 | 01:56:53 | 00:00:00 | |
| DL1XH-west | 2026-08-31 05:28:30 | 53.17923 | 8.23367 | 351° | 15km/h | 31407m | 6.2m/s | -43°C | 0% | 9.7hPa | 2.6V | 18:12:15 | 01:56:50 | 00:00:00 | |
| DF8AY | 2026-08-31 05:28:27 | 53.17913 | 8.23368 | 7° | 13km/h | 31386m | 5.6m/s | -43.2°C | 0% | 9.7hPa | 2.7V | 18:12:15 | 01:56:47 | 00:00:00 | |
| DL3AQ-11 | 2026-08-31 05:28:27 | 53.17910 | 8.23367 | 6° | 16km/h | 31381m | 6.1m/s | -43.2°C | 0.7% | 9.7hPa | 2.7V | 00:00:00 | 00:00:00 | 00:00:00 | |
| DL1XH-15 | 2026-08-31 05:28:26 | 53.17879 | 8.23370 | 338° | 18km/h | 31346m | 7.6m/s | -43.2°C | 2.6% | 9.7hPa | 2.7V | 08:30:00 | 01:56:41 | 00:00:00 | |
| BIOWL1-15 | 2026-08-31 05:28:26 | 53.17910 | 8.23367 | 6° | 18km/h | 31380m | 6.1m/s | -43.2°C | 0% | 9.7hPa | 2.7V | 18:12:15 | 01:56:46 | 00:00:00 | |
| HSKMA3-T | 2026-08-31 05:28:25 | 53.17905 | 8.23366 | 4° | 24km/h | 31373m | 8m/s | -43.2°C | 0% | 9.7hPa | 2.6V | 18:12:15 | 01:56:45 | 00:00:00 | |
| DB0DAN | 2026-08-31 05:28:25 | 53.17905 | 8.23366 | 4° | 22km/h | 31373m | 8m/s | -43.2°C | 0.7% | 9.71hPa | 2.6V | 00:00:00 | 00:00:00 | 00:00:00 | |
| DO2JMG | 2026-08-31 05:28:23 | 53.17891 | 8.23366 | 356° | 29km/h | 31359m | 5.9m/s | -43.2°C | 0% | 9.7hPa | 2.6V | 18:12:15 | 01:56:43 | 00:00:00 | |
| DL1XH-west | 2026-08-31 05:28:19 | 53.17873 | 8.23378 | 307° | 15km/h | 31332m | 6.3m/s | -43.2°C | 0% | 9.8hPa | 2.6V | 18:12:15 | 01:56:39 | 00:00:00 | |
| DL1XH1-15 | 2026-08-31 05:28:19 | 53.17857 | 8.23402 | 328° | 16km/h | 31298m | 7.6m/s | -43.4°C | 2.8% | 9.8hPa | 2.6V | 08:30:00 | 01:56:34 | 00:00:00 | |
| EDDB2-12 | 2026-08-31 05:28:19 | 53.17871 | 8.23383 | 308° | 15km/h | 31326m | 7.5m/s | -43.3°C | 0.7% | 9.8hPa | 2.7V | 00:00:00 | 00:00:00 | 00:00:00 | |
| DF2AP-13 | 2026-08-31 05:28:18 | 53.17871 | 8.23383 | 309° | 18km/h | 31326m | 7.5m/s | -43.2°C | 2.6% | 9.7hPa | 2.7V | 00:00:00 | 01:56:38 | 00:00:00 | |
| DO2SHX-10 | 2026-08-31 05:28:17 | 53.17868 | 8.23388 | 315° | 18km/h | 31318m | 7.3m/s | -43.2°C | 2.7% | 9.7hPa | 2.7V | 00:00:00 | 01:56:37 | 00:00:00 | |
| DL1XH-15 | 2026-08-31 05:28:16 | 53.17847 | 8.23408 | 349° | 16km/h | 31278m | 6.2m/s | -43.3°C | 2.7% | 9.8hPa | 2.7V | 08:30:00 | 01:56:31 | 00:00:00 | |
| DF8AY | 2026-08-31 05:28:16 | 53.17865 | 8.23394 | 321° | 20km/h | 31311m | 6.1m/s | -43.3°C | 0% | 9.8hPa | 2.7V | 18:12:15 | 01:56:36 | 00:00:00 | |
| HSKMA3-T | 2026-08-31 05:28:14 | 53.17857 | 8.23402 | 329° | 16km/h | 31298m | 7.6m/s | -43.4°C | 0% | 9.8hPa | 2.6V | 18:12:15 | 01:56:34 | 00:00:00 | |
| DO2JMG | 2026-08-31 05:28:12 | 53.17851 | 8.23407 | 343° | 13km/h | 31284m | 6.3m/s | -43.4°C | 0% | 9.8hPa | 2.7V | 18:12:15 | 01:56:32 | 00:00:00 | |
| DB0DAN | 2026-08-31 05:28:10 | 53.17843 | 8.23410 | 350° | 20km/h | 31271m | 7.7m/s | -43.3°C | 0.7% | 9.87hPa | 2.6V | 00:00:00 | 00:00:00 | 00:00:00 | |
| DL1XH-west | 2026-08-31 05:28:09 | 53.17837 | 8.23412 | 345° | 27km/h | 31264m | 6.8m/s | -43.3°C | 0% | 9.9hPa | 2.6V | 18:12:15 | 01:56:29 | 00:00:00 | |
| DK9SH | 2026-08-31 05:28:09 | 53.17837 | 8.23412 | 346° | 27km/h | 31265m | 6.8m/s | -43.3°C | 0.7% | 9.9hPa | 2.7V | 00:00:00 | 00:00:00 | 00:00:00 | |
| DO2SHX-10 | 2026-08-31 05:28:08 | 53.17830 | 8.23416 | 338° | 26km/h | 31258m | 5.3m/s | -43.2°C | 2.7% | 9.8hPa | 2.7V | 00:00:00 | 01:56:28 | 00:00:00 | |
| DO3DL | 2026-08-31 05:28:07 | 53.17830 | 8.23416 | 339° | 29km/h | 31258m | 5.3m/s | -43.3°C | 0.7% | 9.9hPa | 2.7V | 00:00:00 | 00:00:00 | 00:00:00 | |
| DL1XH-15 | 2026-08-31 05:28:06 | 53.17810 | 8.23460 | 313° | 13km/h | 31210m | 6.2m/s | -43.3°C | 2.7% | 9.9hPa | 2.7V | 08:30:00 | 01:56:21 | 00:00:00 | |
| DM0DOS-11 | 2026-08-31 05:28:05 | 53.17815 | 8.23442 | 284° | 18km/h | 31231m | 6.4m/s | -43.4°C | 2.7% | 9.9hPa | 2.6V | 08:30:00 | 01:56:24 | 00:00:00 | |
| BIOWL1-15 | 2026-08-31 05:28:05 | 53.17816 | 8.23435 | 296° | 20km/h | 31238m | 7.5m/s | -43.4°C | 0% | 9.9hPa | 2.6V | 18:12:15 | 01:56:25 | 00:00:00 | |
| HSKMA3-T | 2026-08-31 05:28:03 | 53.17814 | 8.23449 | 286° | 16km/h | 31224m | 7.2m/s | -43.4°C | 0% | 9.9hPa | 2.7V | 18:12:15 | 01:56:23 | 00:00:00 | |
| DO2JMG | 2026-08-31 05:28:02 | 53.17812 | 8.23455 | 298° | 15km/h | 31217m | 7.1m/s | -43.3°C | 0% | 10hPa | 2.7V | 18:12:15 | 01:56:22 | 00:00:00 | |
| DL1XH-west | 2026-08-31 05:27:58 | 53.17804 | 8.23466 | 348° | 9km/h | 31190m | 6.4m/s | -43.3°C | 0% | 10hPa | 2.6V | 18:12:15 | 01:56:18 | 00:00:00 | |
| DL1XH-15 | 2026-08-31 05:27:56 | 53.17772 | 8.23495 | 292° | 20km/h | 31143m | 7.6m/s | -43.3°C | 2.7% | 10hPa | 2.7V | 08:30:00 | 01:56:11 | 00:00:00 | |
| DM0DOS-11 | 2026-08-31 05:27:55 | 53.17786 | 8.23474 | 334° | 27km/h | 31163m | 6.2m/s | -43.2°C | 2.7% | 10hPa | 2.6V | 08:30:00 | 01:56:14 | 00:00:00 | |
| DB0DAN | 2026-08-31 05:27:55 | 53.17792 | 8.23470 | 343° | 22km/h | 31170m | 7.6m/s | -43.2°C | 0.7% | 10.01hPa | 2.7V | 00:00:00 | 00:00:00 | 00:00:00 | |
| BIOWL1-15 | 2026-08-31 05:27:55 | 53.17792 | 8.23470 | 343° | 24km/h | 31170m | 7.6m/s | -43.2°C | 0% | 10hPa | 2.7V | 18:12:15 | 01:56:15 | 00:00:00 | |
| HSKMA3-T | 2026-08-31 05:27:53 | 53.17780 | 8.23480 | 325° | 27km/h | 31157m | 5.9m/s | -43.2°C | 0% | 10.1hPa | 2.6V | 18:12:15 | 01:56:13 | 00:00:00 | |
| DO2JMG | 2026-08-31 05:27:51 | 53.17772 | 8.23495 | 292° | 20km/h | 31143m | 7.6m/s | -43.3°C | 0% | 10.1hPa | 2.7V | 18:12:15 | 01:56:11 | 00:00:00 | |
| DL1XH-west | 2026-08-31 05:27:48 | 53.17773 | 8.23514 | 263° | 11km/h | 31124m | 6.9m/s | -43.2°C | 0% | 10.1hPa | 2.6V | 18:12:15 | 01:56:08 | 00:00:00 | |
| EDDB2-12 | 2026-08-31 05:27:48 | 53.17772 | 8.23517 | 301° | 5km/h | 31117m | 7.1m/s | -43.3°C | 0.7% | 10.1hPa | 2.6V | 00:00:00 | 00:00:00 | 00:00:00 | |
| DL3AQ-11 | 2026-08-31 05:27:47 | 53.17771 | 8.23519 | 349° | 7km/h | 31111m | 6.4m/s | -43.3°C | 0.7% | 10.1hPa | 2.6V | 00:00:00 | 00:00:00 | 00:00:00 | |
| DL1XH-15 | 2026-08-31 05:27:46 | 53.17758 | 8.23523 | 311° | 15km/h | 31079m | 5.4m/s | -43.5°C | 2.7% | 10.2hPa | 2.6V | 08:30:00 | 01:56:01 | 00:00:00 | |
| BIOWL9-15 | 2026-08-31 05:27:46 | 53.17768 | 8.23519 | 7° | 9km/h | 31104m | 6.4m/s | 0°C | -1.0% | -1.0hPa | 2.6V | 00:00:00 | 00:00:00 | 00:00:00 | |
| DF8AY | 2026-08-31 05:27:44 | 53.17766 | 8.23518 | 10° | 11km/h | 31097m | 7m/s | -43.3°C | 0% | 10.1hPa | 2.6V | 18:12:15 | 01:56:04 | 00:00:00 | |
| HSKMA3-T | 2026-08-31 05:27:42 | 53.17761 | 8.23519 | 330° | 11km/h | 31085m | 5.4m/s | -43.4°C | 0% | 10.1hPa | 2.7V | 18:12:15 | 01:56:02 | 00:00:00 | |
| AA1-15 | 2026-08-31 05:27:41 | 53.17758 | 8.23523 | 312° | 15km/h | 31079m | 5.4m/s | -43.5°C | 0% | 10.2hPa | 2.6V | 18:12:15 | 01:56:01 | 00:00:00 | |
| DB0DAN | 2026-08-31 05:27:40 | 53.17755 | 8.23528 | 309° | 20km/h | 31073m | 7.3m/s | -43.4°C | 0.7% | 10.16hPa | 2.6V | 00:00:00 | 00:00:00 | 00:00:00 | |
| DO2JMG | 2026-08-31 05:27:40 | 53.17755 | 8.23528 | 309° | 22km/h | 31073m | 7.3m/s | -43.4°C | 0% | 10.2hPa | 2.6V | 18:12:15 | 01:56:00 | 00:00:00 | |
| DL1XH-west | 2026-08-31 05:27:37 | 53.17742 | 8.23555 | 313° | 27km/h | 31054m | 4.2m/s | -43.4°C | 0% | 10.2hPa | 2.7V | 18:12:15 | 01:55:57 | 00:00:00 | |
| BIOWL1-15 | 2026-08-31 05:27:35 | 53.17737 | 8.23566 | 135° | 11km/h | 31027m | 6.1m/s | -43.5°C | 0% | 10.2hPa | 2.6V | 18:12:15 | 01:55:53 | 00:00:00 | |
| DF8AY | 2026-08-31 05:27:34 | 53.17736 | 8.23568 | 175° | 4km/h | 31034m | 7.6m/s | -43.5°C | 0% | 10.2hPa | 2.6V | 18:12:15 | 01:55:54 | 00:00:00 | |
| AA1-15 | 2026-08-31 05:27:31 | 53.17740 | 8.23558 | 94° | 9km/h | 31015m | 6.8m/s | -43.4°C | 0% | 10.2hPa | 2.7V | 18:12:15 | 01:55:51 | 00:00:00 | |
| DO2JMG | 2026-08-31 05:27:29 | 53.17737 | 8.23554 | 2° | 9km/h | 31002m | 5.4m/s | -43.5°C | 0% | 10.3hPa | 2.6V | 18:12:15 | 01:55:49 | 00:00:00 | |
| DL1XH-west | 2026-08-31 05:27:27 | 53.17732 | 8.23558 | 313° | 15km/h | 30989m | 7.5m/s | -43.6°C | 0% | 10.3hPa | 2.6V | 18:12:15 | 01:55:47 | 00:00:00 | |
| DD1CC8 | 2026-08-31 05:27:27 | 53.17730 | 8.23564 | 296° | 16km/h | 30982m | 6.8m/s | -43.5°C | 0.7% | 10.3hPa | 2.7V | 00:00:00 | 00:00:00 | 00:00:00 | |
| DL1XH-15 | 2026-08-31 05:27:26 | 53.17717 | 8.23606 | 298° | 18km/h | 30951m | 4.3m/s | -43.5°C | 2.8% | 10.4hPa | 2.7V | 08:30:00 | 01:55:41 | 00:00:00 | |
| DM0DOS-11 | 2026-08-31 05:27:25 | 53.17725 | 8.23580 | 293° | 24km/h | 30969m | 6.7m/s | -43.5°C | 2.8% | 10.3hPa | 2.6V | 08:30:00 | 01:55:44 | 00:00:00 | |
| DB0DAN | 2026-08-31 05:27:25 | 53.17728 | 8.23571 | 292° | 20km/h | 30976m | 6.3m/s | -43.5°C | 0.7% | 10.3hPa | 2.7V | 00:00:00 | 00:00:00 | 00:00:00 | |
| BIOWL1-15 | 2026-08-31 05:27:24 | 53.17720 | 8.23599 | 300° | 24km/h | 30956m | 5.3m/s | -43.5°C | 0% | 10.4hPa | 2.7V | 18:12:15 | 01:55:42 | 00:00:00 | |
| DF8AY | 2026-08-31 05:27:23 | 53.17723 | 8.23590 | 298° | 26km/h | 30962m | 7.1m/s | -43.5°C | 0% | 10.3hPa | 2.6V | 18:12:15 | 01:55:43 | 00:00:00 | |
| AA1-15 | 2026-08-31 05:27:21 | 53.17717 | 8.23607 | 299° | 18km/h | 30951m | 4.3m/s | -43.5°C | 0% | 10.4hPa | 2.7V | 18:12:15 | 01:55:41 | 00:00:00 | |
| HSKMA3-T | 2026-08-31 05:27:20 | 53.17715 | 8.23612 | 288° | 11km/h | 30946m | 6.1m/s | -43.5°C | 0% | 10.4hPa | 2.6V | 18:12:15 | 01:55:40 | 00:00:00 | |
| DO2JMG | 2026-08-31 05:27:19 | 53.17716 | 8.23615 | 225° | 5km/h | 30939m | 8.2m/s | -43.5°C | 0% | 10.4hPa | 2.6V | 18:12:15 | 01:55:39 | 00:00:00 | |
| DL1XH-west | 2026-08-31 05:27:16 | 53.17721 | 8.23607 | 115° | 11km/h | 30919m | 5.4m/s | -43.6°C | 0% | 10.4hPa | 2.7V | 18:12:15 | 01:55:36 | 00:00:00 | |
| DL1XH-15 | 2026-08-31 05:27:16 | 53.17705 | 8.23608 | 326° | 24km/h | 30887m | 7.3m/s | -43.4°C | 2.7% | 10.5hPa | 2.7V | 08:30:00 | 01:55:31 | 00:00:00 | |
| DM0DOS-11 | 2026-08-31 05:27:15 | 53.17720 | 8.23601 | 14° | 13km/h | 30907m | 6.4m/s | -43.5°C | 2.7% | 10.4hPa | 2.6V | 08:30:00 | 01:55:34 | 00:00:00 | |
| DF8AY | 2026-08-31 05:27:13 | 53.17716 | 8.23601 | 351° | 20km/h | 30901m | 6.1m/s | -43.4°C | 0% | 10.5hPa | 2.6V | 18:12:15 | 01:55:33 | 00:00:00 | |
| BIOWL1-15 | 2026-08-31 05:27:11 | 53.17705 | 8.23608 | 327° | 24km/h | 30888m | 7.4m/s | -43.4°C | 0% | 10.5hPa | 2.7V | 18:12:15 | 01:55:31 | 00:00:00 | |
| DB0DAN | 2026-08-31 05:27:10 | 53.17701 | 8.23615 | 313° | 24km/h | 30880m | 6.9m/s | -43.4°C | 0.7% | 10.5hPa | 2.7V | 00:00:00 | 00:00:00 | 00:00:00 | |
| AA1-15 | 2026-08-31 05:27:10 | 53.17701 | 8.23615 | 313° | 24km/h | 30880m | 6.9m/s | -43.4°C | 0% | 10.5hPa | 2.7V | 18:12:15 | 01:55:30 | 00:00:00 | |
| DO2JMG | 2026-08-31 05:27:08 | 53.17693 | 8.23631 | 304° | 24km/h | 30867m | 5.8m/s | -43.4°C | 0% | 10.5hPa | 2.6V | 18:12:15 | 01:55:28 | 00:00:00 | |
| DO2SHX-10 | 2026-08-31 05:27:08 | 53.17693 | 8.23631 | 304° | 24km/h | 30868m | 5.8m/s | -43.3°C | 2.7% | 10.5hPa | 2.7V | 00:00:00 | 01:55:28 | 00:00:00 | |
| DL3AQ-11 | 2026-08-31 05:27:07 | 53.17686 | 8.23646 | 321° | 20km/h | 30854m | 6.3m/s | -43.4°C | 0.7% | 10.5hPa | 2.7V | 00:00:00 | 00:00:00 | 00:00:00 | |
| DL1XH-15 | 2026-08-31 05:27:06 | 53.17673 | 8.23638 | 72° | 13km/h | 30821m | 5.1m/s | -43.5°C | 2.6% | 10.6hPa | 2.7V | 08:30:00 | 01:55:21 | 00:00:00 | |
| DM0DOS-11 | 2026-08-31 05:27:05 | 53.17678 | 8.23650 | 9° | 13km/h | 30842m | 6m/s | -43.4°C | 2.7% | 10.6hPa | 2.7V | 08:30:00 | 01:55:24 | 00:00:00 | |
| DL1XH-west | 2026-08-31 05:27:05 | 53.17682 | 8.23650 | 341° | 16km/h | 30848m | 5.4m/s | -43.3°C | 0% | 10.5hPa | 2.7V | 18:12:15 | 01:55:25 | 00:00:00 | |
| DF8AY | 2026-08-31 05:27:03 | 53.17676 | 8.23648 | 46° | 11km/h | 30835m | 8m/s | -43.4°C | 0% | 10.6hPa | 2.6V | 18:12:15 | 01:55:23 | 00:00:00 | |
| BIOWL1-15 | 2026-08-31 05:27:01 | 53.17673 | 8.23638 | 72° | 13km/h | 30821m | 5.1m/s | -43.5°C | 0% | 10.6hPa | 2.7V | 18:12:15 | 01:55:21 | 00:00:00 | |
| AA1-15 | 2026-08-31 05:27:00 | 53.17672 | 8.23634 | 38° | 11km/h | 30816m | 4.9m/s | -43.5°C | 0% | 10.6hPa | 2.7V | 18:12:15 | 01:55:20 | 00:00:00 | |
| DO2JMG | 2026-08-31 05:26:58 | 53.17664 | 8.23636 | 330° | 24km/h | 30803m | 7.3m/s | -43.5°C | 0% | 10.6hPa | 2.6V | 18:12:15 | 01:55:18 | 00:00:00 | |
| DL4BBY-15 | 2026-08-31 05:26:58 | 53.17664 | 8.23636 | 331° | 18km/h | 30803m | 7.3m/s | -42.6°C | 0% | 0hPa | 2.6V | 00:00:00 | 00:00:00 | 00:00:00 | |
| SP3BTT-10 | 2026-08-31 05:26:57 | 53.17659 | 8.23643 | 318° | 16km/h | 30797m | 5.9m/s | -43.5°C | 2.7% | 10.6hPa | 2.6V | 00:00:00 | 00:00:00 | 08:30:00 | |
| DL1XH-15 | 2026-08-31 05:26:56 | 53.17635 | 8.23699 | 325° | 13km/h | 30759m | 7.1m/s | -43.5°C | 2.7% | 10.7hPa | 2.6V | 08:30:00 | 01:55:11 | 00:00:00 | |
| DL3AQ-11 | 2026-08-31 05:26:56 | 53.17647 | 8.23666 | 303° | 35km/h | 30784m | 7.2m/s | -43.6°C | 0.7% | 10.6hPa | 2.7V | 00:00:00 | 00:00:00 | 00:00:00 | |
| DB0DAN | 2026-08-31 05:26:55 | 53.17647 | 8.23666 | 303° | 33km/h | 30784m | 7.2m/s | -43.6°C | 0.7% | 10.64hPa | 2.7V | 00:00:00 | 00:00:00 | 00:00:00 | |
| DL1XH-west | 2026-08-31 05:26:54 | 53.17643 | 8.23677 | 298° | 29km/h | 30777m | 6.2m/s | -43.5°C | 0% | 10.6hPa | 2.7V | 18:12:15 | 01:55:14 | 00:00:00 | |
| DF8AY | 2026-08-31 05:26:52 | 53.17638 | 8.23694 | 304° | 16km/h | 30766m | 5.7m/s | -43.5°C | 0% | 10.7hPa | 2.6V | 18:12:15 | 01:55:12 | 00:00:00 | |
| HSKMA3-T | 2026-08-31 05:26:50 | 53.17632 | 8.23701 | 349° | 15km/h | 30752m | 7.5m/s | -43.6°C | 0% | 10.7hPa | 2.7V | 18:12:15 | 01:55:10 | 00:00:00 | |
| DO2JMG | 2026-08-31 05:26:48 | 53.17622 | 8.23702 | 2° | 20km/h | 30739m | 5.4m/s | -43.7°C | 0% | 10.7hPa | 2.7V | 18:12:15 | 01:55:08 | 00:00:00 | |
| DJ2DS-15 | 2026-08-31 05:26:48 | 53.17622 | 8.23702 | 3° | 16km/h | 30739m | 5.4m/s | -43.6°C | 2.7% | 10.7hPa | 2.6V | 00:00:00 | 01:55:08 | 00:00:00 | |
| DO2SHX-10 | 2026-08-31 05:26:47 | 53.17618 | 8.23701 | 359° | 13km/h | 30734m | 4.9m/s | -43.7°C | 2.7% | 10.7hPa | 2.6V | 00:00:00 | 01:55:07 | 00:00:00 | |
| DL1XH-15 | 2026-08-31 05:26:46 | 53.17607 | 8.23728 | 301° | 24km/h | 30694m | 7.3m/s | -43.9°C | 2.8% | 10.8hPa | 2.6V | 08:30:00 | 01:55:01 | 00:00:00 | |
| EDDB2-12 | 2026-08-31 05:26:45 | 53.17612 | 8.23704 | 314° | 7km/h | 30721m | 7.3m/s | -43.8°C | 0.7% | 10.8hPa | 2.7V | 00:00:00 | 00:00:00 | 00:00:00 | |
| DL1XH-west | 2026-08-31 05:26:43 | 53.17610 | 8.23713 | 280° | 15km/h | 30708m | 5.5m/s | -43.8°C | 0% | 10.8hPa | 2.7V | 18:12:15 | 01:55:03 | 00:00:00 | |
| BIOWL1-15 | 2026-08-31 05:26:42 | 53.17603 | 8.23736 | 307° | 26km/h | 30688m | 6.5m/s | -43.9°C | 0% | 10.8hPa | 2.7V | 18:12:15 | 01:55:00 | 00:00:00 | |
| DF8AY | 2026-08-31 05:26:41 | 53.17607 | 8.23728 | 302° | 24km/h | 30695m | 7.3m/s | -43.9°C | 0% | 10.8hPa | 2.6V | 18:12:15 | 01:55:01 | 00:00:00 | |
| DB0DAN | 2026-08-31 05:26:40 | 53.17603 | 8.23736 | 307° | 26km/h | 30688m | 6.5m/s | -43.9°C | 0.7% | 10.79hPa | 2.7V | 00:00:00 | 00:00:00 | 00:00:00 | |
| HSKMA3-T | 2026-08-31 05:26:39 | 53.17599 | 8.23745 | 307° | 27km/h | 30681m | 6.3m/s | -43.9°C | 0% | 10.8hPa | 2.7V | 18:12:15 | 01:54:59 | 00:00:00 | |
| DF5WG-10 | 2026-08-31 05:26:39 | 53.17599 | 8.23745 | 308° | 20km/h | 30681m | 6.3m/s | -43.9°C | 2.8% | 10.8hPa | 2.7V | 00:00:00 | 01:54:59 | 00:00:00 | |
| DO2SHX-10 | 2026-08-31 05:26:38 | 53.17595 | 8.23754 | 305° | 20km/h | 30674m | 7.4m/s | -43.8°C | 2.8% | 10.8hPa | 2.6V | 00:00:00 | 01:54:58 | 00:00:00 | |
| DO2JMG | 2026-08-31 05:26:38 | 53.17595 | 8.23754 | 304° | 24km/h | 30674m | 7.5m/s | -43.9°C | 0% | 10.8hPa | 2.6V | 18:12:15 | 01:54:58 | 00:00:00 | |
| DL1XH-15 | 2026-08-31 05:26:36 | 53.17575 | 8.23777 | 0° | 7km/h | 30629m | 6.9m/s | -43.9°C | 2.7% | 10.9hPa | 2.6V | 08:30:00 | 01:54:51 | 00:00:00 | |
| DL1XH-west | 2026-08-31 05:26:32 | 53.17578 | 8.23777 | 6° | 11km/h | 30635m | 5.5m/s | -43.9°C | 0% | 10.9hPa | 2.6V | 18:12:15 | 01:54:52 | 00:00:00 | |
| BIOWL1-15 | 2026-08-31 05:26:30 | 53.17574 | 8.23778 | 293° | 4km/h | 30622m | 7.3m/s | -44°C | 0% | 10.9hPa | 2.6V | 18:12:15 | 01:54:50 | 00:00:00 | |
| HSKMA3-T | 2026-08-31 05:26:29 | 53.17574 | 8.23781 | 261° | 9km/h | 30615m | 6m/s | -43.9°C | 0% | 10.9hPa | 2.7V | 18:12:15 | 01:54:49 | 00:00:00 | |
| DO2JMG | 2026-08-31 05:26:28 | 53.17574 | 8.23786 | 272° | 15km/h | 30609m | 5.7m/s | -43.9°C | 0% | 10.9hPa | 2.7V | 18:12:15 | 01:54:48 | 00:00:00 | |
| DJ2DS-15 | 2026-08-31 05:26:28 | 53.17574 | 8.23786 | 272° | 15km/h | 30610m | 5.6m/s | -43.9°C | 2.7% | 10.9hPa | 2.6V | 00:00:00 | 01:54:48 | 00:00:00 | |
| DL3AQ-11 | 2026-08-31 05:26:27 | 53.17572 | 8.23800 | 299° | 22km/h | 30595m | 7.2m/s | -44.1°C | 0.7% | 11.0hPa | 2.6V | 00:00:00 | 00:00:00 | 00:00:00 | |
| DL1XH-15 | 2026-08-31 05:26:26 | 53.17557 | 8.23829 | 358° | 11km/h | 30563m | 6.4m/s | -44.3°C | 2.8% | 11hPa | 2.6V | 08:30:00 | 01:54:41 | 00:00:00 | |
| DB0DAN | 2026-08-31 05:26:25 | 53.17569 | 8.23808 | 305° | 24km/h | 30589m | 5.8m/s | -44.2°C | 0.7% | 10.97hPa | 2.6V | 00:00:00 | 00:00:00 | 00:00:00 | |
| DL1XH-west | 2026-08-31 05:26:22 | 53.17559 | 8.23828 | 324° | 13km/h | 30569m | 6.2m/s | -44.2°C | 0% | 11hPa | 2.7V | 18:12:15 | 01:54:42 | 00:00:00 | |
| DF8AY | 2026-08-31 05:26:20 | 53.17554 | 8.23828 | 22° | 13km/h | 30556m | 7.6m/s | -44.3°C | 0% | 11hPa | 2.6V | 18:12:15 | 01:54:40 | 00:00:00 | |
| BIOWL1-15 | 2026-08-31 05:26:19 | 53.17551 | 8.23825 | 35° | 16km/h | 30548m | 7.1m/s | -44.4°C | 0% | 11hPa | 2.7V | 18:12:15 | 01:54:39 | 00:00:00 | |
| HSKMA3-T | 2026-08-31 05:26:18 | 53.17547 | 8.23821 | 46° | 16km/h | 30542m | 5.3m/s | -44.4°C | 0% | 11.1hPa | 2.7V | 18:12:15 | 01:54:38 | 00:00:00 | |
| DO2JMG | 2026-08-31 05:26:17 | 53.17545 | 8.23816 | 60° | 13km/h | 30537m | 5.5m/s | -44.4°C | 0% | 11hPa | 2.6V | 18:12:15 | 01:54:37 | 00:00:00 | |
| DL1XH-west | 2026-08-31 05:26:12 | 53.17547 | 8.23818 | 281° | 13km/h | 30506m | 6.7m/s | -44.6°C | 0% | 11.1hPa | 2.7V | 18:12:15 | 01:54:32 | 00:00:00 | |
| DB0DAN | 2026-08-31 05:26:10 | 53.17542 | 8.23828 | 329° | 18km/h | 30492m | 6.2m/s | -44.7°C | 0.7% | 11.15hPa | 2.6V | 00:00:00 | 00:00:00 | 00:00:00 | |
| BIOWL1-15 | 2026-08-31 05:26:09 | 53.17538 | 8.23831 | 345° | 18km/h | 30486m | 5.6m/s | -44.8°C | 0% | 11.2hPa | 2.6V | 18:12:15 | 01:54:29 | 00:00:00 | |
| HSKMA3-T | 2026-08-31 05:26:08 | 53.17534 | 8.23832 | 356° | 15km/h | 30480m | 6.5m/s | -44.8°C | 0% | 11.2hPa | 2.7V | 18:12:15 | 01:54:28 | 00:00:00 | |
| DO2JMG | 2026-08-31 05:26:07 | 53.17531 | 8.23832 | 10° | 9km/h | 30474m | 6.3m/s | -44.8°C | 0% | 11.2hPa | 2.7V | 18:12:15 | 01:54:27 | 00:00:00 | |
| DM0DOS-11 | 2026-08-31 05:26:04 | 53.17529 | 8.23833 | 261° | 5km/h | 30456m | 6.3m/s | -44.9°C | 2.9% | 11.2hPa | 2.6V | 08:30:00 | 01:54:24 | 00:00:00 | |
| DL1XH-west | 2026-08-31 05:26:01 | 53.17527 | 8.23842 | 312° | 9km/h | 30436m | 6m/s | -44.9°C | 0.1% | 11.2hPa | 2.7V | 18:12:15 | 01:54:21 | 00:00:00 | |
| DF8AY | 2026-08-31 05:26:00 | 53.17524 | 8.23848 | 315° | 7km/h | 30424m | 6.4m/s | -45°C | 0.1% | 11.3hPa | 2.6V | 18:12:15 | 01:54:19 | 00:00:00 | |
| BIOWL1-15 | 2026-08-31 05:25:58 | 53.17523 | 8.23849 | 292° | 5km/h | 30418m | 7m/s | -45°C | 0.1% | 11.3hPa | 2.7V | 18:12:15 | 01:54:18 | 00:00:00 | |
| DO2JMG | 2026-08-31 05:25:56 | 53.17522 | 8.23854 | 290° | 9km/h | 30405m | 5.2m/s | -45°C | 0.1% | 11.3hPa | 2.6V | 18:12:15 | 01:54:16 | 00:00:00 | |
| DB0DAN | 2026-08-31 05:25:55 | 53.17521 | 8.23859 | 300° | 13km/h | 30399m | 7.6m/s | -45°C | 0.8% | 11.33hPa | 2.6V | 00:00:00 | 00:00:00 | 00:00:00 | |
| DM0DOS-11 | 2026-08-31 05:25:55 | 53.17519 | 8.23864 | 306° | 18km/h | 30392m | 7.3m/s | -45°C | 3% | 11.3hPa | 2.6V | 08:30:00 | 01:54:14 | 00:00:00 | |
| DL1XH-west | 2026-08-31 05:25:51 | 53.17511 | 8.23880 | 307° | 9km/h | 30373m | 7.6m/s | -44.9°C | 0.1% | 11.3hPa | 2.7V | 18:12:15 | 01:54:11 | 00:00:00 | |
| DO2SHX-10 | 2026-08-31 05:25:50 | 53.17510 | 8.23882 | 318° | 4km/h | 30366m | 6.8m/s | -44.8°C | 2.9% | 11.3hPa | 2.6V | 00:00:00 | 01:54:10 | 00:00:00 | |
| DL1XH1-15 | 2026-08-31 05:25:49 | 53.17500 | 8.23880 | 330° | 9km/h | 30328m | 6.9m/s | -44.7°C | 2.9% | 11.4hPa | 2.6V | 08:30:00 | 01:54:04 | 00:00:00 | |
| HSKMA3-T | 2026-08-31 05:25:48 | 53.17509 | 8.23881 | 38° | 5km/h | 30352m | 7.7m/s | -44.8°C | 0% | 11.4hPa | 2.6V | 18:12:15 | 01:54:08 | 00:00:00 | |
| BIOWL1-15 | 2026-08-31 05:25:47 | 53.17507 | 8.23880 | 24° | 9km/h | 30345m | 6.9m/s | -44.7°C | 0% | 11.4hPa | 2.7V | 18:12:15 | 01:54:07 | 00:00:00 | |
| DO2JMG | 2026-08-31 05:25:46 | 53.17505 | 8.23879 | 9° | 11km/h | 30339m | 5.1m/s | -44.7°C | 0% | 11.4hPa | 2.7V | 18:12:15 | 01:54:06 | 00:00:00 | |
| DC4HF-4 | 2026-08-31 05:25:45 | 53.17502 | 8.23879 | 354° | 9km/h | 30334m | 5.0m/s | -44.7°C | 0.8% | 11.4hPa | 2.7V | 00:00:00 | 00:00:00 | 00:00:00 | |
| DL1XH-west | 2026-08-31 05:25:41 | 53.17499 | 8.23892 | 272° | 16km/h | 30307m | 5.9m/s | -44.8°C | 0.1% | 11.5hPa | 2.7V | 18:12:15 | 01:54:01 | 00:00:00 | |
| DB0DAN | 2026-08-31 05:25:40 | 53.17498 | 8.23900 | 282° | 20km/h | 30301m | 6.7m/s | -44.8°C | 0.8% | 11.46hPa | 2.7V | 00:00:00 | 00:00:00 | 00:00:00 | |
| GOEST3-10 | 2026-08-31 05:25:40 | 53.17498 | 8.23900 | 283° | 26km/h | 30301m | 6.7m/s | -44.8°C | 3.0% | 11.4hPa | 2.7V | 00:00:00 | 00:00:00 | 08:30:00 | |
| DL1XH1-15 | 2026-08-31 05:25:39 | 53.17483 | 8.23950 | 269° | 11km/h | 30261m | 7m/s | -44.6°C | 3% | 11.6hPa | 2.6V | 08:30:00 | 01:53:54 | 00:00:00 | |
| AA1-15 | 2026-08-31 05:25:38 | 53.17493 | 8.23919 | 302° | 27km/h | 30286m | 6.1m/s | -44.8°C | 0.1% | 11.5hPa | 2.6V | 18:12:15 | 01:53:58 | 00:00:00 | |
| HSKMA3-T | 2026-08-31 05:25:37 | 53.17489 | 8.23929 | 306° | 27km/h | 30281m | 4.9m/s | -44.8°C | 0.1% | 11.5hPa | 2.7V | 18:12:15 | 01:53:57 | 00:00:00 | |
| SONDE2-11 | 2026-08-31 05:25:37 | 53.17489 | 8.23929 | 305° | 26km/h | 30281m | 4.9m/s | -44.8°C | 0.8% | 11.5hPa | 2.7V | 00:00:00 | 00:00:00 | 00:00:00 | |
| DL1XH-15 | 2026-08-31 05:25:36 | 53.17484 | 8.23959 | 277° | 7km/h | 30240m | 7.2m/s | -44.4°C | 2.9% | 11.6hPa | 2.7V | 08:30:00 | 01:53:51 | 00:00:00 | |
| BIOWL1-15 | 2026-08-31 05:25:36 | 53.17486 | 8.23938 | 301° | 22km/h | 30275m | 6.7m/s | -44.7°C | 0.1% | 11.5hPa | 2.7V | 18:12:15 | 01:53:56 | 00:00:00 | |
| DO2JMG | 2026-08-31 05:25:35 | 53.17484 | 8.23945 | 292° | 16km/h | 30268m | 7.5m/s | -44.7°C | 0.1% | 11.6hPa | 2.6V | 18:12:15 | 01:53:55 | 00:00:00 | |
| DL1XH-west | 2026-08-31 05:25:30 | 53.17484 | 8.23963 | 286° | 11km/h | 30234m | 6.2m/s | -44.4°C | 0.1% | 11.6hPa | 2.7V | 18:12:15 | 01:53:50 | 00:00:00 | |
| DD8BA-10 | 2026-08-31 05:25:30 | 53.17484 | 8.23962 | 286° | 20km/h | 30234m | 6.1m/s | -44.3°C | 2.9% | 11.5hPa | 2.6V | 00:00:00 | 00:00:00 | 00:00:00 | |
| DL1XH1-15 | 2026-08-31 05:25:29 | 53.17487 | 8.24012 | 275° | 24km/h | 30194m | 7.4m/s | -44.1°C | 2.9% | 11.7hPa | 2.6V | 08:30:00 | 01:53:44 | 00:00:00 | |
| DF8AY | 2026-08-31 05:25:27 | 53.17484 | 8.23982 | 257° | 22km/h | 30213m | 7.5m/s | -44.3°C | 0.1% | 11.7hPa | 2.6V | 18:12:15 | 01:53:47 | 00:00:00 | |
| HSKMA3-T | 2026-08-31 05:25:26 | 53.17485 | 8.23992 | 257° | 24km/h | 30207m | 5.7m/s | -44.2°C | 0% | 11.7hPa | 2.7V | 18:12:15 | 01:53:46 | 00:00:00 | |
| DB0DAN | 2026-08-31 05:25:25 | 53.17486 | 8.24002 | 264° | 24km/h | 30201m | 5.7m/s | -44.2°C | 0.8% | 11.67hPa | 2.7V | 00:00:00 | 00:00:00 | 00:00:00 | |
| DO2JMG | 2026-08-31 05:25:25 | 53.17486 | 8.24002 | 264° | 24km/h | 30201m | 5.7m/s | -44.2°C | 0% | 11.7hPa | 2.7V | 18:12:15 | 01:53:45 | 00:00:00 | |
| DL1XH-west | 2026-08-31 05:25:20 | 53.17480 | 8.24040 | 285° | 9km/h | 30169m | 7.9m/s | -43.9°C | 0% | 11.7hPa | 2.6V | 18:12:15 | 01:53:40 | 00:00:00 | |
| DF8AY | 2026-08-31 05:25:17 | 53.17483 | 8.24047 | 220° | 7km/h | 30150m | 5.8m/s | -43.8°C | 0% | 11.8hPa | 2.7V | 18:12:15 | 01:53:37 | 00:00:00 | |
| HSKMA3-T | 2026-08-31 05:25:15 | 53.17484 | 8.24053 | 286° | 11km/h | 30136m | 6.8m/s | -43.7°C | 0% | 11.8hPa | 2.7V | 18:12:15 | 01:53:35 | 00:00:00 | |
| DM0DOS-11 | 2026-08-31 05:25:15 | 53.17483 | 8.24058 | 285° | 15km/h | 30130m | 5.5m/s | -43.6°C | 2.8% | 11.8hPa | 2.6V | 08:30:00 | 01:53:34 | 00:00:00 | |
| DO2JMG | 2026-08-31 05:25:14 | 53.17483 | 8.24058 | 286° | 15km/h | 30130m | 5.5m/s | -43.6°C | 0% | 11.8hPa | 2.6V | 18:12:15 | 01:53:34 | 00:00:00 | |
| DO2SHX-10 | 2026-08-31 05:25:14 | 53.17483 | 8.24058 | 286° | 18km/h | 30130m | 5.4m/s | -43.5°C | 2.8% | 11.8hPa | 2.6V | 00:00:00 | 01:53:34 | 08:30:00 | |
| DK5PH-5 | 2026-08-31 05:25:13 | 53.17482 | 8.24065 | 280° | 13km/h | 30125m | 5.4m/s | -43.5°C | 2.8% | 11.8hPa | 2.7V | 00:00:00 | 01:53:33 | 00:00:00 | |
| DL3OBA | 2026-08-31 05:25:12 | 53.17482 | 8.24065 | 280° | 20km/h | 30125m | 5.4m/s | -43.6°C | 0.7% | 11.8hPa | 2.7V | 00:00:00 | 00:00:00 | 00:00:00 | |
| DB0DAN | 2026-08-31 05:25:10 | 53.17484 | 8.24093 | 251° | 22km/h | 30104m | 5.9m/s | -43.4°C | 0.7% | 11.86hPa | 2.7V | 00:00:00 | 00:00:00 | 00:00:00 | |
| DL1XH-west | 2026-08-31 05:25:10 | 53.17484 | 8.24093 | 251° | 24km/h | 30104m | 5.9m/s | -43.4°C | 0% | 11.9hPa | 2.7V | 18:12:15 | 01:53:30 | 00:00:00 | |
| DF8AY | 2026-08-31 05:25:07 | 53.17485 | 8.24112 | 15° | 4km/h | 30078m | 6.4m/s | -43.4°C | 0% | 11.9hPa | 2.6V | 18:12:15 | 01:53:26 | 00:00:00 | |
| AA1-15 | 2026-08-31 05:25:07 | 53.17486 | 8.24111 | 299° | 5km/h | 30084m | 7.1m/s | -43.3°C | 0% | 11.9hPa | 2.6V | 18:12:15 | 01:53:27 | 00:00:00 | |
| DL1XH-15 | 2026-08-31 05:25:06 | 53.17487 | 8.24109 | 257° | 5km/h | 30045m | 6.8m/s | -43.4°C | 2.7% | 11.9hPa | 2.6V | 08:30:00 | 01:53:21 | 00:00:00 | |
| BIOWL1-15 | 2026-08-31 05:25:04 | 53.17485 | 8.24109 | 116° | 5km/h | 30063m | 7.2m/s | -43.4°C | 0% | 11.9hPa | 2.7V | 18:12:15 | 01:53:24 | 00:00:00 | |
| DO2JMG | 2026-08-31 05:25:03 | 53.17486 | 8.24107 | 157° | 5km/h | 30057m | 5.8m/s | -43.4°C | 0% | 11.9hPa | 2.6V | 18:12:15 | 01:53:23 | 00:00:00 | |
| DL1XH-west | 2026-08-31 05:25:00 | 53.17487 | 8.24112 | 286° | 9km/h | 30037m | 7.8m/s | -43.4°C | 0% | 12hPa | 2.7V | 18:12:15 | 01:53:20 | 00:00:00 | |
| AA1-15 | 2026-08-31 05:24:57 | 53.17484 | 8.24132 | 270° | 20km/h | 30019m | 6.8m/s | -43.3°C | 0% | 12hPa | 2.6V | 18:12:15 | 01:53:17 | 00:00:00 | |
| DF8AY | 2026-08-31 05:24:56 | 53.17485 | 8.24140 | 251° | 18km/h | 30012m | 6.8m/s | -43.3°C | 0% | 12hPa | 2.6V | 18:12:15 | 01:53:16 | 00:00:00 | |
| DB0DAN | 2026-08-31 05:24:55 | 53.17487 | 8.24146 | 222° | 16km/h | 30006m | 5.8m/s | -43.3°C | 0.7% | 12.04hPa | 2.6V | 00:00:00 | 00:00:00 | 00:00:00 | |
| DO2JMG | 2026-08-31 05:24:53 | 53.17494 | 8.24150 | 174° | 13km/h | 29995m | 5.7m/s | -43.3°C | 0% | 12.1hPa | 2.7V | 18:12:15 | 01:53:13 | 00:00:00 | |
| DD1CC8 | 2026-08-31 05:24:52 | 53.17499 | 8.24146 | 114° | 5km/h | 29981m | 6.6m/s | -43.3°C | 0.7% | 12.1hPa | 2.7V | 00:00:00 | 00:00:00 | 00:00:00 | |
| DO2LYB-13 | 2026-08-31 05:24:51 | 53.17497 | 8.24148 | 151° | 9km/h | 29989m | 7.2m/s | -43.3°C | 0.7% | 12.1hPa | 2.7V | 00:00:00 | 00:00:00 | 00:00:00 | |
| DD8BA-10 | 2026-08-31 05:24:50 | 53.17499 | 8.24144 | 96° | 15km/h | 29976m | 5.0m/s | -43.2°C | 2.7% | 12.0hPa | 2.7V | 00:00:00 | 00:00:00 | 00:00:00 | |
| DL1XH1-15 | 2026-08-31 05:24:49 | 53.17512 | 8.24164 | 233° | 20km/h | 29935m | 6.8m/s | -43.4°C | 2.7% | 12.1hPa | 2.7V | 08:30:00 | 01:53:04 | 00:00:00 | |
| DL1XH-west | 2026-08-31 05:24:49 | 53.17499 | 8.24143 | 164° | 2km/h | 29970m | 5.6m/s | -43.3°C | 0% | 12.1hPa | 2.6V | 18:12:15 | 01:53:09 | 00:00:00 | |
| AA1-15 | 2026-08-31 05:24:47 | 53.17502 | 8.24146 | 221° | 15km/h | 29956m | 6.9m/s | -43.4°C | 0% | 12.1hPa | 2.7V | 18:12:15 | 01:53:07 | 00:00:00 | |
| DF8AY | 2026-08-31 05:24:45 | 53.17509 | 8.24157 | 230° | 20km/h | 29942m | 7.3m/s | -43.4°C | 0% | 12.1hPa | 2.6V | 18:12:15 | 01:53:05 | 00:00:00 | |
| DO2JMG | 2026-08-31 05:24:43 | 53.17515 | 8.24170 | 229° | 18km/h | 29929m | 5.3m/s | -43.4°C | 0% | 12.2hPa | 2.7V | 18:12:15 | 01:53:03 | 00:00:00 | |
| HSKMA3-T | 2026-08-31 05:24:42 | 53.17518 | 8.24175 | 216° | 18km/h | 29924m | 5.2m/s | -43.4°C | 0% | 12.2hPa | 2.6V | 18:12:15 | 01:53:02 | 00:00:00 | |
| DB0DAN | 2026-08-31 05:24:40 | 53.17527 | 8.24181 | 190° | 20km/h | 29910m | 6.7m/s | -43.5°C | 0.7% | 12.19hPa | 2.6V | 00:00:00 | 00:00:00 | 00:00:00 | |
| DL1XH-west | 2026-08-31 05:24:39 | 53.17532 | 8.24182 | 177° | 20km/h | 29904m | 5.6m/s | -43.6°C | 0% | 12.2hPa | 2.7V | 18:12:15 | 01:52:59 | 00:00:00 | |
| AA1-15 | 2026-08-31 05:24:36 | 53.17541 | 8.24174 | 113° | 11km/h | 29884m | 6.5m/s | -43.7°C | 0% | 12.3hPa | 2.6V | 18:12:15 | 01:52:56 | 00:00:00 | |
| DM0DOS-11 | 2026-08-31 05:24:35 | 53.17543 | 8.24168 | 141° | 7km/h | 29873m | 5.9m/s | -43.9°C | 2.6% | 12.3hPa | 2.6V | 08:30:00 | 01:52:54 | 00:00:00 | |
| DF8AY | 2026-08-31 05:24:34 | 53.17543 | 8.24168 | 141° | 7km/h | 29873m | 5.9m/s | -43.9°C | 0% | 12.3hPa | 2.6V | 18:12:15 | 01:52:54 | 00:00:00 | |
| DO2JMG | 2026-08-31 05:24:33 | 53.17545 | 8.24167 | 177° | 9km/h | 29866m | 7.4m/s | -43.9°C | 0% | 12.3hPa | 2.7V | 18:12:15 | 01:52:53 | 00:00:00 | |
| HSKMA3-T | 2026-08-31 05:24:32 | 53.17548 | 8.24168 | 194° | 16km/h | 29859m | 6.3m/s | -44°C | 0% | 12.3hPa | 2.7V | 18:12:15 | 01:52:52 | 00:00:00 | |
| DO2SHX-10 | 2026-08-31 05:24:32 | 53.17548 | 8.24168 | 195° | 20km/h | 29860m | 6.3m/s | -43.9°C | 2.7% | 12.3hPa | 2.7V | 00:00:00 | 01:52:52 | 00:00:00 | |
| DL3OBA | 2026-08-31 05:24:31 | 53.17548 | 8.24168 | 195° | 16km/h | 29860m | 6.3m/s | -44.0°C | 0.7% | 12.3hPa | 2.7V | 00:00:00 | 00:00:00 | 00:00:00 | |
| DD8BA-10 | 2026-08-31 05:24:30 | 53.17558 | 8.24173 | 206° | 15km/h | 29848m | 6.1m/s | -44.2°C | 2.7% | 12.3hPa | 2.7V | 00:00:00 | 00:00:00 | 00:00:00 | |
| DL1XH1-15 | 2026-08-31 05:24:29 | 53.17573 | 8.24194 | 192° | 13km/h | 29809m | 6.1m/s | -44.8°C | 2.8% | 12.4hPa | 2.7V | 08:30:00 | 01:52:44 | 00:00:00 | |
| DL1XH-west | 2026-08-31 05:24:28 | 53.17565 | 8.24181 | 226° | 13km/h | 29834m | 6.6m/s | -44.4°C | 0% | 12.3hPa | 2.7V | 18:12:15 | 01:52:48 | 00:00:00 | |
| AA1-15 | 2026-08-31 05:24:26 | 53.17568 | 8.24189 | 230° | 11km/h | 29823m | 5.7m/s | -44.6°C | 0% | 12.4hPa | 2.6V | 18:12:15 | 01:52:46 | 00:00:00 | |
| DB0DAN | 2026-08-31 05:24:25 | 53.17570 | 8.24192 | 216° | 11km/h | 29816m | 7.4m/s | -44.7°C | 0.7% | 12.37hPa | 2.6V | 00:00:00 | 00:00:00 | 00:00:00 | |
| DF8AY | 2026-08-31 05:24:24 | 53.17573 | 8.24194 | 193° | 13km/h | 29809m | 6.1m/s | -44.8°C | 0% | 12.4hPa | 2.7V | 18:12:15 | 01:52:44 | 00:00:00 | |
| DO2JMG | 2026-08-31 05:24:22 | 53.17579 | 8.24192 | 147° | 13km/h | 29797m | 6.8m/s | -44.9°C | 0% | 12.4hPa | 2.7V | 18:12:15 | 01:52:42 | 00:00:00 | |
| DD1CC8 | 2026-08-31 05:24:21 | 53.17584 | 8.24183 | 127° | 16km/h | 29784m | 5.6m/s | -45.0°C | 0.8% | 12.4hPa | 2.7V | 00:00:00 | 00:00:00 | 00:00:00 | |
| DD8BA-10 | 2026-08-31 05:24:20 | 53.17584 | 8.24183 | 128° | 20km/h | 29784m | 5.6m/s | -45.0°C | 2.9% | 12.4hPa | 2.7V | 00:00:00 | 00:00:00 | 00:00:00 | |
| DL1XH1-15 | 2026-08-31 05:24:19 | 53.17617 | 8.24173 | 200° | 22km/h | 29747m | 6m/s | -45.3°C | 2.9% | 12.5hPa | 2.7V | 08:30:00 | 01:52:34 | 00:00:00 | |
| DL1XH-west | 2026-08-31 05:24:17 | 53.17597 | 8.24168 | 170° | 27km/h | 29765m | 7.2m/s | -45.2°C | 0% | 12.5hPa | 2.7V | 18:12:15 | 01:52:37 | 00:00:00 | |
| AA1-15 | 2026-08-31 05:24:16 | 53.17604 | 8.24168 | 185° | 29km/h | 29758m | 6.1m/s | -45.3°C | 0% | 12.5hPa | 2.6V | 18:12:15 | 01:52:36 | 00:00:00 | |
| DF8AY | 2026-08-31 05:24:14 | 53.17617 | 8.24173 | 201° | 22km/h | 29747m | 6m/s | -45.3°C | 0% | 12.5hPa | 2.7V | 18:12:15 | 01:52:34 | 00:00:00 | |
| DO2JMG | 2026-08-31 05:24:12 | 53.17624 | 8.24178 | 216° | 7km/h | 29734m | 6.3m/s | -45.4°C | 0.1% | 12.6hPa | 2.6V | 18:12:15 | 01:52:32 | 00:00:00 | |
| BIOWL1-15 | 2026-08-31 05:24:11 | 53.17627 | 8.24183 | 180° | 7km/h | 29707m | 5.6m/s | -45.5°C | 0.1% | 12.6hPa | 2.7V | 18:12:15 | 01:52:28 | 00:00:00 | |
| HSKMA3-T | 2026-08-31 05:24:11 | 53.17625 | 8.24180 | 243° | 4km/h | 29727m | 6.3m/s | -45.5°C | 0.1% | 12.6hPa | 2.6V | 18:12:15 | 01:52:31 | 00:00:00 | |
| DB0DAN | 2026-08-31 05:24:10 | 53.17625 | 8.24181 | 250° | 4km/h | 29721m | 7m/s | -45.5°C | 0.8% | 12.55hPa | 2.6V | 00:00:00 | 00:00:00 | 00:00:00 | |
| DL1XH-west | 2026-08-31 05:24:07 | 53.17629 | 8.24182 | 159° | 9km/h | 29702m | 5.5m/s | -45.6°C | 0.1% | 12.6hPa | 2.7V | 18:12:15 | 01:52:27 | 00:00:00 | |
| DO2SHX-10 | 2026-08-31 05:24:07 | 53.17629 | 8.24182 | 160° | 15km/h | 29702m | 5.5m/s | -45.5°C | 2.9% | 12.6hPa | 2.6V | 00:00:00 | 01:52:27 | 00:00:00 | |
| DL1XH-15 | 2026-08-31 05:24:06 | 53.17654 | 8.24156 | 172° | 27km/h | 29663m | 7.2m/s | -45.8°C | 3% | 12.7hPa | 2.6V | 08:30:00 | 01:52:21 | 00:00:00 | |
| AA1-15 | 2026-08-31 05:24:06 | 53.17631 | 8.24179 | 141° | 13km/h | 29695m | 7m/s | -45.6°C | 0.1% | 12.6hPa | 2.6V | 18:12:15 | 01:52:26 | 00:00:00 | |
| DF8AY | 2026-08-31 05:24:03 | 53.17642 | 8.24163 | 147° | 24km/h | 29677m | 5.5m/s | -45.6°C | 0.1% | 12.7hPa | 2.7V | 18:12:15 | 01:52:23 | 00:00:00 | |
| DO2JMG | 2026-08-31 05:24:02 | 53.17647 | 8.24159 | 160° | 26km/h | 29670m | 7.3m/s | -45.7°C | 0.1% | 12.7hPa | 2.7V | 18:12:15 | 01:52:22 | 00:00:00 | |
| BIOWL1-15 | 2026-08-31 05:24:00 | 53.17660 | 8.24155 | 177° | 27km/h | 29656m | 5.8m/s | -45.8°C | 0.1% | 12.7hPa | 2.6V | 18:12:15 | 01:52:20 | 00:00:00 | |
| MET0W-2 | 2026-08-31 05:23:59 | 53.17672 | 8.24152 | 160° | 20km/h | 29644m | 6.9m/s | -46.0°C | 0.8% | 12.7hPa | 2.6V | 00:00:00 | 00:00:00 | 00:00:00 | |
| DF7PN | 2026-08-31 05:23:58 | 53.17672 | 8.24152 | 160° | 20km/h | 29644m | 6.9m/s | 0°C | -1.0% | 12.7hPa | 2.6V | 00:00:00 | 00:00:00 | 00:00:00 | |
| BUE01 | 2026-08-31 05:23:57 | 53.17677 | 8.24148 | 138° | 18km/h | 29638m | 5.7m/s | -46.0°C | 0.8% | 12.8hPa | 2.6V | 00:00:00 | 00:00:00 | 00:00:00 | |
| DL1XH-15 | 2026-08-31 05:23:56 | 53.17689 | 8.24120 | 121° | 11km/h | 29600m | 6m/s | -46.2°C | 3.1% | 12.8hPa | 2.6V | 08:30:00 | 01:52:11 | 00:00:00 | |
| DL1XH-west | 2026-08-31 05:23:56 | 53.17679 | 8.24142 | 123° | 16km/h | 29632m | 5.3m/s | -46.1°C | 0.2% | 12.7hPa | 2.6V | 18:12:15 | 01:52:16 | 00:00:00 | |
| DB0DAN | 2026-08-31 05:23:55 | 53.17682 | 8.24137 | 118° | 15km/h | 29626m | 6.2m/s | -46.1°C | 0.8% | 12.74hPa | 2.6V | 00:00:00 | 00:00:00 | 00:00:00 | |
| DM0DOS-11 | 2026-08-31 05:23:55 | 53.17683 | 8.24131 | 121° | 13km/h | 29619m | 7.3m/s | -46.1°C | 3.1% | 12.8hPa | 2.7V | 08:30:00 | 01:52:14 | 00:00:00 | |
| AA1-15 | 2026-08-31 05:23:55 | 53.17682 | 8.24137 | 118° | 16km/h | 29626m | 6.2m/s | -46.1°C | 0.2% | 12.7hPa | 2.6V | 18:12:15 | 01:52:15 | 00:00:00 | |
| DF8AY | 2026-08-31 05:23:53 | 53.17685 | 8.24127 | 133° | 11km/h | 29613m | 6.3m/s | -46.2°C | 0.2% | 12.8hPa | 2.7V | 18:12:15 | 01:52:13 | 00:00:00 | |
| DO2JMG | 2026-08-31 05:23:51 | 53.17689 | 8.24120 | 122° | 11km/h | 29600m | 6m/s | -46.2°C | 0.2% | 12.8hPa | 2.6V | 18:12:15 | 01:52:11 | 00:00:00 | |
| DL4XJ-10 | 2026-08-31 05:23:50 | 53.17690 | 8.24115 | 111° | 16km/h | 29594m | 7.7m/s | -45.4°C | 0% | 0hPa | 2.6V | 00:00:00 | 00:00:00 | 00:00:00 | |
| DL1XH1-15 | 2026-08-31 05:23:49 | 53.17710 | 8.24074 | 139° | 26km/h | 29555m | 5.5m/s | -46.2°C | 3.1% | 12.9hPa | 2.6V | 08:30:00 | 01:52:04 | 00:00:00 | |
| HSKMA3-T | 2026-08-31 05:23:49 | 53.17692 | 8.24109 | 108° | 18km/h | 29586m | 6.1m/s | -46.2°C | 0.1% | 12.8hPa | 2.6V | 18:12:15 | 01:52:09 | 00:00:00 | |
| DL3AQ-11 | 2026-08-31 05:23:47 | 53.17700 | 8.24087 | 140° | 22km/h | 29567m | 7.4m/s | -46.2°C | 0.8% | 12.9hPa | 2.7V | 00:00:00 | 00:00:00 | 00:00:00 | |
| DL1XH-15 | 2026-08-31 05:23:46 | 53.17720 | 8.24049 | 104° | 20km/h | 29535m | 5.5m/s | -46.1°C | 3.1% | 12.9hPa | 2.7V | 08:30:00 | 01:52:01 | 00:00:00 | |
| DL1XH-west | 2026-08-31 05:23:45 | 53.17705 | 8.24081 | 144° | 26km/h | 29560m | 5.5m/s | -46.2°C | 0.2% | 12.9hPa | 2.6V | 18:12:15 | 01:52:05 | 00:00:00 | |
| DF8AY | 2026-08-31 05:23:43 | 53.17715 | 8.24066 | 129° | 26km/h | 29548m | 7.7m/s | -46.2°C | 0.2% | 12.9hPa | 2.7V | 18:12:15 | 01:52:03 | 00:00:00 | |
| DO2JMG | 2026-08-31 05:23:41 | 53.17720 | 8.24049 | 104° | 20km/h | 29535m | 5.6m/s | -46.1°C | 0.2% | 13hPa | 2.7V | 18:12:15 | 01:52:01 | 00:00:00 | |
| DB0DAN | 2026-08-31 05:23:40 | 53.17721 | 8.24041 | 100° | 15km/h | 29529m | 6.2m/s | -46.2°C | 0.8% | 12.96hPa | 2.6V | 00:00:00 | 00:00:00 | 00:00:00 | |
| DD8BA-10 | 2026-08-31 05:23:40 | 53.17721 | 8.24041 | 100° | 15km/h | 29530m | 6.2m/s | -46.1°C | 3.1% | 12.9hPa | 2.6V | 00:00:00 | 00:00:00 | 00:00:00 | |
| DL1XH1-15 | 2026-08-31 05:23:39 | 53.17726 | 8.24014 | 106° | 16km/h | 29490m | 6m/s | -46.1°C | 3% | 13hPa | 2.6V | 08:30:00 | 01:51:54 | 00:00:00 | |
| HSKMA3-T | 2026-08-31 05:23:38 | 53.17722 | 8.24032 | 113° | 7km/h | 29516m | 6.2m/s | -46.1°C | 0.2% | 13hPa | 2.6V | 18:12:15 | 01:51:58 | 00:00:00 | |
| BIOWL9-15 | 2026-08-31 05:23:38 | 53.17723 | 8.24029 | 119° | 7km/h | 29510m | 5.6m/s | -46.1°C | 0.8% | 13.0hPa | 2.6V | 00:00:00 | 00:00:00 | 00:00:00 | |
| DO2SHX-10 | 2026-08-31 05:23:37 | 53.17723 | 8.24029 | 120° | 11km/h | 29510m | 5.6m/s | -46.0°C | 3.1% | 13.0hPa | 2.6V | 00:00:00 | 01:51:57 | 00:00:00 | |
| DL1XH-15 | 2026-08-31 05:23:36 | 53.17733 | 8.23996 | 145° | 16km/h | 29471m | 7.2m/s | -46.1°C | 3% | 13.1hPa | 2.6V | 08:30:00 | 01:51:51 | 00:00:00 | |
| DL1XH-west | 2026-08-31 05:23:35 | 53.17725 | 8.24021 | 104° | 15km/h | 29496m | 6.8m/s | -46.1°C | 0.1% | 13.1hPa | 2.7V | 18:12:15 | 01:51:55 | 00:00:00 | |
| DF8AY | 2026-08-31 05:23:33 | 53.17728 | 8.24007 | 116° | 18km/h | 29484m | 5.6m/s | -46.1°C | 0.2% | 13.1hPa | 2.6V | 18:12:15 | 01:51:53 | 00:00:00 | |
| DO2JMG | 2026-08-31 05:23:30 | 53.17737 | 8.23992 | 148° | 16km/h | 29464m | 5.6m/s | -46.1°C | 0.1% | 13.1hPa | 2.7V | 18:12:15 | 01:51:50 | 00:00:00 | |
| BIOWL1-15 | 2026-08-31 05:23:28 | 53.17743 | 8.23983 | 121° | 16km/h | 29452m | 7.6m/s | -46.2°C | 0.2% | 13.1hPa | 2.7V | 18:12:15 | 01:51:48 | 00:00:00 | |
| DL4BBY-15 | 2026-08-31 05:23:28 | 53.17743 | 8.23983 | 122° | 15km/h | 29452m | 7.5m/s | -45.3°C | 0% | 0hPa | 2.6V | 00:00:00 | 00:00:00 | 00:00:00 | |
| DJ2DS-15 | 2026-08-31 05:23:27 | 53.17746 | 8.23970 | 103° | 16km/h | 29439m | 5.7m/s | -46.2°C | 0.8% | 13.1hPa | 2.6V | 00:00:00 | 00:00:00 | 00:00:00 | |
| DL1XH-15 | 2026-08-31 05:23:26 | 53.17755 | 8.23947 | 132° | 15km/h | 29406m | 7.2m/s | -46.2°C | 3.1% | 13.2hPa | 2.6V | 08:30:00 | 01:51:41 | 00:00:00 | |
| DB0DAN | 2026-08-31 05:23:25 | 53.17747 | 8.23964 | 109° | 15km/h | 29432m | 7.2m/s | -46.2°C | 0.8% | 13.17hPa | 2.6V | 00:00:00 | 00:00:00 | 00:00:00 | |
| AA1-15 | 2026-08-31 05:23:25 | 53.17747 | 8.23964 | 109° | 15km/h | 29432m | 7.2m/s | -46.2°C | 0.2% | 13.2hPa | 2.6V | 18:12:15 | 01:51:45 | 00:00:00 | |
| DL1XH-west | 2026-08-31 05:23:24 | 53.17748 | 8.23959 | 124° | 13km/h | 29425m | 6.5m/s | -46.2°C | 0.2% | 13.2hPa | 2.7V | 18:12:15 | 01:51:44 | 00:00:00 | |
| DF8AY | 2026-08-31 05:23:22 | 53.17753 | 8.23951 | 139° | 13km/h | 29413m | 6.1m/s | -46.2°C | 0.2% | 13.2hPa | 2.7V | 18:12:15 | 01:51:42 | 00:00:00 | |
| DO2JMG | 2026-08-31 05:23:20 | 53.17758 | 8.23942 | 128° | 16km/h | 29400m | 6m/s | -46.2°C | 0.2% | 13.2hPa | 2.6V | 18:12:15 | 01:51:40 | 00:00:00 | |
| HSKMA3-T | 2026-08-31 05:23:18 | 53.17764 | 8.23932 | 146° | 18km/h | 29389m | 5.6m/s | -46.3°C | 0.2% | 13.3hPa | 2.7V | 18:12:15 | 01:51:38 | 00:00:00 | |
| DJ8HS-15 | 2026-08-31 05:23:18 | 53.17764 | 8.23932 | 147° | 15km/h | 29389m | 5.6m/s | -46.2°C | 3.1% | 13.2hPa | 2.7V | 00:00:00 | 01:51:38 | 00:00:00 | |
| DD1CC3-15 | 2026-08-31 05:23:17 | 53.17764 | 8.23932 | 147° | 18km/h | 29389m | 5.6m/s | -46.3°C | 0.9% | 13.3hPa | 2.7V | 00:00:00 | 00:00:00 | 00:00:00 | |
| DL1XH-15 | 2026-08-31 05:23:16 | 53.17781 | 8.23933 | 359° | 11km/h | 29345m | 6.5m/s | -46.4°C | 3.2% | 13.4hPa | 2.7V | 08:30:00 | 01:51:31 | 00:00:00 | |
| AA1-15 | 2026-08-31 05:23:15 | 53.17778 | 8.23928 | 193° | 16km/h | 29370m | 4.9m/s | -46.4°C | 0.2% | 13.3hPa | 2.6V | 18:12:15 | 01:51:35 | 00:00:00 | |
| DL1XH-west | 2026-08-31 05:23:14 | 53.17781 | 8.23929 | 204° | 11km/h | 29365m | 5m/s | -46.3°C | 0.2% | 13.3hPa | 2.6V | 18:12:15 | 01:51:34 | 00:00:00 | |
| DF8AY | 2026-08-31 05:23:12 | 53.17783 | 8.23932 | 342° | 5km/h | 29352m | 7.1m/s | -46.4°C | 0.2% | 13.3hPa | 2.7V | 18:12:15 | 01:51:32 | 00:00:00 | |
| DB0DAN | 2026-08-31 05:23:10 | 53.17778 | 8.23933 | 7° | 9km/h | 29339m | 6.2m/s | -46.4°C | 0.8% | 13.37hPa | 2.6V | 00:00:00 | 00:00:00 | 00:00:00 | |
| DO2SHX-10 | 2026-08-31 05:23:10 | 53.17778 | 8.23932 | 7° | 7km/h | 29339m | 6.2m/s | -46.3°C | 3.1% | 13.3hPa | 2.6V | 00:00:00 | 01:51:30 | 00:00:00 | |
| DM0DOS-11 | 2026-08-31 05:23:09 | 53.17790 | 8.23907 | 130° | 31km/h | 29300m | 6.2m/s | -46.4°C | 3% | 13.4hPa | 2.6V | 08:30:00 | 01:51:24 | 00:00:00 | |
| BIOWL1-15 | 2026-08-31 05:23:09 | 53.17778 | 8.23928 | 142° | 15km/h | 29321m | 5.4m/s | -46.4°C | 0.2% | 13.4hPa | 2.7V | 18:12:15 | 01:51:27 | 00:00:00 | |
| DO2JMG | 2026-08-31 05:23:09 | 53.17776 | 8.23932 | 26° | 5km/h | 29332m | 6.4m/s | -46.4°C | 0.2% | 13.4hPa | 2.6V | 18:12:15 | 01:51:29 | 00:00:00 | |
| GOEST3-10 | 2026-08-31 05:23:09 | 53.17776 | 8.23932 | 26° | 15km/h | 29333m | 6.4m/s | -46.3°C | 3.1% | 13.3hPa | 2.6V | 00:00:00 | 01:51:29 | 00:00:00 | |
| DL4XJ-10 | 2026-08-31 05:23:08 | 53.17777 | 8.23930 | 132° | 13km/h | 29327m | 5.7m/s | -45.5°C | 0% | 0hPa | 2.6V | 00:00:00 | 00:00:00 | 00:00:00 | |
| HSKMA3-T | 2026-08-31 05:23:08 | 53.17776 | 8.23931 | 131° | 5km/h | 29326m | 5.7m/s | -46.4°C | 0.2% | 13.4hPa | 2.6V | 18:12:15 | 01:51:28 | 00:00:00 | |
| BIOWL9-15 | 2026-08-31 05:23:07 | 53.17782 | 8.23923 | 137° | 20km/h | 29315m | 6.5m/s | -46.4°C | 0.8% | 13.4hPa | 2.6V | 00:00:00 | 00:00:00 | 00:00:00 | |
| DL1XH-15 | 2026-08-31 05:23:06 | 53.17806 | 8.23883 | 150° | 20km/h | 29282m | 5.5m/s | -46.5°C | 3.1% | 13.5hPa | 2.6V | 08:30:00 | 01:51:21 | 00:00:00 | |
| AA1-15 | 2026-08-31 05:23:05 | 53.17786 | 8.23916 | 132° | 26km/h | 29307m | 8m/s | -46.4°C | 0.2% | 13.4hPa | 2.6V | 18:12:15 | 01:51:25 | 00:00:00 | |
| DL1XH-west | 2026-08-31 05:23:04 | 53.17790 | 8.23907 | 130° | 31km/h | 29300m | 6.2m/s | -46.4°C | 0.2% | 13.4hPa | 2.6V | 18:12:15 | 01:51:24 | 00:00:00 | |
| DF8AY | 2026-08-31 05:23:02 | 53.17801 | 8.23889 | 140° | 27km/h | 29288m | 6.9m/s | -46.5°C | 0.2% | 13.5hPa | 2.7V | 18:12:15 | 01:51:22 | 00:00:00 | |
| SONDE2-11 | 2026-08-31 05:23:02 | 53.17806 | 8.23883 | 150° | 20km/h | 29282m | 5.5m/s | -46.5°C | 0.8% | 13.5hPa | 2.6V | 00:00:00 | 00:00:00 | 00:00:00 | |
| DO2SHX-10 | 2026-08-31 05:23:01 | 53.17806 | 8.23883 | 151° | 11km/h | 29282m | 5.5m/s | -46.4°C | 3.1% | 13.4hPa | 2.6V | 00:00:00 | 01:51:21 | 00:00:00 | |
| DD8BA-10 | 2026-08-31 05:23:00 | 53.17809 | 8.23880 | 158° | 11km/h | 29278m | 4.6m/s | -46.4°C | 3.2% | 13.4hPa | 2.6V | 00:00:00 | 00:00:00 | 00:00:00 | |
| DL1XH1-15 | 2026-08-31 05:22:59 | 53.17798 | 8.23872 | 37° | 7km/h | 29239m | 6.6m/s | -46.4°C | 3.1% | 13.6hPa | 2.6V | 08:30:00 | 01:51:14 | 00:00:00 | |
| DO2JMG | 2026-08-31 05:22:59 | 53.17811 | 8.23879 | 135° | 2km/h | 29272m | 6.2m/s | -46.5°C | 0.2% | 13.5hPa | 2.6V | 18:12:15 | 01:51:19 | 00:00:00 | |
| HSKMA3-T | 2026-08-31 05:22:58 | 53.17810 | 8.23878 | 16° | 7km/h | 29265m | 7.7m/s | -46.5°C | 0.3% | 13.5hPa | 2.7V | 18:12:15 | 01:51:18 | 00:00:00 | |
| MET0W-2 | 2026-08-31 05:22:57 | 53.17804 | 8.23876 | 14° | 15km/h | 29251m | 5.9m/s | -46.4°C | 0.8% | 13.5hPa | 2.6V | 00:00:00 | 00:00:00 | 00:00:00 | |
| BIOWL1-15 | 2026-08-31 05:22:57 | 53.17808 | 8.23877 | 14° | 15km/h | 29257m | 7.1m/s | -46.4°C | 0.3% | 13.5hPa | 2.7V | 18:12:15 | 01:51:17 | 00:00:00 | |
| DF7PN | 2026-08-31 05:22:56 | 53.17801 | 8.23874 | 19° | 11km/h | 29245m | 5.5m/s | 0°C | -1.0% | -1.0hPa | 2.6V | 00:00:00 | 00:00:00 | 00:00:00 | |
| DB0DAN | 2026-08-31 05:22:55 | 53.17801 | 8.23874 | 19° | 13km/h | 29245m | 5.5m/s | -46.4°C | 0.8% | 13.54hPa | 2.6V | 00:00:00 | 00:00:00 | 00:00:00 | |
| AA1-15 | 2026-08-31 05:22:55 | 53.17801 | 8.23874 | 19° | 13km/h | 29245m | 5.5m/s | -46.4°C | 0.2% | 13.5hPa | 2.6V | 18:12:15 | 01:51:15 | 00:00:00 | |
| DL1XH-west | 2026-08-31 05:22:54 | 53.17798 | 8.23872 | 37° | 7km/h | 29239m | 6.6m/s | -46.4°C | 0.2% | 13.6hPa | 2.6V | 18:12:15 | 01:51:14 | 00:00:00 | |
| DF8AY | 2026-08-31 05:22:51 | 53.17802 | 8.23861 | 123° | 18km/h | 29221m | 7.3m/s | -46.5°C | 0.2% | 13.6hPa | 2.7V | 18:12:15 | 01:51:11 | 00:00:00 | |
| DO2JMG | 2026-08-31 05:22:48 | 53.17808 | 8.23838 | 116° | 18km/h | 29202m | 5.2m/s | -46.5°C | 0.2% | 13.6hPa | 2.7V | 18:12:15 | 01:51:08 | 00:00:00 | |
| BIOWL1-15 | 2026-08-31 05:22:47 | 53.17810 | 8.23833 | 126° | 15km/h | 29196m | 7.4m/s | -46.5°C | 0.2% | 13.6hPa | 2.7V | 18:12:15 | 01:51:07 | 00:00:00 | |
| AA1-15 | 2026-08-31 05:22:45 | 53.17814 | 8.23827 | 162° | 5km/h | 29182m | 5.6m/s | -46.5°C | 0.2% | 13.7hPa | 2.6V | 18:12:15 | 01:51:05 | 00:00:00 | |
| DL1XH-west | 2026-08-31 05:22:43 | 53.17814 | 8.23826 | 45° | 5km/h | 29170m | 7.2m/s | -46.5°C | 0.3% | 13.7hPa | 2.7V | 18:12:15 | 01:51:03 | 00:00:00 | |
| DO9LL-15 | 2026-08-31 05:22:43 | 53.17814 | 8.23825 | 46° | 9km/h | 29170m | 7.1m/s | -46.4°C | 3.2% | 13.7hPa | 2.6V | 00:00:00 | 01:51:03 | 00:00:00 | |
| DL8OAI-8 | 2026-08-31 05:22:42 | 53.17814 | 8.23825 | 46° | 5km/h | 29170m | 7.2m/s | -46.5°C | 0.9% | 13.7hPa | 2.6V | 00:00:00 | 00:00:00 | 00:00:00 | |
| DB0DAN | 2026-08-31 05:22:40 | 53.17811 | 8.23814 | 93° | 13km/h | 29152m | 7.3m/s | -46.5°C | 0.8% | 13.75hPa | 2.6V | 00:00:00 | 00:00:00 | 00:00:00 | |
| DF8AY | 2026-08-31 05:22:40 | 53.17811 | 8.23814 | 93° | 13km/h | 29152m | 7.3m/s | -46.5°C | 0.2% | 13.8hPa | 2.6V | 18:12:15 | 01:51:00 | 00:00:00 | |
| DO2JMG | 2026-08-31 05:22:38 | 53.17814 | 8.23803 | 124° | 16km/h | 29139m | 5.6m/s | -46.5°C | 0.2% | 13.8hPa | 2.6V | 18:12:15 | 01:50:58 | 00:00:00 | |
| HSKMA3-T | 2026-08-31 05:22:37 | 53.17816 | 8.23797 | 120° | 18km/h | 29133m | 5.7m/s | -46.6°C | 0.2% | 13.8hPa | 2.7V | 18:12:15 | 01:50:57 | 00:00:00 | |
| BIOWL1-15 | 2026-08-31 05:22:36 | 53.17818 | 8.23790 | 110° | 18km/h | 29127m | 6.5m/s | -46.6°C | 0.3% | 13.8hPa | 2.7V | 18:12:15 | 01:50:56 | 00:00:00 | |
| DM0DOS-11 | 2026-08-31 05:22:34 | 53.17818 | 8.23775 | 81° | 18km/h | 29115m | 4.6m/s | -46.5°C | 3.2% | 13.8hPa | 2.6V | 08:30:00 | 01:50:54 | 00:00:00 | |
| AA1-15 | 2026-08-31 05:22:34 | 53.17818 | 8.23775 | 81° | 18km/h | 29115m | 4.6m/s | -46.5°C | 0.2% | 13.8hPa | 2.6V | 18:12:15 | 01:50:54 | 00:00:00 | |
| DL1XH-west | 2026-08-31 05:22:32 | 53.17817 | 8.23762 | 79° | 11km/h | 29104m | 6.8m/s | -46.6°C | 0.2% | 13.9hPa | 2.7V | 18:12:15 | 01:50:52 | 00:00:00 | |
| SMARD9-15 | 2026-08-31 05:22:32 | 53.17817 | 8.23758 | 101° | 5km/h | 29098m | 7.0m/s | -46.7°C | 0.8% | 13.9hPa | 2.7V | 00:00:00 | 00:00:00 | 00:00:00 | |
| SONDE2-11 | 2026-08-31 05:22:31 | 53.17817 | 8.23756 | 132° | 4km/h | 29091m | 6.1m/s | -46.6°C | 0.8% | 13.9hPa | 2.7V | 00:00:00 | 00:00:00 | 00:00:00 | |
| DO2SHX-10 | 2026-08-31 05:22:30 | 53.17817 | 8.23756 | 133° | 5km/h | 29092m | 6.1m/s | -46.6°C | 3.1% | 13.8hPa | 2.7V | 00:00:00 | 01:50:50 | 08:30:00 | |
| DM0DOS-11 | 2026-08-31 05:22:29 | 53.17818 | 8.23740 | 107° | 5km/h | 29053m | 6.8m/s | -46.6°C | 3.1% | 14hPa | 2.6V | 08:30:00 | 01:50:44 | 00:00:00 | |
| DF8AY | 2026-08-31 05:22:29 | 53.17818 | 8.23755 | 126° | 4km/h | 29086m | 5.3m/s | -46.6°C | 0.3% | 13.9hPa | 2.6V | 18:12:15 | 01:50:49 | 00:00:00 | |
| DO2JMG | 2026-08-31 05:22:27 | 53.17818 | 8.23750 | 80° | 9km/h | 29072m | 6.5m/s | -46.6°C | 0.2% | 14hPa | 2.6V | 18:12:15 | 01:50:47 | 00:00:00 | |
| BIOWL1-15 | 2026-08-31 05:22:26 | 53.17818 | 8.23746 | 81° | 9km/h | 29066m | 5.8m/s | -46.6°C | 0.2% | 13.9hPa | 2.7V | 18:12:15 | 01:50:46 | 00:00:00 | |
| DB0DAN | 2026-08-31 05:22:25 | 53.17818 | 8.23743 | 91° | 7km/h | 29060m | 7.1m/s | -46.6°C | 0.9% | 13.95hPa | 2.7V | 00:00:00 | 00:00:00 | 00:00:00 | |
| AA1-15 | 2026-08-31 05:22:24 | 53.17818 | 8.23740 | 107° | 5km/h | 29053m | 6.8m/s | -46.6°C | 0.2% | 14hPa | 2.6V | 18:12:15 | 01:50:44 | 00:00:00 | |
| DL1XH-west | 2026-08-31 05:22:21 | 53.17818 | 8.23732 | 70° | 9km/h | 29034m | 7.3m/s | -46.7°C | 0.2% | 14hPa | 2.7V | 18:12:15 | 01:50:41 | 00:00:00 | |
| DD8BA-10 | 2026-08-31 05:22:20 | 53.17817 | 8.23728 | 67° | 9km/h | 29028m | 5.2m/s | -46.6°C | 3.1% | 14.0hPa | 2.6V | 00:00:00 | 00:00:00 | 00:00:00 | |
| DL1XH1-15 | 2026-08-31 05:22:19 | 53.17822 | 8.23717 | 141° | 5km/h | 28992m | 7m/s | -46.6°C | 3.2% | 14.1hPa | 2.6V | 08:30:00 | 01:50:34 | 00:00:00 | |
| DF8AY | 2026-08-31 05:22:18 | 53.17816 | 8.23721 | 94° | 5km/h | 29017m | 7.3m/s | -46.8°C | 0.3% | 14.1hPa | 2.6V | 18:12:15 | 01:50:38 | 00:00:00 | |
| DO2SHX-10 | 2026-08-31 05:22:18 | 53.17816 | 8.23721 | 95° | 7km/h | 29017m | 7.2m/s | -46.7°C | 3.2% | 14.0hPa | 2.7V | 00:00:00 | 01:50:38 | 00:00:00 | |
| DL1XH-15 | 2026-08-31 05:22:16 | 53.17818 | 8.23709 | 27° | 13km/h | 28973m | 5.8m/s | -46.6°C | 3.1% | 14.1hPa | 2.7V | 08:30:00 | 01:50:31 | 00:00:00 | |
| DO2JMG | 2026-08-31 05:22:16 | 53.17818 | 8.23719 | 178° | 7km/h | 29004m | 5.5m/s | -46.7°C | 0.3% | 14.1hPa | 2.7V | 18:12:15 | 01:50:36 | 00:00:00 | |
| AA1-15 | 2026-08-31 05:22:13 | 53.17822 | 8.23715 | 80° | 7km/h | 28985m | 6.9m/s | -46.6°C | 0.2% | 14.1hPa | 2.6V | 18:12:15 | 01:50:33 | 00:00:00 | |
| DC6BW-12 | 2026-08-31 05:22:12 | 53.17822 | 8.23715 | 81° | 7km/h | 28985m | 6.9m/s | -46.6°C | 0.9% | 14.1hPa | 2.7V | 00:00:00 | 00:00:00 | 00:00:00 | |
| DB0DAN | 2026-08-31 05:22:10 | 53.17815 | 8.23707 | 10° | 13km/h | 28967m | 6.9m/s | -46.6°C | 0.8% | 14.16hPa | 2.7V | 00:00:00 | 00:00:00 | 00:00:00 | |
| DL1XH-west | 2026-08-31 05:22:10 | 53.17815 | 8.23707 | 10° | 13km/h | 28967m | 6.9m/s | -46.6°C | 0.2% | 14.2hPa | 2.7V | 18:12:15 | 01:50:30 | 00:00:00 | |
| DF8AY | 2026-08-31 05:22:07 | 53.17807 | 8.23711 | 341° | 9km/h | 28948m | 5.1m/s | -46.7°C | 0.2% | 14.2hPa | 2.6V | 18:12:15 | 01:50:27 | 00:00:00 | |
| SONCRA | 2026-08-31 05:22:07 | 53.17807 | 8.23711 | 341° | 9km/h | 28948m | 5.1m/s | -46.7°C | 0.8% | 14.2hPa | 2.6V | 00:00:00 | 00:00:00 | 00:00:00 | |
| DL1XH-15 | 2026-08-31 05:22:06 | 53.17796 | 8.23699 | 30° | 2km/h | 28909m | 5.4m/s | -46.8°C | 3.2% | 14.3hPa | 2.6V | 08:30:00 | 01:50:21 | 00:00:00 | |
| DO2JMG | 2026-08-31 05:22:06 | 53.17804 | 8.23711 | 5° | 9km/h | 28942m | 7.1m/s | -46.8°C | 0.2% | 14.2hPa | 2.7V | 18:12:15 | 01:50:26 | 00:00:00 | |
| BIOWL1-15 | 2026-08-31 05:22:05 | 53.17802 | 8.23710 | 34° | 11km/h | 28935m | 7.3m/s | -46.8°C | 0.2% | 14.2hPa | 2.7V | 18:12:15 | 01:50:25 | 00:00:00 | |
| AA1-15 | 2026-08-31 05:22:03 | 53.17798 | 8.23703 | 53° | 11km/h | 28922m | 6m/s | -46.8°C | 0.3% | 14.3hPa | 2.6V | 18:12:15 | 01:50:23 | 00:00:00 | |
| DL1XH-west | 2026-08-31 05:22:00 | 53.17795 | 8.23699 | 359° | 2km/h | 28904m | 4.9m/s | -46.8°C | 0.3% | 14.3hPa | 2.7V | 18:12:15 | 01:50:20 | 00:00:00 | |
| DF8AY | 2026-08-31 05:21:57 | 53.17791 | 8.23697 | 6° | 9km/h | 28886m | 5.3m/s | -46.9°C | 0.2% | 14.3hPa | 2.6V | 18:12:15 | 01:50:17 | 00:00:00 | |
| DO2JMG | 2026-08-31 05:21:55 | 53.17787 | 8.23700 | 317° | 9km/h | 28874m | 7.6m/s | -47°C | 0.3% | 14.4hPa | 2.7V | 18:12:15 | 01:50:15 | 00:00:00 | |
| DB0DAN | 2026-08-31 05:21:55 | 53.17787 | 8.23700 | 317° | 9km/h | 28874m | 7.6m/s | -47°C | 0.9% | 14.36hPa | 2.7V | 00:00:00 | 00:00:00 | 00:00:00 | |
| AA1-15 | 2026-08-31 05:21:52 | 53.17782 | 8.23713 | 309° | 13km/h | 28854m | 6.9m/s | -46.9°C | 0.3% | 14.4hPa | 2.6V | 18:12:15 | 01:50:12 | 00:00:00 | |
| DK5PH-5 | 2026-08-31 05:21:51 | 53.17780 | 8.23716 | 338° | 9km/h | 28848m | 7.0m/s | -46.9°C | 3.2% | 14.4hPa | 2.7V | 00:00:00 | 01:50:11 | 00:00:00 | |
| DD8BA-10 | 2026-08-31 05:21:50 | 53.17777 | 8.23717 | 359° | 9km/h | 28841m | 5.8m/s | -46.9°C | 3.2% | 14.4hPa | 2.7V | 00:00:00 | 00:00:00 | 00:00:00 | |
| DL1XH1-15 | 2026-08-31 05:21:49 | 53.17766 | 8.23726 | 333° | 9km/h | 28802m | 7m/s | -46.9°C | 3.3% | 14.5hPa | 2.7V | 08:30:00 | 01:50:04 | 00:00:00 | |
| DL1XH-west | 2026-08-31 05:21:49 | 53.17774 | 8.23717 | 2° | 11km/h | 28835m | 5.5m/s | -46.9°C | 0.3% | 14.5hPa | 2.7V | 18:12:15 | 01:50:09 | 00:00:00 | |
| DF8AY | 2026-08-31 05:21:47 | 53.17770 | 8.23719 | 318° | 7km/h | 28822m | 6.7m/s | -46.8°C | 0.3% | 14.5hPa | 2.6V | 18:12:15 | 01:50:07 | 00:00:00 | |
| HSKMA3-T | 2026-08-31 05:21:45 | 53.17768 | 8.23724 | 319° | 9km/h | 28809m | 6.7m/s | -46.9°C | 0.3% | 14.5hPa | 2.7V | 18:12:15 | 01:50:05 | 00:00:00 | |
| DO2JMG | 2026-08-31 05:21:44 | 53.17766 | 8.23726 | 334° | 9km/h | 28803m | 7m/s | -46.9°C | 0.3% | 14.5hPa | 2.7V | 18:12:15 | 01:50:04 | 00:00:00 | |
| AA1-15 | 2026-08-31 05:21:42 | 53.17762 | 8.23730 | 313° | 9km/h | 28791m | 5.5m/s | -46.8°C | 0.3% | 14.6hPa | 2.6V | 18:12:15 | 01:50:02 | 00:00:00 | |
| DB0DAN | 2026-08-31 05:21:40 | 53.17760 | 8.23738 | 265° | 11km/h | 28777m | 6.3m/s | -46.8°C | 0.9% | 14.59hPa | 2.7V | 00:00:00 | 00:00:00 | 00:00:00 | |
| DL1XH1-15 | 2026-08-31 05:21:39 | 53.17757 | 8.23751 | 326° | 4km/h | 28742m | 6.2m/s | -46.7°C | 3.2% | 14.7hPa | 2.7V | 08:30:00 | 01:49:54 | 00:00:00 | |
| DL1XH-west | 2026-08-31 05:21:39 | 53.17761 | 8.23743 | 261° | 11km/h | 28772m | 5.4m/s | -46.8°C | 0.3% | 14.6hPa | 2.7V | 18:12:15 | 01:49:59 | 00:00:00 | |
| DF8AY | 2026-08-31 05:21:37 | 53.17759 | 8.23750 | 352° | 5km/h | 28753m | 5.5m/s | -46.8°C | 0.3% | 14.6hPa | 2.6V | 18:12:15 | 01:49:56 | 00:00:00 | |
| HSKMA3-T | 2026-08-31 05:21:35 | 53.17758 | 8.23750 | 359° | 5km/h | 28748m | 5.1m/s | -46.7°C | 0.3% | 14.7hPa | 2.6V | 18:12:15 | 01:49:55 | 00:00:00 | |
| DO2JMG | 2026-08-31 05:21:33 | 53.17757 | 8.23752 | 259° | 5km/h | 28735m | 7m/s | -46.7°C | 0.3% | 14.7hPa | 2.7V | 18:12:15 | 01:49:53 | 00:00:00 | |
| AA1-15 | 2026-08-31 05:21:31 | 53.17758 | 8.23761 | 260° | 15km/h | 28724m | 5.2m/s | -46.5°C | 0.1% | 14.7hPa | 2.6V | 18:12:15 | 01:49:51 | 00:00:00 | |
| DL1XH-west | 2026-08-31 05:21:28 | 53.17757 | 8.23778 | 281° | 15km/h | 28705m | 5.1m/s | -46.4°C | 0.2% | 14.8hPa | 2.7V | 18:12:15 | 01:49:48 | 00:00:00 | |
| DF8AY | 2026-08-31 05:21:26 | 53.17757 | 8.23789 | 248° | 15km/h | 28694m | 7.9m/s | -46.4°C | 0.2% | 14.8hPa | 2.6V | 18:12:15 | 01:49:46 | 00:00:00 | |
| DB0DAN | 2026-08-31 05:21:25 | 53.17759 | 8.23794 | 225° | 15km/h | 28686m | 7m/s | -46.4°C | 0.8% | 14.81hPa | 2.6V | 00:00:00 | 00:00:00 | 00:00:00 | |
| DM0DOS-11 | 2026-08-31 05:21:24 | 53.17762 | 8.23798 | 211° | 15km/h | 28680m | 5.8m/s | -46.4°C | 3.1% | 14.8hPa | 2.6V | 08:30:00 | 01:49:44 | 00:00:00 | |
| HSKMA3-T | 2026-08-31 05:21:24 | 53.17762 | 8.23798 | 211° | 15km/h | 28680m | 5.8m/s | -46.4°C | 0.2% | 14.8hPa | 2.6V | 18:12:15 | 01:49:44 | 00:00:00 | |
| DO2JMG | 2026-08-31 05:21:23 | 53.17766 | 8.23801 | 204° | 13km/h | 28673m | 7.5m/s | -46.4°C | 0.2% | 14.8hPa | 2.7V | 18:12:15 | 01:49:43 | 00:00:00 | |
| AA1-15 | 2026-08-31 05:21:21 | 53.17770 | 8.23803 | 188° | 9km/h | 28661m | 4.9m/s | -46.5°C | 0.2% | 14.9hPa | 2.6V | 18:12:15 | 01:49:41 | 00:00:00 | |
| DL1XH-west | 2026-08-31 05:21:17 | 53.17782 | 8.23812 | 222° | 15km/h | 28636m | 5.2m/s | -46.6°C | 0.1% | 14.9hPa | 2.7V | 18:12:15 | 01:49:37 | 00:00:00 | |
| DL1XH-15 | 2026-08-31 05:21:16 | 53.17793 | 8.23842 | 216° | 22km/h | 28597m | 6.6m/s | -46.9°C | 3.1% | 15hPa | 2.7V | 08:30:00 | 01:49:31 | 00:00:00 | |
| DF8AY | 2026-08-31 05:21:16 | 53.17785 | 8.23816 | 233° | 13km/h | 28630m | 7.6m/s | -46.6°C | 0.2% | 14.9hPa | 2.7V | 18:12:15 | 01:49:36 | 00:00:00 | |
| DM0DOS-11 | 2026-08-31 05:21:14 | 53.17786 | 8.23825 | 261° | 11km/h | 28617m | 5.3m/s | -46.7°C | 3.1% | 15hPa | 2.6V | 08:30:00 | 01:49:34 | 00:00:00 | |
| HSKMA3-T | 2026-08-31 05:21:14 | 53.17787 | 8.23825 | 261° | 11km/h | 28617m | 5.3m/s | -46.7°C | 0.2% | 15hPa | 2.6V | 18:12:15 | 01:49:34 | 00:00:00 | |
| DO2JMG | 2026-08-31 05:21:13 | 53.17787 | 8.23831 | 251° | 15km/h | 28611m | 6.5m/s | -46.8°C | 0.2% | 14.9hPa | 2.6V | 18:12:15 | 01:49:33 | 00:00:00 | |
| AA1-15 | 2026-08-31 05:21:11 | 53.17793 | 8.23842 | 217° | 22km/h | 28598m | 6.6m/s | -46.9°C | 0.2% | 15hPa | 2.7V | 18:12:15 | 01:49:31 | 00:00:00 | |
| DB0DAN | 2026-08-31 05:21:10 | 53.17798 | 8.23848 | 205° | 24km/h | 28591m | 6m/s | -47°C | 0.8% | 15.03hPa | 2.6V | 00:00:00 | 00:00:00 | 00:00:00 | |
| DD8BA-10 | 2026-08-31 05:21:10 | 53.17798 | 8.23847 | 206° | 26km/h | 28591m | 6.0m/s | -46.9°C | 3.1% | 15.0hPa | 2.6V | 00:00:00 | 00:00:00 | 08:30:00 | |
| DO2SHX-10 | 2026-08-31 05:21:09 | 53.17804 | 8.23851 | 200° | 26km/h | 28585m | 6.8m/s | -47.0°C | 3.1% | 15.0hPa | 2.6V | 00:00:00 | 01:49:29 | 08:30:00 | |
| DJ2DS-15 | 2026-08-31 05:21:08 | 53.17810 | 8.23854 | 192° | 24km/h | 28578m | 7.2m/s | -47.1°C | 3.1% | 15.0hPa | 2.7V | 00:00:00 | 01:49:28 | 08:30:00 | |
| DO3DL | 2026-08-31 05:21:07 | 53.17810 | 8.23854 | 193° | 24km/h | 28578m | 7.3m/s | -47.2°C | 0.8% | 15.0hPa | 2.7V | 00:00:00 | 00:00:00 | 00:00:00 | |
| DL1XH-15 | 2026-08-31 05:21:06 | 53.17857 | 8.23861 | 200° | 16km/h | 28533m | 7m/s | -47.6°C | 3.3% | 15.1hPa | 2.7V | 08:30:00 | 01:49:21 | 00:00:00 | |
| DL1XH-west | 2026-08-31 05:21:06 | 53.17823 | 8.23856 | 180° | 27km/h | 28565m | 6m/s | -47.3°C | 0.2% | 15.1hPa | 2.6V | 18:12:15 | 01:49:26 | 00:00:00 | |
| DM0DOS-11 | 2026-08-31 05:21:04 | 53.17838 | 8.23856 | 182° | 31km/h | 28552m | 5.6m/s | -47.5°C | 3.2% | 15.1hPa | 2.6V | 08:30:00 | 01:49:24 | 00:00:00 | |
| HSKMA3-T | 2026-08-31 05:21:04 | 53.17838 | 8.23856 | 182° | 31km/h | 28552m | 5.6m/s | -47.5°C | 0.3% | 15.1hPa | 2.6V | 18:12:15 | 01:49:24 | 00:00:00 | |
| BIOWL1-15 | 2026-08-31 05:21:03 | 53.17846 | 8.23857 | 187° | 29km/h | 28547m | 5m/s | -47.6°C | 0.3% | 15.1hPa | 2.7V | 18:12:15 | 01:49:23 | 00:00:00 | |
| DO2JMG | 2026-08-31 05:21:02 | 53.17852 | 8.23859 | 191° | 24km/h | 28540m | 7.6m/s | -47.6°C | 0.3% | 15.1hPa | 2.7V | 18:12:15 | 01:49:22 | 00:00:00 | |
| AA1-15 | 2026-08-31 05:21:01 | 53.17857 | 8.23861 | 201° | 18km/h | 28533m | 7.1m/s | -47.7°C | 0.4% | 15.2hPa | 2.7V | 18:12:15 | 01:49:21 | 00:00:00 | |
| SMARD9-15 | 2026-08-31 05:20:59 | 53.17869 | 8.23869 | 193° | 20km/h | 28515m | 6.9m/s | -47.7°C | 0.9% | 15.2hPa | 2.7V | 00:00:00 | 00:00:00 | 00:00:00 | |
| DO1YAY-16 | 2026-08-31 05:20:57 | 53.17881 | 8.23870 | 175° | 27km/h | 28503m | 5.3m/s | -47.6°C | 0.9% | 15.2hPa | 2.7V | 00:00:00 | 00:00:00 | 00:00:00 | |
| DL1XH-15 | 2026-08-31 05:20:56 | 53.17911 | 8.23854 | 161° | 26km/h | 28472m | 6.5m/s | -47.5°C | 3.3% | 15.3hPa | 2.7V | 08:30:00 | 01:49:11 | 00:00:00 | |
| DM0DOS-11 | 2026-08-31 05:20:55 | 53.17894 | 8.23866 | 161° | 26km/h | 28490m | 6.9m/s | -47.6°C | 3.3% | 15.2hPa | 2.6V | 08:30:00 | 01:49:14 | 00:00:00 | |
| DL1XH-west | 2026-08-31 05:20:55 | 53.17888 | 8.23869 | 168° | 27km/h | 28497m | 6.8m/s | -47.6°C | 0.4% | 15.2hPa | 2.6V | 18:12:15 | 01:49:15 | 00:00:00 | |
| HSKMA3-T | 2026-08-31 05:20:53 | 53.17900 | 8.23862 | 155° | 24km/h | 28484m | 5.9m/s | -47.6°C | 0.3% | 15.3hPa | 2.6V | 18:12:15 | 01:49:13 | 00:00:00 | |
| BIOWL1-15 | 2026-08-31 05:20:52 | 53.17905 | 8.23858 | 156° | 24km/h | 28478m | 5.5m/s | -47.5°C | 0.3% | 15.3hPa | 2.7V | 18:12:15 | 01:49:12 | 00:00:00 | |
| DO2JMG | 2026-08-31 05:20:51 | 53.17911 | 8.23854 | 161° | 26km/h | 28472m | 6.5m/s | -47.5°C | 0.3% | 15.3hPa | 2.7V | 18:12:15 | 01:49:11 | 00:00:00 | |
| AA1-15 | 2026-08-31 05:20:50 | 53.17918 | 8.23851 | 167° | 29km/h | 28465m | 6.8m/s | -47.5°C | 0.4% | 15.3hPa | 2.7V | 18:12:15 | 01:49:10 | 00:00:00 | |
| DD8BA-10 | 2026-08-31 05:20:50 | 53.17918 | 8.23851 | 168° | 26km/h | 28465m | 6.8m/s | -47.5°C | 3.3% | 15.3hPa | 2.6V | 00:00:00 | 00:00:00 | 00:00:00 | |
| DJ2DS-15 | 2026-08-31 05:20:48 | 53.17932 | 8.23847 | 172° | 24km/h | 28454m | 5.7m/s | -47.4°C | 3.3% | 15.3hPa | 2.6V | 00:00:00 | 01:49:08 | 00:00:00 | |
| GOEST3-10 | 2026-08-31 05:20:47 | 53.17938 | 8.23845 | 168° | 22km/h | 28447m | 7.3m/s | -47.5°C | 3.3% | 15.3hPa | 2.6V | 00:00:00 | 01:49:07 | 00:00:00 | |
| DL1XH-15 | 2026-08-31 05:20:46 | 53.17971 | 8.23820 | 153° | 29km/h | 28409m | 5.6m/s | -47.5°C | 3.2% | 15.5hPa | 2.7V | 08:30:00 | 01:49:01 | 00:00:00 | |
| DL1XH-west | 2026-08-31 05:20:44 | 53.17952 | 8.23835 | 152° | 24km/h | 28428m | 6.3m/s | -47.5°C | 0.3% | 15.4hPa | 2.6V | 18:12:15 | 01:49:04 | 00:00:00 | |
| BIOWL1-15 | 2026-08-31 05:20:42 | 53.17965 | 8.23825 | 155° | 31km/h | 28415m | 5.7m/s | -47.5°C | 0.3% | 15.4hPa | 2.6V | 18:12:15 | 01:49:02 | 00:00:00 | |
| DB0DAN | 2026-08-31 05:20:40 | 53.17978 | 8.23814 | 151° | 26km/h | 28402m | 7.3m/s | -47.6°C | 0.8% | 15.48hPa | 2.7V | 00:00:00 | 00:00:00 | 00:00:00 | |
| DO2JMG | 2026-08-31 05:20:40 | 53.17978 | 8.23814 | 151° | 27km/h | 28403m | 7.3m/s | -47.6°C | 0.2% | 15.5hPa | 2.7V | 18:12:15 | 01:49:00 | 00:00:00 | |
| DO2SHX-10 | 2026-08-31 05:20:39 | 53.17983 | 8.23809 | 151° | 22km/h | 28396m | 5.9m/s | -47.6°C | 3.2% | 15.4hPa | 2.6V | 00:00:00 | 01:48:59 | 00:00:00 | |
| HTAHTA | 2026-08-31 05:20:38 | 53.17993 | 8.23801 | 161° | 22km/h | 28385m | 6.8m/s | -47.7°C | 0.9% | 15.5hPa | 2.6V | 00:00:00 | 00:00:00 | 00:00:00 | |
| GOEST3-10 | 2026-08-31 05:20:37 | 53.17993 | 8.23801 | 162° | 24km/h | 28385m | 6.7m/s | -47.6°C | 3.2% | 15.5hPa | 2.6V | 00:00:00 | 01:48:57 | 00:00:00 | |
| DL1XH-15 | 2026-08-31 05:20:36 | 53.18027 | 8.23786 | 144° | 24km/h | 28347m | 5.1m/s | -47.9°C | 3.3% | 15.6hPa | 2.6V | 08:30:00 | 01:48:51 | 00:00:00 | |
| DL1XH-west | 2026-08-31 05:20:34 | 53.18012 | 8.23796 | 172° | 24km/h | 28366m | 5.4m/s | -47.8°C | 0.3% | 15.6hPa | 2.7V | 18:12:15 | 01:48:54 | 00:00:00 | |
| BIOWL1-15 | 2026-08-31 05:20:34 | 53.18022 | 8.23791 | 154° | 20km/h | 28352m | 5.9m/s | -47.9°C | 0.4% | 15.6hPa | 2.6V | 18:12:15 | 01:48:52 | 00:00:00 | |
| HSKMA3-T | 2026-08-31 05:20:31 | 53.18027 | 8.23786 | 145° | 24km/h | 28347m | 5.1m/s | -47.9°C | 0.4% | 15.6hPa | 2.6V | 18:12:15 | 01:48:51 | 00:00:00 | |
| DO2JMG | 2026-08-31 05:20:30 | 53.18032 | 8.23780 | 144° | 27km/h | 28341m | 6.7m/s | -48°C | 0.4% | 15.6hPa | 2.7V | 18:12:15 | 01:48:50 | 00:00:00 | |
| AA1-15 | 2026-08-31 05:20:29 | 53.18038 | 8.23772 | 145° | 35km/h | 28334m | 7.2m/s | -48°C | 0.4% | 15.6hPa | 2.7V | 18:12:15 | 01:48:49 | 00:00:00 | |
| SMARD9-15 | 2026-08-31 05:20:28 | 53.18053 | 8.23754 | 142° | 35km/h | 28321m | 5.8m/s | -48.0°C | 0.9% | 15.7hPa | 2.6V | 00:00:00 | 00:00:00 | 00:00:00 | |
| DL3AQ-11 | 2026-08-31 05:20:27 | 53.18060 | 8.23745 | 139° | 31km/h | 28315m | 6.8m/s | -47.9°C | 0.9% | 15.7hPa | 2.6V | 00:00:00 | 00:00:00 | 00:00:00 | |
| DL1XH-15 | 2026-08-31 05:20:26 | 53.18087 | 8.23719 | 155° | 27km/h | 28284m | 5m/s | -48.1°C | 3.4% | 15.8hPa | 2.6V | 08:30:00 | 01:48:41 | 00:00:00 | |
| DB0DAN | 2026-08-31 05:20:25 | 53.18065 | 8.23738 | 141° | 26km/h | 28308m | 5.8m/s | -48°C | 0.9% | 15.7hPa | 2.6V | 00:00:00 | 00:00:00 | 00:00:00 | |
| DF8AY | 2026-08-31 05:20:24 | 53.18071 | 8.23731 | 146° | 24km/h | 28303m | 5.2m/s | -48°C | 0.3% | 15.7hPa | 2.7V | 18:12:15 | 01:48:44 | 00:00:00 | |
| DL1XH-west | 2026-08-31 05:20:23 | 53.18076 | 8.23727 | 155° | 24km/h | 28297m | 6.8m/s | -48.1°C | 0.4% | 15.7hPa | 2.7V | 18:12:15 | 01:48:43 | 00:00:00 | |
| HSKMA3-T | 2026-08-31 05:20:21 | 53.18087 | 8.23719 | 156° | 27km/h | 28284m | 5m/s | -48.1°C | 0.4% | 15.8hPa | 2.6V | 18:12:15 | 01:48:41 | 00:00:00 | |
| DF8AY | 2026-08-31 05:20:19 | 53.18116 | 8.23643 | 121° | 42km/h | 28241m | 6m/s | -48.1°C | 0.3% | 15.8hPa | 2.6V | 18:12:15 | 01:48:34 | 00:00:00 | |
| DO2JMG | 2026-08-31 05:20:19 | 53.18098 | 8.23706 | 133° | 26km/h | 28272m | 7.5m/s | -48.1°C | 0.3% | 15.8hPa | 2.7V | 18:12:15 | 01:48:39 | 00:00:00 | |
| DO2SHX-10 | 2026-08-31 05:20:18 | 53.18101 | 8.23697 | 116° | 31km/h | 28266m | 6.7m/s | -48.1°C | 3.4% | 15.8hPa | 2.7V | 00:00:00 | 01:48:38 | 00:00:00 | |
| GOEST3-10 | 2026-08-31 05:20:17 | 53.18104 | 8.23686 | 109° | 38km/h | 28260m | 5.1m/s | -48.1°C | 3.4% | 15.8hPa | 2.7V | 00:00:00 | 01:48:37 | 08:30:00 | |
| DL1XH-15 | 2026-08-31 05:20:16 | 53.18131 | 8.23601 | 116° | 35km/h | 28224m | 6.8m/s | -48.2°C | 3.3% | 15.9hPa | 2.6V | 08:30:00 | 01:48:31 | 00:00:00 | |
| DL1XH-west | 2026-08-31 05:20:13 | 53.18121 | 8.23629 | 122° | 42km/h | 28235m | 5.1m/s | -48.2°C | 0.4% | 15.9hPa | 2.7V | 18:12:15 | 01:48:33 | 00:00:00 | |
| HSKMA3-T | 2026-08-31 05:20:11 | 53.18131 | 8.23601 | 117° | 35km/h | 28224m | 6.8m/s | -48.2°C | 0.4% | 15.9hPa | 2.6V | 18:12:15 | 01:48:31 | 00:00:00 | |
| DB0DAN | 2026-08-31 05:20:10 | 53.18134 | 8.23589 | 110° | 27km/h | 28217m | 6.7m/s | -48.2°C | 0.9% | 15.9hPa | 2.6V | 00:00:00 | 00:00:00 | 00:00:00 | |
| DO2JMG | 2026-08-31 05:20:09 | 53.18136 | 8.23579 | 107° | 24km/h | 28210m | 6m/s | -48.2°C | 0.4% | 15.9hPa | 2.6V | 18:12:15 | 01:48:29 | 00:00:00 | |
| DF5WG-10 | 2026-08-31 05:20:09 | 53.18136 | 8.23579 | 108° | 20km/h | 28211m | 5.9m/s | -48.1°C | 3.3% | 15.9hPa | 2.6V | 00:00:00 | 01:48:29 | 00:00:00 | |
| DJ2DS-15 | 2026-08-31 05:20:08 | 53.18138 | 8.23570 | 111° | 26km/h | 28204m | 6.4m/s | -48.2°C | 3.4% | 15.9hPa | 2.7V | 00:00:00 | 01:48:28 | 00:00:00 | |
| HTAHTA | 2026-08-31 05:20:07 | 53.18142 | 8.23558 | 128° | 15km/h | 28191m | 5.7m/s | -48.1°C | 0.9% | 16.0hPa | 2.7V | 00:00:00 | 00:00:00 | 00:00:00 | |
| DL1XH-15 | 2026-08-31 05:20:06 | 53.18147 | 8.23520 | 98° | 29km/h | 28160m | 7m/s | -48.2°C | 3.4% | 16.1hPa | 2.7V | 08:30:00 | 01:48:21 | 00:00:00 | |
| DF8AY | 2026-08-31 05:20:03 | 53.18146 | 8.23540 | 92° | 18km/h | 28172m | 5.4m/s | -48.2°C | 0.4% | 16.1hPa | 2.6V | 18:12:15 | 01:48:23 | 00:00:00 | |
| DL1XH-west | 2026-08-31 05:20:02 | 53.18147 | 8.23531 | 93° | 24km/h | 28166m | 5.5m/s | -48.2°C | 0.4% | 16.1hPa | 2.7V | 18:12:15 | 01:48:22 | 00:00:00 | |
| HSKMA3-T | 2026-08-31 05:20:01 | 53.18147 | 8.23520 | 99° | 29km/h | 28160m | 7m/s | -48.2°C | 0.4% | 16.1hPa | 2.7V | 18:12:15 | 01:48:21 | 00:00:00 | |
| DO2JMG | 2026-08-31 05:19:59 | 53.18151 | 8.23492 | 104° | 38km/h | 28146m | 5.3m/s | -48.3°C | 0.4% | 16.1hPa | 2.6V | 18:12:15 | 01:48:19 | 00:00:00 | |
| AA1-15 | 2026-08-31 05:19:58 | 53.18153 | 8.23475 | 99° | 40km/h | 28141m | 5.2m/s | -48.3°C | 0.4% | 16.1hPa | 2.6V | 18:12:15 | 01:48:18 | 00:00:00 | |
| SMARD9-15 | 2026-08-31 05:19:57 | 53.18154 | 8.23443 | 85° | 37km/h | 28129m | 5.5m/s | -48.3°C | 0.9% | 16.2hPa | 2.7V | 00:00:00 | 00:00:00 | 00:00:00 | |
| DL1XH-15 | 2026-08-31 05:19:56 | 53.18151 | 8.23387 | 82° | 20km/h | 28099m | 5.6m/s | -48.3°C | 3.4% | 16.2hPa | 2.7V | 08:30:00 | 01:48:11 | 00:00:00 | |
| DB0DAN | 2026-08-31 05:19:55 | 53.18153 | 8.23428 | 81° | 31km/h | 28123m | 4.9m/s | -48.3°C | 0.9% | 16.17hPa | 2.7V | 00:00:00 | 00:00:00 | 00:00:00 | |
| DF8AY | 2026-08-31 05:19:53 | 53.18151 | 8.23404 | 86° | 24km/h | 28111m | 6.8m/s | -48.3°C | 0.4% | 16.2hPa | 2.6V | 18:12:15 | 01:48:13 | 00:00:00 | |
| BIOWL1-15 | 2026-08-31 05:19:51 | 53.18151 | 8.23387 | 83° | 20km/h | 28099m | 5.6m/s | -48.3°C | 0.4% | 16.2hPa | 2.7V | 18:12:15 | 01:48:11 | 00:00:00 | |
| DO2JMG | 2026-08-31 05:19:49 | 53.18148 | 8.23369 | 71° | 24km/h | 28086m | 6m/s | -48.2°C | 0.4% | 16.3hPa | 2.6V | 18:12:15 | 01:48:09 | 00:00:00 | |
| AA1-15 | 2026-08-31 05:19:48 | 53.18146 | 8.23360 | 75° | 26km/h | 28080m | 5.6m/s | -48.3°C | 0.4% | 16.3hPa | 2.6V | 18:12:15 | 01:48:08 | 00:00:00 | |
| DJ2DS-15 | 2026-08-31 05:19:48 | 53.18146 | 8.23360 | 75° | 18km/h | 28080m | 5.6m/s | -48.2°C | 3.4% | 16.2hPa | 2.6V | 00:00:00 | 01:48:08 | 00:00:00 | |
| GOEST3-10 | 2026-08-31 05:19:47 | 53.18145 | 8.23349 | 84° | 26km/h | 28074m | 6.4m/s | -48.2°C | 3.3% | 16.2hPa | 2.6V | 00:00:00 | 01:48:07 | 00:00:00 | |
| DL1XH-15 | 2026-08-31 05:19:46 | 53.18140 | 8.23285 | 63° | 26km/h | 28036m | 5m/s | -48.4°C | 3.4% | 16.4hPa | 2.6V | 08:30:00 | 01:48:01 | 00:00:00 | |
| DF8AY | 2026-08-31 05:19:43 | 53.18145 | 8.23305 | 81° | 27km/h | 28048m | 7m/s | -48.3°C | 0.4% | 16.4hPa | 2.6V | 18:12:15 | 01:48:03 | 00:00:00 | |
| HSKMA3-T | 2026-08-31 05:19:41 | 53.18140 | 8.23285 | 63° | 26km/h | 28036m | 5m/s | -48.4°C | 0.5% | 16.4hPa | 2.6V | 18:12:15 | 01:48:01 | 00:00:00 | |
| DB0DAN | 2026-08-31 05:19:40 | 53.18138 | 8.23276 | 64° | 20km/h | 28031m | 5.9m/s | -48.4°C | 0.9% | 16.42hPa | 2.7V | 00:00:00 | 00:00:00 | 00:00:00 | |
| DL1XH-west | 2026-08-31 05:19:40 | 53.18138 | 8.23276 | 64° | 22km/h | 28031m | 5.9m/s | -48.4°C | 0.4% | 16.4hPa | 2.7V | 18:12:15 | 01:48:00 | 00:00:00 | |
| DO2JMG | 2026-08-31 05:19:39 | 53.18136 | 8.23269 | 70° | 16km/h | 28024m | 7.3m/s | -48.4°C | 0.4% | 16.4hPa | 2.7V | 18:12:15 | 01:47:59 | 00:00:00 | |
| AA1-15 | 2026-08-31 05:19:38 | 53.18135 | 8.23263 | 81° | 13km/h | 28017m | 5.9m/s | -48.4°C | 0.4% | 16.4hPa | 2.6V | 18:12:15 | 01:47:58 | 00:00:00 | |
| DF5WG-10 | 2026-08-31 05:19:37 | 53.18134 | 8.23258 | 86° | 11km/h | 28012m | 5.4m/s | -48.3°C | 3.4% | 16.4hPa | 2.6V | 00:00:00 | 01:47:57 | 00:00:00 | |
| DL1XH-15 | 2026-08-31 05:19:36 | 53.18128 | 8.23226 | 89° | 15km/h | 27975m | 6.7m/s | -48.5°C | 3.4% | 16.5hPa | 2.6V | 08:30:00 | 01:47:51 | 00:00:00 | |
| DM0DOS-11 | 2026-08-31 05:19:35 | 53.18132 | 8.23244 | 63° | 15km/h | 27993m | 5.4m/s | -48.4°C | 3.3% | 16.5hPa | 2.7V | 08:30:00 | 01:47:54 | 00:00:00 | |
| DF8AY | 2026-08-31 05:19:32 | 53.18129 | 8.23232 | 78° | 15km/h | 27982m | 7.1m/s | -48.4°C | 0.4% | 16.5hPa | 2.6V | 18:12:15 | 01:47:52 | 00:00:00 | |
| HSKMA3-T | 2026-08-31 05:19:31 | 53.18128 | 8.23226 | 90° | 15km/h | 27975m | 6.7m/s | -48.5°C | 0.4% | 16.6hPa | 2.6V | 18:12:15 | 01:47:51 | 00:00:00 | |
| DL1XH-west | 2026-08-31 05:19:29 | 53.18128 | 8.23215 | 70° | 13km/h | 27963m | 5.7m/s | -48.5°C | 0.4% | 16.6hPa | 2.7V | 18:12:15 | 01:47:49 | 00:00:00 | |
| DO2JMG | 2026-08-31 05:19:28 | 53.18126 | 8.23209 | 52° | 15km/h | 27956m | 7.4m/s | -48.5°C | 0.5% | 16.6hPa | 2.7V | 18:12:15 | 01:47:48 | 00:00:00 | |
| AA1-15 | 2026-08-31 05:19:27 | 53.18123 | 8.23205 | 33° | 16km/h | 27950m | 5.3m/s | -48.5°C | 0.5% | 16.6hPa | 2.6V | 18:12:15 | 01:47:47 | 00:00:00 | |
| DO2SHX-10 | 2026-08-31 05:19:27 | 53.18123 | 8.23205 | 34° | 13km/h | 27950m | 5.2m/s | -48.5°C | 3.5% | 16.6hPa | 2.6V | 00:00:00 | 01:47:47 | 00:00:00 | |
| DL1XH-15 | 2026-08-31 05:19:26 | 53.18114 | 8.23201 | 55° | 4km/h | 27912m | 6m/s | -48.4°C | 3.4% | 16.7hPa | 2.6V | 08:30:00 | 01:47:41 | 00:00:00 | |
| DB0DAN | 2026-08-31 05:19:25 | 53.18117 | 8.23201 | 11° | 7km/h | 27938m | 7.2m/s | -48.5°C | 0.9% | 16.67hPa | 2.6V | 00:00:00 | 00:00:00 | 00:00:00 | |
| DF8AY | 2026-08-31 05:19:21 | 53.18114 | 8.23201 | 56° | 4km/h | 27912m | 6m/s | -48.4°C | 0.4% | 16.7hPa | 2.6V | 18:12:15 | 01:47:41 | 00:00:00 | |
| HSKMA3-T | 2026-08-31 05:19:20 | 53.18114 | 8.23199 | 88° | 5km/h | 27907m | 5.1m/s | -48.4°C | 0.3% | 16.7hPa | 2.6V | 18:12:15 | 01:47:40 | 00:00:00 | |
| DL1XH-west | 2026-08-31 05:19:18 | 53.18115 | 8.23194 | 134° | 7km/h | 27894m | 6.7m/s | -48.4°C | 0.4% | 16.7hPa | 2.7V | 18:12:15 | 01:47:38 | 00:00:00 | |
| AA1-15 | 2026-08-31 05:19:17 | 53.18116 | 8.23192 | 131° | 7km/h | 27888m | 5.5m/s | -48.5°C | 0.4% | 16.8hPa | 2.7V | 18:12:15 | 01:47:37 | 00:00:00 | |
| GOEST3-10 | 2026-08-31 05:19:17 | 53.18116 | 8.23192 | 132° | 5km/h | 27888m | 5.5m/s | -48.4°C | 3.3% | 16.7hPa | 2.7V | 00:00:00 | 01:47:37 | 00:00:00 | |
| DO2SHX-10 | 2026-08-31 05:19:15 | 53.18117 | 8.23187 | 58° | 5km/h | 27875m | 6.5m/s | -48.5°C | 3.3% | 16.7hPa | 2.6V | 00:00:00 | 01:47:35 | 00:00:00 | |
| DJ8HS-15 | 2026-08-31 05:19:14 | 53.18116 | 8.23185 | 30° | 9km/h | 27869m | 4.9m/s | -48.5°C | 3.4% | 16.8hPa | 2.6V | 00:00:00 | 01:47:34 | 00:00:00 | |
| DF8AY-15 | 2026-08-31 05:19:13 | 53.18114 | 8.23184 | 358° | 11km/h | 27864m | 5.3m/s | -48.5°C | 3.4% | 16.8hPa | 2.6V | 00:00:00 | 01:47:33 | 00:00:00 | |
| DO3DL | 2026-08-31 05:19:12 | 53.18114 | 8.23184 | 359° | 5km/h | 27864m | 5.4m/s | -48.5°C | 0.9% | 16.8hPa | 2.6V | 00:00:00 | 00:00:00 | 00:00:00 | |
| DB0DAN | 2026-08-31 05:19:10 | 53.18115 | 8.23191 | 226° | 11km/h | 27844m | 5.8m/s | -48.6°C | 0.9% | 16.89hPa | 2.6V | 00:00:00 | 00:00:00 | 00:00:00 | |
| HSKMA3-T | 2026-08-31 05:19:10 | 53.18115 | 8.23191 | 226° | 11km/h | 27844m | 5.8m/s | -48.6°C | 0.5% | 16.9hPa | 2.6V | 18:12:15 | 01:47:30 | 00:00:00 | |
| DF8AY | 2026-08-31 05:19:09 | 53.18117 | 8.23194 | 221° | 9km/h | 27838m | 7.1m/s | -48.6°C | 0.5% | 16.9hPa | 2.6V | 18:12:15 | 01:47:29 | 00:00:00 | |
| DL1XH-west | 2026-08-31 05:19:08 | 53.18119 | 8.23196 | 209° | 7km/h | 27831m | 6.4m/s | -48.7°C | 0.5% | 16.9hPa | 2.6V | 18:12:15 | 01:47:28 | 00:00:00 | |
| DO2JMG | 2026-08-31 05:19:07 | 53.18120 | 8.23196 | 187° | 5km/h | 27825m | 5.1m/s | -48.7°C | 0.4% | 16.9hPa | 2.7V | 18:12:15 | 01:47:27 | 00:00:00 | |
| HSKMA3-T | 2026-08-31 05:18:59 | 53.18134 | 8.23207 | 260° | 9km/h | 27778m | 5.5m/s | -48.9°C | 0.4% | 17.1hPa | 2.6V | 18:12:15 | 01:47:19 | 00:00:00 | |
| DF8AY | 2026-08-31 05:18:58 | 53.18135 | 8.23211 | 248° | 13km/h | 27771m | 7.1m/s | -49°C | 0.5% | 17.1hPa | 2.6V | 18:12:15 | 01:47:18 | 00:00:00 | |
| DO2JMG | 2026-08-31 05:18:57 | 53.18137 | 8.23217 | 237° | 18km/h | 27765m | 5.9m/s | -49°C | 0.4% | 17.1hPa | 2.6V | 18:12:15 | 01:47:17 | 00:00:00 | |
| BIOWL1-15 | 2026-08-31 05:18:56 | 53.18140 | 8.23223 | 230° | 18km/h | 27759m | 5.3m/s | -49°C | 0.4% | 17.1hPa | 2.7V | 18:12:15 | 01:47:16 | 00:00:00 | |
| DB0DAN | 2026-08-31 05:18:55 | 53.18142 | 8.23228 | 225° | 15km/h | 27753m | 6.5m/s | -49°C | 1% | 17.13hPa | 2.7V | 00:00:00 | 00:00:00 | 00:00:00 | |
| HSKMA3-T | 2026-08-31 05:18:49 | 53.18164 | 8.23241 | 183° | 18km/h | 27719m | 4.5m/s | -49°C | 0.5% | 17.2hPa | 2.7V | 18:12:15 | 01:47:09 | 00:00:00 | |
| DF8AY | 2026-08-31 05:18:48 | 53.18168 | 8.23241 | 174° | 13km/h | 27713m | 6.1m/s | -49°C | 0.5% | 17.2hPa | 2.6V | 18:12:15 | 01:47:08 | 00:00:00 | |
| DB0NH | 2026-08-31 05:18:48 | 53.18168 | 8.23241 | 174° | 15km/h | 27713m | 6.0m/s | -49.0°C | 3.5% | 17.2hPa | 2.7V | 00:00:00 | 01:47:08 | 00:00:00 | |
| DM0DOS-11 | 2026-08-31 05:18:47 | 53.18175 | 8.23242 | 239° | 9km/h | 27689m | 7.3m/s | -49.2°C | 3.5% | 17.3hPa | 2.7V | 08:30:00 | 01:47:04 | 00:00:00 | |
| DL1XH-west | 2026-08-31 05:18:46 | 53.18173 | 8.23239 | 162° | 4km/h | 27700m | 5.7m/s | -49°C | 0.4% | 17.3hPa | 2.6V | 18:12:15 | 01:47:06 | 00:00:00 | |
| DO2SHX-10 | 2026-08-31 05:18:45 | 53.18173 | 8.23240 | 229° | 11km/h | 27696m | 4.8m/s | -49.1°C | 3.4% | 17.2hPa | 2.7V | 00:00:00 | 01:47:05 | 00:00:00 | |
| DD1CC2-15 | 2026-08-31 05:18:43 | 53.18175 | 8.23242 | 240° | 9km/h | 27690m | 7.3m/s | -49.2°C | 1.0% | 17.3hPa | 2.7V | 00:00:00 | 00:00:00 | 00:00:00 | |
| DC6BW-12 | 2026-08-31 05:18:42 | 53.18176 | 8.23247 | 235° | 16km/h | 27683m | 6.0m/s | -49.3°C | 1.0% | 17.3hPa | 2.7V | 00:00:00 | 00:00:00 | 00:00:00 | |
| DB0DAN | 2026-08-31 05:18:40 | 53.18186 | 8.23261 | 200° | 15km/h | 27665m | 5.9m/s | -49.4°C | 1% | 17.38hPa | 2.7V | 00:00:00 | 00:00:00 | 00:00:00 | |
| HSKMA3-T | 2026-08-31 05:18:39 | 53.18190 | 8.23262 | 185° | 16km/h | 27659m | 5.4m/s | -49.5°C | 0.6% | 17.4hPa | 2.7V | 18:12:15 | 01:46:59 | 00:00:00 | |
| DO2SHX-10 | 2026-08-31 05:18:39 | 53.18190 | 8.23262 | 186° | 16km/h | 27660m | 5.4m/s | -49.5°C | 3.6% | 17.3hPa | 2.7V | 00:00:00 | 01:46:59 | 00:00:00 | |
| DJ2DS-15 | 2026-08-31 05:18:38 | 53.18194 | 8.23262 | 176° | 16km/h | 27654m | 5.5m/s | -49.5°C | 1.0% | 17.4hPa | 2.7V | 00:00:00 | 00:00:00 | 00:00:00 | |
| DM0DOS-11 | 2026-08-31 05:18:37 | 53.18209 | 8.23259 | 150° | 11km/h | 27631m | 5.5m/s | -49.5°C | 3.5% | 17.5hPa | 2.7V | 08:30:00 | 01:46:54 | 00:00:00 | |
| GOEST3-10 | 2026-08-31 05:18:37 | 53.18199 | 8.23262 | 178° | 15km/h | 27648m | 6.5m/s | -49.5°C | 3.6% | 17.4hPa | 2.6V | 00:00:00 | 01:46:57 | 00:00:00 | |
| DF8AY | 2026-08-31 05:18:37 | 53.18199 | 8.23262 | 177° | 18km/h | 27648m | 6.6m/s | -49.5°C | 0.6% | 17.4hPa | 2.6V | 18:12:15 | 01:46:57 | 00:00:00 | |
| DL1XH-15 | 2026-08-31 05:18:36 | 53.18215 | 8.23245 | 120° | 16km/h | 27614m | 4.5m/s | -49.5°C | 3.6% | 17.5hPa | 2.6V | 08:30:00 | 01:46:51 | 00:00:00 | |
| AA1-15 | 2026-08-31 05:18:36 | 53.18203 | 8.23261 | 178° | 16km/h | 27642m | 5.6m/s | -49.6°C | 0.5% | 17.4hPa | 2.6V | 18:12:15 | 01:46:56 | 00:00:00 | |
| BIOWL1-15 | 2026-08-31 05:18:35 | 53.18206 | 8.23261 | 170° | 13km/h | 27637m | 5.2m/s | -49.5°C | 0.5% | 17.5hPa | 2.6V | 18:12:15 | 01:46:55 | 00:00:00 | |
| HSKMA3-T | 2026-08-31 05:18:28 | 53.18225 | 8.23235 | 176° | 18km/h | 27596m | 5.6m/s | -49.5°C | 0.5% | 17.6hPa | 2.7V | 18:12:15 | 01:46:48 | 00:00:00 | |
| DJ2DS-15 | 2026-08-31 05:18:28 | 53.18225 | 8.23234 | 177° | 15km/h | 27596m | 5.5m/s | -49.5°C | 3.6% | 17.5hPa | 2.6V | 00:00:00 | 01:46:48 | 00:00:00 | |
| DM0DOS-11 | 2026-08-31 05:18:27 | 53.18239 | 8.23231 | 154° | 9km/h | 27571m | 6.2m/s | -49.5°C | 3.6% | 17.6hPa | 2.6V | 08:30:00 | 01:46:44 | 00:00:00 | |
| BIOWL1-15 | 2026-08-31 05:18:27 | 53.18237 | 8.23232 | 160° | 11km/h | 27577m | 5.8m/s | -49.5°C | 0.6% | 17.6hPa | 2.6V | 18:12:15 | 01:46:45 | 00:00:00 | |
| DL3AQ-11 | 2026-08-31 05:18:27 | 53.18233 | 8.23234 | 170° | 13km/h | 27584m | 7.2m/s | -49.5°C | 1.0% | 17.6hPa | 2.6V | 00:00:00 | 00:00:00 | 00:00:00 | |
| DL1XH-15 | 2026-08-31 05:18:26 | 53.18245 | 8.23222 | 118° | 15km/h | 27554m | 4m/s | -49.5°C | 3.6% | 17.7hPa | 2.6V | 08:30:00 | 01:46:41 | 00:00:00 | |
| AA1-15 | 2026-08-31 05:18:26 | 53.18233 | 8.23234 | 171° | 15km/h | 27583m | 7.2m/s | -49.5°C | 0.5% | 17.6hPa | 2.6V | 18:12:15 | 01:46:46 | 00:00:00 | |
| DB0DAN | 2026-08-31 05:18:25 | 53.18237 | 8.23232 | 160° | 11km/h | 27577m | 5.8m/s | -49.5°C | 1% | 17.64hPa | 2.6V | 00:00:00 | 00:00:00 | 00:00:00 | |
| DO2JMG | 2026-08-31 05:18:24 | 53.18239 | 8.23231 | 155° | 9km/h | 27571m | 6.2m/s | -49.5°C | 0.6% | 17.6hPa | 2.6V | 18:12:15 | 01:46:44 | 00:00:00 | |
| DK5PH-5 | 2026-08-31 05:18:24 | 53.18239 | 8.23230 | 155° | 15km/h | 27571m | 6.1m/s | -49.5°C | 3.6% | 17.6hPa | 2.6V | 00:00:00 | 01:46:44 | 00:00:00 | |
| SMARD9-15 | 2026-08-31 05:18:23 | 53.18241 | 8.23229 | 153° | 7km/h | 27565m | 7.2m/s | -49.5°C | 1.0% | 17.7hPa | 2.6V | 00:00:00 | 00:00:00 | 00:00:00 | |
| GOEST3-10 | 2026-08-31 05:18:22 | 53.18243 | 8.23227 | 133° | 20km/h | 27559m | 4.7m/s | -49.5°C | 3.6% | 17.6hPa | 2.6V | 00:00:00 | 00:00:00 | 00:00:00 | |
| DO2SHX-10 | 2026-08-31 05:18:21 | 53.18245 | 8.23222 | 119° | 20km/h | 27555m | 4.0m/s | -49.4°C | 3.6% | 17.6hPa | 2.6V | 00:00:00 | 01:46:41 | 00:00:00 | |
| DD8BA-10 | 2026-08-31 05:18:20 | 53.18246 | 8.23216 | 109° | 16km/h | 27549m | 7.4m/s | -49.5°C | 3.5% | 17.7hPa | 2.6V | 00:00:00 | 00:00:00 | 00:00:00 | |
| DO3DL | 2026-08-31 05:18:19 | 53.18246 | 8.23216 | 109° | 20km/h | 27549m | 7.5m/s | -49.5°C | 0.9% | 17.7hPa | 2.6V | 00:00:00 | 00:00:00 | 00:00:00 | |
| MET0W-2 | 2026-08-31 05:18:18 | 53.18251 | 8.23184 | 107° | 27km/h | 27530m | 4.4m/s | -49.5°C | 1.0% | 17.8hPa | 2.6V | 00:00:00 | 00:00:00 | 00:00:00 | |
| DM0DOS-11 | 2026-08-31 05:18:17 | 53.18260 | 8.23164 | 166° | 13km/h | 27513m | 5.7m/s | -49.4°C | 3.5% | 17.8hPa | 2.6V | 08:30:00 | 01:46:34 | 00:00:00 | |
| HSKMA3-T | 2026-08-31 05:18:17 | 53.18251 | 8.23184 | 107° | 27km/h | 27530m | 4.4m/s | -49.5°C | 0.5% | 17.8hPa | 2.7V | 18:12:15 | 01:46:37 | 00:00:00 | |
| AA1-15 | 2026-08-31 05:18:15 | 53.18257 | 8.23168 | 137° | 18km/h | 27519m | 6.6m/s | -49.4°C | 0.5% | 17.8hPa | 2.6V | 18:12:15 | 01:46:35 | 00:00:00 | |
| DO2JMG | 2026-08-31 05:18:14 | 53.18260 | 8.23164 | 166° | 13km/h | 27513m | 5.7m/s | -49.4°C | 0.5% | 17.8hPa | 2.6V | 18:12:15 | 01:46:34 | 00:00:00 | |
| DL1XH-west | 2026-08-31 05:18:13 | 53.18263 | 8.23164 | 190° | 9km/h | 27507m | 5.4m/s | -49.4°C | 0.5% | 17.8hPa | 2.6V | 18:12:15 | 01:46:33 | 00:00:00 | |
| DF8AY-15 | 2026-08-31 05:18:13 | 53.18262 | 8.23164 | 191° | 15km/h | 27508m | 5.4m/s | -49.4°C | 3.5% | 17.8hPa | 2.6V | 00:00:00 | 01:46:33 | 00:00:00 | |
| DO3DL | 2026-08-31 05:18:12 | 53.18262 | 8.23164 | 191° | 9km/h | 27508m | 5.4m/s | -49.4°C | 1.0% | 17.8hPa | 2.6V | 00:00:00 | 00:00:00 | 00:00:00 | |
| DB0DAN | 2026-08-31 05:18:10 | 53.18264 | 8.23161 | 75° | 11km/h | 27491m | 5.4m/s | -49.4°C | 1% | 17.88hPa | 2.6V | 00:00:00 | 00:00:00 | 00:00:00 | |
| DD8BA-10 | 2026-08-31 05:18:10 | 53.18264 | 8.23161 | 75° | 18km/h | 27491m | 5.4m/s | -49.4°C | 3.6% | 17.8hPa | 2.6V | 00:00:00 | 00:00:00 | 08:30:00 | |
| DO2SHX-10 | 2026-08-31 05:18:09 | 53.18263 | 8.23155 | 84° | 20km/h | 27485m | 6.0m/s | -49.4°C | 3.6% | 17.8hPa | 2.6V | 00:00:00 | 01:46:29 | 00:00:00 | |
| DJ2DS-15 | 2026-08-31 05:18:08 | 53.18263 | 8.23147 | 94° | 18km/h | 27479m | 6.6m/s | -49.4°C | 3.5% | 17.8hPa | 2.6V | 00:00:00 | 01:46:28 | 08:30:00 | |
| DM0DOS-11 | 2026-08-31 05:18:07 | 53.18266 | 8.23111 | 84° | 20km/h | 27456m | 6.3m/s | -49.6°C | 3.6% | 17.9hPa | 2.6V | 08:30:00 | 01:46:24 | 00:00:00 | |
| HSKMA3-T | 2026-08-31 05:18:07 | 53.18264 | 8.23138 | 100° | 24km/h | 27472m | 5.8m/s | -49.5°C | 0.5% | 17.9hPa | 2.7V | 18:12:15 | 01:46:27 | 00:00:00 | |
| DF8AY | 2026-08-31 05:18:05 | 53.18266 | 8.23119 | 95° | 22km/h | 27462m | 5.1m/s | -49.6°C | 0.6% | 17.9hPa | 2.7V | 18:12:15 | 01:46:25 | 00:00:00 | |
| DO2JMG | 2026-08-31 05:18:04 | 53.18266 | 8.23111 | 85° | 20km/h | 27456m | 6.4m/s | -49.6°C | 0.5% | 17.9hPa | 2.6V | 18:12:15 | 01:46:24 | 00:00:00 | |
| DL1XH-west | 2026-08-31 05:18:03 | 53.18265 | 8.23103 | 72° | 18km/h | 27450m | 5.7m/s | -49.6°C | 0.5% | 18hPa | 2.6V | 18:12:15 | 01:46:23 | 00:00:00 | |
| DJ2DS-15 | 2026-08-31 05:18:02 | 53.18263 | 8.23096 | 61° | 16km/h | 27445m | 5.1m/s | -49.6°C | 1.0% | 18.0hPa | 2.7V | 00:00:00 | 00:00:00 | 00:00:00 | |
| DL3AQ-11 | 2026-08-31 05:18:00 | 53.18260 | 8.23081 | 101° | 7km/h | 27427m | 5.7m/s | -49.6°C | 1.0% | 18.0hPa | 2.7V | 00:00:00 | 00:00:00 | 00:00:00 | |
| SONCRA | 2026-08-31 05:17:59 | 53.18260 | 8.23077 | 97° | 5km/h | 27422m | 4.8m/s | -49.6°C | 1.0% | 18.0hPa | 2.7V | 00:00:00 | 00:00:00 | 00:00:00 | |
| DL4BBY-15 | 2026-08-31 05:17:58 | 53.18260 | 8.23077 | 98° | 16km/h | 27423m | 4.8m/s | -48.7°C | 0% | 0hPa | 2.7V | 00:00:00 | 00:00:00 | 00:00:00 | |
| DM0DOS-11 | 2026-08-31 05:17:57 | 53.18253 | 8.23063 | 44° | 18km/h | 27396m | 6.8m/s | -49.5°C | 3.5% | 18.1hPa | 2.7V | 08:30:00 | 01:46:14 | 00:00:00 | |
| D01LWL | 2026-08-31 05:17:57 | 53.18259 | 8.23072 | 41° | 11km/h | 27410m | 7.2m/s | -49.5°C | 0.9% | 18.1hPa | 2.6V | 00:00:00 | 00:00:00 | 00:00:00 | |
| DL1XH-15 | 2026-08-31 05:17:56 | 53.18244 | 8.23043 | 53° | 24km/h | 27377m | 6.6m/s | -49.6°C | 3.5% | 18.1hPa | 2.6V | 08:30:00 | 01:46:11 | 00:00:00 | |
| HSKMA3-T | 2026-08-31 05:17:56 | 53.18259 | 8.23072 | 42° | 11km/h | 27409m | 7.2m/s | -49.5°C | 0.5% | 18.1hPa | 2.7V | 18:12:15 | 01:46:16 | 00:00:00 | |
| AA1-15 | 2026-08-31 05:17:55 | 53.18256 | 8.23068 | 38° | 16km/h | 27403m | 6.1m/s | -49.5°C | 0.5% | 18.1hPa | 2.7V | 18:12:15 | 01:46:15 | 00:00:00 | |
| DB0DAN | 2026-08-31 05:17:55 | 53.18256 | 8.23068 | 37° | 15km/h | 27403m | 6.1m/s | -49.5°C | 1% | 18.08hPa | 2.7V | 00:00:00 | 00:00:00 | 00:00:00 | |
| DO2JMG | 2026-08-31 05:17:53 | 53.18250 | 8.23058 | 54° | 20km/h | 27389m | 7m/s | -49.5°C | 0.5% | 18.1hPa | 2.6V | 18:12:15 | 01:46:13 | 00:00:00 | |
| DL1XH-west | 2026-08-31 05:17:52 | 53.18247 | 8.23050 | 56° | 22km/h | 27383m | 5.2m/s | -49.5°C | 0.5% | 18.1hPa | 2.6V | 18:12:15 | 01:46:12 | 00:00:00 | |
| SONDE2-11 | 2026-08-31 05:17:51 | 53.18244 | 8.23043 | 53° | 24km/h | 27377m | 6.6m/s | -49.6°C | 0.9% | 18.1hPa | 2.7V | 00:00:00 | 00:00:00 | 00:00:00 | |
| DO2SHX-10 | 2026-08-31 05:17:50 | 53.18240 | 8.23035 | 48° | 22km/h | 27371m | 6.7m/s | -49.5°C | 3.5% | 18.1hPa | 2.7V | 00:00:00 | 01:46:10 | 00:00:00 | |
| DJ8HS-15 | 2026-08-31 05:17:49 | 53.18236 | 8.23027 | 47° | 15km/h | 27365m | 4.7m/s | 0°C | 0% | 0hPa | 2.7V | 00:00:00 | 01:46:09 | 00:00:00 | |
| DJ2DS-15 | 2026-08-31 05:17:48 | 53.18232 | 8.23021 | 53° | 15km/h | 27360m | 5.6m/s | -49.6°C | 3.5% | 18.2hPa | 2.7V | 00:00:00 | 01:46:08 | 00:00:00 | |
| DM0DOS-11 | 2026-08-31 05:17:47 | 53.18228 | 8.23006 | 33° | 7km/h | 27336m | 7.1m/s | -49.9°C | 3.5% | 18.3hPa | 2.7V | 08:30:00 | 01:46:04 | 00:00:00 | |
| MET0W-2 | 2026-08-31 05:17:47 | 53.18229 | 8.23011 | 73° | 7km/h | 27347m | 5.1m/s | -49.9°C | 1.0% | 18.3hPa | 2.6V | 00:00:00 | 00:00:00 | 00:00:00 | |
| DL1XH-15 | 2026-08-31 05:17:46 | 53.18217 | 8.22999 | 25° | 20km/h | 27318m | 4.8m/s | -50°C | 3.5% | 18.3hPa | 2.6V | 08:30:00 | 01:46:01 | 00:00:00 | |
| HSKMA3-T | 2026-08-31 05:17:46 | 53.18229 | 8.23011 | 74° | 9km/h | 27347m | 5.1m/s | -49.9°C | 0.5% | 18.3hPa | 2.6V | 18:12:15 | 01:46:06 | 00:00:00 | |
| DO1YAY-16 | 2026-08-31 05:17:45 | 53.18229 | 8.23008 | 63° | 5km/h | 27342m | 4.6m/s | 0°C | -1.0% | -1.0hPa | 2.7V | 00:00:00 | 00:00:00 | 00:00:00 | |
| DF8AY | 2026-08-31 05:17:44 | 53.18228 | 8.23006 | 34° | 7km/h | 27336m | 7.1m/s | -49.9°C | 0.5% | 18.3hPa | 2.7V | 18:12:15 | 01:46:04 | 00:00:00 | |
| DO2JMG | 2026-08-31 05:17:43 | 53.18225 | 8.23004 | 19° | 13km/h | 27329m | 6.5m/s | -49.9°C | 0.5% | 18.3hPa | 2.7V | 18:12:15 | 01:46:03 | 00:00:00 | |
| DL1XH-west | 2026-08-31 05:17:42 | 53.18221 | 8.23002 | 20° | 18km/h | 27323m | 5.2m/s | -50°C | 0.5% | 18.3hPa | 2.6V | 18:12:15 | 01:46:02 | 00:00:00 | |
| DB0DAN | 2026-08-31 05:17:40 | 53.18212 | 8.22994 | 35° | 20km/h | 27313m | 6.1m/s | -50.1°C | 1% | 18.38hPa | 2.6V | 00:00:00 | 00:00:00 | 00:00:00 | |
| DD8BA-10 | 2026-08-31 05:17:40 | 53.18212 | 8.22994 | 35° | 16km/h | 27313m | 6.1m/s | -50.0°C | 3.5% | 18.3hPa | 2.6V | 00:00:00 | 00:00:00 | 00:00:00 | |
| DO2SHX-10 | 2026-08-31 05:17:38 | 53.18206 | 8.22983 | 59° | 15km/h | 27301m | 4.9m/s | -50.1°C | 3.6% | 18.3hPa | 2.6V | 00:00:00 | 01:45:58 | 00:00:00 | |
| DL1XH-15 | 2026-08-31 05:17:37 | 53.18185 | 8.22955 | 30° | 16km/h | 27260m | 5m/s | -50.5°C | 3.7% | 18.5hPa | 2.6V | 08:30:00 | 01:45:51 | 00:00:00 | |
| DM0DOS-11 | 2026-08-31 05:17:36 | 53.18195 | 8.22966 | 28° | 16km/h | 27278m | 5.5m/s | -50.3°C | 3.6% | 18.4hPa | 2.7V | 08:30:00 | 01:45:54 | 00:00:00 | |
| HSKMA3-T | 2026-08-31 05:17:35 | 53.18199 | 8.22970 | 32° | 15km/h | 27284m | 6.4m/s | -50.3°C | 0.6% | 18.5hPa | 2.6V | 18:12:15 | 01:45:55 | 00:00:00 | |
| DF8AY | 2026-08-31 05:17:34 | 53.18195 | 8.22966 | 29° | 16km/h | 27278m | 5.5m/s | -50.3°C | 0.5% | 18.4hPa | 2.7V | 18:12:15 | 01:45:54 | 00:00:00 | |
| DO2JMG | 2026-08-31 05:17:32 | 53.18189 | 8.22959 | 38° | 15km/h | 27265m | 6.1m/s | -50.4°C | 0.7% | 18.5hPa | 2.7V | 18:12:15 | 01:45:52 | 00:00:00 | |
| DL1XH-west | 2026-08-31 05:17:31 | 53.18185 | 8.22955 | 31° | 16km/h | 27260m | 5m/s | -50.5°C | 0.7% | 18.5hPa | 2.6V | 18:12:15 | 01:45:51 | 00:00:00 | |
| DD8BA-10 | 2026-08-31 05:17:30 | 53.18181 | 8.22952 | 21° | 13km/h | 27254m | 6.9m/s | -50.5°C | 3.7% | 18.5hPa | 2.7V | 00:00:00 | 00:00:00 | 00:00:00 | |
| DJ8HS-15 | 2026-08-31 05:17:29 | 53.18177 | 8.22950 | 9° | 15km/h | 27247m | 6.3m/s | 0°C | 0% | 0hPa | 2.7V | 00:00:00 | 01:45:49 | 00:00:00 | |
| SONCRA | 2026-08-31 05:17:28 | 53.18167 | 8.22949 | 5° | 15km/h | 27236m | 5.8m/s | -50.7°C | 1.0% | 18.6hPa | 2.7V | 00:00:00 | 00:00:00 | 00:00:00 | |
| EDDB2-12 | 2026-08-31 05:17:27 | 53.18167 | 8.22949 | 5° | 15km/h | 27236m | 5.8m/s | -50.7°C | 1.0% | 18.6hPa | 2.7V | 00:00:00 | 00:00:00 | 00:00:00 | |
| DL1XH-15 | 2026-08-31 05:17:26 | 53.18153 | 8.22940 | 9° | 15km/h | 27200m | 4.9m/s | -50.8°C | 3.9% | 18.7hPa | 2.7V | 08:30:00 | 01:45:41 | 00:00:00 | |
| DB0DAN | 2026-08-31 05:17:25 | 53.18162 | 8.22946 | 38° | 7km/h | 27223m | 5.6m/s | -50.7°C | 1% | 18.63hPa | 2.7V | 00:00:00 | 00:00:00 | 00:00:00 | |
| HSKMA3-T | 2026-08-31 05:17:25 | 53.18162 | 8.22946 | 38° | 7km/h | 27223m | 5.6m/s | -50.7°C | 0.7% | 18.6hPa | 2.7V | 18:12:15 | 01:45:45 | 00:00:00 | |
| AA1-15 | 2026-08-31 05:17:24 | 53.18160 | 8.22944 | 47° | 7km/h | 27218m | 5.2m/s | -50.8°C | 0.8% | 18.6hPa | 2.6V | 18:12:15 | 01:45:44 | 00:00:00 | |
| DF8AY | 2026-08-31 05:17:23 | 53.18159 | 8.22942 | 27° | 7km/h | 27212m | 6.6m/s | -50.8°C | 0.7% | 18.7hPa | 2.6V | 18:12:15 | 01:45:43 | 00:00:00 | |
| DO2JMG | 2026-08-31 05:17:22 | 53.18157 | 8.22941 | 10° | 11km/h | 27206m | 6.1m/s | -50.8°C | 0.7% | 18.7hPa | 2.6V | 18:12:15 | 01:45:42 | 00:00:00 | |
| BIOWL1-15 | 2026-08-31 05:17:21 | 53.18153 | 8.22940 | 9° | 15km/h | 27200m | 4.9m/s | -50.8°C | 0.7% | 18.7hPa | 2.7V | 18:12:15 | 01:45:41 | 00:00:00 | |
| DL1XH-west | 2026-08-31 05:17:20 | 53.18150 | 8.22939 | 16° | 16km/h | 27194m | 6.2m/s | -50.8°C | 0.7% | 18.7hPa | 2.7V | 18:12:15 | 01:45:40 | 00:00:00 | |
| DO2SHX-10 | 2026-08-31 05:17:20 | 53.18149 | 8.22939 | 17° | 18km/h | 27195m | 6.1m/s | -50.8°C | 3.8% | 18.7hPa | 2.6V | 00:00:00 | 01:45:40 | 00:00:00 | |
| DD1CC2-15 | 2026-08-31 05:17:19 | 53.18149 | 8.22939 | 17° | 16km/h | 27195m | 6.2m/s | -50.8°C | 1.1% | 18.7hPa | 2.6V | 00:00:00 | 00:00:00 | 00:00:00 | |
| DO2SHX-10 | 2026-08-31 05:17:17 | 53.18137 | 8.22930 | 15° | 22km/h | 27177m | 5.2m/s | -50.7°C | 3.8% | 18.7hPa | 2.6V | 00:00:00 | 01:45:37 | 00:00:00 | |
| DL1XH-15 | 2026-08-31 05:17:16 | 53.18116 | 8.22942 | 243° | 7km/h | 27141m | 4.7m/s | -50.6°C | 3.8% | 18.9hPa | 2.6V | 08:30:00 | 01:45:31 | 00:00:00 | |
| AA1-15 | 2026-08-31 05:17:14 | 53.18121 | 8.22932 | 335° | 18km/h | 27159m | 5.5m/s | -50.6°C | 0.6% | 18.8hPa | 2.7V | 18:12:15 | 01:45:34 | 00:00:00 | |
| DO2JMG | 2026-08-31 05:17:12 | 53.18116 | 8.22939 | 286° | 7km/h | 27146m | 6m/s | -50.6°C | 0.7% | 18.9hPa | 2.6V | 18:12:15 | 01:45:32 | 00:00:00 | |
| BIOWL1-15 | 2026-08-31 05:17:11 | 53.18117 | 8.22942 | 244° | 7km/h | 27141m | 4.7m/s | -50.6°C | 0.7% | 18.9hPa | 2.6V | 18:12:15 | 01:45:31 | 00:00:00 | |
| DB0DAN | 2026-08-31 05:17:10 | 53.18117 | 8.22945 | 242° | 7km/h | 27135m | 6.2m/s | -50.5°C | 1% | 18.86hPa | 2.7V | 00:00:00 | 00:00:00 | 00:00:00 | |
| DL1XH-west | 2026-08-31 05:17:09 | 53.18118 | 8.22948 | 262° | 7km/h | 27129m | 6.4m/s | -50.5°C | 0.6% | 18.9hPa | 2.7V | 18:12:15 | 01:45:29 | 00:00:00 | |
| DJ8HS-15 | 2026-08-31 05:17:09 | 53.18118 | 8.22948 | 262° | 9km/h | 27129m | 6.3m/s | 0°C | 0% | 0hPa | 2.6V | 00:00:00 | 01:45:29 | 00:00:00 | |
| DO2SHX-10 | 2026-08-31 05:17:08 | 53.18118 | 8.22951 | 298° | 7km/h | 27123m | 5.6m/s | -50.4°C | 3.8% | 18.9hPa | 2.6V | 00:00:00 | 01:45:28 | 00:00:00 | |
| DL3AQ-11 | 2026-08-31 05:17:07 | 53.18115 | 8.22954 | 342° | 5km/h | 27112m | 6.3m/s | -50.5°C | 1.0% | 18.9hPa | 2.6V | 00:00:00 | 00:00:00 | 00:00:00 | |
| DL1XH-15 | 2026-08-31 05:17:06 | 53.18104 | 8.22952 | 353° | 16km/h | 27080m | 5.3m/s | -50.5°C | 3.8% | 19.1hPa | 2.6V | 08:30:00 | 01:45:21 | 00:00:00 | |
| AA1-15 | 2026-08-31 05:17:04 | 53.18113 | 8.22954 | 25° | 7km/h | 27099m | 5.4m/s | -50.5°C | 0.7% | 19hPa | 2.7V | 18:12:15 | 01:45:24 | 00:00:00 | |
| HSKMA3-T | 2026-08-31 05:17:03 | 53.18111 | 8.22952 | 17° | 11km/h | 27093m | 5.6m/s | -50.5°C | 0.7% | 19hPa | 2.7V | 18:12:15 | 01:45:23 | 00:00:00 | |
| DF8AY | 2026-08-31 05:17:02 | 53.18108 | 8.22951 | 7° | 15km/h | 27087m | 7.1m/s | -50.5°C | 0.7% | 19hPa | 2.6V | 18:12:15 | 01:45:22 | 00:00:00 | |
| DO2JMG | 2026-08-31 05:17:01 | 53.18104 | 8.22951 | 354° | 16km/h | 27081m | 5.3m/s | -50.5°C | 0.7% | 19.1hPa | 2.6V | 18:12:15 | 01:45:21 | 00:00:00 | |
| BIOWL1-15 | 2026-08-31 05:17:00 | 53.18100 | 8.22953 | 339° | 15km/h | 27075m | 4.8m/s | -50.4°C | 0.6% | 19.1hPa | 2.6V | 18:12:15 | 01:45:20 | 00:00:00 | |
| DL1XH-west | 2026-08-31 05:16:59 | 53.18097 | 8.22956 | 314° | 11km/h | 27070m | 6m/s | -50.4°C | 0.7% | 19.1hPa | 2.7V | 18:12:15 | 01:45:19 | 00:00:00 | |
| DO2SHX-10 | 2026-08-31 05:16:59 | 53.18097 | 8.22956 | 315° | 13km/h | 27070m | 6.0m/s | -50.4°C | 3.8% | 19.1hPa | 2.6V | 00:00:00 | 01:45:19 | 00:00:00 | |
| DL4BBY-15 | 2026-08-31 05:16:58 | 53.18096 | 8.22960 | 268° | 13km/h | 27064m | 6.8m/s | -49.6°C | 0% | 0hPa | 2.6V | 00:00:00 | 00:00:00 | 00:00:00 | |
| DL1XH-15 | 2026-08-31 05:16:56 | 53.18103 | 8.22998 | 347° | 2km/h | 27020m | 6.1m/s | -50.3°C | 3.7% | 19.2hPa | 2.6V | 08:30:00 | 01:45:11 | 00:00:00 | |
| DL3AQ-11 | 2026-08-31 05:16:56 | 53.18101 | 8.22980 | 249° | 18km/h | 27044m | 6.7m/s | -50.4°C | 1.0% | 19.2hPa | 2.6V | 00:00:00 | 00:00:00 | 00:00:00 | |
| DB0DAN | 2026-08-31 05:16:55 | 53.18101 | 8.22980 | 250° | 18km/h | 27044m | 6.7m/s | -50.4°C | 1% | 19.16hPa | 2.6V | 00:00:00 | 00:00:00 | 00:00:00 | |
| AA1-15 | 2026-08-31 05:16:54 | 53.18102 | 8.22987 | 257° | 16km/h | 27038m | 5.4m/s | -50.3°C | 0.6% | 19.2hPa | 2.7V | 18:12:15 | 01:45:14 | 00:00:00 | |
| HSKMA3-T | 2026-08-31 05:16:53 | 53.18103 | 8.22993 | 263° | 11km/h | 27033m | 5.1m/s | -50.3°C | 0.6% | 19.2hPa | 2.7V | 18:12:15 | 01:45:13 | 00:00:00 | |
| DF8AY | 2026-08-31 05:16:51 | 53.18103 | 8.22998 | 347° | 2km/h | 27020m | 6.1m/s | -50.3°C | 0.6% | 19.2hPa | 2.6V | 18:12:15 | 01:45:11 | 00:00:00 | |
| DO2JMG | 2026-08-31 05:16:50 | 53.18102 | 8.22998 | 29° | 7km/h | 27014m | 5.2m/s | -50.4°C | 0.6% | 19.2hPa | 2.6V | 18:12:15 | 01:45:10 | 00:00:00 | |
| DL1XH-west | 2026-08-31 05:16:49 | 53.18099 | 8.22996 | 22° | 13km/h | 27008m | 7m/s | -50.4°C | 0.6% | 19.2hPa | 2.6V | 18:12:15 | 01:45:09 | 00:00:00 | |
| DJ8HS-15 | 2026-08-31 05:16:49 | 53.18099 | 8.22996 | 23° | 15km/h | 27008m | 6.9m/s | 0°C | 0% | 0hPa | 2.7V | 00:00:00 | 01:45:09 | 00:00:00 | |
| DJ2DS-15 | 2026-08-31 05:16:48 | 53.18096 | 8.22994 | 12° | 13km/h | 27002m | 6.4m/s | -50.4°C | 3.7% | 19.2hPa | 2.7V | 00:00:00 | 01:45:08 | 00:00:00 | |
| DO2SHX-10 | 2026-08-31 05:16:47 | 53.18091 | 8.22993 | 3° | 13km/h | 26996m | 4.5m/s | -50.4°C | 3.7% | 19.2hPa | 2.7V | 00:00:00 | 01:45:07 | 00:00:00 | |
| DL1XH-15 | 2026-08-31 05:16:46 | 53.18087 | 8.23010 | 252° | 15km/h | 26958m | 5.7m/s | -50.4°C | 3.8% | 19.4hPa | 2.7V | 08:30:00 | 01:45:01 | 00:00:00 | |
| DM0DOS-11 | 2026-08-31 05:16:45 | 53.18085 | 8.22996 | 268° | 7km/h | 26978m | 6.3m/s | -50.4°C | 3.8% | 19.3hPa | 2.6V | 08:30:00 | 01:45:04 | 00:00:00 | |
| AA1-15 | 2026-08-31 05:16:43 | 53.18085 | 8.23000 | 249° | 11km/h | 26972m | 6.2m/s | -50.4°C | 0.6% | 19.4hPa | 2.6V | 18:12:15 | 01:45:03 | 00:00:00 | |
| HSKMA3-T | 2026-08-31 05:16:42 | 53.18086 | 8.23004 | 254° | 13km/h | 26965m | 7.3m/s | -50.4°C | 0.6% | 19.4hPa | 2.6V | 18:12:15 | 01:45:02 | 00:00:00 | |
| DF8AY | 2026-08-31 05:16:41 | 53.18087 | 8.23010 | 253° | 15km/h | 26959m | 5.7m/s | -50.4°C | 0.6% | 19.4hPa | 2.7V | 18:12:15 | 01:45:01 | 00:00:00 | |
| DB0DAN | 2026-08-31 05:16:40 | 53.18088 | 8.23016 | 247° | 16km/h | 26953m | 5.4m/s | -50.4°C | 1% | 19.45hPa | 2.7V | 00:00:00 | 00:00:00 | 00:00:00 | |
| DO2JMG | 2026-08-31 05:16:40 | 53.18088 | 8.23016 | 247° | 16km/h | 26953m | 5.4m/s | -50.4°C | 0.7% | 19.4hPa | 2.7V | 18:12:15 | 01:45:00 | 00:00:00 | |
| DL1XH-west | 2026-08-31 05:16:39 | 53.18090 | 8.23023 | 242° | 16km/h | 26946m | 7.3m/s | -50.4°C | 0.7% | 19.4hPa | 2.6V | 18:12:15 | 01:44:59 | 00:00:00 | |
| BIOWL1-15 | 2026-08-31 05:16:38 | 53.18092 | 8.23028 | 246° | 15km/h | 26940m | 5m/s | -50.4°C | 0.7% | 19.5hPa | 2.6V | 18:12:15 | 01:44:58 | 00:00:00 | |
| DO2SHX-10 | 2026-08-31 05:16:38 | 53.18092 | 8.23028 | 246° | 13km/h | 26941m | 5.0m/s | -50.4°C | 3.8% | 19.4hPa | 2.6V | 00:00:00 | 01:44:58 | 08:30:00 | |
| GOEST3-10 | 2026-08-31 05:16:37 | 53.18093 | 8.23034 | 269° | 15km/h | 26936m | 4.5m/s | -50.3°C | 3.8% | 19.4hPa | 2.6V | 00:00:00 | 00:00:00 | 00:00:00 | |
| DL1XH-15 | 2026-08-31 05:16:36 | 53.18079 | 8.23048 | 204° | 4km/h | 26901m | 6.5m/s | -50.3°C | 3.7% | 19.6hPa | 2.6V | 08:30:00 | 01:44:51 | 00:00:00 | |
| AA1-15 | 2026-08-31 05:16:33 | 53.18082 | 8.23047 | 351° | 13km/h | 26913m | 4.4m/s | -50.4°C | 0.7% | 19.6hPa | 2.6V | 18:12:15 | 01:44:53 | 00:00:00 | |
| HSKMA3-T | 2026-08-31 05:16:32 | 53.18080 | 8.23048 | 353° | 7km/h | 26908m | 6.6m/s | -50.3°C | 0.7% | 19.6hPa | 2.6V | 18:12:15 | 01:44:52 | 00:00:00 | |
| DO2JMG | 2026-08-31 05:16:30 | 53.18081 | 8.23049 | 199° | 13km/h | 26895m | 5.5m/s | -50.3°C | 0.6% | 19.6hPa | 2.7V | 18:12:15 | 01:44:50 | 00:00:00 | |
| DL1XH-west | 2026-08-31 05:16:28 | 53.18089 | 8.23056 | 219° | 22km/h | 26883m | 6.9m/s | -50.3°C | 0.6% | 19.6hPa | 2.6V | 18:12:15 | 01:44:48 | 00:00:00 | |
| DJ2DS-15 | 2026-08-31 05:16:28 | 53.18088 | 8.23056 | 219° | 16km/h | 26884m | 6.8m/s | -50.3°C | 3.7% | 19.6hPa | 2.6V | 00:00:00 | 01:44:48 | 00:00:00 | |
| DL3AQ-11 | 2026-08-31 05:16:27 | 53.18095 | 8.23071 | 243° | 22km/h | 26871m | 5.4m/s | -50.2°C | 1.0% | 19.7hPa | 2.6V | 00:00:00 | 00:00:00 | 00:00:00 | |
| DL1XH-15 | 2026-08-31 05:16:26 | 53.18105 | 8.23099 | 244° | 5km/h | 26841m | 6.1m/s | -50.2°C | 3.8% | 19.8hPa | 2.6V | 08:30:00 | 01:44:41 | 00:00:00 | |
| DB0DAN | 2026-08-31 05:16:25 | 53.18098 | 8.23079 | 246° | 20km/h | 26866m | 5.1m/s | -50.2°C | 1% | 19.7hPa | 2.7V | 00:00:00 | 00:00:00 | 00:00:00 | |
| AA1-15 | 2026-08-31 05:16:23 | 53.18102 | 8.23092 | 234° | 15km/h | 26853m | 6.4m/s | -50.2°C | 0.7% | 19.7hPa | 2.7V | 18:12:15 | 01:44:43 | 00:00:00 | |
| HSKMA3-T | 2026-08-31 05:16:21 | 53.18105 | 8.23099 | 245° | 5km/h | 26841m | 6.1m/s | -50.2°C | 0.7% | 19.8hPa | 2.6V | 18:12:15 | 01:44:41 | 00:00:00 | |
| DO2JMG | 2026-08-31 05:16:19 | 53.18105 | 8.23101 | 350° | 2km/h | 26828m | 4.7m/s | -50.2°C | 0.6% | 19.8hPa | 2.7V | 18:12:15 | 01:44:39 | 00:00:00 | |
| DL1XH-west | 2026-08-31 05:16:18 | 53.18105 | 8.23101 | 131° | 4km/h | 26824m | 5m/s | -50.1°C | 0.7% | 19.8hPa | 2.7V | 18:12:15 | 01:44:38 | 00:00:00 | |
| DO2SHX-10 | 2026-08-31 05:16:17 | 53.18106 | 8.23100 | 156° | 16km/h | 26818m | 6.7m/s | -50.1°C | 3.7% | 19.8hPa | 2.6V | 00:00:00 | 01:44:37 | 00:00:00 | |
| DL1XH-15 | 2026-08-31 05:16:16 | 53.18136 | 8.23117 | 229° | 20km/h | 26782m | 4.7m/s | -50°C | 3.7% | 20hPa | 2.6V | 08:30:00 | 01:44:31 | 00:00:00 | |
| AA1-15 | 2026-08-31 05:16:13 | 53.18127 | 8.23104 | 209° | 27km/h | 26794m | 6.7m/s | -50.1°C | 0.6% | 19.9hPa | 2.7V | 18:12:15 | 01:44:33 | 00:00:00 | |
| HSKMA3-T | 2026-08-31 05:16:11 | 53.18136 | 8.23117 | 230° | 20km/h | 26782m | 4.7m/s | -50°C | 0.6% | 20hPa | 2.6V | 18:12:15 | 01:44:31 | 00:00:00 | |
| DB0DAN | 2026-08-31 05:16:10 | 53.18139 | 8.23122 | 227° | 16km/h | 26777m | 5.4m/s | -50°C | 1% | 19.99hPa | 2.6V | 00:00:00 | 00:00:00 | 00:00:00 | |
| DO2JMG | 2026-08-31 05:16:09 | 53.18142 | 8.23126 | 210° | 13km/h | 26771m | 6.6m/s | -50°C | 0.6% | 20hPa | 2.6V | 18:12:15 | 01:44:29 | 00:00:00 | |
| DL1XH-west | 2026-08-31 05:16:08 | 53.18145 | 8.23127 | 173° | 13km/h | 26764m | 6.5m/s | -50°C | 0.6% | 20hPa | 2.6V | 18:12:15 | 01:44:28 | 00:00:00 | |
| DL4XJ-10 | 2026-08-31 05:16:08 | 53.18145 | 8.23127 | 174° | 18km/h | 26765m | 6.4m/s | -49.2°C | 0% | 0hPa | 2.6V | 00:00:00 | 00:00:00 | 00:00:00 | |
| DM0DOS-11 | 2026-08-31 05:16:07 | 53.18159 | 8.23115 | 165° | 16km/h | 26741m | 5.8m/s | -50°C | 3.7% | 20.1hPa | 2.6V | 08:30:00 | 01:44:24 | 00:00:00 | |
| BIOWL1-15 | 2026-08-31 05:16:07 | 53.18148 | 8.23125 | 150° | 16km/h | 26758m | 5.9m/s | -50°C | 0.5% | 20.1hPa | 2.7V | 18:12:15 | 01:44:27 | 00:00:00 | |
| AA1-15 | 2026-08-31 05:16:03 | 53.18163 | 8.23114 | 183° | 20km/h | 26736m | 5.6m/s | -50°C | 0.6% | 20.1hPa | 2.6V | 18:12:15 | 01:44:23 | 00:00:00 | |
| HSKMA3-T | 2026-08-31 05:16:01 | 53.18176 | 8.23117 | 189° | 29km/h | 26724m | 6.7m/s | -50°C | 0.7% | 20.2hPa | 2.7V | 18:12:15 | 01:44:21 | 00:00:00 | |
| DO2JMG | 2026-08-31 05:15:59 | 53.18190 | 8.23118 | 176° | 29km/h | 26711m | 5.4m/s | -49.9°C | 0.6% | 20.2hPa | 2.6V | 18:12:15 | 01:44:19 | 00:00:00 | |
| DL1XH-west | 2026-08-31 05:15:58 | 53.18197 | 8.23117 | 167° | 24km/h | 26706m | 4.9m/s | -49.9°C | 0.6% | 20.2hPa | 2.6V | 18:12:15 | 01:44:18 | 00:00:00 | |
| DK9SH | 2026-08-31 05:15:58 | 53.18197 | 8.23117 | 168° | 24km/h | 26707m | 4.9m/s | -49.9°C | 1.0% | 20.2hPa | 2.7V | 00:00:00 | 00:00:00 | 00:00:00 | |
| DM0DOS-11 | 2026-08-31 05:15:57 | 53.18209 | 8.23108 | 130° | 7km/h | 26682m | 5.3m/s | -49.9°C | 3.6% | 20.3hPa | 2.7V | 08:30:00 | 01:44:14 | 00:00:00 | |
| BIOWL1-15 | 2026-08-31 05:15:57 | 53.18202 | 8.23114 | 161° | 18km/h | 26701m | 5.7m/s | -49.9°C | 0.6% | 20.2hPa | 2.6V | 18:12:15 | 01:44:17 | 00:00:00 | |
| DB0DAN | 2026-08-31 05:15:55 | 53.18208 | 8.23110 | 146° | 5km/h | 26688m | 6.3m/s | -50°C | 1% | 20.27hPa | 2.7V | 00:00:00 | 00:00:00 | 00:00:00 | |
| AA1-15 | 2026-08-31 05:15:52 | 53.18213 | 8.23101 | 136° | 18km/h | 26669m | 6.5m/s | -50°C | 0.5% | 20.3hPa | 2.6V | 18:12:15 | 01:44:12 | 00:00:00 | |
| HSKMA3-T | 2026-08-31 05:15:50 | 53.18221 | 8.23090 | 142° | 24km/h | 26657m | 6.9m/s | -50°C | 0.6% | 20.4hPa | 2.7V | 18:12:15 | 01:44:10 | 00:00:00 | |
| BIOWL1-15 | 2026-08-31 05:15:48 | 53.18243 | 8.23066 | 146° | 29km/h | 26632m | 6.1m/s | -49.9°C | 0.6% | 20.4hPa | 2.6V | 18:12:15 | 01:44:06 | 00:00:00 | |
| DO2JMG | 2026-08-31 05:15:48 | 53.18231 | 8.23078 | 148° | 26km/h | 26644m | 5.6m/s | -49.9°C | 0.6% | 20.4hPa | 2.6V | 18:12:15 | 01:44:08 | 00:00:00 | |
| DM0DOS-11 | 2026-08-31 05:15:48 | 53.18253 | 8.23052 | 138° | 22km/h | 26621m | 5.5m/s | -49.9°C | 3.7% | 20.5hPa | 2.7V | 08:30:00 | 01:44:04 | 00:00:00 | |
| SONDE2-11 | 2026-08-31 05:15:47 | 53.18237 | 8.23072 | 148° | 27km/h | 26638m | 6.7m/s | -49.9°C | 1.0% | 20.4hPa | 2.6V | 00:00:00 | 00:00:00 | 00:00:00 | |
| DL1XH-west | 2026-08-31 05:15:47 | 53.18237 | 8.23072 | 148° | 29km/h | 26638m | 6.7m/s | -49.9°C | 0.6% | 20.4hPa | 2.6V | 18:12:15 | 01:44:07 | 00:00:00 | |
| DL3AQ-11 | 2026-08-31 05:15:46 | 53.18243 | 8.23066 | 145° | 29km/h | 26632m | 6.1m/s | -49.9°C | 1.0% | 20.4hPa | 2.6V | 00:00:00 | 00:00:00 | 00:00:00 | |
| AA1-15 | 2026-08-31 05:15:41 | 53.18258 | 8.23042 | 69° | 4km/h | 26604m | 4.7m/s | -49.9°C | 0.6% | 20.5hPa | 2.6V | 18:12:15 | 01:44:01 | 00:00:00 | |
| DB0DAN | 2026-08-31 05:15:40 | 53.18258 | 8.23040 | 91° | 4km/h | 26598m | 6m/s | -50°C | 1% | 20.54hPa | 2.6V | 00:00:00 | 00:00:00 | 00:00:00 | |
| HSKMA3-T | 2026-08-31 05:15:40 | 53.18258 | 8.23040 | 91° | 4km/h | 26598m | 6m/s | -50°C | 0.7% | 20.5hPa | 2.6V | 18:12:15 | 01:44:00 | 00:00:00 | |
| DO2JMG | 2026-08-31 05:15:37 | 53.18262 | 8.23027 | 124° | 20km/h | 26579m | 5.6m/s | -50°C | 0.6% | 20.6hPa | 2.7V | 18:12:15 | 01:43:57 | 00:00:00 | |
| GOEST3-10 | 2026-08-31 05:15:37 | 53.18262 | 8.23027 | 125° | 24km/h | 26579m | 5.5m/s | -50.0°C | 3.7% | 20.5hPa | 2.7V | 00:00:00 | 00:00:00 | 00:00:00 | |
| DL1XH-15 | 2026-08-31 05:15:36 | 53.18270 | 8.22975 | 97° | 16km/h | 26542m | 7.2m/s | -49.7°C | 3.6% | 20.7hPa | 2.7V | 08:30:00 | 01:43:51 | 00:00:00 | |
| DL1XH-west | 2026-08-31 05:15:36 | 53.18265 | 8.23020 | 120° | 24km/h | 26573m | 6.5m/s | -50°C | 0.7% | 20.6hPa | 2.7V | 18:12:15 | 01:43:56 | 00:00:00 | |
| BIOWL1-15 | 2026-08-31 05:15:35 | 53.18268 | 8.23011 | 111° | 24km/h | 26567m | 6.8m/s | -49.9°C | 0.7% | 20.6hPa | 2.6V | 18:12:15 | 01:43:55 | 00:00:00 | |
| AA1-15 | 2026-08-31 05:15:31 | 53.18271 | 8.22975 | 98° | 16km/h | 26542m | 7.2m/s | -49.7°C | 0.6% | 20.7hPa | 2.7V | 18:12:15 | 01:43:51 | 00:00:00 | |
| HSKMA3-T | 2026-08-31 05:15:30 | 53.18271 | 8.22969 | 108° | 13km/h | 26535m | 6.2m/s | -49.7°C | 0.5% | 20.8hPa | 2.6V | 18:12:15 | 01:43:50 | 00:00:00 | |
| DF8AY | 2026-08-31 05:15:27 | 53.18270 | 8.22957 | 53° | 13km/h | 26517m | 6.8m/s | -49.7°C | 0.5% | 20.8hPa | 2.7V | 18:12:15 | 01:43:47 | 00:00:00 | |
| BIOWL1-15 | 2026-08-31 05:15:27 | 53.18266 | 8.22946 | 63° | 18km/h | 26505m | 7m/s | -49.6°C | 0.6% | 20.9hPa | 2.7V | 18:12:15 | 01:43:45 | 00:00:00 | |
| DO2JMG | 2026-08-31 05:15:26 | 53.18268 | 8.22952 | 54° | 16km/h | 26511m | 5.5m/s | -49.6°C | 0.5% | 20.8hPa | 2.7V | 18:12:15 | 01:43:46 | 00:00:00 | |
| DB0DAN | 2026-08-31 05:15:25 | 53.18266 | 8.22946 | 63° | 16km/h | 26505m | 7m/s | -49.6°C | 1% | 20.87hPa | 2.7V | 00:00:00 | 00:00:00 | 00:00:00 | |
| AA1-15 | 2026-08-31 05:15:20 | 53.18259 | 8.22898 | 76° | 26km/h | 26474m | 4.9m/s | -49.7°C | 0.5% | 20.9hPa | 2.7V | 18:12:15 | 01:43:40 | 00:00:00 | |
| HSKMA3-T | 2026-08-31 05:15:19 | 53.18258 | 8.22888 | 81° | 22km/h | 26469m | 5.2m/s | -49.7°C | 0.5% | 21hPa | 2.6V | 18:12:15 | 01:43:39 | 00:00:00 | |
| SMARD9-10 | 2026-08-31 05:15:18 | 53.18258 | 8.22888 | 82° | 22km/h | 26469m | 5.2m/s | -49.7°C | 1.0% | 21.0hPa | 2.7V | 00:00:00 | 00:00:00 | 00:00:00 | |
| DM0DOS-11 | 2026-08-31 05:15:17 | 53.18259 | 8.22870 | 347° | 4km/h | 26435m | 5.7m/s | -49.7°C | 3.6% | 21.1hPa | 2.7V | 08:30:00 | 01:43:34 | 00:00:00 | |
| DF8AY | 2026-08-31 05:15:17 | 53.18258 | 8.22874 | 117° | 11km/h | 26455m | 6.9m/s | -49.6°C | 0.5% | 21hPa | 2.6V | 18:12:15 | 01:43:37 | 00:00:00 | |
| DO2SHX-10 | 2026-08-31 05:15:17 | 53.18258 | 8.22874 | 118° | 5km/h | 26456m | 6.9m/s | -49.6°C | 3.6% | 21.0hPa | 2.6V | 00:00:00 | 01:43:37 | 08:30:00 | |
| DL1XH-15 | 2026-08-31 05:15:16 | 53.18256 | 8.22870 | 32° | 7km/h | 26418m | 5.7m/s | -49.8°C | 3.6% | 21.1hPa | 2.6V | 08:30:00 | 01:43:31 | 00:00:00 | |
| DO2JMG | 2026-08-31 05:15:15 | 53.18260 | 8.22871 | 120° | 2km/h | 26442m | 7.1m/s | -49.7°C | 0.6% | 21.1hPa | 2.7V | 18:12:15 | 01:43:35 | 00:00:00 | |
| DO3DL | 2026-08-31 05:15:15 | 53.18260 | 8.22871 | 0° | 0km/h | 26442m | 7.1m/s | -49.7°C | 1.0% | 21.1hPa | 2.6V | 00:00:00 | 00:00:00 | 00:00:00 | |
| DO2SHX-10 | 2026-08-31 05:15:14 | 53.18260 | 8.22870 | 348° | 5km/h | 26436m | 5.6m/s | -49.7°C | 3.6% | 21.0hPa | 2.6V | 00:00:00 | 01:43:34 | 00:00:00 | |
| DF8AY-15 | 2026-08-31 05:15:13 | 53.18258 | 8.22871 | 351° | 11km/h | 26431m | 4.7m/s | -49.7°C | 3.6% | 21.1hPa | 2.6V | 00:00:00 | 01:43:33 | 00:00:00 | |
| DB0DAN | 2026-08-31 05:15:10 | 53.18253 | 8.22867 | 42° | 13km/h | 26413m | 5m/s | -49.8°C | 1% | 21.17hPa | 2.6V | 00:00:00 | 00:00:00 | 00:00:00 | |
| AA1-15 | 2026-08-31 05:15:10 | 53.18253 | 8.22867 | 42° | 13km/h | 26413m | 5m/s | -49.8°C | 0.5% | 21.2hPa | 2.6V | 18:12:15 | 01:43:30 | 00:00:00 | |
| HSKMA3-T | 2026-08-31 05:15:09 | 53.18250 | 8.22863 | 41° | 18km/h | 26407m | 7.4m/s | -49.7°C | 0.5% | 21.2hPa | 2.7V | 18:12:15 | 01:43:29 | 00:00:00 | |
| DD8BA-10 | 2026-08-31 05:15:09 | 53.18250 | 8.22863 | 41° | 15km/h | 26407m | 7.4m/s | -49.7°C | 3.5% | 21.1hPa | 2.7V | 00:00:00 | 00:00:00 | 08:30:00 | |
| DM0DOS-11 | 2026-08-31 05:15:08 | 53.18234 | 8.22827 | 75° | 13km/h | 26376m | 5.7m/s | -49.8°C | 3.5% | 21.3hPa | 2.6V | 08:30:00 | 01:43:24 | 00:00:00 | |
| DL3AQ-11 | 2026-08-31 05:15:07 | 53.18238 | 8.22841 | 55° | 22km/h | 26389m | 6.5m/s | -49.8°C | 1.0% | 21.3hPa | 2.6V | 00:00:00 | 00:00:00 | 00:00:00 | |
| DL1XH-15 | 2026-08-31 05:15:06 | 53.18232 | 8.22818 | 26° | 5km/h | 26358m | 5.5m/s | -49.8°C | 3.6% | 21.3hPa | 2.6V | 08:30:00 | 01:43:21 | 00:00:00 | |
| DF8AY | 2026-08-31 05:15:06 | 53.18238 | 8.22841 | 56° | 24km/h | 26388m | 6.5m/s | -49.8°C | 0.5% | 21.3hPa | 2.6V | 18:12:15 | 01:43:26 | 00:00:00 | |
| DO2JMG | 2026-08-31 05:15:05 | 53.18235 | 8.22833 | 66° | 20km/h | 26382m | 6.4m/s | -49.8°C | 0.5% | 21.2hPa | 2.6V | 18:12:15 | 01:43:25 | 00:00:00 | |
| BIOWL1-15 | 2026-08-31 05:15:04 | 53.18232 | 8.22818 | 27° | 5km/h | 26358m | 5.5m/s | -49.8°C | 0.6% | 21.3hPa | 2.6V | 18:12:15 | 01:43:21 | 00:00:00 | |
| DL1XH-west | 2026-08-31 05:15:04 | 53.18234 | 8.22827 | 75° | 13km/h | 26376m | 5.7m/s | -49.8°C | 0.5% | 21.3hPa | 2.6V | 18:12:15 | 01:43:24 | 00:00:00 | |
| AA1-15 | 2026-08-31 05:15:00 | 53.18230 | 8.22817 | 18° | 5km/h | 26353m | 4.7m/s | -49.9°C | 0.5% | 21.3hPa | 2.6V | 18:12:15 | 01:43:20 | 00:00:00 | |
| HSKMA3-T | 2026-08-31 05:14:58 | 53.18229 | 8.22815 | 68° | 2km/h | 26341m | 6.3m/s | -50°C | 0.6% | 21.4hPa | 2.7V | 18:12:15 | 01:43:18 | 00:00:00 | |
| DL4BBY-15 | 2026-08-31 05:14:58 | 53.18229 | 8.22815 | 69° | 7km/h | 26341m | 6.3m/s | -49.2°C | 0% | 0hPa | 2.6V | 00:00:00 | 00:00:00 | 00:00:00 | |
| DM0DOS-11 | 2026-08-31 05:14:57 | 53.18223 | 8.22813 | 3° | 15km/h | 26316m | 5.9m/s | -50.1°C | 3.7% | 21.5hPa | 2.6V | 08:30:00 | 01:43:14 | 00:00:00 | |
| GOEST3-10 | 2026-08-31 05:14:57 | 53.18229 | 8.22814 | 50° | 9km/h | 26335m | 5.1m/s | -50.0°C | 3.7% | 21.4hPa | 2.7V | 00:00:00 | 00:00:00 | 00:00:00 | |
| DL1XH-15 | 2026-08-31 05:14:56 | 53.18214 | 8.22808 | 37° | 11km/h | 26297m | 5.6m/s | -50.1°C | 3.7% | 21.5hPa | 2.7V | 08:30:00 | 01:43:11 | 00:00:00 | |
| DL3AQ-11 | 2026-08-31 05:14:56 | 53.18226 | 8.22813 | 3° | 9km/h | 26323m | 7.1m/s | -50.1°C | 1.0% | 21.5hPa | 2.6V | 00:00:00 | 00:00:00 | 00:00:00 | |
| DB0DAN | 2026-08-31 05:14:55 | 53.18226 | 8.22813 | 3° | 9km/h | 26323m | 7.1m/s | -50.1°C | 1% | 21.46hPa | 2.6V | 00:00:00 | 00:00:00 | 00:00:00 | |
| DF8AY | 2026-08-31 05:14:55 | 53.18226 | 8.22813 | 3° | 11km/h | 26323m | 7.1m/s | -50.1°C | 0.6% | 21.5hPa | 2.6V | 18:12:15 | 01:43:15 | 00:00:00 | |
| DO2JMG | 2026-08-31 05:14:54 | 53.18223 | 8.22813 | 4° | 15km/h | 26316m | 5.9m/s | -50.1°C | 0.6% | 21.5hPa | 2.6V | 18:12:15 | 01:43:14 | 00:00:00 | |
| BIOWL1-15 | 2026-08-31 05:14:51 | 53.18214 | 8.22808 | 38° | 11km/h | 26297m | 5.6m/s | -50.1°C | 0.6% | 21.5hPa | 2.7V | 18:12:15 | 01:43:11 | 00:00:00 | |
| AA1-15 | 2026-08-31 05:14:50 | 53.18212 | 8.22806 | 39° | 11km/h | 26291m | 5.5m/s | -50.1°C | 0.6% | 21.6hPa | 2.6V | 18:12:15 | 01:43:10 | 00:00:00 | |
| HSKMA3-T | 2026-08-31 05:14:48 | 53.18207 | 8.22801 | 30° | 9km/h | 26279m | 5.5m/s | -50.1°C | 0.5% | 21.6hPa | 2.6V | 18:12:15 | 01:43:08 | 00:00:00 | |
| DJ2DS-15 | 2026-08-31 05:14:48 | 53.18207 | 8.22801 | 30° | 5km/h | 26279m | 5.4m/s | -50.1°C | 3.6% | 21.5hPa | 2.6V | 00:00:00 | 01:43:08 | 00:00:00 | |
| DO2SHX-10 | 2026-08-31 05:14:47 | 53.18205 | 8.22799 | 43° | 5km/h | 26273m | 5.9m/s | -50.1°C | 3.6% | 21.6hPa | 2.6V | 00:00:00 | 01:43:07 | 00:00:00 | |
| DL1XH-15 | 2026-08-31 05:14:46 | 53.18200 | 8.22798 | 319° | 11km/h | 26237m | 4.3m/s | -50.3°C | 3.6% | 21.7hPa | 2.6V | 08:30:00 | 01:43:01 | 00:00:00 | |
| SMARD9-15 | 2026-08-31 05:14:46 | 53.18204 | 8.22795 | 97° | 4km/h | 26260m | 5.4m/s | -50.2°C | 1.0% | 21.7hPa | 2.6V | 00:00:00 | 00:00:00 | 00:00:00 | |
| DO2JMG | 2026-08-31 05:14:44 | 53.18204 | 8.22794 | 56° | 2km/h | 26255m | 5.5m/s | -50.2°C | 0.5% | 21.7hPa | 2.6V | 18:12:15 | 01:43:04 | 00:00:00 | |
| DO2SHX-10 | 2026-08-31 05:14:44 | 53.18204 | 8.22793 | 57° | 5km/h | 26255m | 5.5m/s | -50.2°C | 3.5% | 21.6hPa | 2.7V | 00:00:00 | 01:43:04 | 00:00:00 | |
| DO3DL | 2026-08-31 05:14:42 | 53.18204 | 8.22794 | 331° | 4km/h | 26248m | 7.2m/s | -50.2°C | 1.0% | 21.7hPa | 2.7V | 00:00:00 | 00:00:00 | 00:00:00 | |
| DB0DAN | 2026-08-31 05:14:40 | 53.18199 | 8.22800 | 316° | 7km/h | 26232m | 6.3m/s | -50.3°C | 1% | 21.77hPa | 2.7V | 00:00:00 | 00:00:00 | 00:00:00 | |
| AA1-15 | 2026-08-31 05:14:40 | 53.18199 | 8.22800 | 316° | 7km/h | 26232m | 6.3m/s | -50.3°C | 0.6% | 21.8hPa | 2.7V | 18:12:15 | 01:43:00 | 00:00:00 | |
| HSKMA3-T | 2026-08-31 05:14:38 | 53.18198 | 8.22804 | 240° | 2km/h | 26220m | 5.6m/s | -50.4°C | 0.7% | 21.8hPa | 2.7V | 18:12:15 | 01:42:58 | 00:00:00 | |
| DO2JMG | 2026-08-31 05:14:34 | 53.18197 | 8.22809 | 310° | 5km/h | 26197m | 5.4m/s | -50.7°C | 0.7% | 21.9hPa | 2.7V | 18:12:15 | 01:42:54 | 00:00:00 | |
| DL1XH-west | 2026-08-31 05:14:33 | 53.18196 | 8.22811 | 331° | 4km/h | 26191m | 6.4m/s | -50.7°C | 0.7% | 21.9hPa | 2.7V | 18:12:15 | 01:42:53 | 00:00:00 | |
| AA1-15 | 2026-08-31 05:14:29 | 53.18192 | 8.22803 | 38° | 13km/h | 26166m | 6.5m/s | -50.8°C | 0.7% | 22hPa | 2.7V | 18:12:15 | 01:42:49 | 00:00:00 | |
| BIOWL1-15 | 2026-08-31 05:14:29 | 53.18189 | 8.22799 | 44° | 13km/h | 26161m | 4.8m/s | -50.9°C | 0.7% | 22hPa | 2.7V | 18:12:15 | 01:42:48 | 00:00:00 | |
| HSKMA3-T | 2026-08-31 05:14:27 | 53.18187 | 8.22795 | 60° | 13km/h | 26156m | 5.5m/s | -50.9°C | 0.6% | 22hPa | 2.7V | 18:12:15 | 01:42:47 | 00:00:00 | |
| GOEST3-10 | 2026-08-31 05:14:27 | 53.18187 | 8.22795 | 61° | 9km/h | 26156m | 5.4m/s | -50.9°C | 3.7% | 22.0hPa | 2.7V | 00:00:00 | 00:00:00 | 00:00:00 | |
| DL1XH-15 | 2026-08-31 05:14:26 | 53.18190 | 8.22782 | 220° | 2km/h | 26120m | 5.4m/s | -51.1°C | 3.8% | 22.1hPa | 2.7V | 08:30:00 | 01:42:41 | 00:00:00 | |
| DB0DAN | 2026-08-31 05:14:25 | 53.18187 | 8.22786 | 113° | 9km/h | 26144m | 5.5m/s | -50.9°C | 1% | 22.06hPa | 2.6V | 00:00:00 | 00:00:00 | 00:00:00 | |
| DO2JMG | 2026-08-31 05:14:23 | 53.18189 | 8.22781 | 164° | 4km/h | 26132m | 6.9m/s | -51.1°C | 0.7% | 22.1hPa | 2.6V | 18:12:15 | 01:42:43 | 00:00:00 | |
| DL1XH-west | 2026-08-31 05:14:22 | 53.18190 | 8.22782 | 213° | 4km/h | 26126m | 5.3m/s | -51.1°C | 0.7% | 22.1hPa | 2.7V | 18:12:15 | 01:42:42 | 00:00:00 | |
| AA1-15 | 2026-08-31 05:14:19 | 53.18191 | 8.22780 | 102° | 7km/h | 26107m | 6.5m/s | -51.3°C | 0.8% | 22.2hPa | 2.6V | 18:12:15 | 01:42:39 | 00:00:00 | |
| BIOWL9-15 | 2026-08-31 05:14:19 | 53.18191 | 8.22776 | 89° | 11km/h | 26102m | 5.0m/s | -51.3°C | 1.1% | 22.2hPa | 2.7V | 00:00:00 | 00:00:00 | 00:00:00 | |
| DO2LYB-13 | 2026-08-31 05:14:17 | 53.18192 | 8.22777 | 91° | 11km/h | 26102m | 5.0m/s | -51.3°C | 1.1% | 22.2hPa | 2.7V | 00:00:00 | 00:00:00 | 00:00:00 | |
| DL1XH-15 | 2026-08-31 05:14:16 | 53.18184 | 8.22745 | 94° | 11km/h | 26061m | 5.1m/s | -51.1°C | 3.8% | 22.4hPa | 2.7V | 08:30:00 | 01:42:31 | 00:00:00 | |
| HSKMA3-T | 2026-08-31 05:14:16 | 53.18190 | 8.22767 | 61° | 13km/h | 26090m | 6.8m/s | -51.2°C | 0.7% | 22.3hPa | 2.7V | 18:12:15 | 01:42:36 | 00:00:00 | |
| DO2JMG | 2026-08-31 05:14:12 | 53.18184 | 8.22750 | 86° | 11km/h | 26067m | 6m/s | -51.2°C | 0.7% | 22.3hPa | 2.6V | 18:12:15 | 01:42:32 | 00:00:00 | |
| DL1XH-west | 2026-08-31 05:14:11 | 53.18184 | 8.22745 | 95° | 11km/h | 26061m | 5.1m/s | -51.1°C | 0.7% | 22.4hPa | 2.7V | 18:12:15 | 01:42:31 | 00:00:00 | |
| DB0DAN | 2026-08-31 05:14:10 | 53.18184 | 8.22741 | 83° | 7km/h | 26056m | 5.6m/s | -51.1°C | 1.1% | 22.36hPa | 2.7V | 00:00:00 | 00:00:00 | 00:00:00 | |
| BIOWL1-15 | 2026-08-31 05:14:09 | 53.18183 | 8.22739 | 46° | 7km/h | 26050m | 6.8m/s | -51.1°C | 0.7% | 22.4hPa | 2.7V | 18:12:15 | 01:42:29 | 00:00:00 | |
| DD8BA-10 | 2026-08-31 05:14:09 | 53.18183 | 8.22739 | 47° | 15km/h | 26050m | 6.8m/s | -51.0°C | 3.9% | 22.3hPa | 2.7V | 00:00:00 | 00:00:00 | 00:00:00 | |
| DJ2DS-15 | 2026-08-31 05:14:08 | 53.18182 | 8.22737 | 26° | 16km/h | 26044m | 5.5m/s | -51.0°C | 3.9% | 22.4hPa | 2.6V | 00:00:00 | 01:42:28 | 00:00:00 | |
| DM0DOS-11 | 2026-08-31 05:14:07 | 53.18171 | 8.22718 | 52° | 22km/h | 26021m | 4.9m/s | -51°C | 3.7% | 22.5hPa | 2.7V | 08:30:00 | 01:42:24 | 00:00:00 | |
| GOEST3-10 | 2026-08-31 05:14:07 | 53.18179 | 8.22734 | 34° | 18km/h | 26039m | 4.9m/s | -51.0°C | 3.9% | 22.4hPa | 2.6V | 00:00:00 | 00:00:00 | 00:00:00 | |
| DL1XH-15 | 2026-08-31 05:14:06 | 53.18161 | 8.22702 | 43° | 13km/h | 26003m | 4.8m/s | -51°C | 3.7% | 22.6hPa | 2.6V | 08:30:00 | 01:42:21 | 00:00:00 | |
| HSKMA3-T | 2026-08-31 05:14:05 | 53.18174 | 8.22725 | 54° | 18km/h | 26026m | 5.8m/s | -51°C | 0.6% | 22.5hPa | 2.7V | 18:12:15 | 01:42:25 | 00:00:00 | |
| DL1XH-west | 2026-08-31 05:14:01 | 53.18161 | 8.22702 | 43° | 13km/h | 26004m | 4.8m/s | -51°C | 0.6% | 22.6hPa | 2.6V | 18:12:15 | 01:42:21 | 00:00:00 | |
| AA1-15 | 2026-08-31 05:13:59 | 53.18158 | 8.22695 | 94° | 5km/h | 25991m | 6.2m/s | -51.1°C | 0.7% | 22.6hPa | 2.7V | 18:12:15 | 01:42:19 | 00:00:00 | |
| DO2SHX-10 | 2026-08-31 05:13:59 | 53.18158 | 8.22695 | 95° | 4km/h | 25992m | 6.1m/s | -51.1°C | 3.8% | 22.6hPa | 2.6V | 00:00:00 | 01:42:19 | 00:00:00 | |
| DL4BBY-15 | 2026-08-31 05:13:58 | 53.18159 | 8.22694 | 133° | 18km/h | 25986m | 5.2m/s | -50.3°C | 0% | 0hPa | 2.6V | 00:00:00 | 00:00:00 | 00:00:00 | |
| DM0DOS-11 | 2026-08-31 05:13:57 | 53.18151 | 8.22693 | 17° | 16km/h | 25962m | 6.8m/s | -51.2°C | 4% | 22.7hPa | 2.6V | 08:30:00 | 01:42:14 | 00:00:00 | |
| GOEST3-10 | 2026-08-31 05:13:57 | 53.18158 | 8.22693 | 319° | 13km/h | 25980m | 6.2m/s | -51.1°C | 3.9% | 22.6hPa | 2.7V | 00:00:00 | 00:00:00 | 00:00:00 | |
| DL1XH-15 | 2026-08-31 05:13:56 | 53.18135 | 8.22679 | 26° | 29km/h | 25945m | 5.8m/s | -51.1°C | 3.9% | 22.8hPa | 2.7V | 08:30:00 | 01:42:11 | 00:00:00 | |
| DB0DAN | 2026-08-31 05:13:55 | 53.18155 | 8.22694 | 5° | 13km/h | 25968m | 4.8m/s | -51.2°C | 1.1% | 22.69hPa | 2.6V | 00:00:00 | 00:00:00 | 00:00:00 | |
| HSKMA3-T | 2026-08-31 05:13:54 | 53.18151 | 8.22693 | 18° | 18km/h | 25962m | 6.8m/s | -51.2°C | 0.8% | 22.7hPa | 2.6V | 18:12:15 | 01:42:14 | 00:00:00 | |
| DO2JMG | 2026-08-31 05:13:51 | 53.18135 | 8.22679 | 27° | 29km/h | 25945m | 5.8m/s | -51.1°C | 0.8% | 22.8hPa | 2.7V | 18:12:15 | 01:42:11 | 00:00:00 | |
| DL1XH-west | 2026-08-31 05:13:50 | 53.18128 | 8.22674 | 20° | 27km/h | 25939m | 5.6m/s | -51.1°C | 0.8% | 22.8hPa | 2.6V | 18:12:15 | 01:42:10 | 00:00:00 | |
| BIOWL1-15 | 2026-08-31 05:13:48 | 53.18111 | 8.22665 | 353° | 4km/h | 25910m | 5.2m/s | -51.2°C | 0.7% | 22.9hPa | 2.6V | 18:12:15 | 01:42:05 | 00:00:00 | |
| AA1-15 | 2026-08-31 05:13:48 | 53.18117 | 8.22668 | 15° | 18km/h | 25928m | 6m/s | -51.1°C | 0.7% | 22.8hPa | 2.6V | 18:12:15 | 01:42:08 | 00:00:00 | |
| BIOWL9-15 | 2026-08-31 05:13:48 | 53.18114 | 8.22666 | 20° | 9km/h | 25922m | 7.0m/s | -51.2°C | 1.1% | 22.8hPa | 2.7V | 00:00:00 | 00:00:00 | 00:00:00 | |
| DL3AQ-11 | 2026-08-31 05:13:47 | 53.18112 | 8.22665 | 16° | 4km/h | 25916m | 5.5m/s | 0°C | -1.0% | -1.0hPa | 2.7V | 00:00:00 | 00:00:00 | 00:00:00 | |
| DL1XH-15 | 2026-08-31 05:13:46 | 53.18095 | 8.22667 | 11° | 27km/h | 25890m | 5.6m/s | -51.2°C | 3.9% | 22.9hPa | 2.7V | 08:30:00 | 01:42:01 | 00:00:00 | |
| HSKMA3-T | 2026-08-31 05:13:43 | 53.18106 | 8.22667 | 347° | 16km/h | 25899m | 5m/s | -51.2°C | 0.7% | 22.9hPa | 2.6V | 18:12:15 | 01:42:03 | 00:00:00 | |
| DB0DAN | 2026-08-31 05:13:40 | 53.18088 | 8.22663 | 21° | 29km/h | 25884m | 6.6m/s | -51.2°C | 1.1% | 22.99hPa | 2.7V | 00:00:00 | 00:00:00 | 00:00:00 | |
| DL1XH-west | 2026-08-31 05:13:40 | 53.18088 | 8.22663 | 21° | 31km/h | 25884m | 6.6m/s | -51.2°C | 0.7% | 23hPa | 2.7V | 18:12:15 | 01:42:00 | 00:00:00 | |
| AA1-15 | 2026-08-31 05:13:38 | 53.18074 | 8.22652 | 26° | 31km/h | 25872m | 6.2m/s | -51.1°C | 0.7% | 23hPa | 2.6V | 18:12:15 | 01:41:58 | 00:00:00 | |
| BIOWL1-15 | 2026-08-31 05:13:37 | 53.18067 | 8.22647 | 23° | 26km/h | 25866m | 5.2m/s | -51.1°C | 0.7% | 23.1hPa | 2.6V | 18:12:15 | 01:41:57 | 00:00:00 | |
| HSKMA3-T | 2026-08-31 05:13:32 | 53.18053 | 8.22637 | 337° | 7km/h | 25839m | 5.4m/s | -51.2°C | 0.7% | 23.1hPa | 2.6V | 18:12:15 | 01:41:52 | 00:00:00 | |
| DL1XH-west | 2026-08-31 05:13:30 | 53.18047 | 8.22643 | 331° | 22km/h | 25827m | 5.6m/s | -51.3°C | 0.7% | 23.2hPa | 2.6V | 18:12:15 | 01:41:50 | 00:00:00 | |
| DO2JMG | 2026-08-31 05:13:29 | 53.18041 | 8.22648 | 337° | 27km/h | 25821m | 4.5m/s | -51.4°C | 0.7% | 23.2hPa | 2.7V | 18:12:15 | 01:41:49 | 00:00:00 | |
| AA1-15 | 2026-08-31 05:13:28 | 53.18034 | 8.22651 | 344° | 27km/h | 25816m | 5.8m/s | -51.4°C | 0.7% | 23.2hPa | 2.7V | 18:12:15 | 01:41:48 | 00:00:00 | |
| BIOWL1-15 | 2026-08-31 05:13:27 | 53.18028 | 8.22654 | 353° | 26km/h | 25810m | 6.6m/s | -51.4°C | 0.7% | 23.2hPa | 2.6V | 18:12:15 | 01:41:47 | 00:00:00 | |
| DB0DAN | 2026-08-31 05:13:25 | 53.18017 | 8.22655 | 353° | 16km/h | 25799m | 5.2m/s | -51.4°C | 1.1% | 23.29hPa | 2.6V | 00:00:00 | 00:00:00 | 00:00:00 | |
| HSKMA3-T | 2026-08-31 05:13:21 | 53.18004 | 8.22670 | 311° | 13km/h | 25775m | 5.5m/s | -51.4°C | 0.8% | 23.4hPa | 2.6V | 18:12:15 | 01:41:41 | 00:00:00 | |
| DO2JMG | 2026-08-31 05:13:19 | 53.18000 | 8.22675 | 336° | 9km/h | 25763m | 4.9m/s | -51.4°C | 0.8% | 23.4hPa | 2.6V | 18:12:15 | 01:41:39 | 00:00:00 | |
| AA1-15 | 2026-08-31 05:13:17 | 53.17996 | 8.22679 | 308° | 9km/h | 25752m | 6.1m/s | -51.4°C | 0.8% | 23.5hPa | 2.7V | 18:12:15 | 01:41:37 | 00:00:00 | |
| BIOWL9-15 | 2026-08-31 05:13:17 | 53.17995 | 8.22684 | 290° | 13km/h | 25746m | 6.3m/s | -51.3°C | 1.1% | 23.5hPa | 2.7V | 00:00:00 | 00:00:00 | 00:00:00 | |
| DL1XH-15 | 2026-08-31 05:13:16 | 53.17987 | 8.22713 | 294° | 16km/h | 25716m | 5.4m/s | -51.2°C | 3.9% | 23.6hPa | 2.7V | 08:30:00 | 01:41:31 | 00:00:00 | |
| BIOWL1-15 | 2026-08-31 05:13:16 | 53.17995 | 8.22684 | 291° | 13km/h | 25746m | 6.3m/s | -51.3°C | 0.7% | 23.5hPa | 2.7V | 18:12:15 | 01:41:36 | 00:00:00 | |
| HSKMA3-T | 2026-08-31 05:13:11 | 53.17987 | 8.22713 | 294° | 16km/h | 25717m | 5.4m/s | -51.2°C | 0.7% | 23.6hPa | 2.7V | 18:12:15 | 01:41:31 | 00:00:00 | |
| DL1XH-west | 2026-08-31 05:13:09 | 53.17985 | 8.22728 | 276° | 20km/h | 25703m | 5.8m/s | -51.2°C | 0.7% | 23.6hPa | 2.6V | 18:12:15 | 01:41:29 | 00:00:00 | |
| BIOWL1-15 | 2026-08-31 05:13:08 | 53.17985 | 8.22751 | 273° | 15km/h | 25685m | 5.4m/s | -51.2°C | 0.7% | 23.7hPa | 2.7V | 18:12:15 | 01:41:26 | 00:00:00 | |
| DO2JMG | 2026-08-31 05:13:08 | 53.17985 | 8.22737 | 271° | 20km/h | 25698m | 5.3m/s | -51.2°C | 0.8% | 23.6hPa | 2.6V | 18:12:15 | 01:41:28 | 00:00:00 | |
| AA1-15 | 2026-08-31 05:13:07 | 53.17985 | 8.22744 | 271° | 16km/h | 25692m | 7.1m/s | -51.2°C | 0.7% | 23.7hPa | 2.6V | 18:12:15 | 01:41:27 | 00:00:00 | |
| MET0W-2 | 2026-08-31 05:13:07 | 53.17984 | 8.22757 | 273° | 15km/h | 25680m | 5.2m/s | -51.2°C | -1.0% | 23.7hPa | 2.6V | 00:00:00 | 00:00:00 | 00:00:00 | |
| DL1XH-15 | 2026-08-31 05:13:06 | 53.17982 | 8.22783 | 282° | 11km/h | 25657m | 6.9m/s | -51.2°C | 3.9% | 23.8hPa | 2.6V | 08:30:00 | 01:41:21 | 00:00:00 | |
| HSKMA3-T | 2026-08-31 05:13:01 | 53.17983 | 8.22783 | 282° | 11km/h | 25657m | 6.9m/s | -51.2°C | 0.7% | 23.8hPa | 2.6V | 18:12:15 | 01:41:21 | 00:00:00 | |
| DL1XH-west | 2026-08-31 05:12:59 | 53.17982 | 8.22792 | 280° | 11km/h | 25645m | 5.9m/s | -51.2°C | 0.7% | 23.9hPa | 2.7V | 18:12:15 | 01:41:19 | 00:00:00 | |
| DO2JMG | 2026-08-31 05:12:58 | 53.17981 | 8.22797 | 276° | 13km/h | 25638m | 6.8m/s | -51.2°C | 0.7% | 23.9hPa | 2.7V | 18:12:15 | 01:41:18 | 00:00:00 | |
| DB0NH | 2026-08-31 05:12:58 | 53.17981 | 8.22797 | 276° | 9km/h | 25639m | 6.8m/s | -51.1°C | 3.9% | 23.8hPa | 2.6V | 00:00:00 | 01:41:18 | 00:00:00 | |
| DM0DOS-11 | 2026-08-31 05:12:57 | 53.17981 | 8.22819 | 260° | 9km/h | 25615m | 6.8m/s | -51.1°C | 3.9% | 23.9hPa | 2.6V | 08:30:00 | 01:41:14 | 00:00:00 | |
| AA1-15 | 2026-08-31 05:12:57 | 53.17981 | 8.22803 | 272° | 16km/h | 25632m | 4.9m/s | -51.2°C | 0.7% | 23.9hPa | 2.7V | 18:12:15 | 01:41:17 | 00:00:00 | |
| BIOWL1-15 | 2026-08-31 05:12:55 | 53.17982 | 8.22825 | 253° | 7km/h | 25604m | 5.4m/s | -51°C | 0.7% | 24hPa | 2.7V | 18:12:15 | 01:41:12 | 00:00:00 | |
| DB0DAN | 2026-08-31 05:12:55 | 53.17981 | 8.22815 | 266° | 13km/h | 25622m | 6.3m/s | -51.1°C | 1.1% | 23.97hPa | 2.6V | 00:00:00 | 00:00:00 | 00:00:00 | |
| HSKMA3-T | 2026-08-31 05:12:51 | 53.17983 | 8.22829 | 256° | 11km/h | 25598m | 7.2m/s | -51.1°C | 0.7% | 24.1hPa | 2.6V | 18:12:15 | 01:41:11 | 00:00:00 | |
| DL1XH-west | 2026-08-31 05:12:49 | 53.17984 | 8.22840 | 263° | 15km/h | 25586m | 5.3m/s | -51.1°C | 0.7% | 24.1hPa | 2.6V | 18:12:15 | 01:41:09 | 00:00:00 | |
| DO2JMG | 2026-08-31 05:12:48 | 53.17984 | 8.22846 | 268° | 11km/h | 25580m | 6.8m/s | -51.1°C | 0.7% | 24.1hPa | 2.7V | 18:12:15 | 01:41:08 | 00:00:00 | |
| AA1-15 | 2026-08-31 05:12:47 | 53.17984 | 8.22849 | 286° | 7km/h | 25573m | 6m/s | -51.1°C | 0.8% | 24.1hPa | 2.7V | 18:12:15 | 01:41:07 | 00:00:00 | |
| BIOWL1-15 | 2026-08-31 05:12:46 | 53.17982 | 8.22859 | 278° | 11km/h | 25556m | 6.3m/s | -51.1°C | 0.7% | 24.2hPa | 2.6V | 18:12:15 | 01:41:04 | 00:00:00 | |
| BIOWL9-15 | 2026-08-31 05:12:46 | 53.17983 | 8.22855 | 290° | 7km/h | 25562m | 6.1m/s | -51.1°C | 1.1% | 24.2hPa | 2.6V | 00:00:00 | 00:00:00 | 00:00:00 | |
| DO2SHX-10 | 2026-08-31 05:12:44 | 53.17982 | 8.22859 | 278° | 9km/h | 25556m | 6.3m/s | -51.1°C | 3.9% | 24.2hPa | 2.6V | 00:00:00 | 01:41:04 | 00:00:00 | |
| DL4XJ-10 | 2026-08-31 05:12:43 | 53.17982 | 8.22863 | 262° | 7km/h | 25550m | 5.3m/s | -50.3°C | 0% | 0hPa | 2.7V | 00:00:00 | 00:00:00 | 00:00:00 | |
| DO2KSM | 2026-08-31 05:12:42 | 53.17982 | 8.22863 | 262° | 9km/h | 25550m | 5.3m/s | -51.1°C | 1.1% | 24.2hPa | 2.7V | 00:00:00 | 00:00:00 | 00:00:00 | |
| DB0DAN | 2026-08-31 05:12:40 | 53.17986 | 8.22868 | 175° | 9km/h | 25532m | 5.4m/s | -51.1°C | 1.1% | 24.3hPa | 2.7V | 00:00:00 | 00:00:00 | 00:00:00 | |
| HSKMA3-T | 2026-08-31 05:12:40 | 53.17986 | 8.22868 | 175° | 9km/h | 25532m | 5.4m/s | -51.1°C | 0.7% | 24.3hPa | 2.7V | 18:12:15 | 01:41:00 | 00:00:00 | |
| DL1XH-west | 2026-08-31 05:12:38 | 53.17991 | 8.22868 | 196° | 15km/h | 25520m | 6.3m/s | -51.2°C | 0.7% | 24.3hPa | 2.6V | 18:12:15 | 01:40:58 | 00:00:00 | |
| DO2JMG | 2026-08-31 05:12:37 | 53.17995 | 8.22870 | 203° | 13km/h | 25515m | 4.6m/s | -51.1°C | 0.7% | 24.4hPa | 2.6V | 18:12:15 | 01:40:57 | 00:00:00 | |
| AA1-15 | 2026-08-31 05:12:36 | 53.17997 | 8.22872 | 205° | 9km/h | 25510m | 4.9m/s | -51.2°C | 0.7% | 24.4hPa | 2.6V | 18:12:15 | 01:40:56 | 00:00:00 | |
| BIOWL1-15 | 2026-08-31 05:12:33 | 53.18000 | 8.22874 | 6° | 4km/h | 25492m | 5.3m/s | -51.1°C | 0.7% | 24.5hPa | 2.6V | 18:12:15 | 01:40:53 | 00:00:00 | |
| HSKMA3-T | 2026-08-31 05:12:29 | 53.17999 | 8.22876 | 169° | 2km/h | 25469m | 5.9m/s | -51.1°C | 0.8% | 24.5hPa | 2.7V | 18:12:15 | 01:40:49 | 00:00:00 | |
| DL1XH-west | 2026-08-31 05:12:27 | 53.18001 | 8.22872 | 122° | 9km/h | 25457m | 5.2m/s | -51.2°C | 0.7% | 24.6hPa | 2.6V | 18:12:15 | 01:40:47 | 00:00:00 | |
| DO2JMG | 2026-08-31 05:12:26 | 53.18002 | 8.22869 | 134° | 11km/h | 25452m | 4.6m/s | -51.2°C | 0.7% | 24.6hPa | 2.6V | 18:12:15 | 01:40:46 | 00:00:00 | |
| AA1-15 | 2026-08-31 05:12:25 | 53.18004 | 8.22867 | 154° | 11km/h | 25447m | 5.9m/s | -51.2°C | 0.7% | 24.6hPa | 2.6V | 18:12:15 | 01:40:45 | 00:00:00 | |
| DB0DAN | 2026-08-31 05:12:25 | 53.18004 | 8.22867 | 154° | 9km/h | 25447m | 5.9m/s | -51.2°C | 1.1% | 24.62hPa | 2.6V | 00:00:00 | 00:00:00 | 00:00:00 | |
| BIOWL1-15 | 2026-08-31 05:12:22 | 53.18014 | 8.22866 | 182° | 16km/h | 25430m | 5.8m/s | -51.2°C | 0.7% | 24.7hPa | 2.7V | 18:12:15 | 01:40:42 | 00:00:00 | |
| GOEST3-10 | 2026-08-31 05:12:22 | 53.18014 | 8.22866 | 183° | 13km/h | 25430m | 5.7m/s | -51.1°C | 3.8% | 24.6hPa | 2.6V | 00:00:00 | 01:40:42 | 00:00:00 | |
| DF5WG-10 | 2026-08-31 05:12:21 | 53.18019 | 8.22866 | 172° | 15km/h | 25424m | 6.4m/s | -51.1°C | 3.8% | 24.7hPa | 2.6V | 00:00:00 | 01:40:41 | 00:00:00 | |
| DO2SHX-10 | 2026-08-31 05:12:20 | 53.18022 | 8.22864 | 156° | 11km/h | 25418m | 5.1m/s | -51.1°C | 3.7% | 24.7hPa | 2.6V | 00:00:00 | 01:40:40 | 00:00:00 | |
| DL1XH1-15 | 2026-08-31 05:12:19 | 53.18027 | 8.22849 | 96° | 13km/h | 25384m | 6.5m/s | -51.1°C | 3.8% | 24.9hPa | 2.6V | 08:30:00 | 01:40:34 | 00:00:00 | |
| HSKMA3-T | 2026-08-31 05:12:19 | 53.18025 | 8.22862 | 146° | 11km/h | 25413m | 4.8m/s | -51.1°C | 0.6% | 24.8hPa | 2.6V | 18:12:15 | 01:40:39 | 00:00:00 | |
| DL1XH-west | 2026-08-31 05:12:16 | 53.18027 | 8.22856 | 88° | 4km/h | 25396m | 5.4m/s | -51.1°C | 0.7% | 24.8hPa | 2.7V | 18:12:15 | 01:40:36 | 00:00:00 | |
| DO2JMG | 2026-08-31 05:12:15 | 53.18027 | 8.22854 | 88° | 7km/h | 25390m | 6.2m/s | -51.1°C | 0.7% | 24.9hPa | 2.6V | 18:12:15 | 01:40:35 | 00:00:00 | |
| BIOWL1-15 | 2026-08-31 05:12:12 | 53.18030 | 8.22837 | 112° | 16km/h | 25373m | 5.3m/s | -51.3°C | 0.7% | 24.9hPa | 2.7V | 18:12:15 | 01:40:32 | 00:00:00 | |
| DB0DAN | 2026-08-31 05:12:10 | 53.18034 | 8.22827 | 144° | 13km/h | 25361m | 5.4m/s | -51.3°C | 1% | 24.97hPa | 2.7V | 00:00:00 | 00:00:00 | 00:00:00 | |
| SONDE2-11 | 2026-08-31 05:12:10 | 53.18036 | 8.22824 | 152° | 13km/h | 25356m | 5.3m/s | -51.3°C | 1.0% | 25.0hPa | 2.7V | 00:00:00 | 00:00:00 | 00:00:00 | |
| DL1XH1-15 | 2026-08-31 05:12:09 | 53.18050 | 8.22809 | 124° | 7km/h | 25326m | 5m/s | -51.4°C | 3.8% | 25.1hPa | 2.7V | 08:30:00 | 01:40:24 | 00:00:00 | |
| HSKMA3-T | 2026-08-31 05:12:09 | 53.18036 | 8.22824 | 152° | 15km/h | 25356m | 5.3m/s | -51.3°C | 0.6% | 25hPa | 2.6V | 18:12:15 | 01:40:29 | 00:00:00 | |
| DD8BA-10 | 2026-08-31 05:12:09 | 53.18036 | 8.22824 | 153° | 13km/h | 25356m | 5.3m/s | -51.2°C | 3.7% | 24.9hPa | 2.6V | 00:00:00 | 00:00:00 | 08:30:00 | |
| DD1CC2-15 | 2026-08-31 05:12:08 | 53.18036 | 8.22824 | 153° | 15km/h | 25356m | 5.3m/s | -51.3°C | 1.1% | 25.0hPa | 2.6V | 00:00:00 | 00:00:00 | 00:00:00 | |
| GOEST3-10 | 2026-08-31 05:12:07 | 53.18043 | 8.22818 | 148° | 11km/h | 25344m | 5.7m/s | -51.3°C | 3.8% | 24.9hPa | 2.6V | 00:00:00 | 00:00:00 | 00:00:00 | |
| DL1XH-15 | 2026-08-31 05:12:06 | 53.18052 | 8.22795 | 100° | 18km/h | 25309m | 6m/s | -51.6°C | 3.9% | 25.2hPa | 2.6V | 08:30:00 | 01:40:21 | 00:00:00 | |
| DL1XH-west | 2026-08-31 05:12:06 | 53.18046 | 8.22815 | 145° | 13km/h | 25338m | 5.4m/s | -51.4°C | 0.7% | 25.1hPa | 2.6V | 18:12:15 | 01:40:26 | 00:00:00 | |
| DO2JMG | 2026-08-31 05:12:05 | 53.18049 | 8.22812 | 145° | 9km/h | 25332m | 6.9m/s | -51.4°C | 0.8% | 25.1hPa | 2.7V | 18:12:15 | 01:40:25 | 00:00:00 | |
| BIOWL1-15 | 2026-08-31 05:12:01 | 53.18052 | 8.22795 | 100° | 18km/h | 25309m | 6m/s | -51.6°C | 0.7% | 25.2hPa | 2.6V | 18:12:15 | 01:40:21 | 00:00:00 | |
| HSKMA3-T | 2026-08-31 05:11:58 | 53.18056 | 8.22775 | 128° | 15km/h | 25292m | 6.4m/s | -51.7°C | 0.7% | 25.2hPa | 2.7V | 18:12:15 | 01:40:18 | 00:00:00 | |
| DF8AY | 2026-08-31 05:11:56 | 53.18062 | 8.22766 | 137° | 16km/h | 25279m | 6.9m/s | -51.7°C | 0.7% | 25.3hPa | 2.6V | 18:12:15 | 01:40:16 | 00:00:00 | |
| DM0DOS-11 | 2026-08-31 05:11:55 | 53.18067 | 8.22757 | 122° | 13km/h | 25268m | 4.4m/s | -51.8°C | 3.9% | 25.3hPa | 2.7V | 08:30:00 | 01:40:14 | 00:00:00 | |
| DB0DAN | 2026-08-31 05:11:55 | 53.18065 | 8.22761 | 131° | 15km/h | 25273m | 5.8m/s | -51.8°C | 1.1% | 25.32hPa | 2.6V | 00:00:00 | 00:00:00 | 00:00:00 | |
| DL1XH-west | 2026-08-31 05:11:55 | 53.18065 | 8.22761 | 131° | 15km/h | 25273m | 5.8m/s | -51.8°C | 0.7% | 25.3hPa | 2.6V | 18:12:15 | 01:40:15 | 00:00:00 | |
| DO2JMG | 2026-08-31 05:11:54 | 53.18067 | 8.22757 | 123° | 13km/h | 25268m | 4.4m/s | -51.8°C | 0.7% | 25.3hPa | 2.7V | 18:12:15 | 01:40:14 | 00:00:00 | |
| BIOWL1-15 | 2026-08-31 05:11:53 | 53.18069 | 8.22748 | 76° | 5km/h | 25251m | 5.1m/s | -51.9°C | 0.7% | 25.4hPa | 2.6V | 18:12:15 | 01:40:11 | 00:00:00 | |
| HSKMA3-T | 2026-08-31 05:11:47 | 53.18068 | 8.22728 | 93° | 18km/h | 25228m | 5.8m/s | -52°C | 0.8% | 25.5hPa | 2.7V | 18:12:15 | 01:40:07 | 00:00:00 | |
| DO2SHX-10 | 2026-08-31 05:11:47 | 53.18068 | 8.22728 | 93° | 15km/h | 25229m | 5.8m/s | -52.0°C | 3.9% | 25.4hPa | 2.7V | 00:00:00 | 01:40:07 | 00:00:00 | |
| DL1XH-15 | 2026-08-31 05:11:46 | 53.18067 | 8.22698 | 62° | 13km/h | 25194m | 5.7m/s | -52.3°C | 4% | 25.6hPa | 2.7V | 08:30:00 | 01:40:01 | 00:00:00 | |
| BIOWL1-15 | 2026-08-31 05:11:46 | 53.18065 | 8.22694 | 47° | 15km/h | 25189m | 5.4m/s | -52.3°C | 0.8% | 25.7hPa | 2.7V | 18:12:15 | 01:40:00 | 00:00:00 | |
| AA1-15 | 2026-08-31 05:11:45 | 53.18068 | 8.22715 | 101° | 11km/h | 25216m | 6.3m/s | -52.1°C | 0.8% | 25.5hPa | 2.7V | 18:12:15 | 01:40:05 | 00:00:00 | |
| DO2JMG | 2026-08-31 05:11:44 | 53.18069 | 8.22711 | 96° | 9km/h | 25210m | 4.8m/s | -52.2°C | 0.8% | 25.6hPa | 2.6V | 18:12:15 | 01:40:04 | 00:00:00 | |
| DO2SHX-10 | 2026-08-31 05:11:44 | 53.18069 | 8.22711 | 96° | 9km/h | 25211m | 4.8m/s | -52.1°C | 4.0% | 25.5hPa | 2.7V | 00:00:00 | 01:40:04 | 00:00:00 | |
| DL4XJ-10 | 2026-08-31 05:11:43 | 53.18069 | 8.22707 | 83° | 13km/h | 25207m | 4.2m/s | -51.4°C | 0% | 0hPa | 2.7V | 00:00:00 | 00:00:00 | 00:00:00 | |
| DO2LYB-13 | 2026-08-31 05:11:42 | 53.18069 | 8.22707 | 84° | 9km/h | 25206m | 4.2m/s | -52.2°C | 1.2% | 25.6hPa | 2.7V | 00:00:00 | 00:00:00 | 00:00:00 | |
| DB0DAN | 2026-08-31 05:11:40 | 53.18065 | 8.22694 | 47° | 13km/h | 25189m | 5.4m/s | -52.3°C | 1.1% | 25.66hPa | 2.7V | 00:00:00 | 00:00:00 | 00:00:00 | |
| DD8BA-10 | 2026-08-31 05:11:39 | 53.18062 | 8.22690 | 32° | 15km/h | 25183m | 7.4m/s | -52.3°C | 4.0% | 25.6hPa | 2.6V | 00:00:00 | 00:00:00 | 00:00:00 | |
| DO2SHX-10 | 2026-08-31 05:11:38 | 53.18059 | 8.22687 | 17° | 18km/h | 25176m | 6.0m/s | -52.3°C | 4.1% | 25.7hPa | 2.6V | 00:00:00 | 01:39:58 | 00:00:00 | |
| GOEST3-10 | 2026-08-31 05:11:37 | 53.18055 | 8.22685 | 17° | 18km/h | 25170m | 5.1m/s | -52.3°C | 4.1% | 25.7hPa | 2.6V | 00:00:00 | 00:00:00 | 00:00:00 | |
| DL1XH-15 | 2026-08-31 05:11:36 | 53.18032 | 8.22667 | 31° | 7km/h | 25134m | 4.8m/s | -52.2°C | 4.1% | 25.9hPa | 2.6V | 08:30:00 | 01:39:51 | 00:00:00 | |
| HSKMA3-T | 2026-08-31 05:11:36 | 53.18050 | 8.22683 | 23° | 20km/h | 25164m | 6.9m/s | -52.4°C | 0.8% | 25.8hPa | 2.7V | 18:12:15 | 01:39:56 | 00:00:00 | |
| DF8AY | 2026-08-31 05:11:35 | 53.18046 | 8.22679 | 29° | 22km/h | 25158m | 5.8m/s | -52.3°C | 0.9% | 25.8hPa | 2.7V | 18:12:15 | 01:39:55 | 00:00:00 | |
| DL1XH-west | 2026-08-31 05:11:34 | 53.18041 | 8.22675 | 31° | 20km/h | 25152m | 5.1m/s | -52.3°C | 0.9% | 25.8hPa | 2.7V | 18:12:15 | 01:39:54 | 00:00:00 | |
| DO2JMG | 2026-08-31 05:11:33 | 53.18038 | 8.22671 | 27° | 15km/h | 25146m | 7.1m/s | -52.3°C | 0.9% | 25.8hPa | 2.6V | 18:12:15 | 01:39:53 | 00:00:00 | |
| DF8AY-15 | 2026-08-31 05:11:33 | 53.18038 | 8.22671 | 28° | 11km/h | 25146m | 7.1m/s | -52.2°C | 4.1% | 25.8hPa | 2.6V | 00:00:00 | 01:39:53 | 00:00:00 | |
| DO2SHX-10 | 2026-08-31 05:11:32 | 53.18034 | 8.22669 | 22° | 9km/h | 25140m | 6.3m/s | -52.2°C | 4.1% | 25.8hPa | 2.6V | 00:00:00 | 01:39:52 | 00:00:00 | |
| BUE01 | 2026-08-31 05:11:31 | 53.18033 | 8.22667 | 31° | 5km/h | 25134m | 4.8m/s | -52.3°C | 1.1% | 25.9hPa | 2.6V | 00:00:00 | 00:00:00 | 00:00:00 | |
| DL1XH1-15 | 2026-08-31 05:11:29 | 53.18022 | 8.22655 | 33° | 13km/h | 25092m | 6.8m/s | -52.3°C | 4.1% | 26.1hPa | 2.6V | 08:30:00 | 01:39:44 | 00:00:00 | |
| BIOWL1-15 | 2026-08-31 05:11:29 | 53.18030 | 8.22662 | 62° | 7km/h | 25121m | 5.5m/s | -52.2°C | 0.8% | 25.9hPa | 2.7V | 18:12:15 | 01:39:49 | 00:00:00 | |
| DD8BA-10 | 2026-08-31 05:11:29 | 53.18030 | 8.22662 | 62° | 11km/h | 25122m | 5.5m/s | -52.2°C | 4.0% | 25.9hPa | 2.6V | 00:00:00 | 00:00:00 | 00:00:00 | |
| DB0NH | 2026-08-31 05:11:28 | 53.18029 | 8.22660 | 51° | 11km/h | 25116m | 4.6m/s | -52.2°C | 4.0% | 25.9hPa | 2.6V | 00:00:00 | 01:39:48 | 00:00:00 | |
| DL1XH-15 | 2026-08-31 05:11:26 | 53.18012 | 8.22645 | 19° | 18km/h | 25074m | 6.5m/s | -52.3°C | 4.1% | 26.1hPa | 2.6V | 08:30:00 | 01:39:41 | 00:00:00 | |
| HSKMA3-T | 2026-08-31 05:11:25 | 53.18025 | 8.22657 | 21° | 9km/h | 25099m | 6m/s | -52.4°C | 0.9% | 26hPa | 2.6V | 18:12:15 | 01:39:45 | 00:00:00 | |
| DB0DAN | 2026-08-31 05:11:25 | 53.18025 | 8.22657 | 21° | 9km/h | 25099m | 6m/s | -52.4°C | 1.2% | 26.03hPa | 2.6V | 00:00:00 | 00:00:00 | 00:00:00 | |
| DL1XH-west | 2026-08-31 05:11:24 | 53.18022 | 8.22655 | 33° | 13km/h | 25092m | 6.8m/s | -52.3°C | 0.9% | 26.1hPa | 2.6V | 18:12:15 | 01:39:44 | 00:00:00 | |
| DO2JMG | 2026-08-31 05:11:23 | 53.18019 | 8.22651 | 35° | 16km/h | 25086m | 5.2m/s | -52.4°C | 0.9% | 26.1hPa | 2.7V | 18:12:15 | 01:39:43 | 00:00:00 | |
| BIOWL1-15 | 2026-08-31 05:11:19 | 53.18003 | 8.22639 | 24° | 18km/h | 25063m | 5.3m/s | -52.3°C | 0.8% | 26.2hPa | 2.6V | 18:12:15 | 01:39:39 | 00:00:00 | |
| DD8BA-10 | 2026-08-31 05:11:19 | 53.18003 | 8.22639 | 25° | 9km/h | 25063m | 5.3m/s | -52.3°C | 4.1% | 26.1hPa | 2.7V | 00:00:00 | 00:00:00 | 00:00:00 | |
| DO2SHX-10 | 2026-08-31 05:11:17 | 53.17996 | 8.22630 | 60° | 13km/h | 25051m | 5.4m/s | -52.2°C | 4.0% | 26.2hPa | 2.7V | 00:00:00 | 01:39:37 | 00:00:00 | |
| DL1XH-15 | 2026-08-31 05:11:16 | 53.17995 | 8.22617 | 19° | 2km/h | 25018m | 7m/s | -52.1°C | 3.9% | 26.3hPa | 2.7V | 08:30:00 | 01:39:31 | 00:00:00 | |
| DM0DOS-11 | 2026-08-31 05:11:15 | 53.17995 | 8.22618 | 109° | 4km/h | 25035m | 6.6m/s | -52.1°C | 4% | 26.3hPa | 2.6V | 08:30:00 | 01:39:34 | 00:00:00 | |
| HSKMA3-T | 2026-08-31 05:11:15 | 53.17995 | 8.22621 | 91° | 9km/h | 25041m | 5.7m/s | -52.1°C | 0.8% | 26.3hPa | 2.6V | 18:12:15 | 01:39:35 | 00:00:00 | |
| DF8AY | 2026-08-31 05:11:14 | 53.17995 | 8.22618 | 110° | 4km/h | 25035m | 6.6m/s | -52.2°C | 0.8% | 26.3hPa | 2.6V | 18:12:15 | 01:39:34 | 00:00:00 | |
| DL1XH-west | 2026-08-31 05:11:13 | 53.17995 | 8.22617 | 183° | 2km/h | 25029m | 5.4m/s | -52.2°C | 0.8% | 26.3hPa | 2.6V | 18:12:15 | 01:39:33 | 00:00:00 | |
| DO2JMG | 2026-08-31 05:11:12 | 53.17996 | 8.22617 | 285° | 2km/h | 25024m | 4.7m/s | -52.2°C | 0.8% | 26.3hPa | 2.6V | 18:12:15 | 01:39:32 | 00:00:00 | |
| DB0DAN | 2026-08-31 05:11:10 | 53.17994 | 8.22617 | 18° | 5km/h | 25011m | 5.9m/s | -52.2°C | 1.1% | 26.36hPa | 2.7V | 00:00:00 | 00:00:00 | 00:00:00 | |
| BIOWL1-15 | 2026-08-31 05:11:10 | 53.17990 | 8.22616 | 357° | 13km/h | 25000m | 7.1m/s | -52.3°C | 0.8% | 26.4hPa | 2.6V | 18:12:15 | 01:39:28 | 00:00:00 | |
| DK9SH | 2026-08-31 05:11:09 | 53.17992 | 8.22616 | 7° | 9km/h | 25006m | 5.3m/s | -52.2°C | 1.1% | 26.4hPa | 2.7V | 00:00:00 | 00:00:00 | 00:00:00 | |
| DO2SHX-10 | 2026-08-31 05:11:08 | 53.17990 | 8.22616 | 357° | 15km/h | 25000m | 7.0m/s | -52.2°C | 4.0% | 26.4hPa | 2.7V | 00:00:00 | 01:39:28 | 00:00:00 | |
| DD1CC2-15 | 2026-08-31 05:11:07 | 53.17990 | 8.22616 | 358° | 13km/h | 25000m | 7.1m/s | -52.3°C | 1.1% | 26.4hPa | 2.7V | 00:00:00 | 00:00:00 | 00:00:00 | |
| DO3DL | 2026-08-31 05:11:06 | 53.17986 | 8.22617 | 357° | 15km/h | 24994m | 5.4m/s | -52.3°C | 1.1% | 26.4hPa | 2.7V | 00:00:00 | 00:00:00 | 00:00:00 | |
| DL1XH-15 | 2026-08-31 05:11:05 | 53.17977 | 8.22594 | 165° | 7km/h | 24954m | 5.2m/s | -52.4°C | 4% | 26.6hPa | 2.7V | 08:30:00 | 01:39:20 | 00:00:00 | |
| DM0DOS-11 | 2026-08-31 05:11:05 | 53.17976 | 8.22611 | 55° | 15km/h | 24976m | 5.7m/s | -52.3°C | 4% | 26.5hPa | 2.7V | 08:30:00 | 01:39:24 | 00:00:00 | |
| HSKMA3-T | 2026-08-31 05:11:05 | 53.17979 | 8.22615 | 25° | 15km/h | 24983m | 6.9m/s | -52.3°C | 0.7% | 26.5hPa | 2.7V | 18:12:15 | 01:39:25 | 00:00:00 | |
| AA1-15 | 2026-08-31 05:11:04 | 53.17976 | 8.22611 | 56° | 15km/h | 24976m | 5.7m/s | -52.3°C | 0.8% | 26.5hPa | 2.7V | 18:12:15 | 01:39:24 | 00:00:00 | |
| DF8AY | 2026-08-31 05:11:03 | 53.17975 | 8.22605 | 80° | 15km/h | 24971m | 4.8m/s | -52.3°C | 0.8% | 26.6hPa | 2.6V | 18:12:15 | 01:39:23 | 00:00:00 | |
| DO2JMG | 2026-08-31 05:11:02 | 53.17974 | 8.22600 | 99° | 11km/h | 24966m | 5.7m/s | -52.3°C | 0.8% | 26.6hPa | 2.6V | 18:12:15 | 01:39:22 | 00:00:00 | |
| BIOWL1-15 | 2026-08-31 05:10:57 | 53.17980 | 8.22593 | 49° | 4km/h | 24937m | 5.8m/s | -52.6°C | 0.9% | 26.7hPa | 2.6V | 18:12:15 | 01:39:17 | 00:00:00 | |
| DL3AQ-11 | 2026-08-31 05:10:56 | 53.17976 | 8.22591 | 1° | 15km/h | 24926m | 6.8m/s | -52.7°C | 1.2% | 26.7hPa | 2.6V | 00:00:00 | 00:00:00 | 00:00:00 | |
| DB0DAN | 2026-08-31 05:10:55 | 53.17976 | 8.22591 | 2° | 15km/h | 24925m | 6.8m/s | -52.7°C | 1.2% | 26.74hPa | 2.6V | 00:00:00 | 00:00:00 | 00:00:00 | |
| DM0DOS-11 | 2026-08-31 05:10:55 | 53.17971 | 8.22592 | 351° | 20km/h | 24919m | 6.7m/s | -52.7°C | 4.2% | 26.8hPa | 2.6V | 08:30:00 | 01:39:14 | 00:00:00 | |
| HSKMA3-T | 2026-08-31 05:10:55 | 53.17976 | 8.22591 | 2° | 15km/h | 24925m | 6.8m/s | -52.7°C | 0.9% | 26.7hPa | 2.6V | 18:12:15 | 01:39:15 | 00:00:00 | |
| AA1-15 | 2026-08-31 05:10:54 | 53.17971 | 8.22592 | 352° | 20km/h | 24919m | 6.7m/s | -52.7°C | 0.9% | 26.8hPa | 2.6V | 18:12:15 | 01:39:14 | 00:00:00 | |
| DF8AY | 2026-08-31 05:10:52 | 53.17961 | 8.22594 | 360° | 20km/h | 24907m | 6.4m/s | -52.7°C | 0.9% | 26.8hPa | 2.7V | 18:12:15 | 01:39:12 | 00:00:00 | |
| DO2JMG | 2026-08-31 05:10:51 | 53.17957 | 8.22593 | 11° | 16km/h | 24901m | 6.4m/s | -52.7°C | 0.9% | 26.8hPa | 2.7V | 18:12:15 | 01:39:11 | 00:00:00 | |
| BIOWL1-15 | 2026-08-31 05:10:46 | 53.17945 | 8.22592 | 355° | 9km/h | 24871m | 6.8m/s | -52.6°C | 0.9% | 27hPa | 2.7V | 18:12:15 | 01:39:06 | 00:00:00 | |
| HSKMA3-T | 2026-08-31 05:10:44 | 53.17939 | 8.22593 | 352° | 15km/h | 24860m | 5.2m/s | -52.5°C | 0.8% | 27hPa | 2.6V | 18:12:15 | 01:39:04 | 00:00:00 | |
| AA1-15 | 2026-08-31 05:10:43 | 53.17935 | 8.22594 | 342° | 18km/h | 24854m | 7m/s | -52.5°C | 0.8% | 27hPa | 2.6V | 18:12:15 | 01:39:03 | 00:00:00 | |
| DL1XH-west | 2026-08-31 05:10:41 | 53.17925 | 8.22601 | 341° | 24km/h | 24842m | 5.2m/s | -52.5°C | 0.8% | 27.1hPa | 2.7V | 18:12:15 | 01:39:01 | 00:00:00 | |
| DB0DAN | 2026-08-31 05:10:40 | 53.17919 | 8.22603 | 349° | 24km/h | 24836m | 6.8m/s | -52.5°C | 1.1% | 27.12hPa | 2.7V | 00:00:00 | 00:00:00 | 00:00:00 | |
| DO2JMG | 2026-08-31 05:10:40 | 53.17919 | 8.22603 | 349° | 24km/h | 24836m | 6.8m/s | -52.5°C | 0.8% | 27.1hPa | 2.7V | 18:12:15 | 01:39:00 | 00:00:00 | |
| BIOWL1-15 | 2026-08-31 05:10:39 | 53.17895 | 8.22607 | 336° | 15km/h | 24808m | 5.4m/s | -52.6°C | 0.8% | 27.2hPa | 2.7V | 18:12:15 | 01:38:55 | 00:00:00 | |
| DD8BA-10 | 2026-08-31 05:10:39 | 53.17913 | 8.22604 | 360° | 16km/h | 24830m | 5.6m/s | -52.4°C | 4.1% | 27.1hPa | 2.6V | 00:00:00 | 00:00:00 | 08:30:00 | |
| DO2SHX-10 | 2026-08-31 05:10:38 | 53.17907 | 8.22604 | 5° | 18km/h | 24825m | 4.3m/s | -52.5°C | 4.0% | 27.1hPa | 2.6V | 00:00:00 | 01:38:58 | 00:00:00 | |
| SMARD9-15 | 2026-08-31 05:10:37 | 53.17903 | 8.22604 | 358° | 16km/h | 24820m | 5.2m/s | -52.5°C | -1.0% | -1.0hPa | 2.6V | 00:00:00 | 00:00:00 | 00:00:00 | |
| SONDE2-11 | 2026-08-31 05:10:36 | 53.17898 | 8.22605 | 346° | 15km/h | 24814m | 6.3m/s | -52.6°C | 1.1% | 27.2hPa | 2.6V | 00:00:00 | 00:00:00 | 00:00:00 | |
| DL1XH-15 | 2026-08-31 05:10:35 | 53.17877 | 8.22620 | 322° | 16km/h | 24780m | 6.7m/s | -52.7°C | 4.1% | 27.4hPa | 2.6V | 08:30:00 | 01:38:50 | 00:00:00 | |
| HSKMA3-T | 2026-08-31 05:10:33 | 53.17888 | 8.22611 | 344° | 15km/h | 24797m | 6.5m/s | -52.7°C | 0.9% | 27.3hPa | 2.7V | 18:12:15 | 01:38:53 | 00:00:00 | |
| DF8AY | 2026-08-31 05:10:31 | 53.17880 | 8.22616 | 334° | 16km/h | 24786m | 5.6m/s | -52.7°C | 0.9% | 27.3hPa | 2.6V | 18:12:15 | 01:38:51 | 00:00:00 | |
| DL1XH-west | 2026-08-31 05:10:30 | 53.17877 | 8.22620 | 322° | 16km/h | 24780m | 6.7m/s | -52.7°C | 0.8% | 27.4hPa | 2.6V | 18:12:15 | 01:38:50 | 00:00:00 | |
| DO2JMG | 2026-08-31 05:10:29 | 53.17873 | 8.22624 | 322° | 16km/h | 24774m | 5.4m/s | -52.7°C | 0.9% | 27.4hPa | 2.7V | 18:12:15 | 01:38:49 | 00:00:00 | |
| DO2SHX-10 | 2026-08-31 05:10:29 | 53.17873 | 8.22624 | 322° | 16km/h | 24774m | 5.4m/s | -52.7°C | 4.1% | 27.3hPa | 2.7V | 00:00:00 | 01:38:49 | 00:00:00 | |
| DJ2DS-15 | 2026-08-31 05:10:28 | 53.17870 | 8.22628 | 331° | 16km/h | 24769m | 6.1m/s | -52.7°C | 4.1% | 27.4hPa | 2.7V | 00:00:00 | 01:38:48 | 00:00:00 | |
| DK9SH | 2026-08-31 05:10:27 | 53.17866 | 8.22630 | 348° | 16km/h | 24762m | 6.5m/s | -52.8°C | 1.2% | 27.4hPa | 2.7V | 00:00:00 | 00:00:00 | 00:00:00 | |
| DO3DL | 2026-08-31 05:10:26 | 53.17866 | 8.22630 | 348° | 16km/h | 24762m | 6.5m/s | -52.8°C | 1.2% | 27.4hPa | 2.7V | 00:00:00 | 00:00:00 | 00:00:00 | |
| DM0DOS-11 | 2026-08-31 05:10:25 | 53.17854 | 8.22633 | 349° | 15km/h | 24746m | 6.8m/s | -52.9°C | 4.1% | 27.5hPa | 2.7V | 08:30:00 | 01:38:44 | 00:00:00 | |
| DB0DAN | 2026-08-31 05:10:25 | 53.17857 | 8.22632 | 357° | 15km/h | 24752m | 4.4m/s | -52.8°C | 1.1% | 27.48hPa | 2.6V | 00:00:00 | 00:00:00 | 00:00:00 | |
| DL1XH-15 | 2026-08-31 05:10:25 | 53.17841 | 8.22644 | 341° | 16km/h | 24725m | 6.3m/s | -53.1°C | 4.2% | 27.6hPa | 2.6V | 08:30:00 | 01:38:40 | 00:00:00 | |
| BIOWL1-15 | 2026-08-31 05:10:25 | 53.17857 | 8.22632 | 357° | 16km/h | 24752m | 4.4m/s | -52.8°C | 0.8% | 27.5hPa | 2.6V | 18:12:15 | 01:38:45 | 00:00:00 | |
| HSKMA3-T | 2026-08-31 05:10:23 | 53.17851 | 8.22634 | 331° | 13km/h | 24740m | 5.8m/s | -52.9°C | 0.9% | 27.5hPa | 2.7V | 18:12:15 | 01:38:43 | 00:00:00 | |
| DF8AY | 2026-08-31 05:10:20 | 53.17841 | 8.22644 | 342° | 16km/h | 24725m | 6.3m/s | -53.1°C | 0.9% | 27.6hPa | 2.6V | 18:12:15 | 01:38:40 | 00:00:00 | |
| DL1XH1-15 | 2026-08-31 05:10:20 | 53.17818 | 8.22644 | 341° | 11km/h | 24692m | 5.1m/s | -53°C | 4.3% | 27.8hPa | 2.6V | 08:30:00 | 01:38:34 | 00:00:00 | |
| DL1XH-west | 2026-08-31 05:10:19 | 53.17837 | 8.22645 | 357° | 18km/h | 24719m | 6.2m/s | -53.1°C | 0.9% | 27.6hPa | 2.6V | 18:12:15 | 01:38:39 | 00:00:00 | |
| DO2JMG | 2026-08-31 05:10:18 | 53.17832 | 8.22645 | 6° | 20km/h | 24713m | 4.8m/s | -53.1°C | 1% | 27.6hPa | 2.6V | 18:12:15 | 01:38:38 | 00:00:00 | |
| BIOWL1-15 | 2026-08-31 05:10:16 | 53.17818 | 8.22644 | 342° | 11km/h | 24692m | 5.1m/s | -53°C | 1% | 27.8hPa | 2.6V | 18:12:15 | 01:38:34 | 00:00:00 | |
| DL1XH-15 | 2026-08-31 05:10:15 | 53.17802 | 8.22659 | 315° | 22km/h | 24670m | 6.7m/s | -52.9°C | 4.2% | 27.8hPa | 2.7V | 08:30:00 | 01:38:30 | 00:00:00 | |
| AA1-15 | 2026-08-31 05:10:13 | 53.17815 | 8.22646 | 337° | 15km/h | 24686m | 6.3m/s | -53°C | 0.9% | 27.8hPa | 2.6V | 18:12:15 | 01:38:33 | 00:00:00 | |
| HSKMA3-T | 2026-08-31 05:10:12 | 53.17811 | 8.22649 | 333° | 18km/h | 24680m | 5.1m/s | -52.9°C | 0.9% | 27.8hPa | 2.6V | 18:12:15 | 01:38:32 | 00:00:00 | |
| DB0DAN | 2026-08-31 05:10:10 | 53.17803 | 8.22659 | 316° | 20km/h | 24670m | 6.7m/s | -52.9°C | 1.2% | 27.82hPa | 2.7V | 00:00:00 | 00:00:00 | 00:00:00 | |
| DF8AY | 2026-08-31 05:10:10 | 53.17803 | 8.22659 | 316° | 22km/h | 24670m | 6.7m/s | -52.9°C | 0.9% | 27.8hPa | 2.7V | 18:12:15 | 01:38:30 | 00:00:00 | |
| DL1XH-west | 2026-08-31 05:10:08 | 53.17796 | 8.22672 | 312° | 20km/h | 24658m | 5.3m/s | -52.9°C | 0.9% | 27.9hPa | 2.6V | 18:12:15 | 01:38:28 | 00:00:00 | |
| BIOWL1-15 | 2026-08-31 05:10:06 | 53.17781 | 8.22687 | 330° | 13km/h | 24635m | 6.2m/s | -52.9°C | 0.9% | 28hPa | 2.7V | 18:12:15 | 01:38:24 | 00:00:00 | |
| DL1XH-15 | 2026-08-31 05:10:05 | 53.17770 | 8.22703 | 331° | 18km/h | 24614m | 6.1m/s | -52.8°C | 4.1% | 28.1hPa | 2.6V | 08:30:00 | 01:38:20 | 00:00:00 | |
| HSKMA3-T | 2026-08-31 05:10:02 | 53.17776 | 8.22695 | 312° | 15km/h | 24625m | 4.3m/s | -52.8°C | 0.9% | 28hPa | 2.6V | 18:12:15 | 01:38:22 | 00:00:00 | |
| DF8AY | 2026-08-31 05:10:00 | 53.17770 | 8.22703 | 332° | 18km/h | 24614m | 6.1m/s | -52.8°C | 0.8% | 28.1hPa | 2.6V | 18:12:15 | 01:38:20 | 00:00:00 | |
| DM0DOS-11 | 2026-08-31 05:09:59 | 53.17746 | 8.22725 | 320° | 11km/h | 24581m | 6.8m/s | -52.7°C | 4.2% | 28.2hPa | 2.6V | 08:30:00 | 01:38:14 | 00:00:00 | |
| DL1XH-west | 2026-08-31 05:09:58 | 53.17761 | 8.22709 | 341° | 22km/h | 24603m | 4.7m/s | -52.8°C | 0.9% | 28.1hPa | 2.7V | 18:12:15 | 01:38:18 | 00:00:00 | |
| DO2JMG | 2026-08-31 05:09:57 | 53.17756 | 8.22713 | 333° | 20km/h | 24598m | 5.9m/s | -52.7°C | 0.9% | 28.1hPa | 2.7V | 18:12:15 | 01:38:17 | 00:00:00 | |
| DB0DAN | 2026-08-31 05:09:55 | 53.17749 | 8.22721 | 315° | 15km/h | 24587m | 5.2m/s | -52.7°C | 1.2% | 28.21hPa | 2.6V | 00:00:00 | 00:00:00 | 00:00:00 | |
| AA1-15 | 2026-08-31 05:09:52 | 53.17743 | 8.22729 | 312° | 5km/h | 24570m | 5.1m/s | -52.7°C | 0.9% | 28.3hPa | 2.7V | 18:12:15 | 01:38:12 | 00:00:00 | |
| HSKMA3-T | 2026-08-31 05:09:51 | 53.17743 | 8.22731 | 287° | 5km/h | 24564m | 6.7m/s | -52.7°C | 0.9% | 28.3hPa | 2.7V | 18:12:15 | 01:38:11 | 00:00:00 | |
| GOEST3-10 | 2026-08-31 05:09:50 | 53.17742 | 8.22733 | 279° | 9km/h | 24558m | 5.0m/s | -52.7°C | 4.1% | 28.3hPa | 2.7V | 00:00:00 | 01:38:10 | 00:00:00 | |
| DL1XH1-15 | 2026-08-31 05:09:49 | 53.17730 | 8.22746 | 312° | 15km/h | 24524m | 5.7m/s | -52.8°C | 4.2% | 28.5hPa | 2.6V | 08:30:00 | 01:38:04 | 00:00:00 | |
| DF8AY | 2026-08-31 05:09:49 | 53.17742 | 8.22735 | 298° | 5km/h | 24553m | 4.8m/s | -52.7°C | 0.9% | 28.4hPa | 2.6V | 18:12:15 | 01:38:09 | 00:00:00 | |
| DL1XH-west | 2026-08-31 05:09:47 | 53.17738 | 8.22738 | 348° | 11km/h | 24541m | 5.5m/s | -52.7°C | 0.9% | 28.4hPa | 2.6V | 18:12:15 | 01:38:07 | 00:00:00 | |
| DO2JMG | 2026-08-31 05:09:46 | 53.17735 | 8.22740 | 342° | 13km/h | 24536m | 5.1m/s | -52.8°C | 0.9% | 28.4hPa | 2.7V | 18:12:15 | 01:38:06 | 00:00:00 | |
| BIOWL1-15 | 2026-08-31 05:09:43 | 53.17727 | 8.22751 | 304° | 15km/h | 24519m | 4.1m/s | -52.8°C | 0.9% | 28.5hPa | 2.6V | 18:12:15 | 01:38:03 | 00:00:00 | |
| AA1-15 | 2026-08-31 05:09:42 | 53.17725 | 8.22756 | 307° | 13km/h | 24514m | 5.4m/s | -52.7°C | 0.8% | 28.6hPa | 2.6V | 18:12:15 | 01:38:02 | 00:00:00 | |
| HSKMA3-T | 2026-08-31 05:09:40 | 53.17721 | 8.22763 | 307° | 9km/h | 24504m | 4.8m/s | -52.7°C | 1% | 28.6hPa | 2.7V | 18:12:15 | 01:38:00 | 00:00:00 | |
| DB0DAN | 2026-08-31 05:09:40 | 53.17721 | 8.22763 | 307° | 9km/h | 24504m | 4.8m/s | -52.7°C | 1.2% | 28.6hPa | 2.7V | 00:00:00 | 00:00:00 | 00:00:00 | |
| DO2SHX-10 | 2026-08-31 05:09:40 | 53.17721 | 8.22763 | 308° | 9km/h | 24504m | 4.7m/s | -52.6°C | 4.2% | 28.5hPa | 2.7V | 00:00:00 | 01:38:00 | 00:00:00 | |
| DL1XH1-15 | 2026-08-31 05:09:39 | 53.17721 | 8.22775 | 108° | 2km/h | 24469m | 4.3m/s | -52.6°C | 4.3% | 28.7hPa | 2.7V | 08:30:00 | 01:37:54 | 00:00:00 | |
| DF8AY | 2026-08-31 05:09:38 | 53.17720 | 8.22770 | 268° | 9km/h | 24492m | 5.7m/s | -52.8°C | 1% | 28.6hPa | 2.6V | 18:12:15 | 01:37:58 | 00:00:00 | |
| DL1XH-west | 2026-08-31 05:09:36 | 53.17721 | 8.22775 | 249° | 4km/h | 24481m | 6.6m/s | -52.7°C | 1% | 28.7hPa | 2.6V | 18:12:15 | 01:37:56 | 00:00:00 | |
| DL1XH-15 | 2026-08-31 05:09:35 | 53.17722 | 8.22783 | 278° | 11km/h | 24448m | 4.9m/s | -52.5°C | 4.1% | 28.8hPa | 2.6V | 08:30:00 | 01:37:50 | 00:00:00 | |
| DO2JMG | 2026-08-31 05:09:35 | 53.17721 | 8.22776 | 142° | 2km/h | 24475m | 5.9m/s | -52.7°C | 1% | 28.7hPa | 2.6V | 18:12:15 | 01:37:55 | 00:00:00 | |
| BIOWL1-15 | 2026-08-31 05:09:33 | 53.17721 | 8.22775 | 195° | 2km/h | 24464m | 6m/s | -52.6°C | 1% | 28.8hPa | 2.7V | 18:12:15 | 01:37:53 | 00:00:00 | |
| AA1-15 | 2026-08-31 05:09:32 | 53.17722 | 8.22776 | 259° | 5km/h | 24458m | 5.9m/s | -52.6°C | 1% | 28.8hPa | 2.7V | 18:12:15 | 01:37:52 | 00:00:00 | |
| HSKMA3-T | 2026-08-31 05:09:30 | 53.17722 | 8.22783 | 278° | 11km/h | 24448m | 4.9m/s | -52.5°C | 0.9% | 28.8hPa | 2.6V | 18:12:15 | 01:37:50 | 00:00:00 | |
| DF8AY | 2026-08-31 05:09:27 | 53.17718 | 8.22792 | 342° | 5km/h | 24431m | 4.7m/s | -52.5°C | 0.8% | 28.9hPa | 2.7V | 18:12:15 | 01:37:47 | 00:00:00 | |
| DL1XH-west | 2026-08-31 05:09:26 | 53.17717 | 8.22792 | 338° | 5km/h | 24426m | 4.4m/s | -52.5°C | 0.9% | 28.9hPa | 2.6V | 18:12:15 | 01:37:46 | 00:00:00 | |
| DB0DAN | 2026-08-31 05:09:25 | 53.17716 | 8.22794 | 295° | 4km/h | 24421m | 6.4m/s | -52.5°C | 1.2% | 28.95hPa | 2.6V | 00:00:00 | 00:00:00 | 00:00:00 | |
| DO2JMG | 2026-08-31 05:09:25 | 53.17716 | 8.22794 | 295° | 4km/h | 24421m | 6.4m/s | -52.5°C | 0.9% | 28.9hPa | 2.6V | 18:12:15 | 01:37:45 | 00:00:00 | |
| BIOWL1-15 | 2026-08-31 05:09:23 | 53.17717 | 8.22797 | 221° | 5km/h | 24410m | 4.6m/s | -52.3°C | 0.8% | 29hPa | 2.7V | 18:12:15 | 01:37:43 | 00:00:00 | |
| AA1-15 | 2026-08-31 05:09:22 | 53.17718 | 8.22798 | 186° | 5km/h | 24404m | 6.7m/s | -52.3°C | 0.8% | 29hPa | 2.7V | 18:12:15 | 01:37:42 | 00:00:00 | |
| HSKMA3-T | 2026-08-31 05:09:20 | 53.17722 | 8.22797 | 163° | 9km/h | 24393m | 5.1m/s | -52.3°C | 0.8% | 29.1hPa | 2.6V | 18:12:15 | 01:37:40 | 00:00:00 | |
| DL1XH1-15 | 2026-08-31 05:09:19 | 53.17734 | 8.22793 | 126° | 4km/h | 24358m | 4.3m/s | -52.4°C | 4.1% | 29.2hPa | 2.7V | 08:30:00 | 01:37:34 | 00:00:00 | |
| DF8AY | 2026-08-31 05:09:17 | 53.17730 | 8.22796 | 184° | 9km/h | 24375m | 4.9m/s | -52.3°C | 0.8% | 29.2hPa | 2.6V | 18:12:15 | 01:37:37 | 00:00:00 | |
| DL1XH-west | 2026-08-31 05:09:16 | 53.17731 | 8.22796 | 163° | 7km/h | 24369m | 7m/s | -52.4°C | 0.9% | 29.2hPa | 2.7V | 18:12:15 | 01:37:36 | 00:00:00 | |
| DO2JMG | 2026-08-31 05:09:14 | 53.17734 | 8.22793 | 127° | 4km/h | 24359m | 4.3m/s | -52.4°C | 0.9% | 29.2hPa | 2.7V | 18:12:15 | 01:37:34 | 00:00:00 | |
| BIOWL1-15 | 2026-08-31 05:09:13 | 53.17734 | 8.22793 | 165° | 2km/h | 24353m | 6.2m/s | -52.3°C | 0.9% | 29.2hPa | 2.6V | 18:12:15 | 01:37:33 | 00:00:00 | |
| AA1-15 | 2026-08-31 05:09:12 | 53.17735 | 8.22793 | 210° | 4km/h | 24347m | 5.2m/s | -52.3°C | 0.8% | 29.3hPa | 2.6V | 18:12:15 | 01:37:32 | 00:00:00 | |
| DB0DAN | 2026-08-31 05:09:10 | 53.17738 | 8.22794 | 166° | 7km/h | 24338m | 5.2m/s | -52.3°C | 1.2% | 29.34hPa | 2.6V | 00:00:00 | 00:00:00 | 00:00:00 | |
| DO2SHX-10 | 2026-08-31 05:09:10 | 53.17738 | 8.22793 | 166° | 11km/h | 24339m | 5.2m/s | -52.3°C | 4.1% | 29.3hPa | 2.6V | 00:00:00 | 01:37:30 | 00:00:00 | |
| DL1XH1-15 | 2026-08-31 05:09:09 | 53.17755 | 8.22773 | 157° | 11km/h | 24305m | 4.8m/s | -52.3°C | 4% | 29.5hPa | 2.6V | 08:30:00 | 01:37:24 | 00:00:00 | |
| HSKMA3-T | 2026-08-31 05:09:09 | 53.17740 | 8.22792 | 146° | 11km/h | 24332m | 6.5m/s | -52.3°C | 0.8% | 29.4hPa | 2.7V | 18:12:15 | 01:37:29 | 00:00:00 | |
| DF8AY | 2026-08-31 05:09:06 | 53.17749 | 8.22779 | 144° | 16km/h | 24317m | 6m/s | -52.3°C | 0.8% | 29.4hPa | 2.6V | 18:12:15 | 01:37:26 | 00:00:00 | |
| DL1XH-west | 2026-08-31 05:09:05 | 53.17752 | 8.22776 | 155° | 13km/h | 24311m | 5.9m/s | -52.3°C | 0.8% | 29.5hPa | 2.6V | 18:12:15 | 01:37:25 | 00:00:00 | |
| DO2JMG | 2026-08-31 05:09:03 | 53.17757 | 8.22772 | 144° | 9km/h | 24300m | 4.8m/s | -52.4°C | 0.8% | 29.5hPa | 2.7V | 18:12:15 | 01:37:23 | 00:00:00 | |
| AA1-15 | 2026-08-31 05:09:02 | 53.17759 | 8.22769 | 124° | 9km/h | 24295m | 6.9m/s | -52.4°C | 0.8% | 29.5hPa | 2.7V | 18:12:15 | 01:37:22 | 00:00:00 | |
| HSKMA3-T | 2026-08-31 05:08:58 | 53.17762 | 8.22752 | 118° | 9km/h | 24271m | 5m/s | -52.5°C | 0.9% | 29.7hPa | 2.7V | 18:12:15 | 01:37:18 | 00:00:00 | |
| DM0DOS-11 | 2026-08-31 05:08:58 | 53.17770 | 8.22730 | 120° | 22km/h | 24248m | 5.1m/s | -52.6°C | 4.2% | 29.8hPa | 2.6V | 08:30:00 | 01:37:14 | 00:00:00 | |
| DC4HF-4 | 2026-08-31 05:08:56 | 53.17767 | 8.22737 | 117° | 18km/h | 24254m | 6.0m/s | -52.5°C | 1.2% | 29.7hPa | 2.6V | 00:00:00 | 00:00:00 | 00:00:00 | |
| DB0DAN | 2026-08-31 05:08:55 | 53.17767 | 8.22737 | 118° | 18km/h | 24254m | 6m/s | -52.5°C | 1.2% | 29.73hPa | 2.6V | 00:00:00 | 00:00:00 | 00:00:00 | |
| DL1XH-15 | 2026-08-31 05:08:55 | 53.17778 | 8.22711 | 110° | 5km/h | 24228m | 4.6m/s | -52.6°C | 4.2% | 29.9hPa | 2.7V | 08:30:00 | 01:37:10 | 00:00:00 | |
| DF8AY | 2026-08-31 05:08:55 | 53.17767 | 8.22737 | 118° | 20km/h | 24254m | 6m/s | -52.5°C | 0.9% | 29.7hPa | 2.6V | 18:12:15 | 01:37:15 | 00:00:00 | |
| DL1XH-west | 2026-08-31 05:08:54 | 53.17770 | 8.22730 | 121° | 22km/h | 24248m | 5.1m/s | -52.6°C | 0.9% | 29.8hPa | 2.6V | 18:12:15 | 01:37:14 | 00:00:00 | |
| DO2JMG | 2026-08-31 05:08:53 | 53.17772 | 8.22723 | 126° | 20km/h | 24244m | 4.3m/s | -52.5°C | 0.9% | 29.8hPa | 2.6V | 18:12:15 | 01:37:13 | 00:00:00 | |
| AA1-15 | 2026-08-31 05:08:52 | 53.17775 | 8.22717 | 132° | 15km/h | 24238m | 6.5m/s | -52.5°C | 0.9% | 29.8hPa | 2.6V | 18:12:15 | 01:37:12 | 00:00:00 | |
| DO2SHX-10 | 2026-08-31 05:08:52 | 53.17775 | 8.22717 | 132° | 9km/h | 24239m | 6.4m/s | -52.5°C | 4.1% | 29.7hPa | 2.7V | 00:00:00 | 01:37:12 | 00:00:00 | |
| DL8OAI-8 | 2026-08-31 05:08:51 | 53.17775 | 8.22717 | 133° | 15km/h | 24239m | 6.5m/s | -52.5°C | 1.2% | 29.8hPa | 2.7V | 00:00:00 | 00:00:00 | 00:00:00 | |
| GOEST3-10 | 2026-08-31 05:08:50 | 53.17778 | 8.22711 | 111° | 9km/h | 24228m | 4.6m/s | -52.5°C | 4.2% | 29.8hPa | 2.7V | 00:00:00 | 01:37:10 | 00:00:00 | |
| DL1XH1-15 | 2026-08-31 05:08:49 | 53.17771 | 8.22688 | 84° | 13km/h | 24194m | 5.1m/s | -52.6°C | 4.1% | 30hPa | 2.7V | 08:30:00 | 01:37:04 | 00:00:00 | |
| HSKMA3-T | 2026-08-31 05:08:47 | 53.17775 | 8.22702 | 53° | 13km/h | 24211m | 4.9m/s | -52.6°C | 0.9% | 29.9hPa | 2.6V | 18:12:15 | 01:37:07 | 00:00:00 | |
| DF8AY | 2026-08-31 05:08:45 | 53.17772 | 8.22693 | 66° | 11km/h | 24200m | 6.1m/s | -52.6°C | 0.9% | 30hPa | 2.7V | 18:12:15 | 01:37:05 | 00:00:00 | |
| DL1XH-west | 2026-08-31 05:08:44 | 53.17771 | 8.22688 | 84° | 13km/h | 24194m | 5.1m/s | -52.6°C | 0.9% | 30hPa | 2.7V | 18:12:15 | 01:37:04 | 00:00:00 | |
| DO2JMG | 2026-08-31 05:08:43 | 53.17771 | 8.22682 | 91° | 16km/h | 24188m | 6.1m/s | -52.6°C | 0.9% | 30hPa | 2.6V | 18:12:15 | 01:37:03 | 00:00:00 | |
| BIOWL1-15 | 2026-08-31 05:08:42 | 53.17771 | 8.22674 | 93° | 20km/h | 24182m | 6.5m/s | -52.5°C | 0.9% | 30.1hPa | 2.6V | 18:12:15 | 01:37:02 | 00:00:00 | |
| AA1-15 | 2026-08-31 05:08:41 | 53.17771 | 8.22665 | 95° | 22km/h | 24176m | 4.9m/s | -52.5°C | 0.9% | 30.1hPa | 2.6V | 18:12:15 | 01:37:01 | 00:00:00 | |
| DB0DAN | 2026-08-31 05:08:40 | 53.17772 | 8.22656 | 97° | 20km/h | 24171m | 5.3m/s | -52.5°C | 1.2% | 30.12hPa | 2.7V | 00:00:00 | 00:00:00 | 00:00:00 | |
| DL3AQ-11 | 2026-08-31 05:08:40 | 53.17773 | 8.22649 | 98° | 15km/h | 24165m | 6.2m/s | -52.5°C | 1.2% | 30.2hPa | 2.6V | 00:00:00 | 00:00:00 | 00:00:00 | |
| DM0DOS-11 | 2026-08-31 05:08:39 | 53.17765 | 8.22629 | 38° | 15km/h | 24137m | 5.1m/s | -52.5°C | 4% | 30.3hPa | 2.6V | 08:30:00 | 01:36:54 | 00:00:00 | |
| HSKMA3-T | 2026-08-31 05:08:36 | 53.17771 | 8.22636 | 43° | 11km/h | 24149m | 6.7m/s | -52.5°C | 0.9% | 30.2hPa | 2.6V | 18:12:15 | 01:36:56 | 00:00:00 | |
| DF8AY | 2026-08-31 05:08:34 | 53.17765 | 8.22629 | 39° | 15km/h | 24137m | 5.1m/s | -52.5°C | 0.8% | 30.3hPa | 2.6V | 18:12:15 | 01:36:54 | 00:00:00 | |
| DL1XH-west | 2026-08-31 05:08:33 | 53.17763 | 8.22626 | 43° | 11km/h | 24132m | 6.7m/s | -52.5°C | 0.8% | 30.3hPa | 2.7V | 18:12:15 | 01:36:53 | 00:00:00 | |
| DO2JMG | 2026-08-31 05:08:32 | 53.17761 | 8.22623 | 62° | 7km/h | 24125m | 5.7m/s | -52.5°C | 0.8% | 30.3hPa | 2.7V | 18:12:15 | 01:36:52 | 00:00:00 | |
| BIOWL1-15 | 2026-08-31 05:08:31 | 53.17761 | 8.22619 | 87° | 9km/h | 24120m | 4.9m/s | -52.5°C | 0.8% | 30.4hPa | 2.7V | 18:12:15 | 01:36:51 | 00:00:00 | |
| DO2SHX-10 | 2026-08-31 05:08:31 | 53.17761 | 8.22619 | 87° | 11km/h | 24120m | 4.9m/s | -52.4°C | 4.0% | 30.3hPa | 2.7V | 00:00:00 | 01:36:51 | 08:30:00 | |
| GOEST3-10 | 2026-08-31 05:08:30 | 53.17761 | 8.22615 | 90° | 13km/h | 24115m | 6.3m/s | -52.4°C | 4.0% | 30.3hPa | 2.7V | 00:00:00 | 01:36:50 | 00:00:00 | |
| DD8BA-10 | 2026-08-31 05:08:29 | 53.17761 | 8.22610 | 89° | 11km/h | 24109m | 5.5m/s | -52.4°C | 4.0% | 30.3hPa | 2.7V | 00:00:00 | 00:00:00 | 00:00:00 | |
| DO2SHX-10 | 2026-08-31 05:08:28 | 53.17761 | 8.22603 | 95° | 15km/h | 24104m | 4.4m/s | -52.4°C | 4.0% | 30.4hPa | 2.7V | 00:00:00 | 01:36:48 | 00:00:00 | |
| DB0DAN | 2026-08-31 05:08:25 | 53.17763 | 8.22588 | 104° | 7km/h | 24087m | 5.4m/s | -52.4°C | 1.1% | 30.53hPa | 2.7V | 00:00:00 | 00:00:00 | 00:00:00 | |
| DM0DOS-11 | 2026-08-31 05:08:25 | 53.17763 | 8.22585 | 64° | 5km/h | 24081m | 5.8m/s | -52.4°C | 4% | 30.5hPa | 2.7V | 08:30:00 | 01:36:44 | 00:00:00 | |
| DL1XH-15 | 2026-08-31 05:08:25 | 53.17752 | 8.22580 | 351° | 11km/h | 24057m | 6.8m/s | -52.6°C | 4% | 30.6hPa | 2.7V | 08:30:00 | 01:36:40 | 00:00:00 | |
| HSKMA3-T | 2026-08-31 05:08:25 | 53.17763 | 8.22588 | 104° | 7km/h | 24087m | 5.4m/s | -52.4°C | 0.8% | 30.5hPa | 2.7V | 18:12:15 | 01:36:45 | 00:00:00 | |
| DF8AY | 2026-08-31 05:08:23 | 53.17761 | 8.22583 | 33° | 11km/h | 24075m | 6.4m/s | -52.4°C | 0.9% | 30.6hPa | 2.6V | 18:12:15 | 01:36:43 | 00:00:00 | |
| DO2JMG | 2026-08-31 05:08:22 | 53.17759 | 8.22581 | 15° | 13km/h | 24069m | 4.8m/s | -52.4°C | 0.7% | 30.6hPa | 2.6V | 18:12:15 | 01:36:42 | 00:00:00 | |
| BIOWL1-15 | 2026-08-31 05:08:21 | 53.17755 | 8.22580 | 5° | 13km/h | 24064m | 5.7m/s | -52.5°C | 0.9% | 30.6hPa | 2.6V | 18:12:15 | 01:36:41 | 00:00:00 | |
| GOEST3-10 | 2026-08-31 05:08:20 | 53.17752 | 8.22580 | 352° | 9km/h | 24058m | 6.7m/s | -52.5°C | 4.0% | 30.6hPa | 2.7V | 00:00:00 | 01:36:40 | 00:00:00 | |
| DD8BA-10 | 2026-08-31 05:08:19 | 53.17750 | 8.22581 | 347° | 7km/h | 24052m | 4.8m/s | -52.6°C | 4.0% | 30.6hPa | 2.6V | 00:00:00 | 00:00:00 | 00:00:00 | |
| DD1CC8 | 2026-08-31 05:08:18 | 53.17747 | 8.22581 | 0° | 9km/h | 24046m | 5.7m/s | -52.7°C | 1.2% | 30.7hPa | 2.6V | 00:00:00 | 00:00:00 | 00:00:00 | |
| DL1XH-15 | 2026-08-31 05:08:16 | 53.17745 | 8.22565 | 41° | 9km/h | 24001m | 5.1m/s | -53°C | 4.2% | 30.9hPa | 2.6V | 08:30:00 | 01:36:30 | 00:00:00 | |
| HSKMA3-T | 2026-08-31 05:08:15 | 53.17742 | 8.22577 | 78° | 5km/h | 24030m | 6.2m/s | -52.9°C | 0.9% | 30.8hPa | 2.7V | 18:12:15 | 01:36:35 | 00:00:00 | |
| DF8AY | 2026-08-31 05:08:14 | 53.17744 | 8.22573 | 146° | 7km/h | 24018m | 5m/s | -53°C | 0.9% | 30.9hPa | 2.7V | 18:12:15 | 01:36:33 | 00:00:00 | |
| DO2JMG | 2026-08-31 05:08:12 | 53.17745 | 8.22571 | 131° | 7km/h | 24013m | 5.2m/s | -53°C | 0.9% | 30.9hPa | 2.6V | 18:12:15 | 01:36:32 | 00:00:00 | |
| DB0DAN | 2026-08-31 05:08:10 | 53.17745 | 8.22565 | 42° | 9km/h | 24001m | 5.1m/s | -53°C | 1.2% | 30.94hPa | 2.6V | 00:00:00 | 00:00:00 | 00:00:00 | |
| AA1-15 | 2026-08-31 05:08:10 | 53.17745 | 8.22565 | 42° | 9km/h | 24001m | 5.1m/s | -53°C | 0.9% | 30.9hPa | 2.6V | 18:12:15 | 01:36:30 | 00:00:00 | |
| DO2SHX-10 | 2026-08-31 05:08:10 | 53.17745 | 8.22565 | 42° | 13km/h | 24001m | 5.1m/s | -53.0°C | 4.2% | 30.9hPa | 2.7V | 00:00:00 | 01:36:30 | 00:00:00 | |
| SONCRA | 2026-08-31 05:08:09 | 53.17739 | 8.22563 | 357° | 15km/h | 23991m | 6.2m/s | -53.1°C | 1.2% | 31.0hPa | 2.7V | 00:00:00 | 00:00:00 | 00:00:00 | |
| DJ2DS-15 | 2026-08-31 05:08:08 | 53.17739 | 8.22563 | 358° | 11km/h | 23991m | 6.2m/s | -53.0°C | 4.2% | 30.9hPa | 2.7V | 00:00:00 | 01:36:28 | 00:00:00 | |
| DO2SHX-10 | 2026-08-31 05:08:07 | 53.17735 | 8.22564 | 342° | 15km/h | 23985m | 5.7m/s | -53.1°C | 4.2% | 31.0hPa | 2.6V | 00:00:00 | 01:36:27 | 00:00:00 | |
| DM0DOS-11 | 2026-08-31 05:08:06 | 53.17725 | 8.22569 | 0° | 13km/h | 23969m | 6.5m/s | -53.1°C | 4.3% | 31.1hPa | 2.6V | 08:30:00 | 01:36:24 | 00:00:00 | |
| DL1XH-15 | 2026-08-31 05:08:05 | 53.17717 | 8.22564 | 42° | 4km/h | 23945m | 4.7m/s | -53.1°C | 4.2% | 31.2hPa | 2.6V | 08:30:00 | 01:36:20 | 00:00:00 | |
| HSKMA3-T | 2026-08-31 05:08:04 | 53.17724 | 8.22569 | 0° | 13km/h | 23969m | 6.5m/s | -53.1°C | 1% | 31.1hPa | 2.6V | 18:12:15 | 01:36:24 | 00:00:00 | |
| BIOWL1-15 | 2026-08-31 05:08:03 | 53.17716 | 8.22562 | 41° | 7km/h | 23941m | 4.3m/s | -53.1°C | 0.9% | 31.2hPa | 2.6V | 18:12:15 | 01:36:19 | 00:00:00 | |
| DO2JMG | 2026-08-31 05:08:02 | 53.17719 | 8.22567 | 35° | 9km/h | 23957m | 5.7m/s | -53.1°C | 1% | 31.1hPa | 2.7V | 18:12:15 | 01:36:22 | 00:00:00 | |
| DL1XH-west | 2026-08-31 05:08:01 | 53.17718 | 8.22565 | 42° | 5km/h | 23951m | 6.6m/s | -53.1°C | 1% | 31.2hPa | 2.7V | 18:12:15 | 01:36:21 | 00:00:00 | |
| AA1-15 | 2026-08-31 05:08:00 | 53.17717 | 8.22564 | 43° | 4km/h | 23945m | 4.7m/s | -53.1°C | 0.9% | 31.2hPa | 2.6V | 18:12:15 | 01:36:20 | 00:00:00 | |
| GOEST3-10 | 2026-08-31 05:08:00 | 53.17717 | 8.22564 | 43° | 9km/h | 23946m | 4.6m/s | -53.0°C | 4.2% | 31.2hPa | 2.6V | 00:00:00 | 01:36:20 | 00:00:00 | |
| DD8BA-10 | 2026-08-31 05:07:59 | 53.17716 | 8.22562 | 41° | 9km/h | 23941m | 4.2m/s | -53.0°C | 4.2% | 31.2hPa | 2.6V | 00:00:00 | 00:00:00 | 00:00:00 | |
| DO2SHX-10 | 2026-08-31 05:07:58 | 53.17714 | 8.22560 | 42° | 13km/h | 23936m | 6.7m/s | -53.0°C | 4.2% | 31.2hPa | 2.6V | 00:00:00 | 01:36:18 | 00:00:00 | |
| DM0DOS-11 | 2026-08-31 05:07:56 | 53.17705 | 8.22546 | 34° | 9km/h | 23912m | 6m/s | -53.1°C | 4.2% | 31.4hPa | 2.6V | 08:30:00 | 01:36:14 | 00:00:00 | |
| DB0DAN | 2026-08-31 05:07:55 | 53.17707 | 8.22549 | 39° | 13km/h | 23918m | 6.5m/s | -53.1°C | 1.2% | 31.33hPa | 2.7V | 00:00:00 | 00:00:00 | 00:00:00 | |
| DL1XH-15 | 2026-08-31 05:07:55 | 53.17699 | 8.22537 | 40° | 9km/h | 23889m | 4.8m/s | -53.2°C | 4.3% | 31.5hPa | 2.7V | 08:30:00 | 01:36:10 | 00:00:00 | |
| HSKMA3-T | 2026-08-31 05:07:54 | 53.17705 | 8.22546 | 34° | 9km/h | 23912m | 6m/s | -53.1°C | 1% | 31.4hPa | 2.6V | 18:12:15 | 01:36:14 | 00:00:00 | |
| DO2JMG | 2026-08-31 05:07:51 | 53.17700 | 8.22540 | 48° | 9km/h | 23894m | 6.1m/s | -53.1°C | 0.9% | 31.4hPa | 2.6V | 18:12:15 | 01:36:11 | 00:00:00 | |
| BIOWL1-15 | 2026-08-31 05:07:50 | 53.17695 | 8.22535 | 348° | 7km/h | 23877m | 6.3m/s | -53.1°C | 0.9% | 31.5hPa | 2.7V | 18:12:15 | 01:36:08 | 00:00:00 | |
| DL1XH-west | 2026-08-31 05:07:50 | 53.17699 | 8.22537 | 40° | 9km/h | 23889m | 4.8m/s | -53.2°C | 1% | 31.5hPa | 2.7V | 18:12:15 | 01:36:10 | 00:00:00 | |
| DJ2DS-15 | 2026-08-31 05:07:49 | 53.17697 | 8.22535 | 23° | 7km/h | 23884m | 6.0m/s | -53.1°C | 1.2% | 31.5hPa | 2.6V | 00:00:00 | 00:00:00 | 00:00:00 | |
| DL3AQ-11 | 2026-08-31 05:07:47 | 53.17691 | 8.22536 | 352° | 7km/h | 23866m | 5.9m/s | -53.2°C | 1.2% | 31.6hPa | 2.6V | 00:00:00 | 00:00:00 | 00:00:00 | |
| DM0DOS-11 | 2026-08-31 05:07:46 | 53.17687 | 8.22535 | 32° | 7km/h | 23855m | 5.2m/s | -53.2°C | 4.4% | 31.7hPa | 2.6V | 08:30:00 | 01:36:04 | 00:00:00 | |
| DO2SHX-10 | 2026-08-31 05:07:46 | 53.17691 | 8.22536 | 353° | 9km/h | 23867m | 5.9m/s | -53.1°C | 4.3% | 31.5hPa | 2.6V | 00:00:00 | 01:36:06 | 00:00:00 | |
| DL1XH-15 | 2026-08-31 05:07:45 | 53.17687 | 8.22529 | 119° | 5km/h | 23830m | 6.8m/s | -53.1°C | 4.3% | 31.8hPa | 2.6V | 08:30:00 | 01:36:00 | 00:00:00 | |
| HSKMA3-T | 2026-08-31 05:07:44 | 53.17687 | 8.22535 | 32° | 7km/h | 23855m | 5.2m/s | -53.2°C | 1% | 31.7hPa | 2.6V | 18:12:15 | 01:36:04 | 00:00:00 | |
| DO2JMG | 2026-08-31 05:07:41 | 53.17686 | 8.22530 | 135° | 5km/h | 23837m | 5.5m/s | -53.1°C | 1% | 31.8hPa | 2.7V | 18:12:15 | 01:36:01 | 00:00:00 | |
| DB0DAN | 2026-08-31 05:07:40 | 53.17687 | 8.22529 | 119° | 5km/h | 23830m | 6.8m/s | -53.1°C | 1.2% | 31.78hPa | 2.6V | 00:00:00 | 00:00:00 | 00:00:00 | |
| DL1XH-west | 2026-08-31 05:07:40 | 53.17687 | 8.22529 | 119° | 5km/h | 23830m | 6.8m/s | -53.1°C | 1% | 31.8hPa | 2.6V | 18:12:15 | 01:36:00 | 00:00:00 | |
| BIOWL1-15 | 2026-08-31 05:07:37 | 53.17687 | 8.22524 | 338° | 2km/h | 23814m | 6.3m/s | -53°C | 0.9% | 31.9hPa | 2.7V | 18:12:15 | 01:35:57 | 00:00:00 | |
| HSKMA3-T | 2026-08-31 05:07:34 | 53.17684 | 8.22531 | 317° | 9km/h | 23796m | 6.6m/s | -52.9°C | 0.9% | 31.9hPa | 2.6V | 18:12:15 | 01:35:54 | 00:00:00 | |
| DL1XH-west | 2026-08-31 05:07:30 | 53.17678 | 8.22532 | 37° | 2km/h | 23773m | 6.5m/s | -52.9°C | 0.9% | 32.1hPa | 2.7V | 18:12:15 | 01:35:50 | 00:00:00 | |
| BIOWL1-15 | 2026-08-31 05:07:26 | 53.17676 | 8.22528 | 56° | 5km/h | 23750m | 5.4m/s | -52.9°C | 0.9% | 32.2hPa | 2.6V | 18:12:15 | 01:35:46 | 00:00:00 | |
| DB0DAN | 2026-08-31 05:07:25 | 53.17675 | 8.22525 | 69° | 5km/h | 23744m | 5.3m/s | -53°C | 1.2% | 32.2hPa | 2.7V | 00:00:00 | 00:00:00 | 00:00:00 | |
| DL1XH-15 | 2026-08-31 05:07:25 | 53.17675 | 8.22517 | 40° | 5km/h | 23715m | 4.6m/s | -52.8°C | 4.3% | 32.4hPa | 2.6V | 08:30:00 | 01:35:40 | 00:00:00 | |
| HSKMA3-T | 2026-08-31 05:07:23 | 53.17676 | 8.22522 | 117° | 4km/h | 23732m | 5.6m/s | -53°C | 1% | 32.3hPa | 2.7V | 18:12:15 | 01:35:43 | 00:00:00 | |
| DO2JMG | 2026-08-31 05:07:20 | 53.17675 | 8.22517 | 40° | 7km/h | 23715m | 4.6m/s | -52.8°C | 0.9% | 32.4hPa | 2.6V | 18:12:15 | 01:35:40 | 00:00:00 | |
| DL1XH-west | 2026-08-31 05:07:19 | 53.17674 | 8.22515 | 32° | 5km/h | 23709m | 5.3m/s | -52.8°C | 0.9% | 32.4hPa | 2.7V | 18:12:15 | 01:35:39 | 00:00:00 | |
| BIOWL1-15 | 2026-08-31 05:07:17 | 53.17673 | 8.22512 | 63° | 4km/h | 23688m | 5.9m/s | -52.7°C | 0.9% | 32.5hPa | 2.6V | 18:12:15 | 01:35:35 | 00:00:00 | |
| DO2SHX-10 | 2026-08-31 05:07:16 | 53.17673 | 8.22513 | 111° | 5km/h | 23693m | 4.4m/s | -52.6°C | 4.2% | 32.4hPa | 2.6V | 00:00:00 | 01:35:36 | 00:00:00 | |
| DL1XH-15 | 2026-08-31 05:07:15 | 53.17662 | 8.22506 | 334° | 5km/h | 23660m | 5.6m/s | -52.6°C | 4% | 32.6hPa | 2.6V | 08:30:00 | 01:35:30 | 00:00:00 | |
| HSKMA3-T | 2026-08-31 05:07:12 | 53.17667 | 8.22506 | 14° | 13km/h | 23671m | 4.6m/s | -52.6°C | 0.8% | 32.6hPa | 2.7V | 18:12:15 | 01:35:32 | 00:00:00 | |
| DB0DAN | 2026-08-31 05:07:10 | 53.17662 | 8.22506 | 334° | 5km/h | 23660m | 5.6m/s | -52.6°C | 1.2% | 32.64hPa | 2.6V | 00:00:00 | 00:00:00 | 00:00:00 | |
| DO2JMG | 2026-08-31 05:07:09 | 53.17662 | 8.22507 | 247° | 2km/h | 23655m | 4.9m/s | -52.6°C | 0.8% | 32.6hPa | 2.6V | 18:12:15 | 01:35:29 | 00:00:00 | |
| DL1XH-west | 2026-08-31 05:07:08 | 53.17662 | 8.22507 | 150° | 4km/h | 23649m | 6.9m/s | -52.6°C | 0.8% | 32.7hPa | 2.6V | 18:12:15 | 01:35:28 | 00:00:00 | |
| DD8BA-10 | 2026-08-31 05:07:08 | 53.17662 | 8.22506 | 150° | 7km/h | 23649m | 6.9m/s | -52.6°C | 4.1% | 32.6hPa | 2.6V | 00:00:00 | 00:00:00 | 00:00:00 | |
| DO2SHX-10 | 2026-08-31 05:07:07 | 53.17663 | 8.22505 | 141° | 7km/h | 23642m | 6.2m/s | -52.6°C | 4.1% | 32.7hPa | 2.7V | 00:00:00 | 01:35:27 | 00:00:00 | |
| EDDB2-12 | 2026-08-31 05:07:06 | 53.17665 | 8.22503 | 145° | 9km/h | 23636m | 5.4m/s | -52.6°C | 1.2% | 32.8hPa | 2.7V | 00:00:00 | 00:00:00 | 00:00:00 | |
| DL1XH-15 | 2026-08-31 05:07:05 | 53.17669 | 8.22494 | 35° | 7km/h | 23600m | 4.9m/s | -52.7°C | 4.1% | 32.9hPa | 2.7V | 08:30:00 | 01:35:20 | 00:00:00 | |
| BIOWL1-15 | 2026-08-31 05:07:04 | 53.17669 | 8.22500 | 165° | 7km/h | 23624m | 5.3m/s | -52.6°C | 1% | 32.8hPa | 2.6V | 18:12:15 | 01:35:24 | 00:00:00 | |
| HSKMA3-T | 2026-08-31 05:07:01 | 53.17670 | 8.22496 | 51° | 7km/h | 23606m | 5.7m/s | -52.7°C | 0.9% | 32.9hPa | 2.7V | 18:12:15 | 01:35:21 | 00:00:00 | |
| DO2JMG | 2026-08-31 05:06:59 | 53.17667 | 8.22493 | 13° | 7km/h | 23595m | 6.2m/s | -52.7°C | 0.9% | 33hPa | 2.6V | 18:12:15 | 01:35:19 | 00:00:00 | |
| DF8AY | 2026-08-31 05:06:58 | 53.17665 | 8.22493 | 337° | 7km/h | 23588m | 6.2m/s | -52.7°C | 0.9% | 33hPa | 2.6V | 18:12:15 | 01:35:18 | 00:00:00 | |
| DL1XH-west | 2026-08-31 05:06:57 | 53.17664 | 8.22495 | 313° | 5km/h | 23583m | 4.7m/s | -52.7°C | 0.9% | 33hPa | 2.6V | 18:12:15 | 01:35:17 | 00:00:00 | |
| DO2SHX-10 | 2026-08-31 05:06:57 | 53.17664 | 8.22495 | 314° | 4km/h | 23583m | 4.7m/s | -52.6°C | 4.1% | 33.0hPa | 2.6V | 00:00:00 | 01:35:17 | 00:00:00 | |
| DL1XH-15 | 2026-08-31 05:06:55 | 53.17668 | 8.22484 | 144° | 9km/h | 23542m | 5m/s | -52.7°C | 4.1% | 33.2hPa | 2.6V | 08:30:00 | 01:35:10 | 00:00:00 | |
| BIOWL1-15 | 2026-08-31 05:06:55 | 53.17663 | 8.22492 | 113° | 9km/h | 23560m | 5.8m/s | -52.8°C | 0.9% | 33.2hPa | 2.6V | 18:12:15 | 01:35:13 | 00:00:00 | |
| DB0DAN | 2026-08-31 05:06:55 | 53.17663 | 8.22496 | 50° | 2km/h | 23573m | 6.5m/s | -52.7°C | 1.2% | 33.08hPa | 2.7V | 00:00:00 | 00:00:00 | 00:00:00 | |
| HSKMA3-T | 2026-08-31 05:06:50 | 53.17668 | 8.22484 | 145° | 9km/h | 23542m | 5m/s | -52.7°C | 0.9% | 33.3hPa | 2.6V | 18:12:15 | 01:35:10 | 00:00:00 | |
| AA1-15 | 2026-08-31 05:06:49 | 53.17670 | 8.22481 | 127° | 11km/h | 23536m | 6.8m/s | -52.6°C | 0.9% | 33.3hPa | 2.7V | 18:12:15 | 01:35:09 | 00:00:00 | |
| DO2JMG | 2026-08-31 05:06:48 | 53.17671 | 8.22477 | 106° | 13km/h | 23529m | 6.6m/s | -52.6°C | 0.9% | 33.3hPa | 2.7V | 18:12:15 | 01:35:08 | 00:00:00 | |
| DL1XH-west | 2026-08-31 05:06:47 | 53.17671 | 8.22472 | 90° | 13km/h | 23524m | 5.2m/s | -52.6°C | 0.9% | 33.4hPa | 2.7V | 18:12:15 | 01:35:07 | 00:00:00 | |
| DF8AY-15 | 2026-08-31 05:06:47 | 53.17671 | 8.22472 | 91° | 11km/h | 23524m | 5.2m/s | -52.6°C | 4.2% | 33.3hPa | 2.7V | 00:00:00 | 01:35:07 | 00:00:00 | |
| DL1XH-15 | 2026-08-31 05:06:45 | 53.17669 | 8.22446 | 90° | 13km/h | 23483m | 4.5m/s | -52.6°C | 4.2% | 33.6hPa | 2.6V | 08:30:00 | 01:35:00 | 00:00:00 | |
| BIOWL1-15 | 2026-08-31 05:06:42 | 53.17669 | 8.22456 | 78° | 9km/h | 23495m | 6.8m/s | -52.6°C | 1% | 33.5hPa | 2.7V | 18:12:15 | 01:35:02 | 00:00:00 | |
| DB0DAN | 2026-08-31 05:06:40 | 53.17669 | 8.22446 | 90° | 13km/h | 23483m | 4.5m/s | -52.7°C | 1.2% | 33.57hPa | 2.6V | 00:00:00 | 00:00:00 | 00:00:00 | |
| HSKMA3-T | 2026-08-31 05:06:39 | 53.17669 | 8.22441 | 94° | 13km/h | 23478m | 6.5m/s | -52.6°C | 0.9% | 33.6hPa | 2.6V | 18:12:15 | 01:34:59 | 00:00:00 | |
| DL1XH-west | 2026-08-31 05:06:37 | 53.17669 | 8.22431 | 91° | 13km/h | 23466m | 5m/s | -52.5°C | 0.9% | 33.7hPa | 2.7V | 18:12:15 | 01:34:57 | 00:00:00 | |
| DF8AY | 2026-08-31 05:06:36 | 53.17669 | 8.22425 | 87° | 15km/h | 23460m | 7.2m/s | -52.5°C | 0.9% | 33.7hPa | 2.7V | 18:12:15 | 01:34:56 | 00:00:00 | |
| BIOWL1-15 | 2026-08-31 05:06:31 | 53.17657 | 8.22384 | 82° | 7km/h | 23405m | 6m/s | -52.5°C | 0.9% | 34hPa | 2.6V | 18:12:15 | 01:34:47 | 00:00:00 | |
| DC4HF-4 | 2026-08-31 05:06:31 | 53.17660 | 8.22395 | 55° | 11km/h | 23424m | 6.7m/s | -52.5°C | 1.1% | 33.9hPa | 2.6V | 00:00:00 | 00:00:00 | 00:00:00 | |
| DL1NUX | 2026-08-31 05:06:30 | 53.17656 | 8.22375 | 84° | 15km/h | 23394m | 6.4m/s | -52.5°C | 4.1% | 34hPa | 2.6V | 08:30:00 | 01:34:45 | 00:00:00 | |
| HSKMA3-T | 2026-08-31 05:06:29 | 53.17658 | 8.22391 | 66° | 11km/h | 23417m | 5.4m/s | -52.5°C | 0.9% | 33.9hPa | 2.7V | 18:12:15 | 01:34:49 | 00:00:00 | |
| DL1XH-west | 2026-08-31 05:06:26 | 53.17657 | 8.22380 | 86° | 9km/h | 23399m | 5m/s | -52.5°C | 0.9% | 34hPa | 2.6V | 18:12:15 | 01:34:46 | 00:00:00 | |
| DB0DAN | 2026-08-31 05:06:25 | 53.17656 | 8.22375 | 84° | 13km/h | 23394m | 6.4m/s | -52.5°C | 1.2% | 34.04hPa | 2.6V | 00:00:00 | 00:00:00 | 00:00:00 | |
| BIOWL1-15 | 2026-08-31 05:06:21 | 53.17641 | 8.22334 | 35° | 20km/h | 23358m | 5.5m/s | -52.5°C | 0.8% | 34.2hPa | 2.6V | 18:12:15 | 01:34:39 | 00:00:00 | |
| HSKMA3-T | 2026-08-31 05:06:18 | 53.17638 | 8.22329 | 40° | 20km/h | 23352m | 6.7m/s | -52.5°C | 0.9% | 34.3hPa | 2.7V | 18:12:15 | 01:34:38 | 00:00:00 | |
| DO2JMG | 2026-08-31 05:06:16 | 53.17632 | 8.22319 | 50° | 13km/h | 23340m | 6m/s | -52.6°C | 0.9% | 34.3hPa | 2.6V | 18:12:15 | 01:34:36 | 00:00:00 | |
| DL1XH-west | 2026-08-31 05:06:15 | 53.17630 | 8.22315 | 51° | 9km/h | 23333m | 6.8m/s | -52.7°C | 0.9% | 34.4hPa | 2.6V | 18:12:15 | 01:34:35 | 00:00:00 | |
| DO2SHX-10 | 2026-08-31 05:06:15 | 53.17630 | 8.22315 | 51° | 7km/h | 23334m | 6.8m/s | -52.6°C | 4.1% | 34.3hPa | 2.6V | 00:00:00 | 01:34:35 | 00:00:00 | |
| DO3DL | 2026-08-31 05:06:13 | 53.17629 | 8.22313 | 72° | 5km/h | 23328m | 5.3m/s | -52.7°C | 1.2% | 34.4hPa | 2.6V | 00:00:00 | 00:00:00 | 00:00:00 | |
| DB0DAN | 2026-08-31 05:06:10 | 53.17629 | 8.22294 | 77° | 16km/h | 23304m | 5.7m/s | -52.7°C | 1.2% | 34.49hPa | 2.6V | 00:00:00 | 00:00:00 | 00:00:00 | |
| BIOWL1-15 | 2026-08-31 05:06:09 | 53.17628 | 8.22287 | 60° | 18km/h | 23298m | 7m/s | -52.7°C | 0.9% | 34.6hPa | 2.6V | 18:12:15 | 01:34:29 | 00:00:00 | |
| HSKMA3-T | 2026-08-31 05:06:08 | 53.17625 | 8.22280 | 41° | 20km/h | 23292m | 5.5m/s | -52.7°C | 0.9% | 34.6hPa | 2.6V | 18:12:15 | 01:34:28 | 00:00:00 | |
| DO2JMG | 2026-08-31 05:06:06 | 53.17615 | 8.22270 | 31° | 24km/h | 23281m | 6m/s | -52.6°C | 0.9% | 34.7hPa | 2.7V | 18:12:15 | 01:34:26 | 00:00:00 | |
| DM0DOS-11 | 2026-08-31 05:06:05 | 53.17604 | 8.22258 | 33° | 24km/h | 23269m | 5.1m/s | -52.6°C | 4.2% | 34.7hPa | 2.7V | 08:30:00 | 01:34:24 | 00:00:00 | |
| DL1XH-west | 2026-08-31 05:06:05 | 53.17610 | 8.22264 | 34° | 26km/h | 23275m | 6.2m/s | -52.6°C | 0.9% | 34.7hPa | 2.7V | 18:12:15 | 01:34:25 | 00:00:00 | |
| BIOWL1-15 | 2026-08-31 05:06:01 | 53.17587 | 8.22247 | 41° | 5km/h | 23240m | 7.3m/s | -52.5°C | 0.9% | 34.9hPa | 2.7V | 18:12:15 | 01:34:19 | 00:00:00 | |
| HSKMA3-T | 2026-08-31 05:05:58 | 53.17587 | 8.22245 | 83° | 9km/h | 23234m | 5.6m/s | -52.6°C | 1% | 34.9hPa | 2.6V | 18:12:15 | 01:34:18 | 00:00:00 | |
| DO2JMG | 2026-08-31 05:05:56 | 53.17586 | 8.22237 | 67° | 9km/h | 23224m | 5.7m/s | -52.6°C | 0.9% | 34.9hPa | 2.6V | 18:12:15 | 01:34:16 | 00:00:00 | |
| DM0DOS-11 | 2026-08-31 05:05:55 | 53.17582 | 8.22232 | 9° | 13km/h | 23211m | 5.6m/s | -52.6°C | 4.2% | 35hPa | 2.7V | 08:30:00 | 01:34:14 | 00:00:00 | |
| DB0DAN | 2026-08-31 05:05:55 | 53.17584 | 8.22234 | 34° | 9km/h | 23218m | 6.4m/s | -52.6°C | 1.2% | 35hPa | 2.7V | 00:00:00 | 00:00:00 | 00:00:00 | |
| DL1XH-west | 2026-08-31 05:05:55 | 53.17584 | 8.22234 | 34° | 11km/h | 23218m | 6.4m/s | -52.6°C | 0.9% | 35hPa | 2.7V | 18:12:15 | 01:34:15 | 00:00:00 | |
| BUE01 | 2026-08-31 05:05:50 | 53.17561 | 8.22225 | 14° | 16km/h | 23182m | 5.6m/s | -52.5°C | 1.2% | 35.2hPa | 2.6V | 00:00:00 | 00:00:00 | 00:00:00 | |
| DL1XH1-15 | 2026-08-31 05:05:49 | 53.17546 | 8.22221 | 47° | 4km/h | 23153m | 5.7m/s | -52.4°C | 4.2% | 35.4hPa | 2.6V | 08:30:00 | 01:34:04 | 00:00:00 | |
| HSKMA3-T | 2026-08-31 05:05:48 | 53.17557 | 8.22224 | 6° | 18km/h | 23176m | 6.5m/s | -52.5°C | 1% | 35.2hPa | 2.7V | 18:12:15 | 01:34:08 | 00:00:00 | |
| DO2JMG | 2026-08-31 05:05:45 | 53.17547 | 8.22222 | 22° | 7km/h | 23159m | 6.9m/s | -52.4°C | 0.9% | 35.3hPa | 2.6V | 18:12:15 | 01:34:05 | 00:00:00 | |
| DL1XH-west | 2026-08-31 05:05:44 | 53.17546 | 8.22221 | 47° | 4km/h | 23153m | 5.7m/s | -52.4°C | 0.9% | 35.4hPa | 2.6V | 18:12:15 | 01:34:04 | 00:00:00 | |
| DO2SHX-10 | 2026-08-31 05:05:43 | 53.17545 | 8.22220 | 29° | 4km/h | 23147m | 6.6m/s | -52.4°C | 4.2% | 35.4hPa | 2.6V | 00:00:00 | 01:34:03 | 08:30:00 | |
| DB0DAN | 2026-08-31 05:05:40 | 53.17543 | 8.22222 | 354° | 4km/h | 23129m | 6.6m/s | -52.2°C | 1.2% | 35.5hPa | 2.7V | 00:00:00 | 00:00:00 | 00:00:00 | |
| DO2SHX-10 | 2026-08-31 05:05:40 | 53.17543 | 8.22222 | 355° | 7km/h | 23129m | 6.5m/s | -52.2°C | 4.0% | 35.4hPa | 2.7V | 00:00:00 | 01:34:00 | 00:00:00 | |
| DL1XH1-15 | 2026-08-31 05:05:39 | 53.17528 | 8.22219 | 10° | 11km/h | 23092m | 6.5m/s | -52.2°C | 4.1% | 35.7hPa | 2.7V | 08:30:00 | 01:33:54 | 00:00:00 | |
| HSKMA3-T | 2026-08-31 05:05:38 | 53.17540 | 8.22220 | 19° | 7km/h | 23116m | 5.7m/s | -52.2°C | 0.8% | 35.6hPa | 2.6V | 18:12:15 | 01:33:58 | 00:00:00 | |
| AA1-15 | 2026-08-31 05:05:37 | 53.17538 | 8.22220 | 7° | 11km/h | 23110m | 7m/s | -52.2°C | 0.8% | 35.6hPa | 2.6V | 18:12:15 | 01:33:57 | 00:00:00 | |
| DL1XH-15 | 2026-08-31 05:05:36 | 53.17525 | 8.22213 | 169° | 4km/h | 23068m | 6.1m/s | -52.3°C | 4.2% | 35.8hPa | 2.7V | 08:30:00 | 01:33:50 | 00:00:00 | |
| DO2JMG | 2026-08-31 05:05:36 | 53.17531 | 8.22220 | 359° | 13km/h | 23098m | 5.6m/s | -52.2°C | 0.9% | 35.7hPa | 2.7V | 18:12:15 | 01:33:55 | 00:00:00 | |
| DL1XH-west | 2026-08-31 05:05:33 | 53.17526 | 8.22218 | 39° | 9km/h | 23085m | 6.3m/s | -52.2°C | 0.9% | 35.8hPa | 2.6V | 18:12:15 | 01:33:53 | 00:00:00 | |
| DO2SHX-10 | 2026-08-31 05:05:33 | 53.17526 | 8.22218 | 40° | 5km/h | 23086m | 6.2m/s | -52.2°C | 4.1% | 35.7hPa | 2.6V | 00:00:00 | 01:33:53 | 00:00:00 | |
| D01LWL | 2026-08-31 05:05:32 | 53.17525 | 8.22214 | 109° | 2km/h | 23075m | 6.1m/s | -52.3°C | 1.2% | 35.8hPa | 2.6V | 00:00:00 | 00:00:00 | 00:00:00 | |
| BIOWL9-15 | 2026-08-31 05:05:31 | 53.17525 | 8.22214 | 109° | 2km/h | 23075m | 6.1m/s | -52.3°C | 1.2% | 35.8hPa | 2.6V | 00:00:00 | 00:00:00 | 00:00:00 | |
| DO2SHX-10 | 2026-08-31 05:05:30 | 53.17525 | 8.22213 | 170° | 5km/h | 23069m | 6.1m/s | -52.3°C | 4.2% | 35.8hPa | 2.6V | 00:00:00 | 01:33:50 | 00:00:00 | |
| DL1XH1-15 | 2026-08-31 05:05:29 | 53.17527 | 8.22204 | 16° | 15km/h | 23033m | 5.8m/s | -52.3°C | 4.1% | 36hPa | 2.6V | 08:30:00 | 01:33:44 | 00:00:00 | |
| AA1-15 | 2026-08-31 05:05:27 | 53.17530 | 8.22210 | 136° | 7km/h | 23051m | 5.4m/s | -52.3°C | 0.9% | 35.9hPa | 2.6V | 18:12:15 | 01:33:47 | 00:00:00 | |
| DB0DAN | 2026-08-31 05:05:25 | 53.17530 | 8.22206 | 39° | 7km/h | 23040m | 6.8m/s | -52.3°C | 1.2% | 35.98hPa | 2.6V | 00:00:00 | 00:00:00 | 00:00:00 | |
| DO2JMG | 2026-08-31 05:05:25 | 53.17530 | 8.22206 | 39° | 9km/h | 23040m | 6.8m/s | -52.3°C | 0.9% | 36hPa | 2.6V | 18:12:15 | 01:33:45 | 00:00:00 | |
| DL1XH-west | 2026-08-31 05:05:23 | 53.17523 | 8.22202 | 14° | 20km/h | 23028m | 4.6m/s | -52.3°C | 0.9% | 36hPa | 2.7V | 18:12:15 | 01:33:43 | 00:00:00 | |
| DL1NUX | 2026-08-31 05:05:22 | 53.17504 | 8.22168 | 90° | 11km/h | 22994m | 6.6m/s | -52°C | 4% | 36.2hPa | 2.6V | 08:30:00 | 01:33:37 | 00:00:00 | |
| BIOWL1-15 | 2026-08-31 05:05:16 | 53.17509 | 8.22153 | 114° | 11km/h | 22971m | 5.5m/s | -52.1°C | 0.9% | 36.4hPa | 2.6V | 18:12:15 | 01:33:33 | 00:00:00 | |
| HSKMA3-T | 2026-08-31 05:05:16 | 53.17505 | 8.22164 | 114° | 9km/h | 22988m | 5.2m/s | -52°C | 0.8% | 36.3hPa | 2.7V | 18:12:15 | 01:33:36 | 00:00:00 | |
| DM0DOS-11 | 2026-08-31 05:05:15 | 53.17508 | 8.22157 | 128° | 11km/h | 22976m | 6.5m/s | -52.1°C | 4.1% | 36.3hPa | 2.7V | 08:30:00 | 01:33:34 | 00:00:00 | |
| DO2JMG | 2026-08-31 05:05:14 | 53.17508 | 8.22157 | 128° | 11km/h | 22977m | 6.5m/s | -52.1°C | 0.9% | 36.4hPa | 2.7V | 18:12:15 | 01:33:34 | 00:00:00 | |
| DL3OBA | 2026-08-31 05:05:13 | 53.17508 | 8.22157 | 129° | 11km/h | 22977m | 6.5m/s | -52.1°C | 1.2% | 36.3hPa | 2.6V | 00:00:00 | 00:00:00 | 00:00:00 | |
| DL1NUX | 2026-08-31 05:05:12 | 53.17502 | 8.22129 | 68° | 16km/h | 22937m | 6m/s | -52.1°C | 4.1% | 36.6hPa | 2.6V | 08:30:00 | 01:33:27 | 00:00:00 | |
| DL1XH-west | 2026-08-31 05:05:12 | 53.17510 | 8.22149 | 94° | 11km/h | 22966m | 4m/s | -52.1°C | 0.9% | 36.4hPa | 2.6V | 18:12:15 | 01:33:32 | 00:00:00 | |
| DD1CC8 | 2026-08-31 05:05:12 | 53.17509 | 8.22145 | 68° | 9km/h | 22961m | 6.2m/s | -52.1°C | 1.2% | 36.4hPa | 2.7V | 00:00:00 | 00:00:00 | 00:00:00 | |
| GOEST3-10 | 2026-08-31 05:05:10 | 53.17508 | 8.22141 | 47° | 13km/h | 22955m | 6.2m/s | -52.1°C | 4.1% | 36.4hPa | 2.7V | 00:00:00 | 01:33:30 | 00:00:00 | |
| DL1XH1-15 | 2026-08-31 05:05:09 | 53.17500 | 8.22109 | 84° | 16km/h | 22919m | 5.4m/s | -52.1°C | 4.1% | 36.7hPa | 2.7V | 08:30:00 | 01:33:24 | 00:00:00 | |
| HSKMA3-T | 2026-08-31 05:05:05 | 53.17500 | 8.22116 | 77° | 15km/h | 22925m | 6.7m/s | -52.2°C | 0.9% | 36.6hPa | 2.7V | 18:12:15 | 01:33:25 | 00:00:00 | |
| DO2JMG | 2026-08-31 05:05:04 | 53.17500 | 8.22109 | 84° | 16km/h | 22919m | 5.4m/s | -52.2°C | 0.9% | 36.7hPa | 2.7V | 18:12:15 | 01:33:24 | 00:00:00 | |
| DB0UT-7 | 2026-08-31 05:05:04 | 53.17499 | 8.22109 | 85° | 16km/h | 22919m | 5.3m/s | -52.1°C | 4.1% | 36.6hPa | 2.7V | 00:00:00 | 00:00:00 | 00:00:00 | |
| DO2SHX-10 | 2026-08-31 05:05:03 | 53.17499 | 8.22102 | 93° | 20km/h | 22914m | 5.7m/s | -52.1°C | 4.0% | 36.6hPa | 2.7V | 00:00:00 | 01:33:23 | 00:00:00 | |
| DL1NUX | 2026-08-31 05:05:02 | 53.17503 | 8.22063 | 88° | 11km/h | 22879m | 5.9m/s | -52.2°C | 4% | 36.9hPa | 2.7V | 08:30:00 | 01:33:17 | 00:00:00 | |
| DL1XH-west | 2026-08-31 05:05:01 | 53.17501 | 8.22086 | 102° | 20km/h | 22901m | 4.8m/s | -52.1°C | 0.9% | 36.8hPa | 2.6V | 18:12:15 | 01:33:21 | 00:00:00 | |
| DO2SHX-10 | 2026-08-31 05:05:00 | 53.17502 | 8.22078 | 104° | 15km/h | 22897m | 4.7m/s | -52.1°C | 4.0% | 36.8hPa | 2.6V | 00:00:00 | 01:33:20 | 00:00:00 | |
| DD1CC2-15 | 2026-08-31 05:04:59 | 53.17502 | 8.22078 | 105° | 18km/h | 22897m | 4.8m/s | -52.2°C | 1.2% | 36.8hPa | 2.6V | 00:00:00 | 00:00:00 | 00:00:00 | |
| DD8BA-10 | 2026-08-31 05:04:58 | 53.17503 | 8.22067 | 96° | 15km/h | 22885m | 5.9m/s | -52.2°C | 4.1% | 36.8hPa | 2.6V | 00:00:00 | 00:00:00 | 00:00:00 | |
| DC6BW-12 | 2026-08-31 05:04:57 | 53.17503 | 8.22067 | 96° | 11km/h | 22885m | 5.9m/s | -52.2°C | 1.2% | 36.9hPa | 2.6V | 00:00:00 | 00:00:00 | 00:00:00 | |
| DB0DAN | 2026-08-31 05:04:55 | 53.17503 | 8.22052 | 80° | 15km/h | 22867m | 5m/s | -52.2°C | 1.2% | 36.98hPa | 2.6V | 00:00:00 | 00:00:00 | 00:00:00 | |
| DM0DOS-11 | 2026-08-31 05:04:55 | 53.17502 | 8.22046 | 72° | 15km/h | 22862m | 5.5m/s | -52.1°C | 4% | 37hPa | 2.6V | 08:30:00 | 01:33:14 | 00:00:00 | |
| BIOWL1-15 | 2026-08-31 05:04:55 | 53.17503 | 8.22052 | 80° | 15km/h | 22867m | 5m/s | -52.2°C | 0.9% | 37hPa | 2.6V | 18:12:15 | 01:33:15 | 00:00:00 | |
| DO2JMG | 2026-08-31 05:04:54 | 53.17502 | 8.22046 | 73° | 15km/h | 22862m | 5.5m/s | -52.1°C | 0.8% | 37hPa | 2.6V | 18:12:15 | 01:33:14 | 00:00:00 | |
| DF8AY | 2026-08-31 05:04:53 | 53.17500 | 8.22040 | 62° | 15km/h | 22856m | 6.8m/s | -52.1°C | 0.8% | 37hPa | 2.6V | 18:12:15 | 01:33:13 | 00:00:00 | |
| DL1XH-west | 2026-08-31 05:04:50 | 53.17497 | 8.22020 | 89° | 18km/h | 22838m | 6.6m/s | -52.1°C | 0.8% | 37.1hPa | 2.7V | 18:12:15 | 01:33:10 | 00:00:00 | |
| AA1-15 | 2026-08-31 05:04:45 | 53.17500 | 8.21984 | 91° | 16km/h | 22809m | 6.2m/s | -52.1°C | 0.9% | 37.3hPa | 2.7V | 18:12:15 | 01:33:05 | 00:00:00 | |
| HSKMA3-T | 2026-08-31 05:04:44 | 53.17500 | 8.21977 | 80° | 18km/h | 22803m | 5.9m/s | -52.1°C | 0.8% | 37.4hPa | 2.7V | 18:12:15 | 01:33:04 | 00:00:00 | |
| DO2JMG | 2026-08-31 05:04:43 | 53.17498 | 8.21969 | 67° | 18km/h | 22798m | 4.9m/s | -52.1°C | 0.9% | 37.4hPa | 2.6V | 18:12:15 | 01:33:03 | 00:00:00 | |
| DO2LYB-13 | 2026-08-31 05:04:42 | 53.17498 | 8.21969 | 68° | 18km/h | 22798m | 4.9m/s | -52.1°C | 1.3% | 37.4hPa | 2.7V | 00:00:00 | 00:00:00 | 00:00:00 | |
| DB0DAN | 2026-08-31 05:04:40 | 53.17489 | 8.21955 | 24° | 16km/h | 22780m | 5.4m/s | -52.1°C | 1.2% | 37.49hPa | 2.7V | 00:00:00 | 00:00:00 | 00:00:00 | |
| DL1XH-west | 2026-08-31 05:04:40 | 53.17489 | 8.21955 | 24° | 16km/h | 22780m | 5.4m/s | -52.1°C | 0.9% | 37.5hPa | 2.7V | 18:12:15 | 01:33:00 | 00:00:00 | |
| AA1-15 | 2026-08-31 05:04:35 | 53.17478 | 8.21929 | 82° | 15km/h | 22751m | 6.6m/s | -52.1°C | 0.8% | 37.7hPa | 2.6V | 18:12:15 | 01:32:55 | 00:00:00 | |
| BIOWL1-15 | 2026-08-31 05:04:34 | 53.17477 | 8.21923 | 90° | 15km/h | 22745m | 5.5m/s | -52.1°C | 0.7% | 37.7hPa | 2.6V | 18:12:15 | 01:32:54 | 00:00:00 | |
| DO2JMG | 2026-08-31 05:04:33 | 53.17477 | 8.21916 | 94° | 16km/h | 22741m | 4.4m/s | -52.1°C | 0.8% | 37.7hPa | 2.7V | 18:12:15 | 01:32:53 | 00:00:00 | |
| DF8AY | 2026-08-31 05:04:32 | 53.17478 | 8.21909 | 94° | 18km/h | 22735m | 5.9m/s | -52.1°C | 0.7% | 37.8hPa | 2.7V | 18:12:15 | 01:32:52 | 00:00:00 | |
| DO2SHX-10 | 2026-08-31 05:04:32 | 53.17478 | 8.21909 | 95° | 18km/h | 22736m | 5.9m/s | -52.1°C | 3.9% | 37.7hPa | 2.6V | 00:00:00 | 01:32:52 | 00:00:00 | |
| EDDB2-12 | 2026-08-31 05:04:31 | 53.17478 | 8.21901 | 92° | 20km/h | 22730m | 5.6m/s | -52.2°C | 1.1% | 37.8hPa | 2.6V | 00:00:00 | 00:00:00 | 00:00:00 | |
| GOEST3-10 | 2026-08-31 05:04:30 | 53.17478 | 8.21893 | 88° | 16km/h | 22725m | 4.8m/s | -52.1°C | 3.9% | 37.8hPa | 2.6V | 00:00:00 | 01:32:50 | 00:00:00 | |
| DL1XH1-15 | 2026-08-31 05:04:29 | 53.17463 | 8.21863 | 27° | 20km/h | 22690m | 5.2m/s | -52.4°C | 4.2% | 38hPa | 2.6V | 08:30:00 | 01:32:44 | 00:00:00 | |
| DL1XH-west | 2026-08-31 05:04:29 | 53.17478 | 8.21886 | 81° | 15km/h | 22719m | 6.6m/s | -52.2°C | 0.9% | 37.8hPa | 2.6V | 18:12:15 | 01:32:49 | 00:00:00 | |
| BIOWL1-15 | 2026-08-31 05:04:26 | 53.17462 | 8.21863 | 27° | 20km/h | 22690m | 5.2m/s | -52.4°C | 0.9% | 38hPa | 2.6V | 18:12:15 | 01:32:44 | 00:00:00 | |
| DB0DAN | 2026-08-31 05:04:25 | 53.17467 | 8.21868 | 31° | 20km/h | 22695m | 4.7m/s | -52.4°C | 1.2% | 37.99hPa | 2.6V | 00:00:00 | 00:00:00 | 00:00:00 | |
| AA1-15 | 2026-08-31 05:04:25 | 53.17467 | 8.21868 | 31° | 20km/h | 22695m | 4.7m/s | -52.4°C | 1% | 38hPa | 2.6V | 18:12:15 | 01:32:45 | 00:00:00 | |
| HSKMA3-T | 2026-08-31 05:04:23 | 53.17458 | 8.21860 | 26° | 18km/h | 22684m | 6.2m/s | -52.4°C | 0.9% | 38hPa | 2.6V | 18:12:15 | 01:32:43 | 00:00:00 | |
| DO2JMG | 2026-08-31 05:04:22 | 53.17454 | 8.21856 | 36° | 16km/h | 22679m | 4.8m/s | -52.4°C | 0.9% | 38.1hPa | 2.7V | 18:12:15 | 01:32:42 | 00:00:00 | |
| DL1XH-west | 2026-08-31 05:04:19 | 53.17446 | 8.21836 | 70° | 20km/h | 22662m | 4.4m/s | -52.3°C | 0.8% | 38.2hPa | 2.6V | 18:12:15 | 01:32:39 | 00:00:00 | |
| DD8BA-10 | 2026-08-31 05:04:18 | 53.17445 | 8.21829 | 71° | 16km/h | 22657m | 5.4m/s | -52.3°C | 4.1% | 38.2hPa | 2.7V | 00:00:00 | 00:00:00 | 00:00:00 | |
| DL1NUX | 2026-08-31 05:04:17 | 53.17427 | 8.21808 | 19° | 20km/h | 22624m | 5.6m/s | -52.4°C | 4.1% | 38.4hPa | 2.7V | 08:30:00 | 01:32:32 | 00:00:00 | |
| BIOWL1-15 | 2026-08-31 05:04:15 | 53.17418 | 8.21805 | 5° | 18km/h | 22612m | 5.6m/s | -52.4°C | 0.9% | 38.5hPa | 2.6V | 18:12:15 | 01:32:30 | 00:00:00 | |
| DM0DOS-11 | 2026-08-31 05:04:15 | 53.17435 | 8.21813 | 23° | 16km/h | 22635m | 5.9m/s | -52.4°C | 4.1% | 38.4hPa | 2.6V | 08:30:00 | 01:32:34 | 00:00:00 | |
| AA1-15 | 2026-08-31 05:04:15 | 53.17439 | 8.21816 | 25° | 13km/h | 22641m | 4.8m/s | -52.4°C | 0.8% | 38.3hPa | 2.6V | 18:12:15 | 01:32:35 | 00:00:00 | |
| HSKMA3-T | 2026-08-31 05:04:12 | 53.17427 | 8.21808 | 20° | 20km/h | 22624m | 5.6m/s | -52.4°C | 0.9% | 38.4hPa | 2.7V | 18:12:15 | 01:32:32 | 00:00:00 | |
| DO2JMG | 2026-08-31 05:04:11 | 53.17422 | 8.21806 | 11° | 18km/h | 22618m | 6.8m/s | -52.4°C | 0.9% | 38.5hPa | 2.6V | 18:12:15 | 01:32:31 | 00:00:00 | |
| DB0DAN | 2026-08-31 05:04:10 | 53.17418 | 8.21805 | 5° | 16km/h | 22612m | 5.6m/s | -52.4°C | 1.2% | 38.48hPa | 2.6V | 00:00:00 | 00:00:00 | 00:00:00 | |
| DL1XH-west | 2026-08-31 05:04:08 | 53.17408 | 8.21803 | 12° | 20km/h | 22601m | 6.7m/s | -52.4°C | 0.9% | 38.5hPa | 2.7V | 18:12:15 | 01:32:28 | 00:00:00 | |
| DD8BA-10 | 2026-08-31 05:04:08 | 53.17408 | 8.21803 | 13° | 18km/h | 22601m | 6.6m/s | -52.3°C | 4.1% | 38.5hPa | 2.7V | 00:00:00 | 00:00:00 | 00:00:00 | |
| DL1NUX | 2026-08-31 05:04:07 | 53.17382 | 8.21783 | 44° | 20km/h | 22566m | 6.2m/s | -52.4°C | 4% | 38.7hPa | 2.6V | 08:30:00 | 01:32:22 | 00:00:00 | |
| DF8AY-15 | 2026-08-31 05:04:07 | 53.17403 | 8.21800 | 18° | 18km/h | 22595m | 5.3m/s | -52.3°C | 4.1% | 38.6hPa | 2.6V | 00:00:00 | 01:32:27 | 00:00:00 | |
| DM0DOS-11 | 2026-08-31 05:04:05 | 53.17390 | 8.21793 | 25° | 16km/h | 22578m | 4.5m/s | -52.3°C | 4% | 38.7hPa | 2.6V | 08:30:00 | 01:32:24 | 00:00:00 | |
| AA1-15 | 2026-08-31 05:04:05 | 53.17394 | 8.21795 | 18° | 18km/h | 22584m | 6.2m/s | -52.3°C | 0.9% | 38.6hPa | 2.6V | 18:12:15 | 01:32:25 | 00:00:00 | |
| BIOWL1-15 | 2026-08-31 05:04:03 | 53.17386 | 8.21789 | 35° | 18km/h | 22573m | 6.2m/s | -52.4°C | 0.9% | 38.7hPa | 2.6V | 18:12:15 | 01:32:23 | 00:00:00 | |
| HSKMA3-T | 2026-08-31 05:04:02 | 53.17382 | 8.21783 | 44° | 22km/h | 22567m | 6.2m/s | -52.4°C | 0.8% | 38.8hPa | 2.6V | 18:12:15 | 01:32:22 | 00:00:00 | |
| DO2JMG | 2026-08-31 05:04:01 | 53.17378 | 8.21777 | 48° | 20km/h | 22561m | 4.9m/s | -52.4°C | 0.9% | 38.8hPa | 2.7V | 18:12:15 | 01:32:21 | 00:00:00 | |
| DF8AY | 2026-08-31 05:04:00 | 53.17375 | 8.21771 | 47° | 18km/h | 22556m | 6.7m/s | -52.5°C | 0.9% | 38.8hPa | 2.7V | 18:12:15 | 01:32:20 | 00:00:00 | |
| DL1XH1-15 | 2026-08-31 05:03:59 | 53.17356 | 8.21743 | 33° | 16km/h | 22521m | 6.4m/s | -52.5°C | 4.1% | 39hPa | 2.7V | 08:30:00 | 01:32:14 | 00:00:00 | |
| DL1XH-west | 2026-08-31 05:03:58 | 53.17369 | 8.21762 | 44° | 15km/h | 22545m | 4.9m/s | -52.5°C | 0.9% | 38.9hPa | 2.6V | 18:12:15 | 01:32:18 | 00:00:00 | |
| DL4XJ-10 | 2026-08-31 05:03:58 | 53.17369 | 8.21762 | 45° | 15km/h | 22545m | 4.8m/s | -51.7°C | 0% | 0hPa | 2.6V | 00:00:00 | 00:00:00 | 00:00:00 | |
| DL1NUX | 2026-08-31 05:03:57 | 53.17349 | 8.21734 | 35° | 18km/h | 22510m | 4.9m/s | -52.6°C | 4.2% | 39.1hPa | 2.6V | 08:30:00 | 01:32:12 | 00:00:00 | |
| DO2SHX-10 | 2026-08-31 05:03:56 | 53.17363 | 8.21752 | 44° | 18km/h | 22533m | 5.5m/s | -52.4°C | 4.1% | 38.9hPa | 2.7V | 00:00:00 | 01:32:16 | 00:00:00 | |
| DL1XH-15 | 2026-08-31 05:03:55 | 53.17340 | 8.21723 | 41° | 24km/h | 22498m | 5.5m/s | -52.5°C | 4.2% | 39.2hPa | 2.7V | 08:30:00 | 01:32:10 | 00:00:00 | |
| DB0DAN | 2026-08-31 05:03:55 | 53.17360 | 8.21747 | 40° | 18km/h | 22527m | 5.8m/s | -52.5°C | 1.2% | 38.99hPa | 2.7V | 00:00:00 | 00:00:00 | 00:00:00 | |
| AA1-15 | 2026-08-31 05:03:55 | 53.17360 | 8.21747 | 40° | 18km/h | 22527m | 5.8m/s | -52.5°C | 0.9% | 39hPa | 2.7V | 18:12:15 | 01:32:15 | 00:00:00 | |
| BIOWL1-15 | 2026-08-31 05:03:53 | 53.17353 | 8.21739 | 32° | 16km/h | 22515m | 4.6m/s | -52.5°C | 0.9% | 39.1hPa | 2.6V | 18:12:15 | 01:32:13 | 00:00:00 | |
| HSKMA3-T | 2026-08-31 05:03:52 | 53.17349 | 8.21734 | 36° | 18km/h | 22510m | 4.9m/s | -52.6°C | 0.9% | 39.1hPa | 2.6V | 18:12:15 | 01:32:12 | 00:00:00 | |
| DO2JMG | 2026-08-31 05:03:51 | 53.17345 | 8.21729 | 39° | 24km/h | 22504m | 6.9m/s | -52.6°C | 0.9% | 39.1hPa | 2.6V | 18:12:15 | 01:32:11 | 00:00:00 | |
| DF8AY | 2026-08-31 05:03:50 | 53.17340 | 8.21723 | 41° | 24km/h | 22498m | 5.5m/s | -52.5°C | 0.9% | 39.2hPa | 2.7V | 18:12:15 | 01:32:10 | 00:00:00 | |
| DL1XH-west | 2026-08-31 05:03:48 | 53.17332 | 8.21710 | 39° | 18km/h | 22486m | 6.5m/s | -52.4°C | 0.9% | 39.2hPa | 2.6V | 18:12:15 | 01:32:08 | 00:00:00 | |
| DL3AQ-11 | 2026-08-31 05:03:47 | 53.17326 | 8.21703 | 37° | 11km/h | 22476m | 4.8m/s | -52.4°C | 1.2% | 39.3hPa | 2.7V | 00:00:00 | 00:00:00 | 00:00:00 | |
| DL1XH-15 | 2026-08-31 05:03:45 | 53.17316 | 8.21695 | 326° | 7km/h | 22443m | 4.8m/s | -52.3°C | 4.1% | 39.5hPa | 2.7V | 08:30:00 | 01:32:00 | 00:00:00 | |
| AA1-15 | 2026-08-31 05:03:45 | 53.17324 | 8.21700 | 43° | 11km/h | 22470m | 6.1m/s | -52.4°C | 0.9% | 39.4hPa | 2.7V | 18:12:15 | 01:32:05 | 00:00:00 | |
| HSKMA3-T | 2026-08-31 05:03:42 | 53.17319 | 8.21694 | 14° | 5km/h | 22455m | 5.6m/s | -52.3°C | 0.9% | 39.4hPa | 2.6V | 18:12:15 | 01:32:02 | 00:00:00 | |
| DB0DAN | 2026-08-31 05:03:40 | 53.17317 | 8.21695 | 326° | 7km/h | 22443m | 4.8m/s | -52.3°C | 1.2% | 39.52hPa | 2.7V | 00:00:00 | 00:00:00 | 00:00:00 | |
| DO2JMG | 2026-08-31 05:03:40 | 53.17317 | 8.21695 | 326° | 7km/h | 22443m | 4.8m/s | -52.3°C | 0.9% | 39.5hPa | 2.7V | 18:12:15 | 01:32:00 | 00:00:00 | |
| DL1XH-west | 2026-08-31 05:03:38 | 53.17311 | 8.21697 | 9° | 15km/h | 22433m | 5.8m/s | -52.4°C | 0.9% | 39.6hPa | 2.6V | 18:12:15 | 01:31:58 | 00:00:00 | |
| DL4XJ-10 | 2026-08-31 05:03:38 | 53.17311 | 8.21697 | 10° | 15km/h | 22434m | 5.7m/s | -51.6°C | 0% | 0hPa | 2.6V | 00:00:00 | 00:00:00 | 00:00:00 | |
| DJ2DS-15 | 2026-08-31 05:03:37 | 53.17303 | 8.21690 | 35° | 22km/h | 22423m | 4.9m/s | -52.5°C | 1.2% | 39.7hPa | 2.6V | 00:00:00 | 00:00:00 | 00:00:00 | |
| DL1NUX | 2026-08-31 05:03:36 | 53.17283 | 8.21678 | 338° | 16km/h | 22395m | 5.8m/s | -52.5°C | 4% | 39.8hPa | 2.6V | 08:30:00 | 01:31:51 | 00:00:00 | |
| DL3AQ-11 | 2026-08-31 05:03:36 | 53.17298 | 8.21684 | 37° | 20km/h | 22417m | 5.5m/s | -52.5°C | 1.2% | 39.7hPa | 2.6V | 00:00:00 | 00:00:00 | 00:00:00 | |
| DL1XH-15 | 2026-08-31 05:03:35 | 53.17279 | 8.21681 | 336° | 20km/h | 22389m | 5.8m/s | -52.5°C | 4% | 39.9hPa | 2.6V | 08:30:00 | 01:31:50 | 00:00:00 | |
| AA1-15 | 2026-08-31 05:03:34 | 53.17294 | 8.21679 | 31° | 18km/h | 22412m | 5.6m/s | -52.5°C | 0.9% | 39.7hPa | 2.7V | 18:12:15 | 01:31:54 | 00:00:00 | |
| HSKMA3-T | 2026-08-31 05:03:31 | 53.17283 | 8.21678 | 339° | 16km/h | 22395m | 5.8m/s | -52.5°C | 0.8% | 39.8hPa | 2.6V | 18:12:15 | 01:31:51 | 00:00:00 | |
| DO2JMG | 2026-08-31 05:03:29 | 53.17274 | 8.21685 | 338° | 22km/h | 22384m | 4.9m/s | -52.5°C | 0.9% | 39.9hPa | 2.7V | 18:12:15 | 01:31:49 | 00:00:00 | |
| DL1XH-west | 2026-08-31 05:03:27 | 53.17265 | 8.21691 | 335° | 16km/h | 22373m | 6.7m/s | -52.5°C | 0.9% | 40hPa | 2.7V | 18:12:15 | 01:31:47 | 00:00:00 | |
| DF8AY-15 | 2026-08-31 05:03:27 | 53.17264 | 8.21691 | 336° | 13km/h | 22374m | 6.7m/s | -52.5°C | 4.2% | 39.9hPa | 2.6V | 00:00:00 | 01:31:47 | 00:00:00 | |
| DL1NUX | 2026-08-31 05:03:26 | 53.17248 | 8.21701 | 334° | 11km/h | 22339m | 6.5m/s | -52.3°C | 4.1% | 40.1hPa | 2.6V | 08:30:00 | 01:31:41 | 00:00:00 | |
| DO2SHX-10 | 2026-08-31 05:03:26 | 53.17261 | 8.21694 | 332° | 13km/h | 22367m | 5.8m/s | -52.5°C | 4.2% | 39.9hPa | 2.6V | 00:00:00 | 01:31:46 | 08:30:00 | |
| DL1XH-15 | 2026-08-31 05:03:25 | 53.17246 | 8.21704 | 307° | 9km/h | 22333m | 6m/s | -52.3°C | 4.1% | 40.2hPa | 2.6V | 08:30:00 | 01:31:40 | 00:00:00 | |
| AA1-15 | 2026-08-31 05:03:24 | 53.17256 | 8.21697 | 346° | 11km/h | 22356m | 6.4m/s | -52.5°C | 0.9% | 40.1hPa | 2.6V | 18:12:15 | 01:31:44 | 00:00:00 | |
| BIOWL1-15 | 2026-08-31 05:03:22 | 53.17246 | 8.21704 | 308° | 9km/h | 22333m | 6m/s | -52.3°C | 0.9% | 40.2hPa | 2.6V | 18:12:15 | 01:31:40 | 00:00:00 | |
| HSKMA3-T | 2026-08-31 05:03:21 | 53.17248 | 8.21701 | 335° | 11km/h | 22339m | 6.5m/s | -52.3°C | 0.8% | 40.2hPa | 2.6V | 18:12:15 | 01:31:41 | 00:00:00 | |
| DF8AY | 2026-08-31 05:03:19 | 53.17245 | 8.21707 | 299° | 11km/h | 22328m | 4.9m/s | -52.3°C | 0.9% | 40.2hPa | 2.6V | 18:12:15 | 01:31:39 | 00:00:00 | |
| DO2JMG | 2026-08-31 05:03:18 | 53.17243 | 8.21712 | 306° | 13km/h | 22322m | 6.1m/s | -52.3°C | 0.9% | 40.3hPa | 2.7V | 18:12:15 | 01:31:38 | 00:00:00 | |
| DL1XH-west | 2026-08-31 05:03:17 | 53.17240 | 8.21716 | 316° | 16km/h | 22316m | 6.1m/s | -52.3°C | 0.8% | 40.3hPa | 2.7V | 18:12:15 | 01:31:37 | 00:00:00 | |
| DM0DOS-11 | 2026-08-31 05:03:15 | 53.17231 | 8.21732 | 305° | 18km/h | 22299m | 5.6m/s | -52.3°C | 4% | 40.4hPa | 2.7V | 08:30:00 | 01:31:34 | 00:00:00 | |
| AA1-15 | 2026-08-31 05:03:14 | 53.17231 | 8.21732 | 305° | 18km/h | 22299m | 5.6m/s | -52.3°C | 0.9% | 40.4hPa | 2.7V | 18:12:15 | 01:31:34 | 00:00:00 | |
| HSKMA3-T | 2026-08-31 05:03:11 | 53.17223 | 8.21747 | 330° | 15km/h | 22281m | 6.3m/s | -52.4°C | 0.8% | 40.5hPa | 2.6V | 18:12:15 | 01:31:31 | 00:00:00 | |
| DB0DAN | 2026-08-31 05:03:10 | 53.17219 | 8.21750 | 343° | 13km/h | 22276m | 4.4m/s | -52.4°C | 1.2% | 40.54hPa | 2.6V | 00:00:00 | 00:00:00 | 00:00:00 | |
| BIOWL1-15 | 2026-08-31 05:03:10 | 53.17219 | 8.21750 | 343° | 13km/h | 22276m | 4.4m/s | -52.4°C | 0.9% | 40.5hPa | 2.6V | 18:12:15 | 01:31:30 | 00:00:00 | |
| SO1NDE-10 | 2026-08-31 05:03:10 | 53.17219 | 8.21750 | 343° | 13km/h | 22277m | 4.3m/s | -52.3°C | 4.1% | 40.5hPa | 2.7V | 00:00:00 | 01:31:30 | 00:00:00 | |
| DM0DOS-11 | 2026-08-31 05:03:09 | 53.17205 | 8.21751 | 8° | 7km/h | 22242m | 5.5m/s | -52.5°C | 4.1% | 40.8hPa | 2.7V | 08:30:00 | 01:31:24 | 00:00:00 | |
| DF8AY | 2026-08-31 05:03:09 | 53.17216 | 8.21751 | 339° | 11km/h | 22271m | 6.9m/s | -52.5°C | 0.9% | 40.6hPa | 2.7V | 18:12:15 | 01:31:29 | 00:00:00 | |
| DO2JMG | 2026-08-31 05:03:08 | 53.17214 | 8.21753 | 344° | 9km/h | 22264m | 5.4m/s | -52.5°C | 0.9% | 40.6hPa | 2.7V | 18:12:15 | 01:31:28 | 00:00:00 | |
| DL1XH-west | 2026-08-31 05:03:07 | 53.17212 | 8.21753 | 2° | 9km/h | 22259m | 4.5m/s | -52.5°C | 0.9% | 40.6hPa | 2.6V | 18:12:15 | 01:31:27 | 00:00:00 | |
| AA1-15 | 2026-08-31 05:03:03 | 53.17204 | 8.21751 | 333° | 5km/h | 22236m | 6.1m/s | -52.4°C | 0.9% | 40.8hPa | 2.7V | 18:12:15 | 01:31:23 | 00:00:00 | |
| HSKMA3-T | 2026-08-31 05:03:00 | 53.17198 | 8.21757 | 335° | 13km/h | 22220m | 6.5m/s | -52.4°C | 0.9% | 40.9hPa | 2.6V | 18:12:15 | 01:31:20 | 00:00:00 | |
| BIOWL1-15 | 2026-08-31 05:02:59 | 53.17182 | 8.21761 | 18° | 13km/h | 22194m | 4.6m/s | -52.5°C | 0.9% | 41.1hPa | 2.7V | 18:12:15 | 01:31:15 | 00:00:00 | |
| DF8AY | 2026-08-31 05:02:58 | 53.17192 | 8.21760 | 349° | 15km/h | 22210m | 4.5m/s | -52.4°C | 0.8% | 41hPa | 2.6V | 18:12:15 | 01:31:18 | 00:00:00 | |
| DO2JMG | 2026-08-31 05:02:57 | 53.17188 | 8.21761 | 350° | 13km/h | 22204m | 6.4m/s | -52.5°C | 0.9% | 41hPa | 2.7V | 18:12:15 | 01:31:17 | 00:00:00 | |
| DL1XH-west | 2026-08-31 05:02:56 | 53.17185 | 8.21762 | 360° | 11km/h | 22198m | 5.2m/s | -52.5°C | 0.9% | 41hPa | 2.7V | 18:12:15 | 01:31:16 | 00:00:00 | |
| BIOWL9-15 | 2026-08-31 05:02:56 | 53.17185 | 8.21762 | 359° | 11km/h | 22199m | 5.2m/s | -52.5°C | 1.2% | 41.0hPa | 2.6V | 00:00:00 | 00:00:00 | 00:00:00 | |
| DM0DOS-11 | 2026-08-31 05:02:55 | 53.17179 | 8.21758 | 28° | 15km/h | 22188m | 7m/s | -52.5°C | 4.1% | 41.1hPa | 2.6V | 08:30:00 | 01:31:14 | 00:00:00 | |
| DB0DAN | 2026-08-31 05:02:55 | 53.17182 | 8.21761 | 18° | 11km/h | 22194m | 4.6m/s | -52.5°C | 1.2% | 41.07hPa | 2.7V | 00:00:00 | 00:00:00 | 00:00:00 | |
| AA1-15 | 2026-08-31 05:02:53 | 53.17176 | 8.21754 | 43° | 18km/h | 22182m | 5.2m/s | -52.5°C | 0.9% | 41.2hPa | 2.6V | 18:12:15 | 01:31:13 | 00:00:00 | |
| HSKMA3-T | 2026-08-31 05:02:50 | 53.17169 | 8.21737 | 76° | 15km/h | 22164m | 4.6m/s | -52.5°C | 0.9% | 41.2hPa | 2.7V | 18:12:15 | 01:31:10 | 00:00:00 | |
| BIOWL1-15 | 2026-08-31 05:02:48 | 53.17167 | 8.21726 | 62° | 13km/h | 22154m | 5.7m/s | -52.5°C | 0.8% | 41.4hPa | 2.6V | 18:12:15 | 01:31:08 | 00:00:00 | |
| DF8AY | 2026-08-31 05:02:47 | 53.17138 | 8.21689 | 48° | 15km/h | 22098m | 6m/s | -52.5°C | 0.9% | 41.7hPa | 2.6V | 18:12:15 | 01:30:58 | 00:00:00 | |
| DO2JMG | 2026-08-31 05:02:46 | 53.17162 | 8.21718 | 33° | 16km/h | 22143m | 4.8m/s | -52.5°C | 0.9% | 41.4hPa | 2.7V | 18:12:15 | 01:31:06 | 00:00:00 | |
| DL1XH-15 | 2026-08-31 05:02:45 | 53.17144 | 8.21699 | 38° | 18km/h | 22110m | 4.7m/s | -52.5°C | 4.1% | 41.6hPa | 2.6V | 08:30:00 | 01:31:00 | 00:00:00 | |
| DL1XH-west | 2026-08-31 05:02:45 | 53.17159 | 8.21714 | 28° | 15km/h | 22138m | 5.3m/s | -52.5°C | 0.9% | 41.4hPa | 2.7V | 18:12:15 | 01:31:05 | 00:00:00 | |
| AA1-15 | 2026-08-31 05:02:42 | 53.17151 | 8.21707 | 32° | 13km/h | 22121m | 5.8m/s | -52.5°C | 0.9% | 41.5hPa | 2.7V | 18:12:15 | 01:31:02 | 00:00:00 | |
| DB0DAN | 2026-08-31 05:02:40 | 53.17144 | 8.21699 | 38° | 18km/h | 22110m | 4.7m/s | -52.5°C | 1.2% | 41.62hPa | 2.6V | 00:00:00 | 00:00:00 | 00:00:00 | |
| HSKMA3-T | 2026-08-31 05:02:40 | 53.17144 | 8.21699 | 38° | 18km/h | 22110m | 4.7m/s | -52.5°C | 0.9% | 41.6hPa | 2.6V | 18:12:15 | 01:31:00 | 00:00:00 | |
| DO2JMG | 2026-08-31 05:02:36 | 53.17132 | 8.21680 | 38° | 16km/h | 22088m | 5.4m/s | -52.5°C | 0.9% | 41.8hPa | 2.7V | 18:12:15 | 01:30:56 | 00:00:00 | |
| DL1XH-west | 2026-08-31 05:02:35 | 53.17128 | 8.21676 | 27° | 20km/h | 22082m | 6.1m/s | -52.5°C | 0.9% | 41.8hPa | 2.6V | 18:12:15 | 01:30:55 | 00:00:00 | |
| AA1-15 | 2026-08-31 05:02:32 | 53.17114 | 8.21668 | 11° | 16km/h | 22065m | 6m/s | -52.5°C | 0.9% | 41.9hPa | 2.7V | 18:12:15 | 01:30:52 | 00:00:00 | |
| DB0NH | 2026-08-31 05:02:32 | 53.17114 | 8.21668 | 11° | 18km/h | 22065m | 5.9m/s | -52.4°C | 4.2% | 41.9hPa | 2.7V | 00:00:00 | 01:30:52 | 08:30:00 | |
| DO2SHX-10 | 2026-08-31 05:02:31 | 53.17110 | 8.21667 | 6° | 18km/h | 22060m | 4.6m/s | -52.4°C | 4.2% | 41.9hPa | 2.7V | 00:00:00 | 01:30:51 | 00:00:00 | |
| DM0DOS-11 | 2026-08-31 05:02:29 | 53.17084 | 8.21654 | 29° | 15km/h | 22021m | 6.2m/s | -52.4°C | 4.2% | 42.2hPa | 2.7V | 08:30:00 | 01:30:44 | 00:00:00 | |
| HSKMA3-T | 2026-08-31 05:02:29 | 53.17101 | 8.21666 | 8° | 20km/h | 22048m | 5.6m/s | -52.5°C | 0.9% | 42hPa | 2.6V | 18:12:15 | 01:30:49 | 00:00:00 | |
| DF8AY | 2026-08-31 05:02:27 | 53.17093 | 8.21662 | 25° | 15km/h | 22038m | 5.8m/s | -52.5°C | 0.9% | 42.1hPa | 2.6V | 18:12:15 | 01:30:47 | 00:00:00 | |
| DO2JMG | 2026-08-31 05:02:26 | 53.17089 | 8.21659 | 31° | 13km/h | 22032m | 5.6m/s | -52.5°C | 0.9% | 42.1hPa | 2.6V | 18:12:15 | 01:30:46 | 00:00:00 | |
| DB0DAN | 2026-08-31 05:02:25 | 53.17087 | 8.21656 | 33° | 11km/h | 22027m | 4.9m/s | -52.4°C | 1.2% | 42.18hPa | 2.7V | 00:00:00 | 00:00:00 | 00:00:00 | |
| DL1XH-west | 2026-08-31 05:02:24 | 53.17084 | 8.21654 | 29° | 15km/h | 22021m | 6.2m/s | -52.4°C | 0.9% | 42.2hPa | 2.7V | 18:12:15 | 01:30:44 | 00:00:00 | |
| AA1-15 | 2026-08-31 05:02:22 | 53.17076 | 8.21648 | 21° | 18km/h | 22010m | 5m/s | -52.3°C | 0.9% | 42.3hPa | 2.6V | 18:12:15 | 01:30:42 | 00:00:00 | |
| DK5PH-5 | 2026-08-31 05:02:22 | 53.17076 | 8.21648 | 21° | 16km/h | 22010m | 4.9m/s | 0°C | 0% | 0hPa | 2.6V | 00:00:00 | 01:30:42 | 00:00:00 | |
| SONDE2-11 | 2026-08-31 05:02:20 | 53.17064 | 8.21640 | 26° | 15km/h | 21993m | 5.1m/s | -52.2°C | 1.2% | 42.4hPa | 2.6V | 00:00:00 | 00:00:00 | 00:00:00 | |
| DM0DOS-11 | 2026-08-31 05:02:19 | 53.17046 | 8.21625 | 42° | 13km/h | 21964m | 5.7m/s | -52.1°C | 4.1% | 42.6hPa | 2.6V | 08:30:00 | 01:30:34 | 00:00:00 | |
| HSKMA3-T | 2026-08-31 05:02:19 | 53.17064 | 8.21640 | 26° | 15km/h | 21993m | 5.1m/s | -52.2°C | 0.9% | 42.4hPa | 2.6V | 18:12:15 | 01:30:39 | 00:00:00 | |
| DO2SHX-10 | 2026-08-31 05:02:19 | 53.17064 | 8.21640 | 27° | 16km/h | 21993m | 5.0m/s | -52.2°C | 4.1% | 42.4hPa | 2.6V | 00:00:00 | 01:30:39 | 00:00:00 | |
| DD8BA-10 | 2026-08-31 05:02:18 | 53.17061 | 8.21637 | 24° | 16km/h | 21988m | 5.5m/s | -52.1°C | 4.1% | 42.4hPa | 2.7V | 00:00:00 | 00:00:00 | 00:00:00 | |
| DF5WG-10 | 2026-08-31 05:02:17 | 53.17057 | 8.21634 | 21° | 16km/h | 21982m | 5.9m/s | -52.1°C | 4.1% | 42.4hPa | 2.7V | 00:00:00 | 01:30:37 | 00:00:00 | |
| DL1NUX | 2026-08-31 05:02:16 | 53.17038 | 8.21611 | 40° | 18km/h | 21948m | 5.9m/s | -52°C | 4.1% | 42.7hPa | 2.7V | 08:30:00 | 01:30:31 | 00:00:00 | |
| BIOWL1-15 | 2026-08-31 05:02:16 | 53.17052 | 8.21632 | 21° | 18km/h | 21976m | 5.2m/s | -52.1°C | 0.9% | 42.5hPa | 2.7V | 18:12:15 | 01:30:36 | 00:00:00 | |
| DO2JMG | 2026-08-31 05:02:15 | 53.17049 | 8.21629 | 29° | 16km/h | 21970m | 6.1m/s | -52.1°C | 0.9% | 42.5hPa | 2.6V | 18:12:15 | 01:30:35 | 00:00:00 | |
| DL1XH-west | 2026-08-31 05:02:13 | 53.17043 | 8.21621 | 51° | 15km/h | 21959m | 4.9m/s | -52.1°C | 0.8% | 42.6hPa | 2.6V | 18:12:15 | 01:30:33 | 00:00:00 | |
| AA1-15 | 2026-08-31 05:02:11 | 53.17038 | 8.21611 | 40° | 18km/h | 21948m | 5.9m/s | -52.1°C | 0.9% | 42.7hPa | 2.7V | 18:12:15 | 01:30:31 | 00:00:00 | |
| DB0DAN | 2026-08-31 05:02:10 | 53.17034 | 8.21606 | 38° | 18km/h | 21943m | 5.2m/s | -52.1°C | 1.2% | 42.73hPa | 2.6V | 00:00:00 | 00:00:00 | 00:00:00 | |
| HSKMA3-T | 2026-08-31 05:02:08 | 53.17027 | 8.21597 | 43° | 16km/h | 21931m | 6.1m/s | -52.1°C | 0.8% | 42.8hPa | 2.6V | 18:12:15 | 01:30:28 | 00:00:00 | |
| DD8BA-10 | 2026-08-31 05:02:08 | 53.17027 | 8.21597 | 44° | 16km/h | 21931m | 6.1m/s | -52.0°C | 4.0% | 42.7hPa | 2.6V | 00:00:00 | 00:00:00 | 00:00:00 | |
| DM0DOS-11 | 2026-08-31 05:02:07 | 53.17012 | 8.21579 | 35° | 18km/h | 21910m | 4.3m/s | -52.1°C | 4% | 42.9hPa | 2.6V | 08:30:00 | 01:30:24 | 00:00:00 | |
| DO2SHX-10 | 2026-08-31 05:02:07 | 53.17024 | 8.21592 | 42° | 18km/h | 21926m | 4.2m/s | -52.0°C | 4.0% | 42.8hPa | 2.6V | 00:00:00 | 01:30:27 | 00:00:00 | |
| DL1NUX | 2026-08-31 05:02:06 | 53.17004 | 8.21565 | 54° | 15km/h | 21893m | 5.7m/s | -52.1°C | 4% | 43hPa | 2.6V | 08:30:00 | 01:30:21 | 00:00:00 | |
| BIOWL1-15 | 2026-08-31 05:02:06 | 53.17021 | 8.21588 | 35° | 18km/h | 21920m | 6.8m/s | -52.1°C | 0.8% | 42.9hPa | 2.7V | 18:12:15 | 01:30:26 | 00:00:00 | |
| DO2JMG | 2026-08-31 05:02:05 | 53.17017 | 8.21583 | 32° | 20km/h | 21915m | 4.5m/s | -52.1°C | 0.9% | 42.9hPa | 2.7V | 18:12:15 | 01:30:25 | 00:00:00 | |
| DL1XH-west | 2026-08-31 05:02:03 | 53.17009 | 8.21574 | 43° | 16km/h | 21905m | 6.6m/s | -52.1°C | 0.8% | 43hPa | 2.6V | 18:12:15 | 01:30:23 | 00:00:00 | |
| AA1-15 | 2026-08-31 05:02:01 | 53.17005 | 8.21565 | 55° | 15km/h | 21893m | 5.7m/s | -52.1°C | 0.8% | 43hPa | 2.6V | 18:12:15 | 01:30:21 | 00:00:00 | |
| HSKMA3-T | 2026-08-31 05:01:58 | 53.16996 | 8.21548 | 48° | 18km/h | 21877m | 3.8m/s | -52.1°C | 0.8% | 43.2hPa | 2.7V | 18:12:15 | 01:30:18 | 00:00:00 | |
| DL4XJ-10 | 2026-08-31 05:01:58 | 53.16996 | 8.21548 | 49° | 16km/h | 21877m | 3.7m/s | -51.2°C | 0% | 0hPa | 2.6V | 00:00:00 | 00:00:00 | 00:00:00 | |
| DM0DOS-11 | 2026-08-31 05:01:57 | 53.16985 | 8.21525 | 45° | 18km/h | 21856m | 6.1m/s | -52.1°C | 4% | 43.3hPa | 2.6V | 08:30:00 | 01:30:14 | 00:00:00 | |
| EDDB2-12 | 2026-08-31 05:01:56 | 53.16988 | 8.21531 | 52° | 16km/h | 21862m | 4.7m/s | -52.1°C | 1.2% | 43.3hPa | 2.6V | 00:00:00 | 00:00:00 | 00:00:00 | |
| DL1XH-15 | 2026-08-31 05:01:55 | 53.16971 | 8.21503 | 48° | 16km/h | 21833m | 5.5m/s | -52.2°C | 4.1% | 43.5hPa | 2.6V | 08:30:00 | 01:30:10 | 00:00:00 | |
| DB0DAN | 2026-08-31 05:01:55 | 53.16988 | 8.21531 | 53° | 16km/h | 21861m | 4.7m/s | -52.1°C | 1.2% | 43.27hPa | 2.6V | 00:00:00 | 00:00:00 | 00:00:00 | |
| BIOWL1-15 | 2026-08-31 05:01:55 | 53.16988 | 8.21531 | 53° | 18km/h | 21862m | 4.7m/s | -52.1°C | 0.8% | 43.3hPa | 2.6V | 18:12:15 | 01:30:15 | 00:00:00 | |
| DO2JMG | 2026-08-31 05:01:54 | 53.16985 | 8.21525 | 46° | 18km/h | 21856m | 6.1m/s | -52.2°C | 0.8% | 43.3hPa | 2.6V | 18:12:15 | 01:30:14 | 00:00:00 | |
| DL1XH-west | 2026-08-31 05:01:53 | 53.16982 | 8.21520 | 40° | 22km/h | 21850m | 5.8m/s | -52.2°C | 0.8% | 43.3hPa | 2.7V | 18:12:15 | 01:30:13 | 00:00:00 | |
| AA1-15 | 2026-08-31 05:01:51 | 53.16974 | 8.21508 | 44° | 18km/h | 21840m | 6.3m/s | -52.2°C | 0.9% | 43.5hPa | 2.7V | 18:12:15 | 01:30:11 | 00:00:00 | |
| DF8AY | 2026-08-31 05:01:51 | 53.16958 | 8.21475 | 59° | 18km/h | 21807m | 5.4m/s | -52.4°C | 0.9% | 43.6hPa | 2.6V | 18:12:15 | 01:30:05 | 00:00:00 | |
| HSKMA3-T | 2026-08-31 05:01:47 | 53.16963 | 8.21488 | 50° | 18km/h | 21817m | 5.1m/s | -52.3°C | 0.9% | 43.6hPa | 2.7V | 18:12:15 | 01:30:07 | 00:00:00 | |
| DL3AQ-11 | 2026-08-31 05:01:47 | 53.16960 | 8.21482 | 54° | 18km/h | 21812m | 4.4m/s | -52.3°C | 1.2% | 43.6hPa | 2.6V | 00:00:00 | 00:00:00 | 00:00:00 | |
| DM0DOS-11 | 2026-08-31 05:01:46 | 53.16956 | 8.21469 | 66° | 15km/h | 21802m | 5.5m/s | -52.4°C | 4.1% | 43.7hPa | 2.6V | 08:30:00 | 01:30:04 | 00:00:00 | |
| DO2SHX-10 | 2026-08-31 05:01:46 | 53.16960 | 8.21482 | 55° | 16km/h | 21812m | 4.3m/s | -52.3°C | 4.1% | 43.6hPa | 2.6V | 00:00:00 | 01:30:06 | 00:00:00 | |
| DL1XH-15 | 2026-08-31 05:01:45 | 53.16947 | 8.21455 | 22° | 18km/h | 21782m | 5.6m/s | -52.4°C | 4.1% | 43.8hPa | 2.6V | 08:30:00 | 01:30:00 | 00:00:00 | |
| BIOWL1-15 | 2026-08-31 05:01:44 | 53.16953 | 8.21461 | 42° | 11km/h | 21793m | 4m/s | -52.5°C | 0.9% | 43.8hPa | 2.7V | 18:12:15 | 01:30:02 | 00:00:00 | |
| DO2JMG | 2026-08-31 05:01:43 | 53.16955 | 8.21465 | 62° | 11km/h | 21797m | 3.9m/s | -52.4°C | 0.9% | 43.7hPa | 2.6V | 18:12:15 | 01:30:03 | 00:00:00 | |
| AA1-15 | 2026-08-31 05:01:41 | 53.16951 | 8.21458 | 30° | 13km/h | 21788m | 6.2m/s | -52.4°C | 0.9% | 43.8hPa | 2.7V | 18:12:15 | 01:30:01 | 00:00:00 | |
| DB0DAN | 2026-08-31 05:01:40 | 53.16947 | 8.21455 | 22° | 16km/h | 21782m | 5.6m/s | -52.4°C | 1.2% | 43.82hPa | 2.6V | 00:00:00 | 00:00:00 | 00:00:00 | |
| DO2SHX-10 | 2026-08-31 05:01:40 | 53.16947 | 8.21455 | 23° | 20km/h | 21782m | 5.6m/s | -52.4°C | 4.1% | 43.8hPa | 2.7V | 00:00:00 | 01:30:00 | 00:00:00 | |
| DD8BA-10 | 2026-08-31 05:01:38 | 53.16938 | 8.21448 | 34° | 22km/h | 21772m | 4.9m/s | -52.4°C | 4.1% | 43.8hPa | 2.7V | 00:00:00 | 00:00:00 | 08:30:00 | |
| DO9LL-15 | 2026-08-31 05:01:37 | 53.16934 | 8.21442 | 47° | 26km/h | 21766m | 6.0m/s | -52.4°C | 4.1% | 43.9hPa | 2.6V | 00:00:00 | 01:29:57 | 00:00:00 | |
| DM0DOS-11 | 2026-08-31 05:01:36 | 53.16924 | 8.21419 | 52° | 24km/h | 21750m | 6.2m/s | -52.4°C | 4% | 44hPa | 2.6V | 08:30:00 | 01:29:54 | 00:00:00 | |
| HSKMA3-T | 2026-08-31 05:01:36 | 53.16930 | 8.21435 | 57° | 22km/h | 21761m | 4.8m/s | -52.3°C | 0.9% | 44hPa | 2.6V | 18:12:15 | 01:29:56 | 00:00:00 | |
| DL3AQ-11 | 2026-08-31 05:01:36 | 53.16927 | 8.21427 | 57° | 22km/h | 21756m | 5.1m/s | -52.3°C | 1.2% | 44.0hPa | 2.6V | 00:00:00 | 00:00:00 | 00:00:00 | |
| DL1XH-15 | 2026-08-31 05:01:35 | 53.16910 | 8.21392 | 40° | 20km/h | 21729m | 4.6m/s | -52.4°C | 4% | 44.2hPa | 2.6V | 08:30:00 | 01:29:50 | 00:00:00 | |
| DF8AY | 2026-08-31 05:01:34 | 53.16924 | 8.21419 | 53° | 24km/h | 21750m | 6.2m/s | -52.4°C | 0.8% | 44hPa | 2.6V | 18:12:15 | 01:29:54 | 00:00:00 | |
| DL1XH-west | 2026-08-31 05:01:33 | 53.16920 | 8.21412 | 50° | 22km/h | 21744m | 4.6m/s | -52.4°C | 0.8% | 44.1hPa | 2.7V | 18:12:15 | 01:29:53 | 00:00:00 | |
| AA1-15 | 2026-08-31 05:01:31 | 53.16914 | 8.21398 | 50° | 18km/h | 21734m | 5.4m/s | -52.4°C | 0.8% | 44.2hPa | 2.6V | 18:12:15 | 01:29:51 | 00:00:00 | |
| DO2SHX-10 | 2026-08-31 05:01:31 | 53.16914 | 8.21398 | 50° | 20km/h | 21734m | 5.3m/s | -52.3°C | 4.0% | 44.1hPa | 2.6V | 00:00:00 | 01:29:51 | 00:00:00 | |
| DL1NUX | 2026-08-31 05:01:30 | 53.16881 | 8.21368 | 22° | 24km/h | 21701m | 5m/s | -52.5°C | 4.1% | 44.4hPa | 2.6V | 08:30:00 | 01:29:45 | 00:00:00 | |
| GOEST3-10 | 2026-08-31 05:01:30 | 53.16910 | 8.21392 | 41° | 24km/h | 21729m | 4.6m/s | -52.3°C | 4.0% | 44.1hPa | 2.6V | 00:00:00 | 00:00:00 | 00:00:00 | |
| HTAHTA | 2026-08-31 05:01:29 | 53.16900 | 8.21382 | 25° | 26km/h | 21717m | 5.3m/s | -52.4°C | 1.2% | 44.3hPa | 2.6V | 00:00:00 | 00:00:00 | 00:00:00 | |
| DD8BA-10 | 2026-08-31 05:01:28 | 53.16900 | 8.21382 | 26° | 26km/h | 21717m | 5.2m/s | -52.4°C | 4.1% | 44.2hPa | 2.6V | 00:00:00 | 00:00:00 | 00:00:00 | |
| DF8AY-15 | 2026-08-31 05:01:27 | 53.16893 | 8.21377 | 23° | 27km/h | 21712m | 4.7m/s | -52.4°C | 4.1% | 44.2hPa | 2.6V | 00:00:00 | 01:29:47 | 00:00:00 | |
| DM0DOS-11 | 2026-08-31 05:01:26 | 53.16875 | 8.21364 | 23° | 24km/h | 21696m | 4.8m/s | -52.5°C | 4.2% | 44.4hPa | 2.6V | 08:30:00 | 01:29:44 | 00:00:00 | |
| HSKMA3-T | 2026-08-31 05:01:26 | 53.16887 | 8.21373 | 22° | 27km/h | 21706m | 6.3m/s | -52.5°C | 1% | 44.3hPa | 2.7V | 18:12:15 | 01:29:46 | 00:00:00 | |
| DB0DAN | 2026-08-31 05:01:25 | 53.16881 | 8.21368 | 23° | 24km/h | 21701m | 5m/s | -52.5°C | 1.2% | 44.37hPa | 2.6V | 00:00:00 | 00:00:00 | 00:00:00 | |
| BIOWL1-15 | 2026-08-31 05:01:24 | 53.16875 | 8.21364 | 23° | 24km/h | 21696m | 4.9m/s | -52.5°C | 1% | 44.4hPa | 2.6V | 18:12:15 | 01:29:44 | 00:00:00 | |
| DL1XH-west | 2026-08-31 05:01:23 | 53.16869 | 8.21360 | 23° | 26km/h | 21690m | 6.1m/s | -52.6°C | 0.9% | 44.5hPa | 2.6V | 18:12:15 | 01:29:43 | 00:00:00 | |
| DO2JMG | 2026-08-31 05:01:22 | 53.16863 | 8.21356 | 24° | 27km/h | 21684m | 5.8m/s | -52.6°C | 0.9% | 44.5hPa | 2.6V | 18:12:15 | 01:29:42 | 00:00:00 | |
| AA1-15 | 2026-08-31 05:01:21 | 53.16857 | 8.21351 | 27° | 27km/h | 21679m | 4.5m/s | -52.6°C | 0.9% | 44.5hPa | 2.7V | 18:12:15 | 01:29:41 | 00:00:00 | |
| HSKMA3-T | 2026-08-31 05:01:16 | 53.16831 | 8.21325 | 22° | 27km/h | 21652m | 4.9m/s | -52.5°C | 0.9% | 44.7hPa | 2.6V | 18:12:15 | 01:29:36 | 00:00:00 | |
| DM0DOS-11 | 2026-08-31 05:01:15 | 53.16817 | 8.21318 | 13° | 27km/h | 21643m | 5.9m/s | -52.5°C | 4.1% | 44.8hPa | 2.7V | 08:30:00 | 01:29:34 | 00:00:00 | |
| DL1XH-15 | 2026-08-31 05:01:15 | 53.16789 | 8.21313 | 6° | 33km/h | 21622m | 5.4m/s | -52.5°C | 4.1% | 44.9hPa | 2.6V | 08:30:00 | 01:29:30 | 00:00:00 | |
| DF8AY | 2026-08-31 05:01:14 | 53.16817 | 8.21318 | 14° | 27km/h | 21643m | 5.9m/s | -52.5°C | 0.9% | 44.8hPa | 2.7V | 18:12:15 | 01:29:34 | 00:00:00 | |
| DL1XH-west | 2026-08-31 05:01:13 | 53.16811 | 8.21316 | 7° | 26km/h | 21637m | 5m/s | -52.5°C | 0.9% | 44.8hPa | 2.7V | 18:12:15 | 01:29:33 | 00:00:00 | |
| DO2JMG | 2026-08-31 05:01:12 | 53.16804 | 8.21315 | 3° | 27km/h | 21633m | 4.4m/s | -52.5°C | 0.9% | 44.9hPa | 2.7V | 18:12:15 | 01:29:32 | 00:00:00 | |
| AA1-15 | 2026-08-31 05:01:11 | 53.16797 | 8.21315 | 3° | 31km/h | 21627m | 6m/s | -52.5°C | 0.9% | 44.9hPa | 2.6V | 18:12:15 | 01:29:31 | 00:00:00 | |
| DB0DAN | 2026-08-31 05:01:10 | 53.16789 | 8.21313 | 7° | 33km/h | 21622m | 5.4m/s | -52.5°C | 1.2% | 44.95hPa | 2.6V | 00:00:00 | 00:00:00 | 00:00:00 | |
| DO2SHX-10 | 2026-08-31 05:01:10 | 53.16789 | 8.21313 | 7° | 31km/h | 21622m | 5.4m/s | -52.4°C | 4.1% | 44.9hPa | 2.7V | 00:00:00 | 01:29:30 | 00:00:00 | |
| DL1NUX | 2026-08-31 05:01:08 | 53.16740 | 8.21271 | 36° | 35km/h | 21585m | 4.3m/s | -52.3°C | 4.1% | 45.2hPa | 2.7V | 08:30:00 | 01:29:23 | 00:00:00 | |
| DD8BA-10 | 2026-08-31 05:01:08 | 53.16773 | 8.21308 | 18° | 29km/h | 21612m | 6.1m/s | -52.4°C | 4.2% | 45.0hPa | 2.7V | 00:00:00 | 00:00:00 | 00:00:00 | |
| DO9LL-15 | 2026-08-31 05:01:07 | 53.16765 | 8.21303 | 27° | 29km/h | 21606m | 5.4m/s | -52.3°C | 4.1% | 45.0hPa | 2.6V | 00:00:00 | 01:29:27 | 00:00:00 | |
| DO2SHX-10 | 2026-08-31 05:01:06 | 53.16759 | 8.21296 | 37° | 31km/h | 21601m | 4.6m/s | -52.3°C | 4.2% | 45.0hPa | 2.6V | 00:00:00 | 01:29:26 | 08:30:00 | |
| DL1XH-15 | 2026-08-31 05:01:05 | 53.16721 | 8.21252 | 23° | 26km/h | 21569m | 4.3m/s | -52.2°C | 4% | 45.3hPa | 2.6V | 08:30:00 | 01:29:20 | 00:00:00 | |
| HSKMA3-T | 2026-08-31 05:01:05 | 53.16753 | 8.21289 | 40° | 31km/h | 21595m | 5.7m/s | -52.3°C | 0.9% | 45.1hPa | 2.6V | 18:12:15 | 01:29:25 | 00:00:00 | |
| DF8AY | 2026-08-31 05:01:03 | 53.16740 | 8.21271 | 37° | 35km/h | 21585m | 4.3m/s | -52.3°C | 0.9% | 45.2hPa | 2.7V | 18:12:15 | 01:29:23 | 00:00:00 | |
| DL1XH-west | 2026-08-31 05:01:02 | 53.16734 | 8.21263 | 33° | 31km/h | 21580m | 4.9m/s | -52.3°C | 0.8% | 45.2hPa | 2.7V | 18:12:15 | 01:29:22 | 00:00:00 | |
| DO2JMG | 2026-08-31 05:01:01 | 53.16727 | 8.21257 | 29° | 27km/h | 21575m | 6m/s | -52.2°C | 0.9% | 45.3hPa | 2.6V | 18:12:15 | 01:29:21 | 00:00:00 | |
| AA1-15 | 2026-08-31 05:01:00 | 53.16721 | 8.21252 | 23° | 26km/h | 21569m | 4.3m/s | -52.2°C | 0.8% | 45.3hPa | 2.6V | 18:12:15 | 01:29:20 | 00:00:00 | |
| DL8OAI-8 | 2026-08-31 05:01:00 | 53.16721 | 8.21252 | 24° | 26km/h | 21570m | 4.3m/s | -52.2°C | 1.2% | 45.3hPa | 2.6V | 00:00:00 | 00:00:00 | 00:00:00 | |
| DD8BA-10 | 2026-08-31 05:00:58 | 53.16708 | 8.21244 | 19° | 29km/h | 21559m | 5.1m/s | -52.2°C | 4.1% | 45.3hPa | 2.6V | 00:00:00 | 00:00:00 | 00:00:00 | |
| DB0DAN | 2026-08-31 05:00:55 | 53.16688 | 8.21235 | 15° | 26km/h | 21543m | 4.8m/s | -52.2°C | 1.2% | 45.51hPa | 2.6V | 00:00:00 | 00:00:00 | 00:00:00 | |
| DM0DOS-11 | 2026-08-31 05:00:55 | 53.16681 | 8.21232 | 18° | 27km/h | 21537m | 5.7m/s | -52.2°C | 4.1% | 45.5hPa | 2.7V | 08:30:00 | 01:29:14 | 00:00:00 | |
| DL1XH-15 | 2026-08-31 05:00:55 | 53.16654 | 8.21210 | 28° | 27km/h | 21516m | 5.4m/s | -52.3°C | 4.1% | 45.7hPa | 2.6V | 08:30:00 | 01:29:10 | 00:00:00 | |
| HSKMA3-T | 2026-08-31 05:00:54 | 53.16681 | 8.21232 | 18° | 27km/h | 21537m | 5.7m/s | -52.2°C | 0.9% | 45.5hPa | 2.7V | 18:12:15 | 01:29:14 | 00:00:00 | |
| BIOWL1-15 | 2026-08-31 05:00:52 | 53.16667 | 8.21222 | 26° | 31km/h | 21527m | 4.6m/s | -52.3°C | 0.9% | 45.6hPa | 2.6V | 18:12:15 | 01:29:12 | 00:00:00 | |
| DL1XH-west | 2026-08-31 05:00:51 | 53.16660 | 8.21216 | 28° | 29km/h | 21522m | 5.7m/s | -52.3°C | 0.9% | 45.6hPa | 2.6V | 18:12:15 | 01:29:11 | 00:00:00 | |
| DO2JMG | 2026-08-31 05:00:50 | 53.16654 | 8.21210 | 29° | 27km/h | 21516m | 5.4m/s | -52.3°C | 0.9% | 45.7hPa | 2.6V | 18:12:15 | 01:29:10 | 00:00:00 | |
| AA1-15 | 2026-08-31 05:00:49 | 53.16648 | 8.21205 | 28° | 26km/h | 21511m | 5.1m/s | -52.3°C | 0.9% | 45.7hPa | 2.7V | 18:12:15 | 01:29:09 | 00:00:00 | |
| DF8AY | 2026-08-31 05:00:46 | 53.16594 | 8.21186 | 4° | 31km/h | 21470m | 4.9m/s | -52.4°C | 0.9% | 46hPa | 2.7V | 18:12:15 | 01:29:01 | 00:00:00 | |
| DL1XH-15 | 2026-08-31 05:00:45 | 53.16586 | 8.21185 | 2° | 29km/h | 21465m | 4.8m/s | -52.4°C | 4.1% | 46hPa | 2.7V | 08:30:00 | 01:29:00 | 00:00:00 | |
| HSKMA3-T | 2026-08-31 05:00:43 | 53.16608 | 8.21188 | 4° | 26km/h | 21480m | 4.2m/s | -52.4°C | 0.9% | 45.9hPa | 2.6V | 18:12:15 | 01:29:03 | 00:00:00 | |
| BIOWL1-15 | 2026-08-31 05:00:42 | 53.16602 | 8.21187 | 4° | 29km/h | 21475m | 6.1m/s | -52.4°C | 0.8% | 46hPa | 2.7V | 18:12:15 | 01:29:02 | 00:00:00 | |
| DB0DAN | 2026-08-31 05:00:40 | 53.16586 | 8.21185 | 3° | 29km/h | 21465m | 4.8m/s | -52.4°C | 1.2% | 46.04hPa | 2.7V | 00:00:00 | 00:00:00 | 00:00:00 | |
| DO2JMG | 2026-08-31 05:00:40 | 53.16586 | 8.21185 | 3° | 29km/h | 21465m | 4.8m/s | -52.4°C | 0.9% | 46hPa | 2.7V | 18:12:15 | 01:29:00 | 00:00:00 | |
| SO1NDE-10 | 2026-08-31 05:00:40 | 53.16586 | 8.21185 | 3° | 27km/h | 21465m | 4.8m/s | -52.4°C | 4.1% | 46.0hPa | 2.7V | 00:00:00 | 01:29:00 | 08:30:00 | |
| DO2SHX-10 | 2026-08-31 05:00:39 | 53.16579 | 8.21185 | 1° | 26km/h | 21460m | 6.3m/s | -52.3°C | 4.1% | 46.0hPa | 2.6V | 00:00:00 | 01:28:59 | 08:30:00 | |
| DL1NUX | 2026-08-31 05:00:38 | 53.16538 | 8.21187 | 358° | 27km/h | 21429m | 5.9m/s | -52.7°C | 4.2% | 46.3hPa | 2.7V | 08:30:00 | 01:28:53 | 00:00:00 | |
| AA1-15 | 2026-08-31 05:00:38 | 53.16572 | 8.21185 | 357° | 26km/h | 21454m | 4.7m/s | -52.4°C | 0.9% | 46.1hPa | 2.6V | 18:12:15 | 01:28:58 | 00:00:00 | |
| DD8BA-10 | 2026-08-31 05:00:38 | 53.16572 | 8.21185 | 357° | 26km/h | 21454m | 4.7m/s | -52.3°C | 4.1% | 46.1hPa | 2.6V | 00:00:00 | 00:00:00 | 00:00:00 | |
| DJ2DS-15 | 2026-08-31 05:00:37 | 53.16560 | 8.21186 | 357° | 26km/h | 21444m | 6.2m/s | -52.4°C | 1.2% | 46.2hPa | 2.6V | 00:00:00 | 00:00:00 | 00:00:00 | |
| DO2SHX-10 | 2026-08-31 05:00:36 | 53.16560 | 8.21186 | 358° | 29km/h | 21444m | 6.1m/s | -52.4°C | 4.1% | 46.2hPa | 2.6V | 00:00:00 | 01:28:56 | 00:00:00 | |
| DL1XH-15 | 2026-08-31 05:00:35 | 53.16520 | 8.21188 | 1° | 24km/h | 21414m | 5.8m/s | -52.6°C | 4.2% | 46.4hPa | 2.6V | 08:30:00 | 01:28:50 | 00:00:00 | |
| HSKMA3-T | 2026-08-31 05:00:32 | 53.16532 | 8.21187 | 357° | 24km/h | 21423m | 5.1m/s | -52.7°C | 1% | 46.4hPa | 2.6V | 18:12:15 | 01:28:52 | 00:00:00 | |
| BIOWL1-15 | 2026-08-31 05:00:31 | 53.16526 | 8.21188 | 359° | 22km/h | 21419m | 3.9m/s | -52.7°C | 1% | 46.4hPa | 2.6V | 18:12:15 | 01:28:51 | 00:00:00 | |
| DL1XH-west | 2026-08-31 05:00:30 | 53.16520 | 8.21188 | 1° | 24km/h | 21414m | 5.8m/s | -52.7°C | 0.9% | 46.4hPa | 2.6V | 18:12:15 | 01:28:50 | 00:00:00 | |
| DO2JMG | 2026-08-31 05:00:29 | 53.16514 | 8.21187 | 4° | 27km/h | 21408m | 5.7m/s | -52.6°C | 0.9% | 46.5hPa | 2.7V | 18:12:15 | 01:28:49 | 00:00:00 | |
| AA1-15 | 2026-08-31 05:00:28 | 53.16507 | 8.21187 | 1° | 27km/h | 21403m | 4m/s | -52.6°C | 1% | 46.5hPa | 2.7V | 18:12:15 | 01:28:48 | 00:00:00 | |
| DD8BA-10 | 2026-08-31 05:00:28 | 53.16507 | 8.21187 | 2° | 29km/h | 21403m | 4.0m/s | -52.5°C | 4.2% | 46.5hPa | 2.6V | 00:00:00 | 00:00:00 | 00:00:00 | |
| DO2KSM | 2026-08-31 05:00:27 | 53.16507 | 8.21187 | 2° | 27km/h | 21403m | 4.0m/s | -52.6°C | 1.3% | 46.5hPa | 2.6V | 00:00:00 | 00:00:00 | 00:00:00 | |
| DB0DAN | 2026-08-31 05:00:25 | 53.16486 | 8.21190 | 350° | 27km/h | 21388m | 5m/s | -52.5°C | 1.2% | 46.58hPa | 2.6V | 00:00:00 | 00:00:00 | 00:00:00 | |
| DL1XH-15 | 2026-08-31 05:00:25 | 53.16451 | 8.21204 | 338° | 27km/h | 21360m | 4.3m/s | -52.5°C | 4.2% | 46.8hPa | 2.7V | 08:30:00 | 01:28:40 | 00:00:00 | |
| DL1NUX | 2026-08-31 05:00:24 | 53.16444 | 8.21208 | 340° | 29km/h | 21355m | 6.5m/s | -52.4°C | 4.2% | 46.8hPa | 2.7V | 08:30:00 | 01:28:39 | 00:00:00 | |
| HSKMA3-T | 2026-08-31 05:00:21 | 53.16457 | 8.21200 | 341° | 27km/h | 21365m | 5.5m/s | -52.5°C | 0.9% | 46.8hPa | 2.6V | 18:12:15 | 01:28:41 | 00:00:00 | |
| DL1XH-west | 2026-08-31 05:00:20 | 53.16450 | 8.21204 | 339° | 27km/h | 21360m | 4.3m/s | -52.5°C | 1% | 46.8hPa | 2.7V | 18:12:15 | 01:28:40 | 00:00:00 | |
| DO2JMG | 2026-08-31 05:00:19 | 53.16444 | 8.21208 | 340° | 29km/h | 21355m | 6.5m/s | -52.4°C | 0.9% | 46.8hPa | 2.7V | 18:12:15 | 01:28:39 | 00:00:00 | |
| AA1-15 | 2026-08-31 05:00:17 | 53.16431 | 8.21216 | 339° | 26km/h | 21344m | 5.5m/s | -52.3°C | 0.9% | 46.9hPa | 2.6V | 18:12:15 | 01:28:37 | 00:00:00 | |
| DL4XJ-10 | 2026-08-31 05:00:17 | 53.16431 | 8.21216 | 340° | 22km/h | 21345m | 5.5m/s | -51.5°C | 0% | 0hPa | 2.7V | 00:00:00 | 00:00:00 | 00:00:00 | |
| SMARD9-15 | 2026-08-31 05:00:16 | 53.16425 | 8.21220 | 336° | 24km/h | 21338m | 6.1m/s | -52.3°C | 1.2% | 47.0hPa | 2.7V | 00:00:00 | 00:00:00 | 00:00:00 | |
| DL1XH-15 | 2026-08-31 05:00:15 | 53.16391 | 8.21241 | 335° | 20km/h | 21306m | 5.1m/s | -52.1°C | 4.2% | 47.2hPa | 2.7V | 08:30:00 | 01:28:30 | 00:00:00 | |
| HSKMA3-T | 2026-08-31 05:00:11 | 53.16396 | 8.21238 | 339° | 24km/h | 21312m | 6.6m/s | -52.2°C | 1% | 47.2hPa | 2.6V | 18:12:15 | 01:28:31 | 00:00:00 | |
| DL1NUX | 2026-08-31 05:00:10 | 53.16345 | 8.21284 | 326° | 20km/h | 21253m | 6m/s | -51.8°C | 4% | 47.6hPa | 2.6V | 08:30:00 | 01:28:20 | 00:00:00 | |
| DL1XH-west | 2026-08-31 05:00:10 | 53.16386 | 8.21245 | 336° | 22km/h | 21301m | 4.9m/s | -52.1°C | 0.9% | 47.3hPa | 2.7V | 18:12:15 | 01:28:29 | 00:00:00 | |
| DO2JMG | 2026-08-31 05:00:08 | 53.16381 | 8.21249 | 340° | 22km/h | 21295m | 6.7m/s | -52.1°C | 0.9% | 47.3hPa | 2.7V | 18:12:15 | 01:28:28 | 00:00:00 | |
| AA1-15 | 2026-08-31 05:00:07 | 53.16376 | 8.21252 | 340° | 24km/h | 21289m | 4.9m/s | -52°C | 0.9% | 47.3hPa | 2.6V | 18:12:15 | 01:28:27 | 00:00:00 | |
| DF8AY-15 | 2026-08-31 05:00:07 | 53.16376 | 8.21252 | 341° | 18km/h | 21290m | 4.9m/s | -52.0°C | 4.1% | 47.3hPa | 2.6V | 00:00:00 | 01:28:27 | 00:00:00 | |
| DL1XH-15 | 2026-08-31 05:00:06 | 53.16345 | 8.21284 | 326° | 20km/h | 21253m | 6m/s | -51.8°C | 4% | 47.6hPa | 2.6V | 08:30:00 | 01:28:20 | 00:00:00 | |
| DL1NUX | 2026-08-31 05:00:04 | 53.16323 | 8.21303 | 337° | 18km/h | 21226m | 3.9m/s | -51.8°C | 4.1% | 47.8hPa | 2.7V | 08:30:00 | 01:28:15 | 00:00:00 | |
| HSKMA3-T | 2026-08-31 05:00:04 | 53.16345 | 8.21284 | 326° | 20km/h | 21253m | 6.1m/s | -51.8°C | 0.8% | 47.6hPa | 2.6V | 18:12:15 | 01:28:20 | 00:00:00 | |
| DF8AY | 2026-08-31 05:00:02 | 53.16341 | 8.21288 | 323° | 20km/h | 21248m | 5.3m/s | -51.8°C | 0.8% | 47.6hPa | 2.6V | 18:12:15 | 01:28:19 | 00:00:00 | |
| DL1XH-west | 2026-08-31 05:00:01 | 53.16337 | 8.21293 | 326° | 20km/h | 21242m | 5.2m/s | -51.8°C | 0.8% | 47.7hPa | 2.6V | 18:12:15 | 01:28:18 | 00:00:00 | |
| DO2JMG | 2026-08-31 04:59:59 | 53.16332 | 8.21297 | 335° | 20km/h | 21236m | 6.7m/s | -51.8°C | 0.9% | 47.7hPa | 2.6V | 18:12:15 | 01:28:17 | 00:00:00 | |
| AA1-15 | 2026-08-31 04:59:58 | 53.16328 | 8.21300 | 341° | 18km/h | 21231m | 5.1m/s | -51.8°C | 0.9% | 47.8hPa | 2.7V | 18:12:15 | 01:28:16 | 00:00:00 | |
| DL1XH-15 | 2026-08-31 04:59:57 | 53.16309 | 8.21324 | 319° | 16km/h | 21199m | 5.6m/s | -51.6°C | 4% | 48hPa | 2.7V | 08:30:00 | 01:28:10 | 00:00:00 | |
| DB0DAN | 2026-08-31 04:59:55 | 53.16324 | 8.21303 | 338° | 16km/h | 21226m | 3.9m/s | -51.8°C | 1.2% | 47.79hPa | 2.7V | 00:00:00 | 00:00:00 | 00:00:00 | |
| HSKMA3-T | 2026-08-31 04:59:51 | 53.16306 | 8.21328 | 319° | 16km/h | 21195m | 4.6m/s | -51.6°C | 0.8% | 48hPa | 2.7V | 18:12:15 | 01:28:09 | 00:00:00 | |
| DL1XH-west | 2026-08-31 04:59:49 | 53.16303 | 8.21333 | 312° | 15km/h | 21189m | 6.4m/s | -51.5°C | 0.8% | 48.1hPa | 2.6V | 18:12:15 | 01:28:08 | 00:00:00 | |
| DO2JMG | 2026-08-31 04:59:46 | 53.16299 | 8.21342 | 311° | 13km/h | 21178m | 4.8m/s | -51.5°C | 0.8% | 48.2hPa | 2.6V | 18:12:15 | 01:28:06 | 00:00:00 | |
| DB0NH | 2026-08-31 04:59:45 | 53.16297 | 8.21345 | 326° | 9km/h | 21173m | 6.4m/s | -51.5°C | 3.9% | 48.2hPa | 2.7V | 00:00:00 | 01:28:05 | 00:00:00 | |
| DL1LOL-11 | 2026-08-31 04:59:44 | 53.16297 | 8.21345 | 327° | 13km/h | 21173m | 6.4m/s | -51.5°C | 1.2% | 48.2hPa | 2.7V | 00:00:00 | 00:00:00 | 00:00:00 | |
| DB0DAN | 2026-08-31 04:59:40 | 53.16284 | 8.21365 | 294° | 16km/h | 21147m | 5.2m/s | -51.5°C | 1.2% | 48.39hPa | 2.7V | 00:00:00 | 00:00:00 | 00:00:00 | |
| HSKMA3-T | 2026-08-31 04:59:39 | 53.16283 | 8.21372 | 295° | 18km/h | 21141m | 6.2m/s | -51.6°C | 0.8% | 48.4hPa | 2.6V | 18:12:15 | 01:27:59 | 00:00:00 | |
| BIOWL1-15 | 2026-08-31 04:59:38 | 53.16281 | 8.21378 | 292° | 18km/h | 21136m | 4.5m/s | -51.7°C | 0.9% | 48.5hPa | 2.6V | 18:12:15 | 01:27:58 | 00:00:00 | |
| DL1XH-west | 2026-08-31 04:59:37 | 53.16280 | 8.21385 | 280° | 16km/h | 21132m | 4.1m/s | -51.7°C | 0.9% | 48.5hPa | 2.6V | 18:12:15 | 01:27:57 | 00:00:00 | |
| DO2JMG | 2026-08-31 04:59:36 | 53.16279 | 8.21393 | 265° | 16km/h | 21127m | 6.1m/s | -51.8°C | 0.9% | 48.5hPa | 2.7V | 18:12:15 | 01:27:56 | 00:00:00 | |
| DL3AQ-11 | 2026-08-31 04:59:36 | 53.16280 | 8.21400 | 249° | 18km/h | 21121m | 5.7m/s | -51.8°C | 1.2% | 48.6hPa | 2.7V | 00:00:00 | 00:00:00 | 00:00:00 | |
| GOEST3-10 | 2026-08-31 04:59:35 | 53.16280 | 8.21399 | 250° | 18km/h | 21121m | 5.7m/s | -51.7°C | 4.0% | 48.5hPa | 2.7V | 00:00:00 | 00:00:00 | 00:00:00 | |
| DB0UT-7 | 2026-08-31 04:59:34 | 53.16282 | 8.21407 | 246° | 9km/h | 21116m | 4.4m/s | -51.7°C | 4.1% | 48.6hPa | 2.7V | 00:00:00 | 01:27:54 | 00:00:00 | |
| DO2SHX-10 | 2026-08-31 04:59:33 | 53.16284 | 8.21414 | 252° | 15km/h | 21111m | 6.0m/s | -51.7°C | 4.0% | 48.6hPa | 2.7V | 00:00:00 | 01:27:53 | 00:00:00 | |
| DL1CLM-18 | 2026-08-31 04:59:32 | 53.16284 | 8.21414 | 252° | 16km/h | 21111m | 6.0m/s | -51.8°C | 1.2% | 48.7hPa | 2.7V | 00:00:00 | 00:00:00 | 00:00:00 | |
| DD1CC3-15 | 2026-08-31 04:59:31 | 53.16284 | 8.21421 | 265° | 15km/h | 21105m | 4.9m/s | -51.7°C | 1.2% | 48.7hPa | 2.7V | 00:00:00 | 00:00:00 | 00:00:00 | |
| DO2SHX-10 | 2026-08-31 04:59:30 | 53.16284 | 8.21432 | 273° | 13km/h | 21095m | 6.3m/s | -51.6°C | 4.0% | 48.7hPa | 2.7V | 00:00:00 | 01:27:50 | 00:00:00 | |
| DM0DOS-11 | 2026-08-31 04:59:29 | 53.16280 | 8.21455 | 266° | 7km/h | 21062m | 6m/s | -51.6°C | 4% | 49hPa | 2.7V | 08:30:00 | 01:27:44 | 00:00:00 | |
| HSKMA3-T | 2026-08-31 04:59:29 | 53.16284 | 8.21438 | 274° | 11km/h | 21089m | 4.4m/s | -51.7°C | 0.8% | 48.8hPa | 2.7V | 18:12:15 | 01:27:49 | 00:00:00 | |
| DF8AY | 2026-08-31 04:59:27 | 53.16283 | 8.21446 | 299° | 11km/h | 21079m | 6.6m/s | -51.6°C | 0.8% | 48.9hPa | 2.6V | 18:12:15 | 01:27:47 | 00:00:00 | |
| DL1XH-west | 2026-08-31 04:59:26 | 53.16282 | 8.21450 | 310° | 9km/h | 21073m | 5.2m/s | -51.6°C | 0.8% | 49hPa | 2.6V | 18:12:15 | 01:27:46 | 00:00:00 | |
| DB0DAN | 2026-08-31 04:59:25 | 53.16281 | 8.21453 | 298° | 7km/h | 21068m | 4.8m/s | -51.6°C | 1.2% | 49hPa | 2.6V | 00:00:00 | 00:00:00 | 00:00:00 | |
| DO2JMG | 2026-08-31 04:59:25 | 53.16281 | 8.21453 | 298° | 7km/h | 21068m | 4.8m/s | -51.6°C | 0.8% | 49hPa | 2.6V | 18:12:15 | 01:27:45 | 00:00:00 | |
| DJ2DS-15 | 2026-08-31 04:59:25 | 53.16280 | 8.21455 | 266° | 5km/h | 21063m | 6.0m/s | -51.6°C | 1.2% | 49.0hPa | 2.6V | 00:00:00 | 00:00:00 | 00:00:00 | |
| DL1NUX | 2026-08-31 04:59:24 | 53.16284 | 8.21466 | 249° | 7km/h | 21036m | 5.7m/s | -51.6°C | 4.1% | 49.2hPa | 2.6V | 08:30:00 | 01:27:39 | 00:00:00 | |
| DK9SH | 2026-08-31 04:59:24 | 53.16280 | 8.21455 | 268° | 7km/h | 21063m | 6.0m/s | -51.6°C | 1.2% | 49.0hPa | 2.6V | 00:00:00 | 00:00:00 | 00:00:00 | |
| DL1XH1-15 | 2026-08-31 04:59:21 | 53.16286 | 8.21487 | 299° | 7km/h | 21011m | 4.9m/s | -51.4°C | 4% | 49.4hPa | 2.6V | 08:30:00 | 01:27:34 | 00:00:00 | |
| HSKMA3-T | 2026-08-31 04:59:21 | 53.16284 | 8.21466 | 249° | 7km/h | 21036m | 5.7m/s | -51.7°C | 0.9% | 49.2hPa | 2.6V | 18:12:15 | 01:27:39 | 00:00:00 | |
| BIOWL1-15 | 2026-08-31 04:59:17 | 53.16285 | 8.21474 | 254° | 13km/h | 21025m | 4.2m/s | -51.6°C | 0.9% | 49.3hPa | 2.7V | 18:12:15 | 01:27:37 | 00:00:00 | |
| DL1XH-west | 2026-08-31 04:59:16 | 53.16286 | 8.21479 | 260° | 11km/h | 21021m | 4m/s | -51.5°C | 0.9% | 49.4hPa | 2.7V | 18:12:15 | 01:27:36 | 00:00:00 | |
| AA1-15 | 2026-08-31 04:59:15 | 53.16286 | 8.21483 | 274° | 9km/h | 21016m | 6m/s | -51.5°C | 0.9% | 49.4hPa | 2.7V | 18:12:15 | 01:27:35 | 00:00:00 | |
| DO2SHX-10 | 2026-08-31 04:59:15 | 53.16286 | 8.21483 | 274° | 7km/h | 21016m | 6.0m/s | -51.5°C | 4.1% | 49.4hPa | 2.6V | 00:00:00 | 01:27:35 | 00:00:00 | |
| DL1NUX | 2026-08-31 04:59:14 | 53.16283 | 8.21500 | 260° | 4km/h | 20986m | 5.6m/s | -51.3°C | 3.8% | 49.6hPa | 2.6V | 08:30:00 | 01:27:29 | 00:00:00 | |
| DO2JMG | 2026-08-31 04:59:14 | 53.16286 | 8.21487 | 299° | 7km/h | 21011m | 4.9m/s | -51.4°C | 0.8% | 49.4hPa | 2.6V | 18:12:15 | 01:27:34 | 00:00:00 | |
| BIOWL1-15 | 2026-08-31 04:59:11 | 53.16283 | 8.21500 | 114° | 2km/h | 20975m | 4.1m/s | -51.1°C | 0.7% | 49.7hPa | 2.6V | 18:12:15 | 01:27:27 | 00:00:00 | |
| DB0DAN | 2026-08-31 04:59:10 | 53.16283 | 8.21498 | 268° | 5km/h | 20991m | 5.1m/s | -51.3°C | 1.2% | 49.58hPa | 2.7V | 00:00:00 | 00:00:00 | 00:00:00 | |
| GOEST3-10 | 2026-08-31 04:59:10 | 53.16283 | 8.21497 | 269° | 4km/h | 20991m | 5.0m/s | -51.3°C | 3.9% | 49.5hPa | 2.6V | 00:00:00 | 01:27:30 | 00:00:00 | |
| DL1XH1-15 | 2026-08-31 04:59:09 | 53.16286 | 8.21499 | 197° | 5km/h | 20960m | 4.5m/s | -51°C | 3.8% | 49.8hPa | 2.6V | 08:30:00 | 01:27:24 | 00:00:00 | |
| HSKMA3-T | 2026-08-31 04:59:08 | 53.16283 | 8.21500 | 34° | 0km/h | 20980m | 5.9m/s | -51.2°C | 0.8% | 49.7hPa | 2.6V | 18:12:15 | 01:27:28 | 00:00:00 | |
| DL1XH-west | 2026-08-31 04:59:06 | 53.16284 | 8.21499 | 149° | 4km/h | 20970m | 5.3m/s | -51.1°C | 0.7% | 49.8hPa | 2.7V | 18:12:15 | 01:27:26 | 00:00:00 | |
| AA1-15 | 2026-08-31 04:59:05 | 53.16285 | 8.21499 | 179° | 5km/h | 20965m | 5.8m/s | -51.1°C | 0.7% | 49.8hPa | 2.7V | 18:12:15 | 01:27:25 | 00:00:00 | |
| DO2JMG | 2026-08-31 04:59:03 | 53.16287 | 8.21500 | 208° | 4km/h | 20955m | 4.9m/s | -51°C | 0.7% | 49.9hPa | 2.6V | 18:12:15 | 01:27:23 | 00:00:00 | |
| DO3DL | 2026-08-31 04:59:01 | 53.16288 | 8.21500 | 0° | 0km/h | 20950m | 6.0m/s | -51.0°C | 1.1% | 49.9hPa | 2.6V | 00:00:00 | 00:00:00 | 00:00:00 | |
| DO2SHX-10 | 2026-08-31 04:59:00 | 53.16286 | 8.21500 | 12° | 5km/h | 20939m | 4.3m/s | -51.0°C | 3.8% | 49.9hPa | 2.6V | 00:00:00 | 01:27:20 | 00:00:00 | |
| DM0DOS-11 | 2026-08-31 04:58:59 | 53.16281 | 8.21506 | 21° | 5km/h | 20909m | 4.8m/s | -51.2°C | 3.9% | 50.2hPa | 2.6V | 08:30:00 | 01:27:14 | 00:00:00 | |
| BIOWL1-15 | 2026-08-31 04:58:58 | 53.16282 | 8.21505 | 307° | 5km/h | 20919m | 4.3m/s | -51.1°C | 0.7% | 50.1hPa | 2.7V | 18:12:15 | 01:27:16 | 00:00:00 | |
| HSKMA3-T | 2026-08-31 04:58:58 | 53.16284 | 8.21501 | 310° | 5km/h | 20928m | 5.6m/s | -51.1°C | 0.7% | 50.1hPa | 2.6V | 18:12:15 | 01:27:18 | 00:00:00 | |
| DD8BA-10 | 2026-08-31 04:58:58 | 53.16284 | 8.21501 | 311° | 4km/h | 20929m | 5.5m/s | -51.0°C | 3.8% | 50.0hPa | 2.6V | 00:00:00 | 00:00:00 | 00:00:00 | |
| DL3OBA | 2026-08-31 04:58:57 | 53.16284 | 8.21501 | 311° | 5km/h | 20929m | 5.6m/s | -51.1°C | 1.1% | 50.1hPa | 2.6V | 00:00:00 | 00:00:00 | 00:00:00 | |
| DB0DAN | 2026-08-31 04:58:55 | 53.16282 | 8.21506 | 341° | 4km/h | 20914m | 6m/s | -51.2°C | 1.2% | 50.16hPa | 2.6V | 00:00:00 | 00:00:00 | 00:00:00 | |
| DL1XH-west | 2026-08-31 04:58:55 | 53.16282 | 8.21506 | 341° | 4km/h | 20914m | 6m/s | -51.2°C | 0.7% | 50.2hPa | 2.6V | 18:12:15 | 01:27:15 | 00:00:00 | |
| DO2JMG | 2026-08-31 04:58:53 | 53.16280 | 8.21505 | 35° | 4km/h | 20904m | 4.3m/s | -51.2°C | 0.8% | 50.3hPa | 2.6V | 18:12:15 | 01:27:13 | 00:00:00 | |
| SONCRA | 2026-08-31 04:58:50 | 53.16280 | 8.21505 | 128° | 0km/h | 20884m | 5.6m/s | -51.5°C | 1.2% | 50.4hPa | 2.7V | 00:00:00 | 00:00:00 | 00:00:00 | |
| DL1XH1-15 | 2026-08-31 04:58:49 | 53.16275 | 8.21498 | 12° | 11km/h | 20857m | 3.5m/s | -51.4°C | 3.8% | 50.6hPa | 2.7V | 08:30:00 | 01:27:04 | 00:00:00 | |
| BIOWL1-15 | 2026-08-31 04:58:48 | 53.16279 | 8.21500 | 40° | 5km/h | 20867m | 6.3m/s | -51.4°C | 0.7% | 50.5hPa | 2.6V | 18:12:15 | 01:27:06 | 00:00:00 | |
| HSKMA3-T | 2026-08-31 04:58:47 | 53.16280 | 8.21502 | 56° | 5km/h | 20873m | 5.1m/s | -51.4°C | 0.7% | 50.5hPa | 2.6V | 18:12:15 | 01:27:07 | 00:00:00 | |
| DL1XH-west | 2026-08-31 04:58:45 | 53.16277 | 8.21499 | 17° | 7km/h | 20861m | 5.1m/s | -51.4°C | 0.7% | 50.6hPa | 2.7V | 18:12:15 | 01:27:05 | 00:00:00 | |
| AA1-15 | 2026-08-31 04:58:44 | 53.16275 | 8.21498 | 13° | 11km/h | 20857m | 3.5m/s | -51.4°C | 0.7% | 50.6hPa | 2.7V | 18:12:15 | 01:27:04 | 00:00:00 | |
| DO2JMG | 2026-08-31 04:58:42 | 53.16269 | 8.21495 | 23° | 16km/h | 20848m | 6.3m/s | -51.4°C | 0.7% | 50.7hPa | 2.6V | 18:12:15 | 01:27:02 | 00:00:00 | |
| DB0DAN | 2026-08-31 04:58:40 | 53.16261 | 8.21488 | 33° | 15km/h | 20836m | 6m/s | -51.4°C | 1.1% | 50.75hPa | 2.6V | 00:00:00 | 00:00:00 | 00:00:00 | |
| DO2SHX-10 | 2026-08-31 04:58:39 | 53.16258 | 8.21484 | 37° | 11km/h | 20831m | 5.0m/s | -51.4°C | 3.9% | 50.8hPa | 2.6V | 00:00:00 | 01:26:59 | 00:00:00 | |
| DM0DOS-11 | 2026-08-31 04:58:38 | 53.16245 | 8.21474 | 5° | 9km/h | 20804m | 6.3m/s | -51.9°C | 4.1% | 51hPa | 2.6V | 08:30:00 | 01:26:54 | 00:00:00 | |
| HSKMA3-T | 2026-08-31 04:58:37 | 53.16253 | 8.21479 | 35° | 13km/h | 20821m | 6.5m/s | -51.6°C | 0.8% | 50.9hPa | 2.7V | 18:12:15 | 01:26:57 | 00:00:00 | |
| DL1XH-west | 2026-08-31 04:58:35 | 53.16248 | 8.21474 | 17° | 11km/h | 20810m | 5m/s | -51.8°C | 0.8% | 51hPa | 2.6V | 18:12:15 | 01:26:55 | 00:00:00 | |
| AA1-15 | 2026-08-31 04:58:34 | 53.16245 | 8.21473 | 6° | 9km/h | 20804m | 6.3m/s | -51.9°C | 0.9% | 51hPa | 2.6V | 18:12:15 | 01:26:54 | 00:00:00 | |
| DO2JMG | 2026-08-31 04:58:32 | 53.16239 | 8.21473 | 3° | 16km/h | 20794m | 5.4m/s | -51.9°C | 0.8% | 51.1hPa | 2.7V | 18:12:15 | 01:26:52 | 00:00:00 | |
| DF5WG-10 | 2026-08-31 04:58:32 | 53.16239 | 8.21473 | 4° | 22km/h | 20794m | 5.4m/s | -51.8°C | 4.0% | 51.1hPa | 2.6V | 00:00:00 | 01:26:52 | 00:00:00 | |
| DO2SHX-10 | 2026-08-31 04:58:30 | 53.16229 | 8.21471 | 13° | 24km/h | 20783m | 5.0m/s | -51.8°C | 3.9% | 51.2hPa | 2.6V | 00:00:00 | 01:26:50 | 00:00:00 | |
| DD1CC3-15 | 2026-08-31 04:58:29 | 53.16229 | 8.21471 | 13° | 26km/h | 20783m | 5.0m/s | -51.9°C | 1.2% | 51.2hPa | 2.6V | 00:00:00 | 00:00:00 | 00:00:00 | |
| DM0DOS-11 | 2026-08-31 04:58:28 | 53.16199 | 8.21442 | 39° | 24km/h | 20751m | 5m/s | -51.9°C | 4% | 51.4hPa | 2.6V | 08:30:00 | 01:26:44 | 00:00:00 | |
| BIOWL1-15 | 2026-08-31 04:58:27 | 53.16203 | 8.21449 | 43° | 24km/h | 20757m | 6.3m/s | -51.9°C | 0.8% | 51.4hPa | 2.7V | 18:12:15 | 01:26:45 | 00:00:00 | |
| HSKMA3-T | 2026-08-31 04:58:26 | 53.16208 | 8.21455 | 41° | 22km/h | 20762m | 5.1m/s | -51.9°C | 0.8% | 51.4hPa | 2.7V | 18:12:15 | 01:26:46 | 00:00:00 | |
| DB0DAN | 2026-08-31 04:58:25 | 53.16203 | 8.21449 | 43° | 24km/h | 20757m | 6.3m/s | -51.9°C | 1.2% | 51.41hPa | 2.7V | 00:00:00 | 00:00:00 | 00:00:00 | |
| DL1XH-15 | 2026-08-31 04:58:25 | 53.16182 | 8.21431 | 352° | 16km/h | 20729m | 4.4m/s | -51.9°C | 4% | 51.6hPa | 2.7V | 08:30:00 | 01:26:40 | 00:00:00 | |
| DL1XH-west | 2026-08-31 04:58:24 | 53.16199 | 8.21442 | 40° | 24km/h | 20751m | 5m/s | -51.9°C | 0.8% | 51.4hPa | 2.6V | 18:12:15 | 01:26:44 | 00:00:00 | |
| DO2JMG | 2026-08-31 04:58:21 | 53.16186 | 8.21431 | 4° | 15km/h | 20734m | 4.9m/s | -51.9°C | 0.8% | 51.6hPa | 2.6V | 18:12:15 | 01:26:41 | 00:00:00 | |
| DO2SHX-10 | 2026-08-31 04:58:20 | 53.16182 | 8.21431 | 353° | 16km/h | 20730m | 4.3m/s | -51.9°C | 4.0% | 51.6hPa | 2.6V | 00:00:00 | 01:26:40 | 00:00:00 | |
| BIOWL7-15 | 2026-08-31 04:58:19 | 53.16182 | 8.21431 | 354° | 16km/h | 20730m | 4.4m/s | -51.9°C | 1.2% | 51.6hPa | 2.6V | 00:00:00 | 00:00:00 | 00:00:00 | |
| DM0DOS-11 | 2026-08-31 04:58:18 | 53.16156 | 8.21427 | 29° | 15km/h | 20699m | 4.8m/s | -52.4°C | 4.1% | 51.9hPa | 2.6V | 08:30:00 | 01:26:34 | 00:00:00 | |
| DD8BA-10 | 2026-08-31 04:58:18 | 53.16173 | 8.21432 | 360° | 20km/h | 20719m | 5.0m/s | -52.0°C | 4.0% | 51.7hPa | 2.6V | 00:00:00 | 00:00:00 | 00:00:00 | |
| D01LWL | 2026-08-31 04:58:17 | 53.16163 | 8.21431 | 10° | 16km/h | 20709m | 5.6m/s | -52.2°C | 1.2% | 51.8hPa | 2.6V | 00:00:00 | 00:00:00 | 00:00:00 | |
| DL3AQ-11 | 2026-08-31 04:58:16 | 53.16159 | 8.21429 | 17° | 15km/h | 20704m | 5.6m/s | -52.3°C | 1.2% | 51.9hPa | 2.6V | 00:00:00 | 00:00:00 | 00:00:00 | |
| DL1XH-15 | 2026-08-31 04:58:15 | 53.16140 | 8.21404 | 50° | 22km/h | 20678m | 5.3m/s | -52.4°C | 4.1% | 52hPa | 2.6V | 08:30:00 | 01:26:30 | 00:00:00 | |
| HSKMA3-T | 2026-08-31 04:58:15 | 53.16159 | 8.21429 | 17° | 15km/h | 20704m | 5.6m/s | -52.3°C | 0.9% | 51.9hPa | 2.6V | 18:12:15 | 01:26:35 | 00:00:00 | |
| BIOWL1-15 | 2026-08-31 04:58:14 | 53.16156 | 8.21427 | 30° | 15km/h | 20699m | 4.8m/s | -52.4°C | 0.9% | 51.9hPa | 2.6V | 18:12:15 | 01:26:34 | 00:00:00 | |
| DL1XH-west | 2026-08-31 04:58:13 | 53.16152 | 8.21423 | 37° | 18km/h | 20693m | 5.4m/s | -52.5°C | 1% | 51.9hPa | 2.7V | 18:12:15 | 01:26:33 | 00:00:00 | |
| DO2JMG | 2026-08-31 04:58:11 | 53.16144 | 8.21411 | 45° | 24km/h | 20683m | 4.7m/s | -52.5°C | 0.9% | 52hPa | 2.7V | 18:12:15 | 01:26:31 | 00:00:00 | |
| DB0DAN | 2026-08-31 04:58:10 | 53.16140 | 8.21404 | 51° | 20km/h | 20678m | 5.3m/s | -52.4°C | 1.3% | 52.06hPa | 2.6V | 00:00:00 | 00:00:00 | 00:00:00 | |
| DB0ND-19 | 2026-08-31 04:58:10 | 53.16133 | 8.21385 | 53° | 15km/h | 20662m | 5.5m/s | 0°C | -1.0% | -1.0hPa | 2.6V | 00:00:00 | 00:00:00 | 00:00:00 | |
| DM0DOS-11 | 2026-08-31 04:58:08 | 53.16125 | 8.21374 | 25° | 9km/h | 20646m | 6.3m/s | -52.2°C | 4.1% | 52.3hPa | 2.6V | 08:30:00 | 01:26:24 | 00:00:00 | |
| DO2SHX-10 | 2026-08-31 04:58:08 | 53.16135 | 8.21391 | 58° | 16km/h | 20667m | 4.5m/s | -52.3°C | 4.1% | 52.1hPa | 2.6V | 00:00:00 | 01:26:28 | 00:00:00 | |
| DC4HF-4 | 2026-08-31 04:58:07 | 53.16130 | 8.21381 | 46° | 15km/h | 20656m | 5.7m/s | -52.3°C | 1.3% | 52.2hPa | 2.6V | 00:00:00 | 00:00:00 | 00:00:00 | |
| DL1XH-15 | 2026-08-31 04:58:05 | 53.16117 | 8.21377 | 344° | 11km/h | 20622m | 5.8m/s | -52.1°C | 4.1% | 52.5hPa | 2.6V | 08:30:00 | 01:26:20 | 00:00:00 | |
| HSKMA3-T | 2026-08-31 04:58:04 | 53.16125 | 8.21374 | 25° | 9km/h | 20646m | 6.3m/s | -52.2°C | 0.9% | 52.3hPa | 2.6V | 18:12:15 | 01:26:24 | 00:00:00 | |
| DF8AY | 2026-08-31 04:58:03 | 53.16123 | 8.21373 | 357° | 7km/h | 20640m | 6.2m/s | -52.2°C | 0.8% | 52.4hPa | 2.6V | 18:12:15 | 01:26:23 | 00:00:00 | |
| DL1XH-west | 2026-08-31 04:58:02 | 53.16121 | 8.21374 | 335° | 7km/h | 20634m | 4.8m/s | -52.2°C | 0.9% | 52.4hPa | 2.7V | 18:12:15 | 01:26:22 | 00:00:00 | |
| DO2JMG | 2026-08-31 04:58:00 | 53.16117 | 8.21377 | 344° | 11km/h | 20622m | 5.8m/s | -52.1°C | 0.9% | 52.5hPa | 2.6V | 18:12:15 | 01:26:20 | 00:00:00 | |
| DL3AQ-11 | 2026-08-31 04:58:00 | 53.16114 | 8.21378 | 346° | 11km/h | 20617m | 5.5m/s | -52.1°C | 1.3% | 52.6hPa | 2.6V | 00:00:00 | 00:00:00 | 00:00:00 | |
| DD1CC8 | 2026-08-31 04:57:57 | 53.16107 | 8.21380 | 0° | 9km/h | 20600m | 5.8m/s | -52.2°C | 1.3% | 52.7hPa | 2.6V | 00:00:00 | 00:00:00 | 00:00:00 | |
| DB0DAN | 2026-08-31 04:57:55 | 53.16104 | 8.21380 | 12° | 11km/h | 20594m | 6.1m/s | -52.2°C | 1.3% | 52.75hPa | 2.6V | 00:00:00 | 00:00:00 | 00:00:00 | |
| DL1XH-15 | 2026-08-31 04:57:55 | 53.16095 | 8.21376 | 345° | 4km/h | 20565m | 6.3m/s | -52.1°C | 4.1% | 53hPa | 2.6V | 08:30:00 | 01:26:10 | 00:00:00 | |
| HSKMA3-T | 2026-08-31 04:57:53 | 53.16099 | 8.21377 | 21° | 9km/h | 20583m | 6.2m/s | -52.2°C | 0.9% | 52.8hPa | 2.7V | 18:12:15 | 01:26:13 | 00:00:00 | |
| DL1XH-west | 2026-08-31 04:57:52 | 53.16098 | 8.21376 | 18° | 5km/h | 20576m | 6.4m/s | -52.2°C | 1% | 52.9hPa | 2.7V | 18:12:15 | 01:26:12 | 00:00:00 | |
| DO2JMG | 2026-08-31 04:57:50 | 53.16095 | 8.21376 | 346° | 4km/h | 20565m | 6.3m/s | -52.1°C | 0.9% | 53hPa | 2.6V | 18:12:15 | 01:26:10 | 00:00:00 | |
| DO2SHX-10 | 2026-08-31 04:57:50 | 53.16095 | 8.21375 | 346° | 4km/h | 20565m | 6.2m/s | -52.1°C | 4.1% | 52.9hPa | 2.6V | 00:00:00 | 01:26:10 | 00:00:00 | |
| DF5WG-10 | 2026-08-31 04:57:49 | 53.16095 | 8.21376 | 322° | 5km/h | 20559m | 4.6m/s | -52.0°C | 4.1% | 53.0hPa | 2.6V | 00:00:00 | 01:26:09 | 00:00:00 | |
| DM0DOS-11 | 2026-08-31 04:57:48 | 53.16092 | 8.21385 | 349° | 5km/h | 20532m | 4.7m/s | -51.9°C | 4.1% | 53.2hPa | 2.6V | 08:30:00 | 01:26:04 | 00:00:00 | |
| SONCRA | 2026-08-31 04:57:47 | 53.16094 | 8.21380 | 268° | 5km/h | 20548m | 5.8m/s | -52.1°C | 1.2% | 53.1hPa | 2.7V | 00:00:00 | 00:00:00 | 00:00:00 | |
| DL3AQ-11 | 2026-08-31 04:57:46 | 53.16094 | 8.21383 | 281° | 5km/h | 20543m | 4.1m/s | -52.0°C | 1.3% | 53.1hPa | 2.7V | 00:00:00 | 00:00:00 | 00:00:00 | |
| DL1XH-15 | 2026-08-31 04:57:45 | 53.16088 | 8.21383 | 40° | 5km/h | 20510m | 5.9m/s | -51.9°C | 4% | 53.4hPa | 2.7V | 08:30:00 | 01:26:00 | 00:00:00 | |
| AA1-15 | 2026-08-31 04:57:43 | 53.16091 | 8.21386 | 9° | 5km/h | 20527m | 5.2m/s | -52°C | 0.9% | 53.3hPa | 2.6V | 18:12:15 | 01:26:03 | 00:00:00 | |
| DL1XH-west | 2026-08-31 04:57:42 | 53.16090 | 8.21385 | 23° | 4km/h | 20522m | 5.9m/s | -51.9°C | 0.8% | 53.3hPa | 2.6V | 18:12:15 | 01:26:02 | 00:00:00 | |
| SMARD9-15 | 2026-08-31 04:57:41 | 53.16089 | 8.21383 | 40° | 4km/h | 20511m | 5.9m/s | -51.9°C | 1.2% | 53.4hPa | 2.7V | 00:00:00 | 00:00:00 | 00:00:00 | |
| SONDE2-11 | 2026-08-31 04:57:40 | 53.16089 | 8.21383 | 40° | 4km/h | 20511m | 5.9m/s | -51.9°C | 1.2% | 53.4hPa | 2.7V | 00:00:00 | 00:00:00 | 00:00:00 | |
| DF5WG-10 | 2026-08-31 04:57:39 | 53.16087 | 8.21381 | 40° | 7km/h | 20505m | 5.9m/s | -51.8°C | 4.0% | 53.4hPa | 2.7V | 00:00:00 | 01:25:59 | 00:00:00 | |
| DO2JMG | 2026-08-31 04:57:39 | 53.16087 | 8.21381 | 39° | 9km/h | 20504m | 6m/s | -51.8°C | 0.8% | 53.5hPa | 2.7V | 18:12:15 | 01:25:59 | 00:00:00 | |
| DM0DOS-11 | 2026-08-31 04:57:38 | 53.16081 | 8.21377 | 351° | 5km/h | 20479m | 4.9m/s | -51.7°C | 3.9% | 53.7hPa | 2.7V | 08:30:00 | 01:25:54 | 00:00:00 | |
| DD8BA-10 | 2026-08-31 04:57:38 | 53.16085 | 8.21379 | 38° | 7km/h | 20500m | 4.1m/s | -51.7°C | 4.0% | 53.5hPa | 2.6V | 00:00:00 | 00:00:00 | 00:00:00 | |
| DL4XJ-10 | 2026-08-31 04:57:37 | 53.16084 | 8.21377 | 34° | 9km/h | 20494m | 5.5m/s | -51.0°C | 0% | 0hPa | 2.6V | 00:00:00 | 00:00:00 | 00:00:00 | |
| DO3DL | 2026-08-31 04:57:36 | 53.16084 | 8.21377 | 34° | 7km/h | 20495m | 5.5m/s | -51.8°C | 1.2% | 53.6hPa | 2.6V | 00:00:00 | 00:00:00 | 00:00:00 | |
| DL1XH-15 | 2026-08-31 04:57:35 | 53.16072 | 8.21375 | 10° | 9km/h | 20456m | 5.6m/s | -51.8°C | 4% | 53.9hPa | 2.6V | 08:30:00 | 01:25:50 | 00:00:00 | |
| AA1-15 | 2026-08-31 04:57:33 | 53.16079 | 8.21377 | 3° | 9km/h | 20473m | 6.3m/s | -51.7°C | 0.8% | 53.7hPa | 2.7V | 18:12:15 | 01:25:53 | 00:00:00 | |
| DL1XH-west | 2026-08-31 04:57:32 | 53.16077 | 8.21376 | 8° | 11km/h | 20467m | 5.2m/s | -51.7°C | 0.8% | 53.8hPa | 2.7V | 18:12:15 | 01:25:52 | 00:00:00 | |
| HSKMA3-T | 2026-08-31 04:57:31 | 53.16074 | 8.21376 | 11° | 11km/h | 20462m | 5.9m/s | -51.7°C | 0.8% | 53.8hPa | 2.6V | 18:12:15 | 01:25:51 | 00:00:00 | |
| GOEST3-10 | 2026-08-31 04:57:31 | 53.16074 | 8.21375 | 11° | 11km/h | 20462m | 5.8m/s | -51.7°C | 4.0% | 53.8hPa | 2.6V | 00:00:00 | 01:25:51 | 00:00:00 | |
| DC4HF-4 | 2026-08-31 04:57:30 | 53.16072 | 8.21375 | 10° | 7km/h | 20456m | 5.6m/s | -51.8°C | 1.2% | 53.9hPa | 2.6V | 00:00:00 | 00:00:00 | 00:00:00 | |
| DF5WG-10 | 2026-08-31 04:57:29 | 53.16069 | 8.21374 | 23° | 11km/h | 20451m | 4.2m/s | -51.8°C | 4.0% | 53.9hPa | 2.6V | 00:00:00 | 01:25:49 | 00:00:00 | |
| DM0DOS-11 | 2026-08-31 04:57:28 | 53.16058 | 8.21354 | 61° | 13km/h | 20425m | 5.5m/s | -51.9°C | 4.1% | 54.1hPa | 2.6V | 08:30:00 | 01:25:44 | 00:00:00 | |
| DO2JMG | 2026-08-31 04:57:28 | 53.16067 | 8.21372 | 34° | 11km/h | 20447m | 5m/s | -51.9°C | 0.9% | 54hPa | 2.7V | 18:12:15 | 01:25:48 | 00:00:00 | |
| DD8BA-10 | 2026-08-31 04:57:28 | 53.16067 | 8.21372 | 35° | 13km/h | 20447m | 5.0m/s | -51.9°C | 4.1% | 53.9hPa | 2.6V | 00:00:00 | 00:00:00 | 00:00:00 | |
| DD1CC3-15 | 2026-08-31 04:57:27 | 53.16068 | 8.21372 | 35° | 11km/h | 20447m | 5.0m/s | -51.9°C | 1.3% | 54.0hPa | 2.6V | 00:00:00 | 00:00:00 | 00:00:00 | |
| DB0DAN | 2026-08-31 04:57:25 | 53.16060 | 8.21359 | 55° | 15km/h | 20430m | 5.7m/s | -51.9°C | 1.2% | 54.1hPa | 2.6V | 00:00:00 | 00:00:00 | 00:00:00 | |
| DL1XH-15 | 2026-08-31 04:57:25 | 53.16050 | 8.21342 | 17° | 11km/h | 20405m | 4.8m/s | -51.8°C | 4% | 54.3hPa | 2.6V | 08:30:00 | 01:25:40 | 00:00:00 | |
| AA1-15 | 2026-08-31 04:57:22 | 53.16055 | 8.21347 | 45° | 9km/h | 20415m | 5.2m/s | -51.9°C | 0.8% | 54.2hPa | 2.7V | 18:12:15 | 01:25:42 | 00:00:00 | |
| DL1XH-west | 2026-08-31 04:57:21 | 53.16053 | 8.21344 | 29° | 11km/h | 20410m | 5.7m/s | -51.8°C | 0.8% | 54.3hPa | 2.7V | 18:12:15 | 01:25:41 | 00:00:00 | |
| HSKMA3-T | 2026-08-31 04:57:20 | 53.16050 | 8.21342 | 18° | 11km/h | 20405m | 4.8m/s | -51.8°C | 0.8% | 54.3hPa | 2.6V | 18:12:15 | 01:25:40 | 00:00:00 | |
| DO2SHX-10 | 2026-08-31 04:57:20 | 53.16050 | 8.21342 | 18° | 11km/h | 20405m | 4.7m/s | -51.8°C | 4.0% | 54.3hPa | 2.6V | 00:00:00 | 01:25:40 | 00:00:00 | |
| DL1XH1-15 | 2026-08-31 04:57:19 | 53.16033 | 8.21329 | 44° | 20km/h | 20372m | 4.3m/s | -51.8°C | 3.9% | 54.6hPa | 2.7V | 08:30:00 | 01:25:34 | 00:00:00 | |
| DO2JMG | 2026-08-31 04:57:17 | 53.16043 | 8.21340 | 16° | 11km/h | 20389m | 4.2m/s | -51.8°C | 0.7% | 54.5hPa | 2.6V | 18:12:15 | 01:25:37 | 00:00:00 | |
| DO2SHX-10 | 2026-08-31 04:57:17 | 53.16043 | 8.21340 | 16° | 15km/h | 20389m | 4.1m/s | -51.7°C | 3.9% | 54.4hPa | 2.6V | 00:00:00 | 01:25:37 | 00:00:00 | |
| DO3DL | 2026-08-31 04:57:16 | 53.16043 | 8.21340 | 17° | 11km/h | 20389m | 4.2m/s | -51.8°C | 1.2% | 54.5hPa | 2.6V | 00:00:00 | 00:00:00 | 00:00:00 | |
| DL1XH-15 | 2026-08-31 04:57:15 | 53.16025 | 8.21314 | 48° | 4km/h | 20351m | 5.5m/s | -51.9°C | 4% | 54.8hPa | 2.6V | 08:30:00 | 01:25:30 | 00:00:00 | |
| AA1-15 | 2026-08-31 04:57:12 | 53.16027 | 8.21319 | 53° | 13km/h | 20362m | 5.6m/s | -51.9°C | 0.8% | 54.7hPa | 2.6V | 18:12:15 | 01:25:32 | 00:00:00 | |
| DL1XH-west | 2026-08-31 04:57:11 | 53.16026 | 8.21316 | 55° | 7km/h | 20356m | 5.2m/s | -51.9°C | 0.8% | 54.7hPa | 2.6V | 18:12:15 | 01:25:31 | 00:00:00 | |
| DB0DAN | 2026-08-31 04:57:10 | 53.16025 | 8.21314 | 48° | 4km/h | 20351m | 5.5m/s | -51.9°C | 1.2% | 54.77hPa | 2.6V | 00:00:00 | 00:00:00 | 00:00:00 | |
| HSKMA3-T | 2026-08-31 04:57:10 | 53.16025 | 8.21314 | 48° | 4km/h | 20351m | 5.5m/s | -51.9°C | 0.8% | 54.8hPa | 2.6V | 18:12:15 | 01:25:30 | 00:00:00 | |
| DO2JMG | 2026-08-31 04:57:06 | 53.16020 | 8.21311 | 26° | 2km/h | 20327m | 6.1m/s | -52.1°C | 0.9% | 55hPa | 2.6V | 18:12:15 | 01:25:26 | 00:00:00 | |
| AA1-15 | 2026-08-31 04:57:02 | 53.16020 | 8.21302 | 86° | 11km/h | 20305m | 5.1m/s | -52°C | 0.9% | 55.2hPa | 2.7V | 18:12:15 | 01:25:22 | 00:00:00 | |
| DL1XH-west | 2026-08-31 04:57:00 | 53.16021 | 8.21291 | 111° | 15km/h | 20294m | 5.5m/s | -51.9°C | 0.9% | 55.3hPa | 2.6V | 18:12:15 | 01:25:20 | 00:00:00 | |
| DO2JMG | 2026-08-31 04:56:56 | 53.16026 | 8.21265 | 101° | 15km/h | 20273m | 4.4m/s | -51.8°C | 0.8% | 55.5hPa | 2.7V | 18:12:15 | 01:25:16 | 00:00:00 | |
| DL3AQ-11 | 2026-08-31 04:56:56 | 53.16027 | 8.21260 | 110° | 13km/h | 20268m | 5.9m/s | -51.8°C | 1.2% | 55.5hPa | 2.6V | 00:00:00 | 00:00:00 | 00:00:00 | |
| DB0DAN | 2026-08-31 04:56:55 | 53.16027 | 8.21260 | 111° | 13km/h | 20268m | 5.9m/s | -51.8°C | 1.2% | 55.48hPa | 2.6V | 00:00:00 | 00:00:00 | 00:00:00 | |
| AA1-15 | 2026-08-31 04:56:52 | 53.16032 | 8.21247 | 114° | 9km/h | 20252m | 5.6m/s | -51.8°C | 0.8% | 55.6hPa | 2.6V | 18:12:15 | 01:25:12 | 00:00:00 | |
| BIOWL1-15 | 2026-08-31 04:56:52 | 53.16032 | 8.21239 | 73° | 11km/h | 20241m | 4.6m/s | -51.8°C | 0.8% | 55.7hPa | 2.7V | 18:12:15 | 01:25:10 | 00:00:00 | |
| DL1XH-west | 2026-08-31 04:56:49 | 53.16031 | 8.21234 | 75° | 13km/h | 20236m | 5.9m/s | -51.8°C | 0.8% | 55.8hPa | 2.7V | 18:12:15 | 01:25:09 | 00:00:00 | |
| DF5WG-10 | 2026-08-31 04:56:49 | 53.16031 | 8.21234 | 76° | 13km/h | 20236m | 5.8m/s | -51.7°C | 4.0% | 55.7hPa | 2.7V | 00:00:00 | 01:25:09 | 08:30:00 | |
| DD8BA-10 | 2026-08-31 04:56:48 | 53.16030 | 8.21229 | 85° | 13km/h | 20230m | 5.4m/s | -51.7°C | 4.0% | 55.7hPa | 2.6V | 00:00:00 | 00:00:00 | 00:00:00 | |
| DJ2DS-15 | 2026-08-31 04:56:47 | 53.16030 | 8.21224 | 85° | 15km/h | 20225m | 4.7m/s | -51.6°C | 3.9% | 55.8hPa | 2.6V | 00:00:00 | 01:25:07 | 00:00:00 | |
| BIOWL7-15 | 2026-08-31 04:56:46 | 53.16030 | 8.21224 | 85° | 13km/h | 20225m | 4.8m/s | -51.7°C | 1.2% | 55.8hPa | 2.6V | 00:00:00 | 00:00:00 | 00:00:00 | |
| DL1XH-15 | 2026-08-31 04:56:45 | 53.16028 | 8.21187 | 87° | 13km/h | 20188m | 6.3m/s | -51.7°C | 3.9% | 56.2hPa | 2.6V | 08:30:00 | 01:25:00 | 00:00:00 | |
| DO2JMG | 2026-08-31 04:56:45 | 53.16028 | 8.21214 | 69° | 13km/h | 20213m | 5.5m/s | -51.6°C | 0.7% | 56hPa | 2.6V | 18:12:15 | 01:25:05 | 00:00:00 | |
| AA1-15 | 2026-08-31 04:56:42 | 53.16028 | 8.21198 | 102° | 13km/h | 20198m | 5.1m/s | -51.7°C | 0.8% | 56.1hPa | 2.7V | 18:12:15 | 01:25:02 | 00:00:00 | |
| DB0DAN | 2026-08-31 04:56:40 | 53.16028 | 8.21187 | 88° | 13km/h | 20188m | 6.3m/s | -51.7°C | 1.2% | 56.18hPa | 2.6V | 00:00:00 | 00:00:00 | 00:00:00 | |
| DL1XH-west | 2026-08-31 04:56:39 | 53.16028 | 8.21182 | 83° | 13km/h | 20182m | 4.5m/s | -51.8°C | 0.7% | 56.2hPa | 2.6V | 18:12:15 | 01:24:59 | 00:00:00 | |
| HSKMA3-T | 2026-08-31 04:56:38 | 53.16028 | 8.21177 | 90° | 13km/h | 20177m | 5.3m/s | -51.9°C | 0.7% | 56.2hPa | 2.7V | 18:12:15 | 01:24:58 | 00:00:00 | |
| DD8BA-10 | 2026-08-31 04:56:38 | 53.16028 | 8.21177 | 90° | 15km/h | 20177m | 5.3m/s | -51.8°C | 3.9% | 56.2hPa | 2.7V | 00:00:00 | 00:00:00 | 00:00:00 | |
| DL4XJ-10 | 2026-08-31 04:56:37 | 53.16028 | 8.21172 | 101° | 16km/h | 20172m | 6.0m/s | -51.1°C | 0% | 0hPa | 2.6V | 00:00:00 | 00:00:00 | 00:00:00 | |
| DF4FW | 2026-08-31 04:56:36 | 53.16028 | 8.21172 | 102° | 11km/h | 20172m | 6.0m/s | -51.9°C | 1.2% | 56.3hPa | 2.6V | 00:00:00 | 00:00:00 | 00:00:00 | |
| DL1XH-15 | 2026-08-31 04:56:35 | 53.16025 | 8.21131 | 95° | 16km/h | 20134m | 5.1m/s | -52.1°C | 4.1% | 56.6hPa | 2.6V | 08:30:00 | 01:24:50 | 00:00:00 | |
| DO2JMG | 2026-08-31 04:56:35 | 53.16029 | 8.21162 | 92° | 13km/h | 20162m | 4.8m/s | -52°C | 0.7% | 56.4hPa | 2.6V | 18:12:15 | 01:24:55 | 00:00:00 | |
| AA1-15 | 2026-08-31 04:56:32 | 53.16026 | 8.21145 | 72° | 16km/h | 20145m | 4.7m/s | -52.1°C | 0.8% | 56.5hPa | 2.7V | 18:12:15 | 01:24:52 | 00:00:00 | |
| BIOWL1-15 | 2026-08-31 04:56:29 | 53.16025 | 8.21124 | 97° | 18km/h | 20130m | 4.3m/s | -52.2°C | 0.8% | 56.7hPa | 2.6V | 18:12:15 | 01:24:49 | 00:00:00 | |
| DL1XH-west | 2026-08-31 04:56:28 | 53.16026 | 8.21116 | 91° | 18km/h | 20124m | 6.1m/s | -52.2°C | 0.8% | 56.8hPa | 2.6V | 18:12:15 | 01:24:48 | 00:00:00 | |
| DD8BA-10 | 2026-08-31 04:56:28 | 53.16026 | 8.21116 | 91° | 18km/h | 20125m | 6.0m/s | -52.2°C | 4.0% | 56.7hPa | 2.7V | 00:00:00 | 00:00:00 | 00:00:00 | |
| DB0DAN | 2026-08-31 04:56:25 | 53.16024 | 8.21094 | 77° | 16km/h | 20109m | 5.6m/s | -52.4°C | 1.3% | 56.88hPa | 2.7V | 00:00:00 | 00:00:00 | 00:00:00 | |
| DL1XH-15 | 2026-08-31 04:56:25 | 53.16019 | 8.21054 | 71° | 20km/h | 20084m | 4.5m/s | -52.4°C | 4.1% | 57.1hPa | 2.6V | 08:30:00 | 01:24:40 | 00:00:00 | |
| DO2JMG | 2026-08-31 04:56:24 | 53.16023 | 8.21086 | 83° | 18km/h | 20104m | 5.2m/s | -52.4°C | 0.9% | 56.9hPa | 2.7V | 18:12:15 | 01:24:44 | 00:00:00 | |
| AA1-15 | 2026-08-31 04:56:21 | 53.16021 | 8.21062 | 75° | 20km/h | 20089m | 6.3m/s | -52.4°C | 0.9% | 57hPa | 2.6V | 18:12:15 | 01:24:41 | 00:00:00 | |
| DO2SHX-10 | 2026-08-31 04:56:20 | 53.16019 | 8.21054 | 72° | 18km/h | 20084m | 4.4m/s | -52.4°C | 4.1% | 57.1hPa | 2.6V | 00:00:00 | 01:24:40 | 00:00:00 | |
| DL1XH1-15 | 2026-08-31 04:56:19 | 53.16022 | 8.21019 | 120° | 11km/h | 20052m | 4.7m/s | -52.7°C | 4.2% | 57.4hPa | 2.6V | 08:30:00 | 01:24:34 | 00:00:00 | |
| BIOWL1-15 | 2026-08-31 04:56:19 | 53.16018 | 8.21046 | 78° | 18km/h | 20079m | 3.8m/s | -52.5°C | 0.9% | 57.1hPa | 2.7V | 18:12:15 | 01:24:39 | 00:00:00 | |
| DL1XH-west | 2026-08-31 04:56:18 | 53.16017 | 8.21039 | 91° | 16km/h | 20074m | 6.2m/s | -52.5°C | 0.9% | 57.2hPa | 2.7V | 18:12:15 | 01:24:38 | 00:00:00 | |
| DD8BA-10 | 2026-08-31 04:56:18 | 53.16017 | 8.21039 | 91° | 16km/h | 20074m | 6.2m/s | -52.5°C | 4.1% | 57.1hPa | 2.6V | 00:00:00 | 00:00:00 | 00:00:00 | |
| DL4XJ-10 | 2026-08-31 04:56:17 | 53.16018 | 8.21033 | 110° | 22km/h | 20069m | 5.5m/s | -51.7°C | 0% | 0hPa | 2.6V | 00:00:00 | 00:00:00 | 00:00:00 | |
| DL3AQ-11 | 2026-08-31 04:56:16 | 53.16021 | 8.21023 | 123° | 11km/h | 20058m | 6.2m/s | -52.6°C | 1.3% | 57.3hPa | 2.6V | 00:00:00 | 00:00:00 | 00:00:00 | |
| DL1XH-15 | 2026-08-31 04:56:15 | 53.16028 | 8.20995 | 99° | 24km/h | 20032m | 4.5m/s | -52.6°C | 4.1% | 57.6hPa | 2.6V | 08:30:00 | 01:24:30 | 00:00:00 | |
| DO2JMG | 2026-08-31 04:56:14 | 53.16023 | 8.21019 | 120° | 11km/h | 20052m | 4.7m/s | -52.7°C | 0.9% | 57.4hPa | 2.6V | 18:12:15 | 01:24:34 | 00:00:00 | |
| AA1-15 | 2026-08-31 04:56:11 | 53.16027 | 8.21003 | 110° | 18km/h | 20037m | 5.1m/s | -52.6°C | 0.9% | 57.5hPa | 2.6V | 18:12:15 | 01:24:31 | 00:00:00 | |
| DB0DAN | 2026-08-31 04:56:10 | 53.16028 | 8.20995 | 99° | 22km/h | 20032m | 4.5m/s | -52.6°C | 1.3% | 57.57hPa | 2.6V | 00:00:00 | 00:00:00 | 00:00:00 | |
| DM0DOS-11 | 2026-08-31 04:56:09 | 53.16018 | 8.20930 | 80° | 24km/h | 20000m | 5.1m/s | -52.8°C | 4.1% | 57.8hPa | 2.6V | 08:30:00 | 01:24:24 | 00:00:00 | |
| BIOWL1-15 | 2026-08-31 04:56:09 | 53.16029 | 8.20985 | 87° | 26km/h | 20027m | 5.2m/s | -52.6°C | 0.9% | 57.6hPa | 2.6V | 18:12:15 | 01:24:29 | 00:00:00 | |
| DF8AY | 2026-08-31 04:56:08 | 53.16027 | 8.20974 | 75° | 27km/h | 20022m | 6m/s | -52.6°C | 0.9% | 57.6hPa | 2.7V | 18:12:15 | 01:24:28 | 00:00:00 | |
| DL1XH-west | 2026-08-31 04:56:07 | 53.16025 | 8.20962 | 66° | 29km/h | 20016m | 5.2m/s | -52.6°C | 0.9% | 57.7hPa | 2.7V | 18:12:15 | 01:24:27 | 00:00:00 | |
| DJ2DS-15 | 2026-08-31 04:56:07 | 53.16025 | 8.20962 | 66° | 31km/h | 20017m | 5.2m/s | -52.6°C | 4.1% | 57.6hPa | 2.7V | 00:00:00 | 01:24:27 | 00:00:00 | |
| DF4FW | 2026-08-31 04:56:06 | 53.16022 | 8.20951 | 65° | 29km/h | 20012m | 4.6m/s | -52.7°C | 1.3% | 57.8hPa | 2.7V | 00:00:00 | 00:00:00 | 00:00:00 | |
| DL1XH-15 | 2026-08-31 04:56:05 | 53.16019 | 8.20893 | 106° | 26km/h | 19979m | 5.3m/s | -53°C | 4.2% | 58hPa | 2.7V | 08:30:00 | 01:24:20 | 00:00:00 | |
| DO2JMG | 2026-08-31 04:56:03 | 53.16017 | 8.20920 | 88° | 22km/h | 19995m | 5.3m/s | -52.8°C | 0.9% | 57.9hPa | 2.6V | 18:12:15 | 01:24:23 | 00:00:00 | |
| AA1-15 | 2026-08-31 04:56:00 | 53.16019 | 8.20893 | 107° | 26km/h | 19979m | 5.3m/s | -53°C | 0.9% | 58hPa | 2.7V | 18:12:15 | 01:24:20 | 00:00:00 | |
| BUE01 | 2026-08-31 04:56:00 | 53.16021 | 8.20882 | 106° | 29km/h | 19974m | 5.5m/s | -53.0°C | 1.3% | 58.1hPa | 2.7V | 00:00:00 | 00:00:00 | 00:00:00 | |
| DL1XH1-15 | 2026-08-31 04:55:59 | 53.16014 | 8.20806 | 59° | 38km/h | 19948m | 4.8m/s | -52.8°C | 4.2% | 58.3hPa | 2.7V | 08:30:00 | 01:24:14 | 00:00:00 | |
| BIOWL1-15 | 2026-08-31 04:55:58 | 53.16022 | 8.20868 | 98° | 37km/h | 19969m | 3.9m/s | -52.9°C | 1% | 58.1hPa | 2.6V | 18:12:15 | 01:24:18 | 00:00:00 | |
| DF8AY | 2026-08-31 04:55:57 | 53.16023 | 8.20853 | 89° | 38km/h | 19964m | 4.6m/s | -52.8°C | 1% | 58.2hPa | 2.6V | 18:12:15 | 01:24:17 | 00:00:00 | |
| DL1XH-west | 2026-08-31 04:55:56 | 53.16022 | 8.20837 | 78° | 38km/h | 19959m | 6m/s | -52.8°C | 1% | 58.2hPa | 2.6V | 18:12:15 | 01:24:16 | 00:00:00 | |
| DB0DAN | 2026-08-31 04:55:55 | 53.16019 | 8.20821 | 67° | 37km/h | 19953m | 5.4m/s | -52.8°C | 1.3% | 58.26hPa | 2.6V | 00:00:00 | 00:00:00 | 00:00:00 | |
| DO2JMG | 2026-08-31 04:55:53 | 53.16010 | 8.20793 | 58° | 37km/h | 19943m | 4.8m/s | -52.7°C | 0.9% | 58.4hPa | 2.7V | 18:12:15 | 01:24:13 | 00:00:00 | |
| AA1-15 | 2026-08-31 04:55:50 | 53.15998 | 8.20753 | 70° | 33km/h | 19929m | 4.7m/s | -52.6°C | 0.9% | 58.5hPa | 2.6V | 18:12:15 | 01:24:10 | 00:00:00 | |
| GOEST3-10 | 2026-08-31 04:55:50 | 53.15998 | 8.20753 | 71° | 29km/h | 19929m | 4.7m/s | -52.6°C | 4.2% | 58.4hPa | 2.6V | 00:00:00 | 01:24:10 | 00:00:00 | |
| DL1XH1-15 | 2026-08-31 04:55:49 | 53.15990 | 8.20685 | 84° | 26km/h | 19898m | 5.5m/s | -52.4°C | 4.2% | 58.8hPa | 2.6V | 08:30:00 | 01:24:04 | 00:00:00 | |
| BIOWL1-15 | 2026-08-31 04:55:47 | 53.15992 | 8.20719 | 83° | 26km/h | 19913m | 5.1m/s | -52.5°C | 1% | 58.6hPa | 2.7V | 18:12:15 | 01:24:07 | 00:00:00 | |
| DL1XH-west | 2026-08-31 04:55:46 | 53.15991 | 8.20708 | 87° | 27km/h | 19907m | 5.6m/s | -52.5°C | 1% | 58.7hPa | 2.6V | 18:12:15 | 01:24:06 | 00:00:00 | |
| DO2JMG | 2026-08-31 04:55:43 | 53.15989 | 8.20674 | 75° | 26km/h | 19892m | 5.6m/s | -52.4°C | 0.9% | 58.9hPa | 2.7V | 18:12:15 | 01:24:03 | 00:00:00 | |
| DD1CC2-15 | 2026-08-31 04:55:42 | 53.15989 | 8.20674 | 76° | 26km/h | 19892m | 5.6m/s | -52.4°C | 1.3% | 58.9hPa | 2.6V | 00:00:00 | 00:00:00 | 00:00:00 | |
| DB0DAN | 2026-08-31 04:55:40 | 53.15982 | 8.20642 | 70° | 29km/h | 19877m | 5.2m/s | -52.3°C | 1.3% | 58.94hPa | 2.6V | 00:00:00 | 00:00:00 | 00:00:00 | |
| AA1-15 | 2026-08-31 04:55:40 | 53.15982 | 8.20642 | 70° | 29km/h | 19877m | 5.2m/s | -52.3°C | 0.9% | 58.9hPa | 2.6V | 18:12:15 | 01:24:00 | 00:00:00 | |
| DL1XH1-15 | 2026-08-31 04:55:39 | 53.15969 | 8.20580 | 74° | 26km/h | 19846m | 4.9m/s | -52.2°C | 4.1% | 59.2hPa | 2.7V | 08:30:00 | 01:23:54 | 00:00:00 | |
| BIOWL1-15 | 2026-08-31 04:55:36 | 53.15973 | 8.20599 | 68° | 24km/h | 19857m | 4.9m/s | -52.3°C | 0.9% | 59.2hPa | 2.7V | 18:12:15 | 01:23:56 | 00:00:00 | |
| DL1XH-west | 2026-08-31 04:55:35 | 53.15971 | 8.20590 | 73° | 24km/h | 19852m | 6.2m/s | -52.3°C | 0.9% | 59.2hPa | 2.7V | 18:12:15 | 01:23:55 | 00:00:00 | |
| DO2JMG | 2026-08-31 04:55:32 | 53.15965 | 8.20561 | 68° | 24km/h | 19837m | 6.1m/s | -52.1°C | 0.9% | 59.3hPa | 2.6V | 18:12:15 | 01:23:52 | 00:00:00 | |
| AA1-15 | 2026-08-31 04:55:30 | 53.15960 | 8.20543 | 61° | 26km/h | 19826m | 5.3m/s | -52.1°C | 0.8% | 59.4hPa | 2.6V | 18:12:15 | 01:23:50 | 00:00:00 | |
| DO2SHX-10 | 2026-08-31 04:55:29 | 53.15956 | 8.20533 | 63° | 29km/h | 19821m | 6.0m/s | -52.0°C | 3.9% | 59.4hPa | 2.6V | 00:00:00 | 01:23:49 | 00:00:00 | |
| BUE01 | 2026-08-31 04:55:28 | 53.15953 | 8.20521 | 64° | 29km/h | 19815m | 4.4m/s | -52.0°C | 1.2% | 59.5hPa | 2.6V | 00:00:00 | 00:00:00 | 00:00:00 | |
| DF8AY-15 | 2026-08-31 04:55:27 | 53.15949 | 8.20510 | 63° | 24km/h | 19811m | 4.0m/s | -51.9°C | 4.0% | 59.5hPa | 2.6V | 00:00:00 | 01:23:47 | 00:00:00 | |
| DO2SHX-10 | 2026-08-31 04:55:26 | 53.15946 | 8.20500 | 58° | 26km/h | 19806m | 5.8m/s | -52.0°C | 4.0% | 59.6hPa | 2.6V | 00:00:00 | 01:23:46 | 00:00:00 | |
| DL1XH-15 | 2026-08-31 04:55:25 | 53.15925 | 8.20448 | 60° | 26km/h | 19775m | 6.4m/s | -52.2°C | 4% | 59.9hPa | 2.6V | 08:30:00 | 01:23:40 | 00:00:00 | |
| DL1XH-west | 2026-08-31 04:55:25 | 53.15942 | 8.20491 | 51° | 24km/h | 19801m | 4.9m/s | -52°C | 0.8% | 59.7hPa | 2.6V | 18:12:15 | 01:23:45 | 00:00:00 | |
| DB0DAN | 2026-08-31 04:55:25 | 53.15942 | 8.20491 | 51° | 24km/h | 19801m | 4.9m/s | -52°C | 1.2% | 59.66hPa | 2.6V | 00:00:00 | 00:00:00 | 00:00:00 | |
| DO2JMG | 2026-08-31 04:55:22 | 53.15931 | 8.20467 | 60° | 26km/h | 19786m | 5.2m/s | -52°C | 0.7% | 59.8hPa | 2.7V | 18:12:15 | 01:23:42 | 00:00:00 | |
| AA1-15 | 2026-08-31 04:55:20 | 53.15925 | 8.20448 | 61° | 26km/h | 19775m | 6.4m/s | -52.2°C | 0.9% | 59.9hPa | 2.6V | 18:12:15 | 01:23:40 | 00:00:00 | |
| DO2SHX-10 | 2026-08-31 04:55:20 | 53.15925 | 8.20448 | 61° | 26km/h | 19775m | 6.4m/s | -52.1°C | 4.0% | 59.9hPa | 2.7V | 00:00:00 | 01:23:40 | 00:00:00 | |
| DL3AQ-11 | 2026-08-31 04:55:19 | 53.15922 | 8.20439 | 60° | 24km/h | 19769m | 5.1m/s | -52.2°C | 1.2% | 60.0hPa | 2.7V | 00:00:00 | 00:00:00 | 00:00:00 | |
| DD8BA-10 | 2026-08-31 04:55:18 | 53.15919 | 8.20430 | 63° | 22km/h | 19765m | 4.2m/s | -52.3°C | 4.1% | 60.0hPa | 2.7V | 00:00:00 | 00:00:00 | 00:00:00 | |
| DO2SHX-10 | 2026-08-31 04:55:17 | 53.15916 | 8.20420 | 66° | 27km/h | 19760m | 5.8m/s | -52.3°C | 4.1% | 60.0hPa | 2.7V | 00:00:00 | 01:23:37 | 00:00:00 | |
| DL1NUX | 2026-08-31 04:55:16 | 53.15899 | 8.20374 | 49° | 15km/h | 19729m | 5.8m/s | -52.4°C | 4.1% | 60.3hPa | 2.7V | 08:30:00 | 01:23:31 | 00:00:00 | |
| DL1XH-15 | 2026-08-31 04:55:15 | 53.15897 | 8.20369 | 59° | 15km/h | 19724m | 5.3m/s | -52.4°C | 4.1% | 60.4hPa | 2.7V | 08:30:00 | 01:23:30 | 00:00:00 | |
| DL1XH-west | 2026-08-31 04:55:15 | 53.15910 | 8.20399 | 63° | 26km/h | 19750m | 3.9m/s | -52.3°C | 0.9% | 60.1hPa | 2.6V | 18:12:15 | 01:23:35 | 00:00:00 | |
| HSKMA3-T | 2026-08-31 04:55:14 | 53.15907 | 8.20390 | 59° | 22km/h | 19745m | 6.1m/s | -52.3°C | 0.9% | 60.2hPa | 2.6V | 18:12:15 | 01:23:34 | 00:00:00 | |
| DO2JMG | 2026-08-31 04:55:11 | 53.15899 | 8.20374 | 50° | 15km/h | 19729m | 5.8m/s | -52.4°C | 0.9% | 60.3hPa | 2.7V | 18:12:15 | 01:23:31 | 00:00:00 | |
| AA1-15 | 2026-08-31 04:55:09 | 53.15895 | 8.20363 | 62° | 16km/h | 19719m | 4.3m/s | -52.4°C | 0.9% | 60.4hPa | 2.7V | 18:12:15 | 01:23:29 | 00:00:00 | |
| DD8BA-10 | 2026-08-31 04:55:08 | 53.15893 | 8.20357 | 59° | 26km/h | 19714m | 5.9m/s | -52.4°C | 4.1% | 60.4hPa | 2.6V | 00:00:00 | 00:00:00 | 00:00:00 | |
| DL3AQ-11 | 2026-08-31 04:55:07 | 53.15888 | 8.20346 | 50° | 18km/h | 19704m | 4.7m/s | -52.5°C | 1.3% | 60.6hPa | 2.6V | 00:00:00 | 00:00:00 | 00:00:00 | |
| DL1NUX | 2026-08-31 04:55:06 | 53.15862 | 8.20302 | 33° | 33km/h | 19677m | 4.7m/s | -52.5°C | 4.2% | 60.8hPa | 2.6V | 08:30:00 | 01:23:21 | 00:00:00 | |
| DL1XH-15 | 2026-08-31 04:55:05 | 53.15856 | 8.20295 | 31° | 31km/h | 19673m | 3.9m/s | -52.5°C | 4.1% | 60.9hPa | 2.7V | 08:30:00 | 01:23:20 | 00:00:00 | |
| DL1XH-west | 2026-08-31 04:55:04 | 53.15880 | 8.20330 | 50° | 29km/h | 19693m | 5.1m/s | -52.5°C | 0.9% | 60.7hPa | 2.7V | 18:12:15 | 01:23:24 | 00:00:00 | |
| DF8AY | 2026-08-31 04:55:04 | 53.15875 | 8.20320 | 46° | 33km/h | 19688m | 4.6m/s | -52.5°C | 0.9% | 60.7hPa | 2.6V | 18:12:15 | 01:23:23 | 00:00:00 | |
| DO2JMG | 2026-08-31 04:55:00 | 53.15856 | 8.20295 | 31° | 31km/h | 19673m | 3.9m/s | -52.5°C | 0.9% | 60.9hPa | 2.7V | 18:12:15 | 01:23:20 | 00:00:00 | |
| AA1-15 | 2026-08-31 04:54:59 | 53.15849 | 8.20288 | 34° | 29km/h | 19668m | 5.4m/s | -52.5°C | 0.9% | 60.9hPa | 2.7V | 18:12:15 | 01:23:19 | 00:00:00 | |
| DO2SHX-10 | 2026-08-31 04:54:59 | 53.15849 | 8.20288 | 35° | 29km/h | 19668m | 5.4m/s | -52.5°C | 4.1% | 60.9hPa | 2.7V | 00:00:00 | 01:23:19 | 00:00:00 | |
| DD8BA-10 | 2026-08-31 04:54:58 | 53.15843 | 8.20281 | 41° | 27km/h | 19663m | 5.4m/s | -52.5°C | 4.1% | 60.9hPa | 2.7V | 00:00:00 | 00:00:00 | 00:00:00 | |
| DL4XJ-10 | 2026-08-31 04:54:57 | 53.15838 | 8.20273 | 44° | 33km/h | 19658m | 4.3m/s | -51.7°C | 0% | 0hPa | 2.7V | 00:00:00 | 00:00:00 | 00:00:00 | |
| DL1NUX | 2026-08-31 04:54:56 | 53.15811 | 8.20230 | 50° | 27km/h | 19629m | 4.9m/s | -52.5°C | 4.2% | 61.3hPa | 2.7V | 08:30:00 | 01:23:11 | 00:00:00 | |
| DL3AQ-11 | 2026-08-31 04:54:56 | 53.15829 | 8.20258 | 41° | 22km/h | 19649m | 5.7m/s | -52.4°C | 1.3% | 61.1hPa | 2.6V | 00:00:00 | 00:00:00 | 00:00:00 | |
| DB0DAN | 2026-08-31 04:54:55 | 53.15829 | 8.20258 | 41° | 22km/h | 19648m | 5.7m/s | -52.4°C | 1.3% | 61.1hPa | 2.6V | 00:00:00 | 00:00:00 | 00:00:00 | |
| DL1XH-15 | 2026-08-31 04:54:55 | 53.15806 | 8.20221 | 47° | 31km/h | 19625m | 4.6m/s | -52.5°C | 4.2% | 61.4hPa | 2.6V | 08:30:00 | 01:23:10 | 00:00:00 | |
| DL1XH-west | 2026-08-31 04:54:53 | 53.15820 | 8.20246 | 42° | 24km/h | 19639m | 4.4m/s | -52.5°C | 0.9% | 61.2hPa | 2.7V | 18:12:15 | 01:23:13 | 00:00:00 | |
| HSKMA3-T | 2026-08-31 04:54:52 | 53.15815 | 8.20238 | 47° | 26km/h | 19634m | 5.1m/s | -52.5°C | 0.9% | 61.2hPa | 2.7V | 18:12:15 | 01:23:12 | 00:00:00 | |
| DO2JMG | 2026-08-31 04:54:50 | 53.15806 | 8.20221 | 48° | 31km/h | 19625m | 4.6m/s | -52.5°C | 0.9% | 61.4hPa | 2.6V | 18:12:15 | 01:23:10 | 00:00:00 | |
| Es werden nur die letzten 3500 von 6348 Frames angezeigt. GPX/KML und Diagramme bleiben verfügbar. | |||||||||||||||